﻿<?xml version="1.0" encoding="utf-8"?><gpx creator="Garmin Desktop App" version="1.1" xsi:schemaLocation="http://www.topografix.com/GPX/1/1 http://www.topografix.com/GPX/1/1/gpx.xsd http://www.garmin.com/xmlschemas/WaypointExtension/v1 http://www8.garmin.com/xmlschemas/WaypointExtensionv1.xsd http://www.garmin.com/xmlschemas/TrackPointExtension/v1 http://www.garmin.com/xmlschemas/TrackPointExtensionv1.xsd http://www.garmin.com/xmlschemas/GpxExtensions/v3 http://www8.garmin.com/xmlschemas/GpxExtensionsv3.xsd http://www.garmin.com/xmlschemas/ActivityExtension/v1 http://www8.garmin.com/xmlschemas/ActivityExtensionv1.xsd http://www.garmin.com/xmlschemas/AdventuresExtensions/v1 http://www8.garmin.com/xmlschemas/AdventuresExtensionv1.xsd http://www.garmin.com/xmlschemas/PressureExtension/v1 http://www.garmin.com/xmlschemas/PressureExtensionv1.xsd http://www.garmin.com/xmlschemas/TripExtensions/v1 http://www.garmin.com/xmlschemas/TripExtensionsv1.xsd http://www.garmin.com/xmlschemas/TripMetaDataExtensions/v1 http://www.garmin.com/xmlschemas/TripMetaDataExtensionsv1.xsd http://www.garmin.com/xmlschemas/ViaPointTransportationModeExtensions/v1 http://www.garmin.com/xmlschemas/ViaPointTransportationModeExtensionsv1.xsd http://www.garmin.com/xmlschemas/CreationTimeExtension/v1 http://www.garmin.com/xmlschemas/CreationTimeExtensionsv1.xsd http://www.garmin.com/xmlschemas/AccelerationExtension/v1 http://www.garmin.com/xmlschemas/AccelerationExtensionv1.xsd http://www.garmin.com/xmlschemas/PowerExtension/v1 http://www.garmin.com/xmlschemas/PowerExtensionv1.xsd http://www.garmin.com/xmlschemas/VideoExtension/v1 http://www.garmin.com/xmlschemas/VideoExtensionv1.xsd" xmlns="http://www.topografix.com/GPX/1/1" xmlns:xsi="http://www.w3.org/2001/XMLSchema-instance" xmlns:wptx1="http://www.garmin.com/xmlschemas/WaypointExtension/v1" xmlns:gpxtrx="http://www.garmin.com/xmlschemas/GpxExtensions/v3" xmlns:gpxtpx="http://www.garmin.com/xmlschemas/TrackPointExtension/v1" xmlns:gpxx="http://www.garmin.com/xmlschemas/GpxExtensions/v3" xmlns:trp="http://www.garmin.com/xmlschemas/TripExtensions/v1" xmlns:adv="http://www.garmin.com/xmlschemas/AdventuresExtensions/v1" xmlns:prs="http://www.garmin.com/xmlschemas/PressureExtension/v1" xmlns:tmd="http://www.garmin.com/xmlschemas/TripMetaDataExtensions/v1" xmlns:vptm="http://www.garmin.com/xmlschemas/ViaPointTransportationModeExtensions/v1" xmlns:ctx="http://www.garmin.com/xmlschemas/CreationTimeExtension/v1" xmlns:gpxacc="http://www.garmin.com/xmlschemas/AccelerationExtension/v1" xmlns:gpxpx="http://www.garmin.com/xmlschemas/PowerExtension/v1" xmlns:vidx1="http://www.garmin.com/xmlschemas/VideoExtension/v1">

  <metadata>
    <link href="http://www.garmin.com">
      <text>Garmin International</text>
    </link>
    <time>2021-01-22T16:47:25Z</time>
    <bounds maxlat="46.69321333989501" maxlon="12.433914486318827" minlat="46.602347390726209" minlon="12.05470209941268" />
  </metadata>

  <trk>
    <name>malga nemes2017-03-12</name>
    <extensions>
      <gpxx:TrackExtension>
        <gpxx:DisplayColor>Yellow</gpxx:DisplayColor>
      </gpxx:TrackExtension>
    </extensions>
    <trkseg>
      <trkpt lat="46.65592803619802" lon="12.420610897243023">
        <ele>1653.5999999999999</ele>
        <time>2017-03-12T08:23:53Z</time>
      </trkpt>
      <trkpt lat="46.655929293483496" lon="12.42061173543334">
        <ele>1653.5999999999999</ele>
        <time>2017-03-12T08:23:54Z</time>
      </trkpt>
      <trkpt lat="46.65592510253191" lon="12.420613327994943">
        <ele>1650.24</ele>
        <time>2017-03-12T08:23:57Z</time>
      </trkpt>
      <trkpt lat="46.655921330675483" lon="12.420615423470736">
        <ele>1650.24</ele>
        <time>2017-03-12T08:23:58Z</time>
      </trkpt>
      <trkpt lat="46.655929125845432" lon="12.420654986053705">
        <ele>1650.72</ele>
        <time>2017-03-12T08:24:10Z</time>
      </trkpt>
      <trkpt lat="46.655932730063796" lon="12.420648196712136">
        <ele>1651.2</ele>
        <time>2017-03-12T08:24:23Z</time>
      </trkpt>
      <trkpt lat="46.655934657901525" lon="12.420692956075072">
        <ele>1651.2</ele>
        <time>2017-03-12T08:24:34Z</time>
      </trkpt>
      <trkpt lat="46.655947901308537" lon="12.420710474252701">
        <ele>1651.2</ele>
        <time>2017-03-12T08:24:36Z</time>
      </trkpt>
      <trkpt lat="46.656005065888166" lon="12.420839052647352">
        <ele>1652.6400000000001</ele>
        <time>2017-03-12T08:24:47Z</time>
      </trkpt>
      <trkpt lat="46.65606482885778" lon="12.420889846980572">
        <ele>1653.5999999999999</ele>
        <time>2017-03-12T08:24:56Z</time>
      </trkpt>
      <trkpt lat="46.656055273488164" lon="12.420882554724813">
        <ele>1654.5699999999999</ele>
        <time>2017-03-12T08:25:06Z</time>
      </trkpt>
      <trkpt lat="46.65605359710753" lon="12.420876435935497">
        <ele>1654.0899999999999</ele>
        <time>2017-03-12T08:25:27Z</time>
      </trkpt>
      <trkpt lat="46.656091483309865" lon="12.420874340459704">
        <ele>1654.5699999999999</ele>
        <time>2017-03-12T08:25:35Z</time>
      </trkpt>
      <trkpt lat="46.656153593212366" lon="12.420853888615966">
        <ele>1655.05</ele>
        <time>2017-03-12T08:25:42Z</time>
      </trkpt>
      <trkpt lat="46.65620556101203" lon="12.420808039605618">
        <ele>1655.05</ele>
        <time>2017-03-12T08:25:48Z</time>
      </trkpt>
      <trkpt lat="46.656296001747251" lon="12.420735452324152">
        <ele>1656.97</ele>
        <time>2017-03-12T08:26:00Z</time>
      </trkpt>
      <trkpt lat="46.65631159208715" lon="12.420720113441348">
        <ele>1656.97</ele>
        <time>2017-03-12T08:26:02Z</time>
      </trkpt>
      <trkpt lat="46.656381078064442" lon="12.420736122876406">
        <ele>1657.9300000000001</ele>
        <time>2017-03-12T08:26:13Z</time>
      </trkpt>
      <trkpt lat="46.656426005065441" lon="12.420782139524817">
        <ele>1658.4100000000001</ele>
        <time>2017-03-12T08:26:20Z</time>
      </trkpt>
      <trkpt lat="46.656517283990979" lon="12.420847183093429">
        <ele>1660.8099999999999</ele>
        <time>2017-03-12T08:26:33Z</time>
      </trkpt>
      <trkpt lat="46.656585680320859" lon="12.420901414006948">
        <ele>1662.74</ele>
        <time>2017-03-12T08:26:45Z</time>
      </trkpt>
      <trkpt lat="46.656625242903829" lon="12.420946760103106">
        <ele>1664.6600000000001</ele>
        <time>2017-03-12T08:26:55Z</time>
      </trkpt>
      <trkpt lat="46.656670169904828" lon="12.420994117856026">
        <ele>1666.5799999999999</ele>
        <time>2017-03-12T08:27:06Z</time>
      </trkpt>
      <trkpt lat="46.656721048057079" lon="12.421018090099096">
        <ele>1667.54</ele>
        <time>2017-03-12T08:27:16Z</time>
      </trkpt>
      <trkpt lat="46.656750552356243" lon="12.420990178361535">
        <ele>1668.51</ele>
        <time>2017-03-12T08:27:21Z</time>
      </trkpt>
      <trkpt lat="46.656843675300479" lon="12.420999901369214">
        <ele>1669.47</ele>
        <time>2017-03-12T08:27:34Z</time>
      </trkpt>
      <trkpt lat="46.656898492947221" lon="12.421026304364204">
        <ele>1669.95</ele>
        <time>2017-03-12T08:27:46Z</time>
      </trkpt>
      <trkpt lat="46.656919112429023" lon="12.421107022091746">
        <ele>1670.4300000000001</ele>
        <time>2017-03-12T08:27:55Z</time>
      </trkpt>
      <trkpt lat="46.656924225389957" lon="12.421133425086737">
        <ele>1670.9100000000001</ele>
        <time>2017-03-12T08:28:09Z</time>
      </trkpt>
      <trkpt lat="46.656929505988955" lon="12.421148009598255">
        <ele>1670.9100000000001</ele>
        <time>2017-03-12T08:28:10Z</time>
      </trkpt>
      <trkpt lat="46.65693704970181" lon="12.421182207763195">
        <ele>1670.9100000000001</ele>
        <time>2017-03-12T08:28:12Z</time>
      </trkpt>
      <trkpt lat="46.656945180147886" lon="12.421297207474709">
        <ele>1672.3499999999999</ele>
        <time>2017-03-12T08:28:22Z</time>
      </trkpt>
      <trkpt lat="46.656988011673093" lon="12.421368202194571">
        <ele>1673.3099999999999</ele>
        <time>2017-03-12T08:28:32Z</time>
      </trkpt>
      <trkpt lat="46.657044421881437" lon="12.42141648195684">
        <ele>1675.23</ele>
        <time>2017-03-12T08:28:42Z</time>
      </trkpt>
      <trkpt lat="46.657093875110149" lon="12.421487141400576">
        <ele>1677.1600000000001</ele>
        <time>2017-03-12T08:28:54Z</time>
      </trkpt>
      <trkpt lat="46.657141568139195" lon="12.421524105593562">
        <ele>1679.0799999999999</ele>
        <time>2017-03-12T08:29:04Z</time>
      </trkpt>
      <trkpt lat="46.657177191227674" lon="12.421575905755162">
        <ele>1680.04</ele>
        <time>2017-03-12T08:29:16Z</time>
      </trkpt>
      <trkpt lat="46.657188842073083" lon="12.421593088656664">
        <ele>1680.52</ele>
        <time>2017-03-12T08:29:30Z</time>
      </trkpt>
      <trkpt lat="46.657298225909472" lon="12.421679170802236">
        <ele>1681.48</ele>
        <time>2017-03-12T08:29:43Z</time>
      </trkpt>
      <trkpt lat="46.657358575612307" lon="12.421757457777858">
        <ele>1683.4100000000001</ele>
        <time>2017-03-12T08:29:55Z</time>
      </trkpt>
      <trkpt lat="46.657412052154541" lon="12.421825937926769">
        <ele>1684.8499999999999</ele>
        <time>2017-03-12T08:30:05Z</time>
      </trkpt>
      <trkpt lat="46.657462092116475" lon="12.421872792765498">
        <ele>1686.29</ele>
        <time>2017-03-12T08:30:15Z</time>
      </trkpt>
      <trkpt lat="46.657532751560211" lon="12.42193540558219">
        <ele>1687.73</ele>
        <time>2017-03-12T08:30:25Z</time>
      </trkpt>
      <trkpt lat="46.657565189525485" lon="12.42201411165297">
        <ele>1689.1700000000001</ele>
        <time>2017-03-12T08:30:36Z</time>
      </trkpt>
      <trkpt lat="46.657615732401609" lon="12.422017632052302">
        <ele>1689.6500000000001</ele>
        <time>2017-03-12T08:30:46Z</time>
      </trkpt>
      <trkpt lat="46.657630065456033" lon="12.42202484048903">
        <ele>1690.1400000000001</ele>
        <time>2017-03-12T08:30:48Z</time>
      </trkpt>
      <trkpt lat="46.657708687707782" lon="12.422053255140781">
        <ele>1690.6199999999999</ele>
        <time>2017-03-12T08:30:59Z</time>
      </trkpt>
      <trkpt lat="46.657774485647678" lon="12.422143863514066">
        <ele>1691.0999999999999</ele>
        <time>2017-03-12T08:31:11Z</time>
      </trkpt>
      <trkpt lat="46.657844306901097" lon="12.422248553484678">
        <ele>1690.6199999999999</ele>
        <time>2017-03-12T08:31:21Z</time>
      </trkpt>
      <trkpt lat="46.657930724322796" lon="12.422335976734757">
        <ele>1690.1400000000001</ele>
        <time>2017-03-12T08:31:32Z</time>
      </trkpt>
      <trkpt lat="46.658007586374879" lon="12.422411581501365">
        <ele>1690.6199999999999</ele>
        <time>2017-03-12T08:31:42Z</time>
      </trkpt>
      <trkpt lat="46.658013621345162" lon="12.422419125214219">
        <ele>1690.6199999999999</ele>
        <time>2017-03-12T08:31:52Z</time>
      </trkpt>
      <trkpt lat="46.658064667135477" lon="12.422483246773481">
        <ele>1691.0999999999999</ele>
        <time>2017-03-12T08:32:01Z</time>
      </trkpt>
      <trkpt lat="46.65808386169374" lon="12.422555163502693">
        <ele>1691.5799999999999</ele>
        <time>2017-03-12T08:32:07Z</time>
      </trkpt>
      <trkpt lat="46.658078664913774" lon="12.422674018889666">
        <ele>1692.54</ele>
        <time>2017-03-12T08:32:17Z</time>
      </trkpt>
      <trkpt lat="46.658103810623288" lon="12.422798993065953">
        <ele>1694.46</ele>
        <time>2017-03-12T08:32:30Z</time>
      </trkpt>
      <trkpt lat="46.65814739651978" lon="12.422859091311693">
        <ele>1695.9000000000001</ele>
        <time>2017-03-12T08:32:40Z</time>
      </trkpt>
      <trkpt lat="46.658186372369528" lon="12.422815421596169">
        <ele>1697.3399999999999</ele>
        <time>2017-03-12T08:32:50Z</time>
      </trkpt>
      <trkpt lat="46.658214284107089" lon="12.422728920355439">
        <ele>1699.27</ele>
        <time>2017-03-12T08:33:00Z</time>
      </trkpt>
      <trkpt lat="46.658242447301745" lon="12.422662116587162">
        <ele>1700.71</ele>
        <time>2017-03-12T08:33:10Z</time>
      </trkpt>
      <trkpt lat="46.658296594396234" lon="12.42273579351604">
        <ele>1702.1500000000001</ele>
        <time>2017-03-12T08:33:21Z</time>
      </trkpt>
      <trkpt lat="46.658347556367517" lon="12.422737134620547">
        <ele>1703.5899999999999</ele>
        <time>2017-03-12T08:33:32Z</time>
      </trkpt>
      <trkpt lat="46.658290475606918" lon="12.422754485160112">
        <ele>1704.0699999999999</ele>
        <time>2017-03-12T08:33:43Z</time>
      </trkpt>
      <trkpt lat="46.658289385959506" lon="12.422815002501011">
        <ele>1703.5899999999999</ele>
        <time>2017-03-12T08:34:01Z</time>
      </trkpt>
      <trkpt lat="46.658354513347149" lon="12.42277979850769">
        <ele>1704.0699999999999</ele>
        <time>2017-03-12T08:34:11Z</time>
      </trkpt>
      <trkpt lat="46.658378317952156" lon="12.422790192067623">
        <ele>1704.0699999999999</ele>
        <time>2017-03-12T08:34:13Z</time>
      </trkpt>
      <trkpt lat="46.65849088691175" lon="12.422844087705016">
        <ele>1704.0699999999999</ele>
        <time>2017-03-12T08:34:23Z</time>
      </trkpt>
      <trkpt lat="46.658572526648641" lon="12.422877196222544">
        <ele>1704.55</ele>
        <time>2017-03-12T08:34:33Z</time>
      </trkpt>
      <trkpt lat="46.658621309325099" lon="12.422951040789485">
        <ele>1705.52</ele>
        <time>2017-03-12T08:34:42Z</time>
      </trkpt>
      <trkpt lat="46.658630445599556" lon="12.423002840951085">
        <ele>1706.96</ele>
        <time>2017-03-12T08:34:52Z</time>
      </trkpt>
      <trkpt lat="46.658644191920757" lon="12.423017593100667">
        <ele>1707.4400000000001</ele>
        <time>2017-03-12T08:35:03Z</time>
      </trkpt>
      <trkpt lat="46.658639078959823" lon="12.42298792116344">
        <ele>1707.9200000000001</ele>
        <time>2017-03-12T08:35:16Z</time>
      </trkpt>
      <trkpt lat="46.658616028726101" lon="12.423091772943735">
        <ele>1707.9200000000001</ele>
        <time>2017-03-12T08:35:32Z</time>
      </trkpt>
      <trkpt lat="46.658593146130443" lon="12.423127144575119">
        <ele>1707.9200000000001</ele>
        <time>2017-03-12T08:35:44Z</time>
      </trkpt>
      <trkpt lat="46.658612424507737" lon="12.423088420182467">
        <ele>1706.96</ele>
        <time>2017-03-12T08:35:56Z</time>
      </trkpt>
      <trkpt lat="46.658638576045632" lon="12.423095880076289">
        <ele>1707.9200000000001</ele>
        <time>2017-03-12T08:36:07Z</time>
      </trkpt>
      <trkpt lat="46.658666990697384" lon="12.423053970560431">
        <ele>1708.8800000000001</ele>
        <time>2017-03-12T08:36:15Z</time>
      </trkpt>
      <trkpt lat="46.658669002354145" lon="12.423041062429547">
        <ele>1707.9200000000001</ele>
        <time>2017-03-12T08:36:30Z</time>
      </trkpt>
      <trkpt lat="46.658680317923427" lon="12.423043409362435">
        <ele>1707.4400000000001</ele>
        <time>2017-03-12T08:36:43Z</time>
      </trkpt>
      <trkpt lat="46.658669086173177" lon="12.423111805692315">
        <ele>1707.4400000000001</ele>
        <time>2017-03-12T08:37:07Z</time>
      </trkpt>
      <trkpt lat="46.65864285081625" lon="12.423152038827538">
        <ele>1706.96</ele>
        <time>2017-03-12T08:37:35Z</time>
      </trkpt>
      <trkpt lat="46.658665901049972" lon="12.423048773780465">
        <ele>1706.96</ele>
        <time>2017-03-12T08:38:05Z</time>
      </trkpt>
      <trkpt lat="46.658666152507067" lon="12.423044918105006">
        <ele>1706.96</ele>
        <time>2017-03-12T08:38:40Z</time>
      </trkpt>
      <trkpt lat="46.658660285174847" lon="12.423042738810182">
        <ele>1707.9200000000001</ele>
        <time>2017-03-12T08:38:49Z</time>
      </trkpt>
      <trkpt lat="46.658661626279354" lon="12.423004517331719">
        <ele>1707.9200000000001</ele>
        <time>2017-03-12T08:39:00Z</time>
      </trkpt>
      <trkpt lat="46.658649053424597" lon="12.423016587272286">
        <ele>1707.9200000000001</ele>
        <time>2017-03-12T08:39:10Z</time>
      </trkpt>
      <trkpt lat="46.658653328195214" lon="12.423035111278296">
        <ele>1707.9200000000001</ele>
        <time>2017-03-12T08:39:29Z</time>
      </trkpt>
      <trkpt lat="46.658629104495049" lon="12.423056988045573">
        <ele>1707.9200000000001</ele>
        <time>2017-03-12T08:39:47Z</time>
      </trkpt>
      <trkpt lat="46.658636312931776" lon="12.423064615577459">
        <ele>1707.9200000000001</ele>
        <time>2017-03-12T08:40:03Z</time>
      </trkpt>
      <trkpt lat="46.658681072294712" lon="12.42307492531836">
        <ele>1708.8800000000001</ele>
        <time>2017-03-12T08:40:12Z</time>
      </trkpt>
      <trkpt lat="46.658744355663657" lon="12.423146590590477">
        <ele>1710.8</ele>
        <time>2017-03-12T08:40:21Z</time>
      </trkpt>
      <trkpt lat="46.658803196623921" lon="12.423218842595816">
        <ele>1713.21</ele>
        <time>2017-03-12T08:40:31Z</time>
      </trkpt>
      <trkpt lat="46.658859690651298" lon="12.423267792910337">
        <ele>1715.1300000000001</ele>
        <time>2017-03-12T08:40:43Z</time>
      </trkpt>
      <trkpt lat="46.658916100859642" lon="12.423316994681954">
        <ele>1717.05</ele>
        <time>2017-03-12T08:40:53Z</time>
      </trkpt>
      <trkpt lat="46.658967901021242" lon="12.423347253352404">
        <ele>1718.97</ele>
        <time>2017-03-12T08:41:02Z</time>
      </trkpt>
      <trkpt lat="46.658993465825915" lon="12.423400478437543">
        <ele>1720.4200000000001</ele>
        <time>2017-03-12T08:41:10Z</time>
      </trkpt>
      <trkpt lat="46.659011989831924" lon="12.423497792333364">
        <ele>1721.8599999999999</ele>
        <time>2017-03-12T08:41:21Z</time>
      </trkpt>
      <trkpt lat="46.658997070044279" lon="12.423570714890957">
        <ele>1723.78</ele>
        <time>2017-03-12T08:41:32Z</time>
      </trkpt>
      <trkpt lat="46.659016096964478" lon="12.423663754016161">
        <ele>1724.74</ele>
        <time>2017-03-12T08:41:44Z</time>
      </trkpt>
      <trkpt lat="46.659084325656295" lon="12.423689402639866">
        <ele>1726.6700000000001</ele>
        <time>2017-03-12T08:41:55Z</time>
      </trkpt>
      <trkpt lat="46.65911634452641" lon="12.423650929704309">
        <ele>1726.1800000000001</ele>
        <time>2017-03-12T08:42:01Z</time>
      </trkpt>
      <trkpt lat="46.659201085567474" lon="12.423649504780769">
        <ele>1726.6700000000001</ele>
        <time>2017-03-12T08:42:12Z</time>
      </trkpt>
      <trkpt lat="46.65920871309936" lon="12.423643218353391">
        <ele>1726.6700000000001</ele>
        <time>2017-03-12T08:42:13Z</time>
      </trkpt>
      <trkpt lat="46.659288089722395" lon="12.423636429011822">
        <ele>1728.1099999999999</ele>
        <time>2017-03-12T08:42:25Z</time>
      </trkpt>
      <trkpt lat="46.659375932067633" lon="12.42363684810698">
        <ele>1729.0699999999999</ele>
        <time>2017-03-12T08:42:35Z</time>
      </trkpt>
      <trkpt lat="46.659457990899682" lon="12.423629136756063">
        <ele>1730.03</ele>
        <time>2017-03-12T08:42:46Z</time>
      </trkpt>
      <trkpt lat="46.659528985619545" lon="12.423568787053227">
        <ele>1730.99</ele>
        <time>2017-03-12T08:42:57Z</time>
      </trkpt>
      <trkpt lat="46.659596879035234" lon="12.423512963578105">
        <ele>1731.95</ele>
        <time>2017-03-12T08:43:10Z</time>
      </trkpt>
      <trkpt lat="46.65966410189867" lon="12.423451859503984">
        <ele>1732.4300000000001</ele>
        <time>2017-03-12T08:43:19Z</time>
      </trkpt>
      <trkpt lat="46.659713219851255" lon="12.423380194231868">
        <ele>1733.8800000000001</ele>
        <time>2017-03-12T08:43:30Z</time>
      </trkpt>
      <trkpt lat="46.659752447158098" lon="12.423327639698982">
        <ele>1735.3199999999999</ele>
        <time>2017-03-12T08:43:41Z</time>
      </trkpt>
      <trkpt lat="46.659815814346075" lon="12.423301823437214">
        <ele>1736.28</ele>
        <time>2017-03-12T08:43:50Z</time>
      </trkpt>
      <trkpt lat="46.659870548173785" lon="12.423271313309669">
        <ele>1737.72</ele>
        <time>2017-03-12T08:43:59Z</time>
      </trkpt>
      <trkpt lat="46.6599440574646" lon="12.423194199800491">
        <ele>1738.6800000000001</ele>
        <time>2017-03-12T08:44:10Z</time>
      </trkpt>
      <trkpt lat="46.660004490986466" lon="12.423079619184136">
        <ele>1740.1199999999999</ele>
        <time>2017-03-12T08:44:23Z</time>
      </trkpt>
      <trkpt lat="46.660064421594143" lon="12.423043409362435">
        <ele>1741.0799999999999</ele>
        <time>2017-03-12T08:44:33Z</time>
      </trkpt>
      <trkpt lat="46.660132817924023" lon="12.423013737425208">
        <ele>1742.05</ele>
        <time>2017-03-12T08:44:45Z</time>
      </trkpt>
      <trkpt lat="46.660205321386456" lon="12.422975096851587">
        <ele>1743.01</ele>
        <time>2017-03-12T08:44:54Z</time>
      </trkpt>
      <trkpt lat="46.660268185660243" lon="12.422911142930388">
        <ele>1744.45</ele>
        <time>2017-03-12T08:45:04Z</time>
      </trkpt>
      <trkpt lat="46.660313280299306" lon="12.42284769192338">
        <ele>1746.3699999999999</ele>
        <time>2017-03-12T08:45:14Z</time>
      </trkpt>
      <trkpt lat="46.660361895337701" lon="12.422747863456607">
        <ele>1747.8099999999999</ele>
        <time>2017-03-12T08:45:27Z</time>
      </trkpt>
      <trkpt lat="46.660426771268249" lon="12.422679299488664">
        <ele>1748.78</ele>
        <time>2017-03-12T08:45:38Z</time>
      </trkpt>
      <trkpt lat="46.660462813451886" lon="12.422656416893005">
        <ele>1750.22</ele>
        <time>2017-03-12T08:45:47Z</time>
      </trkpt>
      <trkpt lat="46.660534394904971" lon="12.422590618953109">
        <ele>1751.6600000000001</ele>
        <time>2017-03-12T08:45:59Z</time>
      </trkpt>
      <trkpt lat="46.660610754042864" lon="12.422523144632578">
        <ele>1752.1400000000001</ele>
        <time>2017-03-12T08:46:10Z</time>
      </trkpt>
      <trkpt lat="46.660673702135682" lon="12.422464387491345">
        <ele>1753.0999999999999</ele>
        <time>2017-03-12T08:46:20Z</time>
      </trkpt>
      <trkpt lat="46.660756850615144" lon="12.42242599837482">
        <ele>1754.0599999999999</ele>
        <time>2017-03-12T08:46:33Z</time>
      </trkpt>
      <trkpt lat="46.66079331189394" lon="12.422426668927073">
        <ele>1755.02</ele>
        <time>2017-03-12T08:46:41Z</time>
      </trkpt>
      <trkpt lat="46.660815607756376" lon="12.422379478812218">
        <ele>1755.99</ele>
        <time>2017-03-12T08:46:54Z</time>
      </trkpt>
      <trkpt lat="46.660817200317979" lon="12.422317955642939">
        <ele>1756.95</ele>
        <time>2017-03-12T08:47:03Z</time>
      </trkpt>
      <trkpt lat="46.660872185602784" lon="12.422249307855964">
        <ele>1758.8699999999999</ele>
        <time>2017-03-12T08:47:14Z</time>
      </trkpt>
      <trkpt lat="46.660912837833166" lon="12.422204297035933">
        <ele>1760.3099999999999</ele>
        <time>2017-03-12T08:47:24Z</time>
      </trkpt>
      <trkpt lat="46.66097067296505" lon="12.422207230702043">
        <ele>1761.75</ele>
        <time>2017-03-12T08:47:33Z</time>
      </trkpt>
      <trkpt lat="46.661012247204781" lon="12.42220270447433">
        <ele>1765.5999999999999</ele>
        <time>2017-03-12T08:47:44Z</time>
      </trkpt>
      <trkpt lat="46.661093384027481" lon="12.42218610830605">
        <ele>1766.0799999999999</ele>
        <time>2017-03-12T08:47:54Z</time>
      </trkpt>
      <trkpt lat="46.661132862791419" lon="12.42218610830605">
        <ele>1767.52</ele>
        <time>2017-03-12T08:48:06Z</time>
      </trkpt>
      <trkpt lat="46.661172173917294" lon="12.422147551551461">
        <ele>1768</ele>
        <time>2017-03-12T08:48:14Z</time>
      </trkpt>
      <trkpt lat="46.66128289885819" lon="12.422119220718741">
        <ele>1769.4400000000001</ele>
        <time>2017-03-12T08:48:29Z</time>
      </trkpt>
      <trkpt lat="46.661333609372377" lon="12.422114359214902">
        <ele>1770.8900000000001</ele>
        <time>2017-03-12T08:48:39Z</time>
      </trkpt>
      <trkpt lat="46.661353977397084" lon="12.422108324244618">
        <ele>1770.8900000000001</ele>
        <time>2017-03-12T08:48:42Z</time>
      </trkpt>
      <trkpt lat="46.661402676254511" lon="12.422136487439275">
        <ele>1771.3699999999999</ele>
        <time>2017-03-12T08:48:52Z</time>
      </trkpt>
      <trkpt lat="46.661462439224124" lon="12.422115532681346">
        <ele>1771.3699999999999</ele>
        <time>2017-03-12T08:49:05Z</time>
      </trkpt>
      <trkpt lat="46.661503929644823" lon="12.422113521024585">
        <ele>1771.8499999999999</ele>
        <time>2017-03-12T08:49:14Z</time>
      </trkpt>
      <trkpt lat="46.661547347903252" lon="12.422058116644621">
        <ele>1771.8499999999999</ele>
        <time>2017-03-12T08:49:23Z</time>
      </trkpt>
      <trkpt lat="46.661562519147992" lon="12.422043615952134">
        <ele>1771.8499999999999</ele>
        <time>2017-03-12T08:49:25Z</time>
      </trkpt>
      <trkpt lat="46.661616330966353" lon="12.421992905437946">
        <ele>1771.8499999999999</ele>
        <time>2017-03-12T08:49:31Z</time>
      </trkpt>
      <trkpt lat="46.661663940176368" lon="12.421935154125094">
        <ele>1771.3699999999999</ele>
        <time>2017-03-12T08:49:37Z</time>
      </trkpt>
      <trkpt lat="46.661700149998069" lon="12.421895591542125">
        <ele>1771.3699999999999</ele>
        <time>2017-03-12T08:49:41Z</time>
      </trkpt>
      <trkpt lat="46.661826381459832" lon="12.421869020909071">
        <ele>1771.3699999999999</ele>
        <time>2017-03-12T08:49:54Z</time>
      </trkpt>
      <trkpt lat="46.661939118057489" lon="12.421828452497721">
        <ele>1771.8499999999999</ele>
        <time>2017-03-12T08:50:06Z</time>
      </trkpt>
      <trkpt lat="46.661951690912247" lon="12.421823088079691">
        <ele>1771.8499999999999</ele>
        <time>2017-03-12T08:50:08Z</time>
      </trkpt>
      <trkpt lat="46.661995779722929" lon="12.421819064766169">
        <ele>1772.3299999999999</ele>
        <time>2017-03-12T08:50:19Z</time>
      </trkpt>
      <trkpt lat="46.661998629570007" lon="12.421781597658992">
        <ele>1772.3299999999999</ele>
        <time>2017-03-12T08:50:35Z</time>
      </trkpt>
      <trkpt lat="46.661996953189373" lon="12.421774808317423">
        <ele>1772.3299999999999</ele>
        <time>2017-03-12T08:50:58Z</time>
      </trkpt>
      <trkpt lat="46.66198555380106" lon="12.421749662607908">
        <ele>1771.8499999999999</ele>
        <time>2017-03-12T08:51:08Z</time>
      </trkpt>
      <trkpt lat="46.662012208253145" lon="12.421729546040297">
        <ele>1772.8099999999999</ele>
        <time>2017-03-12T08:51:17Z</time>
      </trkpt>
      <trkpt lat="46.662074904888868" lon="12.421667771413922">
        <ele>1773.29</ele>
        <time>2017-03-12T08:51:28Z</time>
      </trkpt>
      <trkpt lat="46.662090746685863" lon="12.421639021486044">
        <ele>1773.29</ele>
        <time>2017-03-12T08:51:31Z</time>
      </trkpt>
      <trkpt lat="46.662113796919584" lon="12.421648241579533">
        <ele>1774.25</ele>
        <time>2017-03-12T08:51:41Z</time>
      </trkpt>
      <trkpt lat="46.662178756669164" lon="12.421656372025609">
        <ele>1773.77</ele>
        <time>2017-03-12T08:51:49Z</time>
      </trkpt>
      <trkpt lat="46.662175906822085" lon="12.421650253236294">
        <ele>1773.77</ele>
        <time>2017-03-12T08:52:13Z</time>
      </trkpt>
      <trkpt lat="46.662175739184022" lon="12.421661233529449">
        <ele>1773.77</ele>
        <time>2017-03-12T08:52:28Z</time>
      </trkpt>
      <trkpt lat="46.662165094166994" lon="12.421667352318764">
        <ele>1773.77</ele>
        <time>2017-03-12T08:52:40Z</time>
      </trkpt>
      <trkpt lat="46.662113629281521" lon="12.421671459451318">
        <ele>1773.77</ele>
        <time>2017-03-12T08:53:01Z</time>
      </trkpt>
      <trkpt lat="46.662104995921254" lon="12.421704903244972">
        <ele>1774.25</ele>
        <time>2017-03-12T08:53:14Z</time>
      </trkpt>
      <trkpt lat="46.662156293168664" lon="12.421665173023939">
        <ele>1773.77</ele>
        <time>2017-03-12T08:53:37Z</time>
      </trkpt>
      <trkpt lat="46.662125028669834" lon="12.421701299026608">
        <ele>1773.77</ele>
        <time>2017-03-12T08:53:59Z</time>
      </trkpt>
      <trkpt lat="46.662184624001384" lon="12.421672381460667">
        <ele>1774.25</ele>
        <time>2017-03-12T08:54:11Z</time>
      </trkpt>
      <trkpt lat="46.66221035644412" lon="12.421659640967846">
        <ele>1774.25</ele>
        <time>2017-03-12T08:54:15Z</time>
      </trkpt>
      <trkpt lat="46.662288643419743" lon="12.421684116125107">
        <ele>1775.6900000000001</ele>
        <time>2017-03-12T08:54:26Z</time>
      </trkpt>
      <trkpt lat="46.662344299256802" lon="12.421721247956157">
        <ele>1777.1300000000001</ele>
        <time>2017-03-12T08:54:36Z</time>
      </trkpt>
      <trkpt lat="46.662403140217066" lon="12.421737257391214">
        <ele>1777.6099999999999</ele>
        <time>2017-03-12T08:54:46Z</time>
      </trkpt>
      <trkpt lat="46.662439266219735" lon="12.421734407544136">
        <ele>1779.0599999999999</ele>
        <time>2017-03-12T08:54:52Z</time>
      </trkpt>
      <trkpt lat="46.662458041682839" lon="12.421736167743802">
        <ele>1779.0599999999999</ele>
        <time>2017-03-12T08:55:06Z</time>
      </trkpt>
      <trkpt lat="46.662486372515559" lon="12.42177564650774">
        <ele>1779.0599999999999</ele>
        <time>2017-03-12T08:55:20Z</time>
      </trkpt>
      <trkpt lat="46.662511602044106" lon="12.421833733096719">
        <ele>1779.54</ele>
        <time>2017-03-12T08:55:30Z</time>
      </trkpt>
      <trkpt lat="46.662528198212385" lon="12.421894837170839">
        <ele>1781.46</ele>
        <time>2017-03-12T08:55:39Z</time>
      </trkpt>
      <trkpt lat="46.662592738866806" lon="12.421922916546464">
        <ele>1782.9000000000001</ele>
        <time>2017-03-12T08:55:49Z</time>
      </trkpt>
      <trkpt lat="46.662650993093848" lon="12.421945631504059">
        <ele>1783.3800000000001</ele>
        <time>2017-03-12T08:55:56Z</time>
      </trkpt>
      <trkpt lat="46.662756521254778" lon="12.421935824677348">
        <ele>1783.8599999999999</ele>
        <time>2017-03-12T08:56:07Z</time>
      </trkpt>
      <trkpt lat="46.662804214283824" lon="12.42199064232409">
        <ele>1784.3399999999999</ele>
        <time>2017-03-12T08:56:16Z</time>
      </trkpt>
      <trkpt lat="46.66286657564342" lon="12.42204244248569">
        <ele>1785.3099999999999</ele>
        <time>2017-03-12T08:56:25Z</time>
      </trkpt>
      <trkpt lat="46.662945030257106" lon="12.422040766105056">
        <ele>1786.75</ele>
        <time>2017-03-12T08:56:36Z</time>
      </trkpt>
      <trkpt lat="46.66300873272121" lon="12.422029450535774">
        <ele>1788.1900000000001</ele>
        <time>2017-03-12T08:56:45Z</time>
      </trkpt>
      <trkpt lat="46.663067741319537" lon="12.422017799690366">
        <ele>1789.1500000000001</ele>
        <time>2017-03-12T08:56:54Z</time>
      </trkpt>
      <trkpt lat="46.663091126829386" lon="12.421987541019917">
        <ele>1789.6300000000001</ele>
        <time>2017-03-12T08:56:58Z</time>
      </trkpt>
      <trkpt lat="46.663184249773622" lon="12.421899195760489">
        <ele>1790.5899999999999</ele>
        <time>2017-03-12T08:57:09Z</time>
      </trkpt>
      <trkpt lat="46.663292711600661" lon="12.421846305951476">
        <ele>1790.1099999999999</ele>
        <time>2017-03-12T08:57:22Z</time>
      </trkpt>
      <trkpt lat="46.66338793002069" lon="12.421825435012579">
        <ele>1789.6300000000001</ele>
        <time>2017-03-12T08:57:32Z</time>
      </trkpt>
      <trkpt lat="46.663487926125526" lon="12.42178930900991">
        <ele>1786.75</ele>
        <time>2017-03-12T08:57:41Z</time>
      </trkpt>
      <trkpt lat="46.663618432357907" lon="12.421808168292046">
        <ele>1785.3099999999999</ele>
        <time>2017-03-12T08:57:52Z</time>
      </trkpt>
      <trkpt lat="46.663665538653731" lon="12.421762570738792">
        <ele>1784.8199999999999</ele>
        <time>2017-03-12T08:58:04Z</time>
      </trkpt>
      <trkpt lat="46.663674004375935" lon="12.421759804710746">
        <ele>1784.3399999999999</ele>
        <time>2017-03-12T08:58:13Z</time>
      </trkpt>
      <trkpt lat="46.663680039346218" lon="12.421657964587212">
        <ele>1784.8199999999999</ele>
        <time>2017-03-12T08:58:25Z</time>
      </trkpt>
      <trkpt lat="46.66371826082468" lon="12.421575570479035">
        <ele>1785.3099999999999</ele>
        <time>2017-03-12T08:58:34Z</time>
      </trkpt>
      <trkpt lat="46.663770144805312" lon="12.421507928520441">
        <ele>1784.3399999999999</ele>
        <time>2017-03-12T08:58:42Z</time>
      </trkpt>
      <trkpt lat="46.663813479244709" lon="12.421421511098742">
        <ele>1782.9000000000001</ele>
        <time>2017-03-12T08:58:53Z</time>
      </trkpt>
      <trkpt lat="46.663847090676427" lon="12.421345906332135">
        <ele>1782.4200000000001</ele>
        <time>2017-03-12T08:59:03Z</time>
      </trkpt>
      <trkpt lat="46.663850108161569" lon="12.421331573277712">
        <ele>1782.4200000000001</ele>
        <time>2017-03-12T08:59:04Z</time>
      </trkpt>
      <trkpt lat="46.663869470357895" lon="12.421265859156847">
        <ele>1781.9400000000001</ele>
        <time>2017-03-12T08:59:09Z</time>
      </trkpt>
      <trkpt lat="46.663904255256057" lon="12.42135152220726">
        <ele>1780.98</ele>
        <time>2017-03-12T08:59:19Z</time>
      </trkpt>
      <trkpt lat="46.663905177265406" lon="12.421435005962849">
        <ele>1779.54</ele>
        <time>2017-03-12T08:59:27Z</time>
      </trkpt>
      <trkpt lat="46.664032833650708" lon="12.421483788639307">
        <ele>1776.6500000000001</ele>
        <time>2017-03-12T08:59:39Z</time>
      </trkpt>
      <trkpt lat="46.66403392329812" lon="12.421517735347152">
        <ele>1776.1700000000001</ele>
        <time>2017-03-12T08:59:49Z</time>
      </trkpt>
      <trkpt lat="46.664043813943863" lon="12.421539193019271">
        <ele>1776.1700000000001</ele>
        <time>2017-03-12T08:59:56Z</time>
      </trkpt>
      <trkpt lat="46.664031157270074" lon="12.421565679833293">
        <ele>1776.1700000000001</ele>
        <time>2017-03-12T09:00:04Z</time>
      </trkpt>
      <trkpt lat="46.664020512253046" lon="12.421558471396565">
        <ele>1775.6900000000001</ele>
        <time>2017-03-12T09:00:13Z</time>
      </trkpt>
      <trkpt lat="46.664003161713481" lon="12.421580767259002">
        <ele>1775.6900000000001</ele>
        <time>2017-03-12T09:00:35Z</time>
      </trkpt>
      <trkpt lat="46.664025625213981" lon="12.421625442802906">
        <ele>1775.21</ele>
        <time>2017-03-12T09:00:52Z</time>
      </trkpt>
      <trkpt lat="46.664026714861393" lon="12.421639608219266">
        <ele>1775.21</ele>
        <time>2017-03-12T09:00:53Z</time>
      </trkpt>
      <trkpt lat="46.664010034874082" lon="12.42181621491909">
        <ele>1773.77</ele>
        <time>2017-03-12T09:01:04Z</time>
      </trkpt>
      <trkpt lat="46.664001569151878" lon="12.421943703666329">
        <ele>1772.8099999999999</ele>
        <time>2017-03-12T09:01:12Z</time>
      </trkpt>
      <trkpt lat="46.664006598293781" lon="12.422097343951464">
        <ele>1770.8900000000001</ele>
        <time>2017-03-12T09:01:22Z</time>
      </trkpt>
      <trkpt lat="46.664002826437354" lon="12.422157106921077">
        <ele>1770.8900000000001</ele>
        <time>2017-03-12T09:01:26Z</time>
      </trkpt>
      <trkpt lat="46.663987822830677" lon="12.422203458845615">
        <ele>1769.4400000000001</ele>
        <time>2017-03-12T09:01:30Z</time>
      </trkpt>
      <trkpt lat="46.663977261632681" lon="12.422354584559798">
        <ele>1768</ele>
        <time>2017-03-12T09:01:39Z</time>
      </trkpt>
      <trkpt lat="46.663967287167907" lon="12.422441840171814">
        <ele>1767.52</ele>
        <time>2017-03-12T09:01:44Z</time>
      </trkpt>
      <trkpt lat="46.663956642150879" lon="12.422625236213207">
        <ele>1766.5599999999999</ele>
        <time>2017-03-12T09:01:55Z</time>
      </trkpt>
      <trkpt lat="46.664068792015314" lon="12.422636551782489">
        <ele>1768</ele>
        <time>2017-03-12T09:02:06Z</time>
      </trkpt>
      <trkpt lat="46.664089160040021" lon="12.42261609993875">
        <ele>1768.48</ele>
        <time>2017-03-12T09:02:09Z</time>
      </trkpt>
      <trkpt lat="46.664122520014644" lon="12.422553319483995">
        <ele>1768.96</ele>
        <time>2017-03-12T09:02:14Z</time>
      </trkpt>
      <trkpt lat="46.664192257449031" lon="12.422525491565466">
        <ele>1770.4100000000001</ele>
        <time>2017-03-12T09:02:24Z</time>
      </trkpt>
      <trkpt lat="46.664264341816306" lon="12.422494310885668">
        <ele>1772.3299999999999</ele>
        <time>2017-03-12T09:02:35Z</time>
      </trkpt>
      <trkpt lat="46.664279093965888" lon="12.422484504058957">
        <ele>1772.8099999999999</ele>
        <time>2017-03-12T09:02:38Z</time>
      </trkpt>
      <trkpt lat="46.664328714832664" lon="12.422544183209538">
        <ele>1772.3299999999999</ele>
        <time>2017-03-12T09:02:48Z</time>
      </trkpt>
      <trkpt lat="46.664335671812296" lon="12.422556336969137">
        <ele>1771.8499999999999</ele>
        <time>2017-03-12T09:02:55Z</time>
      </trkpt>
      <trkpt lat="46.664345981553197" lon="12.422555917873979">
        <ele>1771.8499999999999</ele>
        <time>2017-03-12T09:03:10Z</time>
      </trkpt>
      <trkpt lat="46.664356123656034" lon="12.422545272856951">
        <ele>1771.8499999999999</ele>
        <time>2017-03-12T09:03:19Z</time>
      </trkpt>
      <trkpt lat="46.664376575499773" lon="12.422556839883327">
        <ele>1771.3699999999999</ele>
        <time>2017-03-12T09:03:30Z</time>
      </trkpt>
      <trkpt lat="46.664417311549187" lon="12.4225530680269">
        <ele>1771.3699999999999</ele>
        <time>2017-03-12T09:03:34Z</time>
      </trkpt>
      <trkpt lat="46.664484534412622" lon="12.422505542635918">
        <ele>1770.4100000000001</ele>
        <time>2017-03-12T09:03:47Z</time>
      </trkpt>
      <trkpt lat="46.664470536634326" lon="12.422504536807537">
        <ele>1771.8499999999999</ele>
        <time>2017-03-12T09:03:52Z</time>
      </trkpt>
      <trkpt lat="46.664647981524467" lon="12.422430273145437">
        <ele>1768</ele>
        <time>2017-03-12T09:04:07Z</time>
      </trkpt>
      <trkpt lat="46.664799358695745" lon="12.422368247061968">
        <ele>1766.0799999999999</ele>
        <time>2017-03-12T09:04:20Z</time>
      </trkpt>
      <trkpt lat="46.664933720603585" lon="12.422274788841605">
        <ele>1764.6400000000001</ele>
        <time>2017-03-12T09:04:32Z</time>
      </trkpt>
      <trkpt lat="46.664952831342816" lon="12.42225743830204">
        <ele>1764.1600000000001</ele>
        <time>2017-03-12T09:04:34Z</time>
      </trkpt>
      <trkpt lat="46.665109824389219" lon="12.422132547944784">
        <ele>1763.6800000000001</ele>
        <time>2017-03-12T09:04:50Z</time>
      </trkpt>
      <trkpt lat="46.665155757218599" lon="12.42209130898118">
        <ele>1760.79</ele>
        <time>2017-03-12T09:04:54Z</time>
      </trkpt>
      <trkpt lat="46.665272181853652" lon="12.422063732519746">
        <ele>1760.79</ele>
        <time>2017-03-12T09:05:07Z</time>
      </trkpt>
      <trkpt lat="46.665356922894716" lon="12.422208152711391">
        <ele>1761.75</ele>
        <time>2017-03-12T09:05:20Z</time>
      </trkpt>
      <trkpt lat="46.665376871824265" lon="12.422300605103374">
        <ele>1762.71</ele>
        <time>2017-03-12T09:05:27Z</time>
      </trkpt>
      <trkpt lat="46.665378632023931" lon="12.422335641458631">
        <ele>1763.2</ele>
        <time>2017-03-12T09:05:30Z</time>
      </trkpt>
      <trkpt lat="46.665375279262662" lon="12.42245583795011">
        <ele>1764.6400000000001</ele>
        <time>2017-03-12T09:05:40Z</time>
      </trkpt>
      <trkpt lat="46.665370585396886" lon="12.422494227066636">
        <ele>1765.1199999999999</ele>
        <time>2017-03-12T09:05:43Z</time>
      </trkpt>
      <trkpt lat="46.665347954258323" lon="12.422638311982155">
        <ele>1766.5599999999999</ele>
        <time>2017-03-12T09:05:54Z</time>
      </trkpt>
      <trkpt lat="46.665332615375519" lon="12.422779714688659">
        <ele>1767.52</ele>
        <time>2017-03-12T09:06:05Z</time>
      </trkpt>
      <trkpt lat="46.665292717516422" lon="12.422949196770787">
        <ele>1768.48</ele>
        <time>2017-03-12T09:06:18Z</time>
      </trkpt>
      <trkpt lat="46.665255334228277" lon="12.423107530921698">
        <ele>1769.9200000000001</ele>
        <time>2017-03-12T09:06:31Z</time>
      </trkpt>
      <trkpt lat="46.665233038365841" lon="12.423257734626532">
        <ele>1770.8900000000001</ele>
        <time>2017-03-12T09:06:42Z</time>
      </trkpt>
      <trkpt lat="46.665223566815257" lon="12.423299057409167">
        <ele>1771.3699999999999</ele>
        <time>2017-03-12T09:06:46Z</time>
      </trkpt>
      <trkpt lat="46.665194062516093" lon="12.423445321619511">
        <ele>1772.3299999999999</ele>
        <time>2017-03-12T09:06:57Z</time>
      </trkpt>
      <trkpt lat="46.665153661742806" lon="12.423595609143376">
        <ele>1773.77</ele>
        <time>2017-03-12T09:07:08Z</time>
      </trkpt>
      <trkpt lat="46.665144441649318" lon="12.423721337690949">
        <ele>1774.73</ele>
        <time>2017-03-12T09:07:18Z</time>
      </trkpt>
      <trkpt lat="46.665139580145478" lon="12.423850502818823">
        <ele>1775.6900000000001</ele>
        <time>2017-03-12T09:07:27Z</time>
      </trkpt>
      <trkpt lat="46.665120385587215" lon="12.424009339883924">
        <ele>1776.6500000000001</ele>
        <time>2017-03-12T09:07:39Z</time>
      </trkpt>
      <trkpt lat="46.665109153836966" lon="12.424136158078909">
        <ele>1778.0999999999999</ele>
        <time>2017-03-12T09:07:50Z</time>
      </trkpt>
      <trkpt lat="46.665100688114762" lon="12.424279907718301">
        <ele>1779.0599999999999</ele>
        <time>2017-03-12T09:08:02Z</time>
      </trkpt>
      <trkpt lat="46.665120050311089" lon="12.424420975148678">
        <ele>1780.5</ele>
        <time>2017-03-12T09:08:14Z</time>
      </trkpt>
      <trkpt lat="46.665137903764844" lon="12.424480989575386">
        <ele>1781.46</ele>
        <time>2017-03-12T09:08:22Z</time>
      </trkpt>
      <trkpt lat="46.665167827159166" lon="12.424596073105931">
        <ele>1781.9400000000001</ele>
        <time>2017-03-12T09:08:33Z</time>
      </trkpt>
      <trkpt lat="46.665169084444642" lon="12.42466296069324">
        <ele>1782.4200000000001</ele>
        <time>2017-03-12T09:08:38Z</time>
      </trkpt>
      <trkpt lat="46.665166905149817" lon="12.424785336479545">
        <ele>1783.3800000000001</ele>
        <time>2017-03-12T09:08:48Z</time>
      </trkpt>
      <trkpt lat="46.66518266312778" lon="12.424858259037137">
        <ele>1783.8599999999999</ele>
        <time>2017-03-12T09:08:54Z</time>
      </trkpt>
      <trkpt lat="46.66519490070641" lon="12.424872927367687">
        <ele>1784.8199999999999</ele>
        <time>2017-03-12T09:09:06Z</time>
      </trkpt>
      <trkpt lat="46.665274193510413" lon="12.424842417240143">
        <ele>1786.27</ele>
        <time>2017-03-12T09:09:16Z</time>
      </trkpt>
      <trkpt lat="46.665310570970178" lon="12.424797574058175">
        <ele>1787.23</ele>
        <time>2017-03-12T09:09:25Z</time>
      </trkpt>
      <trkpt lat="46.665340578183532" lon="12.424775026738644">
        <ele>1788.1900000000001</ele>
        <time>2017-03-12T09:09:38Z</time>
      </trkpt>
      <trkpt lat="46.665412746369839" lon="12.424678299576044">
        <ele>1789.6300000000001</ele>
        <time>2017-03-12T09:09:48Z</time>
      </trkpt>
      <trkpt lat="46.665445016697049" lon="12.424630438908935">
        <ele>1790.1099999999999</ele>
        <time>2017-03-12T09:09:53Z</time>
      </trkpt>
      <trkpt lat="46.665513664484024" lon="12.424551397562027">
        <ele>1791.0699999999999</ele>
        <time>2017-03-12T09:10:05Z</time>
      </trkpt>
      <trkpt lat="46.665591867640615" lon="12.42447872646153">
        <ele>1792.52</ele>
        <time>2017-03-12T09:10:16Z</time>
      </trkpt>
      <trkpt lat="46.665676943957806" lon="12.424448635429144">
        <ele>1793.96</ele>
        <time>2017-03-12T09:10:27Z</time>
      </trkpt>
      <trkpt lat="46.665779957547784" lon="12.424462717026472">
        <ele>1794.9200000000001</ele>
        <time>2017-03-12T09:10:38Z</time>
      </trkpt>
      <trkpt lat="46.665886491537094" lon="12.424425920471549">
        <ele>1795.8800000000001</ele>
        <time>2017-03-12T09:10:51Z</time>
      </trkpt>
      <trkpt lat="46.66590878739953" lon="12.424383256584406">
        <ele>1795.8800000000001</ele>
        <time>2017-03-12T09:11:01Z</time>
      </trkpt>
      <trkpt lat="46.665908452123404" lon="12.424380322918296">
        <ele>1795.8800000000001</ele>
        <time>2017-03-12T09:11:14Z</time>
      </trkpt>
      <trkpt lat="46.665905518457294" lon="12.424371102824807">
        <ele>1795.8800000000001</ele>
        <time>2017-03-12T09:11:18Z</time>
      </trkpt>
      <trkpt lat="46.665981123223901" lon="12.4243766348809">
        <ele>1795.8800000000001</ele>
        <time>2017-03-12T09:11:27Z</time>
      </trkpt>
      <trkpt lat="46.666030073538423" lon="12.424368085339665">
        <ele>1795.4000000000001</ele>
        <time>2017-03-12T09:11:36Z</time>
      </trkpt>
      <trkpt lat="46.666022278368473" lon="12.424382418394089">
        <ele>1794.9200000000001</ele>
        <time>2017-03-12T09:11:54Z</time>
      </trkpt>
      <trkpt lat="46.666032671928406" lon="12.424427177757025">
        <ele>1795.4000000000001</ele>
        <time>2017-03-12T09:12:04Z</time>
      </trkpt>
      <trkpt lat="46.666059577837586" lon="12.424401864409447">
        <ele>1795.4000000000001</ele>
        <time>2017-03-12T09:12:13Z</time>
      </trkpt>
      <trkpt lat="46.666119089350104" lon="12.424364229664207">
        <ele>1795.8800000000001</ele>
        <time>2017-03-12T09:12:19Z</time>
      </trkpt>
      <trkpt lat="46.666221516206861" lon="12.424305723980069">
        <ele>1795.8800000000001</ele>
        <time>2017-03-12T09:12:29Z</time>
      </trkpt>
      <trkpt lat="46.666262419894338" lon="12.424292312934995">
        <ele>1796.3599999999999</ele>
        <time>2017-03-12T09:12:33Z</time>
      </trkpt>
      <trkpt lat="46.666369205340743" lon="12.424323912709951">
        <ele>1795.8800000000001</ele>
        <time>2017-03-12T09:12:46Z</time>
      </trkpt>
      <trkpt lat="46.666435925289989" lon="12.424306981265545">
        <ele>1796.8399999999999</ele>
        <time>2017-03-12T09:12:55Z</time>
      </trkpt>
      <trkpt lat="46.666504656895995" lon="12.424311591312289">
        <ele>1797.8</ele>
        <time>2017-03-12T09:13:04Z</time>
      </trkpt>
      <trkpt lat="46.666587302461267" lon="12.424317877739668">
        <ele>1798.28</ele>
        <time>2017-03-12T09:13:15Z</time>
      </trkpt>
      <trkpt lat="46.66667053475976" lon="12.424328019842505">
        <ele>1798.76</ele>
        <time>2017-03-12T09:13:25Z</time>
      </trkpt>
      <trkpt lat="46.666745049878955" lon="12.424336820840836">
        <ele>1799.24</ele>
        <time>2017-03-12T09:13:35Z</time>
      </trkpt>
      <trkpt lat="46.666825348511338" lon="12.424359200522304">
        <ele>1798.76</ele>
        <time>2017-03-12T09:13:45Z</time>
      </trkpt>
      <trkpt lat="46.666826521977782" lon="12.424340005964041">
        <ele>1799.24</ele>
        <time>2017-03-12T09:14:02Z</time>
      </trkpt>
      <trkpt lat="46.666843788698316" lon="12.424359200522304">
        <ele>1799.73</ele>
        <time>2017-03-12T09:14:15Z</time>
      </trkpt>
      <trkpt lat="46.666890392079949" lon="12.424399014562368">
        <ele>1802.1300000000001</ele>
        <time>2017-03-12T09:14:25Z</time>
      </trkpt>
      <trkpt lat="46.666932385414839" lon="12.424409240484238">
        <ele>1804.05</ele>
        <time>2017-03-12T09:14:33Z</time>
      </trkpt>
      <trkpt lat="46.667001452296972" lon="12.424414856359363">
        <ele>1805.49</ele>
        <time>2017-03-12T09:14:42Z</time>
      </trkpt>
      <trkpt lat="46.667021233588457" lon="12.424415778368711">
        <ele>1805.97</ele>
        <time>2017-03-12T09:14:45Z</time>
      </trkpt>
      <trkpt lat="46.667104382067919" lon="12.424345454201102">
        <ele>1806.45</ele>
        <time>2017-03-12T09:14:57Z</time>
      </trkpt>
      <trkpt lat="46.667129108682275" lon="12.424292732030153">
        <ele>1808.3800000000001</ele>
        <time>2017-03-12T09:15:08Z</time>
      </trkpt>
      <trkpt lat="46.667181076481938" lon="12.424267251044512">
        <ele>1809.3399999999999</ele>
        <time>2017-03-12T09:15:18Z</time>
      </trkpt>
      <trkpt lat="46.667240085080266" lon="12.424262389540672">
        <ele>1810.3</ele>
        <time>2017-03-12T09:15:27Z</time>
      </trkpt>
      <trkpt lat="46.667277384549379" lon="12.424198016524315">
        <ele>1811.74</ele>
        <time>2017-03-12T09:15:37Z</time>
      </trkpt>
      <trkpt lat="46.667283084243536" lon="12.424183767288923">
        <ele>1811.74</ele>
        <time>2017-03-12T09:15:39Z</time>
      </trkpt>
      <trkpt lat="46.667345864698291" lon="12.424108916893601">
        <ele>1813.1800000000001</ele>
        <time>2017-03-12T09:15:52Z</time>
      </trkpt>
      <trkpt lat="46.667419038712978" lon="12.424049070104957">
        <ele>1813.6600000000001</ele>
        <time>2017-03-12T09:16:03Z</time>
      </trkpt>
      <trkpt lat="46.667483160272241" lon="12.423967933282256">
        <ele>1814.1500000000001</ele>
        <time>2017-03-12T09:16:13Z</time>
      </trkpt>
      <trkpt lat="46.667566141113639" lon="12.423927616328001">
        <ele>1813.6600000000001</ele>
        <time>2017-03-12T09:16:24Z</time>
      </trkpt>
      <trkpt lat="46.667643925175071" lon="12.423938177525997">
        <ele>1812.7</ele>
        <time>2017-03-12T09:16:35Z</time>
      </trkpt>
      <trkpt lat="46.667667143046856" lon="12.423890652135015">
        <ele>1812.7</ele>
        <time>2017-03-12T09:16:44Z</time>
      </trkpt>
      <trkpt lat="46.66768348775804" lon="12.423860309645534">
        <ele>1811.26</ele>
        <time>2017-03-12T09:16:48Z</time>
      </trkpt>
      <trkpt lat="46.667767139151692" lon="12.423798283562064">
        <ele>1810.3</ele>
        <time>2017-03-12T09:16:58Z</time>
      </trkpt>
      <trkpt lat="46.667761523276567" lon="12.423775484785438">
        <ele>1810.3</ele>
        <time>2017-03-12T09:17:03Z</time>
      </trkpt>
      <trkpt lat="46.667796056717634" lon="12.423744387924671">
        <ele>1809.8199999999999</ele>
        <time>2017-03-12T09:17:07Z</time>
      </trkpt>
      <trkpt lat="46.667819358408451" lon="12.423742040991783">
        <ele>1809.8199999999999</ele>
        <time>2017-03-12T09:17:09Z</time>
      </trkpt>
      <trkpt lat="46.667927820235491" lon="12.423715135082603">
        <ele>1809.3399999999999</ele>
        <time>2017-03-12T09:17:19Z</time>
      </trkpt>
      <trkpt lat="46.668015578761697" lon="12.423695521429181">
        <ele>1809.3399999999999</ele>
        <time>2017-03-12T09:17:28Z</time>
      </trkpt>
      <trkpt lat="46.668084561824799" lon="12.423712788149714">
        <ele>1809.3399999999999</ele>
        <time>2017-03-12T09:17:38Z</time>
      </trkpt>
      <trkpt lat="46.668117670342326" lon="12.423719745129347">
        <ele>1809.8199999999999</ele>
        <time>2017-03-12T09:17:52Z</time>
      </trkpt>
      <trkpt lat="46.668158490210772" lon="12.423725528642535">
        <ele>1809.8199999999999</ele>
        <time>2017-03-12T09:18:03Z</time>
      </trkpt>
      <trkpt lat="46.668166788294911" lon="12.423716727644205">
        <ele>1809.8199999999999</ele>
        <time>2017-03-12T09:18:12Z</time>
      </trkpt>
      <trkpt lat="46.668219259008765" lon="12.423685295507312">
        <ele>1809.3399999999999</ele>
        <time>2017-03-12T09:18:31Z</time>
      </trkpt>
      <trkpt lat="46.668227054178715" lon="12.42367984727025">
        <ele>1809.3399999999999</ele>
        <time>2017-03-12T09:18:32Z</time>
      </trkpt>
      <trkpt lat="46.66830693371594" lon="12.423629891127348">
        <ele>1809.8199999999999</ele>
        <time>2017-03-12T09:18:41Z</time>
      </trkpt>
      <trkpt lat="46.668343143537641" lon="12.423573564738035">
        <ele>1809.8199999999999</ele>
        <time>2017-03-12T09:18:47Z</time>
      </trkpt>
      <trkpt lat="46.668447330594063" lon="12.423517070710659">
        <ele>1810.3</ele>
        <time>2017-03-12T09:18:58Z</time>
      </trkpt>
      <trkpt lat="46.668524276465178" lon="12.423434425145388">
        <ele>1810.78</ele>
        <time>2017-03-12T09:19:08Z</time>
      </trkpt>
      <trkpt lat="46.668609185144305" lon="12.423340380191803">
        <ele>1811.26</ele>
        <time>2017-03-12T09:19:20Z</time>
      </trkpt>
      <trkpt lat="46.668701721355319" lon="12.423299644142389">
        <ele>1812.22</ele>
        <time>2017-03-12T09:19:31Z</time>
      </trkpt>
      <trkpt lat="46.668718736618757" lon="12.423297548666596">
        <ele>1812.22</ele>
        <time>2017-03-12T09:19:33Z</time>
      </trkpt>
      <trkpt lat="46.668770285323262" lon="12.423282545059919">
        <ele>1813.1800000000001</ele>
        <time>2017-03-12T09:19:39Z</time>
      </trkpt>
      <trkpt lat="46.668861648067832" lon="12.423244742676616">
        <ele>1813.6600000000001</ele>
        <time>2017-03-12T09:19:49Z</time>
      </trkpt>
      <trkpt lat="46.668869778513908" lon="12.42324105463922">
        <ele>1813.6600000000001</ele>
        <time>2017-03-12T09:19:50Z</time>
      </trkpt>
      <trkpt lat="46.668904982507229" lon="12.423227811232209">
        <ele>1813.6600000000001</ele>
        <time>2017-03-12T09:19:54Z</time>
      </trkpt>
      <trkpt lat="46.668932307511568" lon="12.423223871737719">
        <ele>1813.6600000000001</ele>
        <time>2017-03-12T09:19:57Z</time>
      </trkpt>
      <trkpt lat="46.669040936976671" lon="12.423257566988468">
        <ele>1815.1099999999999</ele>
        <time>2017-03-12T09:20:09Z</time>
      </trkpt>
      <trkpt lat="46.66905652731657" lon="12.423257483169436">
        <ele>1815.1099999999999</ele>
        <time>2017-03-12T09:20:11Z</time>
      </trkpt>
      <trkpt lat="46.66911955922842" lon="12.423216663300991">
        <ele>1817.03</ele>
        <time>2017-03-12T09:20:21Z</time>
      </trkpt>
      <trkpt lat="46.669154930859804" lon="12.423215322196484">
        <ele>1817.99</ele>
        <time>2017-03-12T09:20:30Z</time>
      </trkpt>
      <trkpt lat="46.669152919203043" lon="12.423213645815849">
        <ele>1817.51</ele>
        <time>2017-03-12T09:20:39Z</time>
      </trkpt>
      <trkpt lat="46.669204216450453" lon="12.423264523968101">
        <ele>1819.4300000000001</ele>
        <time>2017-03-12T09:20:49Z</time>
      </trkpt>
      <trkpt lat="46.669225422665477" lon="12.423234349116683">
        <ele>1819.9100000000001</ele>
        <time>2017-03-12T09:21:00Z</time>
      </trkpt>
      <trkpt lat="46.669245203956962" lon="12.423202078789473">
        <ele>1819.9100000000001</ele>
        <time>2017-03-12T09:21:13Z</time>
      </trkpt>
      <trkpt lat="46.669292477890849" lon="12.423183135688305">
        <ele>1820.3900000000001</ele>
        <time>2017-03-12T09:21:23Z</time>
      </trkpt>
      <trkpt lat="46.669281497597694" lon="12.423194451257586">
        <ele>1820.3900000000001</ele>
        <time>2017-03-12T09:21:35Z</time>
      </trkpt>
      <trkpt lat="46.669293064624071" lon="12.423185985535383">
        <ele>1820.3900000000001</ele>
        <time>2017-03-12T09:21:46Z</time>
      </trkpt>
      <trkpt lat="46.669302368536592" lon="12.42320098914206">
        <ele>1819.9100000000001</ele>
        <time>2017-03-12T09:21:59Z</time>
      </trkpt>
      <trkpt lat="46.66930915787816" lon="12.423209035769105">
        <ele>1820.3900000000001</ele>
        <time>2017-03-12T09:22:01Z</time>
      </trkpt>
      <trkpt lat="46.669332962483168" lon="12.42326402105391">
        <ele>1819.9100000000001</ele>
        <time>2017-03-12T09:22:06Z</time>
      </trkpt>
      <trkpt lat="46.66934285312891" lon="12.423293860629201">
        <ele>1819.9100000000001</ele>
        <time>2017-03-12T09:22:09Z</time>
      </trkpt>
      <trkpt lat="46.669364562258124" lon="12.423412296921015">
        <ele>1820.3900000000001</ele>
        <time>2017-03-12T09:22:20Z</time>
      </trkpt>
      <trkpt lat="46.669412003830075" lon="12.423503575846553">
        <ele>1820.8699999999999</ele>
        <time>2017-03-12T09:22:32Z</time>
      </trkpt>
      <trkpt lat="46.66944301687181" lon="12.423611870035529">
        <ele>1820.8699999999999</ele>
        <time>2017-03-12T09:22:42Z</time>
      </trkpt>
      <trkpt lat="46.669467324391007" lon="12.423691246658564">
        <ele>1821.8399999999999</ele>
        <time>2017-03-12T09:22:51Z</time>
      </trkpt>
      <trkpt lat="46.669486183673143" lon="12.42374237626791">
        <ele>1822.3199999999999</ele>
        <time>2017-03-12T09:22:58Z</time>
      </trkpt>
      <trkpt lat="46.669467408210039" lon="12.42385134100914">
        <ele>1822.3199999999999</ele>
        <time>2017-03-12T09:23:07Z</time>
      </trkpt>
      <trkpt lat="46.669489787891507" lon="12.423979081213474">
        <ele>1822.3199999999999</ele>
        <time>2017-03-12T09:23:20Z</time>
      </trkpt>
      <trkpt lat="46.669524740427732" lon="12.424052422866225">
        <ele>1820.8699999999999</ele>
        <time>2017-03-12T09:23:27Z</time>
      </trkpt>
      <trkpt lat="46.669582575559616" lon="12.42418703623116">
        <ele>1819.4300000000001</ele>
        <time>2017-03-12T09:23:39Z</time>
      </trkpt>
      <trkpt lat="46.66962381452322" lon="12.424260880798101">
        <ele>1819.4300000000001</ele>
        <time>2017-03-12T09:23:46Z</time>
      </trkpt>
      <trkpt lat="46.669658347964287" lon="12.424257192760706">
        <ele>1819.4300000000001</ele>
        <time>2017-03-12T09:23:50Z</time>
      </trkpt>
      <trkpt lat="46.669725235551596" lon="12.424321649596095">
        <ele>1819.9100000000001</ele>
        <time>2017-03-12T09:24:02Z</time>
      </trkpt>
      <trkpt lat="46.669732863083482" lon="12.42432726547122">
        <ele>1819.9100000000001</ele>
        <time>2017-03-12T09:24:03Z</time>
      </trkpt>
      <trkpt lat="46.669800337404013" lon="12.424400020390749">
        <ele>1820.3900000000001</ele>
        <time>2017-03-12T09:24:13Z</time>
      </trkpt>
      <trkpt lat="46.669841492548585" lon="12.424478977918625">
        <ele>1821.3499999999999</ele>
        <time>2017-03-12T09:24:21Z</time>
      </trkpt>
      <trkpt lat="46.669858172535896" lon="12.42454226128757">
        <ele>1822.3199999999999</ele>
        <time>2017-03-12T09:24:30Z</time>
      </trkpt>
      <trkpt lat="46.669857418164611" lon="12.424553325399756">
        <ele>1822.3199999999999</ele>
        <time>2017-03-12T09:24:31Z</time>
      </trkpt>
      <trkpt lat="46.669869069010019" lon="12.424651561304927">
        <ele>1823.28</ele>
        <time>2017-03-12T09:24:41Z</time>
      </trkpt>
      <trkpt lat="46.669879294931889" lon="12.424778966233134">
        <ele>1824.24</ele>
        <time>2017-03-12T09:24:54Z</time>
      </trkpt>
      <trkpt lat="46.66986521333456" lon="12.424825401976705">
        <ele>1824.72</ele>
        <time>2017-03-12T09:25:05Z</time>
      </trkpt>
      <trkpt lat="46.669846773147583" lon="12.424922129139304">
        <ele>1825.2</ele>
        <time>2017-03-12T09:25:19Z</time>
      </trkpt>
      <trkpt lat="46.669840151444077" lon="12.425059676170349">
        <ele>1826.1600000000001</ele>
        <time>2017-03-12T09:25:30Z</time>
      </trkpt>
      <trkpt lat="46.669819783419371" lon="12.425201497972012">
        <ele>1827.5999999999999</ele>
        <time>2017-03-12T09:25:41Z</time>
      </trkpt>
      <trkpt lat="46.669813748449087" lon="12.425236785784364">
        <ele>1827.5999999999999</ele>
        <time>2017-03-12T09:25:44Z</time>
      </trkpt>
      <trkpt lat="46.669757170602679" lon="12.425371566787362">
        <ele>1828.0799999999999</ele>
        <time>2017-03-12T09:25:55Z</time>
      </trkpt>
      <trkpt lat="46.669707885012031" lon="12.425463767722249">
        <ele>1829.05</ele>
        <time>2017-03-12T09:26:04Z</time>
      </trkpt>
      <trkpt lat="46.669674692675471" lon="12.425557309761643">
        <ele>1829.53</ele>
        <time>2017-03-12T09:26:12Z</time>
      </trkpt>
      <trkpt lat="46.669675279408693" lon="12.425636099651456">
        <ele>1830.01</ele>
        <time>2017-03-12T09:26:21Z</time>
      </trkpt>
      <trkpt lat="46.669677710160613" lon="12.425655461847782">
        <ele>1830.49</ele>
        <time>2017-03-12T09:26:23Z</time>
      </trkpt>
      <trkpt lat="46.669678883627057" lon="12.425678847357631">
        <ele>1830.49</ele>
        <time>2017-03-12T09:26:25Z</time>
      </trkpt>
      <trkpt lat="46.669686678797007" lon="12.425713967531919">
        <ele>1830.97</ele>
        <time>2017-03-12T09:26:28Z</time>
      </trkpt>
      <trkpt lat="46.669687097892165" lon="12.425751183182001">
        <ele>1830.97</ele>
        <time>2017-03-12T09:26:31Z</time>
      </trkpt>
      <trkpt lat="46.669695060700178" lon="12.425911528989673">
        <ele>1831.45</ele>
        <time>2017-03-12T09:26:42Z</time>
      </trkpt>
      <trkpt lat="46.669717524200678" lon="12.426024600863457">
        <ele>1832.4100000000001</ele>
        <time>2017-03-12T09:26:52Z</time>
      </trkpt>
      <trkpt lat="46.669743675738573" lon="12.426099702715874">
        <ele>1832.8900000000001</ele>
        <time>2017-03-12T09:27:01Z</time>
      </trkpt>
      <trkpt lat="46.669763457030058" lon="12.426141025498509">
        <ele>1833.3699999999999</ele>
        <time>2017-03-12T09:27:05Z</time>
      </trkpt>
      <trkpt lat="46.669850461184978" lon="12.426252672448754">
        <ele>1833.3699999999999</ele>
        <time>2017-03-12T09:27:18Z</time>
      </trkpt>
      <trkpt lat="46.669866805896163" lon="12.426424501463771">
        <ele>1833.8499999999999</ele>
        <time>2017-03-12T09:27:29Z</time>
      </trkpt>
      <trkpt lat="46.669870996847749" lon="12.42651678621769">
        <ele>1834.8099999999999</ele>
        <time>2017-03-12T09:27:37Z</time>
      </trkpt>
      <trkpt lat="46.669863536953926" lon="12.426541345193982">
        <ele>1834.8099999999999</ele>
        <time>2017-03-12T09:27:39Z</time>
      </trkpt>
      <trkpt lat="46.669794050976634" lon="12.426665648818016">
        <ele>1835.29</ele>
        <time>2017-03-12T09:27:52Z</time>
      </trkpt>
      <trkpt lat="46.669702772051096" lon="12.426765142008662">
        <ele>1836.74</ele>
        <time>2017-03-12T09:28:05Z</time>
      </trkpt>
      <trkpt lat="46.669596992433071" lon="12.426827000454068">
        <ele>1837.7</ele>
        <time>2017-03-12T09:28:18Z</time>
      </trkpt>
      <trkpt lat="46.669518537819386" lon="12.426878046244383">
        <ele>1838.6600000000001</ele>
        <time>2017-03-12T09:28:28Z</time>
      </trkpt>
      <trkpt lat="46.669482747092843" lon="12.426942754536867">
        <ele>1839.1400000000001</ele>
        <time>2017-03-12T09:28:37Z</time>
      </trkpt>
      <trkpt lat="46.669461708515882" lon="12.426963960751891">
        <ele>1839.6199999999999</ele>
        <time>2017-03-12T09:28:49Z</time>
      </trkpt>
      <trkpt lat="46.669459696859121" lon="12.426991537213326">
        <ele>1839.6199999999999</ele>
        <time>2017-03-12T09:29:02Z</time>
      </trkpt>
      <trkpt lat="46.669450728222728" lon="12.427003104239702">
        <ele>1840.0999999999999</ele>
        <time>2017-03-12T09:29:04Z</time>
      </trkpt>
      <trkpt lat="46.669378057122231" lon="12.427109470590949">
        <ele>1840.5799999999999</ele>
        <time>2017-03-12T09:29:15Z</time>
      </trkpt>
      <trkpt lat="46.669347798451781" lon="12.427199743688107">
        <ele>1841.0599999999999</ele>
        <time>2017-03-12T09:29:24Z</time>
      </trkpt>
      <trkpt lat="46.669345702975988" lon="12.427210388705134">
        <ele>1841.54</ele>
        <time>2017-03-12T09:29:25Z</time>
      </trkpt>
      <trkpt lat="46.669319970533252" lon="12.427316084504128">
        <ele>1842.02</ele>
        <time>2017-03-12T09:29:34Z</time>
      </trkpt>
      <trkpt lat="46.669296585023403" lon="12.427415996789932">
        <ele>1842.5</ele>
        <time>2017-03-12T09:29:44Z</time>
      </trkpt>
      <trkpt lat="46.669311923906207" lon="12.427527811378241">
        <ele>1843.95</ele>
        <time>2017-03-12T09:29:55Z</time>
      </trkpt>
      <trkpt lat="46.669313600286841" lon="12.427572319284081">
        <ele>1843.95</ele>
        <time>2017-03-12T09:30:00Z</time>
      </trkpt>
      <trkpt lat="46.669365232810378" lon="12.427645409479737">
        <ele>1844.4300000000001</ele>
        <time>2017-03-12T09:30:10Z</time>
      </trkpt>
      <trkpt lat="46.669390294700861" lon="12.42775353603065">
        <ele>1845.3900000000001</ele>
        <time>2017-03-12T09:30:20Z</time>
      </trkpt>
      <trkpt lat="46.669400772079825" lon="12.427863087505102">
        <ele>1846.3499999999999</ele>
        <time>2017-03-12T09:30:31Z</time>
      </trkpt>
      <trkpt lat="46.66947134770453" lon="12.42789669893682">
        <ele>1846.8299999999999</ele>
        <time>2017-03-12T09:30:41Z</time>
      </trkpt>
      <trkpt lat="46.669481322169304" lon="12.427900219336152">
        <ele>1847.3099999999999</ele>
        <time>2017-03-12T09:30:42Z</time>
      </trkpt>
      <trkpt lat="46.669533792883158" lon="12.427968783304095">
        <ele>1846.3499999999999</ele>
        <time>2017-03-12T09:30:53Z</time>
      </trkpt>
      <trkpt lat="46.669489201158285" lon="12.428106665611267">
        <ele>1848.27</ele>
        <time>2017-03-12T09:31:06Z</time>
      </trkpt>
      <trkpt lat="46.669464642181993" lon="12.428215881809592">
        <ele>1849.23</ele>
        <time>2017-03-12T09:31:16Z</time>
      </trkpt>
      <trkpt lat="46.669462881982327" lon="12.428316967561841">
        <ele>1850.1900000000001</ele>
        <time>2017-03-12T09:31:28Z</time>
      </trkpt>
      <trkpt lat="46.669473024085164" lon="12.428397433832288">
        <ele>1850.6800000000001</ele>
        <time>2017-03-12T09:31:38Z</time>
      </trkpt>
      <trkpt lat="46.669451482594013" lon="12.428506230935454">
        <ele>1852.1199999999999</ele>
        <time>2017-03-12T09:31:48Z</time>
      </trkpt>
      <trkpt lat="46.669449051842093" lon="12.428582925349474">
        <ele>1851.6400000000001</ele>
        <time>2017-03-12T09:31:57Z</time>
      </trkpt>
      <trkpt lat="46.669485177844763" lon="12.428691303357482">
        <ele>1851.6400000000001</ele>
        <time>2017-03-12T09:32:07Z</time>
      </trkpt>
      <trkpt lat="46.669553322717547" lon="12.428765315562487">
        <ele>1851.6400000000001</ele>
        <time>2017-03-12T09:32:17Z</time>
      </trkpt>
      <trkpt lat="46.669525075703859" lon="12.428863048553467">
        <ele>1852.1199999999999</ele>
        <time>2017-03-12T09:32:26Z</time>
      </trkpt>
      <trkpt lat="46.669529350474477" lon="12.428957344964147">
        <ele>1852.1199999999999</ele>
        <time>2017-03-12T09:32:36Z</time>
      </trkpt>
      <trkpt lat="46.669561704620719" lon="12.429087851196527">
        <ele>1850.6800000000001</ele>
        <time>2017-03-12T09:32:47Z</time>
      </trkpt>
      <trkpt lat="46.669546449556947" lon="12.429173765704036">
        <ele>1851.6400000000001</ele>
        <time>2017-03-12T09:32:57Z</time>
      </trkpt>
      <trkpt lat="46.669528177008033" lon="12.429255237802863">
        <ele>1853.0799999999999</ele>
        <time>2017-03-12T09:33:09Z</time>
      </trkpt>
      <trkpt lat="46.669547371566296" lon="12.429286083206534">
        <ele>1852.5999999999999</ele>
        <time>2017-03-12T09:33:15Z</time>
      </trkpt>
      <trkpt lat="46.669550053775311" lon="12.429447686299682">
        <ele>1854.04</ele>
        <time>2017-03-12T09:33:27Z</time>
      </trkpt>
      <trkpt lat="46.669561620801687" lon="12.429571989923716">
        <ele>1855</ele>
        <time>2017-03-12T09:33:37Z</time>
      </trkpt>
      <trkpt lat="46.669585760682821" lon="12.429666202515364">
        <ele>1855.48</ele>
        <time>2017-03-12T09:33:46Z</time>
      </trkpt>
      <trkpt lat="46.669602440670133" lon="12.429673494771123">
        <ele>1855.96</ele>
        <time>2017-03-12T09:33:49Z</time>
      </trkpt>
      <trkpt lat="46.669599004089832" lon="12.429819507524371">
        <ele>1856.4400000000001</ele>
        <time>2017-03-12T09:34:00Z</time>
      </trkpt>
      <trkpt lat="46.669611157849431" lon="12.429866613820195">
        <ele>1858.3699999999999</ele>
        <time>2017-03-12T09:34:05Z</time>
      </trkpt>
      <trkpt lat="46.669636638835073" lon="12.429978176951408">
        <ele>1857.4000000000001</ele>
        <time>2017-03-12T09:34:15Z</time>
      </trkpt>
      <trkpt lat="46.669648373499513" lon="12.430074736475945">
        <ele>1857.8900000000001</ele>
        <time>2017-03-12T09:34:25Z</time>
      </trkpt>
      <trkpt lat="46.669635465368629" lon="12.43013215251267">
        <ele>1858.3699999999999</ele>
        <time>2017-03-12T09:34:33Z</time>
      </trkpt>
      <trkpt lat="46.669656336307526" lon="12.430146904662251">
        <ele>1858.8499999999999</ele>
        <time>2017-03-12T09:34:42Z</time>
      </trkpt>
      <trkpt lat="46.669639404863119" lon="12.430163752287626">
        <ele>1858.3699999999999</ele>
        <time>2017-03-12T09:34:50Z</time>
      </trkpt>
      <trkpt lat="46.669639153406024" lon="12.430183114483953">
        <ele>1858.3699999999999</ele>
        <time>2017-03-12T09:35:01Z</time>
      </trkpt>
      <trkpt lat="46.669638231396675" lon="12.430210271850228">
        <ele>1858.3699999999999</ele>
        <time>2017-03-12T09:35:12Z</time>
      </trkpt>
      <trkpt lat="46.669675949960947" lon="12.430183282122016">
        <ele>1858.8499999999999</ele>
        <time>2017-03-12T09:35:23Z</time>
      </trkpt>
      <trkpt lat="46.669730180874467" lon="12.43021085858345">
        <ele>1858.8499999999999</ele>
        <time>2017-03-12T09:35:33Z</time>
      </trkpt>
      <trkpt lat="46.669763959944248" lon="12.430278919637203">
        <ele>1858.8499999999999</ele>
        <time>2017-03-12T09:35:43Z</time>
      </trkpt>
      <trkpt lat="46.669736970216036" lon="12.43029098957777">
        <ele>1858.3699999999999</ele>
        <time>2017-03-12T09:35:53Z</time>
      </trkpt>
      <trkpt lat="46.669746609404683" lon="12.430284535512328">
        <ele>1858.3699999999999</ele>
        <time>2017-03-12T09:36:05Z</time>
      </trkpt>
      <trkpt lat="46.669780556112528" lon="12.430289816111326">
        <ele>1858.8499999999999</ele>
        <time>2017-03-12T09:36:13Z</time>
      </trkpt>
      <trkpt lat="46.669855657964945" lon="12.43030808866024">
        <ele>1857.8900000000001</ele>
        <time>2017-03-12T09:36:21Z</time>
      </trkpt>
      <trkpt lat="46.669923886656761" lon="12.43032812140882">
        <ele>1858.3699999999999</ele>
        <time>2017-03-12T09:36:30Z</time>
      </trkpt>
      <trkpt lat="46.670031258836389" lon="12.430349914357066">
        <ele>1858.3699999999999</ele>
        <time>2017-03-12T09:36:41Z</time>
      </trkpt>
      <trkpt lat="46.670093284919858" lon="12.430408000946045">
        <ele>1858.3699999999999</ele>
        <time>2017-03-12T09:36:49Z</time>
      </trkpt>
      <trkpt lat="46.670130919665098" lon="12.430449994280934">
        <ele>1857.8900000000001</ele>
        <time>2017-03-12T09:36:59Z</time>
      </trkpt>
      <trkpt lat="46.670192526653409" lon="12.430470613762736">
        <ele>1857.8900000000001</ele>
        <time>2017-03-12T09:37:11Z</time>
      </trkpt>
      <trkpt lat="46.670221528038383" lon="12.43047907948494">
        <ele>1858.3699999999999</ele>
        <time>2017-03-12T09:37:20Z</time>
      </trkpt>
      <trkpt lat="46.670240387320518" lon="12.430521994829178">
        <ele>1858.8499999999999</ele>
        <time>2017-03-12T09:37:32Z</time>
      </trkpt>
      <trkpt lat="46.670296210795641" lon="12.430542865768075">
        <ele>1858.8499999999999</ele>
        <time>2017-03-12T09:37:44Z</time>
      </trkpt>
      <trkpt lat="46.670267544686794" lon="12.430656775832176">
        <ele>1858.3699999999999</ele>
        <time>2017-03-12T09:37:54Z</time>
      </trkpt>
      <trkpt lat="46.670262850821018" lon="12.430627690628171">
        <ele>1858.8499999999999</ele>
        <time>2017-03-12T09:38:03Z</time>
      </trkpt>
      <trkpt lat="46.670277016237378" lon="12.430623667314649">
        <ele>1858.3699999999999</ele>
        <time>2017-03-12T09:38:14Z</time>
      </trkpt>
      <trkpt lat="46.670260168612003" lon="12.430683514103293">
        <ele>1858.3699999999999</ele>
        <time>2017-03-12T09:38:20Z</time>
      </trkpt>
      <trkpt lat="46.670254971832037" lon="12.43087244220078">
        <ele>1858.3699999999999</ele>
        <time>2017-03-12T09:38:32Z</time>
      </trkpt>
      <trkpt lat="46.670273579657078" lon="12.431007055565715">
        <ele>1858.3699999999999</ele>
        <time>2017-03-12T09:38:44Z</time>
      </trkpt>
      <trkpt lat="46.670267879962921" lon="12.431098250672221">
        <ele>1858.3699999999999</ele>
        <time>2017-03-12T09:38:55Z</time>
      </trkpt>
      <trkpt lat="46.670259581878781" lon="12.431263038888574">
        <ele>1858.8499999999999</ele>
        <time>2017-03-12T09:39:06Z</time>
      </trkpt>
      <trkpt lat="46.67024583555758" lon="12.431398155167699">
        <ele>1858.3699999999999</ele>
        <time>2017-03-12T09:39:16Z</time>
      </trkpt>
      <trkpt lat="46.670240638777614" lon="12.431409889832139">
        <ele>1858.8499999999999</ele>
        <time>2017-03-12T09:39:30Z</time>
      </trkpt>
      <trkpt lat="46.670240806415677" lon="12.43145783431828">
        <ele>1858.3699999999999</ele>
        <time>2017-03-12T09:39:33Z</time>
      </trkpt>
      <trkpt lat="46.670264024287462" lon="12.43163569830358">
        <ele>1858.3699999999999</ele>
        <time>2017-03-12T09:39:46Z</time>
      </trkpt>
      <trkpt lat="46.670269556343555" lon="12.43173192255199">
        <ele>1857.4000000000001</ele>
        <time>2017-03-12T09:39:53Z</time>
      </trkpt>
      <trkpt lat="46.67026880197227" lon="12.431788248941302">
        <ele>1859.3299999999999</ele>
        <time>2017-03-12T09:39:58Z</time>
      </trkpt>
      <trkpt lat="46.670293025672436" lon="12.431921772658825">
        <ele>1859.3299999999999</ele>
        <time>2017-03-12T09:40:07Z</time>
      </trkpt>
      <trkpt lat="46.67032403871417" lon="12.432095613330603">
        <ele>1858.8499999999999</ele>
        <time>2017-03-12T09:40:19Z</time>
      </trkpt>
      <trkpt lat="46.670333258807659" lon="12.43213995359838">
        <ele>1859.3299999999999</ele>
        <time>2017-03-12T09:40:22Z</time>
      </trkpt>
      <trkpt lat="46.670358572155237" lon="12.432259395718575">
        <ele>1859.8099999999999</ele>
        <time>2017-03-12T09:40:31Z</time>
      </trkpt>
      <trkpt lat="46.670429231598973" lon="12.432352602481842">
        <ele>1860.77</ele>
        <time>2017-03-12T09:40:41Z</time>
      </trkpt>
      <trkpt lat="46.670472314581275" lon="12.432464249432087">
        <ele>1861.73</ele>
        <time>2017-03-12T09:40:51Z</time>
      </trkpt>
      <trkpt lat="46.670518415048718" lon="12.432544380426407">
        <ele>1862.21</ele>
        <time>2017-03-12T09:41:02Z</time>
      </trkpt>
      <trkpt lat="46.670554205775261" lon="12.432649992406368">
        <ele>1863.1700000000001</ele>
        <time>2017-03-12T09:41:13Z</time>
      </trkpt>
      <trkpt lat="46.67058982886374" lon="12.432713275775313">
        <ele>1863.6500000000001</ele>
        <time>2017-03-12T09:41:21Z</time>
      </trkpt>
      <trkpt lat="46.670648753643036" lon="12.432783013209701">
        <ele>1864.1300000000001</ele>
        <time>2017-03-12T09:41:31Z</time>
      </trkpt>
      <trkpt lat="46.670697871595621" lon="12.432851996272802">
        <ele>1865.0899999999999</ele>
        <time>2017-03-12T09:41:41Z</time>
      </trkpt>
      <trkpt lat="46.670708348974586" lon="12.432864317670465">
        <ele>1865.0899999999999</ele>
        <time>2017-03-12T09:41:43Z</time>
      </trkpt>
      <trkpt lat="46.670770375058055" lon="12.432923996821046">
        <ele>1866.54</ele>
        <time>2017-03-12T09:41:52Z</time>
      </trkpt>
      <trkpt lat="46.670806165784597" lon="12.432991890236735">
        <ele>1867.98</ele>
        <time>2017-03-12T09:42:03Z</time>
      </trkpt>
      <trkpt lat="46.670853858813643" lon="12.433072775602341">
        <ele>1869.4200000000001</ele>
        <time>2017-03-12T09:42:15Z</time>
      </trkpt>
      <trkpt lat="46.670886464416981" lon="12.433149721473455">
        <ele>1870.8599999999999</ele>
        <time>2017-03-12T09:42:26Z</time>
      </trkpt>
      <trkpt lat="46.670904736965895" lon="12.43323152884841">
        <ele>1871.8199999999999</ele>
        <time>2017-03-12T09:42:36Z</time>
      </trkpt>
      <trkpt lat="46.670922506600618" lon="12.433326076716185">
        <ele>1873.27</ele>
        <time>2017-03-12T09:42:46Z</time>
      </trkpt>
      <trkpt lat="46.670938851311803" lon="12.433423390612006">
        <ele>1874.71</ele>
        <time>2017-03-12T09:42:57Z</time>
      </trkpt>
      <trkpt lat="46.670947568491101" lon="12.433431353420019">
        <ele>1875.6700000000001</ele>
        <time>2017-03-12T09:43:05Z</time>
      </trkpt>
      <trkpt lat="46.670940862968564" lon="12.433457756415009">
        <ele>1875.6700000000001</ele>
        <time>2017-03-12T09:43:19Z</time>
      </trkpt>
      <trkpt lat="46.670947317034006" lon="12.433570995926857">
        <ele>1877.5899999999999</ele>
        <time>2017-03-12T09:43:29Z</time>
      </trkpt>
      <trkpt lat="46.67094555683434" lon="12.433657245710492">
        <ele>1879.51</ele>
        <time>2017-03-12T09:43:38Z</time>
      </trkpt>
      <trkpt lat="46.671003978699446" lon="12.433668477460742">
        <ele>1880.96</ele>
        <time>2017-03-12T09:43:47Z</time>
      </trkpt>
      <trkpt lat="46.671062400564551" lon="12.43370845913887">
        <ele>1881.9200000000001</ele>
        <time>2017-03-12T09:43:58Z</time>
      </trkpt>
      <trkpt lat="46.671085534617305" lon="12.433724384754896">
        <ele>1882.8800000000001</ele>
        <time>2017-03-12T09:44:03Z</time>
      </trkpt>
      <trkpt lat="46.671126270666718" lon="12.43379982188344">
        <ele>1884.3199999999999</ele>
        <time>2017-03-12T09:44:14Z</time>
      </trkpt>
      <trkpt lat="46.671125935390592" lon="12.433876767754555">
        <ele>1885.76</ele>
        <time>2017-03-12T09:44:24Z</time>
      </trkpt>
      <trkpt lat="46.671131383627653" lon="12.433887161314487">
        <ele>1885.76</ele>
        <time>2017-03-12T09:44:26Z</time>
      </trkpt>
      <trkpt lat="46.671174466609955" lon="12.433914486318827">
        <ele>1887.21</ele>
        <time>2017-03-12T09:44:36Z</time>
      </trkpt>
      <trkpt lat="46.671203635632992" lon="12.433885736390948">
        <ele>1887.6900000000001</ele>
        <time>2017-03-12T09:44:44Z</time>
      </trkpt>
      <trkpt lat="46.671201540157199" lon="12.433884479105473">
        <ele>1887.6900000000001</ele>
        <time>2017-03-12T09:44:47Z</time>
      </trkpt>
      <trkpt lat="46.671207742765546" lon="12.43384525179863">
        <ele>1886.72</ele>
        <time>2017-03-12T09:44:58Z</time>
      </trkpt>
      <trkpt lat="46.671228613704443" lon="12.433795211836696">
        <ele>1887.6900000000001</ele>
        <time>2017-03-12T09:45:14Z</time>
      </trkpt>
      <trkpt lat="46.671277061104774" lon="12.433736035600305">
        <ele>1887.21</ele>
        <time>2017-03-12T09:45:25Z</time>
      </trkpt>
      <trkpt lat="46.671269601210952" lon="12.433716338127851">
        <ele>1887.6900000000001</ele>
        <time>2017-03-12T09:45:35Z</time>
      </trkpt>
      <trkpt lat="46.671312432736158" lon="12.433679038658738">
        <ele>1887.6900000000001</ele>
        <time>2017-03-12T09:45:43Z</time>
      </trkpt>
      <trkpt lat="46.671349480748177" lon="12.433726312592626">
        <ele>1887.6900000000001</ele>
        <time>2017-03-12T09:45:51Z</time>
      </trkpt>
      <trkpt lat="46.671380996704102" lon="12.433694796636701">
        <ele>1888.1700000000001</ele>
        <time>2017-03-12T09:45:59Z</time>
      </trkpt>
      <trkpt lat="46.671417625620961" lon="12.433658586815">
        <ele>1888.1700000000001</ele>
        <time>2017-03-12T09:46:09Z</time>
      </trkpt>
      <trkpt lat="46.671403795480728" lon="12.433649618178606">
        <ele>1887.6900000000001</ele>
        <time>2017-03-12T09:46:18Z</time>
      </trkpt>
      <trkpt lat="46.671404298394918" lon="12.433629753068089">
        <ele>1887.6900000000001</ele>
        <time>2017-03-12T09:46:31Z</time>
      </trkpt>
      <trkpt lat="46.671390132978559" lon="12.433662945404649">
        <ele>1888.1700000000001</ele>
        <time>2017-03-12T09:46:44Z</time>
      </trkpt>
      <trkpt lat="46.671431036666036" lon="12.433630172163248">
        <ele>1887.6900000000001</ele>
        <time>2017-03-12T09:46:54Z</time>
      </trkpt>
      <trkpt lat="46.671405974775553" lon="12.433654982596636">
        <ele>1887.21</ele>
        <time>2017-03-12T09:47:03Z</time>
      </trkpt>
      <trkpt lat="46.671435479074717" lon="12.433631094172597">
        <ele>1887.21</ele>
        <time>2017-03-12T09:47:10Z</time>
      </trkpt>
      <trkpt lat="46.671423157677054" lon="12.433637212961912">
        <ele>1887.6900000000001</ele>
        <time>2017-03-12T09:47:20Z</time>
      </trkpt>
      <trkpt lat="46.671413602307439" lon="12.433614665642381">
        <ele>1887.21</ele>
        <time>2017-03-12T09:47:30Z</time>
      </trkpt>
      <trkpt lat="46.671437909826636" lon="12.433608211576939">
        <ele>1887.6900000000001</ele>
        <time>2017-03-12T09:47:41Z</time>
      </trkpt>
      <trkpt lat="46.671432293951511" lon="12.433606954291463">
        <ele>1887.6900000000001</ele>
        <time>2017-03-12T09:47:54Z</time>
      </trkpt>
      <trkpt lat="46.671425672248006" lon="12.433626903221011">
        <ele>1887.6900000000001</ele>
        <time>2017-03-12T09:48:07Z</time>
      </trkpt>
      <trkpt lat="46.671386025846004" lon="12.433718098327518">
        <ele>1888.1700000000001</ele>
        <time>2017-03-12T09:48:17Z</time>
      </trkpt>
      <trkpt lat="46.671360293403268" lon="12.43368205614388">
        <ele>1887.21</ele>
        <time>2017-03-12T09:48:28Z</time>
      </trkpt>
      <trkpt lat="46.671347636729479" lon="12.433671159669757">
        <ele>1887.21</ele>
        <time>2017-03-12T09:48:46Z</time>
      </trkpt>
      <trkpt lat="46.671352246776223" lon="12.433668477460742">
        <ele>1887.21</ele>
        <time>2017-03-12T09:49:05Z</time>
      </trkpt>
      <trkpt lat="46.671349816024303" lon="12.433691862970591">
        <ele>1887.21</ele>
        <time>2017-03-12T09:49:18Z</time>
      </trkpt>
      <trkpt lat="46.671358365565538" lon="12.433686750009656">
        <ele>1886.72</ele>
        <time>2017-03-12T09:49:47Z</time>
      </trkpt>
      <trkpt lat="46.671356773003936" lon="12.433681469410658">
        <ele>1887.6900000000001</ele>
        <time>2017-03-12T09:50:09Z</time>
      </trkpt>
      <trkpt lat="46.671376973390579" lon="12.433682894334197">
        <ele>1887.6900000000001</ele>
        <time>2017-03-12T09:50:21Z</time>
      </trkpt>
      <trkpt lat="46.671416033059359" lon="12.43368498980999">
        <ele>1887.21</ele>
        <time>2017-03-12T09:50:36Z</time>
      </trkpt>
      <trkpt lat="46.671446124091744" lon="12.433607038110495">
        <ele>1887.21</ele>
        <time>2017-03-12T09:50:48Z</time>
      </trkpt>
      <trkpt lat="46.671431958675385" lon="12.433589184656739">
        <ele>1887.21</ele>
        <time>2017-03-12T09:51:03Z</time>
      </trkpt>
      <trkpt lat="46.671458361670375" lon="12.433594549074769">
        <ele>1887.21</ele>
        <time>2017-03-12T09:51:21Z</time>
      </trkpt>
      <trkpt lat="46.671479484066367" lon="12.433592537418008">
        <ele>1887.6900000000001</ele>
        <time>2017-03-12T09:51:33Z</time>
      </trkpt>
      <trkpt lat="46.671438412740827" lon="12.43361122906208">
        <ele>1886.72</ele>
        <time>2017-03-12T09:51:45Z</time>
      </trkpt>
      <trkpt lat="46.671443609520793" lon="12.433631429448724">
        <ele>1886.72</ele>
        <time>2017-03-12T09:51:53Z</time>
      </trkpt>
      <trkpt lat="46.671457774937153" lon="12.433640817180276">
        <ele>1886.72</ele>
        <time>2017-03-12T09:52:10Z</time>
      </trkpt>
      <trkpt lat="46.671477891504765" lon="12.433657245710492">
        <ele>1886.72</ele>
        <time>2017-03-12T09:52:29Z</time>
      </trkpt>
      <trkpt lat="46.671481244266033" lon="12.433660179376602">
        <ele>1886.72</ele>
        <time>2017-03-12T09:52:51Z</time>
      </trkpt>
      <trkpt lat="46.671468755230308" lon="12.43363712914288">
        <ele>1886.72</ele>
        <time>2017-03-12T09:53:10Z</time>
      </trkpt>
      <trkpt lat="46.671465737745166" lon="12.433631094172597">
        <ele>1886.72</ele>
        <time>2017-03-12T09:53:32Z</time>
      </trkpt>
      <trkpt lat="46.671457691118121" lon="12.433626316487789">
        <ele>1886.72</ele>
        <time>2017-03-12T09:53:56Z</time>
      </trkpt>
      <trkpt lat="46.671461295336485" lon="12.433623382821679">
        <ele>1886.72</ele>
        <time>2017-03-12T09:54:17Z</time>
      </trkpt>
      <trkpt lat="46.671448806300759" lon="12.433598404750228">
        <ele>1887.21</ele>
        <time>2017-03-12T09:54:32Z</time>
      </trkpt>
      <trkpt lat="46.671464731916785" lon="12.43365079164505">
        <ele>1886.24</ele>
        <time>2017-03-12T09:54:50Z</time>
      </trkpt>
      <trkpt lat="46.671449979767203" lon="12.433641236275434">
        <ele>1886.72</ele>
        <time>2017-03-12T09:55:08Z</time>
      </trkpt>
      <trkpt lat="46.671440675854683" lon="12.433645511046052">
        <ele>1886.72</ele>
        <time>2017-03-12T09:55:26Z</time>
      </trkpt>
      <trkpt lat="46.671449644491076" lon="12.433656575158238">
        <ele>1887.6900000000001</ele>
        <time>2017-03-12T09:55:47Z</time>
      </trkpt>
      <trkpt lat="46.671453583985567" lon="12.433655317872763">
        <ele>1887.21</ele>
        <time>2017-03-12T09:56:10Z</time>
      </trkpt>
      <trkpt lat="46.671467497944832" lon="12.433687504380941">
        <ele>1887.6900000000001</ele>
        <time>2017-03-12T09:56:27Z</time>
      </trkpt>
      <trkpt lat="46.671470180153847" lon="12.433693706989288">
        <ele>1887.21</ele>
        <time>2017-03-12T09:56:41Z</time>
      </trkpt>
      <trkpt lat="46.671465570107102" lon="12.433682894334197">
        <ele>1887.21</ele>
        <time>2017-03-12T09:57:02Z</time>
      </trkpt>
      <trkpt lat="46.671448219567537" lon="12.433658000081778">
        <ele>1886.72</ele>
        <time>2017-03-12T09:57:21Z</time>
      </trkpt>
      <trkpt lat="46.671460373327136" lon="12.433637464419007">
        <ele>1886.24</ele>
        <time>2017-03-12T09:57:35Z</time>
      </trkpt>
      <trkpt lat="46.671441514045" lon="12.433630675077438">
        <ele>1886.24</ele>
        <time>2017-03-12T09:57:50Z</time>
      </trkpt>
      <trkpt lat="46.671456517651677" lon="12.433659257367253">
        <ele>1886.24</ele>
        <time>2017-03-12T09:58:11Z</time>
      </trkpt>
      <trkpt lat="46.671431455761194" lon="12.43362438865006">
        <ele>1886.24</ele>
        <time>2017-03-12T09:58:32Z</time>
      </trkpt>
      <trkpt lat="46.671463809907436" lon="12.433670405298471">
        <ele>1886.24</ele>
        <time>2017-03-12T09:58:56Z</time>
      </trkpt>
      <trkpt lat="46.671473952010274" lon="12.433685660362244">
        <ele>1886.24</ele>
        <time>2017-03-12T09:59:19Z</time>
      </trkpt>
      <trkpt lat="46.671479903161526" lon="12.433666381984949">
        <ele>1886.24</ele>
        <time>2017-03-12T09:59:38Z</time>
      </trkpt>
      <trkpt lat="46.67154804803431" lon="12.433763360604644">
        <ele>1886.24</ele>
        <time>2017-03-12T09:59:59Z</time>
      </trkpt>
      <trkpt lat="46.671553663909435" lon="12.433690270408988">
        <ele>1886.24</ele>
        <time>2017-03-12T10:00:22Z</time>
      </trkpt>
      <trkpt lat="46.671587778255343" lon="12.433631764724851">
        <ele>1886.24</ele>
        <time>2017-03-12T10:00:44Z</time>
      </trkpt>
      <trkpt lat="46.671542683616281" lon="12.433599326759577">
        <ele>1886.72</ele>
        <time>2017-03-12T10:01:10Z</time>
      </trkpt>
      <trkpt lat="46.671470683068037" lon="12.433623801916838">
        <ele>1887.6900000000001</ele>
        <time>2017-03-12T10:01:31Z</time>
      </trkpt>
      <trkpt lat="46.671522399410605" lon="12.433598907664418">
        <ele>1886.72</ele>
        <time>2017-03-12T10:01:56Z</time>
      </trkpt>
      <trkpt lat="46.671514688059688" lon="12.433584071695805">
        <ele>1886.72</ele>
        <time>2017-03-12T10:02:18Z</time>
      </trkpt>
      <trkpt lat="46.671544862911105" lon="12.433548364788294">
        <ele>1886.72</ele>
        <time>2017-03-12T10:02:41Z</time>
      </trkpt>
      <trkpt lat="46.671465234830976" lon="12.433635452762246">
        <ele>1886.72</ele>
        <time>2017-03-12T10:03:01Z</time>
      </trkpt>
      <trkpt lat="46.67150211520493" lon="12.433667974546552">
        <ele>1887.21</ele>
        <time>2017-03-12T10:03:24Z</time>
      </trkpt>
      <trkpt lat="46.671497924253345" lon="12.433664286509156">
        <ele>1886.72</ele>
        <time>2017-03-12T10:03:46Z</time>
      </trkpt>
      <trkpt lat="46.671530781313777" lon="12.433594716712832">
        <ele>1886.24</ele>
        <time>2017-03-12T10:04:10Z</time>
      </trkpt>
      <trkpt lat="46.671487614512444" lon="12.43365716189146">
        <ele>1886.72</ele>
        <time>2017-03-12T10:04:27Z</time>
      </trkpt>
      <trkpt lat="46.671439753845334" lon="12.433587172999978">
        <ele>1886.72</ele>
        <time>2017-03-12T10:04:49Z</time>
      </trkpt>
      <trkpt lat="46.67142634280026" lon="12.433568397536874">
        <ele>1886.72</ele>
        <time>2017-03-12T10:05:10Z</time>
      </trkpt>
      <trkpt lat="46.67145324870944" lon="12.433613911271095">
        <ele>1886.72</ele>
        <time>2017-03-12T10:05:31Z</time>
      </trkpt>
      <trkpt lat="46.671457523480058" lon="12.43361315689981">
        <ele>1886.24</ele>
        <time>2017-03-12T10:05:51Z</time>
      </trkpt>
      <trkpt lat="46.671444615349174" lon="12.433599075302482">
        <ele>1886.72</ele>
        <time>2017-03-12T10:06:11Z</time>
      </trkpt>
      <trkpt lat="46.671483004465699" lon="12.433629836887121">
        <ele>1887.21</ele>
        <time>2017-03-12T10:06:34Z</time>
      </trkpt>
      <trkpt lat="46.671534553170204" lon="12.433699071407318">
        <ele>1887.21</ele>
        <time>2017-03-12T10:06:58Z</time>
      </trkpt>
      <trkpt lat="46.671532792970538" lon="12.43369722738862">
        <ele>1887.21</ele>
        <time>2017-03-12T10:07:17Z</time>
      </trkpt>
      <trkpt lat="46.671462636440992" lon="12.433632183820009">
        <ele>1887.21</ele>
        <time>2017-03-12T10:07:37Z</time>
      </trkpt>
      <trkpt lat="46.671404298394918" lon="12.433568732813001">
        <ele>1886.72</ele>
        <time>2017-03-12T10:07:57Z</time>
      </trkpt>
      <trkpt lat="46.671447716653347" lon="12.433623466640711">
        <ele>1887.21</ele>
        <time>2017-03-12T10:08:23Z</time>
      </trkpt>
      <trkpt lat="46.671497756615281" lon="12.433658167719841">
        <ele>1887.21</ele>
        <time>2017-03-12T10:08:50Z</time>
      </trkpt>
      <trkpt lat="46.671492643654346" lon="12.433669734746218">
        <ele>1887.21</ele>
        <time>2017-03-12T10:09:19Z</time>
      </trkpt>
      <trkpt lat="46.671492978930473" lon="12.433674680069089">
        <ele>1888.1700000000001</ele>
        <time>2017-03-12T10:09:42Z</time>
      </trkpt>
      <trkpt lat="46.671490799635649" lon="12.433671578764915">
        <ele>1888.6500000000001</ele>
        <time>2017-03-12T10:10:04Z</time>
      </trkpt>
      <trkpt lat="46.671483842656016" lon="12.43366789072752">
        <ele>1888.6500000000001</ele>
        <time>2017-03-12T10:10:30Z</time>
      </trkpt>
      <trkpt lat="46.671485351398587" lon="12.433670992031693">
        <ele>1888.1700000000001</ele>
        <time>2017-03-12T10:10:51Z</time>
      </trkpt>
      <trkpt lat="46.671505719423294" lon="12.433682139962912">
        <ele>1888.6500000000001</ele>
        <time>2017-03-12T10:11:18Z</time>
      </trkpt>
      <trkpt lat="46.671527428552508" lon="12.433696892112494">
        <ele>1888.6500000000001</ele>
        <time>2017-03-12T10:11:47Z</time>
      </trkpt>
      <trkpt lat="46.67150798253715" lon="12.433687755838037">
        <ele>1889.1300000000001</ele>
        <time>2017-03-12T10:12:12Z</time>
      </trkpt>
      <trkpt lat="46.67151091620326" lon="12.433694209903479">
        <ele>1889.6099999999999</ele>
        <time>2017-03-12T10:12:37Z</time>
      </trkpt>
      <trkpt lat="46.671484764665365" lon="12.433679709210992">
        <ele>1889.6099999999999</ele>
        <time>2017-03-12T10:13:06Z</time>
      </trkpt>
      <trkpt lat="46.671477220952511" lon="12.433677027001977">
        <ele>1889.6099999999999</ele>
        <time>2017-03-12T10:13:32Z</time>
      </trkpt>
      <trkpt lat="46.671483926475048" lon="12.433687169104815">
        <ele>1890.0899999999999</ele>
        <time>2017-03-12T10:13:55Z</time>
      </trkpt>
      <trkpt lat="46.6714933142066" lon="12.43369965814054">
        <ele>1889.6099999999999</ele>
        <time>2017-03-12T10:14:18Z</time>
      </trkpt>
      <trkpt lat="46.67148208245635" lon="12.433684319257736">
        <ele>1889.6099999999999</ele>
        <time>2017-03-12T10:14:45Z</time>
      </trkpt>
      <trkpt lat="46.671481914818287" lon="12.433685744181275">
        <ele>1889.6099999999999</ele>
        <time>2017-03-12T10:15:09Z</time>
      </trkpt>
      <trkpt lat="46.671498343348503" lon="12.433688091114163">
        <ele>1889.6099999999999</ele>
        <time>2017-03-12T10:15:31Z</time>
      </trkpt>
      <trkpt lat="46.671544946730137" lon="12.433725306764245">
        <ele>1889.6099999999999</ele>
        <time>2017-03-12T10:15:53Z</time>
      </trkpt>
      <trkpt lat="46.671540755778551" lon="12.433697059750557">
        <ele>1890.0899999999999</ele>
        <time>2017-03-12T10:16:20Z</time>
      </trkpt>
      <trkpt lat="46.671538911759853" lon="12.433698317036033">
        <ele>1890.0899999999999</ele>
        <time>2017-03-12T10:16:45Z</time>
      </trkpt>
      <trkpt lat="46.671516029164195" lon="12.433658502995968">
        <ele>1890.0899999999999</ele>
        <time>2017-03-12T10:17:11Z</time>
      </trkpt>
      <trkpt lat="46.671488201245666" lon="12.433631513267756">
        <ele>1890.0899999999999</ele>
        <time>2017-03-12T10:17:36Z</time>
      </trkpt>
      <trkpt lat="46.671490799635649" lon="12.433634530752897">
        <ele>1890.0899999999999</ele>
        <time>2017-03-12T10:18:00Z</time>
      </trkpt>
      <trkpt lat="46.671488955616951" lon="12.433632519096136">
        <ele>1889.1300000000001</ele>
        <time>2017-03-12T10:18:29Z</time>
      </trkpt>
      <trkpt lat="46.671495912596583" lon="12.433637548238039">
        <ele>1889.6099999999999</ele>
        <time>2017-03-12T10:18:52Z</time>
      </trkpt>
      <trkpt lat="46.671506054699421" lon="12.433647187426686">
        <ele>1889.6099999999999</ele>
        <time>2017-03-12T10:19:15Z</time>
      </trkpt>
      <trkpt lat="46.671496918424964" lon="12.433644589036703">
        <ele>1889.6099999999999</ele>
        <time>2017-03-12T10:19:32Z</time>
      </trkpt>
      <trkpt lat="46.67148401029408" lon="12.433617599308491">
        <ele>1890.5699999999999</ele>
        <time>2017-03-12T10:19:40Z</time>
      </trkpt>
      <trkpt lat="46.671476634219289" lon="12.433616928756237">
        <ele>1890.5699999999999</ele>
        <time>2017-03-12T10:19:57Z</time>
      </trkpt>
      <trkpt lat="46.671464312821627" lon="12.43359312415123">
        <ele>1890.5699999999999</ele>
        <time>2017-03-12T10:20:18Z</time>
      </trkpt>
      <trkpt lat="46.671449225395918" lon="12.433571666479111">
        <ele>1890.0899999999999</ele>
        <time>2017-03-12T10:20:35Z</time>
      </trkpt>
      <trkpt lat="46.671486441046" lon="12.433639392256737">
        <ele>1890.0899999999999</ele>
        <time>2017-03-12T10:20:52Z</time>
      </trkpt>
      <trkpt lat="46.671508988365531" lon="12.433662358671427">
        <ele>1890.0899999999999</ele>
        <time>2017-03-12T10:21:11Z</time>
      </trkpt>
      <trkpt lat="46.671508820727468" lon="12.433640900999308">
        <ele>1890.5699999999999</ele>
        <time>2017-03-12T10:21:35Z</time>
      </trkpt>
      <trkpt lat="46.671513179317117" lon="12.433621203526855">
        <ele>1890.0899999999999</ele>
        <time>2017-03-12T10:22:01Z</time>
      </trkpt>
      <trkpt lat="46.671517202630639" lon="12.43361659348011">
        <ele>1890.0899999999999</ele>
        <time>2017-03-12T10:22:25Z</time>
      </trkpt>
      <trkpt lat="46.6715192142874" lon="12.433627741411328">
        <ele>1890.0899999999999</ele>
        <time>2017-03-12T10:22:47Z</time>
      </trkpt>
      <trkpt lat="46.671523656696081" lon="12.433673841878772">
        <ele>1890.0899999999999</ele>
        <time>2017-03-12T10:23:11Z</time>
      </trkpt>
      <trkpt lat="46.671486357226968" lon="12.433602763339877">
        <ele>1890.0899999999999</ele>
        <time>2017-03-12T10:23:36Z</time>
      </trkpt>
      <trkpt lat="46.671495325863361" lon="12.433590106666088">
        <ele>1890.0899999999999</ele>
        <time>2017-03-12T10:23:59Z</time>
      </trkpt>
      <trkpt lat="46.671500941738486" lon="12.433661855757236">
        <ele>1890.5699999999999</ele>
        <time>2017-03-12T10:24:18Z</time>
      </trkpt>
      <trkpt lat="46.671508485451341" lon="12.433638134971261">
        <ele>1890.5699999999999</ele>
        <time>2017-03-12T10:24:39Z</time>
      </trkpt>
      <trkpt lat="46.671526506543159" lon="12.433654479682446">
        <ele>1891.05</ele>
        <time>2017-03-12T10:25:01Z</time>
      </trkpt>
      <trkpt lat="46.671497588977218" lon="12.433645511046052">
        <ele>1890.5699999999999</ele>
        <time>2017-03-12T10:25:22Z</time>
      </trkpt>
      <trkpt lat="46.671524662524462" lon="12.433706279844046">
        <ele>1890.5699999999999</ele>
        <time>2017-03-12T10:25:50Z</time>
      </trkpt>
      <trkpt lat="46.671516615897417" lon="12.433692617341876">
        <ele>1890.5699999999999</ele>
        <time>2017-03-12T10:26:14Z</time>
      </trkpt>
      <trkpt lat="46.67150404304266" lon="12.433655317872763">
        <ele>1890.5699999999999</ele>
        <time>2017-03-12T10:26:37Z</time>
      </trkpt>
      <trkpt lat="46.671508904546499" lon="12.433700496330857">
        <ele>1890.5699999999999</ele>
        <time>2017-03-12T10:27:00Z</time>
      </trkpt>
      <trkpt lat="46.671508820727468" lon="12.433659173548222">
        <ele>1890.5699999999999</ele>
        <time>2017-03-12T10:27:20Z</time>
      </trkpt>
      <trkpt lat="46.67150404304266" lon="12.433672165498137">
        <ele>1890.5699999999999</ele>
        <time>2017-03-12T10:27:40Z</time>
      </trkpt>
      <trkpt lat="46.671490548178554" lon="12.433681385591626">
        <ele>1890.0899999999999</ele>
        <time>2017-03-12T10:27:59Z</time>
      </trkpt>
      <trkpt lat="46.671489123255014" lon="12.43361558765173">
        <ele>1890.0899999999999</ele>
        <time>2017-03-12T10:28:17Z</time>
      </trkpt>
      <trkpt lat="46.671474203467369" lon="12.433598572388291">
        <ele>1889.6099999999999</ele>
        <time>2017-03-12T10:28:42Z</time>
      </trkpt>
      <trkpt lat="46.671478394418955" lon="12.433653641492128">
        <ele>1890.0899999999999</ele>
        <time>2017-03-12T10:29:05Z</time>
      </trkpt>
      <trkpt lat="46.67146934196353" lon="12.433598153293133">
        <ele>1889.6099999999999</ele>
        <time>2017-03-12T10:29:26Z</time>
      </trkpt>
      <trkpt lat="46.671466240659356" lon="12.433640398085117">
        <ele>1889.6099999999999</ele>
        <time>2017-03-12T10:29:48Z</time>
      </trkpt>
      <trkpt lat="46.67146934196353" lon="12.433629417791963">
        <ele>1889.6099999999999</ele>
        <time>2017-03-12T10:30:12Z</time>
      </trkpt>
      <trkpt lat="46.671473113819957" lon="12.433612402528524">
        <ele>1890.0899999999999</ele>
        <time>2017-03-12T10:30:29Z</time>
      </trkpt>
      <trkpt lat="46.671463642269373" lon="12.433622125536203">
        <ele>1890.0899999999999</ele>
        <time>2017-03-12T10:30:51Z</time>
      </trkpt>
      <trkpt lat="46.671469174325466" lon="12.433632016181946">
        <ele>1889.6099999999999</ele>
        <time>2017-03-12T10:31:15Z</time>
      </trkpt>
      <trkpt lat="46.671477388590574" lon="12.433637799695134">
        <ele>1889.6099999999999</ele>
        <time>2017-03-12T10:31:39Z</time>
      </trkpt>
      <trkpt lat="46.671500774100423" lon="12.433660682290792">
        <ele>1889.1300000000001</ele>
        <time>2017-03-12T10:32:06Z</time>
      </trkpt>
      <trkpt lat="46.671479316428304" lon="12.43366445414722">
        <ele>1889.1300000000001</ele>
        <time>2017-03-12T10:32:34Z</time>
      </trkpt>
      <trkpt lat="46.671485099941492" lon="12.433638973161578">
        <ele>1889.1300000000001</ele>
        <time>2017-03-12T10:32:55Z</time>
      </trkpt>
      <trkpt lat="46.671480238437653" lon="12.433666465803981">
        <ele>1889.1300000000001</ele>
        <time>2017-03-12T10:33:16Z</time>
      </trkpt>
      <trkpt lat="46.671500355005264" lon="12.433663364499807">
        <ele>1889.1300000000001</ele>
        <time>2017-03-12T10:33:37Z</time>
      </trkpt>
      <trkpt lat="46.671520220115781" lon="12.433647271245718">
        <ele>1888.6500000000001</ele>
        <time>2017-03-12T10:34:00Z</time>
      </trkpt>
      <trkpt lat="46.671481244266033" lon="12.433642745018005">
        <ele>1888.6500000000001</ele>
        <time>2017-03-12T10:34:23Z</time>
      </trkpt>
      <trkpt lat="46.671466995030642" lon="12.43362438865006">
        <ele>1889.1300000000001</ele>
        <time>2017-03-12T10:34:46Z</time>
      </trkpt>
      <trkpt lat="46.671506138518453" lon="12.433631513267756">
        <ele>1888.1700000000001</ele>
        <time>2017-03-12T10:35:07Z</time>
      </trkpt>
      <trkpt lat="46.67148794978857" lon="12.433665040880442">
        <ele>1888.6500000000001</ele>
        <time>2017-03-12T10:35:29Z</time>
      </trkpt>
      <trkpt lat="46.671490129083395" lon="12.433643750846386">
        <ele>1888.1700000000001</ele>
        <time>2017-03-12T10:35:53Z</time>
      </trkpt>
      <trkpt lat="46.671494152396917" lon="12.433656994253397">
        <ele>1888.6500000000001</ele>
        <time>2017-03-12T10:36:15Z</time>
      </trkpt>
      <trkpt lat="46.671481747180223" lon="12.433620281517506">
        <ele>1888.1700000000001</ele>
        <time>2017-03-12T10:36:40Z</time>
      </trkpt>
      <trkpt lat="46.671453416347504" lon="12.433557836338878">
        <ele>1888.6500000000001</ele>
        <time>2017-03-12T10:37:00Z</time>
      </trkpt>
      <trkpt lat="46.671481914818287" lon="12.43361902423203">
        <ele>1888.1700000000001</ele>
        <time>2017-03-12T10:37:25Z</time>
      </trkpt>
      <trkpt lat="46.671484094113111" lon="12.433619359508157">
        <ele>1888.1700000000001</ele>
        <time>2017-03-12T10:37:51Z</time>
      </trkpt>
      <trkpt lat="46.671491805464029" lon="12.433598069474101">
        <ele>1888.1700000000001</ele>
        <time>2017-03-12T10:38:14Z</time>
      </trkpt>
      <trkpt lat="46.671506054699421" lon="12.433607960119843">
        <ele>1888.1700000000001</ele>
        <time>2017-03-12T10:38:37Z</time>
      </trkpt>
      <trkpt lat="46.671450398862362" lon="12.433526990935206">
        <ele>1887.6900000000001</ele>
        <time>2017-03-12T10:39:02Z</time>
      </trkpt>
      <trkpt lat="46.671422487124801" lon="12.433451386168599">
        <ele>1888.1700000000001</ele>
        <time>2017-03-12T10:39:26Z</time>
      </trkpt>
      <trkpt lat="46.671445704996586" lon="12.433493295684457">
        <ele>1888.1700000000001</ele>
        <time>2017-03-12T10:39:50Z</time>
      </trkpt>
      <trkpt lat="46.671479232609272" lon="12.43367426097393">
        <ele>1888.1700000000001</ele>
        <time>2017-03-12T10:40:11Z</time>
      </trkpt>
      <trkpt lat="46.671494152396917" lon="12.433645846322179">
        <ele>1887.6900000000001</ele>
        <time>2017-03-12T10:40:34Z</time>
      </trkpt>
      <trkpt lat="46.671500941738486" lon="12.433636877685785">
        <ele>1887.6900000000001</ele>
        <time>2017-03-12T10:41:02Z</time>
      </trkpt>
      <trkpt lat="46.671506725251675" lon="12.433629417791963">
        <ele>1888.6500000000001</ele>
        <time>2017-03-12T10:41:22Z</time>
      </trkpt>
      <trkpt lat="46.671461295336485" lon="12.433667806908488">
        <ele>1888.6500000000001</ele>
        <time>2017-03-12T10:41:30Z</time>
      </trkpt>
      <trkpt lat="46.671431791037321" lon="12.433695383369923">
        <ele>1889.1300000000001</ele>
        <time>2017-03-12T10:41:37Z</time>
      </trkpt>
      <trkpt lat="46.671383092179894" lon="12.433707620948553">
        <ele>1888.1700000000001</ele>
        <time>2017-03-12T10:41:46Z</time>
      </trkpt>
      <trkpt lat="46.671353504061699" lon="12.433699574321508">
        <ele>1888.1700000000001</ele>
        <time>2017-03-12T10:42:12Z</time>
      </trkpt>
      <trkpt lat="46.671355599537492" lon="12.433709884062409">
        <ele>1888.1700000000001</ele>
        <time>2017-03-12T10:42:32Z</time>
      </trkpt>
      <trkpt lat="46.671350570395589" lon="12.433704100549221">
        <ele>1888.1700000000001</ele>
        <time>2017-03-12T10:42:56Z</time>
      </trkpt>
      <trkpt lat="46.671358281746507" lon="12.433698568493128">
        <ele>1887.6900000000001</ele>
        <time>2017-03-12T10:43:17Z</time>
      </trkpt>
      <trkpt lat="46.671368675306439" lon="12.433709716424346">
        <ele>1887.6900000000001</ele>
        <time>2017-03-12T10:43:37Z</time>
      </trkpt>
      <trkpt lat="46.671383678913116" lon="12.433717343956232">
        <ele>1888.1700000000001</ele>
        <time>2017-03-12T10:43:59Z</time>
      </trkpt>
      <trkpt lat="46.671379655599594" lon="12.433713153004646">
        <ele>1888.1700000000001</ele>
        <time>2017-03-12T10:44:22Z</time>
      </trkpt>
      <trkpt lat="46.671372950077057" lon="12.433707118034363">
        <ele>1888.1700000000001</ele>
        <time>2017-03-12T10:44:46Z</time>
      </trkpt>
      <trkpt lat="46.671378817409277" lon="12.433717092499137">
        <ele>1888.1700000000001</ele>
        <time>2017-03-12T10:45:12Z</time>
      </trkpt>
      <trkpt lat="46.671372028067708" lon="12.433693120256066">
        <ele>1887.6900000000001</ele>
        <time>2017-03-12T10:45:31Z</time>
      </trkpt>
      <trkpt lat="46.671374207362533" lon="12.43370502255857">
        <ele>1888.1700000000001</ele>
        <time>2017-03-12T10:45:51Z</time>
      </trkpt>
      <trkpt lat="46.671376386657357" lon="12.433696473017335">
        <ele>1887.6900000000001</ele>
        <time>2017-03-12T10:46:14Z</time>
      </trkpt>
      <trkpt lat="46.671375883743167" lon="12.433693120256066">
        <ele>1887.6900000000001</ele>
        <time>2017-03-12T10:46:37Z</time>
      </trkpt>
      <trkpt lat="46.671384768560529" lon="12.433704184368253">
        <ele>1887.6900000000001</ele>
        <time>2017-03-12T10:47:01Z</time>
      </trkpt>
      <trkpt lat="46.671384014189243" lon="12.433698568493128">
        <ele>1887.6900000000001</ele>
        <time>2017-03-12T10:47:25Z</time>
      </trkpt>
      <trkpt lat="46.67139851488173" lon="12.433707034215331">
        <ele>1887.21</ele>
        <time>2017-03-12T10:47:47Z</time>
      </trkpt>
      <trkpt lat="46.6713931504637" lon="12.433711225166917">
        <ele>1887.21</ele>
        <time>2017-03-12T10:48:16Z</time>
      </trkpt>
      <trkpt lat="46.671383595094085" lon="12.433713488280773">
        <ele>1886.72</ele>
        <time>2017-03-12T10:48:43Z</time>
      </trkpt>
      <trkpt lat="46.671384768560529" lon="12.433709716424346">
        <ele>1886.72</ele>
        <time>2017-03-12T10:49:06Z</time>
      </trkpt>
      <trkpt lat="46.671385355293751" lon="12.433714829385281">
        <ele>1886.72</ele>
        <time>2017-03-12T10:49:30Z</time>
      </trkpt>
      <trkpt lat="46.671380493789911" lon="12.433727234601974">
        <ele>1886.24</ele>
        <time>2017-03-12T10:49:55Z</time>
      </trkpt>
      <trkpt lat="46.67138384655118" lon="12.433716505765915">
        <ele>1886.24</ele>
        <time>2017-03-12T10:50:14Z</time>
      </trkpt>
      <trkpt lat="46.671391976997256" lon="12.433715499937534">
        <ele>1886.24</ele>
        <time>2017-03-12T10:50:39Z</time>
      </trkpt>
      <trkpt lat="46.671399939805269" lon="12.433703346177936">
        <ele>1886.24</ele>
        <time>2017-03-12T10:51:01Z</time>
      </trkpt>
      <trkpt lat="46.671402789652348" lon="12.433693958446383">
        <ele>1885.76</ele>
        <time>2017-03-12T10:51:25Z</time>
      </trkpt>
      <trkpt lat="46.671378817409277" lon="12.433664789423347">
        <ele>1886.72</ele>
        <time>2017-03-12T10:51:39Z</time>
      </trkpt>
      <trkpt lat="46.671381667256355" lon="12.433669231832027">
        <ele>1887.21</ele>
        <time>2017-03-12T10:52:01Z</time>
      </trkpt>
      <trkpt lat="46.671401532366872" lon="12.433675266802311">
        <ele>1886.72</ele>
        <time>2017-03-12T10:52:17Z</time>
      </trkpt>
      <trkpt lat="46.671390049159527" lon="12.433673422783613">
        <ele>1886.72</ele>
        <time>2017-03-12T10:52:37Z</time>
      </trkpt>
      <trkpt lat="46.671380577608943" lon="12.433679457753897">
        <ele>1886.72</ele>
        <time>2017-03-12T10:52:44Z</time>
      </trkpt>
      <trkpt lat="46.67137211188674" lon="12.433687504380941">
        <ele>1886.24</ele>
        <time>2017-03-12T10:52:56Z</time>
      </trkpt>
      <trkpt lat="46.671369597315788" lon="12.433677697554231">
        <ele>1886.72</ele>
        <time>2017-03-12T10:53:03Z</time>
      </trkpt>
      <trkpt lat="46.671371944248676" lon="12.433678116649389">
        <ele>1887.21</ele>
        <time>2017-03-12T10:53:12Z</time>
      </trkpt>
      <trkpt lat="46.671371022239327" lon="12.433706782758236">
        <ele>1887.21</ele>
        <time>2017-03-12T10:53:25Z</time>
      </trkpt>
      <trkpt lat="46.671373536810279" lon="12.433698819950223">
        <ele>1887.6900000000001</ele>
        <time>2017-03-12T10:53:37Z</time>
      </trkpt>
      <trkpt lat="46.67137554846704" lon="12.433688929304481">
        <ele>1887.6900000000001</ele>
        <time>2017-03-12T10:53:50Z</time>
      </trkpt>
      <trkpt lat="46.671376302838326" lon="12.433687252923846">
        <ele>1887.21</ele>
        <time>2017-03-12T10:54:05Z</time>
      </trkpt>
      <trkpt lat="46.671379487961531" lon="12.433688091114163">
        <ele>1887.21</ele>
        <time>2017-03-12T10:54:28Z</time>
      </trkpt>
      <trkpt lat="46.671382086351514" lon="12.433686666190624">
        <ele>1886.72</ele>
        <time>2017-03-12T10:54:58Z</time>
      </trkpt>
      <trkpt lat="46.671379068866372" lon="12.433685828000307">
        <ele>1885.76</ele>
        <time>2017-03-12T10:55:24Z</time>
      </trkpt>
      <trkpt lat="46.671388624235988" lon="12.433695886284113">
        <ele>1886.24</ele>
        <time>2017-03-12T10:55:49Z</time>
      </trkpt>
      <trkpt lat="46.671381667256355" lon="12.4336879234761">
        <ele>1886.24</ele>
        <time>2017-03-12T10:56:10Z</time>
      </trkpt>
      <trkpt lat="46.671382589265704" lon="12.433696640655398">
        <ele>1885.76</ele>
        <time>2017-03-12T10:56:28Z</time>
      </trkpt>
      <trkpt lat="46.671396754682064" lon="12.433718182146549">
        <ele>1885.76</ele>
        <time>2017-03-12T10:56:37Z</time>
      </trkpt>
      <trkpt lat="46.671392479911447" lon="12.433736035600305">
        <ele>1886.24</ele>
        <time>2017-03-12T10:56:54Z</time>
      </trkpt>
      <trkpt lat="46.671362975612283" lon="12.433755816891789">
        <ele>1885.76</ele>
        <time>2017-03-12T10:57:08Z</time>
      </trkpt>
      <trkpt lat="46.671368004754186" lon="12.433658922091126">
        <ele>1885.28</ele>
        <time>2017-03-12T10:57:19Z</time>
      </trkpt>
      <trkpt lat="46.671383008360863" lon="12.433701418340206">
        <ele>1885.76</ele>
        <time>2017-03-12T10:57:29Z</time>
      </trkpt>
      <trkpt lat="46.671368926763535" lon="12.433663532137871">
        <ele>1885.28</ele>
        <time>2017-03-12T10:57:39Z</time>
      </trkpt>
      <trkpt lat="46.671377141028643" lon="12.433681050315499">
        <ele>1885.28</ele>
        <time>2017-03-12T10:57:48Z</time>
      </trkpt>
      <trkpt lat="46.671378817409277" lon="12.433628411963582">
        <ele>1884.8</ele>
        <time>2017-03-12T10:58:02Z</time>
      </trkpt>
      <trkpt lat="46.671416703611612" lon="12.433498157188296">
        <ele>1884.8</ele>
        <time>2017-03-12T10:58:13Z</time>
      </trkpt>
      <trkpt lat="46.671440172940493" lon="12.433478543534875">
        <ele>1884.3199999999999</ele>
        <time>2017-03-12T10:58:16Z</time>
      </trkpt>
      <trkpt lat="46.671471940353513" lon="12.433499246835709">
        <ele>1884.8</ele>
        <time>2017-03-12T10:58:29Z</time>
      </trkpt>
      <trkpt lat="46.671435059979558" lon="12.433523219078779">
        <ele>1884.3199999999999</ele>
        <time>2017-03-12T10:58:38Z</time>
      </trkpt>
      <trkpt lat="46.671440172940493" lon="12.433522632345557">
        <ele>1884.3199999999999</ele>
        <time>2017-03-12T10:58:54Z</time>
      </trkpt>
      <trkpt lat="46.671426678076386" lon="12.433496648445725">
        <ele>1884.3199999999999</ele>
        <time>2017-03-12T10:59:11Z</time>
      </trkpt>
      <trkpt lat="46.671445369720459" lon="12.43347292765975">
        <ele>1884.3199999999999</ele>
        <time>2017-03-12T10:59:25Z</time>
      </trkpt>
      <trkpt lat="46.671440005302429" lon="12.433466641232371">
        <ele>1884.3199999999999</ele>
        <time>2017-03-12T10:59:40Z</time>
      </trkpt>
      <trkpt lat="46.67144738137722" lon="12.433453062549233">
        <ele>1883.8399999999999</ele>
        <time>2017-03-12T10:59:51Z</time>
      </trkpt>
      <trkpt lat="46.671440340578556" lon="12.43344216607511">
        <ele>1884.3199999999999</ele>
        <time>2017-03-12T11:00:02Z</time>
      </trkpt>
      <trkpt lat="46.671450231224298" lon="12.43344065733254">
        <ele>1884.3199999999999</ele>
        <time>2017-03-12T11:00:12Z</time>
      </trkpt>
      <trkpt lat="46.671440759673715" lon="12.43345582857728">
        <ele>1884.3199999999999</ele>
        <time>2017-03-12T11:00:22Z</time>
      </trkpt>
      <trkpt lat="46.671422319486737" lon="12.433445602655411">
        <ele>1884.8</ele>
        <time>2017-03-12T11:00:27Z</time>
      </trkpt>
      <trkpt lat="46.671375632286072" lon="12.433435628190637">
        <ele>1884.3199999999999</ele>
        <time>2017-03-12T11:00:37Z</time>
      </trkpt>
      <trkpt lat="46.671394407749176" lon="12.433392126113176">
        <ele>1883.3599999999999</ele>
        <time>2017-03-12T11:00:49Z</time>
      </trkpt>
      <trkpt lat="46.671390468254685" lon="12.433400005102158">
        <ele>1883.8399999999999</ele>
        <time>2017-03-12T11:01:03Z</time>
      </trkpt>
      <trkpt lat="46.671394743025303" lon="12.433379385620356">
        <ele>1883.3599999999999</ele>
        <time>2017-03-12T11:01:15Z</time>
      </trkpt>
      <trkpt lat="46.671405471861362" lon="12.433311073109508">
        <ele>1881.9200000000001</ele>
        <time>2017-03-12T11:01:20Z</time>
      </trkpt>
      <trkpt lat="46.671428354457021" lon="12.43316606618464">
        <ele>1880.48</ele>
        <time>2017-03-12T11:01:33Z</time>
      </trkpt>
      <trkpt lat="46.671436736360192" lon="12.43308300152421">
        <ele>1879.51</ele>
        <time>2017-03-12T11:01:43Z</time>
      </trkpt>
      <trkpt lat="46.671422990038991" lon="12.433034051209688">
        <ele>1878.55</ele>
        <time>2017-03-12T11:01:54Z</time>
      </trkpt>
      <trkpt lat="46.671424750238657" lon="12.432959200814366">
        <ele>1877.5899999999999</ele>
        <time>2017-03-12T11:01:59Z</time>
      </trkpt>
      <trkpt lat="46.671429025009274" lon="12.432793155312538">
        <ele>1875.6700000000001</ele>
        <time>2017-03-12T11:02:12Z</time>
      </trkpt>
      <trkpt lat="46.671442100778222" lon="12.432738589122891">
        <ele>1875.1900000000001</ele>
        <time>2017-03-12T11:02:18Z</time>
      </trkpt>
      <trkpt lat="46.671452326700091" lon="12.432679161429405">
        <ele>1873.75</ele>
        <time>2017-03-12T11:02:23Z</time>
      </trkpt>
      <trkpt lat="46.671468419954181" lon="12.432525521144271">
        <ele>1872.3</ele>
        <time>2017-03-12T11:02:36Z</time>
      </trkpt>
      <trkpt lat="46.671497086063027" lon="12.432415634393692">
        <ele>1870.8599999999999</ele>
        <time>2017-03-12T11:02:49Z</time>
      </trkpt>
      <trkpt lat="46.671506557613611" lon="12.432292588055134">
        <ele>1868.9400000000001</ele>
        <time>2017-03-12T11:03:00Z</time>
      </trkpt>
      <trkpt lat="46.671502031385899" lon="12.432252857834101">
        <ele>1868.46</ele>
        <time>2017-03-12T11:03:05Z</time>
      </trkpt>
      <trkpt lat="46.671470096334815" lon="12.432119334116578">
        <ele>1866.0599999999999</ele>
        <time>2017-03-12T11:03:17Z</time>
      </trkpt>
      <trkpt lat="46.671463306993246" lon="12.432100223377347">
        <ele>1864.6099999999999</ele>
        <time>2017-03-12T11:03:19Z</time>
      </trkpt>
      <trkpt lat="46.671451991423965" lon="12.431932166218758">
        <ele>1861.73</ele>
        <time>2017-03-12T11:03:30Z</time>
      </trkpt>
      <trkpt lat="46.671465653926134" lon="12.431827140972018">
        <ele>1861.25</ele>
        <time>2017-03-12T11:03:37Z</time>
      </trkpt>
      <trkpt lat="46.671538325026631" lon="12.431786907836795">
        <ele>1860.29</ele>
        <time>2017-03-12T11:03:46Z</time>
      </trkpt>
      <trkpt lat="46.671608397737145" lon="12.431775173172355">
        <ele>1858.3699999999999</ele>
        <time>2017-03-12T11:03:56Z</time>
      </trkpt>
      <trkpt lat="46.671669334173203" lon="12.431733598932624">
        <ele>1856.4400000000001</ele>
        <time>2017-03-12T11:04:05Z</time>
      </trkpt>
      <trkpt lat="46.671733791008592" lon="12.431691270321608">
        <ele>1854.52</ele>
        <time>2017-03-12T11:04:16Z</time>
      </trkpt>
      <trkpt lat="46.671823728829622" lon="12.431653467938304">
        <ele>1851.6400000000001</ele>
        <time>2017-03-12T11:04:26Z</time>
      </trkpt>
      <trkpt lat="46.671832865104079" lon="12.431639218702912">
        <ele>1851.6400000000001</ele>
        <time>2017-03-12T11:04:28Z</time>
      </trkpt>
      <trkpt lat="46.671927329152822" lon="12.431609546765685">
        <ele>1850.1900000000001</ele>
        <time>2017-03-12T11:04:39Z</time>
      </trkpt>
      <trkpt lat="46.672025481238961" lon="12.431587837636471">
        <ele>1851.1600000000001</ele>
        <time>2017-03-12T11:04:51Z</time>
      </trkpt>
      <trkpt lat="46.672059260308743" lon="12.431590436026454">
        <ele>1851.1600000000001</ele>
        <time>2017-03-12T11:04:57Z</time>
      </trkpt>
      <trkpt lat="46.672093290835619" lon="12.431566547602415">
        <ele>1851.1600000000001</ele>
        <time>2017-03-12T11:05:01Z</time>
      </trkpt>
      <trkpt lat="46.672105109319091" lon="12.431533606722951">
        <ele>1851.1600000000001</ele>
        <time>2017-03-12T11:05:11Z</time>
      </trkpt>
      <trkpt lat="46.672082897275686" lon="12.431497145444155">
        <ele>1851.1600000000001</ele>
        <time>2017-03-12T11:05:28Z</time>
      </trkpt>
      <trkpt lat="46.672060182318091" lon="12.431493876501918">
        <ele>1851.1600000000001</ele>
        <time>2017-03-12T11:05:38Z</time>
      </trkpt>
      <trkpt lat="46.67204107157886" lon="12.431459343060851">
        <ele>1850.6800000000001</ele>
        <time>2017-03-12T11:05:43Z</time>
      </trkpt>
      <trkpt lat="46.672025732696056" lon="12.43134006857872">
        <ele>1850.1900000000001</ele>
        <time>2017-03-12T11:05:53Z</time>
      </trkpt>
      <trkpt lat="46.672009136527777" lon="12.43129757232964">
        <ele>1850.1900000000001</ele>
        <time>2017-03-12T11:06:03Z</time>
      </trkpt>
      <trkpt lat="46.672004861757159" lon="12.431147452443838">
        <ele>1850.6800000000001</ele>
        <time>2017-03-12T11:06:15Z</time>
      </trkpt>
      <trkpt lat="46.672012656927109" lon="12.431069752201438">
        <ele>1849.71</ele>
        <time>2017-03-12T11:06:24Z</time>
      </trkpt>
      <trkpt lat="46.672018440440297" lon="12.430942431092262">
        <ele>1849.71</ele>
        <time>2017-03-12T11:06:35Z</time>
      </trkpt>
      <trkpt lat="46.672018524259329" lon="12.430873867124319">
        <ele>1848.75</ele>
        <time>2017-03-12T11:06:47Z</time>
      </trkpt>
      <trkpt lat="46.672012573108077" lon="12.43074981495738">
        <ele>1848.27</ele>
        <time>2017-03-12T11:06:57Z</time>
      </trkpt>
      <trkpt lat="46.67200880125165" lon="12.430593660101295">
        <ele>1848.27</ele>
        <time>2017-03-12T11:07:08Z</time>
      </trkpt>
      <trkpt lat="46.672013076022267" lon="12.43048301897943">
        <ele>1848.75</ele>
        <time>2017-03-12T11:07:18Z</time>
      </trkpt>
      <trkpt lat="46.671971334144473" lon="12.430451335385442">
        <ele>1848.75</ele>
        <time>2017-03-12T11:07:28Z</time>
      </trkpt>
      <trkpt lat="46.671956581994891" lon="12.430434823036194">
        <ele>1849.23</ele>
        <time>2017-03-12T11:07:34Z</time>
      </trkpt>
      <trkpt lat="46.671927077695727" lon="12.430346477776766">
        <ele>1848.75</ele>
        <time>2017-03-12T11:07:42Z</time>
      </trkpt>
      <trkpt lat="46.671878378838301" lon="12.430139863863587">
        <ele>1848.27</ele>
        <time>2017-03-12T11:07:56Z</time>
      </trkpt>
      <trkpt lat="46.67186220176518" lon="12.430046908557415">
        <ele>1847.79</ele>
        <time>2017-03-12T11:08:02Z</time>
      </trkpt>
      <trkpt lat="46.671785172075033" lon="12.429867619648576">
        <ele>1847.3099999999999</ele>
        <time>2017-03-12T11:08:15Z</time>
      </trkpt>
      <trkpt lat="46.671699341386557" lon="12.429716326296329">
        <ele>1846.3499999999999</ele>
        <time>2017-03-12T11:08:27Z</time>
      </trkpt>
      <trkpt lat="46.671609487384558" lon="12.429537791758776">
        <ele>1845.3900000000001</ele>
        <time>2017-03-12T11:08:40Z</time>
      </trkpt>
      <trkpt lat="46.671523824334145" lon="12.429449111223221">
        <ele>1845.3900000000001</ele>
        <time>2017-03-12T11:08:50Z</time>
      </trkpt>
      <trkpt lat="46.671411339193583" lon="12.429370321333408">
        <ele>1843.95</ele>
        <time>2017-03-12T11:09:02Z</time>
      </trkpt>
      <trkpt lat="46.671239174902439" lon="12.429293543100357">
        <ele>1842.5</ele>
        <time>2017-03-12T11:09:17Z</time>
      </trkpt>
      <trkpt lat="46.671099700033665" lon="12.429157253354788">
        <ele>1841.54</ele>
        <time>2017-03-12T11:09:31Z</time>
      </trkpt>
      <trkpt lat="46.671042116358876" lon="12.429097825661302">
        <ele>1841.54</ele>
        <time>2017-03-12T11:09:37Z</time>
      </trkpt>
      <trkpt lat="46.670971540734172" lon="12.428881404921412">
        <ele>1841.0599999999999</ele>
        <time>2017-03-12T11:09:51Z</time>
      </trkpt>
      <trkpt lat="46.670933151617646" lon="12.428615111857653">
        <ele>1841.0599999999999</ele>
        <time>2017-03-12T11:10:07Z</time>
      </trkpt>
      <trkpt lat="46.670922171324492" lon="12.42837555706501">
        <ele>1840.0999999999999</ele>
        <time>2017-03-12T11:10:21Z</time>
      </trkpt>
      <trkpt lat="46.670904820784926" lon="12.42816248908639">
        <ele>1840.0999999999999</ele>
        <time>2017-03-12T11:10:34Z</time>
      </trkpt>
      <trkpt lat="46.67090155184269" lon="12.42793969810009">
        <ele>1840.0999999999999</ele>
        <time>2017-03-12T11:10:47Z</time>
      </trkpt>
      <trkpt lat="46.670923344790936" lon="12.427760073915124">
        <ele>1840.5799999999999</ele>
        <time>2017-03-12T11:10:58Z</time>
      </trkpt>
      <trkpt lat="46.670940695330501" lon="12.427703663706779">
        <ele>1840.5799999999999</ele>
        <time>2017-03-12T11:11:02Z</time>
      </trkpt>
      <trkpt lat="46.67104622349143" lon="12.427492272108793">
        <ele>1840.0999999999999</ele>
        <time>2017-03-12T11:11:17Z</time>
      </trkpt>
      <trkpt lat="46.671145046129823" lon="12.427384983748198">
        <ele>1839.1400000000001</ele>
        <time>2017-03-12T11:11:28Z</time>
      </trkpt>
      <trkpt lat="46.67121822014451" lon="12.427310552448034">
        <ele>1838.6600000000001</ele>
        <time>2017-03-12T11:11:36Z</time>
      </trkpt>
      <trkpt lat="46.671291813254356" lon="12.427209466695786">
        <ele>1840.0999999999999</ele>
        <time>2017-03-12T11:11:45Z</time>
      </trkpt>
      <trkpt lat="46.671362305060029" lon="12.427021712064743">
        <ele>1838.1800000000001</ele>
        <time>2017-03-12T11:11:58Z</time>
      </trkpt>
      <trkpt lat="46.671410165727139" lon="12.426818953827024">
        <ele>1837.7</ele>
        <time>2017-03-12T11:12:11Z</time>
      </trkpt>
      <trkpt lat="46.671414356678724" lon="12.426801770925522">
        <ele>1837.22</ele>
        <time>2017-03-12T11:12:12Z</time>
      </trkpt>
      <trkpt lat="46.671443274244666" lon="12.426596414297819">
        <ele>1835.77</ele>
        <time>2017-03-12T11:12:26Z</time>
      </trkpt>
      <trkpt lat="46.671477640047669" lon="12.426427351310849">
        <ele>1834.3299999999999</ele>
        <time>2017-03-12T11:12:38Z</time>
      </trkpt>
      <trkpt lat="46.67148107662797" lon="12.42641662247479">
        <ele>1833.8499999999999</ele>
        <time>2017-03-12T11:12:39Z</time>
      </trkpt>
      <trkpt lat="46.671538073569536" lon="12.426264155656099">
        <ele>1831.45</ele>
        <time>2017-03-12T11:12:52Z</time>
      </trkpt>
      <trkpt lat="46.671585263684392" lon="12.426123842597008">
        <ele>1829.53</ele>
        <time>2017-03-12T11:13:05Z</time>
      </trkpt>
      <trkpt lat="46.671617534011602" lon="12.42601303383708">
        <ele>1829.05</ele>
        <time>2017-03-12T11:13:15Z</time>
      </trkpt>
      <trkpt lat="46.67166288010776" lon="12.425909265875816">
        <ele>1828.5599999999999</ele>
        <time>2017-03-12T11:13:24Z</time>
      </trkpt>
      <trkpt lat="46.671711159870028" lon="12.425753194838762">
        <ele>1828.0799999999999</ele>
        <time>2017-03-12T11:13:37Z</time>
      </trkpt>
      <trkpt lat="46.671766480430961" lon="12.425595615059137">
        <ele>1828.0799999999999</ele>
        <time>2017-03-12T11:13:48Z</time>
      </trkpt>
      <trkpt lat="46.671863542869687" lon="12.4254369456321">
        <ele>1827.5999999999999</ele>
        <time>2017-03-12T11:14:01Z</time>
      </trkpt>
      <trkpt lat="46.671899249777198" lon="12.425370225682855">
        <ele>1827.5999999999999</ele>
        <time>2017-03-12T11:14:07Z</time>
      </trkpt>
      <trkpt lat="46.671960270032287" lon="12.425300823524594">
        <ele>1827.5999999999999</ele>
        <time>2017-03-12T11:14:14Z</time>
      </trkpt>
      <trkpt lat="46.672036964446306" lon="12.425161516293883">
        <ele>1828.0799999999999</ele>
        <time>2017-03-12T11:14:26Z</time>
      </trkpt>
      <trkpt lat="46.672094045206904" lon="12.424995386973023">
        <ele>1828.0799999999999</ele>
        <time>2017-03-12T11:14:39Z</time>
      </trkpt>
      <trkpt lat="46.672132685780525" lon="12.424893295392394">
        <ele>1828.0799999999999</ele>
        <time>2017-03-12T11:14:47Z</time>
      </trkpt>
      <trkpt lat="46.672176858410239" lon="12.424697829410434">
        <ele>1828.5599999999999</ele>
        <time>2017-03-12T11:14:59Z</time>
      </trkpt>
      <trkpt lat="46.672211978584528" lon="12.424556845799088">
        <ele>1829.05</ele>
        <time>2017-03-12T11:15:10Z</time>
      </trkpt>
      <trkpt lat="46.672225138172507" lon="12.424524826928973">
        <ele>1828.5599999999999</ele>
        <time>2017-03-12T11:15:12Z</time>
      </trkpt>
      <trkpt lat="46.67227266356349" lon="12.424350064247847">
        <ele>1826.6400000000001</ele>
        <time>2017-03-12T11:15:24Z</time>
      </trkpt>
      <trkpt lat="46.672322200611234" lon="12.42418703623116">
        <ele>1825.2</ele>
        <time>2017-03-12T11:15:36Z</time>
      </trkpt>
      <trkpt lat="46.672337204217911" lon="12.424038844183087">
        <ele>1823.76</ele>
        <time>2017-03-12T11:15:46Z</time>
      </trkpt>
      <trkpt lat="46.672358913347125" lon="12.423880761489272">
        <ele>1822.3199999999999</ele>
        <time>2017-03-12T11:15:56Z</time>
      </trkpt>
      <trkpt lat="46.672365367412567" lon="12.423831056803465">
        <ele>1821.8399999999999</ele>
        <time>2017-03-12T11:15:59Z</time>
      </trkpt>
      <trkpt lat="46.672391016036272" lon="12.423584293574095">
        <ele>1818.95</ele>
        <time>2017-03-12T11:16:13Z</time>
      </trkpt>
      <trkpt lat="46.672443822026253" lon="12.423394275829196">
        <ele>1817.99</ele>
        <time>2017-03-12T11:16:26Z</time>
      </trkpt>
      <trkpt lat="46.672480870038271" lon="12.423258991912007">
        <ele>1816.0699999999999</ele>
        <time>2017-03-12T11:16:35Z</time>
      </trkpt>
      <trkpt lat="46.672499226406217" lon="12.423066040500998">
        <ele>1815.1099999999999</ele>
        <time>2017-03-12T11:16:47Z</time>
      </trkpt>
      <trkpt lat="46.672520097345114" lon="12.422876777127385">
        <ele>1814.1500000000001</ele>
        <time>2017-03-12T11:16:58Z</time>
      </trkpt>
      <trkpt lat="46.672546584159136" lon="12.422689944505692">
        <ele>1813.1800000000001</ele>
        <time>2017-03-12T11:17:09Z</time>
      </trkpt>
      <trkpt lat="46.672592433169484" lon="12.422473439946771">
        <ele>1811.74</ele>
        <time>2017-03-12T11:17:22Z</time>
      </trkpt>
      <trkpt lat="46.672676419839263" lon="12.422245955094695">
        <ele>1808.3800000000001</ele>
        <time>2017-03-12T11:17:38Z</time>
      </trkpt>
      <trkpt lat="46.672735512256622" lon="12.422134224325418">
        <ele>1806.45</ele>
        <time>2017-03-12T11:17:46Z</time>
      </trkpt>
      <trkpt lat="46.672831317409873" lon="12.421980164945126">
        <ele>1805.01</ele>
        <time>2017-03-12T11:17:59Z</time>
      </trkpt>
      <trkpt lat="46.672854283824563" lon="12.42195107974112">
        <ele>1805.01</ele>
        <time>2017-03-12T11:18:10Z</time>
      </trkpt>
      <trkpt lat="46.672859899699688" lon="12.421907912939787">
        <ele>1804.53</ele>
        <time>2017-03-12T11:18:20Z</time>
      </trkpt>
      <trkpt lat="46.672946400940418" lon="12.421663915738463">
        <ele>1804.05</ele>
        <time>2017-03-12T11:18:36Z</time>
      </trkpt>
      <trkpt lat="46.673006750643253" lon="12.421451099216938">
        <ele>1802.6099999999999</ele>
        <time>2017-03-12T11:18:49Z</time>
      </trkpt>
      <trkpt lat="46.673027873039246" lon="12.421224284917116">
        <ele>1801.6500000000001</ele>
        <time>2017-03-12T11:19:03Z</time>
      </trkpt>
      <trkpt lat="46.673048073425889" lon="12.421030746772885">
        <ele>1800.6900000000001</ele>
        <time>2017-03-12T11:19:16Z</time>
      </trkpt>
      <trkpt lat="46.673060981556773" lon="12.420878447592258">
        <ele>1800.6900000000001</ele>
        <time>2017-03-12T11:19:27Z</time>
      </trkpt>
      <trkpt lat="46.673057125881314" lon="12.420808542519808">
        <ele>1800.6900000000001</ele>
        <time>2017-03-12T11:19:33Z</time>
      </trkpt>
      <trkpt lat="46.673075314611197" lon="12.420637048780918">
        <ele>1800.6900000000001</ele>
        <time>2017-03-12T11:19:44Z</time>
      </trkpt>
      <trkpt lat="46.673090821132064" lon="12.420436553657055">
        <ele>1799.73</ele>
        <time>2017-03-12T11:19:57Z</time>
      </trkpt>
      <trkpt lat="46.673129964619875" lon="12.420300263911486">
        <ele>1798.76</ele>
        <time>2017-03-12T11:20:07Z</time>
      </trkpt>
      <trkpt lat="46.673136251047254" lon="12.420260868966579">
        <ele>1797.3199999999999</ele>
        <time>2017-03-12T11:20:10Z</time>
      </trkpt>
      <trkpt lat="46.67312091216445" lon="12.420246787369251">
        <ele>1798.28</ele>
        <time>2017-03-12T11:20:19Z</time>
      </trkpt>
      <trkpt lat="46.673128455877304" lon="12.420222563669086">
        <ele>1797.8</ele>
        <time>2017-03-12T11:20:24Z</time>
      </trkpt>
      <trkpt lat="46.673101969063282" lon="12.420126004144549">
        <ele>1796.8399999999999</ele>
        <time>2017-03-12T11:20:35Z</time>
      </trkpt>
      <trkpt lat="46.673095095902681" lon="12.42012650705874">
        <ele>1797.3199999999999</ele>
        <time>2017-03-12T11:20:38Z</time>
      </trkpt>
      <trkpt lat="46.672962745651603" lon="12.420084848999977">
        <ele>1797.3199999999999</ele>
        <time>2017-03-12T11:20:51Z</time>
      </trkpt>
      <trkpt lat="46.6728575527668" lon="12.420068504288793">
        <ele>1796.8399999999999</ele>
        <time>2017-03-12T11:21:00Z</time>
      </trkpt>
      <trkpt lat="46.672812206670642" lon="12.420067833736539">
        <ele>1796.3599999999999</ele>
        <time>2017-03-12T11:21:04Z</time>
      </trkpt>
      <trkpt lat="46.672680526971817" lon="12.420020559802651">
        <ele>1795.4000000000001</ele>
        <time>2017-03-12T11:21:16Z</time>
      </trkpt>
      <trkpt lat="46.672621266916394" lon="12.419978985562921">
        <ele>1794.9200000000001</ele>
        <time>2017-03-12T11:21:26Z</time>
      </trkpt>
      <trkpt lat="46.67264599353075" lon="12.419885946437716">
        <ele>1794.9200000000001</ele>
        <time>2017-03-12T11:21:38Z</time>
      </trkpt>
      <trkpt lat="46.672641718760133" lon="12.419883934780955">
        <ele>1794.9200000000001</ele>
        <time>2017-03-12T11:21:48Z</time>
      </trkpt>
      <trkpt lat="46.672676419839263" lon="12.419807827100158">
        <ele>1794.4400000000001</ele>
        <time>2017-03-12T11:21:57Z</time>
      </trkpt>
      <trkpt lat="46.67265672236681" lon="12.419839929789305">
        <ele>1794.4400000000001</ele>
        <time>2017-03-12T11:22:04Z</time>
      </trkpt>
      <trkpt lat="46.672616824507713" lon="12.419898938387632">
        <ele>1793.96</ele>
        <time>2017-03-12T11:22:15Z</time>
      </trkpt>
      <trkpt lat="46.67261078953743" lon="12.419906901195645">
        <ele>1794.4400000000001</ele>
        <time>2017-03-12T11:22:32Z</time>
      </trkpt>
      <trkpt lat="46.672596205025911" lon="12.4199144449085">
        <ele>1793.96</ele>
        <time>2017-03-12T11:22:48Z</time>
      </trkpt>
      <trkpt lat="46.672622188925743" lon="12.41985434666276">
        <ele>1794.9200000000001</ele>
        <time>2017-03-12T11:22:57Z</time>
      </trkpt>
      <trkpt lat="46.672672145068645" lon="12.41980841383338">
        <ele>1794.9200000000001</ele>
        <time>2017-03-12T11:23:06Z</time>
      </trkpt>
      <trkpt lat="46.67280382476747" lon="12.419690564274788">
        <ele>1793</ele>
        <time>2017-03-12T11:23:19Z</time>
      </trkpt>
      <trkpt lat="46.672833748161793" lon="12.419686373323202">
        <ele>1793</ele>
        <time>2017-03-12T11:23:22Z</time>
      </trkpt>
      <trkpt lat="46.672946149483323" lon="12.419596435502172">
        <ele>1793.96</ele>
        <time>2017-03-12T11:23:34Z</time>
      </trkpt>
      <trkpt lat="46.673056958243251" lon="12.419523177668452">
        <ele>1792.52</ele>
        <time>2017-03-12T11:23:43Z</time>
      </trkpt>
      <trkpt lat="46.673092413693666" lon="12.419499875977635">
        <ele>1792.03</ele>
        <time>2017-03-12T11:23:46Z</time>
      </trkpt>
      <trkpt lat="46.673151673749089" lon="12.41946148686111">
        <ele>1793.48</ele>
        <time>2017-03-12T11:23:51Z</time>
      </trkpt>
      <trkpt lat="46.673251921311021" lon="12.419355539605021">
        <ele>1792.03</ele>
        <time>2017-03-12T11:24:02Z</time>
      </trkpt>
      <trkpt lat="46.673337249085307" lon="12.419239450246096">
        <ele>1792.03</ele>
        <time>2017-03-12T11:24:13Z</time>
      </trkpt>
      <trkpt lat="46.673432970419526" lon="12.419098801910877">
        <ele>1792.03</ele>
        <time>2017-03-12T11:24:26Z</time>
      </trkpt>
      <trkpt lat="46.67348351329565" lon="12.419007774442434">
        <ele>1791.55</ele>
        <time>2017-03-12T11:24:33Z</time>
      </trkpt>
      <trkpt lat="46.673541599884629" lon="12.418886907398701">
        <ele>1792.03</ele>
        <time>2017-03-12T11:24:42Z</time>
      </trkpt>
      <trkpt lat="46.673593400046229" lon="12.418787581846118">
        <ele>1791.55</ele>
        <time>2017-03-12T11:24:49Z</time>
      </trkpt>
      <trkpt lat="46.67368677444756" lon="12.418589182198048">
        <ele>1791.0699999999999</ele>
        <time>2017-03-12T11:25:03Z</time>
      </trkpt>
      <trkpt lat="46.673766067251563" lon="12.418427998200059">
        <ele>1791.0699999999999</ele>
        <time>2017-03-12T11:25:14Z</time>
      </trkpt>
      <trkpt lat="46.673866650089622" lon="12.418253570795059">
        <ele>1790.5899999999999</ele>
        <time>2017-03-12T11:25:27Z</time>
      </trkpt>
      <trkpt lat="46.673963963985443" lon="12.418095991015434">
        <ele>1790.1099999999999</ele>
        <time>2017-03-12T11:25:39Z</time>
      </trkpt>
      <trkpt lat="46.674051638692617" lon="12.417978309094906">
        <ele>1790.1099999999999</ele>
        <time>2017-03-12T11:25:49Z</time>
      </trkpt>
      <trkpt lat="46.674101175740361" lon="12.417871356010437">
        <ele>1790.5899999999999</ele>
        <time>2017-03-12T11:26:02Z</time>
      </trkpt>
      <trkpt lat="46.674134619534016" lon="12.417798768728971">
        <ele>1790.1099999999999</ele>
        <time>2017-03-12T11:26:07Z</time>
      </trkpt>
      <trkpt lat="46.67420569807291" lon="12.417585030198097">
        <ele>1791.0699999999999</ele>
        <time>2017-03-12T11:26:22Z</time>
      </trkpt>
      <trkpt lat="46.674222545698285" lon="12.417494421824813">
        <ele>1792.03</ele>
        <time>2017-03-12T11:26:28Z</time>
      </trkpt>
      <trkpt lat="46.674290942028165" lon="12.417322257533669">
        <ele>1792.03</ele>
        <time>2017-03-12T11:26:41Z</time>
      </trkpt>
      <trkpt lat="46.674392865970731" lon="12.417204827070236">
        <ele>1791.55</ele>
        <time>2017-03-12T11:26:52Z</time>
      </trkpt>
      <trkpt lat="46.674518343061209" lon="12.417091084644198">
        <ele>1791.0699999999999</ele>
        <time>2017-03-12T11:27:04Z</time>
      </trkpt>
      <trkpt lat="46.674640215933323" lon="12.416968373581767">
        <ele>1790.5899999999999</ele>
        <time>2017-03-12T11:27:16Z</time>
      </trkpt>
      <trkpt lat="46.674698553979397" lon="12.416888745501637">
        <ele>1790.5899999999999</ele>
        <time>2017-03-12T11:27:24Z</time>
      </trkpt>
      <trkpt lat="46.674755802378058" lon="12.416819091886282">
        <ele>1791.0699999999999</ele>
        <time>2017-03-12T11:27:32Z</time>
      </trkpt>
      <trkpt lat="46.67477055452764" lon="12.416781038045883">
        <ele>1791.0699999999999</ele>
        <time>2017-03-12T11:27:35Z</time>
      </trkpt>
      <trkpt lat="46.674808273091912" lon="12.416752791032195">
        <ele>1791.55</ele>
        <time>2017-03-12T11:27:45Z</time>
      </trkpt>
      <trkpt lat="46.674835262820125" lon="12.416739547625184">
        <ele>1791.55</ele>
        <time>2017-03-12T11:27:54Z</time>
      </trkpt>
      <trkpt lat="46.674818582832813" lon="12.416737619787455">
        <ele>1790.5899999999999</ele>
        <time>2017-03-12T11:28:03Z</time>
      </trkpt>
      <trkpt lat="46.674807853996754" lon="12.416722532361746">
        <ele>1790.5899999999999</ele>
        <time>2017-03-12T11:28:27Z</time>
      </trkpt>
      <trkpt lat="46.674807099625468" lon="12.416738206520677">
        <ele>1791.55</ele>
        <time>2017-03-12T11:28:50Z</time>
      </trkpt>
      <trkpt lat="46.674824869260192" lon="12.416725633665919">
        <ele>1791.55</ele>
        <time>2017-03-12T11:28:58Z</time>
      </trkpt>
      <trkpt lat="46.674828305840492" lon="12.416735356673598">
        <ele>1792.03</ele>
        <time>2017-03-12T11:29:11Z</time>
      </trkpt>
      <trkpt lat="46.674815062433481" lon="12.416731081902981">
        <ele>1790.5899999999999</ele>
        <time>2017-03-12T11:29:20Z</time>
      </trkpt>
      <trkpt lat="46.674811122938991" lon="12.416730578988791">
        <ele>1793.96</ele>
        <time>2017-03-12T11:29:21Z</time>
      </trkpt>
      <trkpt lat="46.674810033291578" lon="12.416734183207154">
        <ele>1793.96</ele>
        <time>2017-03-12T11:29:22Z</time>
      </trkpt>
      <trkpt lat="46.674809949472547" lon="12.41673493757844">
        <ele>1792.03</ele>
        <time>2017-03-12T11:29:23Z</time>
      </trkpt>
      <trkpt lat="46.674829144030809" lon="12.416709372773767">
        <ele>1792.03</ele>
        <time>2017-03-12T11:29:32Z</time>
      </trkpt>
      <trkpt lat="46.674817325547338" lon="12.416719263419509">
        <ele>1791.55</ele>
        <time>2017-03-12T11:29:46Z</time>
      </trkpt>
      <trkpt lat="46.674820510670543" lon="12.416691016405821">
        <ele>1792.03</ele>
        <time>2017-03-12T11:30:00Z</time>
      </trkpt>
      <trkpt lat="46.674819001927972" lon="12.416701996698976">
        <ele>1790.5899999999999</ele>
        <time>2017-03-12T11:30:18Z</time>
      </trkpt>
      <trkpt lat="46.674822438508272" lon="12.416737033054233">
        <ele>1792.03</ele>
        <time>2017-03-12T11:30:31Z</time>
      </trkpt>
      <trkpt lat="46.674832915887237" lon="12.416732842102647">
        <ele>1792.03</ele>
        <time>2017-03-12T11:30:40Z</time>
      </trkpt>
      <trkpt lat="46.674828054383397" lon="12.416744995862246">
        <ele>1793</ele>
        <time>2017-03-12T11:31:01Z</time>
      </trkpt>
      <trkpt lat="46.674841633066535" lon="12.416706690564752">
        <ele>1792.52</ele>
        <time>2017-03-12T11:31:07Z</time>
      </trkpt>
      <trkpt lat="46.674898043274879" lon="12.416567215695977">
        <ele>1793</ele>
        <time>2017-03-12T11:31:19Z</time>
      </trkpt>
      <trkpt lat="46.674971720203757" lon="12.416471661999822">
        <ele>1792.52</ele>
        <time>2017-03-12T11:31:28Z</time>
      </trkpt>
      <trkpt lat="46.675021257251501" lon="12.416412066668272">
        <ele>1792.52</ele>
        <time>2017-03-12T11:31:33Z</time>
      </trkpt>
      <trkpt lat="46.675118152052164" lon="12.416334450244904">
        <ele>1792.03</ele>
        <time>2017-03-12T11:31:43Z</time>
      </trkpt>
      <trkpt lat="46.67522594332695" lon="12.416219366714358">
        <ele>1792.52</ele>
        <time>2017-03-12T11:31:56Z</time>
      </trkpt>
      <trkpt lat="46.675265589728951" lon="12.416150886565447">
        <ele>1793</ele>
        <time>2017-03-12T11:32:06Z</time>
      </trkpt>
      <trkpt lat="46.675302721560001" lon="12.416072264313698">
        <ele>1793</ele>
        <time>2017-03-12T11:32:22Z</time>
      </trkpt>
      <trkpt lat="46.675365166738629" lon="12.415935136377811">
        <ele>1792.52</ele>
        <time>2017-03-12T11:32:33Z</time>
      </trkpt>
      <trkpt lat="46.675379751250148" lon="12.415896998718381">
        <ele>1793</ele>
        <time>2017-03-12T11:32:36Z</time>
      </trkpt>
      <trkpt lat="46.675410596653819" lon="12.415848886594176">
        <ele>1793</ele>
        <time>2017-03-12T11:32:40Z</time>
      </trkpt>
      <trkpt lat="46.675487291067839" lon="12.415687115862966">
        <ele>1793</ele>
        <time>2017-03-12T11:32:51Z</time>
      </trkpt>
      <trkpt lat="46.675594076514244" lon="12.415480501949787">
        <ele>1792.03</ele>
        <time>2017-03-12T11:33:05Z</time>
      </trkpt>
      <trkpt lat="46.675655515864491" lon="12.415371369570494">
        <ele>1791.55</ele>
        <time>2017-03-12T11:33:13Z</time>
      </trkpt>
      <trkpt lat="46.675668591633439" lon="12.41535016335547">
        <ele>1792.03</ele>
        <time>2017-03-12T11:33:15Z</time>
      </trkpt>
      <trkpt lat="46.675716200843453" lon="12.415254358202219">
        <ele>1792.03</ele>
        <time>2017-03-12T11:33:21Z</time>
      </trkpt>
      <trkpt lat="46.675729108974338" lon="12.415229380130768">
        <ele>1792.03</ele>
        <time>2017-03-12T11:33:23Z</time>
      </trkpt>
      <trkpt lat="46.675803204998374" lon="12.415052941069007">
        <ele>1792.03</ele>
        <time>2017-03-12T11:33:35Z</time>
      </trkpt>
      <trkpt lat="46.675823656842113" lon="12.415020167827606">
        <ele>1792.52</ele>
        <time>2017-03-12T11:33:38Z</time>
      </trkpt>
      <trkpt lat="46.675849137827754" lon="12.414919082075357">
        <ele>1792.52</ele>
        <time>2017-03-12T11:33:44Z</time>
      </trkpt>
      <trkpt lat="46.67590219527483" lon="12.414763262495399">
        <ele>1793.48</ele>
        <time>2017-03-12T11:33:55Z</time>
      </trkpt>
      <trkpt lat="46.675957096740603" lon="12.414662931114435">
        <ele>1793</ele>
        <time>2017-03-12T11:34:03Z</time>
      </trkpt>
      <trkpt lat="46.675963550806046" lon="12.414633678272367">
        <ele>1793.96</ele>
        <time>2017-03-12T11:34:05Z</time>
      </trkpt>
      <trkpt lat="46.676014177501202" lon="12.414505435153842">
        <ele>1793.96</ele>
        <time>2017-03-12T11:34:15Z</time>
      </trkpt>
      <trkpt lat="46.676020380109549" lon="12.414476936683059">
        <ele>1793.96</ele>
        <time>2017-03-12T11:34:17Z</time>
      </trkpt>
      <trkpt lat="46.676085256040096" lon="12.414322458207607">
        <ele>1793.96</ele>
        <time>2017-03-12T11:34:29Z</time>
      </trkpt>
      <trkpt lat="46.676149880513549" lon="12.414153730496764">
        <ele>1794.4400000000001</ele>
        <time>2017-03-12T11:34:40Z</time>
      </trkpt>
      <trkpt lat="46.676217522472143" lon="12.414021380245686">
        <ele>1794.4400000000001</ele>
        <time>2017-03-12T11:34:50Z</time>
      </trkpt>
      <trkpt lat="46.67634735815227" lon="12.413854245096445">
        <ele>1793</ele>
        <time>2017-03-12T11:35:04Z</time>
      </trkpt>
      <trkpt lat="46.676418436691165" lon="12.413674788549542">
        <ele>1792.52</ele>
        <time>2017-03-12T11:35:16Z</time>
      </trkpt>
      <trkpt lat="46.676419358700514" lon="12.413605134934187">
        <ele>1793</ele>
        <time>2017-03-12T11:35:21Z</time>
      </trkpt>
      <trkpt lat="46.676415503025055" lon="12.413545288145542">
        <ele>1793</ele>
        <time>2017-03-12T11:35:25Z</time>
      </trkpt>
      <trkpt lat="46.676414161920547" lon="12.41347823292017">
        <ele>1792.52</ele>
        <time>2017-03-12T11:35:30Z</time>
      </trkpt>
      <trkpt lat="46.676423382014036" lon="12.413383685052395">
        <ele>1792.52</ele>
        <time>2017-03-12T11:35:35Z</time>
      </trkpt>
      <trkpt lat="46.676439559087157" lon="12.413259632885456">
        <ele>1792.52</ele>
        <time>2017-03-12T11:35:42Z</time>
      </trkpt>
      <trkpt lat="46.676469901576638" lon="12.413142789155245">
        <ele>1792.52</ele>
        <time>2017-03-12T11:35:49Z</time>
      </trkpt>
      <trkpt lat="46.676495717838407" lon="12.412931900471449">
        <ele>1792.03</ele>
        <time>2017-03-12T11:36:01Z</time>
      </trkpt>
      <trkpt lat="46.676507536321878" lon="12.412818912416697">
        <ele>1791.0699999999999</ele>
        <time>2017-03-12T11:36:08Z</time>
      </trkpt>
      <trkpt lat="46.676507201045752" lon="12.412771470844746">
        <ele>1789.6300000000001</ele>
        <time>2017-03-12T11:36:11Z</time>
      </trkpt>
      <trkpt lat="46.676524803042412" lon="12.412622356787324">
        <ele>1789.6300000000001</ele>
        <time>2017-03-12T11:36:20Z</time>
      </trkpt>
      <trkpt lat="46.676586577668786" lon="12.412326810881495">
        <ele>1787.23</ele>
        <time>2017-03-12T11:36:36Z</time>
      </trkpt>
      <trkpt lat="46.676675761118531" lon="12.412067307159305">
        <ele>1785.3099999999999</ele>
        <time>2017-03-12T11:36:51Z</time>
      </trkpt>
      <trkpt lat="46.676748180761933" lon="12.411836804822087">
        <ele>1783.3800000000001</ele>
        <time>2017-03-12T11:37:04Z</time>
      </trkpt>
      <trkpt lat="46.676766201853752" lon="12.411778131499887">
        <ele>1783.8599999999999</ele>
        <time>2017-03-12T11:37:08Z</time>
      </trkpt>
      <trkpt lat="46.676805429160595" lon="12.411576546728611">
        <ele>1783.8599999999999</ele>
        <time>2017-03-12T11:37:20Z</time>
      </trkpt>
      <trkpt lat="46.67684624902904" lon="12.411349564790726">
        <ele>1782.4200000000001</ele>
        <time>2017-03-12T11:37:33Z</time>
      </trkpt>
      <trkpt lat="46.676877345889807" lon="12.411103053018451">
        <ele>1782.4200000000001</ele>
        <time>2017-03-12T11:37:47Z</time>
      </trkpt>
      <trkpt lat="46.676892349496484" lon="12.410850254818797">
        <ele>1781.9400000000001</ele>
        <time>2017-03-12T11:38:00Z</time>
      </trkpt>
      <trkpt lat="46.67690634727478" lon="12.410809770226479">
        <ele>1781.46</ele>
        <time>2017-03-12T11:38:03Z</time>
      </trkpt>
      <trkpt lat="46.676926547661424" lon="12.410725867375731">
        <ele>1780.98</ele>
        <time>2017-03-12T11:38:08Z</time>
      </trkpt>
      <trkpt lat="46.676964266225696" lon="12.410522941499949">
        <ele>1780.98</ele>
        <time>2017-03-12T11:38:20Z</time>
      </trkpt>
      <trkpt lat="46.677006678655744" lon="12.41033585742116">
        <ele>1780.98</ele>
        <time>2017-03-12T11:38:31Z</time>
      </trkpt>
      <trkpt lat="46.677042050287127" lon="12.410150617361069">
        <ele>1781.46</ele>
        <time>2017-03-12T11:38:42Z</time>
      </trkpt>
      <trkpt lat="46.677089324221015" lon="12.40992983803153">
        <ele>1780.5</ele>
        <time>2017-03-12T11:38:55Z</time>
      </trkpt>
      <trkpt lat="46.677111284807324" lon="12.409795559942722">
        <ele>1780.02</ele>
        <time>2017-03-12T11:39:03Z</time>
      </trkpt>
      <trkpt lat="46.677137101069093" lon="12.409703442826867">
        <ele>1780.02</ele>
        <time>2017-03-12T11:39:08Z</time>
      </trkpt>
      <trkpt lat="46.677145482972264" lon="12.409674189984798">
        <ele>1780.02</ele>
        <time>2017-03-12T11:39:10Z</time>
      </trkpt>
      <trkpt lat="46.677199210971594" lon="12.409439412876964">
        <ele>1779.54</ele>
        <time>2017-03-12T11:39:23Z</time>
      </trkpt>
      <trkpt lat="46.677259644493461" lon="12.409268589690328">
        <ele>1778.5799999999999</ele>
        <time>2017-03-12T11:39:33Z</time>
      </trkpt>
      <trkpt lat="46.677321000024676" lon="12.409122828394175">
        <ele>1778.5799999999999</ele>
        <time>2017-03-12T11:39:42Z</time>
      </trkpt>
      <trkpt lat="46.677365256473422" lon="12.408895511180162">
        <ele>1778.0999999999999</ele>
        <time>2017-03-12T11:39:56Z</time>
      </trkpt>
      <trkpt lat="46.677356204017997" lon="12.408757712692022">
        <ele>1778.0999999999999</ele>
        <time>2017-03-12T11:40:04Z</time>
      </trkpt>
      <trkpt lat="46.677349917590618" lon="12.408517990261316">
        <ele>1778.5799999999999</ele>
        <time>2017-03-12T11:40:17Z</time>
      </trkpt>
      <trkpt lat="46.677380176261067" lon="12.408322524279356">
        <ele>1777.6099999999999</ele>
        <time>2017-03-12T11:40:28Z</time>
      </trkpt>
      <trkpt lat="46.67737539857626" lon="12.408343059942126">
        <ele>1777.6099999999999</ele>
        <time>2017-03-12T11:40:35Z</time>
      </trkpt>
      <trkpt lat="46.677434323355556" lon="12.408167626708746">
        <ele>1776.6500000000001</ele>
        <time>2017-03-12T11:40:45Z</time>
      </trkpt>
      <trkpt lat="46.677475478500128" lon="12.407938297837973">
        <ele>1775.6900000000001</ele>
        <time>2017-03-12T11:40:57Z</time>
      </trkpt>
      <trkpt lat="46.677519734948874" lon="12.407674267888069">
        <ele>1774.25</ele>
        <time>2017-03-12T11:41:11Z</time>
      </trkpt>
      <trkpt lat="46.677537420764565" lon="12.40756144747138">
        <ele>1774.73</ele>
        <time>2017-03-12T11:41:17Z</time>
      </trkpt>
      <trkpt lat="46.677582515403628" lon="12.407422810792923">
        <ele>1774.73</ele>
        <time>2017-03-12T11:41:28Z</time>
      </trkpt>
      <trkpt lat="46.677594920620322" lon="12.407389366999269">
        <ele>1773.77</ele>
        <time>2017-03-12T11:41:32Z</time>
      </trkpt>
      <trkpt lat="46.677625933662057" lon="12.407288616523147">
        <ele>1774.25</ele>
        <time>2017-03-12T11:41:43Z</time>
      </trkpt>
      <trkpt lat="46.677625263109803" lon="12.407273277640343">
        <ele>1774.73</ele>
        <time>2017-03-12T11:41:45Z</time>
      </trkpt>
      <trkpt lat="46.677657198160887" lon="12.407144950702786">
        <ele>1774.73</ele>
        <time>2017-03-12T11:41:56Z</time>
      </trkpt>
      <trkpt lat="46.67768913321197" lon="12.407021149992943">
        <ele>1773.77</ele>
        <time>2017-03-12T11:42:06Z</time>
      </trkpt>
      <trkpt lat="46.67769500054419" lon="12.406831551343203">
        <ele>1774.25</ele>
        <time>2017-03-12T11:42:18Z</time>
      </trkpt>
      <trkpt lat="46.67770036496222" lon="12.406744128093123">
        <ele>1774.25</ele>
        <time>2017-03-12T11:42:23Z</time>
      </trkpt>
      <trkpt lat="46.677686031907797" lon="12.406604569405317">
        <ele>1773.29</ele>
        <time>2017-03-12T11:42:32Z</time>
      </trkpt>
      <trkpt lat="46.677706064656377" lon="12.406498370692134">
        <ele>1772.8099999999999</ele>
        <time>2017-03-12T11:42:39Z</time>
      </trkpt>
      <trkpt lat="46.677711009979248" lon="12.406432488933206">
        <ele>1772.8099999999999</ele>
        <time>2017-03-12T11:42:43Z</time>
      </trkpt>
      <trkpt lat="46.677716709673405" lon="12.40629049949348">
        <ele>1772.3299999999999</ele>
        <time>2017-03-12T11:42:52Z</time>
      </trkpt>
      <trkpt lat="46.677706902846694" lon="12.406093692407012">
        <ele>1771.8499999999999</ele>
        <time>2017-03-12T11:43:05Z</time>
      </trkpt>
      <trkpt lat="46.677712602540851" lon="12.406045328825712">
        <ele>1771.8499999999999</ele>
        <time>2017-03-12T11:43:08Z</time>
      </trkpt>
      <trkpt lat="46.677772281691432" lon="12.405864363536239">
        <ele>1771.3699999999999</ele>
        <time>2017-03-12T11:43:19Z</time>
      </trkpt>
      <trkpt lat="46.677819555625319" lon="12.405697144567966">
        <ele>1770.8900000000001</ele>
        <time>2017-03-12T11:43:30Z</time>
      </trkpt>
      <trkpt lat="46.677872529253364" lon="12.405543252825737">
        <ele>1770.8900000000001</ele>
        <time>2017-03-12T11:43:41Z</time>
      </trkpt>
      <trkpt lat="46.677883844822645" lon="12.405511485412717">
        <ele>1772.3299999999999</ele>
        <time>2017-03-12T11:43:44Z</time>
      </trkpt>
      <trkpt lat="46.677938578650355" lon="12.405333956703544">
        <ele>1771.3699999999999</ele>
        <time>2017-03-12T11:43:57Z</time>
      </trkpt>
      <trkpt lat="46.677948469296098" lon="12.405352899804711">
        <ele>1771.3699999999999</ele>
        <time>2017-03-12T11:44:07Z</time>
      </trkpt>
      <trkpt lat="46.677965233102441" lon="12.405316270887852">
        <ele>1771.3699999999999</ele>
        <time>2017-03-12T11:44:15Z</time>
      </trkpt>
      <trkpt lat="46.6779500618577" lon="12.405310403555632">
        <ele>1771.3699999999999</ele>
        <time>2017-03-12T11:44:33Z</time>
      </trkpt>
      <trkpt lat="46.677952576428652" lon="12.405351474881172">
        <ele>1771.8499999999999</ele>
        <time>2017-03-12T11:44:51Z</time>
      </trkpt>
      <trkpt lat="46.677954252809286" lon="12.405342170968652">
        <ele>1771.8499999999999</ele>
        <time>2017-03-12T11:45:05Z</time>
      </trkpt>
      <trkpt lat="46.677960958331823" lon="12.40533865056932">
        <ele>1771.8499999999999</ele>
        <time>2017-03-12T11:45:20Z</time>
      </trkpt>
      <trkpt lat="46.677936064079404" lon="12.405368154868484">
        <ele>1771.3699999999999</ele>
        <time>2017-03-12T11:45:37Z</time>
      </trkpt>
      <trkpt lat="46.67795148678124" lon="12.405371339991689">
        <ele>1771.3699999999999</ele>
        <time>2017-03-12T11:45:51Z</time>
      </trkpt>
      <trkpt lat="46.677972860634327" lon="12.405382487922907">
        <ele>1771.3699999999999</ele>
        <time>2017-03-12T11:46:07Z</time>
      </trkpt>
      <trkpt lat="46.677993731573224" lon="12.405360024422407">
        <ele>1771.3699999999999</ele>
        <time>2017-03-12T11:46:19Z</time>
      </trkpt>
      <trkpt lat="46.6780018620193" lon="12.405361114069819">
        <ele>1771.3699999999999</ele>
        <time>2017-03-12T11:46:33Z</time>
      </trkpt>
      <trkpt lat="46.678017033264041" lon="12.405353654175997">
        <ele>1771.3699999999999</ele>
        <time>2017-03-12T11:46:41Z</time>
      </trkpt>
      <trkpt lat="46.678023235872388" lon="12.405347032472491">
        <ele>1771.3699999999999</ele>
        <time>2017-03-12T11:46:54Z</time>
      </trkpt>
      <trkpt lat="46.678015943616629" lon="12.40529565140605">
        <ele>1771.8499999999999</ele>
        <time>2017-03-12T11:47:02Z</time>
      </trkpt>
      <trkpt lat="46.678089620545506" lon="12.405218034982681">
        <ele>1771.8499999999999</ele>
        <time>2017-03-12T11:47:12Z</time>
      </trkpt>
      <trkpt lat="46.678119795396924" lon="12.405204456299543">
        <ele>1771.3699999999999</ele>
        <time>2017-03-12T11:47:15Z</time>
      </trkpt>
      <trkpt lat="46.678267987444997" lon="12.405082415789366">
        <ele>1771.3699999999999</ele>
        <time>2017-03-12T11:47:29Z</time>
      </trkpt>
      <trkpt lat="46.678364546969533" lon="12.404947467148304">
        <ele>1770.4100000000001</ele>
        <time>2017-03-12T11:47:40Z</time>
      </trkpt>
      <trkpt lat="46.678435374051332" lon="12.404784690588713">
        <ele>1768.96</ele>
        <time>2017-03-12T11:47:52Z</time>
      </trkpt>
      <trkpt lat="46.678491532802582" lon="12.404579669237137">
        <ele>1767.04</ele>
        <time>2017-03-12T11:48:05Z</time>
      </trkpt>
      <trkpt lat="46.678538555279374" lon="12.404363499954343">
        <ele>1767.04</ele>
        <time>2017-03-12T11:48:17Z</time>
      </trkpt>
      <trkpt lat="46.678553810343146" lon="12.404292840510607">
        <ele>1766.5599999999999</ele>
        <time>2017-03-12T11:48:21Z</time>
      </trkpt>
      <trkpt lat="46.678554899990559" lon="12.404257468879223">
        <ele>1766.5599999999999</ele>
        <time>2017-03-12T11:48:23Z</time>
      </trkpt>
      <trkpt lat="46.678558168932796" lon="12.404188737273216">
        <ele>1766.0799999999999</ele>
        <time>2017-03-12T11:48:27Z</time>
      </trkpt>
      <trkpt lat="46.678561437875032" lon="12.404158227145672">
        <ele>1766.0799999999999</ele>
        <time>2017-03-12T11:48:29Z</time>
      </trkpt>
      <trkpt lat="46.678564120084047" lon="12.404072396457195">
        <ele>1766.0799999999999</ele>
        <time>2017-03-12T11:48:35Z</time>
      </trkpt>
      <trkpt lat="46.678568311035633" lon="12.404045658186078">
        <ele>1766.0799999999999</ele>
        <time>2017-03-12T11:48:37Z</time>
      </trkpt>
      <trkpt lat="46.678518690168858" lon="12.403850024566054">
        <ele>1764.1600000000001</ele>
        <time>2017-03-12T11:48:50Z</time>
      </trkpt>
      <trkpt lat="46.678518354892731" lon="12.403833763673902">
        <ele>1764.1600000000001</ele>
        <time>2017-03-12T11:48:51Z</time>
      </trkpt>
      <trkpt lat="46.678482731804252" lon="12.403542576357722">
        <ele>1761.75</ele>
        <time>2017-03-12T11:49:07Z</time>
      </trkpt>
      <trkpt lat="46.67849387973547" lon="12.403302183374763">
        <ele>1761.27</ele>
        <time>2017-03-12T11:49:20Z</time>
      </trkpt>
      <trkpt lat="46.67853394523263" lon="12.403100179508328">
        <ele>1761.27</ele>
        <time>2017-03-12T11:49:32Z</time>
      </trkpt>
      <trkpt lat="46.678554229438305" lon="12.40298492833972">
        <ele>1761.27</ele>
        <time>2017-03-12T11:49:38Z</time>
      </trkpt>
      <trkpt lat="46.678598821163177" lon="12.402756018564105">
        <ele>1760.3099999999999</ele>
        <time>2017-03-12T11:49:51Z</time>
      </trkpt>
      <trkpt lat="46.678611561655998" lon="12.402556361630559">
        <ele>1759.8299999999999</ele>
        <time>2017-03-12T11:50:03Z</time>
      </trkpt>
      <trkpt lat="46.6785838175565" lon="12.402331056073308">
        <ele>1759.3499999999999</ele>
        <time>2017-03-12T11:50:17Z</time>
      </trkpt>
      <trkpt lat="46.678578285500407" lon="12.402124525979161">
        <ele>1758.8699999999999</ele>
        <time>2017-03-12T11:50:29Z</time>
      </trkpt>
      <trkpt lat="46.678572669625282" lon="12.402065265923738">
        <ele>1758.8699999999999</ele>
        <time>2017-03-12T11:50:32Z</time>
      </trkpt>
      <trkpt lat="46.678602509200573" lon="12.4017961230129">
        <ele>1757.4300000000001</ele>
        <time>2017-03-12T11:50:46Z</time>
      </trkpt>
      <trkpt lat="46.678631510585546" lon="12.401700653135777">
        <ele>1756.47</ele>
        <time>2017-03-12T11:50:51Z</time>
      </trkpt>
      <trkpt lat="46.678658416494727" lon="12.401626808568835">
        <ele>1755.99</ele>
        <time>2017-03-12T11:50:55Z</time>
      </trkpt>
      <trkpt lat="46.678746761754155" lon="12.401412399485707">
        <ele>1754.54</ele>
        <time>2017-03-12T11:51:10Z</time>
      </trkpt>
      <trkpt lat="46.678757490590215" lon="12.401340650394559">
        <ele>1753.5799999999999</ele>
        <time>2017-03-12T11:51:14Z</time>
      </trkpt>
      <trkpt lat="46.678768554702401" lon="12.401287844404578">
        <ele>1753.0999999999999</ele>
        <time>2017-03-12T11:51:17Z</time>
      </trkpt>
      <trkpt lat="46.678801411762834" lon="12.40105583332479">
        <ele>1751.6600000000001</ele>
        <time>2017-03-12T11:51:30Z</time>
      </trkpt>
      <trkpt lat="46.678817672654986" lon="12.40080127492547">
        <ele>1749.74</ele>
        <time>2017-03-12T11:51:43Z</time>
      </trkpt>
      <trkpt lat="46.678828233852983" lon="12.400627937167883">
        <ele>1747.8099999999999</ele>
        <time>2017-03-12T11:51:52Z</time>
      </trkpt>
      <trkpt lat="46.678840471431613" lon="12.400500867515802">
        <ele>1746.3699999999999</ele>
        <time>2017-03-12T11:51:59Z</time>
      </trkpt>
      <trkpt lat="46.678889086470008" lon="12.400226108729839">
        <ele>1744.45</ele>
        <time>2017-03-12T11:52:13Z</time>
      </trkpt>
      <trkpt lat="46.678925547748804" lon="12.400084538385272">
        <ele>1743.49</ele>
        <time>2017-03-12T11:52:21Z</time>
      </trkpt>
      <trkpt lat="46.678998973220587" lon="12.399884127080441">
        <ele>1743.01</ele>
        <time>2017-03-12T11:52:33Z</time>
      </trkpt>
      <trkpt lat="46.679047755897045" lon="12.399733671918511">
        <ele>1742.05</ele>
        <time>2017-03-12T11:52:42Z</time>
      </trkpt>
      <trkpt lat="46.679132664576173" lon="12.399539211764932">
        <ele>1740.1199999999999</ele>
        <time>2017-03-12T11:52:53Z</time>
      </trkpt>
      <trkpt lat="46.679218411445618" lon="12.39933050237596">
        <ele>1737.24</ele>
        <time>2017-03-12T11:53:05Z</time>
      </trkpt>
      <trkpt lat="46.679327040910721" lon="12.39914626814425">
        <ele>1734.8399999999999</ele>
        <time>2017-03-12T11:53:18Z</time>
      </trkpt>
      <trkpt lat="46.679338859394193" lon="12.399139478802681">
        <ele>1734.8399999999999</ele>
        <time>2017-03-12T11:53:19Z</time>
      </trkpt>
      <trkpt lat="46.679389737546444" lon="12.399109471589327">
        <ele>1733.8800000000001</ele>
        <time>2017-03-12T11:53:23Z</time>
      </trkpt>
      <trkpt lat="46.679462408646941" lon="12.399058677256107">
        <ele>1732.4300000000001</ele>
        <time>2017-03-12T11:53:30Z</time>
      </trkpt>
      <trkpt lat="46.679584868252277" lon="12.398927668109536">
        <ele>1730.03</ele>
        <time>2017-03-12T11:53:43Z</time>
      </trkpt>
      <trkpt lat="46.679696012288332" lon="12.398834209889174">
        <ele>1728.1099999999999</ele>
        <time>2017-03-12T11:53:53Z</time>
      </trkpt>
      <trkpt lat="46.679801205173135" lon="12.398768663406372">
        <ele>1727.6300000000001</ele>
        <time>2017-03-12T11:54:02Z</time>
      </trkpt>
      <trkpt lat="46.679882509633899" lon="12.39869917742908">
        <ele>1727.1500000000001</ele>
        <time>2017-03-12T11:54:09Z</time>
      </trkpt>
      <trkpt lat="46.679966496303678" lon="12.398562971502542">
        <ele>1726.6700000000001</ele>
        <time>2017-03-12T11:54:20Z</time>
      </trkpt>
      <trkpt lat="46.679977308958769" lon="12.398535227403045">
        <ele>1726.1800000000001</ele>
        <time>2017-03-12T11:54:22Z</time>
      </trkpt>
      <trkpt lat="46.679981583729386" lon="12.39828678779304">
        <ele>1726.1800000000001</ele>
        <time>2017-03-12T11:54:34Z</time>
      </trkpt>
      <trkpt lat="46.679994659498334" lon="12.398100960999727">
        <ele>1725.22</ele>
        <time>2017-03-12T11:54:44Z</time>
      </trkpt>
      <trkpt lat="46.680001867935061" lon="12.397871548309922">
        <ele>1723.78</ele>
        <time>2017-03-12T11:54:55Z</time>
      </trkpt>
      <trkpt lat="46.680028773844242" lon="12.39764180034399">
        <ele>1722.8199999999999</ele>
        <time>2017-03-12T11:55:06Z</time>
      </trkpt>
      <trkpt lat="46.680115861818194" lon="12.397499475628138">
        <ele>1720.4200000000001</ele>
        <time>2017-03-12T11:55:16Z</time>
      </trkpt>
      <trkpt lat="46.680206973105669" lon="12.397397803142667">
        <ele>1718.49</ele>
        <time>2017-03-12T11:55:26Z</time>
      </trkpt>
      <trkpt lat="46.680326499044895" lon="12.39729093387723">
        <ele>1717.05</ele>
        <time>2017-03-12T11:55:37Z</time>
      </trkpt>
      <trkpt lat="46.680463626980782" lon="12.397189345210791">
        <ele>1715.1300000000001</ele>
        <time>2017-03-12T11:55:48Z</time>
      </trkpt>
      <trkpt lat="46.680578459054232" lon="12.397133437916636">
        <ele>1713.6900000000001</ele>
        <time>2017-03-12T11:55:57Z</time>
      </trkpt>
      <trkpt lat="46.680719275027514" lon="12.397024305537343">
        <ele>1711.76</ele>
        <time>2017-03-12T11:56:08Z</time>
      </trkpt>
      <trkpt lat="46.680813152343035" lon="12.396907797083259">
        <ele>1710.8</ele>
        <time>2017-03-12T11:56:18Z</time>
      </trkpt>
      <trkpt lat="46.680858917534351" lon="12.396784499287605">
        <ele>1709.8399999999999</ele>
        <time>2017-03-12T11:56:29Z</time>
      </trkpt>
      <trkpt lat="46.680885823443532" lon="12.396626248955727">
        <ele>1710.3199999999999</ele>
        <time>2017-03-12T11:56:37Z</time>
      </trkpt>
      <trkpt lat="46.680918680503964" lon="12.39649155177176">
        <ele>1710.3199999999999</ele>
        <time>2017-03-12T11:56:45Z</time>
      </trkpt>
      <trkpt lat="46.68094047345221" lon="12.396418629214168">
        <ele>1709.8399999999999</ele>
        <time>2017-03-12T11:56:49Z</time>
      </trkpt>
      <trkpt lat="46.680955057963729" lon="12.396367080509663">
        <ele>1709.3599999999999</ele>
        <time>2017-03-12T11:56:52Z</time>
      </trkpt>
      <trkpt lat="46.681032171472907" lon="12.396251745522022">
        <ele>1709.3599999999999</ele>
        <time>2017-03-12T11:57:02Z</time>
      </trkpt>
      <trkpt lat="46.681097634136677" lon="12.396123837679625">
        <ele>1708.4000000000001</ele>
        <time>2017-03-12T11:57:12Z</time>
      </trkpt>
      <trkpt lat="46.681077601388097" lon="12.395787471905351">
        <ele>1707.4400000000001</ele>
        <time>2017-03-12T11:57:23Z</time>
      </trkpt>
      <trkpt lat="46.681038625538349" lon="12.395525705069304">
        <ele>1706.48</ele>
        <time>2017-03-12T11:57:35Z</time>
      </trkpt>
      <trkpt lat="46.681032758206129" lon="12.395507683977485">
        <ele>1706.48</ele>
        <time>2017-03-12T11:57:36Z</time>
      </trkpt>
      <trkpt lat="46.681028064340353" lon="12.395248850807548">
        <ele>1704.0699999999999</ele>
        <time>2017-03-12T11:57:49Z</time>
      </trkpt>
      <trkpt lat="46.68105723336339" lon="12.395174335688353">
        <ele>1702.6300000000001</ele>
        <time>2017-03-12T11:57:54Z</time>
      </trkpt>
      <trkpt lat="46.681125126779079" lon="12.395004769787192">
        <ele>1700.71</ele>
        <time>2017-03-12T11:58:05Z</time>
      </trkpt>
      <trkpt lat="46.681155888363719" lon="12.394946850836277">
        <ele>1699.75</ele>
        <time>2017-03-12T11:58:09Z</time>
      </trkpt>
      <trkpt lat="46.681254878640175" lon="12.39478575065732">
        <ele>1697.3399999999999</ele>
        <time>2017-03-12T11:58:21Z</time>
      </trkpt>
      <trkpt lat="46.681311037391424" lon="12.394607970491052">
        <ele>1695.9000000000001</ele>
        <time>2017-03-12T11:58:32Z</time>
      </trkpt>
      <trkpt lat="46.681264266371727" lon="12.394348550587893">
        <ele>1692.54</ele>
        <time>2017-03-12T11:58:44Z</time>
      </trkpt>
      <trkpt lat="46.681218333542347" lon="12.394139170646667">
        <ele>1690.1400000000001</ele>
        <time>2017-03-12T11:58:56Z</time>
      </trkpt>
      <trkpt lat="46.681182207539678" lon="12.393904644995928">
        <ele>1687.25</ele>
        <time>2017-03-12T11:59:09Z</time>
      </trkpt>
      <trkpt lat="46.681182961910963" lon="12.393808923661709">
        <ele>1685.8099999999999</ele>
        <time>2017-03-12T11:59:15Z</time>
      </trkpt>
      <trkpt lat="46.681202491745353" lon="12.393687888979912">
        <ele>1684.3699999999999</ele>
        <time>2017-03-12T11:59:22Z</time>
      </trkpt>
      <trkpt lat="46.681256471201777" lon="12.393555454909801">
        <ele>1682.9300000000001</ele>
        <time>2017-03-12T11:59:30Z</time>
      </trkpt>
      <trkpt lat="46.68124339543283" lon="12.393477167934179">
        <ele>1681.96</ele>
        <time>2017-03-12T11:59:36Z</time>
      </trkpt>
      <trkpt lat="46.681203749030828" lon="12.393465097993612">
        <ele>1681</ele>
        <time>2017-03-12T11:59:40Z</time>
      </trkpt>
      <trkpt lat="46.681147674098611" lon="12.393555035814643">
        <ele>1679.5599999999999</ele>
        <time>2017-03-12T11:59:47Z</time>
      </trkpt>
      <trkpt lat="46.68114566244185" lon="12.39358177408576">
        <ele>1679.5599999999999</ele>
        <time>2017-03-12T11:59:49Z</time>
      </trkpt>
      <trkpt lat="46.681105261668563" lon="12.393722254782915">
        <ele>1678.1199999999999</ele>
        <time>2017-03-12T11:59:59Z</time>
      </trkpt>
      <trkpt lat="46.680976096540689" lon="12.393860472366214">
        <ele>1676.2</ele>
        <time>2017-03-12T12:00:12Z</time>
      </trkpt>
      <trkpt lat="46.68091943487525" lon="12.393870865926147">
        <ele>1675.23</ele>
        <time>2017-03-12T12:00:21Z</time>
      </trkpt>
      <trkpt lat="46.680747186765075" lon="12.393887042999268">
        <ele>1673.3099999999999</ele>
        <time>2017-03-12T12:00:32Z</time>
      </trkpt>
      <trkpt lat="46.680638054385781" lon="12.393864495679736">
        <ele>1670.9100000000001</ele>
        <time>2017-03-12T12:00:42Z</time>
      </trkpt>
      <trkpt lat="46.680633528158069" lon="12.393817221745849">
        <ele>1670.4300000000001</ele>
        <time>2017-03-12T12:00:44Z</time>
      </trkpt>
      <trkpt lat="46.680658757686615" lon="12.39374496974051">
        <ele>1669.95</ele>
        <time>2017-03-12T12:00:49Z</time>
      </trkpt>
      <trkpt lat="46.680702930316329" lon="12.393657295033336">
        <ele>1668.02</ele>
        <time>2017-03-12T12:00:56Z</time>
      </trkpt>
      <trkpt lat="46.680800328031182" lon="12.393500134348869">
        <ele>1666.0999999999999</ele>
        <time>2017-03-12T12:01:07Z</time>
      </trkpt>
      <trkpt lat="46.680843159556389" lon="12.393403239548206">
        <ele>1665.1400000000001</ele>
        <time>2017-03-12T12:01:12Z</time>
      </trkpt>
      <trkpt lat="46.680872496217489" lon="12.39325244911015">
        <ele>1662.74</ele>
        <time>2017-03-12T12:01:22Z</time>
      </trkpt>
      <trkpt lat="46.680887751281261" lon="12.393134012818336">
        <ele>1661.3</ele>
        <time>2017-03-12T12:01:30Z</time>
      </trkpt>
      <trkpt lat="46.68092873878777" lon="12.392922705039382">
        <ele>1658.4100000000001</ele>
        <time>2017-03-12T12:01:41Z</time>
      </trkpt>
      <trkpt lat="46.680971654132009" lon="12.392780045047402">
        <ele>1656.97</ele>
        <time>2017-03-12T12:01:49Z</time>
      </trkpt>
      <trkpt lat="46.680979281663895" lon="12.392745679244399">
        <ele>1656.49</ele>
        <time>2017-03-12T12:01:51Z</time>
      </trkpt>
      <trkpt lat="46.681044828146696" lon="12.392515763640404">
        <ele>1653.5999999999999</ele>
        <time>2017-03-12T12:02:04Z</time>
      </trkpt>
      <trkpt lat="46.681050779297948" lon="12.392471339553595">
        <ele>1653.1199999999999</ele>
        <time>2017-03-12T12:02:06Z</time>
      </trkpt>
      <trkpt lat="46.681020185351372" lon="12.392397914081812">
        <ele>1652.1600000000001</ele>
        <time>2017-03-12T12:02:12Z</time>
      </trkpt>
      <trkpt lat="46.680901078507304" lon="12.392434040084481">
        <ele>1649.28</ele>
        <time>2017-03-12T12:02:25Z</time>
      </trkpt>
      <trkpt lat="46.68076554313302" lon="12.392421886324883">
        <ele>1646.4000000000001</ele>
        <time>2017-03-12T12:02:37Z</time>
      </trkpt>
      <trkpt lat="46.680754814296961" lon="12.39231719635427">
        <ele>1644.95</ele>
        <time>2017-03-12T12:02:44Z</time>
      </trkpt>
      <trkpt lat="46.680855816230178" lon="12.392156515270472">
        <ele>1642.55</ele>
        <time>2017-03-12T12:02:57Z</time>
      </trkpt>
      <trkpt lat="46.680928152054548" lon="12.392041934654117">
        <ele>1640.1500000000001</ele>
        <time>2017-03-12T12:03:09Z</time>
      </trkpt>
      <trkpt lat="46.680941395461559" lon="12.391989547759295">
        <ele>1639.6700000000001</ele>
        <time>2017-03-12T12:03:19Z</time>
      </trkpt>
      <trkpt lat="46.680957404896617" lon="12.39197856746614">
        <ele>1639.6700000000001</ele>
        <time>2017-03-12T12:03:28Z</time>
      </trkpt>
      <trkpt lat="46.680972324684262" lon="12.391963563859463">
        <ele>1639.6700000000001</ele>
        <time>2017-03-12T12:03:44Z</time>
      </trkpt>
      <trkpt lat="46.680927649140358" lon="12.391910003498197">
        <ele>1639.6700000000001</ele>
        <time>2017-03-12T12:04:00Z</time>
      </trkpt>
      <trkpt lat="46.680931923910975" lon="12.391913523897529">
        <ele>1640.1500000000001</ele>
        <time>2017-03-12T12:04:16Z</time>
      </trkpt>
      <trkpt lat="46.68094483204186" lon="12.391943531110883">
        <ele>1639.6700000000001</ele>
        <time>2017-03-12T12:04:30Z</time>
      </trkpt>
      <trkpt lat="46.680991016328335" lon="12.391768433153629">
        <ele>1637.74</ele>
        <time>2017-03-12T12:04:44Z</time>
      </trkpt>
      <trkpt lat="46.680993866175413" lon="12.391759464517236">
        <ele>1637.74</ele>
        <time>2017-03-12T12:04:45Z</time>
      </trkpt>
      <trkpt lat="46.681059161201119" lon="12.391651505604386">
        <ele>1636.3</ele>
        <time>2017-03-12T12:04:56Z</time>
      </trkpt>
      <trkpt lat="46.681081876158714" lon="12.39161697216332">
        <ele>1635.3399999999999</ele>
        <time>2017-03-12T12:05:05Z</time>
      </trkpt>
      <trkpt lat="46.681149350479245" lon="12.391481269150972">
        <ele>1633.4200000000001</ele>
        <time>2017-03-12T12:05:16Z</time>
      </trkpt>
      <trkpt lat="46.681164437904954" lon="12.391444472596049">
        <ele>1632.46</ele>
        <time>2017-03-12T12:05:19Z</time>
      </trkpt>
      <trkpt lat="46.681164605543017" lon="12.391415974125266">
        <ele>1631.98</ele>
        <time>2017-03-12T12:05:21Z</time>
      </trkpt>
      <trkpt lat="46.681182123720646" lon="12.391385044902563">
        <ele>1631.49</ele>
        <time>2017-03-12T12:05:31Z</time>
      </trkpt>
      <trkpt lat="46.681188913062215" lon="12.391371047124267">
        <ele>1631.01</ele>
        <time>2017-03-12T12:05:43Z</time>
      </trkpt>
      <trkpt lat="46.681183632463217" lon="12.391300220042467">
        <ele>1631.01</ele>
        <time>2017-03-12T12:05:56Z</time>
      </trkpt>
      <trkpt lat="46.681095119565725" lon="12.391225202009082">
        <ele>1629.0899999999999</ele>
        <time>2017-03-12T12:06:08Z</time>
      </trkpt>
      <trkpt lat="46.68112956918776" lon="12.391266357153654">
        <ele>1629.0899999999999</ele>
        <time>2017-03-12T12:06:19Z</time>
      </trkpt>
      <trkpt lat="46.681136190891266" lon="12.391317151486874">
        <ele>1629.5699999999999</ele>
        <time>2017-03-12T12:06:37Z</time>
      </trkpt>
      <trkpt lat="46.681123366579413" lon="12.391332574188709">
        <ele>1629.0899999999999</ele>
        <time>2017-03-12T12:06:56Z</time>
      </trkpt>
      <trkpt lat="46.681243646889925" lon="12.391309691593051">
        <ele>1629.5699999999999</ele>
        <time>2017-03-12T12:07:15Z</time>
      </trkpt>
      <trkpt lat="46.68122679926455" lon="12.391293095424771">
        <ele>1629.5699999999999</ele>
        <time>2017-03-12T12:07:36Z</time>
      </trkpt>
      <trkpt lat="46.681184554472566" lon="12.391323940828443">
        <ele>1629.5699999999999</ele>
        <time>2017-03-12T12:07:52Z</time>
      </trkpt>
      <trkpt lat="46.681173238903284" lon="12.39136191084981">
        <ele>1630.05</ele>
        <time>2017-03-12T12:08:13Z</time>
      </trkpt>
      <trkpt lat="46.681174244731665" lon="12.391303824260831">
        <ele>1630.05</ele>
        <time>2017-03-12T12:08:38Z</time>
      </trkpt>
      <trkpt lat="46.681199641898274" lon="12.391282366588712">
        <ele>1630.53</ele>
        <time>2017-03-12T12:08:59Z</time>
      </trkpt>
      <trkpt lat="46.681170053780079" lon="12.391325617209077">
        <ele>1630.53</ele>
        <time>2017-03-12T12:09:22Z</time>
      </trkpt>
      <trkpt lat="46.681209029629827" lon="12.391380770131946">
        <ele>1630.53</ele>
        <time>2017-03-12T12:09:39Z</time>
      </trkpt>
      <trkpt lat="46.681147003546357" lon="12.391385631635785">
        <ele>1631.01</ele>
        <time>2017-03-12T12:09:59Z</time>
      </trkpt>
      <trkpt lat="46.680871490389109" lon="12.391186142340302">
        <ele>1628.1300000000001</ele>
        <time>2017-03-12T12:10:13Z</time>
      </trkpt>
      <trkpt lat="46.680780546739697" lon="12.391128391027451">
        <ele>1624.77</ele>
        <time>2017-03-12T12:10:24Z</time>
      </trkpt>
      <trkpt lat="46.680654063820839" lon="12.391050523146987">
        <ele>1621.8800000000001</ele>
        <time>2017-03-12T12:10:36Z</time>
      </trkpt>
      <trkpt lat="46.680558426305652" lon="12.390995370224118">
        <ele>1619.96</ele>
        <time>2017-03-12T12:10:45Z</time>
      </trkpt>
      <trkpt lat="46.680438313633204" lon="12.390893697738647">
        <ele>1617.5599999999999</ele>
        <time>2017-03-12T12:10:57Z</time>
      </trkpt>
      <trkpt lat="46.68033161200583" lon="12.390812393277884">
        <ele>1614.6700000000001</ele>
        <time>2017-03-12T12:11:08Z</time>
      </trkpt>
      <trkpt lat="46.680253492668271" lon="12.390832677483559">
        <ele>1613.71</ele>
        <time>2017-03-12T12:11:18Z</time>
      </trkpt>
      <trkpt lat="46.680281488224864" lon="12.390808202326298">
        <ele>1613.71</ele>
        <time>2017-03-12T12:11:32Z</time>
      </trkpt>
      <trkpt lat="46.680268831551075" lon="12.39079562947154">
        <ele>1613.23</ele>
        <time>2017-03-12T12:11:48Z</time>
      </trkpt>
      <trkpt lat="46.680181827396154" lon="12.390758832916617">
        <ele>1613.23</ele>
        <time>2017-03-12T12:12:07Z</time>
      </trkpt>
      <trkpt lat="46.680166153237224" lon="12.390748774632812">
        <ele>1613.71</ele>
        <time>2017-03-12T12:12:27Z</time>
      </trkpt>
      <trkpt lat="46.680176127701998" lon="12.39067442715168">
        <ele>1613.23</ele>
        <time>2017-03-12T12:12:40Z</time>
      </trkpt>
      <trkpt lat="46.680191718041897" lon="12.390663027763367">
        <ele>1613.23</ele>
        <time>2017-03-12T12:12:42Z</time>
      </trkpt>
      <trkpt lat="46.680240500718355" lon="12.390493713319302">
        <ele>1612.27</ele>
        <time>2017-03-12T12:12:55Z</time>
      </trkpt>
      <trkpt lat="46.680302442982793" lon="12.390316855162382">
        <ele>1611.79</ele>
        <time>2017-03-12T12:13:07Z</time>
      </trkpt>
      <trkpt lat="46.680319290608168" lon="12.390292380005121">
        <ele>1612.27</ele>
        <time>2017-03-12T12:13:09Z</time>
      </trkpt>
      <trkpt lat="46.680401768535376" lon="12.390176374465227">
        <ele>1612.75</ele>
        <time>2017-03-12T12:13:19Z</time>
      </trkpt>
      <trkpt lat="46.680440409108996" lon="12.390144439414144">
        <ele>1613.23</ele>
        <time>2017-03-12T12:13:23Z</time>
      </trkpt>
      <trkpt lat="46.68053780682385" lon="12.390052825212479">
        <ele>1614.1900000000001</ele>
        <time>2017-03-12T12:13:35Z</time>
      </trkpt>
      <trkpt lat="46.680623637512326" lon="12.389960289001465">
        <ele>1614.1900000000001</ele>
        <time>2017-03-12T12:13:46Z</time>
      </trkpt>
      <trkpt lat="46.680718855932355" lon="12.389851743355393">
        <ele>1614.6700000000001</ele>
        <time>2017-03-12T12:13:57Z</time>
      </trkpt>
      <trkpt lat="46.680836034938693" lon="12.389750489965081">
        <ele>1614.6700000000001</ele>
        <time>2017-03-12T12:14:08Z</time>
      </trkpt>
      <trkpt lat="46.680925972759724" lon="12.38962585106492">
        <ele>1614.1900000000001</ele>
        <time>2017-03-12T12:14:18Z</time>
      </trkpt>
      <trkpt lat="46.681024208664894" lon="12.389531554654241">
        <ele>1613.23</ele>
        <time>2017-03-12T12:14:29Z</time>
      </trkpt>
      <trkpt lat="46.68110266327858" lon="12.389417141675949">
        <ele>1611.79</ele>
        <time>2017-03-12T12:14:39Z</time>
      </trkpt>
      <trkpt lat="46.681166030466557" lon="12.389346230775118">
        <ele>1610.3499999999999</ele>
        <time>2017-03-12T12:14:47Z</time>
      </trkpt>
      <trkpt lat="46.68123853392899" lon="12.389311445876956">
        <ele>1609.8599999999999</ele>
        <time>2017-03-12T12:14:54Z</time>
      </trkpt>
      <trkpt lat="46.681348085403442" lon="12.389255622401834">
        <ele>1608.9000000000001</ele>
        <time>2017-03-12T12:15:05Z</time>
      </trkpt>
      <trkpt lat="46.681435341015458" lon="12.389238607138395">
        <ele>1607.9400000000001</ele>
        <time>2017-03-12T12:15:13Z</time>
      </trkpt>
      <trkpt lat="46.68150725774467" lon="12.389230476692319">
        <ele>1607.46</ele>
        <time>2017-03-12T12:15:20Z</time>
      </trkpt>
      <trkpt lat="46.681630639359355" lon="12.38923198543489">
        <ele>1606.5</ele>
        <time>2017-03-12T12:15:30Z</time>
      </trkpt>
      <trkpt lat="46.681670285761356" lon="12.389226872473955">
        <ele>1606.5</ele>
        <time>2017-03-12T12:15:33Z</time>
      </trkpt>
      <trkpt lat="46.681708255782723" lon="12.389236679300666">
        <ele>1606.02</ele>
        <time>2017-03-12T12:15:36Z</time>
      </trkpt>
      <trkpt lat="46.681794840842485" lon="12.389271967113018">
        <ele>1604.5799999999999</ele>
        <time>2017-03-12T12:15:45Z</time>
      </trkpt>
      <trkpt lat="46.681804228574038" lon="12.389273392036557">
        <ele>1604.0999999999999</ele>
        <time>2017-03-12T12:15:46Z</time>
      </trkpt>
      <trkpt lat="46.681825099512935" lon="12.389275906607509">
        <ele>1603.1400000000001</ele>
        <time>2017-03-12T12:15:48Z</time>
      </trkpt>
      <trkpt lat="46.681885113939643" lon="12.389274900779128">
        <ele>1602.1700000000001</ele>
        <time>2017-03-12T12:15:52Z</time>
      </trkpt>
      <trkpt lat="46.6820168774575" lon="12.389226369559765">
        <ele>1601.21</ele>
        <time>2017-03-12T12:16:04Z</time>
      </trkpt>
      <trkpt lat="46.682117963209748" lon="12.389210527762771">
        <ele>1604.0999999999999</ele>
        <time>2017-03-12T12:16:14Z</time>
      </trkpt>
      <trkpt lat="46.682131793349981" lon="12.389199882745743">
        <ele>1602.6600000000001</ele>
        <time>2017-03-12T12:16:15Z</time>
      </trkpt>
      <trkpt lat="46.68221578001976" lon="12.389131151139736">
        <ele>1602.6600000000001</ele>
        <time>2017-03-12T12:16:23Z</time>
      </trkpt>
      <trkpt lat="46.682276129722595" lon="12.389073232188821">
        <ele>1602.6600000000001</ele>
        <time>2017-03-12T12:16:28Z</time>
      </trkpt>
      <trkpt lat="46.682292306795716" lon="12.389057641848922">
        <ele>1602.6600000000001</ele>
        <time>2017-03-12T12:16:30Z</time>
      </trkpt>
      <trkpt lat="46.682380568236113" lon="12.388956304639578">
        <ele>1603.1400000000001</ele>
        <time>2017-03-12T12:16:40Z</time>
      </trkpt>
      <trkpt lat="46.682469667866826" lon="12.388822613283992">
        <ele>1603.1400000000001</ele>
        <time>2017-03-12T12:16:51Z</time>
      </trkpt>
      <trkpt lat="46.682564886286855" lon="12.388708954676986">
        <ele>1603.1400000000001</ele>
        <time>2017-03-12T12:17:01Z</time>
      </trkpt>
      <trkpt lat="46.682624900713563" lon="12.388560762628913">
        <ele>1602.1700000000001</ele>
        <time>2017-03-12T12:17:11Z</time>
      </trkpt>
      <trkpt lat="46.682700421661139" lon="12.388541484251618">
        <ele>1600.73</ele>
        <time>2017-03-12T12:17:21Z</time>
      </trkpt>
      <trkpt lat="46.682782899588346" lon="12.388580041006207">
        <ele>1602.1700000000001</ele>
        <time>2017-03-12T12:17:31Z</time>
      </trkpt>
      <trkpt lat="46.682833693921566" lon="12.388602420687675">
        <ele>1602.6600000000001</ele>
        <time>2017-03-12T12:17:37Z</time>
      </trkpt>
      <trkpt lat="46.682913657277822" lon="12.388605941087008">
        <ele>1604.0999999999999</ele>
        <time>2017-03-12T12:17:47Z</time>
      </trkpt>
      <trkpt lat="46.682954141870141" lon="12.388581214472651">
        <ele>1604.5799999999999</ele>
        <time>2017-03-12T12:17:54Z</time>
      </trkpt>
      <trkpt lat="46.683008372783661" lon="12.38857576623559">
        <ele>1606.02</ele>
        <time>2017-03-12T12:18:03Z</time>
      </trkpt>
      <trkpt lat="46.683078026399016" lon="12.38855229690671">
        <ele>1606.5</ele>
        <time>2017-03-12T12:18:13Z</time>
      </trkpt>
      <trkpt lat="46.683157151564956" lon="12.388473842293024">
        <ele>1606.5</ele>
        <time>2017-03-12T12:18:24Z</time>
      </trkpt>
      <trkpt lat="46.683217417448759" lon="12.38839253783226">
        <ele>1606.02</ele>
        <time>2017-03-12T12:18:34Z</time>
      </trkpt>
      <trkpt lat="46.683308864012361" lon="12.388263372704387">
        <ele>1605.0599999999999</ele>
        <time>2017-03-12T12:18:44Z</time>
      </trkpt>
      <trkpt lat="46.683391509577632" lon="12.388141416013241">
        <ele>1605.0599999999999</ele>
        <time>2017-03-12T12:18:54Z</time>
      </trkpt>
      <trkpt lat="46.683454625308514" lon="12.388043263927102">
        <ele>1604.0999999999999</ele>
        <time>2017-03-12T12:19:02Z</time>
      </trkpt>
      <trkpt lat="46.683537187054753" lon="12.387897418811917">
        <ele>1603.6199999999999</ele>
        <time>2017-03-12T12:19:15Z</time>
      </trkpt>
      <trkpt lat="46.683587143197656" lon="12.387776551768184">
        <ele>1603.1400000000001</ele>
        <time>2017-03-12T12:19:26Z</time>
      </trkpt>
      <trkpt lat="46.683649756014347" lon="12.387650152668357">
        <ele>1603.1400000000001</ele>
        <time>2017-03-12T12:19:36Z</time>
      </trkpt>
      <trkpt lat="46.683716392144561" lon="12.387522580102086">
        <ele>1603.1400000000001</ele>
        <time>2017-03-12T12:19:46Z</time>
      </trkpt>
      <trkpt lat="46.683791074901819" lon="12.387408167123795">
        <ele>1602.6600000000001</ele>
        <time>2017-03-12T12:19:57Z</time>
      </trkpt>
      <trkpt lat="46.68379845097661" lon="12.387388134375215">
        <ele>1602.6600000000001</ele>
        <time>2017-03-12T12:19:58Z</time>
      </trkpt>
      <trkpt lat="46.683799875900149" lon="12.387340608984232">
        <ele>1602.1700000000001</ele>
        <time>2017-03-12T12:20:01Z</time>
      </trkpt>
      <trkpt lat="46.683797696605325" lon="12.387260142713785">
        <ele>1601.6900000000001</ele>
        <time>2017-03-12T12:20:12Z</time>
      </trkpt>
      <trkpt lat="46.683803061023355" lon="12.387198032811284">
        <ele>1601.21</ele>
        <time>2017-03-12T12:20:26Z</time>
      </trkpt>
      <trkpt lat="46.683871457353234" lon="12.387067945674062">
        <ele>1599.77</ele>
        <time>2017-03-12T12:20:35Z</time>
      </trkpt>
      <trkpt lat="46.683978410437703" lon="12.386886812746525">
        <ele>1597.8499999999999</ele>
        <time>2017-03-12T12:20:48Z</time>
      </trkpt>
      <trkpt lat="46.684037921950221" lon="12.386725964024663">
        <ele>1597.3699999999999</ele>
        <time>2017-03-12T12:21:01Z</time>
      </trkpt>
      <trkpt lat="46.684058709070086" lon="12.386658657342196">
        <ele>1596.8900000000001</ele>
        <time>2017-03-12T12:21:06Z</time>
      </trkpt>
      <trkpt lat="46.684079077094793" lon="12.38651080057025">
        <ele>1597.3699999999999</ele>
        <time>2017-03-12T12:21:15Z</time>
      </trkpt>
      <trkpt lat="46.68411361053586" lon="12.38630753941834">
        <ele>1596.8900000000001</ele>
        <time>2017-03-12T12:21:27Z</time>
      </trkpt>
      <trkpt lat="46.684139678254724" lon="12.386181643232703">
        <ele>1597.3699999999999</ele>
        <time>2017-03-12T12:21:35Z</time>
      </trkpt>
      <trkpt lat="46.684176055714488" lon="12.385964719578624">
        <ele>1596.8900000000001</ele>
        <time>2017-03-12T12:21:47Z</time>
      </trkpt>
      <trkpt lat="46.684182090684772" lon="12.385950470343232">
        <ele>1596.8900000000001</ele>
        <time>2017-03-12T12:21:48Z</time>
      </trkpt>
      <trkpt lat="46.684212014079094" lon="12.385793896391988">
        <ele>1595.9300000000001</ele>
        <time>2017-03-12T12:22:00Z</time>
      </trkpt>
      <trkpt lat="46.684271609410644" lon="12.385673951357603">
        <ele>1595.45</ele>
        <time>2017-03-12T12:22:10Z</time>
      </trkpt>
      <trkpt lat="46.684298934414983" lon="12.385616786777973">
        <ele>1595.9300000000001</ele>
        <time>2017-03-12T12:22:15Z</time>
      </trkpt>
      <trkpt lat="46.684361547231674" lon="12.385570518672466">
        <ele>1596.4100000000001</ele>
        <time>2017-03-12T12:22:25Z</time>
      </trkpt>
      <trkpt lat="46.684347549453378" lon="12.385549983009696">
        <ele>1595.9300000000001</ele>
        <time>2017-03-12T12:22:29Z</time>
      </trkpt>
      <trkpt lat="46.684349309653044" lon="12.385486280545592">
        <ele>1595.45</ele>
        <time>2017-03-12T12:22:33Z</time>
      </trkpt>
      <trkpt lat="46.684342436492443" lon="12.385274637490511">
        <ele>1593.52</ele>
        <time>2017-03-12T12:22:44Z</time>
      </trkpt>
      <trkpt lat="46.684397589415312" lon="12.385261980816722">
        <ele>1593.52</ele>
        <time>2017-03-12T12:22:54Z</time>
      </trkpt>
      <trkpt lat="46.684418795630336" lon="12.385257370769978">
        <ele>1593.52</ele>
        <time>2017-03-12T12:23:06Z</time>
      </trkpt>
      <trkpt lat="46.684407815337181" lon="12.385251922532916">
        <ele>1593.52</ele>
        <time>2017-03-12T12:23:18Z</time>
      </trkpt>
      <trkpt lat="46.684424914419651" lon="12.385259130969644">
        <ele>1593.52</ele>
        <time>2017-03-12T12:23:30Z</time>
      </trkpt>
      <trkpt lat="46.684425417333841" lon="12.385258125141263">
        <ele>1593.04</ele>
        <time>2017-03-12T12:23:43Z</time>
      </trkpt>
      <trkpt lat="46.684432793408632" lon="12.385274721309543">
        <ele>1593.52</ele>
        <time>2017-03-12T12:23:58Z</time>
      </trkpt>
      <trkpt lat="46.68442633934319" lon="12.385308835655451">
        <ele>1593.04</ele>
        <time>2017-03-12T12:24:17Z</time>
      </trkpt>
      <trkpt lat="46.684440756216645" lon="12.385249156504869">
        <ele>1593.04</ele>
        <time>2017-03-12T12:24:38Z</time>
      </trkpt>
      <trkpt lat="46.684438241645694" lon="12.385237338021398">
        <ele>1593.04</ele>
        <time>2017-03-12T12:24:57Z</time>
      </trkpt>
      <trkpt lat="46.684444611892104" lon="12.385261058807373">
        <ele>1593.52</ele>
        <time>2017-03-12T12:25:13Z</time>
      </trkpt>
      <trkpt lat="46.684474954381585" lon="12.385223004966974">
        <ele>1593.52</ele>
        <time>2017-03-12T12:25:24Z</time>
      </trkpt>
      <trkpt lat="46.684500770643353" lon="12.385205570608377">
        <ele>1593.52</ele>
        <time>2017-03-12T12:25:28Z</time>
      </trkpt>
      <trkpt lat="46.68458903208375" lon="12.385157961398363">
        <ele>1594.48</ele>
        <time>2017-03-12T12:25:38Z</time>
      </trkpt>
      <trkpt lat="46.684682238847017" lon="12.385113202035427">
        <ele>1595.45</ele>
        <time>2017-03-12T12:25:49Z</time>
      </trkpt>
      <trkpt lat="46.684767147526145" lon="12.385061234235764">
        <ele>1596.4100000000001</ele>
        <time>2017-03-12T12:26:00Z</time>
      </trkpt>
      <trkpt lat="46.684845434501767" lon="12.385017145425081">
        <ele>1596.8900000000001</ele>
        <time>2017-03-12T12:26:12Z</time>
      </trkpt>
      <trkpt lat="46.684840070083737" lon="12.384990742430091">
        <ele>1598.3299999999999</ele>
        <time>2017-03-12T12:26:18Z</time>
      </trkpt>
      <trkpt lat="46.684800758957863" lon="12.384895104914904">
        <ele>1596.4100000000001</ele>
        <time>2017-03-12T12:26:25Z</time>
      </trkpt>
      <trkpt lat="46.684751641005278" lon="12.384817320853472">
        <ele>1595.9300000000001</ele>
        <time>2017-03-12T12:26:37Z</time>
      </trkpt>
      <trkpt lat="46.684758849442005" lon="12.384805670008063">
        <ele>1595.45</ele>
        <time>2017-03-12T12:26:55Z</time>
      </trkpt>
      <trkpt lat="46.68474686332047" lon="12.384818913415074">
        <ele>1594.96</ele>
        <time>2017-03-12T12:27:09Z</time>
      </trkpt>
      <trkpt lat="46.684684418141842" lon="12.384724617004395">
        <ele>1593.52</ele>
        <time>2017-03-12T12:27:19Z</time>
      </trkpt>
      <trkpt lat="46.684662792831659" lon="12.384663764387369">
        <ele>1592.5599999999999</ele>
        <time>2017-03-12T12:27:23Z</time>
      </trkpt>
      <trkpt lat="46.684639323502779" lon="12.384472656995058">
        <ele>1590.1600000000001</ele>
        <time>2017-03-12T12:27:34Z</time>
      </trkpt>
      <trkpt lat="46.684706546366215" lon="12.384199993684888">
        <ele>1586.79</ele>
        <time>2017-03-12T12:27:48Z</time>
      </trkpt>
      <trkpt lat="46.684724735096097" lon="12.384168477728963">
        <ele>1585.8299999999999</ele>
        <time>2017-03-12T12:27:50Z</time>
      </trkpt>
      <trkpt lat="46.684766225516796" lon="12.384095638990402">
        <ele>1585.3499999999999</ele>
        <time>2017-03-12T12:27:55Z</time>
      </trkpt>
      <trkpt lat="46.684904107823968" lon="12.383959265425801">
        <ele>1585.3499999999999</ele>
        <time>2017-03-12T12:28:08Z</time>
      </trkpt>
      <trkpt lat="46.685012737289071" lon="12.383844265714288">
        <ele>1583.9100000000001</ele>
        <time>2017-03-12T12:28:19Z</time>
      </trkpt>
      <trkpt lat="46.685096640139818" lon="12.383765559643507">
        <ele>1582.95</ele>
        <time>2017-03-12T12:28:28Z</time>
      </trkpt>
      <trkpt lat="46.685142237693071" lon="12.383706970140338">
        <ele>1582.95</ele>
        <time>2017-03-12T12:28:33Z</time>
      </trkpt>
      <trkpt lat="46.685157576575875" lon="12.383683081716299">
        <ele>1583.4300000000001</ele>
        <time>2017-03-12T12:28:35Z</time>
      </trkpt>
      <trkpt lat="46.685210717841983" lon="12.383582331240177">
        <ele>1584.3900000000001</ele>
        <time>2017-03-12T12:28:45Z</time>
      </trkpt>
      <trkpt lat="46.685260590165854" lon="12.383487783372402">
        <ele>1584.8699999999999</ele>
        <time>2017-03-12T12:28:54Z</time>
      </trkpt>
      <trkpt lat="46.685302248224616" lon="12.383328024297953">
        <ele>1584.8699999999999</ele>
        <time>2017-03-12T12:29:05Z</time>
      </trkpt>
      <trkpt lat="46.685324376448989" lon="12.383112274110317">
        <ele>1583.4300000000001</ele>
        <time>2017-03-12T12:29:18Z</time>
      </trkpt>
      <trkpt lat="46.685392102226615" lon="12.382952179759741">
        <ele>1582.47</ele>
        <time>2017-03-12T12:29:29Z</time>
      </trkpt>
      <trkpt lat="46.685467790812254" lon="12.382841957733035">
        <ele>1582.47</ele>
        <time>2017-03-12T12:29:39Z</time>
      </trkpt>
      <trkpt lat="46.685487739741802" lon="12.382803903892636">
        <ele>1582.95</ele>
        <time>2017-03-12T12:29:42Z</time>
      </trkpt>
      <trkpt lat="46.685563260689378" lon="12.38268043845892">
        <ele>1582.95</ele>
        <time>2017-03-12T12:29:53Z</time>
      </trkpt>
      <trkpt lat="46.68562101200223" lon="12.382576167583466">
        <ele>1581.99</ele>
        <time>2017-03-12T12:30:00Z</time>
      </trkpt>
      <trkpt lat="46.68565814383328" lon="12.382519757375121">
        <ele>1581.99</ele>
        <time>2017-03-12T12:30:05Z</time>
      </trkpt>
      <trkpt lat="46.685718074440956" lon="12.382454546168447">
        <ele>1581.99</ele>
        <time>2017-03-12T12:30:11Z</time>
      </trkpt>
      <trkpt lat="46.685832738876343" lon="12.382359327748418">
        <ele>1582.47</ele>
        <time>2017-03-12T12:30:23Z</time>
      </trkpt>
      <trkpt lat="46.685940194875002" lon="12.382247345522046">
        <ele>1581.99</ele>
        <time>2017-03-12T12:30:35Z</time>
      </trkpt>
      <trkpt lat="46.686015129089355" lon="12.382174339145422">
        <ele>1581.99</ele>
        <time>2017-03-12T12:30:43Z</time>
      </trkpt>
      <trkpt lat="46.686092913150787" lon="12.382031427696347">
        <ele>1582.47</ele>
        <time>2017-03-12T12:30:55Z</time>
      </trkpt>
      <trkpt lat="46.68615167029202" lon="12.381871417164803">
        <ele>1582.47</ele>
        <time>2017-03-12T12:31:07Z</time>
      </trkpt>
      <trkpt lat="46.686134906485677" lon="12.381865046918392">
        <ele>1582.47</ele>
        <time>2017-03-12T12:31:23Z</time>
      </trkpt>
      <trkpt lat="46.686190981417894" lon="12.381778797134757">
        <ele>1581.99</ele>
        <time>2017-03-12T12:31:37Z</time>
      </trkpt>
      <trkpt lat="46.686286367475986" lon="12.381664216518402">
        <ele>1582.47</ele>
        <time>2017-03-12T12:31:47Z</time>
      </trkpt>
      <trkpt lat="46.686321990564466" lon="12.381616607308388">
        <ele>1582.47</ele>
        <time>2017-03-12T12:31:51Z</time>
      </trkpt>
      <trkpt lat="46.686368426308036" lon="12.381556509062648">
        <ele>1581.99</ele>
        <time>2017-03-12T12:31:56Z</time>
      </trkpt>
      <trkpt lat="46.686449563130736" lon="12.381495488807559">
        <ele>1582.95</ele>
        <time>2017-03-12T12:32:04Z</time>
      </trkpt>
      <trkpt lat="46.686478313058615" lon="12.381472522392869">
        <ele>1582.95</ele>
        <time>2017-03-12T12:32:07Z</time>
      </trkpt>
      <trkpt lat="46.686525335535407" lon="12.381447292864323">
        <ele>1582.47</ele>
        <time>2017-03-12T12:32:12Z</time>
      </trkpt>
      <trkpt lat="46.686633126810193" lon="12.381397588178515">
        <ele>1583.9100000000001</ele>
        <time>2017-03-12T12:32:22Z</time>
      </trkpt>
      <trkpt lat="46.686653411015868" lon="12.381385685876012">
        <ele>1583.9100000000001</ele>
        <time>2017-03-12T12:32:24Z</time>
      </trkpt>
      <trkpt lat="46.686716945841908" lon="12.381365234032273">
        <ele>1583.9100000000001</ele>
        <time>2017-03-12T12:32:30Z</time>
      </trkpt>
      <trkpt lat="46.686832951381803" lon="12.381330616772175">
        <ele>1583.9100000000001</ele>
        <time>2017-03-12T12:32:41Z</time>
      </trkpt>
      <trkpt lat="46.686843764036894" lon="12.381326677277684">
        <ele>1583.9100000000001</ele>
        <time>2017-03-12T12:32:42Z</time>
      </trkpt>
      <trkpt lat="46.686875699087977" lon="12.381319301202893">
        <ele>1584.3900000000001</ele>
        <time>2017-03-12T12:32:45Z</time>
      </trkpt>
      <trkpt lat="46.68701802380383" lon="12.381295077502728">
        <ele>1583.9100000000001</ele>
        <time>2017-03-12T12:32:58Z</time>
      </trkpt>
      <trkpt lat="46.687038810923696" lon="12.381289796903729">
        <ele>1583.9100000000001</ele>
        <time>2017-03-12T12:33:00Z</time>
      </trkpt>
      <trkpt lat="46.687163701280951" lon="12.381237829104066">
        <ele>1583.4300000000001</ele>
        <time>2017-03-12T12:33:12Z</time>
      </trkpt>
      <trkpt lat="46.687235031276941" lon="12.381148897111416">
        <ele>1583.9100000000001</ele>
        <time>2017-03-12T12:33:22Z</time>
      </trkpt>
      <trkpt lat="46.687297392636538" lon="12.381029035896063">
        <ele>1584.3900000000001</ele>
        <time>2017-03-12T12:33:33Z</time>
      </trkpt>
      <trkpt lat="46.687319856137037" lon="12.38097027875483">
        <ele>1584.3900000000001</ele>
        <time>2017-03-12T12:33:38Z</time>
      </trkpt>
      <trkpt lat="46.687383893877268" lon="12.380794761702418">
        <ele>1582.47</ele>
        <time>2017-03-12T12:33:50Z</time>
      </trkpt>
      <trkpt lat="46.687436196953058" lon="12.38071178086102">
        <ele>1582.47</ele>
        <time>2017-03-12T12:33:57Z</time>
      </trkpt>
      <trkpt lat="46.687470730394125" lon="12.380658388137817">
        <ele>1582.47</ele>
        <time>2017-03-12T12:34:02Z</time>
      </trkpt>
      <trkpt lat="46.687494702637196" lon="12.380592171102762">
        <ele>1582.95</ele>
        <time>2017-03-12T12:34:07Z</time>
      </trkpt>
      <trkpt lat="46.687503587454557" lon="12.380525367334485">
        <ele>1582.95</ele>
        <time>2017-03-12T12:34:12Z</time>
      </trkpt>
      <trkpt lat="46.687539126724005" lon="12.380470298230648">
        <ele>1582.47</ele>
        <time>2017-03-12T12:34:17Z</time>
      </trkpt>
      <trkpt lat="46.6875911783427" lon="12.380408020690084">
        <ele>1582.47</ele>
        <time>2017-03-12T12:34:23Z</time>
      </trkpt>
      <trkpt lat="46.687613055109978" lon="12.380379354581237">
        <ele>1582.47</ele>
        <time>2017-03-12T12:34:26Z</time>
      </trkpt>
      <trkpt lat="46.687650689855218" lon="12.380276676267385">
        <ele>1582.47</ele>
        <time>2017-03-12T12:34:34Z</time>
      </trkpt>
      <trkpt lat="46.68769427575171" lon="12.380162598565221">
        <ele>1582.47</ele>
        <time>2017-03-12T12:34:43Z</time>
      </trkpt>
      <trkpt lat="46.687724115327001" lon="12.380119012668729">
        <ele>1582.47</ele>
        <time>2017-03-12T12:34:47Z</time>
      </trkpt>
      <trkpt lat="46.687811203300953" lon="12.379957074299455">
        <ele>1582.47</ele>
        <time>2017-03-12T12:34:59Z</time>
      </trkpt>
      <trkpt lat="46.687883622944355" lon="12.37985473126173">
        <ele>1582.47</ele>
        <time>2017-03-12T12:35:09Z</time>
      </trkpt>
      <trkpt lat="46.687933159992099" lon="12.379765212535858">
        <ele>1582.95</ele>
        <time>2017-03-12T12:35:17Z</time>
      </trkpt>
      <trkpt lat="46.687977416440845" lon="12.379740905016661">
        <ele>1581.99</ele>
        <time>2017-03-12T12:35:21Z</time>
      </trkpt>
      <trkpt lat="46.688050171360373" lon="12.37963093444705">
        <ele>1582.47</ele>
        <time>2017-03-12T12:35:30Z</time>
      </trkpt>
      <trkpt lat="46.688066180795431" lon="12.379606375470757">
        <ele>1582.47</ele>
        <time>2017-03-12T12:35:32Z</time>
      </trkpt>
      <trkpt lat="46.688102055341005" lon="12.379539655521512">
        <ele>1581.99</ele>
        <time>2017-03-12T12:35:37Z</time>
      </trkpt>
      <trkpt lat="46.688186377286911" lon="12.379420716315508">
        <ele>1582.95</ele>
        <time>2017-03-12T12:35:47Z</time>
      </trkpt>
      <trkpt lat="46.68822250328958" lon="12.37937193363905">
        <ele>1582.95</ele>
        <time>2017-03-12T12:35:51Z</time>
      </trkpt>
      <trkpt lat="46.688282014802098" lon="12.379290545359254">
        <ele>1583.9100000000001</ele>
        <time>2017-03-12T12:35:58Z</time>
      </trkpt>
      <trkpt lat="46.688305735588074" lon="12.379261292517185">
        <ele>1583.9100000000001</ele>
        <time>2017-03-12T12:36:01Z</time>
      </trkpt>
      <trkpt lat="46.688401121646166" lon="12.37912860698998">
        <ele>1583.9100000000001</ele>
        <time>2017-03-12T12:36:13Z</time>
      </trkpt>
      <trkpt lat="46.688435152173042" lon="12.37907538190484">
        <ele>1585.3499999999999</ele>
        <time>2017-03-12T12:36:18Z</time>
      </trkpt>
      <trkpt lat="46.688509667292237" lon="12.378927441313863">
        <ele>1584.8699999999999</ele>
        <time>2017-03-12T12:36:29Z</time>
      </trkpt>
      <trkpt lat="46.68855082243681" lon="12.378823757171631">
        <ele>1584.8699999999999</ele>
        <time>2017-03-12T12:36:37Z</time>
      </trkpt>
      <trkpt lat="46.688586445525289" lon="12.378715043887496">
        <ele>1584.8699999999999</ele>
        <time>2017-03-12T12:36:44Z</time>
      </trkpt>
      <trkpt lat="46.688622571527958" lon="12.37851538695395">
        <ele>1583.9100000000001</ele>
        <time>2017-03-12T12:36:56Z</time>
      </trkpt>
      <trkpt lat="46.688646879047155" lon="12.378282956779003">
        <ele>1581.51</ele>
        <time>2017-03-12T12:37:09Z</time>
      </trkpt>
      <trkpt lat="46.688665486872196" lon="12.378185978159308">
        <ele>1580.54</ele>
        <time>2017-03-12T12:37:20Z</time>
      </trkpt>
      <trkpt lat="46.688677053898573" lon="12.378074582666159">
        <ele>1580.54</ele>
        <time>2017-03-12T12:37:33Z</time>
      </trkpt>
      <trkpt lat="46.688687279820442" lon="12.377864951267838">
        <ele>1579.5799999999999</ele>
        <time>2017-03-12T12:37:45Z</time>
      </trkpt>
      <trkpt lat="46.68868619017303" lon="12.377770403400064">
        <ele>1579.0999999999999</ele>
        <time>2017-03-12T12:37:50Z</time>
      </trkpt>
      <trkpt lat="46.688678311184049" lon="12.37757476978004">
        <ele>1578.6199999999999</ele>
        <time>2017-03-12T12:38:02Z</time>
      </trkpt>
      <trkpt lat="46.688673952594399" lon="12.377445101737976">
        <ele>1578.1400000000001</ele>
        <time>2017-03-12T12:38:10Z</time>
      </trkpt>
      <trkpt lat="46.688686441630125" lon="12.377287857234478">
        <ele>1576.7</ele>
        <time>2017-03-12T12:38:19Z</time>
      </trkpt>
      <trkpt lat="46.688735308125615" lon="12.377208396792412">
        <ele>1576.7</ele>
        <time>2017-03-12T12:38:31Z</time>
      </trkpt>
      <trkpt lat="46.68881569057703" lon="12.37706121057272">
        <ele>1575.26</ele>
        <time>2017-03-12T12:38:43Z</time>
      </trkpt>
      <trkpt lat="46.688907723873854" lon="12.376913102343678">
        <ele>1575.74</ele>
        <time>2017-03-12T12:38:55Z</time>
      </trkpt>
      <trkpt lat="46.688974695280194" lon="12.376795168966055">
        <ele>1574.78</ele>
        <time>2017-03-12T12:39:04Z</time>
      </trkpt>
      <trkpt lat="46.689057676121593" lon="12.376639097929001">
        <ele>1573.8199999999999</ele>
        <time>2017-03-12T12:39:16Z</time>
      </trkpt>
      <trkpt lat="46.689152978360653" lon="12.376481853425503">
        <ele>1573.3299999999999</ele>
        <time>2017-03-12T12:39:29Z</time>
      </trkpt>
      <trkpt lat="46.689235959202051" lon="12.376338439062238">
        <ele>1571.8900000000001</ele>
        <time>2017-03-12T12:39:41Z</time>
      </trkpt>
      <trkpt lat="46.689302930608392" lon="12.376234838739038">
        <ele>1571.4100000000001</ele>
        <time>2017-03-12T12:39:50Z</time>
      </trkpt>
      <trkpt lat="46.689381888136268" lon="12.376121012493968">
        <ele>1570.9300000000001</ele>
        <time>2017-03-12T12:40:01Z</time>
      </trkpt>
      <trkpt lat="46.689470820128918" lon="12.376011963933706">
        <ele>1569.97</ele>
        <time>2017-03-12T12:40:11Z</time>
      </trkpt>
      <trkpt lat="46.689600320532918" lon="12.375856647267938">
        <ele>1569.97</ele>
        <time>2017-03-12T12:40:25Z</time>
      </trkpt>
      <trkpt lat="46.689721187576652" lon="12.375736283138394">
        <ele>1569.01</ele>
        <time>2017-03-12T12:40:38Z</time>
      </trkpt>
      <trkpt lat="46.689802492037416" lon="12.37570233643055">
        <ele>1569.01</ele>
        <time>2017-03-12T12:40:45Z</time>
      </trkpt>
      <trkpt lat="46.689942888915539" lon="12.375651123002172">
        <ele>1569.49</ele>
        <time>2017-03-12T12:40:58Z</time>
      </trkpt>
      <trkpt lat="46.689994689077139" lon="12.375685824081302">
        <ele>1570.45</ele>
        <time>2017-03-12T12:41:09Z</time>
      </trkpt>
      <trkpt lat="46.689987145364285" lon="12.375700324773788">
        <ele>1570.45</ele>
        <time>2017-03-12T12:41:20Z</time>
      </trkpt>
      <trkpt lat="46.690000807866454" lon="12.375693116337061">
        <ele>1570.9300000000001</ele>
        <time>2017-03-12T12:41:29Z</time>
      </trkpt>
      <trkpt lat="46.690067024901509" lon="12.375597814098001">
        <ele>1569.97</ele>
        <time>2017-03-12T12:41:38Z</time>
      </trkpt>
      <trkpt lat="46.690130475908518" lon="12.37549857236445">
        <ele>1568.05</ele>
        <time>2017-03-12T12:41:47Z</time>
      </trkpt>
      <trkpt lat="46.690158387646079" lon="12.375439899042249">
        <ele>1567.5699999999999</ele>
        <time>2017-03-12T12:41:57Z</time>
      </trkpt>
      <trkpt lat="46.69017213396728" lon="12.375427158549428">
        <ele>1567.5699999999999</ele>
        <time>2017-03-12T12:42:05Z</time>
      </trkpt>
      <trkpt lat="46.690243212506175" lon="12.375316685065627">
        <ele>1567.0899999999999</ele>
        <time>2017-03-12T12:42:13Z</time>
      </trkpt>
      <trkpt lat="46.690373886376619" lon="12.375164050608873">
        <ele>1566.6099999999999</ele>
        <time>2017-03-12T12:42:27Z</time>
      </trkpt>
      <trkpt lat="46.69038956053555" lon="12.375131947919726">
        <ele>1567.0899999999999</ele>
        <time>2017-03-12T12:42:30Z</time>
      </trkpt>
      <trkpt lat="46.690391404554248" lon="12.375107053667307">
        <ele>1566.6099999999999</ele>
        <time>2017-03-12T12:42:32Z</time>
      </trkpt>
      <trkpt lat="46.690363325178623" lon="12.375046536326408">
        <ele>1564.6800000000001</ele>
        <time>2017-03-12T12:42:41Z</time>
      </trkpt>
      <trkpt lat="46.690357122570276" lon="12.375019630417228">
        <ele>1564.2</ele>
        <time>2017-03-12T12:42:43Z</time>
      </trkpt>
      <trkpt lat="46.690417807549238" lon="12.375014265999198">
        <ele>1564.2</ele>
        <time>2017-03-12T12:42:51Z</time>
      </trkpt>
      <trkpt lat="46.690436247736216" lon="12.375083416700363">
        <ele>1564.6800000000001</ele>
        <time>2017-03-12T12:43:00Z</time>
      </trkpt>
      <trkpt lat="46.690412107855082" lon="12.375065060332417">
        <ele>1564.6800000000001</ele>
        <time>2017-03-12T12:43:11Z</time>
      </trkpt>
      <trkpt lat="46.690415376797318" lon="12.375057935714722">
        <ele>1564.2</ele>
        <time>2017-03-12T12:43:22Z</time>
      </trkpt>
      <trkpt lat="46.690402803942561" lon="12.375029353424907">
        <ele>1564.2</ele>
        <time>2017-03-12T12:43:24Z</time>
      </trkpt>
      <trkpt lat="46.690391739830375" lon="12.375007392838597">
        <ele>1564.2</ele>
        <time>2017-03-12T12:43:26Z</time>
      </trkpt>
      <trkpt lat="46.690407413989305" lon="12.374927429482341">
        <ele>1564.2</ele>
        <time>2017-03-12T12:43:37Z</time>
      </trkpt>
      <trkpt lat="46.690416634082794" lon="12.374919718131423">
        <ele>1563.72</ele>
        <time>2017-03-12T12:43:46Z</time>
      </trkpt>
      <trkpt lat="46.690432811155915" lon="12.374916952103376">
        <ele>1563.24</ele>
        <time>2017-03-12T12:44:02Z</time>
      </trkpt>
      <trkpt lat="46.690442450344563" lon="12.374931536614895">
        <ele>1563.24</ele>
        <time>2017-03-12T12:44:22Z</time>
      </trkpt>
      <trkpt lat="46.690444964915514" lon="12.37492005340755">
        <ele>1562.76</ele>
        <time>2017-03-12T12:44:44Z</time>
      </trkpt>
      <trkpt lat="46.690424513071775" lon="12.374936901032925">
        <ele>1563.24</ele>
        <time>2017-03-12T12:44:58Z</time>
      </trkpt>
      <trkpt lat="46.690410766750574" lon="12.374919634312391">
        <ele>1563.24</ele>
        <time>2017-03-12T12:45:20Z</time>
      </trkpt>
      <trkpt lat="46.690410850569606" lon="12.374910414218903">
        <ele>1563.24</ele>
        <time>2017-03-12T12:45:36Z</time>
      </trkpt>
      <trkpt lat="46.690412862226367" lon="12.374937571585178">
        <ele>1563.24</ele>
        <time>2017-03-12T12:45:57Z</time>
      </trkpt>
      <trkpt lat="46.690417556092143" lon="12.374932877719402">
        <ele>1563.24</ele>
        <time>2017-03-12T12:46:16Z</time>
      </trkpt>
      <trkpt lat="46.690431470051408" lon="12.374912677332759">
        <ele>1563.24</ele>
        <time>2017-03-12T12:46:29Z</time>
      </trkpt>
      <trkpt lat="46.690434068441391" lon="12.374895326793194">
        <ele>1562.76</ele>
        <time>2017-03-12T12:46:45Z</time>
      </trkpt>
      <trkpt lat="46.69044085778296" lon="12.374922819435596">
        <ele>1563.24</ele>
        <time>2017-03-12T12:47:05Z</time>
      </trkpt>
      <trkpt lat="46.690434152260423" lon="12.374923238530755">
        <ele>1562.76</ele>
        <time>2017-03-12T12:47:22Z</time>
      </trkpt>
      <trkpt lat="46.690424680709839" lon="12.374900439754128">
        <ele>1562.28</ele>
        <time>2017-03-12T12:47:49Z</time>
      </trkpt>
      <trkpt lat="46.690423926338553" lon="12.374924663454294">
        <ele>1562.76</ele>
        <time>2017-03-12T12:48:14Z</time>
      </trkpt>
      <trkpt lat="46.690434906631708" lon="12.374940169975162">
        <ele>1562.28</ele>
        <time>2017-03-12T12:48:33Z</time>
      </trkpt>
      <trkpt lat="46.690445467829704" lon="12.374943774193525">
        <ele>1562.76</ele>
        <time>2017-03-12T12:48:58Z</time>
      </trkpt>
      <trkpt lat="46.690411437302828" lon="12.374929608777165">
        <ele>1562.76</ele>
        <time>2017-03-12T12:49:17Z</time>
      </trkpt>
      <trkpt lat="46.690431637689471" lon="12.374927932396531">
        <ele>1563.24</ele>
        <time>2017-03-12T12:49:43Z</time>
      </trkpt>
      <trkpt lat="46.690427782014012" lon="12.374927178025246">
        <ele>1563.24</ele>
        <time>2017-03-12T12:50:04Z</time>
      </trkpt>
      <trkpt lat="46.690395511686802" lon="12.374936817213893">
        <ele>1563.24</ele>
        <time>2017-03-12T12:50:29Z</time>
      </trkpt>
      <trkpt lat="46.690388051792979" lon="12.374928686767817">
        <ele>1563.24</ele>
        <time>2017-03-12T12:50:53Z</time>
      </trkpt>
      <trkpt lat="46.690413365140557" lon="12.374928686767817">
        <ele>1563.24</ele>
        <time>2017-03-12T12:51:18Z</time>
      </trkpt>
      <trkpt lat="46.690396433696151" lon="12.374921478331089">
        <ele>1563.24</ele>
        <time>2017-03-12T12:51:40Z</time>
      </trkpt>
      <trkpt lat="46.690387381240726" lon="12.37490831874311">
        <ele>1563.72</ele>
        <time>2017-03-12T12:52:08Z</time>
      </trkpt>
      <trkpt lat="46.690413700416684" lon="12.374903038144112">
        <ele>1563.24</ele>
        <time>2017-03-12T12:52:33Z</time>
      </trkpt>
      <trkpt lat="46.690409509465098" lon="12.374933799728751">
        <ele>1563.24</ele>
        <time>2017-03-12T12:52:58Z</time>
      </trkpt>
      <trkpt lat="46.690398780629039" lon="12.374926004558802">
        <ele>1563.24</ele>
        <time>2017-03-12T12:53:21Z</time>
      </trkpt>
      <trkpt lat="46.690423171967268" lon="12.374900272116065">
        <ele>1563.24</ele>
        <time>2017-03-12T12:53:35Z</time>
      </trkpt>
      <trkpt lat="46.690415795892477" lon="12.374906474724412">
        <ele>1562.76</ele>
        <time>2017-03-12T12:53:50Z</time>
      </trkpt>
      <trkpt lat="46.690409006550908" lon="12.374933464452624">
        <ele>1563.24</ele>
        <time>2017-03-12T12:54:14Z</time>
      </trkpt>
      <trkpt lat="46.690431889146566" lon="12.374950144439936">
        <ele>1562.76</ele>
        <time>2017-03-12T12:54:37Z</time>
      </trkpt>
      <trkpt lat="46.690478911623359" lon="12.374976044520736">
        <ele>1562.76</ele>
        <time>2017-03-12T12:55:05Z</time>
      </trkpt>
      <trkpt lat="46.690450329333544" lon="12.374969338998199">
        <ele>1562.76</ele>
        <time>2017-03-12T12:55:30Z</time>
      </trkpt>
      <trkpt lat="46.690457537770271" lon="12.374961711466312">
        <ele>1563.24</ele>
        <time>2017-03-12T12:55:53Z</time>
      </trkpt>
      <trkpt lat="46.690461561083794" lon="12.374971937388182">
        <ele>1562.76</ele>
        <time>2017-03-12T12:56:19Z</time>
      </trkpt>
      <trkpt lat="46.690440773963928" lon="12.374952994287014">
        <ele>1563.24</ele>
        <time>2017-03-12T12:56:47Z</time>
      </trkpt>
      <trkpt lat="46.690424764528871" lon="12.374942349269986">
        <ele>1562.76</ele>
        <time>2017-03-12T12:57:04Z</time>
      </trkpt>
      <trkpt lat="46.690445551648736" lon="12.374954419210553">
        <ele>1563.24</ele>
        <time>2017-03-12T12:57:31Z</time>
      </trkpt>
      <trkpt lat="46.690400205552578" lon="12.374927345663309">
        <ele>1563.24</ele>
        <time>2017-03-12T12:57:56Z</time>
      </trkpt>
      <trkpt lat="46.690399032086134" lon="12.374907312914729">
        <ele>1563.24</ele>
        <time>2017-03-12T12:58:25Z</time>
      </trkpt>
      <trkpt lat="46.690387045964599" lon="12.374898176640272">
        <ele>1563.24</ele>
        <time>2017-03-12T12:58:59Z</time>
      </trkpt>
      <trkpt lat="46.690388806164265" lon="12.374905217438936">
        <ele>1563.24</ele>
        <time>2017-03-12T12:59:32Z</time>
      </trkpt>
      <trkpt lat="46.690378580242395" lon="12.374914521351457">
        <ele>1562.76</ele>
        <time>2017-03-12T13:00:10Z</time>
      </trkpt>
      <trkpt lat="46.690373132005334" lon="12.374916281551123">
        <ele>1562.76</ele>
        <time>2017-03-12T13:00:44Z</time>
      </trkpt>
      <trkpt lat="46.690364666283131" lon="12.374919718131423">
        <ele>1562.76</ele>
        <time>2017-03-12T13:01:19Z</time>
      </trkpt>
      <trkpt lat="46.690372629091144" lon="12.374912761151791">
        <ele>1562.76</ele>
        <time>2017-03-12T13:01:49Z</time>
      </trkpt>
      <trkpt lat="46.690351255238056" lon="12.374914605170488">
        <ele>1562.76</ele>
        <time>2017-03-12T13:02:20Z</time>
      </trkpt>
      <trkpt lat="46.690362822264433" lon="12.3749122582376">
        <ele>1562.76</ele>
        <time>2017-03-12T13:02:49Z</time>
      </trkpt>
      <trkpt lat="46.690365755930543" lon="12.374919969588518">
        <ele>1562.76</ele>
        <time>2017-03-12T13:03:23Z</time>
      </trkpt>
      <trkpt lat="46.690388051792979" lon="12.374906977638602">
        <ele>1562.76</ele>
        <time>2017-03-12T13:03:53Z</time>
      </trkpt>
      <trkpt lat="46.690387716516852" lon="12.374909827485681">
        <ele>1562.28</ele>
        <time>2017-03-12T13:04:14Z</time>
      </trkpt>
      <trkpt lat="46.690381933003664" lon="12.37492055632174">
        <ele>1562.28</ele>
        <time>2017-03-12T13:04:39Z</time>
      </trkpt>
      <trkpt lat="46.690379166975617" lon="12.374914772808552">
        <ele>1562.28</ele>
        <time>2017-03-12T13:05:15Z</time>
      </trkpt>
      <trkpt lat="46.690387045964599" lon="12.374918041750789">
        <ele>1562.28</ele>
        <time>2017-03-12T13:05:42Z</time>
      </trkpt>
      <trkpt lat="46.690379502251744" lon="12.374905385077">
        <ele>1562.28</ele>
        <time>2017-03-12T13:06:15Z</time>
      </trkpt>
      <trkpt lat="46.690379753708839" lon="12.374905636534095">
        <ele>1562.28</ele>
        <time>2017-03-12T13:06:49Z</time>
      </trkpt>
      <trkpt lat="46.690372042357922" lon="12.374928770586848">
        <ele>1562.28</ele>
        <time>2017-03-12T13:07:20Z</time>
      </trkpt>
      <trkpt lat="46.690397104248405" lon="12.374918377026916">
        <ele>1562.28</ele>
        <time>2017-03-12T13:07:54Z</time>
      </trkpt>
      <trkpt lat="46.690400540828705" lon="12.374920221045613">
        <ele>1561.8</ele>
        <time>2017-03-12T13:08:32Z</time>
      </trkpt>
      <trkpt lat="46.690375898033381" lon="12.37491125240922">
        <ele>1561.8</ele>
        <time>2017-03-12T13:09:07Z</time>
      </trkpt>
      <trkpt lat="46.690380591899157" lon="12.374902619048953">
        <ele>1561.3199999999999</ele>
        <time>2017-03-12T13:09:41Z</time>
      </trkpt>
      <trkpt lat="46.690387381240726" lon="12.374905049800873">
        <ele>1561.8</ele>
        <time>2017-03-12T13:10:13Z</time>
      </trkpt>
      <trkpt lat="46.690377071499825" lon="12.37491175532341">
        <ele>1560.8399999999999</ele>
        <time>2017-03-12T13:10:46Z</time>
      </trkpt>
      <trkpt lat="46.690370617434382" lon="12.374912761151791">
        <ele>1561.8</ele>
        <time>2017-03-12T13:11:13Z</time>
      </trkpt>
      <trkpt lat="46.690366258844733" lon="12.374908067286015">
        <ele>1561.3199999999999</ele>
        <time>2017-03-12T13:11:44Z</time>
      </trkpt>
      <trkpt lat="46.690376233309507" lon="12.374896248802543">
        <ele>1561.8</ele>
        <time>2017-03-12T13:12:18Z</time>
      </trkpt>
      <trkpt lat="46.690368354320526" lon="12.374890884384513">
        <ele>1561.3199999999999</ele>
        <time>2017-03-12T13:12:50Z</time>
      </trkpt>
      <trkpt lat="46.690365169197321" lon="12.374889375641942">
        <ele>1560.8399999999999</ele>
        <time>2017-03-12T13:13:22Z</time>
      </trkpt>
      <trkpt lat="46.690368354320526" lon="12.374883508309722">
        <ele>1560.8399999999999</ele>
        <time>2017-03-12T13:13:59Z</time>
      </trkpt>
      <trkpt lat="46.690361564978957" lon="12.374894237145782">
        <ele>1561.3199999999999</ele>
        <time>2017-03-12T13:14:33Z</time>
      </trkpt>
      <trkpt lat="46.690372545272112" lon="12.374905720353127">
        <ele>1561.3199999999999</ele>
        <time>2017-03-12T13:15:02Z</time>
      </trkpt>
      <trkpt lat="46.690366342663765" lon="12.374899350106716">
        <ele>1560.8399999999999</ele>
        <time>2017-03-12T13:15:31Z</time>
      </trkpt>
      <trkpt lat="46.690361900255084" lon="12.374898931011558">
        <ele>1560.8399999999999</ele>
        <time>2017-03-12T13:16:01Z</time>
      </trkpt>
      <trkpt lat="46.69035435654223" lon="12.374884346500039">
        <ele>1560.8399999999999</ele>
        <time>2017-03-12T13:16:31Z</time>
      </trkpt>
      <trkpt lat="46.690352763980627" lon="12.374873114749789">
        <ele>1560.3599999999999</ele>
        <time>2017-03-12T13:17:05Z</time>
      </trkpt>
      <trkpt lat="46.690373802557588" lon="12.374883340671659">
        <ele>1560.8399999999999</ele>
        <time>2017-03-12T13:17:31Z</time>
      </trkpt>
      <trkpt lat="46.690371036529541" lon="12.374883759766817">
        <ele>1560.8399999999999</ele>
        <time>2017-03-12T13:17:59Z</time>
      </trkpt>
      <trkpt lat="46.690361984074116" lon="12.374880071729422">
        <ele>1560.8399999999999</ele>
        <time>2017-03-12T13:18:33Z</time>
      </trkpt>
      <trkpt lat="46.690366677939892" lon="12.374880155548453">
        <ele>1560.8399999999999</ele>
        <time>2017-03-12T13:19:02Z</time>
      </trkpt>
      <trkpt lat="46.690379166975617" lon="12.37489465624094">
        <ele>1560.8399999999999</ele>
        <time>2017-03-12T13:19:39Z</time>
      </trkpt>
      <trkpt lat="46.69036952778697" lon="12.374889962375164">
        <ele>1560.3599999999999</ele>
        <time>2017-03-12T13:20:09Z</time>
      </trkpt>
      <trkpt lat="46.690372796729207" lon="12.374894404783845">
        <ele>1560.8399999999999</ele>
        <time>2017-03-12T13:20:42Z</time>
      </trkpt>
      <trkpt lat="46.690377239137888" lon="12.374887363985181">
        <ele>1560.3599999999999</ele>
        <time>2017-03-12T13:21:15Z</time>
      </trkpt>
      <trkpt lat="46.690386375412345" lon="12.374889543280005">
        <ele>1560.8399999999999</ele>
        <time>2017-03-12T13:21:46Z</time>
      </trkpt>
      <trkpt lat="46.690382687374949" lon="12.374899350106716">
        <ele>1560.3599999999999</ele>
        <time>2017-03-12T13:22:21Z</time>
      </trkpt>
      <trkpt lat="46.690394841134548" lon="12.374894572421908">
        <ele>1560.3599999999999</ele>
        <time>2017-03-12T13:22:56Z</time>
      </trkpt>
      <trkpt lat="46.690411437302828" lon="12.374906307086349">
        <ele>1560.3599999999999</ele>
        <time>2017-03-12T13:23:29Z</time>
      </trkpt>
      <trkpt lat="46.690422669053078" lon="12.374909995123744">
        <ele>1560.3599999999999</ele>
        <time>2017-03-12T13:23:57Z</time>
      </trkpt>
      <trkpt lat="46.690421998500824" lon="12.374910665675998">
        <ele>1560.8399999999999</ele>
        <time>2017-03-12T13:24:25Z</time>
      </trkpt>
      <trkpt lat="46.690421830862761" lon="12.374924579635262">
        <ele>1560.3599999999999</ele>
        <time>2017-03-12T13:24:55Z</time>
      </trkpt>
      <trkpt lat="46.690429374575615" lon="12.374916365370154">
        <ele>1560.3599999999999</ele>
        <time>2017-03-12T13:25:26Z</time>
      </trkpt>
      <trkpt lat="46.690437672659755" lon="12.374927932396531">
        <ele>1560.3599999999999</ele>
        <time>2017-03-12T13:25:58Z</time>
      </trkpt>
      <trkpt lat="46.690432224422693" lon="12.374914772808552">
        <ele>1560.8399999999999</ele>
        <time>2017-03-12T13:26:30Z</time>
      </trkpt>
      <trkpt lat="46.690408671274781" lon="12.37491175532341">
        <ele>1559.8800000000001</ele>
        <time>2017-03-12T13:26:56Z</time>
      </trkpt>
      <trkpt lat="46.690387967973948" lon="12.374929441139102">
        <ele>1559.4000000000001</ele>
        <time>2017-03-12T13:27:25Z</time>
      </trkpt>
      <trkpt lat="46.690367013216019" lon="12.374923238530755">
        <ele>1560.3599999999999</ele>
        <time>2017-03-12T13:27:52Z</time>
      </trkpt>
      <trkpt lat="46.690380675718188" lon="12.374935476109385">
        <ele>1560.3599999999999</ele>
        <time>2017-03-12T13:28:17Z</time>
      </trkpt>
      <trkpt lat="46.69038612395525" lon="12.374923154711723">
        <ele>1560.8399999999999</ele>
        <time>2017-03-12T13:28:47Z</time>
      </trkpt>
      <trkpt lat="46.690414706245065" lon="12.374902619048953">
        <ele>1560.8399999999999</ele>
        <time>2017-03-12T13:29:09Z</time>
      </trkpt>
      <trkpt lat="46.690433230251074" lon="12.37492592073977">
        <ele>1561.3199999999999</ele>
        <time>2017-03-12T13:29:29Z</time>
      </trkpt>
      <trkpt lat="46.690439600497484" lon="12.374907899647951">
        <ele>1561.8</ele>
        <time>2017-03-12T13:29:39Z</time>
      </trkpt>
      <trkpt lat="46.690408084541559" lon="12.374933380633593">
        <ele>1561.8</ele>
        <time>2017-03-12T13:29:51Z</time>
      </trkpt>
      <trkpt lat="46.690385285764933" lon="12.374933548271656">
        <ele>1561.8</ele>
        <time>2017-03-12T13:30:02Z</time>
      </trkpt>
      <trkpt lat="46.690385621041059" lon="12.374913850799203">
        <ele>1561.3199999999999</ele>
        <time>2017-03-12T13:30:11Z</time>
      </trkpt>
      <trkpt lat="46.69037296436727" lon="12.374933129176497">
        <ele>1561.3199999999999</ele>
        <time>2017-03-12T13:30:17Z</time>
      </trkpt>
      <trkpt lat="46.690343711525202" lon="12.37494008615613">
        <ele>1561.8</ele>
        <time>2017-03-12T13:30:26Z</time>
      </trkpt>
      <trkpt lat="46.690357876941562" lon="12.374976715072989">
        <ele>1560.8399999999999</ele>
        <time>2017-03-12T13:30:37Z</time>
      </trkpt>
      <trkpt lat="46.690340107306838" lon="12.374915610998869">
        <ele>1560.8399999999999</ele>
        <time>2017-03-12T13:30:45Z</time>
      </trkpt>
      <trkpt lat="46.690356619656086" lon="12.374910833314061">
        <ele>1559.8800000000001</ele>
        <time>2017-03-12T13:30:57Z</time>
      </trkpt>
      <trkpt lat="46.690366007387638" lon="12.374872695654631">
        <ele>1559.8800000000001</ele>
        <time>2017-03-12T13:31:08Z</time>
      </trkpt>
      <trkpt lat="46.690395511686802" lon="12.374800695106387">
        <ele>1559.4000000000001</ele>
        <time>2017-03-12T13:31:15Z</time>
      </trkpt>
      <trkpt lat="46.690359218046069" lon="12.374754091724753">
        <ele>1558.4300000000001</ele>
        <time>2017-03-12T13:31:21Z</time>
      </trkpt>
      <trkpt lat="46.690317308530211" lon="12.374828020110726">
        <ele>1558.4300000000001</ele>
        <time>2017-03-12T13:31:32Z</time>
      </trkpt>
      <trkpt lat="46.690218737348914" lon="12.374832043424249">
        <ele>1557.95</ele>
        <time>2017-03-12T13:31:43Z</time>
      </trkpt>
      <trkpt lat="46.690248660743237" lon="12.374806813895702">
        <ele>1557.47</ele>
        <time>2017-03-12T13:31:51Z</time>
      </trkpt>
      <trkpt lat="46.690277075394988" lon="12.374806059524417">
        <ele>1556.99</ele>
        <time>2017-03-12T13:32:02Z</time>
      </trkpt>
      <trkpt lat="46.690321080386639" lon="12.37472165375948">
        <ele>1556.51</ele>
        <time>2017-03-12T13:32:12Z</time>
      </trkpt>
      <trkpt lat="46.69039593078196" lon="12.374636912718415">
        <ele>1555.0699999999999</ele>
        <time>2017-03-12T13:32:23Z</time>
      </trkpt>
      <trkpt lat="46.690436666831374" lon="12.374592153355479">
        <ele>1554.5899999999999</ele>
        <time>2017-03-12T13:32:29Z</time>
      </trkpt>
      <trkpt lat="46.690462315455079" lon="12.374550830572844">
        <ele>1553.6300000000001</ele>
        <time>2017-03-12T13:32:33Z</time>
      </trkpt>
      <trkpt lat="46.690543703734875" lon="12.37446122802794">
        <ele>1553.1500000000001</ele>
        <time>2017-03-12T13:32:45Z</time>
      </trkpt>
      <trkpt lat="46.690585194155574" lon="12.374439602717757">
        <ele>1552.1900000000001</ele>
        <time>2017-03-12T13:32:52Z</time>
      </trkpt>
      <trkpt lat="46.690667839720845" lon="12.374336840584874">
        <ele>1550.74</ele>
        <time>2017-03-12T13:33:02Z</time>
      </trkpt>
      <trkpt lat="46.690715784206986" lon="12.374311108142138">
        <ele>1550.26</ele>
        <time>2017-03-12T13:33:11Z</time>
      </trkpt>
      <trkpt lat="46.690729362890124" lon="12.374287219718099">
        <ele>1549.78</ele>
        <time>2017-03-12T13:33:19Z</time>
      </trkpt>
      <trkpt lat="46.690809410065413" lon="12.374222846701741">
        <ele>1549.78</ele>
        <time>2017-03-12T13:33:28Z</time>
      </trkpt>
      <trkpt lat="46.690877052024007" lon="12.374134417623281">
        <ele>1549.78</ele>
        <time>2017-03-12T13:33:38Z</time>
      </trkpt>
      <trkpt lat="46.690904209390283" lon="12.374112959951162">
        <ele>1549.3</ele>
        <time>2017-03-12T13:33:41Z</time>
      </trkpt>
      <trkpt lat="46.690937904641032" lon="12.374077839776874">
        <ele>1549.3</ele>
        <time>2017-03-12T13:33:45Z</time>
      </trkpt>
      <trkpt lat="46.690954668447375" lon="12.374059064313769">
        <ele>1549.3</ele>
        <time>2017-03-12T13:33:47Z</time>
      </trkpt>
      <trkpt lat="46.691059693694115" lon="12.374007599428296">
        <ele>1547.8599999999999</ele>
        <time>2017-03-12T13:33:57Z</time>
      </trkpt>
      <trkpt lat="46.691173017024994" lon="12.373920092359185">
        <ele>1547.8599999999999</ele>
        <time>2017-03-12T13:34:10Z</time>
      </trkpt>
      <trkpt lat="46.691273180767894" lon="12.373823784291744">
        <ele>1546.4200000000001</ele>
        <time>2017-03-12T13:34:20Z</time>
      </trkpt>
      <trkpt lat="46.69139077886939" lon="12.37366771325469">
        <ele>1543.53</ele>
        <time>2017-03-12T13:34:34Z</time>
      </trkpt>
      <trkpt lat="46.691422630101442" lon="12.373626558110118">
        <ele>1543.53</ele>
        <time>2017-03-12T13:34:37Z</time>
      </trkpt>
      <trkpt lat="46.69148993678391" lon="12.373533854261041">
        <ele>1541.6099999999999</ele>
        <time>2017-03-12T13:34:45Z</time>
      </trkpt>
      <trkpt lat="46.691554477438331" lon="12.373483646661043">
        <ele>1539.6900000000001</ele>
        <time>2017-03-12T13:34:52Z</time>
      </trkpt>
      <trkpt lat="46.691648690029979" lon="12.373357834294438">
        <ele>1536.3199999999999</ele>
        <time>2017-03-12T13:35:03Z</time>
      </trkpt>
      <trkpt lat="46.691706860437989" lon="12.373282816261053">
        <ele>1534.8800000000001</ele>
        <time>2017-03-12T13:35:10Z</time>
      </trkpt>
      <trkpt lat="46.691785734146833" lon="12.373200170695782">
        <ele>1532.48</ele>
        <time>2017-03-12T13:35:19Z</time>
      </trkpt>
      <trkpt lat="46.691867457702756" lon="12.373097576200962">
        <ele>1530.0799999999999</ele>
        <time>2017-03-12T13:35:28Z</time>
      </trkpt>
      <trkpt lat="46.691924622282386" lon="12.373039908707142">
        <ele>1528.6300000000001</ele>
        <time>2017-03-12T13:35:34Z</time>
      </trkpt>
      <trkpt lat="46.692000478506088" lon="12.372963549569249">
        <ele>1526.71</ele>
        <time>2017-03-12T13:35:42Z</time>
      </trkpt>
      <trkpt lat="46.692029563710093" lon="12.372943768277764">
        <ele>1525.75</ele>
        <time>2017-03-12T13:35:45Z</time>
      </trkpt>
      <trkpt lat="46.692069880664349" lon="12.372913425788283">
        <ele>1524.79</ele>
        <time>2017-03-12T13:35:49Z</time>
      </trkpt>
      <trkpt lat="46.692101312801242" lon="12.372874617576599">
        <ele>1523.8299999999999</ele>
        <time>2017-03-12T13:35:52Z</time>
      </trkpt>
      <trkpt lat="46.692134840413928" lon="12.372841089963913">
        <ele>1522.8699999999999</ele>
        <time>2017-03-12T13:35:56Z</time>
      </trkpt>
      <trkpt lat="46.692173313349485" lon="12.372781997546554">
        <ele>1521.9000000000001</ele>
        <time>2017-03-12T13:36:00Z</time>
      </trkpt>
      <trkpt lat="46.692224275320768" lon="12.372730616480112">
        <ele>1519.98</ele>
        <time>2017-03-12T13:36:06Z</time>
      </trkpt>
      <trkpt lat="46.692268028855324" lon="12.372688790783286">
        <ele>1518.0599999999999</ele>
        <time>2017-03-12T13:36:10Z</time>
      </trkpt>
      <trkpt lat="46.692306334152818" lon="12.372659873217344">
        <ele>1518.0599999999999</ele>
        <time>2017-03-12T13:36:14Z</time>
      </trkpt>
      <trkpt lat="46.692353440448642" lon="12.37263179384172">
        <ele>1517.0999999999999</ele>
        <time>2017-03-12T13:36:20Z</time>
      </trkpt>
      <trkpt lat="46.692459555342793" lon="12.372630620375276">
        <ele>1515.1800000000001</ele>
        <time>2017-03-12T13:36:29Z</time>
      </trkpt>
      <trkpt lat="46.692504649981856" lon="12.372625507414341">
        <ele>1513.73</ele>
        <time>2017-03-12T13:36:33Z</time>
      </trkpt>
      <trkpt lat="46.692526694387197" lon="12.372623076662421">
        <ele>1513.25</ele>
        <time>2017-03-12T13:36:35Z</time>
      </trkpt>
      <trkpt lat="46.692579835653305" lon="12.372619388625026">
        <ele>1512.29</ele>
        <time>2017-03-12T13:36:40Z</time>
      </trkpt>
      <trkpt lat="46.69267974793911" lon="12.372603546828032">
        <ele>1510.8499999999999</ele>
        <time>2017-03-12T13:36:49Z</time>
      </trkpt>
      <trkpt lat="46.692769015207887" lon="12.372570522129536">
        <ele>1508.45</ele>
        <time>2017-03-12T13:36:58Z</time>
      </trkpt>
      <trkpt lat="46.692824335768819" lon="12.372547304257751">
        <ele>1507.97</ele>
        <time>2017-03-12T13:37:02Z</time>
      </trkpt>
      <trkpt lat="46.692843865603209" lon="12.372534982860088">
        <ele>1507.48</ele>
        <time>2017-03-12T13:37:04Z</time>
      </trkpt>
      <trkpt lat="46.692893486469984" lon="12.372515453025699">
        <ele>1506.52</ele>
        <time>2017-03-12T13:37:08Z</time>
      </trkpt>
      <trkpt lat="46.692927600815892" lon="12.37247446551919">
        <ele>1506.04</ele>
        <time>2017-03-12T13:37:12Z</time>
      </trkpt>
      <trkpt lat="46.692988788709044" lon="12.372275646775961">
        <ele>1503.1600000000001</ele>
        <time>2017-03-12T13:37:26Z</time>
      </trkpt>
      <trkpt lat="46.69299591332674" lon="12.372091747820377">
        <ele>1500.76</ele>
        <time>2017-03-12T13:37:38Z</time>
      </trkpt>
      <trkpt lat="46.693017706274986" lon="12.372020836919546">
        <ele>1499.3099999999999</ele>
        <time>2017-03-12T13:37:47Z</time>
      </trkpt>
      <trkpt lat="46.69300077483058" lon="12.371896784752607">
        <ele>1497.8699999999999</ele>
        <time>2017-03-12T13:37:57Z</time>
      </trkpt>
      <trkpt lat="46.693028099834919" lon="12.371880020946264">
        <ele>1497.8699999999999</ele>
        <time>2017-03-12T13:38:03Z</time>
      </trkpt>
      <trkpt lat="46.693030949681997" lon="12.371808271855116">
        <ele>1496.9100000000001</ele>
        <time>2017-03-12T13:38:07Z</time>
      </trkpt>
      <trkpt lat="46.69307503849268" lon="12.371684052050114">
        <ele>1494.99</ele>
        <time>2017-03-12T13:38:16Z</time>
      </trkpt>
      <trkpt lat="46.693115523084998" lon="12.371651194989681">
        <ele>1494.03</ele>
        <time>2017-03-12T13:38:20Z</time>
      </trkpt>
      <trkpt lat="46.693149888888001" lon="12.371624540537596">
        <ele>1493.0599999999999</ele>
        <time>2017-03-12T13:38:23Z</time>
      </trkpt>
      <trkpt lat="46.69321333989501" lon="12.371584894135594">
        <ele>1492.0999999999999</ele>
        <time>2017-03-12T13:38:29Z</time>
      </trkpt>
      <trkpt lat="46.693178052082658" lon="12.371428152546287">
        <ele>1489.7</ele>
        <time>2017-03-12T13:38:41Z</time>
      </trkpt>
      <trkpt lat="46.693105129525065" lon="12.371351374313235">
        <ele>1487.78</ele>
        <time>2017-03-12T13:38:50Z</time>
      </trkpt>
      <trkpt lat="46.693056430667639" lon="12.371321115642786">
        <ele>1486.3399999999999</ele>
        <time>2017-03-12T13:38:54Z</time>
      </trkpt>
      <trkpt lat="46.693030949681997" lon="12.371308710426092">
        <ele>1486.3399999999999</ele>
        <time>2017-03-12T13:38:56Z</time>
      </trkpt>
      <trkpt lat="46.692926594987512" lon="12.37124995328486">
        <ele>1484.8900000000001</ele>
        <time>2017-03-12T13:39:10Z</time>
      </trkpt>
      <trkpt lat="46.692919470369816" lon="12.37128172069788">
        <ele>1484.8900000000001</ele>
        <time>2017-03-12T13:39:13Z</time>
      </trkpt>
      <trkpt lat="46.692847721278667" lon="12.371438210830092">
        <ele>1482.97</ele>
        <time>2017-03-12T13:39:24Z</time>
      </trkpt>
      <trkpt lat="46.692798100411892" lon="12.371538123115897">
        <ele>1480.5699999999999</ele>
        <time>2017-03-12T13:39:32Z</time>
      </trkpt>
      <trkpt lat="46.692698691040277" lon="12.371650356799364">
        <ele>1479.1300000000001</ele>
        <time>2017-03-12T13:39:44Z</time>
      </trkpt>
      <trkpt lat="46.692608501762152" lon="12.371632922440767">
        <ele>1477.6800000000001</ele>
        <time>2017-03-12T13:39:52Z</time>
      </trkpt>
      <trkpt lat="46.692535160109401" lon="12.371581038460135">
        <ele>1476.24</ele>
        <time>2017-03-12T13:39:59Z</time>
      </trkpt>
      <trkpt lat="46.692485874518752" lon="12.371532004326582">
        <ele>1474.8</ele>
        <time>2017-03-12T13:40:04Z</time>
      </trkpt>
      <trkpt lat="46.692345729097724" lon="12.371406108140945">
        <ele>1471.9200000000001</ele>
        <time>2017-03-12T13:40:17Z</time>
      </trkpt>
      <trkpt lat="46.69221849180758" lon="12.371316086500883">
        <ele>1469.99</ele>
        <time>2017-03-12T13:40:29Z</time>
      </trkpt>
      <trkpt lat="46.692115729674697" lon="12.371298652142286">
        <ele>1468.55</ele>
        <time>2017-03-12T13:40:41Z</time>
      </trkpt>
      <trkpt lat="46.692096870392561" lon="12.371302172541618">
        <ele>1468.0699999999999</ele>
        <time>2017-03-12T13:40:43Z</time>
      </trkpt>
      <trkpt lat="46.691980445757508" lon="12.37131591886282">
        <ele>1466.6300000000001</ele>
        <time>2017-03-12T13:40:55Z</time>
      </trkpt>
      <trkpt lat="46.691861087456346" lon="12.371342154219747">
        <ele>1464.71</ele>
        <time>2017-03-12T13:41:06Z</time>
      </trkpt>
      <trkpt lat="46.691661849617958" lon="12.371406611055136">
        <ele>1461.8199999999999</ele>
        <time>2017-03-12T13:41:20Z</time>
      </trkpt>
      <trkpt lat="46.691624633967876" lon="12.37142245285213">
        <ele>1461.3399999999999</ele>
        <time>2017-03-12T13:41:23Z</time>
      </trkpt>
      <trkpt lat="46.691558919847012" lon="12.371336203068495">
        <ele>1459.9000000000001</ele>
        <time>2017-03-12T13:41:30Z</time>
      </trkpt>
      <trkpt lat="46.691644666716456" lon="12.371177282184362">
        <ele>1457.98</ele>
        <time>2017-03-12T13:41:39Z</time>
      </trkpt>
      <trkpt lat="46.691659083589911" lon="12.371151801198721">
        <ele>1457.5</ele>
        <time>2017-03-12T13:41:41Z</time>
      </trkpt>
      <trkpt lat="46.69174893759191" lon="12.371036382392049">
        <ele>1455.0899999999999</ele>
        <time>2017-03-12T13:41:51Z</time>
      </trkpt>
      <trkpt lat="46.691814064979553" lon="12.370983995497227">
        <ele>1453.6500000000001</ele>
        <time>2017-03-12T13:41:58Z</time>
      </trkpt>
      <trkpt lat="46.691904924809933" lon="12.370923478156328">
        <ele>1451.73</ele>
        <time>2017-03-12T13:42:07Z</time>
      </trkpt>
      <trkpt lat="46.692002406343818" lon="12.370840329676867">
        <ele>1449.3199999999999</ele>
        <time>2017-03-12T13:42:19Z</time>
      </trkpt>
      <trkpt lat="46.692138276994228" lon="12.370765563100576">
        <ele>1446.4400000000001</ele>
        <time>2017-03-12T13:42:30Z</time>
      </trkpt>
      <trkpt lat="46.692211367189884" lon="12.370721558108926">
        <ele>1445</ele>
        <time>2017-03-12T13:42:36Z</time>
      </trkpt>
      <trkpt lat="46.692302310839295" lon="12.37064553424716">
        <ele>1443.5599999999999</ele>
        <time>2017-03-12T13:42:45Z</time>
      </trkpt>
      <trkpt lat="46.692356709390879" lon="12.370547046884894">
        <ele>1444.04</ele>
        <time>2017-03-12T13:42:53Z</time>
      </trkpt>
      <trkpt lat="46.692329300567508" lon="12.370480494573712">
        <ele>1441.1500000000001</ele>
        <time>2017-03-12T13:42:58Z</time>
      </trkpt>
      <trkpt lat="46.692225029692054" lon="12.370471525937319">
        <ele>1437.79</ele>
        <time>2017-03-12T13:43:10Z</time>
      </trkpt>
      <trkpt lat="46.692085387185216" lon="12.370462976396084">
        <ele>1435.3900000000001</ele>
        <time>2017-03-12T13:43:22Z</time>
      </trkpt>
      <trkpt lat="46.691962424665689" lon="12.370477728545666">
        <ele>1432.98</ele>
        <time>2017-03-12T13:43:32Z</time>
      </trkpt>
      <trkpt lat="46.691830912604928" lon="12.370499521493912">
        <ele>1430.5799999999999</ele>
        <time>2017-03-12T13:43:44Z</time>
      </trkpt>
      <trkpt lat="46.691711554303765" lon="12.370453421026468">
        <ele>1428.6600000000001</ele>
        <time>2017-03-12T13:43:54Z</time>
      </trkpt>
      <trkpt lat="46.691651875153184" lon="12.370376139879227">
        <ele>1427.7</ele>
        <time>2017-03-12T13:44:01Z</time>
      </trkpt>
      <trkpt lat="46.691668471321464" lon="12.370288800448179">
        <ele>1427.21</ele>
        <time>2017-03-12T13:44:05Z</time>
      </trkpt>
      <trkpt lat="46.691717673093081" lon="12.37016667611897">
        <ele>1425.77</ele>
        <time>2017-03-12T13:44:12Z</time>
      </trkpt>
      <trkpt lat="46.691793696954846" lon="12.37004891037941">
        <ele>1422.8900000000001</ele>
        <time>2017-03-12T13:44:21Z</time>
      </trkpt>
      <trkpt lat="46.691905427724123" lon="12.369936676695943">
        <ele>1421.45</ele>
        <time>2017-03-12T13:44:33Z</time>
      </trkpt>
      <trkpt lat="46.691916324198246" lon="12.369936089962721">
        <ele>1421.45</ele>
        <time>2017-03-12T13:44:34Z</time>
      </trkpt>
      <trkpt lat="46.691926047205925" lon="12.36993407830596">
        <ele>1421.45</ele>
        <time>2017-03-12T13:44:35Z</time>
      </trkpt>
      <trkpt lat="46.692082621157169" lon="12.369840368628502">
        <ele>1419.52</ele>
        <time>2017-03-12T13:44:48Z</time>
      </trkpt>
      <trkpt lat="46.69214372523129" lon="12.369821006432176">
        <ele>1420</ele>
        <time>2017-03-12T13:44:54Z</time>
      </trkpt>
      <trkpt lat="46.692187311127782" lon="12.369762416929007">
        <ele>1417.5999999999999</ele>
        <time>2017-03-12T13:45:00Z</time>
      </trkpt>
      <trkpt lat="46.692270878702402" lon="12.369542056694627">
        <ele>1414.72</ele>
        <time>2017-03-12T13:45:16Z</time>
      </trkpt>
      <trkpt lat="46.692355619743466" lon="12.369393948465586">
        <ele>1412.3099999999999</ele>
        <time>2017-03-12T13:45:27Z</time>
      </trkpt>
      <trkpt lat="46.692450167611241" lon="12.369292192161083">
        <ele>1409.9100000000001</ele>
        <time>2017-03-12T13:45:37Z</time>
      </trkpt>
      <trkpt lat="46.69252241961658" lon="12.369207702577114">
        <ele>1407.99</ele>
        <time>2017-03-12T13:45:45Z</time>
      </trkpt>
      <trkpt lat="46.692633479833603" lon="12.369089685380459">
        <ele>1405.0999999999999</ele>
        <time>2017-03-12T13:45:57Z</time>
      </trkpt>
      <trkpt lat="46.692784521728754" lon="12.368995221331716">
        <ele>1402.22</ele>
        <time>2017-03-12T13:46:10Z</time>
      </trkpt>
      <trkpt lat="46.692917626351118" lon="12.36892556771636">
        <ele>1399.8199999999999</ele>
        <time>2017-03-12T13:46:22Z</time>
      </trkpt>
      <trkpt lat="46.692974120378494" lon="12.368851136416197">
        <ele>1398.8599999999999</ele>
        <time>2017-03-12T13:46:32Z</time>
      </trkpt>
      <trkpt lat="46.692971019074321" lon="12.368831187486649">
        <ele>1398.8599999999999</ele>
        <time>2017-03-12T13:46:34Z</time>
      </trkpt>
      <trkpt lat="46.692968001589179" lon="12.368782991543412">
        <ele>1397.4100000000001</ele>
        <time>2017-03-12T13:46:38Z</time>
      </trkpt>
      <trkpt lat="46.692950818687677" lon="12.368731945753098">
        <ele>1396.9300000000001</ele>
        <time>2017-03-12T13:46:42Z</time>
      </trkpt>
      <trkpt lat="46.692890468984842" lon="12.368645779788494">
        <ele>1395.49</ele>
        <time>2017-03-12T13:46:53Z</time>
      </trkpt>
      <trkpt lat="46.692888289690018" lon="12.368647707626224">
        <ele>1395.49</ele>
        <time>2017-03-12T13:46:54Z</time>
      </trkpt>
      <trkpt lat="46.692807152867317" lon="12.368543772026896">
        <ele>1393.5699999999999</ele>
        <time>2017-03-12T13:47:04Z</time>
      </trkpt>
      <trkpt lat="46.692791394889355" lon="12.368498761206865">
        <ele>1392.6099999999999</ele>
        <time>2017-03-12T13:47:07Z</time>
      </trkpt>
      <trkpt lat="46.692727357149124" lon="12.368251075968146">
        <ele>1389.72</ele>
        <time>2017-03-12T13:47:23Z</time>
      </trkpt>
      <trkpt lat="46.692712185904384" lon="12.368219057098031">
        <ele>1388.76</ele>
        <time>2017-03-12T13:47:26Z</time>
      </trkpt>
      <trkpt lat="46.69268511235714" lon="12.368054185062647">
        <ele>1386.3599999999999</ele>
        <time>2017-03-12T13:47:36Z</time>
      </trkpt>
      <trkpt lat="46.692646890878677" lon="12.367884116247296">
        <ele>1384.4400000000001</ele>
        <time>2017-03-12T13:47:47Z</time>
      </trkpt>
      <trkpt lat="46.692578159272671" lon="12.367727961391211">
        <ele>1382.03</ele>
        <time>2017-03-12T13:47:58Z</time>
      </trkpt>
      <trkpt lat="46.692500542849302" lon="12.36760382540524">
        <ele>1380.1099999999999</ele>
        <time>2017-03-12T13:48:07Z</time>
      </trkpt>
      <trkpt lat="46.69238562695682" lon="12.367498632520437">
        <ele>1377.71</ele>
        <time>2017-03-12T13:48:19Z</time>
      </trkpt>
      <trkpt lat="46.692266771569848" lon="12.367332419380546">
        <ele>1374.3399999999999</ele>
        <time>2017-03-12T13:48:33Z</time>
      </trkpt>
      <trkpt lat="46.692225951701403" lon="12.367111975327134">
        <ele>1371.9400000000001</ele>
        <time>2017-03-12T13:48:46Z</time>
      </trkpt>
      <trkpt lat="46.692212875932455" lon="12.366910390555859">
        <ele>1370.02</ele>
        <time>2017-03-12T13:48:58Z</time>
      </trkpt>
      <trkpt lat="46.692211618646979" lon="12.366896476596594">
        <ele>1369.54</ele>
        <time>2017-03-12T13:48:59Z</time>
      </trkpt>
      <trkpt lat="46.692193597555161" lon="12.366802766919136">
        <ele>1368.5699999999999</ele>
        <time>2017-03-12T13:49:06Z</time>
      </trkpt>
      <trkpt lat="46.69216769747436" lon="12.366570588201284">
        <ele>1366.1700000000001</ele>
        <time>2017-03-12T13:49:19Z</time>
      </trkpt>
      <trkpt lat="46.692157555371523" lon="12.366527589038014">
        <ele>1365.6900000000001</ele>
        <time>2017-03-12T13:49:22Z</time>
      </trkpt>
      <trkpt lat="46.692078514024615" lon="12.366341426968575">
        <ele>1364.25</ele>
        <time>2017-03-12T13:49:36Z</time>
      </trkpt>
      <trkpt lat="46.691980948671699" lon="12.366196503862739">
        <ele>1362.8099999999999</ele>
        <time>2017-03-12T13:49:47Z</time>
      </trkpt>
      <trkpt lat="46.691871732473373" lon="12.366051664575934">
        <ele>1360.8800000000001</ele>
        <time>2017-03-12T13:49:59Z</time>
      </trkpt>
      <trkpt lat="46.691777436062694" lon="12.365907998755574">
        <ele>1359.9200000000001</ele>
        <time>2017-03-12T13:50:11Z</time>
      </trkpt>
      <trkpt lat="46.691702334210277" lon="12.36571135930717">
        <ele>1358.48</ele>
        <time>2017-03-12T13:50:23Z</time>
      </trkpt>
      <trkpt lat="46.69165120460093" lon="12.365618152543902">
        <ele>1357.52</ele>
        <time>2017-03-12T13:50:29Z</time>
      </trkpt>
      <trkpt lat="46.691631926223636" lon="12.365557216107845">
        <ele>1357.04</ele>
        <time>2017-03-12T13:50:33Z</time>
      </trkpt>
      <trkpt lat="46.691493708640337" lon="12.365469122305512">
        <ele>1354.6300000000001</ele>
        <time>2017-03-12T13:50:46Z</time>
      </trkpt>
      <trkpt lat="46.691398741677403" lon="12.365377508103848">
        <ele>1353.6700000000001</ele>
        <time>2017-03-12T13:50:56Z</time>
      </trkpt>
      <trkpt lat="46.691298242658377" lon="12.365440959110856">
        <ele>1352.71</ele>
        <time>2017-03-12T13:51:05Z</time>
      </trkpt>
      <trkpt lat="46.691202605143189" lon="12.365533076226711">
        <ele>1351.75</ele>
        <time>2017-03-12T13:51:16Z</time>
      </trkpt>
      <trkpt lat="46.691136052832007" lon="12.365609100088477">
        <ele>1351.27</ele>
        <time>2017-03-12T13:51:24Z</time>
      </trkpt>
      <trkpt lat="46.691083833575249" lon="12.365630222484469">
        <ele>1351.27</ele>
        <time>2017-03-12T13:51:33Z</time>
      </trkpt>
      <trkpt lat="46.690981658175588" lon="12.365709515288472">
        <ele>1350.79</ele>
        <time>2017-03-12T13:51:45Z</time>
      </trkpt>
      <trkpt lat="46.690923990681767" lon="12.365778582170606">
        <ele>1350.79</ele>
        <time>2017-03-12T13:51:53Z</time>
      </trkpt>
      <trkpt lat="46.69090798124671" lon="12.365803308784962">
        <ele>1350.79</ele>
        <time>2017-03-12T13:51:55Z</time>
      </trkpt>
    </trkseg>
  </trk>

  <trk>
    <name>rifugio sennes da s uberto2017-03-10</name>
    <extensions>
      <gpxx:TrackExtension>
        <gpxx:DisplayColor>Yellow</gpxx:DisplayColor>
      </gpxx:TrackExtension>
      <gpxtrkx:TrackStatsExtension xmlns:gpxtrkx="http://www.garmin.com/xmlschemas/TrackStatsExtension/v1">
        <gpxtrkx:Distance>22172</gpxtrkx:Distance>
        <gpxtrkx:TotalElapsedTime>30106</gpxtrkx:TotalElapsedTime>
        <gpxtrkx:MovingTime>21207</gpxtrkx:MovingTime>
        <gpxtrkx:StoppedTime>8887</gpxtrkx:StoppedTime>
        <gpxtrkx:MovingSpeed>1</gpxtrkx:MovingSpeed>
        <gpxtrkx:MaxSpeed>3</gpxtrkx:MaxSpeed>
        <gpxtrkx:MaxElevation>2150</gpxtrkx:MaxElevation>
        <gpxtrkx:MinElevation>1429</gpxtrkx:MinElevation>
        <gpxtrkx:Ascent>910</gpxtrkx:Ascent>
        <gpxtrkx:Descent>930</gpxtrkx:Descent>
        <gpxtrkx:AvgAscentRate>0</gpxtrkx:AvgAscentRate>
        <gpxtrkx:MaxAscentRate>0</gpxtrkx:MaxAscentRate>
        <gpxtrkx:AvgDescentRate>0</gpxtrkx:AvgDescentRate>
        <gpxtrkx:MaxDescentRate>-1</gpxtrkx:MaxDescentRate>
      </gpxtrkx:TrackStatsExtension>
    </extensions>
    <trkseg>
      <trkpt lat="46.602831026539207" lon="12.106580045074224">
        <ele>1451.73</ele>
        <time>2017-03-10T07:58:32Z</time>
      </trkpt>
      <trkpt lat="46.602839324623346" lon="12.106573507189751">
        <ele>1451.73</ele>
        <time>2017-03-10T07:58:33Z</time>
      </trkpt>
      <trkpt lat="46.602869499474764" lon="12.106548529118299">
        <ele>1445.96</ele>
        <time>2017-03-10T07:58:36Z</time>
      </trkpt>
      <trkpt lat="46.602877294644713" lon="12.106541655957699">
        <ele>1445.96</ele>
        <time>2017-03-10T07:58:37Z</time>
      </trkpt>
      <trkpt lat="46.602990953251719" lon="12.106466721743345">
        <ele>1447.8800000000001</ele>
        <time>2017-03-10T07:58:51Z</time>
      </trkpt>
      <trkpt lat="46.603066055104136" lon="12.106375861912966">
        <ele>1449.8099999999999</ele>
        <time>2017-03-10T07:59:05Z</time>
      </trkpt>
      <trkpt lat="46.603098157793283" lon="12.106317188590765">
        <ele>1450.29</ele>
        <time>2017-03-10T07:59:11Z</time>
      </trkpt>
      <trkpt lat="46.603096229955554" lon="12.106225742027164">
        <ele>1451.73</ele>
        <time>2017-03-10T07:59:17Z</time>
      </trkpt>
      <trkpt lat="46.603178707882762" lon="12.106201350688934">
        <ele>1452.6900000000001</ele>
        <time>2017-03-10T07:59:28Z</time>
      </trkpt>
      <trkpt lat="46.603175774216652" lon="12.106254072859883">
        <ele>1451.73</ele>
        <time>2017-03-10T07:59:44Z</time>
      </trkpt>
      <trkpt lat="46.603164374828339" lon="12.106260778382421">
        <ele>1451.25</ele>
        <time>2017-03-10T08:00:04Z</time>
      </trkpt>
      <trkpt lat="46.603201255202293" lon="12.106248708441854">
        <ele>1451.25</ele>
        <time>2017-03-10T08:00:22Z</time>
      </trkpt>
      <trkpt lat="46.603198237717152" lon="12.106260526925325">
        <ele>1453.6500000000001</ele>
        <time>2017-03-10T08:00:31Z</time>
      </trkpt>
      <trkpt lat="46.603182563558221" lon="12.106261532753706">
        <ele>1454.1300000000001</ele>
        <time>2017-03-10T08:00:43Z</time>
      </trkpt>
      <trkpt lat="46.603205865249038" lon="12.106221215799451">
        <ele>1452.21</ele>
        <time>2017-03-10T08:00:58Z</time>
      </trkpt>
      <trkpt lat="46.603228496387601" lon="12.106190538033843">
        <ele>1452.6900000000001</ele>
        <time>2017-03-10T08:01:09Z</time>
      </trkpt>
      <trkpt lat="46.603288594633341" lon="12.106112251058221">
        <ele>1454.6099999999999</ele>
        <time>2017-03-10T08:01:19Z</time>
      </trkpt>
      <trkpt lat="46.603294545784593" lon="12.106102192774415">
        <ele>1454.6099999999999</ele>
        <time>2017-03-10T08:01:20Z</time>
      </trkpt>
      <trkpt lat="46.603366043418646" lon="12.106052404269576">
        <ele>1456.05</ele>
        <time>2017-03-10T08:01:30Z</time>
      </trkpt>
      <trkpt lat="46.603385657072067" lon="12.105982834473252">
        <ele>1456.53</ele>
        <time>2017-03-10T08:01:36Z</time>
      </trkpt>
      <trkpt lat="46.603451874107122" lon="12.105931034311652">
        <ele>1457.02</ele>
        <time>2017-03-10T08:01:44Z</time>
      </trkpt>
      <trkpt lat="46.60348255187273" lon="12.105874205008149">
        <ele>1457.5</ele>
        <time>2017-03-10T08:01:54Z</time>
      </trkpt>
      <trkpt lat="46.603506943210959" lon="12.105906810611486">
        <ele>1457.5</ele>
        <time>2017-03-10T08:02:06Z</time>
      </trkpt>
      <trkpt lat="46.603495124727488" lon="12.10591871291399">
        <ele>1457.02</ele>
        <time>2017-03-10T08:02:25Z</time>
      </trkpt>
      <trkpt lat="46.603500740602612" lon="12.105940086767077">
        <ele>1456.05</ele>
        <time>2017-03-10T08:02:48Z</time>
      </trkpt>
      <trkpt lat="46.603491436690092" lon="12.105884095653892">
        <ele>1456.53</ele>
        <time>2017-03-10T08:03:06Z</time>
      </trkpt>
      <trkpt lat="46.60355681553483" lon="12.105768760666251">
        <ele>1458.46</ele>
        <time>2017-03-10T08:03:15Z</time>
      </trkpt>
      <trkpt lat="46.603635773062706" lon="12.105703549459577">
        <ele>1459.4200000000001</ele>
        <time>2017-03-10T08:03:24Z</time>
      </trkpt>
      <trkpt lat="46.603702828288078" lon="12.105675553902984">
        <ele>1459.4200000000001</ele>
        <time>2017-03-10T08:03:35Z</time>
      </trkpt>
      <trkpt lat="46.603778768330812" lon="12.105648228898644">
        <ele>1461.8199999999999</ele>
        <time>2017-03-10T08:03:45Z</time>
      </trkpt>
      <trkpt lat="46.603846242651343" lon="12.105607325211167">
        <ele>1463.74</ele>
        <time>2017-03-10T08:03:55Z</time>
      </trkpt>
      <trkpt lat="46.603913381695747" lon="12.105575054883957">
        <ele>1464.71</ele>
        <time>2017-03-10T08:04:08Z</time>
      </trkpt>
      <trkpt lat="46.603979011997581" lon="12.105529792606831">
        <ele>1465.6700000000001</ele>
        <time>2017-03-10T08:04:16Z</time>
      </trkpt>
      <trkpt lat="46.604043720290065" lon="12.105523506179452">
        <ele>1467.1099999999999</ele>
        <time>2017-03-10T08:04:25Z</time>
      </trkpt>
      <trkpt lat="46.60414120182395" lon="12.1055175550282">
        <ele>1469.03</ele>
        <time>2017-03-10T08:04:36Z</time>
      </trkpt>
      <trkpt lat="46.604249412193894" lon="12.105503305792809">
        <ele>1469.99</ele>
        <time>2017-03-10T08:04:47Z</time>
      </trkpt>
      <trkpt lat="46.604328118264675" lon="12.105485033243895">
        <ele>1470.95</ele>
        <time>2017-03-10T08:04:57Z</time>
      </trkpt>
      <trkpt lat="46.604410177096725" lon="12.10546039044857">
        <ele>1472.4000000000001</ele>
        <time>2017-03-10T08:05:08Z</time>
      </trkpt>
      <trkpt lat="46.604480585083365" lon="12.105432646349072">
        <ele>1473.8399999999999</ele>
        <time>2017-03-10T08:05:20Z</time>
      </trkpt>
      <trkpt lat="46.604549400508404" lon="12.105386462062597">
        <ele>1474.8</ele>
        <time>2017-03-10T08:05:30Z</time>
      </trkpt>
      <trkpt lat="46.604612600058317" lon="12.105308175086975">
        <ele>1476.24</ele>
        <time>2017-03-10T08:05:41Z</time>
      </trkpt>
      <trkpt lat="46.604657527059317" lon="12.105276826769114">
        <ele>1477.6800000000001</ele>
        <time>2017-03-10T08:05:51Z</time>
      </trkpt>
      <trkpt lat="46.60472022369504" lon="12.105226702988148">
        <ele>1480.0899999999999</ele>
        <time>2017-03-10T08:06:03Z</time>
      </trkpt>
      <trkpt lat="46.604724079370499" lon="12.10522485896945">
        <ele>1480.0899999999999</ele>
        <time>2017-03-10T08:06:04Z</time>
      </trkpt>
      <trkpt lat="46.60480915568769" lon="12.105235671624541">
        <ele>1482.49</ele>
        <time>2017-03-10T08:06:15Z</time>
      </trkpt>
      <trkpt lat="46.604894483461976" lon="12.105272384360433">
        <ele>1484.8900000000001</ele>
        <time>2017-03-10T08:06:26Z</time>
      </trkpt>
      <trkpt lat="46.604954581707716" lon="12.105284119024873">
        <ele>1486.3399999999999</ele>
        <time>2017-03-10T08:06:36Z</time>
      </trkpt>
      <trkpt lat="46.605019541457295" lon="12.105277497321367">
        <ele>1485.8499999999999</ele>
        <time>2017-03-10T08:06:45Z</time>
      </trkpt>
      <trkpt lat="46.605083411559463" lon="12.105248663574457">
        <ele>1486.3399999999999</ele>
        <time>2017-03-10T08:06:57Z</time>
      </trkpt>
      <trkpt lat="46.605138396844268" lon="12.105180267244577">
        <ele>1486.3399999999999</ele>
        <time>2017-03-10T08:07:07Z</time>
      </trkpt>
      <trkpt lat="46.605186173692346" lon="12.105111535638571">
        <ele>1487.78</ele>
        <time>2017-03-10T08:07:17Z</time>
      </trkpt>
      <trkpt lat="46.605198159813881" lon="12.10505235940218">
        <ele>1489.7</ele>
        <time>2017-03-10T08:07:27Z</time>
      </trkpt>
      <trkpt lat="46.60523378290236" lon="12.104946244508028">
        <ele>1490.1800000000001</ele>
        <time>2017-03-10T08:07:41Z</time>
      </trkpt>
      <trkpt lat="46.605287929996848" lon="12.104894360527396">
        <ele>1491.6199999999999</ele>
        <time>2017-03-10T08:07:52Z</time>
      </trkpt>
      <trkpt lat="46.605336461216211" lon="12.104833507910371">
        <ele>1493.55</ele>
        <time>2017-03-10T08:08:03Z</time>
      </trkpt>
      <trkpt lat="46.605395302176476" lon="12.104751951992512">
        <ele>1495.95</ele>
        <time>2017-03-10T08:08:16Z</time>
      </trkpt>
      <trkpt lat="46.60543218255043" lon="12.104655727744102">
        <ele>1497.3900000000001</ele>
        <time>2017-03-10T08:08:25Z</time>
      </trkpt>
      <trkpt lat="46.605468392372131" lon="12.104552630335093">
        <ele>1499.79</ele>
        <time>2017-03-10T08:08:38Z</time>
      </trkpt>
      <trkpt lat="46.605490352958441" lon="12.104448862373829">
        <ele>1500.76</ele>
        <time>2017-03-10T08:08:50Z</time>
      </trkpt>
      <trkpt lat="46.605550199747086" lon="12.104398990049958">
        <ele>1501.24</ele>
        <time>2017-03-10T08:08:59Z</time>
      </trkpt>
      <trkpt lat="46.605594456195831" lon="12.104319361969829">
        <ele>1502.2</ele>
        <time>2017-03-10T08:09:09Z</time>
      </trkpt>
      <trkpt lat="46.605612644925714" lon="12.104308800771832">
        <ele>1502.2</ele>
        <time>2017-03-10T08:09:12Z</time>
      </trkpt>
      <trkpt lat="46.605683472007513" lon="12.104249456897378">
        <ele>1503.1600000000001</ele>
        <time>2017-03-10T08:09:23Z</time>
      </trkpt>
      <trkpt lat="46.605707695707679" lon="12.104207966476679">
        <ele>1504.5999999999999</ele>
        <time>2017-03-10T08:09:33Z</time>
      </trkpt>
      <trkpt lat="46.605744324624538" lon="12.104113418608904">
        <ele>1505.5599999999999</ele>
        <time>2017-03-10T08:09:42Z</time>
      </trkpt>
      <trkpt lat="46.605769721791148" lon="12.104047704488039">
        <ele>1506.04</ele>
        <time>2017-03-10T08:09:48Z</time>
      </trkpt>
      <trkpt lat="46.605792688205838" lon="12.103973524644971">
        <ele>1507.48</ele>
        <time>2017-03-10T08:09:58Z</time>
      </trkpt>
      <trkpt lat="46.605791095644236" lon="12.103836396709085">
        <ele>1507.97</ele>
        <time>2017-03-10T08:10:10Z</time>
      </trkpt>
      <trkpt lat="46.605768129229546" lon="12.103737071156502">
        <ele>1509.4100000000001</ele>
        <time>2017-03-10T08:10:20Z</time>
      </trkpt>
      <trkpt lat="46.605781288817525" lon="12.10366222076118">
        <ele>1511.3299999999999</ele>
        <time>2017-03-10T08:10:29Z</time>
      </trkpt>
      <trkpt lat="46.605785563588142" lon="12.103584017604589">
        <ele>1513.25</ele>
        <time>2017-03-10T08:10:38Z</time>
      </trkpt>
      <trkpt lat="46.605806853622198" lon="12.103498270735145">
        <ele>1516.1400000000001</ele>
        <time>2017-03-10T08:10:47Z</time>
      </trkpt>
      <trkpt lat="46.60582160577178" lon="12.103371452540159">
        <ele>1518.54</ele>
        <time>2017-03-10T08:10:57Z</time>
      </trkpt>
      <trkpt lat="46.60586116835475" lon="12.103258213028312">
        <ele>1520.46</ele>
        <time>2017-03-10T08:11:10Z</time>
      </trkpt>
      <trkpt lat="46.605895031243563" lon="12.10314380005002">
        <ele>1521.4200000000001</ele>
        <time>2017-03-10T08:11:20Z</time>
      </trkpt>
      <trkpt lat="46.605908693745732" lon="12.10304849781096">
        <ele>1522.8699999999999</ele>
        <time>2017-03-10T08:11:30Z</time>
      </trkpt>
      <trkpt lat="46.6059276368469" lon="12.102954452857375">
        <ele>1523.3499999999999</ele>
        <time>2017-03-10T08:11:40Z</time>
      </trkpt>
      <trkpt lat="46.605929480865598" lon="12.102848421782255">
        <ele>1522.8699999999999</ele>
        <time>2017-03-10T08:11:48Z</time>
      </trkpt>
      <trkpt lat="46.605953872203827" lon="12.102748760953546">
        <ele>1523.3499999999999</ele>
        <time>2017-03-10T08:11:58Z</time>
      </trkpt>
      <trkpt lat="46.605965103954077" lon="12.102663768455386">
        <ele>1524.3099999999999</ele>
        <time>2017-03-10T08:12:07Z</time>
      </trkpt>
      <trkpt lat="46.606000894680619" lon="12.10268983617425">
        <ele>1524.79</ele>
        <time>2017-03-10T08:12:20Z</time>
      </trkpt>
      <trkpt lat="46.606006594374776" lon="12.102603251114488">
        <ele>1525.27</ele>
        <time>2017-03-10T08:12:28Z</time>
      </trkpt>
      <trkpt lat="46.606012210249901" lon="12.102485066279769">
        <ele>1527.1900000000001</ele>
        <time>2017-03-10T08:12:40Z</time>
      </trkpt>
      <trkpt lat="46.606005672365427" lon="12.102457992732525">
        <ele>1527.6700000000001</ele>
        <time>2017-03-10T08:12:52Z</time>
      </trkpt>
      <trkpt lat="46.606014054268599" lon="12.102439804002643">
        <ele>1528.1500000000001</ele>
        <time>2017-03-10T08:13:00Z</time>
      </trkpt>
      <trkpt lat="46.606054790318012" lon="12.102350033819675">
        <ele>1529.5899999999999</ele>
        <time>2017-03-10T08:13:10Z</time>
      </trkpt>
      <trkpt lat="46.60610600374639" lon="12.102209804579616">
        <ele>1530.5599999999999</ele>
        <time>2017-03-10T08:13:22Z</time>
      </trkpt>
      <trkpt lat="46.606105417013168" lon="12.102091033011675">
        <ele>1530.5599999999999</ele>
        <time>2017-03-10T08:13:32Z</time>
      </trkpt>
      <trkpt lat="46.606116816401482" lon="12.102008974179626">
        <ele>1532</ele>
        <time>2017-03-10T08:13:39Z</time>
      </trkpt>
      <trkpt lat="46.606160569936037" lon="12.101886346936226">
        <ele>1532</ele>
        <time>2017-03-10T08:13:51Z</time>
      </trkpt>
      <trkpt lat="46.606179848313332" lon="12.101792301982641">
        <ele>1533.4400000000001</ele>
        <time>2017-03-10T08:14:01Z</time>
      </trkpt>
      <trkpt lat="46.606191750615835" lon="12.101696329191327">
        <ele>1534.8800000000001</ele>
        <time>2017-03-10T08:14:11Z</time>
      </trkpt>
      <trkpt lat="46.606254950165749" lon="12.101615946739912">
        <ele>1534.8800000000001</ele>
        <time>2017-03-10T08:14:22Z</time>
      </trkpt>
      <trkpt lat="46.60634832456708" lon="12.101527685299516">
        <ele>1535.8399999999999</ele>
        <time>2017-03-10T08:14:33Z</time>
      </trkpt>
      <trkpt lat="46.606397526338696" lon="12.10145752876997">
        <ele>1537.29</ele>
        <time>2017-03-10T08:14:42Z</time>
      </trkpt>
      <trkpt lat="46.606451505795121" lon="12.101372536271811">
        <ele>1537.77</ele>
        <time>2017-03-10T08:14:52Z</time>
      </trkpt>
      <trkpt lat="46.60649592988193" lon="12.101308247074485">
        <ele>1539.21</ele>
        <time>2017-03-10T08:15:00Z</time>
      </trkpt>
      <trkpt lat="46.606561057269573" lon="12.101217554882169">
        <ele>1540.6500000000001</ele>
        <time>2017-03-10T08:15:10Z</time>
      </trkpt>
      <trkpt lat="46.606634398922324" lon="12.10114479996264">
        <ele>1541.1300000000001</ele>
        <time>2017-03-10T08:15:21Z</time>
      </trkpt>
      <trkpt lat="46.606701286509633" lon="12.101080007851124">
        <ele>1542.0899999999999</ele>
        <time>2017-03-10T08:15:33Z</time>
      </trkpt>
      <trkpt lat="46.60671922378242" lon="12.101045390591025">
        <ele>1542.5699999999999</ele>
        <time>2017-03-10T08:15:45Z</time>
      </trkpt>
      <trkpt lat="46.606705980375409" lon="12.101013204082847">
        <ele>1543.05</ele>
        <time>2017-03-10T08:16:02Z</time>
      </trkpt>
      <trkpt lat="46.606728695333004" lon="12.100978754460812">
        <ele>1543.53</ele>
        <time>2017-03-10T08:16:08Z</time>
      </trkpt>
      <trkpt lat="46.606767252087593" lon="12.100964337587357">
        <ele>1544.01</ele>
        <time>2017-03-10T08:16:20Z</time>
      </trkpt>
      <trkpt lat="46.60677345469594" lon="12.100940868258476">
        <ele>1544.5</ele>
        <time>2017-03-10T08:16:31Z</time>
      </trkpt>
      <trkpt lat="46.606814190745354" lon="12.100866185501218">
        <ele>1544.5</ele>
        <time>2017-03-10T08:16:42Z</time>
      </trkpt>
      <trkpt lat="46.606844700872898" lon="12.100798543542624">
        <ele>1545.9400000000001</ele>
        <time>2017-03-10T08:16:51Z</time>
      </trkpt>
      <trkpt lat="46.606890885159373" lon="12.100730985403061">
        <ele>1545.9400000000001</ele>
        <time>2017-03-10T08:17:02Z</time>
      </trkpt>
      <trkpt lat="46.606916701421142" lon="12.10065571591258">
        <ele>1547.3800000000001</ele>
        <time>2017-03-10T08:17:12Z</time>
      </trkpt>
      <trkpt lat="46.606978056952357" lon="12.100626127794385">
        <ele>1549.3</ele>
        <time>2017-03-10T08:17:20Z</time>
      </trkpt>
      <trkpt lat="46.607059361413121" lon="12.10062000900507">
        <ele>1550.74</ele>
        <time>2017-03-10T08:17:31Z</time>
      </trkpt>
      <trkpt lat="46.607136474922299" lon="12.10061120800674">
        <ele>1551.71</ele>
        <time>2017-03-10T08:17:41Z</time>
      </trkpt>
      <trkpt lat="46.607214510440826" lon="12.100614728406072">
        <ele>1552.1900000000001</ele>
        <time>2017-03-10T08:17:51Z</time>
      </trkpt>
      <trkpt lat="46.60728114657104" lon="12.100596036761999">
        <ele>1553.1500000000001</ele>
        <time>2017-03-10T08:18:00Z</time>
      </trkpt>
      <trkpt lat="46.607360187917948" lon="12.100577596575022">
        <ele>1555.0699999999999</ele>
        <time>2017-03-10T08:18:13Z</time>
      </trkpt>
      <trkpt lat="46.607446270063519" lon="12.100564939901233">
        <ele>1555.0699999999999</ele>
        <time>2017-03-10T08:18:25Z</time>
      </trkpt>
      <trkpt lat="46.607508966699243" lon="12.100534681230783">
        <ele>1556.03</ele>
        <time>2017-03-10T08:18:34Z</time>
      </trkpt>
      <trkpt lat="46.607608292251825" lon="12.100504674017429">
        <ele>1557.47</ele>
        <time>2017-03-10T08:18:46Z</time>
      </trkpt>
      <trkpt lat="46.607702588662505" lon="12.100490760058165">
        <ele>1558.4300000000001</ele>
        <time>2017-03-10T08:18:57Z</time>
      </trkpt>
      <trkpt lat="46.607783893123269" lon="12.100450107827783">
        <ele>1559.4000000000001</ele>
        <time>2017-03-10T08:19:07Z</time>
      </trkpt>
      <trkpt lat="46.607871819287539" lon="12.100435607135296">
        <ele>1559.8800000000001</ele>
        <time>2017-03-10T08:19:17Z</time>
      </trkpt>
      <trkpt lat="46.607962679117918" lon="12.10037374868989">
        <ele>1561.3199999999999</ele>
        <time>2017-03-10T08:19:26Z</time>
      </trkpt>
      <trkpt lat="46.607987154275179" lon="12.100338712334633">
        <ele>1561.8</ele>
        <time>2017-03-10T08:19:30Z</time>
      </trkpt>
      <trkpt lat="46.608045324683189" lon="12.100228574126959">
        <ele>1561.8</ele>
        <time>2017-03-10T08:19:40Z</time>
      </trkpt>
      <trkpt lat="46.608129227533937" lon="12.100059594959021">
        <ele>1561.8</ele>
        <time>2017-03-10T08:19:53Z</time>
      </trkpt>
      <trkpt lat="46.608172561973333" lon="12.100006537511945">
        <ele>1561.8</ele>
        <time>2017-03-10T08:19:59Z</time>
      </trkpt>
      <trkpt lat="46.608239449560642" lon="12.099951803684235">
        <ele>1562.28</ele>
        <time>2017-03-10T08:20:05Z</time>
      </trkpt>
      <trkpt lat="46.608308264985681" lon="12.09991442039609">
        <ele>1561.8</ele>
        <time>2017-03-10T08:20:13Z</time>
      </trkpt>
      <trkpt lat="46.608397783711553" lon="12.099826075136662">
        <ele>1561.8</ele>
        <time>2017-03-10T08:20:22Z</time>
      </trkpt>
      <trkpt lat="46.60847632214427" lon="12.099713506177068">
        <ele>1562.76</ele>
        <time>2017-03-10T08:20:34Z</time>
      </trkpt>
      <trkpt lat="46.608507921919227" lon="12.09956900216639">
        <ele>1562.76</ele>
        <time>2017-03-10T08:20:43Z</time>
      </trkpt>
      <trkpt lat="46.608525440096855" lon="12.099504545331001">
        <ele>1563.24</ele>
        <time>2017-03-10T08:20:49Z</time>
      </trkpt>
      <trkpt lat="46.608532648533583" lon="12.099445788189769">
        <ele>1563.24</ele>
        <time>2017-03-10T08:20:53Z</time>
      </trkpt>
      <trkpt lat="46.608580928295851" lon="12.099305391311646">
        <ele>1563.24</ele>
        <time>2017-03-10T08:21:02Z</time>
      </trkpt>
      <trkpt lat="46.608643205836415" lon="12.099150326102972">
        <ele>1563.24</ele>
        <time>2017-03-10T08:21:13Z</time>
      </trkpt>
      <trkpt lat="46.608715793117881" lon="12.099006241187453">
        <ele>1562.76</ele>
        <time>2017-03-10T08:21:24Z</time>
      </trkpt>
      <trkpt lat="46.608803300186992" lon="12.098855953663588">
        <ele>1562.28</ele>
        <time>2017-03-10T08:21:36Z</time>
      </trkpt>
      <trkpt lat="46.608887286856771" lon="12.098713964223862">
        <ele>1562.76</ele>
        <time>2017-03-10T08:21:49Z</time>
      </trkpt>
      <trkpt lat="46.608973285183311" lon="12.098616817966104">
        <ele>1562.76</ele>
        <time>2017-03-10T08:22:00Z</time>
      </trkpt>
      <trkpt lat="46.60899574868381" lon="12.098635090515018">
        <ele>1563.24</ele>
        <time>2017-03-10T08:22:09Z</time>
      </trkpt>
      <trkpt lat="46.609042268246412" lon="12.098583457991481">
        <ele>1563.24</ele>
        <time>2017-03-10T08:22:17Z</time>
      </trkpt>
      <trkpt lat="46.609161794185638" lon="12.098517827689648">
        <ele>1562.76</ele>
        <time>2017-03-10T08:22:30Z</time>
      </trkpt>
      <trkpt lat="46.609290624037385" lon="12.098484802991152">
        <ele>1563.24</ele>
        <time>2017-03-10T08:22:42Z</time>
      </trkpt>
      <trkpt lat="46.609421549364924" lon="12.098467368632555">
        <ele>1562.76</ele>
        <time>2017-03-10T08:22:54Z</time>
      </trkpt>
      <trkpt lat="46.609552893787622" lon="12.098440043628216">
        <ele>1562.28</ele>
        <time>2017-03-10T08:23:08Z</time>
      </trkpt>
      <trkpt lat="46.609635120257735" lon="12.098420346155763">
        <ele>1562.28</ele>
        <time>2017-03-10T08:23:18Z</time>
      </trkpt>
      <trkpt lat="46.609739474952221" lon="12.098394110798836">
        <ele>1562.28</ele>
        <time>2017-03-10T08:23:28Z</time>
      </trkpt>
      <trkpt lat="46.609854055568576" lon="12.098373742774129">
        <ele>1561.8</ele>
        <time>2017-03-10T08:23:39Z</time>
      </trkpt>
      <trkpt lat="46.60995245911181" lon="12.098334766924381">
        <ele>1561.3199999999999</ele>
        <time>2017-03-10T08:23:49Z</time>
      </trkpt>
      <trkpt lat="46.61005555652082" lon="12.098281541839242">
        <ele>1561.3199999999999</ele>
        <time>2017-03-10T08:23:59Z</time>
      </trkpt>
      <trkpt lat="46.610155804082751" lon="12.098249187693">
        <ele>1560.8399999999999</ele>
        <time>2017-03-10T08:24:09Z</time>
      </trkpt>
      <trkpt lat="46.610183380544186" lon="12.098238542675972">
        <ele>1560.3599999999999</ele>
        <time>2017-03-10T08:24:12Z</time>
      </trkpt>
      <trkpt lat="46.61028865724802" lon="12.098225802183151">
        <ele>1560.8399999999999</ele>
        <time>2017-03-10T08:24:22Z</time>
      </trkpt>
      <trkpt lat="46.61030039191246" lon="12.098226137459278">
        <ele>1560.8399999999999</ele>
        <time>2017-03-10T08:24:23Z</time>
      </trkpt>
      <trkpt lat="46.610388066619635" lon="12.098214318975806">
        <ele>1561.3199999999999</ele>
        <time>2017-03-10T08:24:31Z</time>
      </trkpt>
      <trkpt lat="46.610482195392251" lon="12.098207781091332">
        <ele>1560.3599999999999</ele>
        <time>2017-03-10T08:24:41Z</time>
      </trkpt>
      <trkpt lat="46.610583700239658" lon="12.098227562382817">
        <ele>1557.95</ele>
        <time>2017-03-10T08:24:51Z</time>
      </trkpt>
      <trkpt lat="46.610689396038651" lon="12.098237201571465">
        <ele>1555.55</ele>
        <time>2017-03-10T08:25:02Z</time>
      </trkpt>
      <trkpt lat="46.610701717436314" lon="12.098237536847591">
        <ele>1555.55</ele>
        <time>2017-03-10T08:25:03Z</time>
      </trkpt>
      <trkpt lat="46.610820908099413" lon="12.098246337845922">
        <ele>1557.47</ele>
        <time>2017-03-10T08:25:16Z</time>
      </trkpt>
      <trkpt lat="46.610840605571866" lon="12.098249271512032">
        <ele>1557.95</ele>
        <time>2017-03-10T08:25:18Z</time>
      </trkpt>
      <trkpt lat="46.610932555049658" lon="12.098204176872969">
        <ele>1558.9200000000001</ele>
        <time>2017-03-10T08:25:30Z</time>
      </trkpt>
      <trkpt lat="46.611059457063675" lon="12.098194118589163">
        <ele>1559.8800000000001</ele>
        <time>2017-03-10T08:25:42Z</time>
      </trkpt>
      <trkpt lat="46.611177558079362" lon="12.098215324804187">
        <ele>1560.3599999999999</ele>
        <time>2017-03-10T08:25:55Z</time>
      </trkpt>
      <trkpt lat="46.611275793984532" lon="12.098181797191501">
        <ele>1560.8399999999999</ele>
        <time>2017-03-10T08:26:05Z</time>
      </trkpt>
      <trkpt lat="46.611364558339119" lon="12.098171906545758">
        <ele>1560.8399999999999</ele>
        <time>2017-03-10T08:26:14Z</time>
      </trkpt>
      <trkpt lat="46.611414682120085" lon="12.098176013678312">
        <ele>1560.8399999999999</ele>
        <time>2017-03-10T08:26:20Z</time>
      </trkpt>
      <trkpt lat="46.611521383747458" lon="12.098181210458279">
        <ele>1562.28</ele>
        <time>2017-03-10T08:26:31Z</time>
      </trkpt>
      <trkpt lat="46.611602688208222" lon="12.09816612303257">
        <ele>1561.8</ele>
        <time>2017-03-10T08:26:40Z</time>
      </trkpt>
      <trkpt lat="46.611630767583847" lon="12.098150951787829">
        <ele>1561.8</ele>
        <time>2017-03-10T08:26:43Z</time>
      </trkpt>
      <trkpt lat="46.611725483089685" lon="12.098094876855612">
        <ele>1562.28</ele>
        <time>2017-03-10T08:26:52Z</time>
      </trkpt>
      <trkpt lat="46.611802596598864" lon="12.098016757518053">
        <ele>1562.76</ele>
        <time>2017-03-10T08:27:02Z</time>
      </trkpt>
      <trkpt lat="46.611881721764803" lon="12.098005777224898">
        <ele>1564.2</ele>
        <time>2017-03-10T08:27:12Z</time>
      </trkpt>
      <trkpt lat="46.611972833052278" lon="12.097984403371811">
        <ele>1564.2</ele>
        <time>2017-03-10T08:27:23Z</time>
      </trkpt>
      <trkpt lat="46.612043157219887" lon="12.097934866324067">
        <ele>1565.6400000000001</ele>
        <time>2017-03-10T08:27:33Z</time>
      </trkpt>
      <trkpt lat="46.612103590741754" lon="12.097904859110713">
        <ele>1566.1199999999999</ele>
        <time>2017-03-10T08:27:40Z</time>
      </trkpt>
      <trkpt lat="46.612151619046926" lon="12.097896309569478">
        <ele>1566.1199999999999</ele>
        <time>2017-03-10T08:27:46Z</time>
      </trkpt>
      <trkpt lat="46.612213645130396" lon="12.09786613471806">
        <ele>1565.6400000000001</ele>
        <time>2017-03-10T08:27:52Z</time>
      </trkpt>
      <trkpt lat="46.612319173291326" lon="12.097812658175826">
        <ele>1564.6800000000001</ele>
        <time>2017-03-10T08:28:04Z</time>
      </trkpt>
      <trkpt lat="46.61240198649466" lon="12.09775079973042">
        <ele>1565.6400000000001</ele>
        <time>2017-03-10T08:28:15Z</time>
      </trkpt>
      <trkpt lat="46.612493935972452" lon="12.097664633765817">
        <ele>1565.6400000000001</ele>
        <time>2017-03-10T08:28:27Z</time>
      </trkpt>
      <trkpt lat="46.612577084451914" lon="12.097609816119075">
        <ele>1565.6400000000001</ele>
        <time>2017-03-10T08:28:37Z</time>
      </trkpt>
      <trkpt lat="46.61267364397645" lon="12.097531696781516">
        <ele>1566.6099999999999</ele>
        <time>2017-03-10T08:28:48Z</time>
      </trkpt>
      <trkpt lat="46.612746231257915" lon="12.097435304895043">
        <ele>1567.0899999999999</ele>
        <time>2017-03-10T08:28:58Z</time>
      </trkpt>
      <trkpt lat="46.612808676436543" lon="12.097359029576182">
        <ele>1567.0899999999999</ele>
        <time>2017-03-10T08:29:08Z</time>
      </trkpt>
      <trkpt lat="46.612873552367091" lon="12.097267163917422">
        <ele>1567.5699999999999</ele>
        <time>2017-03-10T08:29:18Z</time>
      </trkpt>
      <trkpt lat="46.612943541258574" lon="12.097180411219597">
        <ele>1568.05</ele>
        <time>2017-03-10T08:29:27Z</time>
      </trkpt>
      <trkpt lat="46.613033479079604" lon="12.097155181691051">
        <ele>1569.01</ele>
        <time>2017-03-10T08:29:37Z</time>
      </trkpt>
      <trkpt lat="46.613102043047547" lon="12.097153086215258">
        <ele>1568.53</ele>
        <time>2017-03-10T08:29:46Z</time>
      </trkpt>
      <trkpt lat="46.613155268132687" lon="12.097154259681702">
        <ele>1568.53</ele>
        <time>2017-03-10T08:29:53Z</time>
      </trkpt>
      <trkpt lat="46.613194663077593" lon="12.097141519188881">
        <ele>1568.53</ele>
        <time>2017-03-10T08:29:58Z</time>
      </trkpt>
      <trkpt lat="46.613230118528008" lon="12.097117882221937">
        <ele>1568.05</ele>
        <time>2017-03-10T08:30:02Z</time>
      </trkpt>
      <trkpt lat="46.613316871225834" lon="12.097115367650986">
        <ele>1567.5699999999999</ele>
        <time>2017-03-10T08:30:11Z</time>
      </trkpt>
      <trkpt lat="46.613460117951035" lon="12.097098100930452">
        <ele>1567.5699999999999</ele>
        <time>2017-03-10T08:30:21Z</time>
      </trkpt>
      <trkpt lat="46.613571932539344" lon="12.097123665735126">
        <ele>1566.1199999999999</ele>
        <time>2017-03-10T08:30:31Z</time>
      </trkpt>
      <trkpt lat="46.613650470972061" lon="12.097151912748814">
        <ele>1566.1199999999999</ele>
        <time>2017-03-10T08:30:38Z</time>
      </trkpt>
      <trkpt lat="46.613754322752357" lon="12.097138585522771">
        <ele>1566.1199999999999</ele>
        <time>2017-03-10T08:30:45Z</time>
      </trkpt>
      <trkpt lat="46.613836633041501" lon="12.097188457846642">
        <ele>1566.1199999999999</ele>
        <time>2017-03-10T08:30:53Z</time>
      </trkpt>
      <trkpt lat="46.613918272778392" lon="12.097196588292718">
        <ele>1565.6400000000001</ele>
        <time>2017-03-10T08:31:02Z</time>
      </trkpt>
      <trkpt lat="46.613936880603433" lon="12.097194576635957">
        <ele>1565.1600000000001</ele>
        <time>2017-03-10T08:31:04Z</time>
      </trkpt>
      <trkpt lat="46.613993123173714" lon="12.097188206389546">
        <ele>1564.6800000000001</ele>
        <time>2017-03-10T08:31:09Z</time>
      </trkpt>
      <trkpt lat="46.614067805930972" lon="12.097190637141466">
        <ele>1564.6800000000001</ele>
        <time>2017-03-10T08:31:17Z</time>
      </trkpt>
      <trkpt lat="46.614161850884557" lon="12.097214525565505">
        <ele>1564.2</ele>
        <time>2017-03-10T08:31:26Z</time>
      </trkpt>
      <trkpt lat="46.614280454814434" lon="12.097236989066005">
        <ele>1564.6800000000001</ele>
        <time>2017-03-10T08:31:38Z</time>
      </trkpt>
      <trkpt lat="46.614382630214095" lon="12.097244951874018">
        <ele>1564.2</ele>
        <time>2017-03-10T08:31:48Z</time>
      </trkpt>
      <trkpt lat="46.614495785906911" lon="12.097266996279359">
        <ele>1563.24</ele>
        <time>2017-03-10T08:31:59Z</time>
      </trkpt>
      <trkpt lat="46.614514729008079" lon="12.097275462001562">
        <ele>1563.24</ele>
        <time>2017-03-10T08:32:01Z</time>
      </trkpt>
      <trkpt lat="46.614615144208074" lon="12.097341176122427">
        <ele>1562.76</ele>
        <time>2017-03-10T08:32:12Z</time>
      </trkpt>
      <trkpt lat="46.614692257717252" lon="12.097394987940788">
        <ele>1562.76</ele>
        <time>2017-03-10T08:32:20Z</time>
      </trkpt>
      <trkpt lat="46.614704243838787" lon="12.097403118386865">
        <ele>1562.76</ele>
        <time>2017-03-10T08:32:21Z</time>
      </trkpt>
      <trkpt lat="46.614778339862823" lon="12.097479561343789">
        <ele>1562.28</ele>
        <time>2017-03-10T08:32:30Z</time>
      </trkpt>
      <trkpt lat="46.614816812798381" lon="12.097524236887693">
        <ele>1562.76</ele>
        <time>2017-03-10T08:32:35Z</time>
      </trkpt>
      <trkpt lat="46.614866266027093" lon="12.09756757132709">
        <ele>1563.72</ele>
        <time>2017-03-10T08:32:41Z</time>
      </trkpt>
      <trkpt lat="46.61490767262876" lon="12.097602356225252">
        <ele>1563.72</ele>
        <time>2017-03-10T08:32:47Z</time>
      </trkpt>
      <trkpt lat="46.614918317645788" lon="12.097606463357806">
        <ele>1564.2</ele>
        <time>2017-03-10T08:32:48Z</time>
      </trkpt>
      <trkpt lat="46.614942792803049" lon="12.097627250477672">
        <ele>1564.2</ele>
        <time>2017-03-10T08:32:51Z</time>
      </trkpt>
      <trkpt lat="46.614999789744616" lon="12.097658179700375">
        <ele>1564.2</ele>
        <time>2017-03-10T08:32:57Z</time>
      </trkpt>
      <trkpt lat="46.615021582692862" lon="12.097663376480341">
        <ele>1564.2</ele>
        <time>2017-03-10T08:32:59Z</time>
      </trkpt>
      <trkpt lat="46.615031473338604" lon="12.097668405622244">
        <ele>1564.6800000000001</ele>
        <time>2017-03-10T08:33:00Z</time>
      </trkpt>
      <trkpt lat="46.615080339834094" lon="12.097681816667318">
        <ele>1564.6800000000001</ele>
        <time>2017-03-10T08:33:05Z</time>
      </trkpt>
      <trkpt lat="46.615163069218397" lon="12.097705788910389">
        <ele>1565.1600000000001</ele>
        <time>2017-03-10T08:33:14Z</time>
      </trkpt>
      <trkpt lat="46.615252420306206" lon="12.097702855244279">
        <ele>1565.6400000000001</ele>
        <time>2017-03-10T08:33:26Z</time>
      </trkpt>
      <trkpt lat="46.615305477753282" lon="12.097735712304711">
        <ele>1566.1199999999999</ele>
        <time>2017-03-10T08:33:34Z</time>
      </trkpt>
      <trkpt lat="46.615388626232743" lon="12.09778550080955">
        <ele>1566.1199999999999</ele>
        <time>2017-03-10T08:33:44Z</time>
      </trkpt>
      <trkpt lat="46.615467080846429" lon="12.097910055890679">
        <ele>1566.6099999999999</ele>
        <time>2017-03-10T08:33:55Z</time>
      </trkpt>
      <trkpt lat="46.615519970655441" lon="12.097955821081996">
        <ele>1567.0899999999999</ele>
        <time>2017-03-10T08:34:01Z</time>
      </trkpt>
      <trkpt lat="46.615587528795004" lon="12.098031006753445">
        <ele>1567.5699999999999</ele>
        <time>2017-03-10T08:34:10Z</time>
      </trkpt>
      <trkpt lat="46.615667911246419" lon="12.098049195483327">
        <ele>1567.5699999999999</ele>
        <time>2017-03-10T08:34:19Z</time>
      </trkpt>
      <trkpt lat="46.615730607882142" lon="12.098052045330405">
        <ele>1569.49</ele>
        <time>2017-03-10T08:34:25Z</time>
      </trkpt>
      <trkpt lat="46.615829095244408" lon="12.098069898784161">
        <ele>1569.97</ele>
        <time>2017-03-10T08:34:35Z</time>
      </trkpt>
      <trkpt lat="46.615924397483468" lon="12.098085824400187">
        <ele>1571.4100000000001</ele>
        <time>2017-03-10T08:34:47Z</time>
      </trkpt>
      <trkpt lat="46.615990865975618" lon="12.098113065585494">
        <ele>1571.4100000000001</ele>
        <time>2017-03-10T08:34:57Z</time>
      </trkpt>
      <trkpt lat="46.616061860695481" lon="12.098168218508363">
        <ele>1573.3299999999999</ele>
        <time>2017-03-10T08:35:06Z</time>
      </trkpt>
      <trkpt lat="46.616072254255414" lon="12.098182467743754">
        <ele>1573.3299999999999</ele>
        <time>2017-03-10T08:35:07Z</time>
      </trkpt>
      <trkpt lat="46.616176692768931" lon="12.098233681172132">
        <ele>1573.3299999999999</ele>
        <time>2017-03-10T08:35:17Z</time>
      </trkpt>
      <trkpt lat="46.616245424374938" lon="12.098259162157774">
        <ele>1573.8199999999999</ele>
        <time>2017-03-10T08:35:26Z</time>
      </trkpt>
      <trkpt lat="46.616316754370928" lon="12.098309621214867">
        <ele>1574.78</ele>
        <time>2017-03-10T08:35:35Z</time>
      </trkpt>
      <trkpt lat="46.616346426308155" lon="12.098314817994833">
        <ele>1575.26</ele>
        <time>2017-03-10T08:35:38Z</time>
      </trkpt>
      <trkpt lat="46.616429574787617" lon="12.098347088322043">
        <ele>1574.78</ele>
        <time>2017-03-10T08:35:48Z</time>
      </trkpt>
      <trkpt lat="46.616522027179599" lon="12.098366618156433">
        <ele>1576.22</ele>
        <time>2017-03-10T08:35:58Z</time>
      </trkpt>
      <trkpt lat="46.616579024121165" lon="12.098382040858269">
        <ele>1577.1800000000001</ele>
        <time>2017-03-10T08:36:08Z</time>
      </trkpt>
      <trkpt lat="46.616659909486771" lon="12.098392099142075">
        <ele>1578.6199999999999</ele>
        <time>2017-03-10T08:36:19Z</time>
      </trkpt>
      <trkpt lat="46.616722522303462" lon="12.098392182961106">
        <ele>1579.5799999999999</ele>
        <time>2017-03-10T08:36:28Z</time>
      </trkpt>
      <trkpt lat="46.616788655519485" lon="12.098374664783478">
        <ele>1580.54</ele>
        <time>2017-03-10T08:36:38Z</time>
      </trkpt>
      <trkpt lat="46.616862500086427" lon="12.098348764702678">
        <ele>1582.47</ele>
        <time>2017-03-10T08:36:48Z</time>
      </trkpt>
      <trkpt lat="46.61693399772048" lon="12.098358403891325">
        <ele>1582.95</ele>
        <time>2017-03-10T08:36:58Z</time>
      </trkpt>
      <trkpt lat="46.61698630079627" lon="12.098360499367118">
        <ele>1585.3499999999999</ele>
        <time>2017-03-10T08:37:06Z</time>
      </trkpt>
      <trkpt lat="46.617018906399608" lon="12.098343651741743">
        <ele>1585.3499999999999</ele>
        <time>2017-03-10T08:37:16Z</time>
      </trkpt>
      <trkpt lat="46.617077914997935" lon="12.098324624821544">
        <ele>1587.27</ele>
        <time>2017-03-10T08:37:26Z</time>
      </trkpt>
      <trkpt lat="46.617152765393257" lon="12.098324289545417">
        <ele>1586.79</ele>
        <time>2017-03-10T08:37:35Z</time>
      </trkpt>
      <trkpt lat="46.617206493392587" lon="12.098352117463946">
        <ele>1588.24</ele>
        <time>2017-03-10T08:37:43Z</time>
      </trkpt>
      <trkpt lat="46.617295928299427" lon="12.098409282043576">
        <ele>1589.2</ele>
        <time>2017-03-10T08:37:54Z</time>
      </trkpt>
      <trkpt lat="46.617341693490744" lon="12.098480025306344">
        <ele>1590.1600000000001</ele>
        <time>2017-03-10T08:38:03Z</time>
      </trkpt>
      <trkpt lat="46.617393745109439" lon="12.098587481305003">
        <ele>1591.1199999999999</ele>
        <time>2017-03-10T08:38:13Z</time>
      </trkpt>
      <trkpt lat="46.617398941889405" lon="12.098592342808843">
        <ele>1591.1199999999999</ele>
        <time>2017-03-10T08:38:14Z</time>
      </trkpt>
      <trkpt lat="46.617440348491073" lon="12.098663756623864">
        <ele>1592.0799999999999</ele>
        <time>2017-03-10T08:38:22Z</time>
      </trkpt>
      <trkpt lat="46.617474714294076" lon="12.098738355562091">
        <ele>1592.5599999999999</ele>
        <time>2017-03-10T08:38:31Z</time>
      </trkpt>
      <trkpt lat="46.617511343210936" lon="12.098863329738379">
        <ele>1594</ele>
        <time>2017-03-10T08:38:42Z</time>
      </trkpt>
      <trkpt lat="46.617541434243321" lon="12.098938850685954">
        <ele>1594.96</ele>
        <time>2017-03-10T08:38:48Z</time>
      </trkpt>
      <trkpt lat="46.617564568296075" lon="12.099038679152727">
        <ele>1595.9300000000001</ele>
        <time>2017-03-10T08:38:55Z</time>
      </trkpt>
      <trkpt lat="46.617630114778876" lon="12.099140184000134">
        <ele>1596.8900000000001</ele>
        <time>2017-03-10T08:39:03Z</time>
      </trkpt>
      <trkpt lat="46.617715610191226" lon="12.09919516928494">
        <ele>1598.3299999999999</ele>
        <time>2017-03-10T08:39:12Z</time>
      </trkpt>
      <trkpt lat="46.617755005136132" lon="12.099238922819495">
        <ele>1598.8099999999999</ele>
        <time>2017-03-10T08:39:22Z</time>
      </trkpt>
      <trkpt lat="46.617761626839638" lon="12.099278401583433">
        <ele>1599.77</ele>
        <time>2017-03-10T08:39:28Z</time>
      </trkpt>
      <trkpt lat="46.617802027612925" lon="12.099296171218157">
        <ele>1598.8099999999999</ele>
        <time>2017-03-10T08:39:37Z</time>
      </trkpt>
      <trkpt lat="46.617885427549481" lon="12.099332716315985">
        <ele>1598.8099999999999</ele>
        <time>2017-03-10T08:39:48Z</time>
      </trkpt>
      <trkpt lat="46.617973353713751" lon="12.099371943622828">
        <ele>1599.29</ele>
        <time>2017-03-10T08:39:59Z</time>
      </trkpt>
      <trkpt lat="46.618011072278023" lon="12.099407147616148">
        <ele>1599.77</ele>
        <time>2017-03-10T08:40:05Z</time>
      </trkpt>
      <trkpt lat="46.618080642074347" lon="12.099487110972404">
        <ele>1600.25</ele>
        <time>2017-03-10T08:40:15Z</time>
      </trkpt>
      <trkpt lat="46.6181072127074" lon="12.099499516189098">
        <ele>1600.25</ele>
        <time>2017-03-10T08:40:20Z</time>
      </trkpt>
      <trkpt lat="46.618129508569837" lon="12.099521309137344">
        <ele>1600.25</ele>
        <time>2017-03-10T08:40:24Z</time>
      </trkpt>
      <trkpt lat="46.618220787495375" lon="12.099566571414471">
        <ele>1600.25</ele>
        <time>2017-03-10T08:40:35Z</time>
      </trkpt>
      <trkpt lat="46.61830217577517" lon="12.099601104855537">
        <ele>1600.73</ele>
        <time>2017-03-10T08:40:45Z</time>
      </trkpt>
      <trkpt lat="46.618378199636936" lon="12.099631195887923">
        <ele>1600.73</ele>
        <time>2017-03-10T08:40:54Z</time>
      </trkpt>
      <trkpt lat="46.618413738906384" lon="12.099648043513298">
        <ele>1601.21</ele>
        <time>2017-03-10T08:40:59Z</time>
      </trkpt>
      <trkpt lat="46.618421785533428" lon="12.099654665216804">
        <ele>1600.73</ele>
        <time>2017-03-10T08:41:00Z</time>
      </trkpt>
      <trkpt lat="46.618441315367818" lon="12.099670842289925">
        <ele>1601.21</ele>
        <time>2017-03-10T08:41:02Z</time>
      </trkpt>
      <trkpt lat="46.618531169369817" lon="12.099687270820141">
        <ele>1600.73</ele>
        <time>2017-03-10T08:41:12Z</time>
      </trkpt>
      <trkpt lat="46.618609372526407" lon="12.099741166457534">
        <ele>1601.21</ele>
        <time>2017-03-10T08:41:22Z</time>
      </trkpt>
      <trkpt lat="46.618676008656621" lon="12.099803946912289">
        <ele>1602.6600000000001</ele>
        <time>2017-03-10T08:41:32Z</time>
      </trkpt>
      <trkpt lat="46.61872093565762" lon="12.099855663254857">
        <ele>1605.0599999999999</ele>
        <time>2017-03-10T08:41:40Z</time>
      </trkpt>
      <trkpt lat="46.618781452998519" lon="12.099910899996758">
        <ele>1605.0599999999999</ele>
        <time>2017-03-10T08:41:50Z</time>
      </trkpt>
      <trkpt lat="46.618852447718382" lon="12.099954904988408">
        <ele>1606.5</ele>
        <time>2017-03-10T08:42:01Z</time>
      </trkpt>
      <trkpt lat="46.618916401639581" lon="12.100029336288571">
        <ele>1606.98</ele>
        <time>2017-03-10T08:42:11Z</time>
      </trkpt>
      <trkpt lat="46.618967782706022" lon="12.100059427320957">
        <ele>1606.98</ele>
        <time>2017-03-10T08:42:21Z</time>
      </trkpt>
      <trkpt lat="46.619043219834566" lon="12.100115502253175">
        <ele>1607.46</ele>
        <time>2017-03-10T08:42:30Z</time>
      </trkpt>
      <trkpt lat="46.619092421606183" lon="12.100147353485227">
        <ele>1607.9400000000001</ele>
        <time>2017-03-10T08:42:40Z</time>
      </trkpt>
      <trkpt lat="46.619078759104013" lon="12.100151879712939">
        <ele>1607.46</ele>
        <time>2017-03-10T08:42:53Z</time>
      </trkpt>
      <trkpt lat="46.619125530123711" lon="12.100225640460849">
        <ele>1607.46</ele>
        <time>2017-03-10T08:43:02Z</time>
      </trkpt>
      <trkpt lat="46.619200045242906" lon="12.100303424522281">
        <ele>1609.3800000000001</ele>
        <time>2017-03-10T08:43:13Z</time>
      </trkpt>
      <trkpt lat="46.619276823475957" lon="12.10036838427186">
        <ele>1609.8599999999999</ele>
        <time>2017-03-10T08:43:22Z</time>
      </trkpt>
      <trkpt lat="46.619359720498323" lon="12.100397469475865">
        <ele>1608.9000000000001</ele>
        <time>2017-03-10T08:43:33Z</time>
      </trkpt>
      <trkpt lat="46.619496010243893" lon="12.100488664582372">
        <ele>1608.4200000000001</ele>
        <time>2017-03-10T08:43:47Z</time>
      </trkpt>
      <trkpt lat="46.61957697942853" lon="12.100555552169681">
        <ele>1608.9000000000001</ele>
        <time>2017-03-10T08:43:57Z</time>
      </trkpt>
      <trkpt lat="46.619634898379445" lon="12.100594276562333">
        <ele>1610.3499999999999</ele>
        <time>2017-03-10T08:44:07Z</time>
      </trkpt>
      <trkpt lat="46.619693823158741" lon="12.10064347833395">
        <ele>1611.3099999999999</ele>
        <time>2017-03-10T08:44:18Z</time>
      </trkpt>
      <trkpt lat="46.619740761816502" lon="12.100685723125935">
        <ele>1612.75</ele>
        <time>2017-03-10T08:44:27Z</time>
      </trkpt>
      <trkpt lat="46.619800524786115" lon="12.100719669833779">
        <ele>1613.23</ele>
        <time>2017-03-10T08:44:36Z</time>
      </trkpt>
      <trkpt lat="46.619892725721002" lon="12.100789826363325">
        <ele>1614.1900000000001</ele>
        <time>2017-03-10T08:44:46Z</time>
      </trkpt>
      <trkpt lat="46.61990387365222" lon="12.100797537714243">
        <ele>1614.1900000000001</ele>
        <time>2017-03-10T08:44:47Z</time>
      </trkpt>
      <trkpt lat="46.619993392378092" lon="12.100865682587028">
        <ele>1614.6700000000001</ele>
        <time>2017-03-10T08:44:57Z</time>
      </trkpt>
      <trkpt lat="46.620072769001126" lon="12.100929720327258">
        <ele>1616.1099999999999</ele>
        <time>2017-03-10T08:45:06Z</time>
      </trkpt>
      <trkpt lat="46.620102608576417" lon="12.100950926542282">
        <ele>1616.5899999999999</ele>
        <time>2017-03-10T08:45:14Z</time>
      </trkpt>
      <trkpt lat="46.620162706822157" lon="12.100962912663817">
        <ele>1618.04</ele>
        <time>2017-03-10T08:45:24Z</time>
      </trkpt>
      <trkpt lat="46.620228420943022" lon="12.101000631228089">
        <ele>1618.52</ele>
        <time>2017-03-10T08:45:34Z</time>
      </trkpt>
      <trkpt lat="46.620282903313637" lon="12.10103876888752">
        <ele>1620.9200000000001</ele>
        <time>2017-03-10T08:45:44Z</time>
      </trkpt>
      <trkpt lat="46.620349790900946" lon="12.101081851869822">
        <ele>1621.4000000000001</ele>
        <time>2017-03-10T08:45:54Z</time>
      </trkpt>
      <trkpt lat="46.620398908853531" lon="12.101106159389019">
        <ele>1622.3599999999999</ele>
        <time>2017-03-10T08:46:04Z</time>
      </trkpt>
      <trkpt lat="46.620477112010121" lon="12.101116217672825">
        <ele>1623.8</ele>
        <time>2017-03-10T08:46:13Z</time>
      </trkpt>
      <trkpt lat="46.620484907180071" lon="12.101110685616732">
        <ele>1623.8</ele>
        <time>2017-03-10T08:46:14Z</time>
      </trkpt>
      <trkpt lat="46.620518853887916" lon="12.101103812456131">
        <ele>1623.8</ele>
        <time>2017-03-10T08:46:18Z</time>
      </trkpt>
      <trkpt lat="46.620596302673221" lon="12.101083360612392">
        <ele>1624.77</ele>
        <time>2017-03-10T08:46:28Z</time>
      </trkpt>
      <trkpt lat="46.620685569941998" lon="12.101092664524913">
        <ele>1625.73</ele>
        <time>2017-03-10T08:46:38Z</time>
      </trkpt>
      <trkpt lat="46.620750110596418" lon="12.101095514371991">
        <ele>1625.73</ele>
        <time>2017-03-10T08:46:46Z</time>
      </trkpt>
      <trkpt lat="46.620815489441156" lon="12.101114122197032">
        <ele>1627.1700000000001</ele>
        <time>2017-03-10T08:46:56Z</time>
      </trkpt>
      <trkpt lat="46.620884891599417" lon="12.101094676181674">
        <ele>1628.1300000000001</ele>
        <time>2017-03-10T08:47:07Z</time>
      </trkpt>
      <trkpt lat="46.620921269059181" lon="12.101105907931924">
        <ele>1628.6099999999999</ele>
        <time>2017-03-10T08:47:12Z</time>
      </trkpt>
      <trkpt lat="46.62101305089891" lon="12.101058717817068">
        <ele>1630.05</ele>
        <time>2017-03-10T08:47:23Z</time>
      </trkpt>
      <trkpt lat="46.621077340096235" lon="12.101059136912227">
        <ele>1631.49</ele>
        <time>2017-03-10T08:47:32Z</time>
      </trkpt>
      <trkpt lat="46.621165098622441" lon="12.101004486903548">
        <ele>1634.3800000000001</ele>
        <time>2017-03-10T08:47:44Z</time>
      </trkpt>
      <trkpt lat="46.621242547407746" lon="12.100955368950963">
        <ele>1633.9000000000001</ele>
        <time>2017-03-10T08:47:54Z</time>
      </trkpt>
      <trkpt lat="46.621318738907576" lon="12.100954530760646">
        <ele>1634.8599999999999</ele>
        <time>2017-03-10T08:48:05Z</time>
      </trkpt>
      <trkpt lat="46.62139467895031" lon="12.10094497539103">
        <ele>1635.3399999999999</ele>
        <time>2017-03-10T08:48:15Z</time>
      </trkpt>
      <trkpt lat="46.621451927348971" lon="12.100954782217741">
        <ele>1636.3</ele>
        <time>2017-03-10T08:48:24Z</time>
      </trkpt>
      <trkpt lat="46.621471457183361" lon="12.100957883521914">
        <ele>1636.78</ele>
        <time>2017-03-10T08:48:27Z</time>
      </trkpt>
      <trkpt lat="46.62155594676733" lon="12.100939778611064">
        <ele>1637.74</ele>
        <time>2017-03-10T08:48:37Z</time>
      </trkpt>
      <trkpt lat="46.621571034193039" lon="12.100927457213402">
        <ele>1638.22</ele>
        <time>2017-03-10T08:48:39Z</time>
      </trkpt>
      <trkpt lat="46.621646638959646" lon="12.100909855216742">
        <ele>1639.1900000000001</ele>
        <time>2017-03-10T08:48:47Z</time>
      </trkpt>
      <trkpt lat="46.621744707226753" lon="12.10088194347918">
        <ele>1640.1500000000001</ele>
        <time>2017-03-10T08:48:58Z</time>
      </trkpt>
      <trkpt lat="46.621827185153961" lon="12.100853612646461">
        <ele>1640.6300000000001</ele>
        <time>2017-03-10T08:49:09Z</time>
      </trkpt>
      <trkpt lat="46.621886696666479" lon="12.100864760577679">
        <ele>1641.1099999999999</ele>
        <time>2017-03-10T08:49:19Z</time>
      </trkpt>
      <trkpt lat="46.621908321976662" lon="12.100865598767996">
        <ele>1641.5899999999999</ele>
        <time>2017-03-10T08:49:23Z</time>
      </trkpt>
      <trkpt lat="46.621974622830749" lon="12.100889654830098">
        <ele>1643.03</ele>
        <time>2017-03-10T08:49:31Z</time>
      </trkpt>
      <trkpt lat="46.622047629207373" lon="12.100913291797042">
        <ele>1644.95</ele>
        <time>2017-03-10T08:49:43Z</time>
      </trkpt>
      <trkpt lat="46.622124575078487" lon="12.100932151079178">
        <ele>1645.9100000000001</ele>
        <time>2017-03-10T08:49:54Z</time>
      </trkpt>
      <trkpt lat="46.622186852619052" lon="12.100968863815069">
        <ele>1647.3599999999999</ele>
        <time>2017-03-10T08:50:03Z</time>
      </trkpt>
      <trkpt lat="46.622252315282822" lon="12.100987555459142">
        <ele>1648.8</ele>
        <time>2017-03-10T08:50:14Z</time>
      </trkpt>
      <trkpt lat="46.622316939756274" lon="12.101013790816069">
        <ele>1650.72</ele>
        <time>2017-03-10T08:50:25Z</time>
      </trkpt>
      <trkpt lat="46.622319705784321" lon="12.101006833836436">
        <ele>1650.72</ele>
        <time>2017-03-10T08:50:26Z</time>
      </trkpt>
      <trkpt lat="46.622381312772632" lon="12.100996943190694">
        <ele>1651.2</ele>
        <time>2017-03-10T08:50:35Z</time>
      </trkpt>
      <trkpt lat="46.62243252620101" lon="12.100975150242448">
        <ele>1652.6400000000001</ele>
        <time>2017-03-10T08:50:45Z</time>
      </trkpt>
      <trkpt lat="46.622487511485815" lon="12.100923601537943">
        <ele>1653.5999999999999</ele>
        <time>2017-03-10T08:50:56Z</time>
      </trkpt>
      <trkpt lat="46.622527157887816" lon="12.100890409201384">
        <ele>1655.05</ele>
        <time>2017-03-10T08:51:05Z</time>
      </trkpt>
      <trkpt lat="46.622608629986644" lon="12.100824024528265">
        <ele>1656.01</ele>
        <time>2017-03-10T08:51:15Z</time>
      </trkpt>
      <trkpt lat="46.622685492038727" lon="12.100784545764327">
        <ele>1656.49</ele>
        <time>2017-03-10T08:51:27Z</time>
      </trkpt>
      <trkpt lat="46.622720947489142" lon="12.100765602663159">
        <ele>1657.45</ele>
        <time>2017-03-10T08:51:32Z</time>
      </trkpt>
      <trkpt lat="46.622774843126535" lon="12.100725453346968">
        <ele>1658.8900000000001</ele>
        <time>2017-03-10T08:51:42Z</time>
      </trkpt>
      <trkpt lat="46.622777273878455" lon="12.100699804723263">
        <ele>1658.8900000000001</ele>
        <time>2017-03-10T08:51:50Z</time>
      </trkpt>
      <trkpt lat="46.622792109847069" lon="12.100668707862496">
        <ele>1658.8900000000001</ele>
        <time>2017-03-10T08:52:08Z</time>
      </trkpt>
      <trkpt lat="46.62278288975358" lon="12.100667702034116">
        <ele>1658.4100000000001</ele>
        <time>2017-03-10T08:52:21Z</time>
      </trkpt>
      <trkpt lat="46.622803760692477" lon="12.100722352042794">
        <ele>1658.4100000000001</ele>
        <time>2017-03-10T08:52:37Z</time>
      </trkpt>
      <trkpt lat="46.622823039069772" lon="12.100769793614745">
        <ele>1658.8900000000001</ele>
        <time>2017-03-10T08:52:46Z</time>
      </trkpt>
      <trkpt lat="46.622813232243061" lon="12.100805165246129">
        <ele>1658.8900000000001</ele>
        <time>2017-03-10T08:52:55Z</time>
      </trkpt>
      <trkpt lat="46.622809544205666" lon="12.100856797769666">
        <ele>1658.8900000000001</ele>
        <time>2017-03-10T08:53:07Z</time>
      </trkpt>
      <trkpt lat="46.622857237234712" lon="12.100867358967662">
        <ele>1659.3699999999999</ele>
        <time>2017-03-10T08:53:18Z</time>
      </trkpt>
      <trkpt lat="46.622886154800653" lon="12.10085310973227">
        <ele>1660.8099999999999</ele>
        <time>2017-03-10T08:53:27Z</time>
      </trkpt>
      <trkpt lat="46.62290308624506" lon="12.100846907123923">
        <ele>1661.3</ele>
        <time>2017-03-10T08:53:36Z</time>
      </trkpt>
      <trkpt lat="46.622998723760247" lon="12.100856797769666">
        <ele>1662.74</ele>
        <time>2017-03-10T08:53:47Z</time>
      </trkpt>
      <trkpt lat="46.623071562498808" lon="12.100849840790033">
        <ele>1663.22</ele>
        <time>2017-03-10T08:53:56Z</time>
      </trkpt>
      <trkpt lat="46.623162003234029" lon="12.100817235186696">
        <ele>1666.0999999999999</ele>
        <time>2017-03-10T08:54:10Z</time>
      </trkpt>
      <trkpt lat="46.623223861679435" lon="12.100798794999719">
        <ele>1667.0599999999999</ele>
        <time>2017-03-10T08:54:20Z</time>
      </trkpt>
      <trkpt lat="46.623292174190283" lon="12.100757639855146">
        <ele>1668.51</ele>
        <time>2017-03-10T08:54:31Z</time>
      </trkpt>
      <trkpt lat="46.623367024585605" lon="12.100724782794714">
        <ele>1669.47</ele>
        <time>2017-03-10T08:54:42Z</time>
      </trkpt>
      <trkpt lat="46.623389991000295" lon="12.100716149434447">
        <ele>1670.4300000000001</ele>
        <time>2017-03-10T08:54:51Z</time>
      </trkpt>
      <trkpt lat="46.623471714556217" lon="12.100694105029106">
        <ele>1671.8699999999999</ele>
        <time>2017-03-10T08:55:03Z</time>
      </trkpt>
      <trkpt lat="46.623511109501123" lon="12.100641969591379">
        <ele>1672.3499999999999</ele>
        <time>2017-03-10T08:55:12Z</time>
      </trkpt>
      <trkpt lat="46.623490322381258" lon="12.1007099468261">
        <ele>1672.3499999999999</ele>
        <time>2017-03-10T08:55:21Z</time>
      </trkpt>
      <trkpt lat="46.623501218855381" lon="12.100710868835449">
        <ele>1672.8299999999999</ele>
        <time>2017-03-10T08:55:35Z</time>
      </trkpt>
      <trkpt lat="46.623508846387267" lon="12.100693602114916">
        <ele>1672.3499999999999</ele>
        <time>2017-03-10T08:55:55Z</time>
      </trkpt>
      <trkpt lat="46.623507170006633" lon="12.10062587633729">
        <ele>1672.8299999999999</ele>
        <time>2017-03-10T08:56:06Z</time>
      </trkpt>
      <trkpt lat="46.623514546081424" lon="12.10065278224647">
        <ele>1672.3499999999999</ele>
        <time>2017-03-10T08:56:15Z</time>
      </trkpt>
      <trkpt lat="46.623507253825665" lon="12.10067767649889">
        <ele>1672.8299999999999</ele>
        <time>2017-03-10T08:56:24Z</time>
      </trkpt>
      <trkpt lat="46.623516138643026" lon="12.100692680105567">
        <ele>1672.8299999999999</ele>
        <time>2017-03-10T08:56:33Z</time>
      </trkpt>
      <trkpt lat="46.623500883579254" lon="12.100711707025766">
        <ele>1672.8299999999999</ele>
        <time>2017-03-10T08:56:47Z</time>
      </trkpt>
      <trkpt lat="46.623471127822995" lon="12.100590420886874">
        <ele>1672.8299999999999</ele>
        <time>2017-03-10T08:56:56Z</time>
      </trkpt>
      <trkpt lat="46.623434331268072" lon="12.100534848868847">
        <ele>1673.79</ele>
        <time>2017-03-10T08:57:02Z</time>
      </trkpt>
      <trkpt lat="46.623374233022332" lon="12.100449688732624">
        <ele>1674.75</ele>
        <time>2017-03-10T08:57:12Z</time>
      </trkpt>
      <trkpt lat="46.623405748978257" lon="12.100321864709258">
        <ele>1675.23</ele>
        <time>2017-03-10T08:57:23Z</time>
      </trkpt>
      <trkpt lat="46.623439695686102" lon="12.100287498906255">
        <ele>1675.72</ele>
        <time>2017-03-10T08:57:34Z</time>
      </trkpt>
      <trkpt lat="46.623422764241695" lon="12.100290013477206">
        <ele>1676.2</ele>
        <time>2017-03-10T08:57:48Z</time>
      </trkpt>
      <trkpt lat="46.623464673757553" lon="12.100297892466187">
        <ele>1676.6800000000001</ele>
        <time>2017-03-10T08:58:01Z</time>
      </trkpt>
      <trkpt lat="46.623529214411974" lon="12.10033368319273">
        <ele>1677.1600000000001</ele>
        <time>2017-03-10T08:58:10Z</time>
      </trkpt>
      <trkpt lat="46.623600795865059" lon="12.100352123379707">
        <ele>1677.1600000000001</ele>
        <time>2017-03-10T08:58:21Z</time>
      </trkpt>
      <trkpt lat="46.623679166659713" lon="12.100372994318604">
        <ele>1678.1199999999999</ele>
        <time>2017-03-10T08:58:32Z</time>
      </trkpt>
      <trkpt lat="46.623745551332831" lon="12.100379280745983">
        <ele>1679.0799999999999</ele>
        <time>2017-03-10T08:58:43Z</time>
      </trkpt>
      <trkpt lat="46.623778324574232" lon="12.100378777831793">
        <ele>1680.04</ele>
        <time>2017-03-10T08:58:47Z</time>
      </trkpt>
      <trkpt lat="46.623824676498771" lon="12.10037718527019">
        <ele>1681</ele>
        <time>2017-03-10T08:58:58Z</time>
      </trkpt>
      <trkpt lat="46.623869352042675" lon="12.100461758673191">
        <ele>1682.4400000000001</ele>
        <time>2017-03-10T08:59:10Z</time>
      </trkpt>
      <trkpt lat="46.623936742544174" lon="12.100578770041466">
        <ele>1683.4100000000001</ele>
        <time>2017-03-10T08:59:20Z</time>
      </trkpt>
      <trkpt lat="46.623973874375224" lon="12.10067130625248">
        <ele>1684.3699999999999</ele>
        <time>2017-03-10T08:59:30Z</time>
      </trkpt>
      <trkpt lat="46.624013353139162" lon="12.100727632641792">
        <ele>1684.3699999999999</ele>
        <time>2017-03-10T08:59:39Z</time>
      </trkpt>
      <trkpt lat="46.624036654829979" lon="12.100717825815082">
        <ele>1684.3699999999999</ele>
        <time>2017-03-10T08:59:49Z</time>
      </trkpt>
      <trkpt lat="46.624038582667708" lon="12.100653285160661">
        <ele>1684.3699999999999</ele>
        <time>2017-03-10T08:59:54Z</time>
      </trkpt>
      <trkpt lat="46.624028775840998" lon="12.100613471120596">
        <ele>1684.3699999999999</ele>
        <time>2017-03-10T08:59:57Z</time>
      </trkpt>
      <trkpt lat="46.624002959579229" lon="12.100600395351648">
        <ele>1685.3299999999999</ele>
        <time>2017-03-10T09:00:06Z</time>
      </trkpt>
      <trkpt lat="46.623998349532485" lon="12.100594192743301">
        <ele>1687.25</ele>
        <time>2017-03-10T09:00:19Z</time>
      </trkpt>
      <trkpt lat="46.624009665101767" lon="12.100573740899563">
        <ele>1686.29</ele>
        <time>2017-03-10T09:00:39Z</time>
      </trkpt>
      <trkpt lat="46.624004719778895" lon="12.100527975708246">
        <ele>1686.29</ele>
        <time>2017-03-10T09:00:52Z</time>
      </trkpt>
      <trkpt lat="46.623998014256358" lon="12.100429236888885">
        <ele>1686.29</ele>
        <time>2017-03-10T09:01:03Z</time>
      </trkpt>
      <trkpt lat="46.624002624303102" lon="12.100357906892896">
        <ele>1686.77</ele>
        <time>2017-03-10T09:01:09Z</time>
      </trkpt>
      <trkpt lat="46.624041181057692" lon="12.100263359025121">
        <ele>1687.25</ele>
        <time>2017-03-10T09:01:19Z</time>
      </trkpt>
      <trkpt lat="46.624071523547173" lon="12.10021885111928">
        <ele>1687.25</ele>
        <time>2017-03-10T09:01:23Z</time>
      </trkpt>
      <trkpt lat="46.624125586822629" lon="12.100157495588064">
        <ele>1687.73</ele>
        <time>2017-03-10T09:01:31Z</time>
      </trkpt>
      <trkpt lat="46.624165400862694" lon="12.100121537223458">
        <ele>1688.21</ele>
        <time>2017-03-10T09:01:37Z</time>
      </trkpt>
      <trkpt lat="46.624241005629301" lon="12.100030090659857">
        <ele>1688.6900000000001</ele>
        <time>2017-03-10T09:01:48Z</time>
      </trkpt>
      <trkpt lat="46.624269671738148" lon="12.100000083446503">
        <ele>1690.6199999999999</ele>
        <time>2017-03-10T09:01:52Z</time>
      </trkpt>
      <trkpt lat="46.624346198514104" lon="12.099923472851515">
        <ele>1690.1400000000001</ele>
        <time>2017-03-10T09:02:01Z</time>
      </trkpt>
      <trkpt lat="46.62437385879457" lon="12.099882150068879">
        <ele>1689.6500000000001</ele>
        <time>2017-03-10T09:02:06Z</time>
      </trkpt>
      <trkpt lat="46.62443152628839" lon="12.099831104278564">
        <ele>1691.5799999999999</ele>
        <time>2017-03-10T09:02:15Z</time>
      </trkpt>
      <trkpt lat="46.624508304521441" lon="12.099756756797433">
        <ele>1692.54</ele>
        <time>2017-03-10T09:02:25Z</time>
      </trkpt>
      <trkpt lat="46.624627411365509" lon="12.099689869210124">
        <ele>1691.5799999999999</ele>
        <time>2017-03-10T09:02:37Z</time>
      </trkpt>
      <trkpt lat="46.624634033069015" lon="12.099688779562712">
        <ele>1692.0599999999999</ele>
        <time>2017-03-10T09:02:41Z</time>
      </trkpt>
      <trkpt lat="46.624659597873688" lon="12.099657347425818">
        <ele>1692.0599999999999</ele>
        <time>2017-03-10T09:02:44Z</time>
      </trkpt>
      <trkpt lat="46.624735705554485" lon="12.09962516091764">
        <ele>1693.02</ele>
        <time>2017-03-10T09:02:55Z</time>
      </trkpt>
      <trkpt lat="46.624748781323433" lon="12.09961736574769">
        <ele>1692.54</ele>
        <time>2017-03-10T09:02:57Z</time>
      </trkpt>
      <trkpt lat="46.62475498393178" lon="12.099601021036506">
        <ele>1692.54</ele>
        <time>2017-03-10T09:02:58Z</time>
      </trkpt>
      <trkpt lat="46.624765042215586" lon="12.099590627476573">
        <ele>1692.0599999999999</ele>
        <time>2017-03-10T09:02:59Z</time>
      </trkpt>
      <trkpt lat="46.624866630882025" lon="12.09949666634202">
        <ele>1692.54</ele>
        <time>2017-03-10T09:03:09Z</time>
      </trkpt>
      <trkpt lat="46.624905103817582" lon="12.099473951384425">
        <ele>1692.54</ele>
        <time>2017-03-10T09:03:13Z</time>
      </trkpt>
      <trkpt lat="46.624929076060653" lon="12.099447045475245">
        <ele>1693.02</ele>
        <time>2017-03-10T09:03:16Z</time>
      </trkpt>
      <trkpt lat="46.624958580359817" lon="12.099413517862558">
        <ele>1692.54</ele>
        <time>2017-03-10T09:03:19Z</time>
      </trkpt>
      <trkpt lat="46.624969225376844" lon="12.099404884502292">
        <ele>1692.54</ele>
        <time>2017-03-10T09:03:20Z</time>
      </trkpt>
      <trkpt lat="46.624977858737111" lon="12.099396837875247">
        <ele>1692.54</ele>
        <time>2017-03-10T09:03:21Z</time>
      </trkpt>
      <trkpt lat="46.625057905912399" lon="12.099311426281929">
        <ele>1693.02</ele>
        <time>2017-03-10T09:03:30Z</time>
      </trkpt>
      <trkpt lat="46.625118087977171" lon="12.099277228116989">
        <ele>1691.5799999999999</ele>
        <time>2017-03-10T09:03:37Z</time>
      </trkpt>
      <trkpt lat="46.625218754634261" lon="12.099172621965408">
        <ele>1692.54</ele>
        <time>2017-03-10T09:03:51Z</time>
      </trkpt>
      <trkpt lat="46.625281283631921" lon="12.099027279764414">
        <ele>1692.54</ele>
        <time>2017-03-10T09:04:02Z</time>
      </trkpt>
      <trkpt lat="46.625306596979499" lon="12.098947903141379">
        <ele>1692.0599999999999</ele>
        <time>2017-03-10T09:04:11Z</time>
      </trkpt>
      <trkpt lat="46.625313386321068" lon="12.098934408277273">
        <ele>1692.54</ele>
        <time>2017-03-10T09:04:23Z</time>
      </trkpt>
      <trkpt lat="46.62534037604928" lon="12.098853439092636">
        <ele>1693.5</ele>
        <time>2017-03-10T09:04:33Z</time>
      </trkpt>
      <trkpt lat="46.625386644154787" lon="12.098763417452574">
        <ele>1693.98</ele>
        <time>2017-03-10T09:04:41Z</time>
      </trkpt>
      <trkpt lat="46.625418663024902" lon="12.098725866526365">
        <ele>1693.5</ele>
        <time>2017-03-10T09:04:46Z</time>
      </trkpt>
      <trkpt lat="46.625475157052279" lon="12.098657554015517">
        <ele>1694.46</ele>
        <time>2017-03-10T09:04:54Z</time>
      </trkpt>
      <trkpt lat="46.625552186742425" lon="12.098558060824871">
        <ele>1694.46</ele>
        <time>2017-03-10T09:05:04Z</time>
      </trkpt>
      <trkpt lat="46.625574147328734" lon="12.098539285361767">
        <ele>1694.9400000000001</ele>
        <time>2017-03-10T09:05:06Z</time>
      </trkpt>
      <trkpt lat="46.625590492039919" lon="12.098523862659931">
        <ele>1694.9400000000001</ele>
        <time>2017-03-10T09:05:08Z</time>
      </trkpt>
      <trkpt lat="46.625672886148095" lon="12.098510703071952">
        <ele>1696.3800000000001</ele>
        <time>2017-03-10T09:05:18Z</time>
      </trkpt>
      <trkpt lat="46.625743377953768" lon="12.098573064431548">
        <ele>1697.3399999999999</ele>
        <time>2017-03-10T09:05:27Z</time>
      </trkpt>
      <trkpt lat="46.625755447894335" lon="12.098662750795484">
        <ele>1698.79</ele>
        <time>2017-03-10T09:05:36Z</time>
      </trkpt>
      <trkpt lat="46.625745808705688" lon="12.098673731088638">
        <ele>1697.3399999999999</ele>
        <time>2017-03-10T09:05:46Z</time>
      </trkpt>
      <trkpt lat="46.625740276649594" lon="12.098689153790474">
        <ele>1697.8299999999999</ele>
        <time>2017-03-10T09:05:48Z</time>
      </trkpt>
      <trkpt lat="46.625722423195839" lon="12.098717400804162">
        <ele>1699.75</ele>
        <time>2017-03-10T09:05:56Z</time>
      </trkpt>
      <trkpt lat="46.62570490501821" lon="12.098666606470942">
        <ele>1700.23</ele>
        <time>2017-03-10T09:06:04Z</time>
      </trkpt>
      <trkpt lat="46.625705240294337" lon="12.098655709996819">
        <ele>1698.3099999999999</ele>
        <time>2017-03-10T09:06:14Z</time>
      </trkpt>
      <trkpt lat="46.625760979950428" lon="12.0985306520015">
        <ele>1698.79</ele>
        <time>2017-03-10T09:06:32Z</time>
      </trkpt>
      <trkpt lat="46.625772630795836" lon="12.098477762192488">
        <ele>1698.3099999999999</ele>
        <time>2017-03-10T09:06:46Z</time>
      </trkpt>
      <trkpt lat="46.625726446509361" lon="12.098648333922029">
        <ele>1698.79</ele>
        <time>2017-03-10T09:07:03Z</time>
      </trkpt>
      <trkpt lat="46.625725021585822" lon="12.098638778552413">
        <ele>1699.27</ele>
        <time>2017-03-10T09:07:25Z</time>
      </trkpt>
      <trkpt lat="46.625725524500012" lon="12.098654201254249">
        <ele>1699.75</ele>
        <time>2017-03-10T09:07:57Z</time>
      </trkpt>
      <trkpt lat="46.625740947201848" lon="12.09865378215909">
        <ele>1699.27</ele>
        <time>2017-03-10T09:08:17Z</time>
      </trkpt>
      <trkpt lat="46.625731727108359" lon="12.098619835451245">
        <ele>1699.27</ele>
        <time>2017-03-10T09:08:39Z</time>
      </trkpt>
      <trkpt lat="46.625718986615539" lon="12.098618829622865">
        <ele>1699.27</ele>
        <time>2017-03-10T09:08:59Z</time>
      </trkpt>
      <trkpt lat="46.625715969130397" lon="12.098594941198826">
        <ele>1700.23</ele>
        <time>2017-03-10T09:09:24Z</time>
      </trkpt>
      <trkpt lat="46.625696942210197" lon="12.098591420799494">
        <ele>1700.23</ele>
        <time>2017-03-10T09:09:46Z</time>
      </trkpt>
      <trkpt lat="46.625701719895005" lon="12.098536770790815">
        <ele>1700.23</ele>
        <time>2017-03-10T09:10:09Z</time>
      </trkpt>
      <trkpt lat="46.625699875876307" lon="12.098530400544405">
        <ele>1700.23</ele>
        <time>2017-03-10T09:10:32Z</time>
      </trkpt>
      <trkpt lat="46.625683195888996" lon="12.098505506291986">
        <ele>1699.75</ele>
        <time>2017-03-10T09:10:56Z</time>
      </trkpt>
      <trkpt lat="46.62569560110569" lon="12.09854238666594">
        <ele>1699.75</ele>
        <time>2017-03-10T09:11:13Z</time>
      </trkpt>
      <trkpt lat="46.625685123726726" lon="12.098537106066942">
        <ele>1700.71</ele>
        <time>2017-03-10T09:11:30Z</time>
      </trkpt>
      <trkpt lat="46.625664168968797" lon="12.098539201542735">
        <ele>1700.23</ele>
        <time>2017-03-10T09:11:49Z</time>
      </trkpt>
      <trkpt lat="46.625693421810865" lon="12.098579350858927">
        <ele>1700.23</ele>
        <time>2017-03-10T09:12:15Z</time>
      </trkpt>
      <trkpt lat="46.625694679096341" lon="12.098617823794484">
        <ele>1700.23</ele>
        <time>2017-03-10T09:12:39Z</time>
      </trkpt>
      <trkpt lat="46.625707419589162" lon="12.098631151020527">
        <ele>1700.23</ele>
        <time>2017-03-10T09:12:58Z</time>
      </trkpt>
      <trkpt lat="46.625699959695339" lon="12.098611872643232">
        <ele>1700.23</ele>
        <time>2017-03-10T09:13:22Z</time>
      </trkpt>
      <trkpt lat="46.625724518671632" lon="12.098599132150412">
        <ele>1699.75</ele>
        <time>2017-03-10T09:13:47Z</time>
      </trkpt>
      <trkpt lat="46.625724770128727" lon="12.098569208756089">
        <ele>1699.75</ele>
        <time>2017-03-10T09:14:06Z</time>
      </trkpt>
      <trkpt lat="46.625717394053936" lon="12.098554456606507">
        <ele>1700.71</ele>
        <time>2017-03-10T09:14:28Z</time>
      </trkpt>
      <trkpt lat="46.625720830634236" lon="12.098519671708345">
        <ele>1700.71</ele>
        <time>2017-03-10T09:14:50Z</time>
      </trkpt>
      <trkpt lat="46.625691661611199" lon="12.098508607596159">
        <ele>1702.1500000000001</ele>
        <time>2017-03-10T09:15:11Z</time>
      </trkpt>
      <trkpt lat="46.625690739601851" lon="12.098466195166111">
        <ele>1701.1900000000001</ele>
        <time>2017-03-10T09:15:37Z</time>
      </trkpt>
      <trkpt lat="46.625692332163453" lon="12.098439456894994">
        <ele>1701.6700000000001</ele>
        <time>2017-03-10T09:15:57Z</time>
      </trkpt>
      <trkpt lat="46.625708928331733" lon="12.098614722490311">
        <ele>1701.1900000000001</ele>
        <time>2017-03-10T09:16:20Z</time>
      </trkpt>
      <trkpt lat="46.625718902796507" lon="12.098622098565102">
        <ele>1701.1900000000001</ele>
        <time>2017-03-10T09:16:51Z</time>
      </trkpt>
      <trkpt lat="46.625692499801517" lon="12.098683035001159">
        <ele>1701.1900000000001</ele>
        <time>2017-03-10T09:17:15Z</time>
      </trkpt>
      <trkpt lat="46.625662911683321" lon="12.098658811300993">
        <ele>1702.1500000000001</ele>
        <time>2017-03-10T09:17:35Z</time>
      </trkpt>
      <trkpt lat="46.62568629719317" lon="12.098669959232211">
        <ele>1701.1900000000001</ele>
        <time>2017-03-10T09:17:54Z</time>
      </trkpt>
      <trkpt lat="46.625691577792168" lon="12.098659230396152">
        <ele>1702.1500000000001</ele>
        <time>2017-03-10T09:18:11Z</time>
      </trkpt>
      <trkpt lat="46.625676490366459" lon="12.098652105778456">
        <ele>1702.6300000000001</ele>
        <time>2017-03-10T09:18:29Z</time>
      </trkpt>
      <trkpt lat="46.625583870336413" lon="12.098489245399833">
        <ele>1702.1500000000001</ele>
        <time>2017-03-10T09:18:46Z</time>
      </trkpt>
      <trkpt lat="46.625508684664965" lon="12.098306436091661">
        <ele>1701.6700000000001</ele>
        <time>2017-03-10T09:19:06Z</time>
      </trkpt>
      <trkpt lat="46.625570207834244" lon="12.098425375297666">
        <ele>1701.6700000000001</ele>
        <time>2017-03-10T09:19:29Z</time>
      </trkpt>
      <trkpt lat="46.625540284439921" lon="12.098489077761769">
        <ele>1702.6300000000001</ele>
        <time>2017-03-10T09:19:46Z</time>
      </trkpt>
      <trkpt lat="46.625636508688331" lon="12.098648250102997">
        <ele>1701.6700000000001</ele>
        <time>2017-03-10T09:20:07Z</time>
      </trkpt>
      <trkpt lat="46.625602226704359" lon="12.098578680306673">
        <ele>1702.1500000000001</ele>
        <time>2017-03-10T09:20:35Z</time>
      </trkpt>
      <trkpt lat="46.625592084601521" lon="12.098576752468944">
        <ele>1703.1099999999999</ele>
        <time>2017-03-10T09:21:00Z</time>
      </trkpt>
      <trkpt lat="46.625467278063297" lon="12.098303502425551">
        <ele>1702.6300000000001</ele>
        <time>2017-03-10T09:21:23Z</time>
      </trkpt>
      <trkpt lat="46.625542799010873" lon="12.098428979516029">
        <ele>1703.1099999999999</ele>
        <time>2017-03-10T09:21:37Z</time>
      </trkpt>
      <trkpt lat="46.625524861738086" lon="12.098455466330051">
        <ele>1703.1099999999999</ele>
        <time>2017-03-10T09:21:50Z</time>
      </trkpt>
      <trkpt lat="46.625554533675313" lon="12.098463596776128">
        <ele>1703.1099999999999</ele>
        <time>2017-03-10T09:22:02Z</time>
      </trkpt>
      <trkpt lat="46.625553444027901" lon="12.098414143547416">
        <ele>1702.1500000000001</ele>
        <time>2017-03-10T09:22:14Z</time>
      </trkpt>
      <trkpt lat="46.625556796789169" lon="12.098440462723374">
        <ele>1701.6700000000001</ele>
        <time>2017-03-10T09:22:35Z</time>
      </trkpt>
      <trkpt lat="46.625565681606531" lon="12.098494693636894">
        <ele>1701.6700000000001</ele>
        <time>2017-03-10T09:22:58Z</time>
      </trkpt>
      <trkpt lat="46.625455962494016" lon="12.098325546830893">
        <ele>1700.71</ele>
        <time>2017-03-10T09:23:17Z</time>
      </trkpt>
      <trkpt lat="46.625430984422565" lon="12.098299311473966">
        <ele>1700.71</ele>
        <time>2017-03-10T09:23:33Z</time>
      </trkpt>
      <trkpt lat="46.625428972765803" lon="12.098266202956438">
        <ele>1700.71</ele>
        <time>2017-03-10T09:23:53Z</time>
      </trkpt>
      <trkpt lat="46.625426122918725" lon="12.098253965377808">
        <ele>1700.71</ele>
        <time>2017-03-10T09:24:11Z</time>
      </trkpt>
      <trkpt lat="46.625433163717389" lon="12.09820719435811">
        <ele>1700.23</ele>
        <time>2017-03-10T09:24:27Z</time>
      </trkpt>
      <trkpt lat="46.625399384647608" lon="12.09814609028399">
        <ele>1698.79</ele>
        <time>2017-03-10T09:24:46Z</time>
      </trkpt>
      <trkpt lat="46.625421680510044" lon="12.098219348117709">
        <ele>1700.23</ele>
        <time>2017-03-10T09:25:01Z</time>
      </trkpt>
      <trkpt lat="46.625430732965469" lon="12.098259665071964">
        <ele>1700.23</ele>
        <time>2017-03-10T09:25:05Z</time>
      </trkpt>
      <trkpt lat="46.625492172315717" lon="12.09836108610034">
        <ele>1700.23</ele>
        <time>2017-03-10T09:25:17Z</time>
      </trkpt>
      <trkpt lat="46.625684620812535" lon="12.098642969503999">
        <ele>1700.71</ele>
        <time>2017-03-10T09:25:27Z</time>
      </trkpt>
      <trkpt lat="46.625691493973136" lon="12.098619416356087">
        <ele>1699.75</ele>
        <time>2017-03-10T09:25:31Z</time>
      </trkpt>
      <trkpt lat="46.625692499801517" lon="12.098589912056923">
        <ele>1699.27</ele>
        <time>2017-03-10T09:25:32Z</time>
      </trkpt>
      <trkpt lat="46.625689063221216" lon="12.09855261258781">
        <ele>1698.79</ele>
        <time>2017-03-10T09:25:33Z</time>
      </trkpt>
      <trkpt lat="46.62568487226963" lon="12.09841338917613">
        <ele>1698.79</ele>
        <time>2017-03-10T09:25:43Z</time>
      </trkpt>
      <trkpt lat="46.625692751258612" lon="12.098352452740073">
        <ele>1699.27</ele>
        <time>2017-03-10T09:25:52Z</time>
      </trkpt>
      <trkpt lat="46.625701049342752" lon="12.098348177969456">
        <ele>1700.23</ele>
        <time>2017-03-10T09:26:06Z</time>
      </trkpt>
      <trkpt lat="46.625723093748093" lon="12.098363265395164">
        <ele>1698.79</ele>
        <time>2017-03-10T09:26:20Z</time>
      </trkpt>
      <trkpt lat="46.625717645511031" lon="12.098363433033228">
        <ele>1698.79</ele>
        <time>2017-03-10T09:26:32Z</time>
      </trkpt>
      <trkpt lat="46.625739270821214" lon="12.098392769694328">
        <ele>1698.79</ele>
        <time>2017-03-10T09:26:45Z</time>
      </trkpt>
      <trkpt lat="46.625759638845921" lon="12.098376844078302">
        <ele>1699.75</ele>
        <time>2017-03-10T09:26:50Z</time>
      </trkpt>
      <trkpt lat="46.62577087059617" lon="12.098365612328053">
        <ele>1699.75</ele>
        <time>2017-03-10T09:26:56Z</time>
      </trkpt>
      <trkpt lat="46.625823928043246" lon="12.098315320909023">
        <ele>1700.23</ele>
        <time>2017-03-10T09:27:02Z</time>
      </trkpt>
      <trkpt lat="46.625838847830892" lon="12.098289001733065">
        <ele>1700.23</ele>
        <time>2017-03-10T09:27:04Z</time>
      </trkpt>
      <trkpt lat="46.625867681577802" lon="12.098244242370129">
        <ele>1700.23</ele>
        <time>2017-03-10T09:27:13Z</time>
      </trkpt>
      <trkpt lat="46.6258988622576" lon="12.098228987306356">
        <ele>1700.23</ele>
        <time>2017-03-10T09:27:22Z</time>
      </trkpt>
      <trkpt lat="46.625919733196497" lon="12.098254803568125">
        <ele>1699.75</ele>
        <time>2017-03-10T09:27:27Z</time>
      </trkpt>
      <trkpt lat="46.625956362113357" lon="12.098191101104021">
        <ele>1699.75</ele>
        <time>2017-03-10T09:27:33Z</time>
      </trkpt>
      <trkpt lat="46.626028278842568" lon="12.09808649495244">
        <ele>1700.71</ele>
        <time>2017-03-10T09:27:44Z</time>
      </trkpt>
      <trkpt lat="46.626081084832549" lon="12.098052715882659">
        <ele>1702.1500000000001</ele>
        <time>2017-03-10T09:27:52Z</time>
      </trkpt>
      <trkpt lat="46.626140596345067" lon="12.097988845780492">
        <ele>1701.6700000000001</ele>
        <time>2017-03-10T09:28:05Z</time>
      </trkpt>
      <trkpt lat="46.626177476719022" lon="12.098001586273313">
        <ele>1702.1500000000001</ele>
        <time>2017-03-10T09:28:13Z</time>
      </trkpt>
      <trkpt lat="46.626170519739389" lon="12.09798926487565">
        <ele>1701.6700000000001</ele>
        <time>2017-03-10T09:28:18Z</time>
      </trkpt>
      <trkpt lat="46.626190971583128" lon="12.097959760576487">
        <ele>1701.1900000000001</ele>
        <time>2017-03-10T09:28:20Z</time>
      </trkpt>
      <trkpt lat="46.626286525279284" lon="12.097874600440264">
        <ele>1702.1500000000001</ele>
        <time>2017-03-10T09:28:30Z</time>
      </trkpt>
      <trkpt lat="46.626367075368762" lon="12.097809892147779">
        <ele>1703.1099999999999</ele>
        <time>2017-03-10T09:28:39Z</time>
      </trkpt>
      <trkpt lat="46.626397585496306" lon="12.097791032865644">
        <ele>1704.55</ele>
        <time>2017-03-10T09:28:43Z</time>
      </trkpt>
      <trkpt lat="46.626437064260244" lon="12.097757840529084">
        <ele>1704.55</ele>
        <time>2017-03-10T09:28:48Z</time>
      </trkpt>
      <trkpt lat="46.626447625458241" lon="12.097747949883342">
        <ele>1705.04</ele>
        <time>2017-03-10T09:28:49Z</time>
      </trkpt>
      <trkpt lat="46.626498838886619" lon="12.097723810002208">
        <ele>1705.52</ele>
        <time>2017-03-10T09:28:55Z</time>
      </trkpt>
      <trkpt lat="46.626520464196801" lon="12.09771852940321">
        <ele>1703.5899999999999</ele>
        <time>2017-03-10T09:28:57Z</time>
      </trkpt>
      <trkpt lat="46.626567486673594" lon="12.097688606008887">
        <ele>1704.55</ele>
        <time>2017-03-10T09:29:03Z</time>
      </trkpt>
      <trkpt lat="46.626659603789449" lon="12.097658850252628">
        <ele>1705.52</ele>
        <time>2017-03-10T09:29:14Z</time>
      </trkpt>
      <trkpt lat="46.626668740063906" lon="12.097652144730091">
        <ele>1706</ele>
        <time>2017-03-10T09:29:15Z</time>
      </trkpt>
      <trkpt lat="46.626698160544038" lon="12.097650049254298">
        <ele>1705.04</ele>
        <time>2017-03-10T09:29:18Z</time>
      </trkpt>
      <trkpt lat="46.626784158870578" lon="12.097618533298373">
        <ele>1706</ele>
        <time>2017-03-10T09:29:27Z</time>
      </trkpt>
      <trkpt lat="46.626833863556385" lon="12.09762180224061">
        <ele>1706.96</ele>
        <time>2017-03-10T09:29:32Z</time>
      </trkpt>
      <trkpt lat="46.626935284584761" lon="12.097673015668988">
        <ele>1705.52</ele>
        <time>2017-03-10T09:29:43Z</time>
      </trkpt>
      <trkpt lat="46.626953557133675" lon="12.097680140286684">
        <ele>1705.04</ele>
        <time>2017-03-10T09:29:45Z</time>
      </trkpt>
      <trkpt lat="46.627009129151702" lon="12.097709812223911">
        <ele>1705.04</ele>
        <time>2017-03-10T09:29:51Z</time>
      </trkpt>
      <trkpt lat="46.627030251547694" lon="12.09772733040154">
        <ele>1706</ele>
        <time>2017-03-10T09:29:54Z</time>
      </trkpt>
      <trkpt lat="46.62706520408392" lon="12.097733365371823">
        <ele>1706</ele>
        <time>2017-03-10T09:29:59Z</time>
      </trkpt>
      <trkpt lat="46.627072915434837" lon="12.097742417827249">
        <ele>1706.48</ele>
        <time>2017-03-10T09:30:08Z</time>
      </trkpt>
      <trkpt lat="46.627084231004119" lon="12.097743172198534">
        <ele>1704.55</ele>
        <time>2017-03-10T09:30:11Z</time>
      </trkpt>
      <trkpt lat="46.627097390592098" lon="12.097749039530754">
        <ele>1705.52</ele>
        <time>2017-03-10T09:30:13Z</time>
      </trkpt>
      <trkpt lat="46.627123542129993" lon="12.097744178026915">
        <ele>1706</ele>
        <time>2017-03-10T09:30:20Z</time>
      </trkpt>
      <trkpt lat="46.627202667295933" lon="12.097746944054961">
        <ele>1706.48</ele>
        <time>2017-03-10T09:30:29Z</time>
      </trkpt>
      <trkpt lat="46.627289839088917" lon="12.097738981246948">
        <ele>1707.9200000000001</ele>
        <time>2017-03-10T09:30:39Z</time>
      </trkpt>
      <trkpt lat="46.627324540168047" lon="12.097734790295362">
        <ele>1706.96</ele>
        <time>2017-03-10T09:30:50Z</time>
      </trkpt>
      <trkpt lat="46.627379944548011" lon="12.097708219662309">
        <ele>1705.04</ele>
        <time>2017-03-10T09:30:59Z</time>
      </trkpt>
      <trkpt lat="46.627400144934654" lon="12.097699921578169">
        <ele>1706.48</ele>
        <time>2017-03-10T09:31:02Z</time>
      </trkpt>
      <trkpt lat="46.627420345321298" lon="12.097696233540773">
        <ele>1706</ele>
        <time>2017-03-10T09:31:04Z</time>
      </trkpt>
      <trkpt lat="46.627454627305269" lon="12.097691874951124">
        <ele>1705.52</ele>
        <time>2017-03-10T09:31:08Z</time>
      </trkpt>
      <trkpt lat="46.627557892352343" lon="12.097648289054632">
        <ele>1707.9200000000001</ele>
        <time>2017-03-10T09:31:20Z</time>
      </trkpt>
      <trkpt lat="46.627601394429803" lon="12.097618952393532">
        <ele>1706.96</ele>
        <time>2017-03-10T09:31:27Z</time>
      </trkpt>
      <trkpt lat="46.627646656706929" lon="12.097598416730762">
        <ele>1707.9200000000001</ele>
        <time>2017-03-10T09:31:34Z</time>
      </trkpt>
      <trkpt lat="46.627710526809096" lon="12.097513256594539">
        <ele>1709.8399999999999</ele>
        <time>2017-03-10T09:31:45Z</time>
      </trkpt>
      <trkpt lat="46.627716645598412" lon="12.097504874691367">
        <ele>1709.8399999999999</ele>
        <time>2017-03-10T09:31:46Z</time>
      </trkpt>
      <trkpt lat="46.627780767157674" lon="12.097426587715745">
        <ele>1709.8399999999999</ele>
        <time>2017-03-10T09:31:56Z</time>
      </trkpt>
      <trkpt lat="46.627794932574034" lon="12.097413679584861">
        <ele>1710.3199999999999</ele>
        <time>2017-03-10T09:31:58Z</time>
      </trkpt>
      <trkpt lat="46.62785142660141" lon="12.09734721109271">
        <ele>1711.28</ele>
        <time>2017-03-10T09:32:11Z</time>
      </trkpt>
      <trkpt lat="46.627872800454497" lon="12.097314856946468">
        <ele>1712.25</ele>
        <time>2017-03-10T09:32:24Z</time>
      </trkpt>
      <trkpt lat="46.627938011661172" lon="12.097241515293717">
        <ele>1712.73</ele>
        <time>2017-03-10T09:32:34Z</time>
      </trkpt>
      <trkpt lat="46.627958212047815" lon="12.097205640748143">
        <ele>1713.6900000000001</ele>
        <time>2017-03-10T09:32:37Z</time>
      </trkpt>
      <trkpt lat="46.628043288365006" lon="12.097112601622939">
        <ele>1715.1300000000001</ele>
        <time>2017-03-10T09:32:48Z</time>
      </trkpt>
      <trkpt lat="46.628079917281866" lon="12.097061891108751">
        <ele>1714.6500000000001</ele>
        <time>2017-03-10T09:32:53Z</time>
      </trkpt>
      <trkpt lat="46.62817245349288" lon="12.097001122310758">
        <ele>1715.6099999999999</ele>
        <time>2017-03-10T09:33:04Z</time>
      </trkpt>
      <trkpt lat="46.628233976662159" lon="12.096961895003915">
        <ele>1716.5699999999999</ele>
        <time>2017-03-10T09:33:14Z</time>
      </trkpt>
      <trkpt lat="46.628297343850136" lon="12.096906742081046">
        <ele>1717.05</ele>
        <time>2017-03-10T09:33:25Z</time>
      </trkpt>
      <trkpt lat="46.628351742401719" lon="12.09683951921761">
        <ele>1717.05</ele>
        <time>2017-03-10T09:33:35Z</time>
      </trkpt>
      <trkpt lat="46.628393987193704" lon="12.096815211698413">
        <ele>1717.53</ele>
        <time>2017-03-10T09:33:41Z</time>
      </trkpt>
      <trkpt lat="46.628468418493867" lon="12.096766009926796">
        <ele>1718.01</ele>
        <time>2017-03-10T09:33:52Z</time>
      </trkpt>
      <trkpt lat="46.628551399335265" lon="12.096707504242659">
        <ele>1718.01</ele>
        <time>2017-03-10T09:34:02Z</time>
      </trkpt>
      <trkpt lat="46.628648294135928" lon="12.09666165523231">
        <ele>1717.05</ele>
        <time>2017-03-10T09:34:13Z</time>
      </trkpt>
      <trkpt lat="46.628711074590683" lon="12.096630055457354">
        <ele>1715.1300000000001</ele>
        <time>2017-03-10T09:34:20Z</time>
      </trkpt>
      <trkpt lat="46.628785924986005" lon="12.096547409892082">
        <ele>1716.5699999999999</ele>
        <time>2017-03-10T09:34:32Z</time>
      </trkpt>
      <trkpt lat="46.62888684310019" lon="12.096468368545175">
        <ele>1717.05</ele>
        <time>2017-03-10T09:34:42Z</time>
      </trkpt>
      <trkpt lat="46.628969740122557" lon="12.096392679959536">
        <ele>1718.01</ele>
        <time>2017-03-10T09:34:52Z</time>
      </trkpt>
      <trkpt lat="46.628990694880486" lon="12.0964065939188">
        <ele>1718.01</ele>
        <time>2017-03-10T09:34:56Z</time>
      </trkpt>
      <trkpt lat="46.629002261906862" lon="12.096389997750521">
        <ele>1718.01</ele>
        <time>2017-03-10T09:34:58Z</time>
      </trkpt>
      <trkpt lat="46.629121787846088" lon="12.096309782937169">
        <ele>1718.97</ele>
        <time>2017-03-10T09:35:09Z</time>
      </trkpt>
      <trkpt lat="46.629197895526886" lon="12.096250774338841">
        <ele>1718.97</ele>
        <time>2017-03-10T09:35:18Z</time>
      </trkpt>
      <trkpt lat="46.629233099520206" lon="12.096208361908793">
        <ele>1718.49</ele>
        <time>2017-03-10T09:35:23Z</time>
      </trkpt>
      <trkpt lat="46.629253048449755" lon="12.096192520111799">
        <ele>1718.01</ele>
        <time>2017-03-10T09:35:26Z</time>
      </trkpt>
      <trkpt lat="46.629268135875463" lon="12.096185311675072">
        <ele>1718.01</ele>
        <time>2017-03-10T09:35:28Z</time>
      </trkpt>
      <trkpt lat="46.629355726763606" lon="12.096105348318815">
        <ele>1717.53</ele>
        <time>2017-03-10T09:35:38Z</time>
      </trkpt>
      <trkpt lat="46.629436695948243" lon="12.096024043858051">
        <ele>1718.49</ele>
        <time>2017-03-10T09:35:48Z</time>
      </trkpt>
      <trkpt lat="46.629494111984968" lon="12.095941230654716">
        <ele>1718.97</ele>
        <time>2017-03-10T09:35:57Z</time>
      </trkpt>
      <trkpt lat="46.629542643204331" lon="12.09586470387876">
        <ele>1718.97</ele>
        <time>2017-03-10T09:36:05Z</time>
      </trkpt>
      <trkpt lat="46.629613051190972" lon="12.095794463530183">
        <ele>1718.97</ele>
        <time>2017-03-10T09:36:14Z</time>
      </trkpt>
      <trkpt lat="46.629694439470768" lon="12.095711315050721">
        <ele>1718.49</ele>
        <time>2017-03-10T09:36:24Z</time>
      </trkpt>
      <trkpt lat="46.629764093086123" lon="12.095638392493129">
        <ele>1719.46</ele>
        <time>2017-03-10T09:36:34Z</time>
      </trkpt>
      <trkpt lat="46.629828549921513" lon="12.095564128831029">
        <ele>1719.46</ele>
        <time>2017-03-10T09:36:43Z</time>
      </trkpt>
      <trkpt lat="46.62987289018929" lon="12.095516687259078">
        <ele>1719.46</ele>
        <time>2017-03-10T09:36:50Z</time>
      </trkpt>
      <trkpt lat="46.629951428622007" lon="12.095413086935878">
        <ele>1718.97</ele>
        <time>2017-03-10T09:37:02Z</time>
      </trkpt>
      <trkpt lat="46.629981771111488" lon="12.095386013388634">
        <ele>1719.46</ele>
        <time>2017-03-10T09:37:06Z</time>
      </trkpt>
      <trkpt lat="46.630009263753891" lon="12.095355000346899">
        <ele>1720.9000000000001</ele>
        <time>2017-03-10T09:37:10Z</time>
      </trkpt>
      <trkpt lat="46.630049161612988" lon="12.095277803018689">
        <ele>1719.9400000000001</ele>
        <time>2017-03-10T09:37:18Z</time>
      </trkpt>
      <trkpt lat="46.630106158554554" lon="12.095193900167942">
        <ele>1720.4200000000001</ele>
        <time>2017-03-10T09:37:27Z</time>
      </trkpt>
      <trkpt lat="46.630169274285436" lon="12.095141848549247">
        <ele>1720.4200000000001</ele>
        <time>2017-03-10T09:37:35Z</time>
      </trkpt>
      <trkpt lat="46.630234234035015" lon="12.095066411420703">
        <ele>1720.4200000000001</ele>
        <time>2017-03-10T09:37:44Z</time>
      </trkpt>
      <trkpt lat="46.630248986184597" lon="12.095052413642406">
        <ele>1720.4200000000001</ele>
        <time>2017-03-10T09:37:46Z</time>
      </trkpt>
      <trkpt lat="46.630308162420988" lon="12.095008576288819">
        <ele>1722.3399999999999</ele>
        <time>2017-03-10T09:37:53Z</time>
      </trkpt>
      <trkpt lat="46.630396842956543" lon="12.094938168302178">
        <ele>1722.8199999999999</ele>
        <time>2017-03-10T09:38:04Z</time>
      </trkpt>
      <trkpt lat="46.63046264089644" lon="12.09488108754158">
        <ele>1726.1800000000001</ele>
        <time>2017-03-10T09:38:13Z</time>
      </trkpt>
      <trkpt lat="46.630523409694433" lon="12.094827946275473">
        <ele>1725.7</ele>
        <time>2017-03-10T09:38:21Z</time>
      </trkpt>
      <trkpt lat="46.630590967833996" lon="12.094765333458781">
        <ele>1726.1800000000001</ele>
        <time>2017-03-10T09:38:30Z</time>
      </trkpt>
      <trkpt lat="46.630618292838335" lon="12.094755191355944">
        <ele>1726.1800000000001</ele>
        <time>2017-03-10T09:38:34Z</time>
      </trkpt>
      <trkpt lat="46.630701022222638" lon="12.094704145565629">
        <ele>1728.1099999999999</ele>
        <time>2017-03-10T09:38:46Z</time>
      </trkpt>
      <trkpt lat="46.630776794627309" lon="12.094654524698853">
        <ele>1728.1099999999999</ele>
        <time>2017-03-10T09:38:57Z</time>
      </trkpt>
      <trkpt lat="46.630838150158525" lon="12.094606412574649">
        <ele>1728.5899999999999</ele>
        <time>2017-03-10T09:39:06Z</time>
      </trkpt>
      <trkpt lat="46.630920879542828" lon="12.094547571614385">
        <ele>1731.47</ele>
        <time>2017-03-10T09:39:18Z</time>
      </trkpt>
      <trkpt lat="46.63097913376987" lon="12.094507589936256">
        <ele>1732.9100000000001</ele>
        <time>2017-03-10T09:39:27Z</time>
      </trkpt>
      <trkpt lat="46.6310172714293" lon="12.094482611864805">
        <ele>1732.9100000000001</ele>
        <time>2017-03-10T09:39:32Z</time>
      </trkpt>
      <trkpt lat="46.631045937538147" lon="12.094454616308212">
        <ele>1732.9100000000001</ele>
        <time>2017-03-10T09:39:36Z</time>
      </trkpt>
      <trkpt lat="46.631121123209596" lon="12.09437683224678">
        <ele>1732.4300000000001</ele>
        <time>2017-03-10T09:39:48Z</time>
      </trkpt>
      <trkpt lat="46.631199326366186" lon="12.094353949651122">
        <ele>1733.3900000000001</ele>
        <time>2017-03-10T09:39:57Z</time>
      </trkpt>
      <trkpt lat="46.631214916706085" lon="12.09434213116765">
        <ele>1733.3900000000001</ele>
        <time>2017-03-10T09:40:00Z</time>
      </trkpt>
      <trkpt lat="46.631239308044314" lon="12.094332491979003">
        <ele>1733.3900000000001</ele>
        <time>2017-03-10T09:40:03Z</time>
      </trkpt>
      <trkpt lat="46.631270824000239" lon="12.094321846961975">
        <ele>1734.8399999999999</ele>
        <time>2017-03-10T09:40:06Z</time>
      </trkpt>
      <trkpt lat="46.631361432373524" lon="12.094303322955966">
        <ele>1735.3199999999999</ele>
        <time>2017-03-10T09:40:16Z</time>
      </trkpt>
      <trkpt lat="46.631389176473022" lon="12.094295360147953">
        <ele>1736.28</ele>
        <time>2017-03-10T09:40:19Z</time>
      </trkpt>
      <trkpt lat="46.631466206163168" lon="12.094266777858138">
        <ele>1738.2</ele>
        <time>2017-03-10T09:40:30Z</time>
      </trkpt>
      <trkpt lat="46.631541140377522" lon="12.094255378469825">
        <ele>1739.1600000000001</ele>
        <time>2017-03-10T09:40:41Z</time>
      </trkpt>
      <trkpt lat="46.631557820364833" lon="12.094246074557304">
        <ele>1738.6800000000001</ele>
        <time>2017-03-10T09:40:43Z</time>
      </trkpt>
      <trkpt lat="46.63165295496583" lon="12.094266694039106">
        <ele>1739.1600000000001</ele>
        <time>2017-03-10T09:40:53Z</time>
      </trkpt>
      <trkpt lat="46.631724704056978" lon="12.094274489209056">
        <ele>1739.6400000000001</ele>
        <time>2017-03-10T09:41:03Z</time>
      </trkpt>
      <trkpt lat="46.631785221397877" lon="12.094304412603378">
        <ele>1741.5699999999999</ele>
        <time>2017-03-10T09:41:13Z</time>
      </trkpt>
      <trkpt lat="46.631867531687021" lon="12.094322517514229">
        <ele>1742.53</ele>
        <time>2017-03-10T09:41:24Z</time>
      </trkpt>
      <trkpt lat="46.631956715136766" lon="12.094294019043446">
        <ele>1741.5699999999999</ele>
        <time>2017-03-10T09:41:34Z</time>
      </trkpt>
      <trkpt lat="46.632033996284008" lon="12.094233501702547">
        <ele>1744.45</ele>
        <time>2017-03-10T09:41:44Z</time>
      </trkpt>
      <trkpt lat="46.632085964083672" lon="12.094162339344621">
        <ele>1743.49</ele>
        <time>2017-03-10T09:41:53Z</time>
      </trkpt>
      <trkpt lat="46.63216307759285" lon="12.094108276069164">
        <ele>1743.97</ele>
        <time>2017-03-10T09:42:04Z</time>
      </trkpt>
      <trkpt lat="46.632211273536086" lon="12.094048010185361">
        <ele>1743.49</ele>
        <time>2017-03-10T09:42:13Z</time>
      </trkpt>
      <trkpt lat="46.632248656824231" lon="12.094027474522591">
        <ele>1744.45</ele>
        <time>2017-03-10T09:42:18Z</time>
      </trkpt>
      <trkpt lat="46.632335744798183" lon="12.093953294679523">
        <ele>1745.8900000000001</ele>
        <time>2017-03-10T09:42:29Z</time>
      </trkpt>
      <trkpt lat="46.632401878014207" lon="12.093897555023432">
        <ele>1746.8499999999999</ele>
        <time>2017-03-10T09:42:37Z</time>
      </trkpt>
      <trkpt lat="46.632417971268296" lon="12.093879114836454">
        <ele>1746.3699999999999</ele>
        <time>2017-03-10T09:42:39Z</time>
      </trkpt>
      <trkpt lat="46.632451415061951" lon="12.093852292746305">
        <ele>1746.8499999999999</ele>
        <time>2017-03-10T09:42:43Z</time>
      </trkpt>
      <trkpt lat="46.632549734786153" lon="12.093766629695892">
        <ele>1745.8900000000001</ele>
        <time>2017-03-10T09:42:55Z</time>
      </trkpt>
      <trkpt lat="46.632619304582477" lon="12.093720780685544">
        <ele>1745.8900000000001</ele>
        <time>2017-03-10T09:43:04Z</time>
      </trkpt>
      <trkpt lat="46.632678313180804" lon="12.093701669946313">
        <ele>1746.3699999999999</ele>
        <time>2017-03-10T09:43:14Z</time>
      </trkpt>
      <trkpt lat="46.632675630971789" lon="12.093726480379701">
        <ele>1745.4100000000001</ele>
        <time>2017-03-10T09:43:24Z</time>
      </trkpt>
      <trkpt lat="46.632636990398169" lon="12.093752380460501">
        <ele>1746.3699999999999</ele>
        <time>2017-03-10T09:43:47Z</time>
      </trkpt>
      <trkpt lat="46.632641600444913" lon="12.093727067112923">
        <ele>1747.8099999999999</ele>
        <time>2017-03-10T09:43:53Z</time>
      </trkpt>
      <trkpt lat="46.632668506354094" lon="12.093721451237798">
        <ele>1746.8499999999999</ele>
        <time>2017-03-10T09:44:01Z</time>
      </trkpt>
      <trkpt lat="46.632721899077296" lon="12.093717427924275">
        <ele>1746.8499999999999</ele>
        <time>2017-03-10T09:44:13Z</time>
      </trkpt>
      <trkpt lat="46.632839413359761" lon="12.093674931675196">
        <ele>1747.3299999999999</ele>
        <time>2017-03-10T09:44:26Z</time>
      </trkpt>
      <trkpt lat="46.632909653708339" lon="12.093558255583048">
        <ele>1748.29</ele>
        <time>2017-03-10T09:44:36Z</time>
      </trkpt>
      <trkpt lat="46.632919041439891" lon="12.093526991084218">
        <ele>1748.29</ele>
        <time>2017-03-10T09:44:38Z</time>
      </trkpt>
      <trkpt lat="46.632931027561426" lon="12.093408722430468">
        <ele>1748.29</ele>
        <time>2017-03-10T09:44:47Z</time>
      </trkpt>
      <trkpt lat="46.632930357009172" lon="12.093389695510268">
        <ele>1748.29</ele>
        <time>2017-03-10T09:44:49Z</time>
      </trkpt>
      <trkpt lat="46.632951814681292" lon="12.093341080471873">
        <ele>1748.29</ele>
        <time>2017-03-10T09:44:53Z</time>
      </trkpt>
      <trkpt lat="46.632967069745064" lon="12.093327166512609">
        <ele>1748.29</ele>
        <time>2017-03-10T09:44:55Z</time>
      </trkpt>
      <trkpt lat="46.633018115535378" lon="12.093239324167371">
        <ele>1749.74</ele>
        <time>2017-03-10T09:45:05Z</time>
      </trkpt>
      <trkpt lat="46.633010823279619" lon="12.093206802383065">
        <ele>1750.22</ele>
        <time>2017-03-10T09:45:16Z</time>
      </trkpt>
      <trkpt lat="46.633048709481955" lon="12.093191547319293">
        <ele>1749.74</ele>
        <time>2017-03-10T09:45:21Z</time>
      </trkpt>
      <trkpt lat="46.6331706661731" lon="12.093178723007441">
        <ele>1750.7</ele>
        <time>2017-03-10T09:45:32Z</time>
      </trkpt>
      <trkpt lat="46.633262699469924" lon="12.093172185122967">
        <ele>1751.1800000000001</ele>
        <time>2017-03-10T09:45:42Z</time>
      </trkpt>
      <trkpt lat="46.633352553471923" lon="12.093150308355689">
        <ele>1751.1800000000001</ele>
        <time>2017-03-10T09:45:51Z</time>
      </trkpt>
      <trkpt lat="46.633385997265577" lon="12.093118038028479">
        <ele>1752.6199999999999</ele>
        <time>2017-03-10T09:45:56Z</time>
      </trkpt>
      <trkpt lat="46.633455399423838" lon="12.09303941577673">
        <ele>1754.0599999999999</ele>
        <time>2017-03-10T09:46:08Z</time>
      </trkpt>
      <trkpt lat="46.633485406637192" lon="12.093004463240504">
        <ele>1753.0999999999999</ele>
        <time>2017-03-10T09:46:12Z</time>
      </trkpt>
      <trkpt lat="46.633513318374753" lon="12.092940676957369">
        <ele>1755.02</ele>
        <time>2017-03-10T09:46:17Z</time>
      </trkpt>
      <trkpt lat="46.633570399135351" lon="12.092790389433503">
        <ele>1753.0999999999999</ele>
        <time>2017-03-10T09:46:28Z</time>
      </trkpt>
      <trkpt lat="46.633626893162727" lon="12.092682681977749">
        <ele>1753.5799999999999</ele>
        <time>2017-03-10T09:46:37Z</time>
      </trkpt>
      <trkpt lat="46.633703084662557" lon="12.092592492699623">
        <ele>1753.0999999999999</ele>
        <time>2017-03-10T09:46:46Z</time>
      </trkpt>
      <trkpt lat="46.633760752156377" lon="12.092501297593117">
        <ele>1752.6199999999999</ele>
        <time>2017-03-10T09:46:53Z</time>
      </trkpt>
      <trkpt lat="46.633816743269563" lon="12.092402223497629">
        <ele>1754.0599999999999</ele>
        <time>2017-03-10T09:47:03Z</time>
      </trkpt>
      <trkpt lat="46.633860748261213" lon="12.092316895723343">
        <ele>1755.02</ele>
        <time>2017-03-10T09:47:12Z</time>
      </trkpt>
      <trkpt lat="46.633923780173063" lon="12.092224108055234">
        <ele>1755.99</ele>
        <time>2017-03-10T09:47:23Z</time>
      </trkpt>
      <trkpt lat="46.633982704952359" lon="12.092153029516339">
        <ele>1757.9100000000001</ele>
        <time>2017-03-10T09:47:33Z</time>
      </trkpt>
      <trkpt lat="46.633996283635497" lon="12.092141043394804">
        <ele>1757.9100000000001</ele>
        <time>2017-03-10T09:47:35Z</time>
      </trkpt>
      <trkpt lat="46.634032828733325" lon="12.092080358415842">
        <ele>1758.3900000000001</ele>
        <time>2017-03-10T09:47:42Z</time>
      </trkpt>
      <trkpt lat="46.634116563946009" lon="12.092016320675611">
        <ele>1759.8299999999999</ele>
        <time>2017-03-10T09:47:54Z</time>
      </trkpt>
      <trkpt lat="46.634191246703267" lon="12.09195077419281">
        <ele>1759.8299999999999</ele>
        <time>2017-03-10T09:48:04Z</time>
      </trkpt>
      <trkpt lat="46.634268024936318" lon="12.091884640976787">
        <ele>1759.8299999999999</ele>
        <time>2017-03-10T09:48:13Z</time>
      </trkpt>
      <trkpt lat="46.634341953322291" lon="12.0918183401227">
        <ele>1759.8299999999999</ele>
        <time>2017-03-10T09:48:23Z</time>
      </trkpt>
      <trkpt lat="46.634420827031136" lon="12.091711554676294">
        <ele>1758.8699999999999</ele>
        <time>2017-03-10T09:48:34Z</time>
      </trkpt>
      <trkpt lat="46.634489977732301" lon="12.09158674813807">
        <ele>1759.8299999999999</ele>
        <time>2017-03-10T09:48:45Z</time>
      </trkpt>
      <trkpt lat="46.634552842006087" lon="12.091475017368793">
        <ele>1759.8299999999999</ele>
        <time>2017-03-10T09:48:55Z</time>
      </trkpt>
      <trkpt lat="46.634602546691895" lon="12.091379296034575">
        <ele>1760.79</ele>
        <time>2017-03-10T09:49:04Z</time>
      </trkpt>
      <trkpt lat="46.634631548076868" lon="12.09133218973875">
        <ele>1761.27</ele>
        <time>2017-03-10T09:49:09Z</time>
      </trkpt>
      <trkpt lat="46.634679827839136" lon="12.091238144785166">
        <ele>1761.75</ele>
        <time>2017-03-10T09:49:18Z</time>
      </trkpt>
      <trkpt lat="46.634745039045811" lon="12.091138735413551">
        <ele>1762.23</ele>
        <time>2017-03-10T09:49:29Z</time>
      </trkpt>
      <trkpt lat="46.634829109534621" lon="12.091030357405543">
        <ele>1762.71</ele>
        <time>2017-03-10T09:49:41Z</time>
      </trkpt>
      <trkpt lat="46.634840089827776" lon="12.091010492295027">
        <ele>1762.71</ele>
        <time>2017-03-10T09:49:43Z</time>
      </trkpt>
      <trkpt lat="46.634908989071846" lon="12.090901862829924">
        <ele>1763.2</ele>
        <time>2017-03-10T09:49:54Z</time>
      </trkpt>
      <trkpt lat="46.634944779798388" lon="12.090822737663984">
        <ele>1764.1600000000001</ele>
        <time>2017-03-10T09:50:03Z</time>
      </trkpt>
      <trkpt lat="46.635008146986365" lon="12.090736990794539">
        <ele>1763.2</ele>
        <time>2017-03-10T09:50:15Z</time>
      </trkpt>
      <trkpt lat="46.635097581893206" lon="12.090662475675344">
        <ele>1764.6400000000001</ele>
        <time>2017-03-10T09:50:26Z</time>
      </trkpt>
      <trkpt lat="46.635154075920582" lon="12.090579243376851">
        <ele>1765.5999999999999</ele>
        <time>2017-03-10T09:50:36Z</time>
      </trkpt>
      <trkpt lat="46.635222304612398" lon="12.090498274192214">
        <ele>1766.5599999999999</ele>
        <time>2017-03-10T09:50:46Z</time>
      </trkpt>
      <trkpt lat="46.635276954621077" lon="12.090468602254987">
        <ele>1766.5599999999999</ele>
        <time>2017-03-10T09:50:51Z</time>
      </trkpt>
      <trkpt lat="46.635310482233763" lon="12.090393668040633">
        <ele>1766.5599999999999</ele>
        <time>2017-03-10T09:51:01Z</time>
      </trkpt>
      <trkpt lat="46.635374771431088" lon="12.09027917124331">
        <ele>1765.5999999999999</ele>
        <time>2017-03-10T09:51:12Z</time>
      </trkpt>
      <trkpt lat="46.635479461401701" lon="12.090168111026287">
        <ele>1766.5599999999999</ele>
        <time>2017-03-10T09:51:25Z</time>
      </trkpt>
      <trkpt lat="46.635566465556622" lon="12.09011790342629">
        <ele>1766.5599999999999</ele>
        <time>2017-03-10T09:51:34Z</time>
      </trkpt>
      <trkpt lat="46.635639052838087" lon="12.09001581184566">
        <ele>1767.04</ele>
        <time>2017-03-10T09:51:45Z</time>
      </trkpt>
      <trkpt lat="46.635697307065129" lon="12.08994054235518">
        <ele>1767.52</ele>
        <time>2017-03-10T09:51:54Z</time>
      </trkpt>
      <trkpt lat="46.635750196874142" lon="12.089847587049007">
        <ele>1766.5599999999999</ele>
        <time>2017-03-10T09:52:06Z</time>
      </trkpt>
      <trkpt lat="46.63580970838666" lon="12.089776089414954">
        <ele>1765.5999999999999</ele>
        <time>2017-03-10T09:52:17Z</time>
      </trkpt>
      <trkpt lat="46.635885899886489" lon="12.089717667549849">
        <ele>1766.5599999999999</ele>
        <time>2017-03-10T09:52:27Z</time>
      </trkpt>
      <trkpt lat="46.635935269296169" lon="12.08963711746037">
        <ele>1767.52</ele>
        <time>2017-03-10T09:52:36Z</time>
      </trkpt>
      <trkpt lat="46.635982375591993" lon="12.089584311470389">
        <ele>1768.48</ele>
        <time>2017-03-10T09:52:44Z</time>
      </trkpt>
      <trkpt lat="46.636085556820035" lon="12.089535612612963">
        <ele>1766.5599999999999</ele>
        <time>2017-03-10T09:52:55Z</time>
      </trkpt>
      <trkpt lat="46.636133249849081" lon="12.089494876563549">
        <ele>1767.04</ele>
        <time>2017-03-10T09:53:03Z</time>
      </trkpt>
      <trkpt lat="46.636262834072113" lon="12.089462438598275">
        <ele>1768.48</ele>
        <time>2017-03-10T09:53:13Z</time>
      </trkpt>
      <trkpt lat="46.636380264535546" lon="12.089407201856375">
        <ele>1768.48</ele>
        <time>2017-03-10T09:53:25Z</time>
      </trkpt>
      <trkpt lat="46.63640633225441" lon="12.089391360059381">
        <ele>1768.96</ele>
        <time>2017-03-10T09:53:28Z</time>
      </trkpt>
      <trkpt lat="46.636506328359246" lon="12.089348277077079">
        <ele>1769.4400000000001</ele>
        <time>2017-03-10T09:53:40Z</time>
      </trkpt>
      <trkpt lat="46.636520912870765" lon="12.089335704222322">
        <ele>1769.4400000000001</ele>
        <time>2017-03-10T09:53:42Z</time>
      </trkpt>
      <trkpt lat="46.636558715254068" lon="12.089313575997949">
        <ele>1768.96</ele>
        <time>2017-03-10T09:53:46Z</time>
      </trkpt>
      <trkpt lat="46.636631386354566" lon="12.08925649523735">
        <ele>1768.48</ele>
        <time>2017-03-10T09:53:56Z</time>
      </trkpt>
      <trkpt lat="46.63664672523737" lon="12.089233445003629">
        <ele>1768.48</ele>
        <time>2017-03-10T09:53:59Z</time>
      </trkpt>
      <trkpt lat="46.636716295033693" lon="12.089141411706805">
        <ele>1768.96</ele>
        <time>2017-03-10T09:54:10Z</time>
      </trkpt>
      <trkpt lat="46.636813944205642" lon="12.08907519467175">
        <ele>1768.48</ele>
        <time>2017-03-10T09:54:20Z</time>
      </trkpt>
      <trkpt lat="46.636880496516824" lon="12.089010318741202">
        <ele>1768.96</ele>
        <time>2017-03-10T09:54:30Z</time>
      </trkpt>
      <trkpt lat="46.636910084635019" lon="12.089000847190619">
        <ele>1768</ele>
        <time>2017-03-10T09:54:34Z</time>
      </trkpt>
      <trkpt lat="46.63696238771081" lon="12.088946364820004">
        <ele>1768</ele>
        <time>2017-03-10T09:54:44Z</time>
      </trkpt>
      <trkpt lat="46.637014606967568" lon="12.088942006230354">
        <ele>1768</ele>
        <time>2017-03-10T09:54:54Z</time>
      </trkpt>
      <trkpt lat="46.637005051597953" lon="12.088948963209987">
        <ele>1768.48</ele>
        <time>2017-03-10T09:55:08Z</time>
      </trkpt>
      <trkpt lat="46.637058444321156" lon="12.088892636820674">
        <ele>1768.48</ele>
        <time>2017-03-10T09:55:22Z</time>
      </trkpt>
      <trkpt lat="46.637131031602621" lon="12.08885089494288">
        <ele>1769.4400000000001</ele>
        <time>2017-03-10T09:55:32Z</time>
      </trkpt>
      <trkpt lat="46.637155087664723" lon="12.088823402300477">
        <ele>1767.52</ele>
        <time>2017-03-10T09:55:40Z</time>
      </trkpt>
      <trkpt lat="46.637162631377578" lon="12.088826838880777">
        <ele>1766.5599999999999</ele>
        <time>2017-03-10T09:55:47Z</time>
      </trkpt>
      <trkpt lat="46.637189285829663" lon="12.088817618787289">
        <ele>1770.4100000000001</ele>
        <time>2017-03-10T09:55:51Z</time>
      </trkpt>
      <trkpt lat="46.637250808998942" lon="12.088790712878108">
        <ele>1768</ele>
        <time>2017-03-10T09:55:58Z</time>
      </trkpt>
      <trkpt lat="46.63730051368475" lon="12.088795574381948">
        <ele>1768.48</ele>
        <time>2017-03-10T09:56:07Z</time>
      </trkpt>
      <trkpt lat="46.637365138158202" lon="12.088769841939211">
        <ele>1768</ele>
        <time>2017-03-10T09:56:15Z</time>
      </trkpt>
      <trkpt lat="46.637399671599269" lon="12.088749893009663">
        <ele>1765.5999999999999</ele>
        <time>2017-03-10T09:56:20Z</time>
      </trkpt>
      <trkpt lat="46.637404030188918" lon="12.088775876909494">
        <ele>1768</ele>
        <time>2017-03-10T09:56:23Z</time>
      </trkpt>
      <trkpt lat="46.637413334101439" lon="12.088787192478776">
        <ele>1767.52</ele>
        <time>2017-03-10T09:56:33Z</time>
      </trkpt>
      <trkpt lat="46.637396235018969" lon="12.08879473619163">
        <ele>1767.04</ele>
        <time>2017-03-10T09:56:44Z</time>
      </trkpt>
      <trkpt lat="46.637403191998601" lon="12.088781073689461">
        <ele>1767.04</ele>
        <time>2017-03-10T09:57:03Z</time>
      </trkpt>
      <trkpt lat="46.637400677427649" lon="12.088766153901815">
        <ele>1767.04</ele>
        <time>2017-03-10T09:57:25Z</time>
      </trkpt>
      <trkpt lat="46.637405203655362" lon="12.088787360116839">
        <ele>1768</ele>
        <time>2017-03-10T09:57:54Z</time>
      </trkpt>
      <trkpt lat="46.637386092916131" lon="12.088783504441381">
        <ele>1767.52</ele>
        <time>2017-03-10T09:58:29Z</time>
      </trkpt>
      <trkpt lat="46.637402269989252" lon="12.088787192478776">
        <ele>1767.52</ele>
        <time>2017-03-10T09:58:58Z</time>
      </trkpt>
      <trkpt lat="46.637404197826982" lon="12.088786773383617">
        <ele>1767.04</ele>
        <time>2017-03-10T09:59:24Z</time>
      </trkpt>
      <trkpt lat="46.63741098716855" lon="12.088796580210328">
        <ele>1767.04</ele>
        <time>2017-03-10T09:59:47Z</time>
      </trkpt>
      <trkpt lat="46.637397408485413" lon="12.088808817788959">
        <ele>1766.5599999999999</ele>
        <time>2017-03-10T10:00:17Z</time>
      </trkpt>
      <trkpt lat="46.637396821752191" lon="12.088769590482116">
        <ele>1766.5599999999999</ele>
        <time>2017-03-10T10:00:42Z</time>
      </trkpt>
      <trkpt lat="46.637372514232993" lon="12.088801609352231">
        <ele>1767.04</ele>
        <time>2017-03-10T10:01:02Z</time>
      </trkpt>
      <trkpt lat="46.637380393221974" lon="12.08880546502769">
        <ele>1767.04</ele>
        <time>2017-03-10T10:01:33Z</time>
      </trkpt>
      <trkpt lat="46.637350637465715" lon="12.088780403137207">
        <ele>1767.04</ele>
        <time>2017-03-10T10:02:01Z</time>
      </trkpt>
      <trkpt lat="46.637367820367217" lon="12.08877076394856">
        <ele>1767.52</ele>
        <time>2017-03-10T10:02:24Z</time>
      </trkpt>
      <trkpt lat="46.637396067380905" lon="12.088800771161914">
        <ele>1768.48</ele>
        <time>2017-03-10T10:02:42Z</time>
      </trkpt>
      <trkpt lat="46.637390954419971" lon="12.088757939636707">
        <ele>1768.96</ele>
        <time>2017-03-10T10:02:50Z</time>
      </trkpt>
      <trkpt lat="46.637424482032657" lon="12.088760873302817">
        <ele>1769.4400000000001</ele>
        <time>2017-03-10T10:03:03Z</time>
      </trkpt>
      <trkpt lat="46.637425571680069" lon="12.088759699836373">
        <ele>1767.52</ele>
        <time>2017-03-10T10:03:08Z</time>
      </trkpt>
      <trkpt lat="46.637424062937498" lon="12.088747378438711">
        <ele>1768</ele>
        <time>2017-03-10T10:03:21Z</time>
      </trkpt>
      <trkpt lat="46.637411322444677" lon="12.08874779753387">
        <ele>1768.48</ele>
        <time>2017-03-10T10:03:38Z</time>
      </trkpt>
      <trkpt lat="46.637430768460035" lon="12.088757771998644">
        <ele>1768.96</ele>
        <time>2017-03-10T10:03:54Z</time>
      </trkpt>
      <trkpt lat="46.637407634407282" lon="12.088760454207659">
        <ele>1768</ele>
        <time>2017-03-10T10:04:15Z</time>
      </trkpt>
      <trkpt lat="46.637418698519468" lon="12.088770512491465">
        <ele>1768.48</ele>
        <time>2017-03-10T10:04:26Z</time>
      </trkpt>
      <trkpt lat="46.63743244484067" lon="12.088751317933202">
        <ele>1768.96</ele>
        <time>2017-03-10T10:04:36Z</time>
      </trkpt>
      <trkpt lat="46.637440407648683" lon="12.088745282962918">
        <ele>1768.96</ele>
        <time>2017-03-10T10:04:37Z</time>
      </trkpt>
      <trkpt lat="46.637522717937827" lon="12.088715275749564">
        <ele>1769.9200000000001</ele>
        <time>2017-03-10T10:04:47Z</time>
      </trkpt>
      <trkpt lat="46.637549791485071" lon="12.088683508336544">
        <ele>1769.9200000000001</ele>
        <time>2017-03-10T10:04:51Z</time>
      </trkpt>
      <trkpt lat="46.637565214186907" lon="12.088688537478447">
        <ele>1768.96</ele>
        <time>2017-03-10T10:05:01Z</time>
      </trkpt>
      <trkpt lat="46.637583151459694" lon="12.088695159181952">
        <ele>1768.96</ele>
        <time>2017-03-10T10:05:09Z</time>
      </trkpt>
      <trkpt lat="46.637603435665369" lon="12.088674791157246">
        <ele>1770.4100000000001</ele>
        <time>2017-03-10T10:05:12Z</time>
      </trkpt>
      <trkpt lat="46.637623636052012" lon="12.08864863961935">
        <ele>1769.4400000000001</ele>
        <time>2017-03-10T10:05:15Z</time>
      </trkpt>
      <trkpt lat="46.637638555839658" lon="12.088629193603992">
        <ele>1770.4100000000001</ele>
        <time>2017-03-10T10:05:17Z</time>
      </trkpt>
      <trkpt lat="46.637648530304432" lon="12.088628355413675">
        <ele>1769.9200000000001</ele>
        <time>2017-03-10T10:05:18Z</time>
      </trkpt>
      <trkpt lat="46.63772321306169" lon="12.08858166821301">
        <ele>1769.4400000000001</ele>
        <time>2017-03-10T10:05:27Z</time>
      </trkpt>
      <trkpt lat="46.637738719582558" lon="12.088559120893478">
        <ele>1769.9200000000001</ele>
        <time>2017-03-10T10:05:29Z</time>
      </trkpt>
      <trkpt lat="46.637859586626291" lon="12.088476056233048">
        <ele>1769.9200000000001</ele>
        <time>2017-03-10T10:05:40Z</time>
      </trkpt>
      <trkpt lat="46.637959079816937" lon="12.088406989350915">
        <ele>1770.4100000000001</ele>
        <time>2017-03-10T10:05:50Z</time>
      </trkpt>
      <trkpt lat="46.638040719553828" lon="12.088354686275125">
        <ele>1770.8900000000001</ele>
        <time>2017-03-10T10:05:59Z</time>
      </trkpt>
      <trkpt lat="46.638083131983876" lon="12.088327696546912">
        <ele>1771.8499999999999</ele>
        <time>2017-03-10T10:06:04Z</time>
      </trkpt>
      <trkpt lat="46.638111798092723" lon="12.088299030438066">
        <ele>1772.3299999999999</ele>
        <time>2017-03-10T10:06:08Z</time>
      </trkpt>
      <trkpt lat="46.638145409524441" lon="12.088271705433726">
        <ele>1771.8499999999999</ele>
        <time>2017-03-10T10:06:13Z</time>
      </trkpt>
      <trkpt lat="46.638216488063335" lon="12.088211607187986">
        <ele>1773.77</ele>
        <time>2017-03-10T10:06:23Z</time>
      </trkpt>
      <trkpt lat="46.638307515531778" lon="12.088143043220043">
        <ele>1774.73</ele>
        <time>2017-03-10T10:06:34Z</time>
      </trkpt>
      <trkpt lat="46.638375073671341" lon="12.088105576112866">
        <ele>1775.21</ele>
        <time>2017-03-10T10:06:43Z</time>
      </trkpt>
      <trkpt lat="46.638383120298386" lon="12.088104654103518">
        <ele>1775.6900000000001</ele>
        <time>2017-03-10T10:06:44Z</time>
      </trkpt>
      <trkpt lat="46.638451600447297" lon="12.088064588606358">
        <ele>1775.21</ele>
        <time>2017-03-10T10:06:55Z</time>
      </trkpt>
      <trkpt lat="46.638499293476343" lon="12.088039107620716">
        <ele>1775.6900000000001</ele>
        <time>2017-03-10T10:07:08Z</time>
      </trkpt>
      <trkpt lat="46.638523265719414" lon="12.088025445118546">
        <ele>1777.6099999999999</ele>
        <time>2017-03-10T10:07:11Z</time>
      </trkpt>
      <trkpt lat="46.638579005375504" lon="12.088007004931569">
        <ele>1777.1300000000001</ele>
        <time>2017-03-10T10:07:17Z</time>
      </trkpt>
      <trkpt lat="46.638627620413899" lon="12.087988061830401">
        <ele>1778.0999999999999</ele>
        <time>2017-03-10T10:07:23Z</time>
      </trkpt>
      <trkpt lat="46.638692915439606" lon="12.087958641350269">
        <ele>1780.02</ele>
        <time>2017-03-10T10:07:32Z</time>
      </trkpt>
      <trkpt lat="46.638711271807551" lon="12.087960569187999">
        <ele>1779.54</ele>
        <time>2017-03-10T10:07:34Z</time>
      </trkpt>
      <trkpt lat="46.638802131637931" lon="12.08793131634593">
        <ele>1781.9400000000001</ele>
        <time>2017-03-10T10:07:45Z</time>
      </trkpt>
      <trkpt lat="46.638808753341436" lon="12.087927293032408">
        <ele>1781.9400000000001</ele>
        <time>2017-03-10T10:07:46Z</time>
      </trkpt>
      <trkpt lat="46.638874299824238" lon="12.087849676609039">
        <ele>1781.46</ele>
        <time>2017-03-10T10:07:55Z</time>
      </trkpt>
      <trkpt lat="46.638943534344435" lon="12.087782034650445">
        <ele>1783.3800000000001</ele>
        <time>2017-03-10T10:08:04Z</time>
      </trkpt>
      <trkpt lat="46.639005141332746" lon="12.087734676897526">
        <ele>1784.8199999999999</ele>
        <time>2017-03-10T10:08:13Z</time>
      </trkpt>
      <trkpt lat="46.639082338660955" lon="12.087711039930582">
        <ele>1784.8199999999999</ele>
        <time>2017-03-10T10:08:22Z</time>
      </trkpt>
      <trkpt lat="46.639122823253274" lon="12.087711961939931">
        <ele>1786.27</ele>
        <time>2017-03-10T10:08:27Z</time>
      </trkpt>
      <trkpt lat="46.63916707970202" lon="12.087712632492185">
        <ele>1786.27</ele>
        <time>2017-03-10T10:08:32Z</time>
      </trkpt>
      <trkpt lat="46.639220137149096" lon="12.087718667462468">
        <ele>1787.23</ele>
        <time>2017-03-10T10:08:38Z</time>
      </trkpt>
      <trkpt lat="46.639308063313365" lon="12.087679943069816">
        <ele>1788.1900000000001</ele>
        <time>2017-03-10T10:08:48Z</time>
      </trkpt>
      <trkpt lat="46.639339746907353" lon="12.087659910321236">
        <ele>1788.1900000000001</ele>
        <time>2017-03-10T10:08:52Z</time>
      </trkpt>
      <trkpt lat="46.639383835718036" lon="12.08758732303977">
        <ele>1788.1900000000001</ele>
        <time>2017-03-10T10:09:02Z</time>
      </trkpt>
      <trkpt lat="46.639390708878636" lon="12.087550777941942">
        <ele>1789.1500000000001</ele>
        <time>2017-03-10T10:09:13Z</time>
      </trkpt>
      <trkpt lat="46.639409987255931" lon="12.087510963901877">
        <ele>1789.6300000000001</ele>
        <time>2017-03-10T10:09:26Z</time>
      </trkpt>
      <trkpt lat="46.639465894550085" lon="12.087428150698543">
        <ele>1790.5899999999999</ele>
        <time>2017-03-10T10:09:36Z</time>
      </trkpt>
      <trkpt lat="46.639522137120366" lon="12.087363777682185">
        <ele>1790.5899999999999</ele>
        <time>2017-03-10T10:09:46Z</time>
      </trkpt>
      <trkpt lat="46.639548623934388" lon="12.087320694699883">
        <ele>1791.55</ele>
        <time>2017-03-10T10:10:00Z</time>
      </trkpt>
      <trkpt lat="46.639592293649912" lon="12.087271744385362">
        <ele>1792.03</ele>
        <time>2017-03-10T10:10:06Z</time>
      </trkpt>
      <trkpt lat="46.639667814597487" lon="12.087219692766666">
        <ele>1793.48</ele>
        <time>2017-03-10T10:10:16Z</time>
      </trkpt>
      <trkpt lat="46.639731600880623" lon="12.087160181254148">
        <ele>1793.96</ele>
        <time>2017-03-10T10:10:25Z</time>
      </trkpt>
      <trkpt lat="46.63976026698947" lon="12.087141573429108">
        <ele>1795.4000000000001</ele>
        <time>2017-03-10T10:10:28Z</time>
      </trkpt>
      <trkpt lat="46.639788933098316" lon="12.087123719975352">
        <ele>1794.4400000000001</ele>
        <time>2017-03-10T10:10:38Z</time>
      </trkpt>
      <trkpt lat="46.639810558408499" lon="12.087084911763668">
        <ele>1794.9200000000001</ele>
        <time>2017-03-10T10:10:43Z</time>
      </trkpt>
      <trkpt lat="46.639864956960082" lon="12.087015761062503">
        <ele>1795.8800000000001</ele>
        <time>2017-03-10T10:10:51Z</time>
      </trkpt>
      <trkpt lat="46.639915583655238" lon="12.086957423016429">
        <ele>1795.8800000000001</ele>
        <time>2017-03-10T10:10:58Z</time>
      </trkpt>
      <trkpt lat="46.639934610575438" lon="12.086952058598399">
        <ele>1796.3599999999999</ele>
        <time>2017-03-10T10:11:00Z</time>
      </trkpt>
      <trkpt lat="46.63998993113637" lon="12.086917692795396">
        <ele>1796.3599999999999</ele>
        <time>2017-03-10T10:11:09Z</time>
      </trkpt>
      <trkpt lat="46.640046006068587" lon="12.086902773007751">
        <ele>1796.8399999999999</ele>
        <time>2017-03-10T10:11:18Z</time>
      </trkpt>
      <trkpt lat="46.640132674947381" lon="12.086879890412092">
        <ele>1798.28</ele>
        <time>2017-03-10T10:11:29Z</time>
      </trkpt>
      <trkpt lat="46.64019713178277" lon="12.086849212646484">
        <ele>1799.73</ele>
        <time>2017-03-10T10:11:39Z</time>
      </trkpt>
      <trkpt lat="46.640279442071915" lon="12.086785929277539">
        <ele>1800.6900000000001</ele>
        <time>2017-03-10T10:11:50Z</time>
      </trkpt>
      <trkpt lat="46.640336690470576" lon="12.086736392229795">
        <ele>1801.1700000000001</ele>
        <time>2017-03-10T10:12:01Z</time>
      </trkpt>
      <trkpt lat="46.640427550300956" lon="12.086639665067196">
        <ele>1802.6099999999999</ele>
        <time>2017-03-10T10:12:13Z</time>
      </trkpt>
      <trkpt lat="46.640513716265559" lon="12.086630696430802">
        <ele>1804.05</ele>
        <time>2017-03-10T10:12:24Z</time>
      </trkpt>
      <trkpt lat="46.640574149787426" lon="12.086570598185062">
        <ele>1804.53</ele>
        <time>2017-03-10T10:12:40Z</time>
      </trkpt>
      <trkpt lat="46.640635253861547" lon="12.08654411137104">
        <ele>1805.49</ele>
        <time>2017-03-10T10:12:48Z</time>
      </trkpt>
      <trkpt lat="46.640694346278906" lon="12.086532628163695">
        <ele>1805.97</ele>
        <time>2017-03-10T10:12:58Z</time>
      </trkpt>
      <trkpt lat="46.640698118135333" lon="12.086507650092244">
        <ele>1806.45</ele>
        <time>2017-03-10T10:13:12Z</time>
      </trkpt>
      <trkpt lat="46.640786966308951" lon="12.086425088346004">
        <ele>1806.45</ele>
        <time>2017-03-10T10:13:23Z</time>
      </trkpt>
      <trkpt lat="46.640853099524975" lon="12.086371276527643">
        <ele>1807.4200000000001</ele>
        <time>2017-03-10T10:13:34Z</time>
      </trkpt>
      <trkpt lat="46.640927195549011" lon="12.086299527436495">
        <ele>1808.3800000000001</ele>
        <time>2017-03-10T10:13:44Z</time>
      </trkpt>
      <trkpt lat="46.640999699011445" lon="12.08623331040144">
        <ele>1809.8199999999999</ele>
        <time>2017-03-10T10:13:54Z</time>
      </trkpt>
      <trkpt lat="46.641068179160357" lon="12.086165249347687">
        <ele>1810.3</ele>
        <time>2017-03-10T10:14:05Z</time>
      </trkpt>
      <trkpt lat="46.641119979321957" lon="12.086115377023816">
        <ele>1810.3</ele>
        <time>2017-03-10T10:14:14Z</time>
      </trkpt>
      <trkpt lat="46.641170354560018" lon="12.086066678166389">
        <ele>1811.26</ele>
        <time>2017-03-10T10:14:21Z</time>
      </trkpt>
      <trkpt lat="46.641219891607761" lon="12.085972800850868">
        <ele>1812.22</ele>
        <time>2017-03-10T10:14:32Z</time>
      </trkpt>
      <trkpt lat="46.641269512474537" lon="12.085911026224494">
        <ele>1813.1800000000001</ele>
        <time>2017-03-10T10:14:41Z</time>
      </trkpt>
      <trkpt lat="46.641339836642146" lon="12.085784040391445">
        <ele>1814.1500000000001</ele>
        <time>2017-03-10T10:14:55Z</time>
      </trkpt>
      <trkpt lat="46.641398593783379" lon="12.085682200267911">
        <ele>1815.5899999999999</ele>
        <time>2017-03-10T10:15:05Z</time>
      </trkpt>
      <trkpt lat="46.641456512734294" lon="12.085594022646546">
        <ele>1816.55</ele>
        <time>2017-03-10T10:15:15Z</time>
      </trkpt>
      <trkpt lat="46.641472522169352" lon="12.085573319345713">
        <ele>1816.0699999999999</ele>
        <time>2017-03-10T10:15:18Z</time>
      </trkpt>
      <trkpt lat="46.641515772789717" lon="12.085467539727688">
        <ele>1816.55</ele>
        <time>2017-03-10T10:15:28Z</time>
      </trkpt>
      <trkpt lat="46.641545863822103" lon="12.085372069850564">
        <ele>1817.03</ele>
        <time>2017-03-10T10:15:37Z</time>
      </trkpt>
      <trkpt lat="46.641588946804404" lon="12.085232343524694">
        <ele>1817.51</ele>
        <time>2017-03-10T10:15:49Z</time>
      </trkpt>
      <trkpt lat="46.641627000644803" lon="12.085104770958424">
        <ele>1818.47</ele>
        <time>2017-03-10T10:16:00Z</time>
      </trkpt>
      <trkpt lat="46.641655918210745" lon="12.084998153150082">
        <ele>1818.95</ele>
        <time>2017-03-10T10:16:11Z</time>
      </trkpt>
      <trkpt lat="46.641723643988371" lon="12.084904611110687">
        <ele>1819.4300000000001</ele>
        <time>2017-03-10T10:16:23Z</time>
      </trkpt>
      <trkpt lat="46.641777707263827" lon="12.084791287779808">
        <ele>1820.8699999999999</ele>
        <time>2017-03-10T10:16:34Z</time>
      </trkpt>
      <trkpt lat="46.641830429434776" lon="12.084689615294337">
        <ele>1821.3499999999999</ele>
        <time>2017-03-10T10:16:45Z</time>
      </trkpt>
      <trkpt lat="46.641862196847796" lon="12.084640748798847">
        <ele>1821.3499999999999</ele>
        <time>2017-03-10T10:16:51Z</time>
      </trkpt>
      <trkpt lat="46.641926318407059" lon="12.084499513730407">
        <ele>1821.8399999999999</ele>
        <time>2017-03-10T10:17:04Z</time>
      </trkpt>
      <trkpt lat="46.641947105526924" lon="12.084421310573816">
        <ele>1822.3199999999999</ele>
        <time>2017-03-10T10:17:14Z</time>
      </trkpt>
      <trkpt lat="46.641981052234769" lon="12.084350483492017">
        <ele>1823.28</ele>
        <time>2017-03-10T10:17:24Z</time>
      </trkpt>
      <trkpt lat="46.642022794112563" lon="12.084273118525743">
        <ele>1824.72</ele>
        <time>2017-03-10T10:17:32Z</time>
      </trkpt>
      <trkpt lat="46.642080880701542" lon="12.084182929247618">
        <ele>1825.6800000000001</ele>
        <time>2017-03-10T10:17:42Z</time>
      </trkpt>
      <trkpt lat="46.642130669206381" lon="12.084074718877673">
        <ele>1827.1199999999999</ele>
        <time>2017-03-10T10:17:54Z</time>
      </trkpt>
      <trkpt lat="46.642162101343274" lon="12.083964999765158">
        <ele>1828.5599999999999</ele>
        <time>2017-03-10T10:18:05Z</time>
      </trkpt>
      <trkpt lat="46.642186241224408" lon="12.083907248452306">
        <ele>1829.05</ele>
        <time>2017-03-10T10:18:11Z</time>
      </trkpt>
      <trkpt lat="46.642221193760633" lon="12.083814879879355">
        <ele>1830.01</ele>
        <time>2017-03-10T10:18:20Z</time>
      </trkpt>
      <trkpt lat="46.642277268692851" lon="12.083754362538457">
        <ele>1830.97</ele>
        <time>2017-03-10T10:18:31Z</time>
      </trkpt>
      <trkpt lat="46.642324542626739" lon="12.083689151331782">
        <ele>1830.49</ele>
        <time>2017-03-10T10:18:41Z</time>
      </trkpt>
      <trkpt lat="46.642338959500194" lon="12.083669118583202">
        <ele>1832.4100000000001</ele>
        <time>2017-03-10T10:18:43Z</time>
      </trkpt>
      <trkpt lat="46.642354382202029" lon="12.083620922639966">
        <ele>1833.3699999999999</ele>
        <time>2017-03-10T10:18:54Z</time>
      </trkpt>
      <trkpt lat="46.642368882894516" lon="12.083507431671023">
        <ele>1834.3299999999999</ele>
        <time>2017-03-10T10:19:03Z</time>
      </trkpt>
      <trkpt lat="46.642393609508872" lon="12.083387402817607">
        <ele>1835.77</ele>
        <time>2017-03-10T10:19:15Z</time>
      </trkpt>
      <trkpt lat="46.642434513196349" lon="12.083281120285392">
        <ele>1837.22</ele>
        <time>2017-03-10T10:19:26Z</time>
      </trkpt>
      <trkpt lat="46.642457563430071" lon="12.083216495811939">
        <ele>1838.6600000000001</ele>
        <time>2017-03-10T10:19:36Z</time>
      </trkpt>
      <trkpt lat="46.642480362206697" lon="12.083136951550841">
        <ele>1841.0599999999999</ele>
        <time>2017-03-10T10:19:45Z</time>
      </trkpt>
      <trkpt lat="46.642502909526229" lon="12.08306796848774">
        <ele>1841.54</ele>
        <time>2017-03-10T10:19:53Z</time>
      </trkpt>
      <trkpt lat="46.642518751323223" lon="12.082938132807612">
        <ele>1842.98</ele>
        <time>2017-03-10T10:20:05Z</time>
      </trkpt>
      <trkpt lat="46.642564684152603" lon="12.082828162238002">
        <ele>1844.4300000000001</ele>
        <time>2017-03-10T10:20:17Z</time>
      </trkpt>
      <trkpt lat="46.64262562058866" lon="12.082726070657372">
        <ele>1846.3499999999999</ele>
        <time>2017-03-10T10:20:29Z</time>
      </trkpt>
      <trkpt lat="46.642683874815702" lon="12.082637138664722">
        <ele>1848.27</ele>
        <time>2017-03-10T10:20:42Z</time>
      </trkpt>
      <trkpt lat="46.642706673592329" lon="12.082594893872738">
        <ele>1848.75</ele>
        <time>2017-03-10T10:20:47Z</time>
      </trkpt>
      <trkpt lat="46.642748583108187" lon="12.082490120083094">
        <ele>1849.71</ele>
        <time>2017-03-10T10:20:59Z</time>
      </trkpt>
      <trkpt lat="46.642780182883143" lon="12.082417868077755">
        <ele>1850.6800000000001</ele>
        <time>2017-03-10T10:21:08Z</time>
      </trkpt>
      <trkpt lat="46.642805160954595" lon="12.082344945520163">
        <ele>1852.1199999999999</ele>
        <time>2017-03-10T10:21:18Z</time>
      </trkpt>
      <trkpt lat="46.642839191481471" lon="12.082271603867412">
        <ele>1854.04</ele>
        <time>2017-03-10T10:21:29Z</time>
      </trkpt>
      <trkpt lat="46.642892332747579" lon="12.082180660218">
        <ele>1854.52</ele>
        <time>2017-03-10T10:21:41Z</time>
      </trkpt>
      <trkpt lat="46.642950335517526" lon="12.082139672711492">
        <ele>1856.4400000000001</ele>
        <time>2017-03-10T10:21:50Z</time>
      </trkpt>
      <trkpt lat="46.642950922250748" lon="12.082123998552561">
        <ele>1856.4400000000001</ele>
        <time>2017-03-10T10:21:59Z</time>
      </trkpt>
      <trkpt lat="46.643010601401329" lon="12.082070941105485">
        <ele>1856.9200000000001</ele>
        <time>2017-03-10T10:22:08Z</time>
      </trkpt>
      <trkpt lat="46.643049912527204" lon="12.081960216164589">
        <ele>1857.8900000000001</ele>
        <time>2017-03-10T10:22:20Z</time>
      </trkpt>
      <trkpt lat="46.643064245581627" lon="12.081984607502818">
        <ele>1858.3699999999999</ele>
        <time>2017-03-10T10:22:30Z</time>
      </trkpt>
      <trkpt lat="46.643101964145899" lon="12.081882348284125">
        <ele>1859.3299999999999</ele>
        <time>2017-03-10T10:22:39Z</time>
      </trkpt>
      <trkpt lat="46.643110178411007" lon="12.081834655255079">
        <ele>1859.8099999999999</ele>
        <time>2017-03-10T10:22:43Z</time>
      </trkpt>
      <trkpt lat="46.643138509243727" lon="12.081716973334551">
        <ele>1860.77</ele>
        <time>2017-03-10T10:22:53Z</time>
      </trkpt>
      <trkpt lat="46.643189219757915" lon="12.081628795713186">
        <ele>1862.6900000000001</ele>
        <time>2017-03-10T10:23:04Z</time>
      </trkpt>
      <trkpt lat="46.643210174515843" lon="12.081683110445738">
        <ele>1862.6900000000001</ele>
        <time>2017-03-10T10:23:12Z</time>
      </trkpt>
      <trkpt lat="46.643196931108832" lon="12.081685876473784">
        <ele>1863.6500000000001</ele>
        <time>2017-03-10T10:23:29Z</time>
      </trkpt>
      <trkpt lat="46.643201457336545" lon="12.081687049940228">
        <ele>1863.1700000000001</ele>
        <time>2017-03-10T10:23:52Z</time>
      </trkpt>
      <trkpt lat="46.643214784562588" lon="12.081693420186639">
        <ele>1863.1700000000001</ele>
        <time>2017-03-10T10:24:11Z</time>
      </trkpt>
      <trkpt lat="46.643178574740887" lon="12.081681350246072">
        <ele>1863.1700000000001</ele>
        <time>2017-03-10T10:24:30Z</time>
      </trkpt>
      <trkpt lat="46.643246132880449" lon="12.08160943351686">
        <ele>1863.6500000000001</ele>
        <time>2017-03-10T10:24:45Z</time>
      </trkpt>
      <trkpt lat="46.643288880586624" lon="12.081512035802007">
        <ele>1865.5799999999999</ele>
        <time>2017-03-10T10:24:54Z</time>
      </trkpt>
      <trkpt lat="46.643336908891797" lon="12.081465516239405">
        <ele>1866.54</ele>
        <time>2017-03-10T10:25:01Z</time>
      </trkpt>
      <trkpt lat="46.643349817022681" lon="12.081470126286149">
        <ele>1866.54</ele>
        <time>2017-03-10T10:25:11Z</time>
      </trkpt>
      <trkpt lat="46.643342105671763" lon="12.081483034417033">
        <ele>1865.5799999999999</ele>
        <time>2017-03-10T10:25:33Z</time>
      </trkpt>
      <trkpt lat="46.643333975225687" lon="12.081480016931891">
        <ele>1866.54</ele>
        <time>2017-03-10T10:25:48Z</time>
      </trkpt>
      <trkpt lat="46.643315954133868" lon="12.081481609493494">
        <ele>1867.02</ele>
        <time>2017-03-10T10:26:04Z</time>
      </trkpt>
      <trkpt lat="46.643332969397306" lon="12.081479430198669">
        <ele>1865.5799999999999</ele>
        <time>2017-03-10T10:26:18Z</time>
      </trkpt>
      <trkpt lat="46.643338166177273" lon="12.08149267360568">
        <ele>1866.0599999999999</ele>
        <time>2017-03-10T10:26:27Z</time>
      </trkpt>
      <trkpt lat="46.643352163955569" lon="12.081450428813696">
        <ele>1864.6099999999999</ele>
        <time>2017-03-10T10:26:43Z</time>
      </trkpt>
      <trkpt lat="46.643361635506153" lon="12.081451183184981">
        <ele>1865.0899999999999</ele>
        <time>2017-03-10T10:27:04Z</time>
      </trkpt>
      <trkpt lat="46.643346212804317" lon="12.081450847908854">
        <ele>1864.6099999999999</ele>
        <time>2017-03-10T10:27:18Z</time>
      </trkpt>
      <trkpt lat="46.643343614414334" lon="12.081461660563946">
        <ele>1864.1300000000001</ele>
        <time>2017-03-10T10:27:36Z</time>
      </trkpt>
      <trkpt lat="46.643371358513832" lon="12.081442968919873">
        <ele>1863.6500000000001</ele>
        <time>2017-03-10T10:27:53Z</time>
      </trkpt>
      <trkpt lat="46.643361384049058" lon="12.081423858180642">
        <ele>1865.0899999999999</ele>
        <time>2017-03-10T10:28:03Z</time>
      </trkpt>
      <trkpt lat="46.643376303836703" lon="12.081417739391327">
        <ele>1865.5799999999999</ele>
        <time>2017-03-10T10:28:09Z</time>
      </trkpt>
      <trkpt lat="46.643418716266751" lon="12.08133727312088">
        <ele>1867.02</ele>
        <time>2017-03-10T10:28:18Z</time>
      </trkpt>
      <trkpt lat="46.643477557227015" lon="12.081265021115541">
        <ele>1868.9400000000001</ele>
        <time>2017-03-10T10:28:28Z</time>
      </trkpt>
      <trkpt lat="46.643498931080103" lon="12.081214981153607">
        <ele>1870.3800000000001</ele>
        <time>2017-03-10T10:28:36Z</time>
      </trkpt>
      <trkpt lat="46.643542936071754" lon="12.081147339195013">
        <ele>1872.79</ele>
        <time>2017-03-10T10:28:46Z</time>
      </trkpt>
      <trkpt lat="46.64358576759696" lon="12.081077601760626">
        <ele>1874.71</ele>
        <time>2017-03-10T10:28:55Z</time>
      </trkpt>
      <trkpt lat="46.643627677112818" lon="12.080988166853786">
        <ele>1876.1500000000001</ele>
        <time>2017-03-10T10:29:06Z</time>
      </trkpt>
      <trkpt lat="46.643646620213985" lon="12.080894373357296">
        <ele>1878.0699999999999</ele>
        <time>2017-03-10T10:29:16Z</time>
      </trkpt>
      <trkpt lat="46.643699761480093" lon="12.080807369202375">
        <ele>1880</ele>
        <time>2017-03-10T10:29:26Z</time>
      </trkpt>
      <trkpt lat="46.643758183345199" lon="12.080784486606717">
        <ele>1880.96</ele>
        <time>2017-03-10T10:29:35Z</time>
      </trkpt>
      <trkpt lat="46.643812749534845" lon="12.080731680616736">
        <ele>1883.3599999999999</ele>
        <time>2017-03-10T10:29:47Z</time>
      </trkpt>
      <trkpt lat="46.643881229683757" lon="12.08066881634295">
        <ele>1884.8</ele>
        <time>2017-03-10T10:30:00Z</time>
      </trkpt>
      <trkpt lat="46.643943088129163" lon="12.0806092210114">
        <ele>1885.28</ele>
        <time>2017-03-10T10:30:12Z</time>
      </trkpt>
      <trkpt lat="46.643978711217642" lon="12.080554654821754">
        <ele>1887.6900000000001</ele>
        <time>2017-03-10T10:30:22Z</time>
      </trkpt>
      <trkpt lat="46.644038474187255" lon="12.080496652051806">
        <ele>1890.0899999999999</ele>
        <time>2017-03-10T10:30:31Z</time>
      </trkpt>
      <trkpt lat="46.644077785313129" lon="12.080435631796718">
        <ele>1892.49</ele>
        <time>2017-03-10T10:30:39Z</time>
      </trkpt>
      <trkpt lat="46.644129417836666" lon="12.080376707017422">
        <ele>1892.97</ele>
        <time>2017-03-10T10:30:50Z</time>
      </trkpt>
      <trkpt lat="46.644169902428985" lon="12.080326164141297">
        <ele>1894.4200000000001</ele>
        <time>2017-03-10T10:30:59Z</time>
      </trkpt>
      <trkpt lat="46.644213404506445" lon="12.080259276553988">
        <ele>1895.8599999999999</ele>
        <time>2017-03-10T10:31:09Z</time>
      </trkpt>
      <trkpt lat="46.644256990402937" lon="12.080203369259834">
        <ele>1897.3</ele>
        <time>2017-03-10T10:31:19Z</time>
      </trkpt>
      <trkpt lat="46.64429965429008" lon="12.080131955444813">
        <ele>1899.22</ele>
        <time>2017-03-10T10:31:30Z</time>
      </trkpt>
      <trkpt lat="46.644333014264703" lon="12.080090800300241">
        <ele>1900.6600000000001</ele>
        <time>2017-03-10T10:31:37Z</time>
      </trkpt>
      <trkpt lat="46.644382970407605" lon="12.080013267695904">
        <ele>1902.5899999999999</ele>
        <time>2017-03-10T10:31:48Z</time>
      </trkpt>
      <trkpt lat="46.644404008984566" lon="12.079985020682216">
        <ele>1903.55</ele>
        <time>2017-03-10T10:31:52Z</time>
      </trkpt>
      <trkpt lat="46.644441559910774" lon="12.079904302954674">
        <ele>1905.47</ele>
        <time>2017-03-10T10:32:03Z</time>
      </trkpt>
      <trkpt lat="46.644474752247334" lon="12.079811599105597">
        <ele>1906.9100000000001</ele>
        <time>2017-03-10T10:32:14Z</time>
      </trkpt>
      <trkpt lat="46.644506519660354" lon="12.079720152541995">
        <ele>1908.3499999999999</ele>
        <time>2017-03-10T10:32:25Z</time>
      </trkpt>
      <trkpt lat="46.64452931843698" lon="12.07962267100811">
        <ele>1911.24</ele>
        <time>2017-03-10T10:32:38Z</time>
      </trkpt>
      <trkpt lat="46.644528396427631" lon="12.079575397074223">
        <ele>1912.6800000000001</ele>
        <time>2017-03-10T10:32:43Z</time>
      </trkpt>
      <trkpt lat="46.644527642056346" lon="12.079569445922971">
        <ele>1911.72</ele>
        <time>2017-03-10T10:32:53Z</time>
      </trkpt>
      <trkpt lat="46.64454935118556" lon="12.079620743170381">
        <ele>1912.6800000000001</ele>
        <time>2017-03-10T10:33:04Z</time>
      </trkpt>
      <trkpt lat="46.644466621801257" lon="12.079605488106608">
        <ele>1913.1600000000001</ele>
        <time>2017-03-10T10:33:15Z</time>
      </trkpt>
      <trkpt lat="46.644415156915784" lon="12.079620994627476">
        <ele>1914.1199999999999</ele>
        <time>2017-03-10T10:33:22Z</time>
      </trkpt>
      <trkpt lat="46.644345168024302" lon="12.079617222771049">
        <ele>1915.5599999999999</ele>
        <time>2017-03-10T10:33:32Z</time>
      </trkpt>
      <trkpt lat="46.644286075606942" lon="12.079662149772048">
        <ele>1917.49</ele>
        <time>2017-03-10T10:33:42Z</time>
      </trkpt>
      <trkpt lat="46.644259756430984" lon="12.07967447116971">
        <ele>1917.97</ele>
        <time>2017-03-10T10:33:51Z</time>
      </trkpt>
      <trkpt lat="46.644193036481738" lon="12.079707998782396">
        <ele>1919.8900000000001</ele>
        <time>2017-03-10T10:34:01Z</time>
      </trkpt>
      <trkpt lat="46.644106199964881" lon="12.079731887206435">
        <ele>1921.8099999999999</ele>
        <time>2017-03-10T10:34:12Z</time>
      </trkpt>
      <trkpt lat="46.644037049263716" lon="12.079753931611776">
        <ele>1923.25</ele>
        <time>2017-03-10T10:34:22Z</time>
      </trkpt>
      <trkpt lat="46.643969658762217" lon="12.079773209989071">
        <ele>1923.74</ele>
        <time>2017-03-10T10:34:32Z</time>
      </trkpt>
      <trkpt lat="46.643902016803622" lon="12.079795757308602">
        <ele>1926.1400000000001</ele>
        <time>2017-03-10T10:34:43Z</time>
      </trkpt>
      <trkpt lat="46.643828926607966" lon="12.079797768965364">
        <ele>1927.5799999999999</ele>
        <time>2017-03-10T10:34:53Z</time>
      </trkpt>
      <trkpt lat="46.643775533884764" lon="12.079809922724962">
        <ele>1929.5</ele>
        <time>2017-03-10T10:35:04Z</time>
      </trkpt>
      <trkpt lat="46.643706215545535" lon="12.079790895804763">
        <ele>1930.95</ele>
        <time>2017-03-10T10:35:13Z</time>
      </trkpt>
      <trkpt lat="46.643638154491782" lon="12.079803803935647">
        <ele>1932.3900000000001</ele>
        <time>2017-03-10T10:35:24Z</time>
      </trkpt>
      <trkpt lat="46.64356280118227" lon="12.079835152253509">
        <ele>1933.3499999999999</ele>
        <time>2017-03-10T10:35:35Z</time>
      </trkpt>
      <trkpt lat="46.643551485612988" lon="12.079829620197415">
        <ele>1933.8299999999999</ele>
        <time>2017-03-10T10:35:37Z</time>
      </trkpt>
      <trkpt lat="46.643483089283109" lon="12.079828530550003">
        <ele>1936.23</ele>
        <time>2017-03-10T10:35:49Z</time>
      </trkpt>
      <trkpt lat="46.643403125926852" lon="12.079847306013107">
        <ele>1937.6700000000001</ele>
        <time>2017-03-10T10:35:59Z</time>
      </trkpt>
      <trkpt lat="46.643332885578275" lon="12.079814532771707">
        <ele>1939.1199999999999</ele>
        <time>2017-03-10T10:36:09Z</time>
      </trkpt>
      <trkpt lat="46.643295837566257" lon="12.079804893583059">
        <ele>1941.04</ele>
        <time>2017-03-10T10:36:19Z</time>
      </trkpt>
      <trkpt lat="46.643257448449731" lon="12.079775473102927">
        <ele>1942.48</ele>
        <time>2017-03-10T10:36:32Z</time>
      </trkpt>
      <trkpt lat="46.643228866159916" lon="12.079677656292915">
        <ele>1942</ele>
        <time>2017-03-10T10:36:41Z</time>
      </trkpt>
      <trkpt lat="46.643201792612672" lon="12.079594088718295">
        <ele>1943.9200000000001</ele>
        <time>2017-03-10T10:36:51Z</time>
      </trkpt>
      <trkpt lat="46.64318360388279" lon="12.079517645761371">
        <ele>1944.8800000000001</ele>
        <time>2017-03-10T10:37:04Z</time>
      </trkpt>
      <trkpt lat="46.643170528113842" lon="12.079427624121308">
        <ele>1946.3299999999999</ele>
        <time>2017-03-10T10:37:14Z</time>
      </trkpt>
      <trkpt lat="46.643182933330536" lon="12.079304493963718">
        <ele>1947.77</ele>
        <time>2017-03-10T10:37:24Z</time>
      </trkpt>
      <trkpt lat="46.643189219757915" lon="12.079187231138349">
        <ele>1949.21</ele>
        <time>2017-03-10T10:37:35Z</time>
      </trkpt>
      <trkpt lat="46.643237164244056" lon="12.079095952212811">
        <ele>1952.0899999999999</ele>
        <time>2017-03-10T10:37:48Z</time>
      </trkpt>
      <trkpt lat="46.643237667158246" lon="12.079088492318988">
        <ele>1952.0899999999999</ele>
        <time>2017-03-10T10:37:49Z</time>
      </trkpt>
      <trkpt lat="46.643237164244056" lon="12.079049348831177">
        <ele>1953.0599999999999</ele>
        <time>2017-03-10T10:38:01Z</time>
      </trkpt>
      <trkpt lat="46.643267506733537" lon="12.079044654965401">
        <ele>1953.54</ele>
        <time>2017-03-10T10:38:11Z</time>
      </trkpt>
      <trkpt lat="46.64330530911684" lon="12.078956980258226">
        <ele>1954.98</ele>
        <time>2017-03-10T10:38:21Z</time>
      </trkpt>
      <trkpt lat="46.643354594707489" lon="12.078886656090617">
        <ele>1956.9000000000001</ele>
        <time>2017-03-10T10:38:33Z</time>
      </trkpt>
      <trkpt lat="46.643378231674433" lon="12.078848853707314">
        <ele>1957.8599999999999</ele>
        <time>2017-03-10T10:38:38Z</time>
      </trkpt>
      <trkpt lat="46.643442772328854" lon="12.078781547024846">
        <ele>1959.3</ele>
        <time>2017-03-10T10:38:50Z</time>
      </trkpt>
      <trkpt lat="46.643507732078433" lon="12.078749695792794">
        <ele>1960.75</ele>
        <time>2017-03-10T10:39:00Z</time>
      </trkpt>
      <trkpt lat="46.64354762993753" lon="12.078667050227523">
        <ele>1961.71</ele>
        <time>2017-03-10T10:39:08Z</time>
      </trkpt>
      <trkpt lat="46.643610326573253" lon="12.078563366085291">
        <ele>1962.6700000000001</ele>
        <time>2017-03-10T10:39:21Z</time>
      </trkpt>
      <trkpt lat="46.643635639920831" lon="12.078459430485964">
        <ele>1962.6700000000001</ele>
        <time>2017-03-10T10:39:33Z</time>
      </trkpt>
      <trkpt lat="46.643631951883435" lon="12.078350130468607">
        <ele>1965.0699999999999</ele>
        <time>2017-03-10T10:39:43Z</time>
      </trkpt>
      <trkpt lat="46.643597418442369" lon="12.078289529308677">
        <ele>1966.51</ele>
        <time>2017-03-10T10:39:51Z</time>
      </trkpt>
      <trkpt lat="46.643528016284108" lon="12.078308807685971">
        <ele>1966.99</ele>
        <time>2017-03-10T10:40:01Z</time>
      </trkpt>
      <trkpt lat="46.643509492278099" lon="12.078316016122699">
        <ele>1966.99</ele>
        <time>2017-03-10T10:40:03Z</time>
      </trkpt>
      <trkpt lat="46.643454842269421" lon="12.078359518200159">
        <ele>1966.99</ele>
        <time>2017-03-10T10:40:10Z</time>
      </trkpt>
      <trkpt lat="46.643391642719507" lon="12.07839522510767">
        <ele>1967.48</ele>
        <time>2017-03-10T10:40:18Z</time>
      </trkpt>
      <trkpt lat="46.643321486189961" lon="12.078318279236555">
        <ele>1968.9200000000001</ele>
        <time>2017-03-10T10:40:29Z</time>
      </trkpt>
      <trkpt lat="46.643302459269762" lon="12.078219121322036">
        <ele>1969.4000000000001</ele>
        <time>2017-03-10T10:40:41Z</time>
      </trkpt>
      <trkpt lat="46.643303465098143" lon="12.078201351687312">
        <ele>1969.8800000000001</ele>
        <time>2017-03-10T10:40:54Z</time>
      </trkpt>
      <trkpt lat="46.643321067094803" lon="12.078259354457259">
        <ele>1969.4000000000001</ele>
        <time>2017-03-10T10:41:09Z</time>
      </trkpt>
      <trkpt lat="46.643324084579945" lon="12.078229766339064">
        <ele>1968.9200000000001</ele>
        <time>2017-03-10T10:41:21Z</time>
      </trkpt>
      <trkpt lat="46.643336657434702" lon="12.078176205977798">
        <ele>1969.4000000000001</ele>
        <time>2017-03-10T10:41:25Z</time>
      </trkpt>
      <trkpt lat="46.643341183662415" lon="12.07804000005126">
        <ele>1970.3599999999999</ele>
        <time>2017-03-10T10:41:36Z</time>
      </trkpt>
      <trkpt lat="46.643333220854402" lon="12.07793053239584">
        <ele>1972.28</ele>
        <time>2017-03-10T10:41:46Z</time>
      </trkpt>
      <trkpt lat="46.64334436878562" lon="12.077854173257947">
        <ele>1973.24</ele>
        <time>2017-03-10T10:41:54Z</time>
      </trkpt>
      <trkpt lat="46.643353505060077" lon="12.077755350619555">
        <ele>1974.6900000000001</ele>
        <time>2017-03-10T10:42:02Z</time>
      </trkpt>
      <trkpt lat="46.643357025459409" lon="12.077748645097017">
        <ele>1975.1700000000001</ele>
        <time>2017-03-10T10:42:03Z</time>
      </trkpt>
      <trkpt lat="46.643403796479106" lon="12.077663065865636">
        <ele>1977.0899999999999</ele>
        <time>2017-03-10T10:42:13Z</time>
      </trkpt>
      <trkpt lat="46.643424667418003" lon="12.077643200755119">
        <ele>1978.05</ele>
        <time>2017-03-10T10:42:17Z</time>
      </trkpt>
      <trkpt lat="46.643441766500473" lon="12.077611181885004">
        <ele>1978.53</ele>
        <time>2017-03-10T10:42:20Z</time>
      </trkpt>
      <trkpt lat="46.643518628552556" lon="12.077519064769149">
        <ele>1979.01</ele>
        <time>2017-03-10T10:42:31Z</time>
      </trkpt>
      <trkpt lat="46.643586438149214" lon="12.077407082542777">
        <ele>1980.45</ele>
        <time>2017-03-10T10:42:42Z</time>
      </trkpt>
      <trkpt lat="46.64363807067275" lon="12.077315971255302">
        <ele>1980.9300000000001</ele>
        <time>2017-03-10T10:42:52Z</time>
      </trkpt>
      <trkpt lat="46.643706550821662" lon="12.077230392023921">
        <ele>1981.9000000000001</ele>
        <time>2017-03-10T10:43:03Z</time>
      </trkpt>
      <trkpt lat="46.643766229972243" lon="12.077152859419584">
        <ele>1983.3399999999999</ele>
        <time>2017-03-10T10:43:13Z</time>
      </trkpt>
      <trkpt lat="46.64382959716022" lon="12.077073063701391">
        <ele>1984.3</ele>
        <time>2017-03-10T10:43:23Z</time>
      </trkpt>
      <trkpt lat="46.64389313198626" lon="12.077014306560159">
        <ele>1985.74</ele>
        <time>2017-03-10T10:43:34Z</time>
      </trkpt>
      <trkpt lat="46.643952811136842" lon="12.076968289911747">
        <ele>1987.6600000000001</ele>
        <time>2017-03-10T10:43:44Z</time>
      </trkpt>
      <trkpt lat="46.643990781158209" lon="12.076966362074018">
        <ele>1989.0999999999999</ele>
        <time>2017-03-10T10:43:53Z</time>
      </trkpt>
      <trkpt lat="46.644043000414968" lon="12.076972899958491">
        <ele>1990.55</ele>
        <time>2017-03-10T10:44:03Z</time>
      </trkpt>
      <trkpt lat="46.644086334854364" lon="12.076979270204902">
        <ele>1991.99</ele>
        <time>2017-03-10T10:44:21Z</time>
      </trkpt>
      <trkpt lat="46.644165124744177" lon="12.076931493356824">
        <ele>1993.4300000000001</ele>
        <time>2017-03-10T10:44:31Z</time>
      </trkpt>
      <trkpt lat="46.64423561654985" lon="12.076914561912417">
        <ele>1994.8699999999999</ele>
        <time>2017-03-10T10:44:42Z</time>
      </trkpt>
      <trkpt lat="46.644333265721798" lon="12.076981533318758">
        <ele>1996.3199999999999</ele>
        <time>2017-03-10T10:44:55Z</time>
      </trkpt>
      <trkpt lat="46.644389675930142" lon="12.077024951577187">
        <ele>1998.24</ele>
        <time>2017-03-10T10:45:05Z</time>
      </trkpt>
      <trkpt lat="46.644461592659354" lon="12.077032746747136">
        <ele>1998.72</ele>
        <time>2017-03-10T10:45:16Z</time>
      </trkpt>
      <trkpt lat="46.64446871727705" lon="12.077034506946802">
        <ele>1999.6800000000001</ele>
        <time>2017-03-10T10:45:32Z</time>
      </trkpt>
      <trkpt lat="46.644562426954508" lon="12.076960746198893">
        <ele>2000.6400000000001</ele>
        <time>2017-03-10T10:45:44Z</time>
      </trkpt>
      <trkpt lat="46.644615400582552" lon="12.07694498822093">
        <ele>2001.5999999999999</ele>
        <time>2017-03-10T10:45:51Z</time>
      </trkpt>
      <trkpt lat="46.644704416394234" lon="12.076933672651649">
        <ele>2002.5599999999999</ele>
        <time>2017-03-10T10:46:01Z</time>
      </trkpt>
      <trkpt lat="46.644770046696067" lon="12.076965859159827">
        <ele>2002.0799999999999</ele>
        <time>2017-03-10T10:46:10Z</time>
      </trkpt>
      <trkpt lat="46.644810028374195" lon="12.07698849029839">
        <ele>2003.04</ele>
        <time>2017-03-10T10:46:15Z</time>
      </trkpt>
      <trkpt lat="46.644823271781206" lon="12.07698849029839">
        <ele>2003.52</ele>
        <time>2017-03-10T10:46:23Z</time>
      </trkpt>
      <trkpt lat="46.644854620099068" lon="12.076976839452982">
        <ele>2003.04</ele>
        <time>2017-03-10T10:46:33Z</time>
      </trkpt>
      <trkpt lat="46.644925195723772" lon="12.076952196657658">
        <ele>2003.04</ele>
        <time>2017-03-10T10:46:41Z</time>
      </trkpt>
      <trkpt lat="46.644951179623604" lon="12.076935265213251">
        <ele>2003.52</ele>
        <time>2017-03-10T10:46:45Z</time>
      </trkpt>
      <trkpt lat="46.645023347809911" lon="12.076882878318429">
        <ele>2004.97</ele>
        <time>2017-03-10T10:46:55Z</time>
      </trkpt>
      <trkpt lat="46.645096438005567" lon="12.076854379847646">
        <ele>2005.9300000000001</ele>
        <time>2017-03-10T10:47:05Z</time>
      </trkpt>
      <trkpt lat="46.645088056102395" lon="12.076843902468681">
        <ele>2006.4100000000001</ele>
        <time>2017-03-10T10:47:18Z</time>
      </trkpt>
      <trkpt lat="46.645141951739788" lon="12.07681062631309">
        <ele>2005.45</ele>
        <time>2017-03-10T10:47:27Z</time>
      </trkpt>
      <trkpt lat="46.6452104318887" lon="12.07677542231977">
        <ele>2006.8900000000001</ele>
        <time>2017-03-10T10:47:36Z</time>
      </trkpt>
      <trkpt lat="46.645269189029932" lon="12.076731417328119">
        <ele>2007.3699999999999</ele>
        <time>2017-03-10T10:47:44Z</time>
      </trkpt>
      <trkpt lat="46.64533406496048" lon="12.076669558882713">
        <ele>2007.8499999999999</ele>
        <time>2017-03-10T10:47:53Z</time>
      </trkpt>
      <trkpt lat="46.645373879000545" lon="12.076618513092399">
        <ele>2008.8099999999999</ele>
        <time>2017-03-10T10:48:00Z</time>
      </trkpt>
      <trkpt lat="46.645421907305717" lon="12.076546512544155">
        <ele>2008.3299999999999</ele>
        <time>2017-03-10T10:48:10Z</time>
      </trkpt>
      <trkpt lat="46.64544110186398" lon="12.076522959396243">
        <ele>2010.25</ele>
        <time>2017-03-10T10:48:13Z</time>
      </trkpt>
      <trkpt lat="46.64552022702992" lon="12.07645246759057">
        <ele>2011.22</ele>
        <time>2017-03-10T10:48:26Z</time>
      </trkpt>
      <trkpt lat="46.645585941150784" lon="12.076397901400924">
        <ele>2012.6600000000001</ele>
        <time>2017-03-10T10:48:35Z</time>
      </trkpt>
      <trkpt lat="46.645658444613218" lon="12.076352220028639">
        <ele>2014.0999999999999</ele>
        <time>2017-03-10T10:48:46Z</time>
      </trkpt>
      <trkpt lat="46.645702617242932" lon="12.076271502301097">
        <ele>2015.0599999999999</ele>
        <time>2017-03-10T10:48:56Z</time>
      </trkpt>
      <trkpt lat="46.645755171775818" lon="12.076188353821635">
        <ele>2016.02</ele>
        <time>2017-03-10T10:49:06Z</time>
      </trkpt>
      <trkpt lat="46.645813761278987" lon="12.076108977198601">
        <ele>2016.02</ele>
        <time>2017-03-10T10:49:15Z</time>
      </trkpt>
      <trkpt lat="46.645846618339419" lon="12.076116437092423">
        <ele>2017.46</ele>
        <time>2017-03-10T10:49:19Z</time>
      </trkpt>
      <trkpt lat="46.64588131941855" lon="12.076088776811957">
        <ele>2019.3900000000001</ele>
        <time>2017-03-10T10:49:24Z</time>
      </trkpt>
      <trkpt lat="46.645939908921719" lon="12.07603907212615">
        <ele>2019.3900000000001</ele>
        <time>2017-03-10T10:49:33Z</time>
      </trkpt>
      <trkpt lat="46.646002102643251" lon="12.0759950671345">
        <ele>2019.8699999999999</ele>
        <time>2017-03-10T10:49:43Z</time>
      </trkpt>
      <trkpt lat="46.646080389618874" lon="12.075958270579576">
        <ele>2022.27</ele>
        <time>2017-03-10T10:49:52Z</time>
      </trkpt>
      <trkpt lat="46.646132105961442" lon="12.075897920876741">
        <ele>2023.23</ele>
        <time>2017-03-10T10:50:01Z</time>
      </trkpt>
      <trkpt lat="46.64620284922421" lon="12.075837152078748">
        <ele>2024.6700000000001</ele>
        <time>2017-03-10T10:50:12Z</time>
      </trkpt>
      <trkpt lat="46.64626294746995" lon="12.0757688395679">
        <ele>2026.1199999999999</ele>
        <time>2017-03-10T10:50:23Z</time>
      </trkpt>
      <trkpt lat="46.646332517266273" lon="12.075714692473412">
        <ele>2027.5599999999999</ele>
        <time>2017-03-10T10:50:34Z</time>
      </trkpt>
      <trkpt lat="46.646384065970778" lon="12.075636489316821">
        <ele>2029</ele>
        <time>2017-03-10T10:50:44Z</time>
      </trkpt>
      <trkpt lat="46.646470818668604" lon="12.075585443526506">
        <ele>2030.4400000000001</ele>
        <time>2017-03-10T10:50:56Z</time>
      </trkpt>
      <trkpt lat="46.64654684253037" lon="12.075491985306144">
        <ele>2031.4000000000001</ele>
        <time>2017-03-10T10:51:08Z</time>
      </trkpt>
      <trkpt lat="46.646554889157414" lon="12.07547371275723">
        <ele>2031.4000000000001</ele>
        <time>2017-03-10T10:51:10Z</time>
      </trkpt>
      <trkpt lat="46.646635942161083" lon="12.075389390811324">
        <ele>2032.3599999999999</ele>
        <time>2017-03-10T10:51:21Z</time>
      </trkpt>
      <trkpt lat="46.64670517668128" lon="12.075312193483114">
        <ele>2033.3299999999999</ele>
        <time>2017-03-10T10:51:32Z</time>
      </trkpt>
      <trkpt lat="46.646768543869257" lon="12.075200546532869">
        <ele>2034.77</ele>
        <time>2017-03-10T10:51:44Z</time>
      </trkpt>
      <trkpt lat="46.646774243563414" lon="12.075192499905825">
        <ele>2034.77</ele>
        <time>2017-03-10T10:51:45Z</time>
      </trkpt>
      <trkpt lat="46.646858900785446" lon="12.075139693915844">
        <ele>2035.73</ele>
        <time>2017-03-10T10:51:56Z</time>
      </trkpt>
      <trkpt lat="46.646893350407481" lon="12.07510775886476">
        <ele>2036.21</ele>
        <time>2017-03-10T10:52:01Z</time>
      </trkpt>
      <trkpt lat="46.646928638219833" lon="12.075074901804328">
        <ele>2036.21</ele>
        <time>2017-03-10T10:52:07Z</time>
      </trkpt>
      <trkpt lat="46.64695487357676" lon="12.075031232088804">
        <ele>2036.6900000000001</ele>
        <time>2017-03-10T10:52:11Z</time>
      </trkpt>
      <trkpt lat="46.647042883560061" lon="12.074942551553249">
        <ele>2038.1300000000001</ele>
        <time>2017-03-10T10:52:24Z</time>
      </trkpt>
      <trkpt lat="46.64711119607091" lon="12.074892679229379">
        <ele>2038.6099999999999</ele>
        <time>2017-03-10T10:52:33Z</time>
      </trkpt>
      <trkpt lat="46.647117482498288" lon="12.07486879080534">
        <ele>2038.6099999999999</ele>
        <time>2017-03-10T10:52:35Z</time>
      </trkpt>
      <trkpt lat="46.647166013717651" lon="12.074754377827048">
        <ele>2039.0899999999999</ele>
        <time>2017-03-10T10:52:46Z</time>
      </trkpt>
      <trkpt lat="46.647204486653209" lon="12.074654884636402">
        <ele>2040.54</ele>
        <time>2017-03-10T10:52:55Z</time>
      </trkpt>
      <trkpt lat="46.647234242409468" lon="12.074529826641083">
        <ele>2041.5</ele>
        <time>2017-03-10T10:53:07Z</time>
      </trkpt>
      <trkpt lat="46.647267518565059" lon="12.074468219652772">
        <ele>2042.9400000000001</ele>
        <time>2017-03-10T10:53:17Z</time>
      </trkpt>
      <trkpt lat="46.647313619032502" lon="12.074377778917551">
        <ele>2043.4200000000001</ele>
        <time>2017-03-10T10:53:27Z</time>
      </trkpt>
      <trkpt lat="46.647352175787091" lon="12.074320781975985">
        <ele>2044.8599999999999</ele>
        <time>2017-03-10T10:53:36Z</time>
      </trkpt>
      <trkpt lat="46.647385535761714" lon="12.074240567162633">
        <ele>2045.8199999999999</ele>
        <time>2017-03-10T10:53:45Z</time>
      </trkpt>
      <trkpt lat="46.647427026182413" lon="12.074102181941271">
        <ele>2048.23</ele>
        <time>2017-03-10T10:53:58Z</time>
      </trkpt>
      <trkpt lat="46.647472372278571" lon="12.074026828631759">
        <ele>2049.6700000000001</ele>
        <time>2017-03-10T10:54:06Z</time>
      </trkpt>
      <trkpt lat="46.647516964003444" lon="12.073918534442782">
        <ele>2051.1100000000001</ele>
        <time>2017-03-10T10:54:17Z</time>
      </trkpt>
      <trkpt lat="46.647548899054527" lon="12.073843264952302">
        <ele>2052.0700000000002</ele>
        <time>2017-03-10T10:54:26Z</time>
      </trkpt>
      <trkpt lat="46.647591311484575" lon="12.073753913864493">
        <ele>2053.0300000000002</ele>
        <time>2017-03-10T10:54:35Z</time>
      </trkpt>
      <trkpt lat="46.647633807733655" lon="12.073659617453814">
        <ele>2053.9899999999998</ele>
        <time>2017-03-10T10:54:46Z</time>
      </trkpt>
      <trkpt lat="46.647660881280899" lon="12.073599435389042">
        <ele>2053.5100000000002</ele>
        <time>2017-03-10T10:54:52Z</time>
      </trkpt>
      <trkpt lat="46.647704131901264" lon="12.073500445112586">
        <ele>2054.4699999999998</ele>
        <time>2017-03-10T10:55:01Z</time>
      </trkpt>
      <trkpt lat="46.647738413885236" lon="12.073446214199066">
        <ele>2054.96</ele>
        <time>2017-03-10T10:55:07Z</time>
      </trkpt>
      <trkpt lat="46.647741179913282" lon="12.0734151173383">
        <ele>2055.4400000000001</ele>
        <time>2017-03-10T10:55:09Z</time>
      </trkpt>
      <trkpt lat="46.647774372249842" lon="12.073379745706916">
        <ele>2055.4400000000001</ele>
        <time>2017-03-10T10:55:13Z</time>
      </trkpt>
      <trkpt lat="46.647780742496252" lon="12.073319396004081">
        <ele>2056.4000000000001</ele>
        <time>2017-03-10T10:55:17Z</time>
      </trkpt>
      <trkpt lat="46.64781485684216" lon="12.073254687711596">
        <ele>2056.8800000000001</ele>
        <time>2017-03-10T10:55:24Z</time>
      </trkpt>
      <trkpt lat="46.647833464667201" lon="12.073202468454838">
        <ele>2057.3600000000001</ele>
        <time>2017-03-10T10:55:28Z</time>
      </trkpt>
      <trkpt lat="46.647883420810103" lon="12.073113117367029">
        <ele>2057.3600000000001</ele>
        <time>2017-03-10T10:55:38Z</time>
      </trkpt>
      <trkpt lat="46.647929856553674" lon="12.073008846491575">
        <ele>2058.3200000000002</ele>
        <time>2017-03-10T10:55:48Z</time>
      </trkpt>
      <trkpt lat="46.647931700572371" lon="12.072981018573046">
        <ele>2057.8400000000001</ele>
        <time>2017-03-10T10:55:50Z</time>
      </trkpt>
      <trkpt lat="46.647984506562352" lon="12.072870042175055">
        <ele>2059.2800000000002</ele>
        <time>2017-03-10T10:56:01Z</time>
      </trkpt>
      <trkpt lat="46.647989703342319" lon="12.07285855896771">
        <ele>2060.2399999999998</ele>
        <time>2017-03-10T10:56:02Z</time>
      </trkpt>
      <trkpt lat="46.648039072751999" lon="12.072781529277563">
        <ele>2060.2399999999998</ele>
        <time>2017-03-10T10:56:10Z</time>
      </trkpt>
      <trkpt lat="46.648087603971362" lon="12.072726795449853">
        <ele>2060.2399999999998</ele>
        <time>2017-03-10T10:56:17Z</time>
      </trkpt>
      <trkpt lat="46.648178128525615" lon="12.072626128792763">
        <ele>2062.1700000000001</ele>
        <time>2017-03-10T10:56:28Z</time>
      </trkpt>
      <trkpt lat="46.648190282285213" lon="12.072599306702614">
        <ele>2062.1700000000001</ele>
        <time>2017-03-10T10:56:31Z</time>
      </trkpt>
      <trkpt lat="46.648214841261506" lon="12.072568628937006">
        <ele>2063.1300000000001</ele>
        <time>2017-03-10T10:56:35Z</time>
      </trkpt>
      <trkpt lat="46.648281728848815" lon="12.072482798248529">
        <ele>2063.6100000000001</ele>
        <time>2017-03-10T10:56:45Z</time>
      </trkpt>
      <trkpt lat="46.648314502090216" lon="12.072461508214474">
        <ele>2064.0900000000001</ele>
        <time>2017-03-10T10:56:49Z</time>
      </trkpt>
      <trkpt lat="46.648384155705571" lon="12.07236260175705">
        <ele>2064.5700000000002</ele>
        <time>2017-03-10T10:57:00Z</time>
      </trkpt>
      <trkpt lat="46.648416174575686" lon="12.072317590937018">
        <ele>2065.5300000000002</ele>
        <time>2017-03-10T10:57:05Z</time>
      </trkpt>
      <trkpt lat="46.648452803492546" lon="12.072285320609808">
        <ele>2066.0100000000002</ele>
        <time>2017-03-10T10:57:10Z</time>
      </trkpt>
      <trkpt lat="46.648523043841124" lon="12.072195885702968">
        <ele>2067.4499999999998</ele>
        <time>2017-03-10T10:57:21Z</time>
      </trkpt>
      <trkpt lat="46.648531090468168" lon="12.072156826034188">
        <ele>2067.4499999999998</ele>
        <time>2017-03-10T10:57:33Z</time>
      </trkpt>
      <trkpt lat="46.648539137095213" lon="12.072134613990784">
        <ele>2067.4499999999998</ele>
        <time>2017-03-10T10:57:35Z</time>
      </trkpt>
      <trkpt lat="46.648565456271172" lon="12.072053560987115">
        <ele>2067.4499999999998</ele>
        <time>2017-03-10T10:57:42Z</time>
      </trkpt>
      <trkpt lat="46.648615496233106" lon="12.071944512426853">
        <ele>2068.4099999999999</ele>
        <time>2017-03-10T10:57:52Z</time>
      </trkpt>
      <trkpt lat="46.648623207584023" lon="12.071935376152396">
        <ele>2067.9299999999998</ele>
        <time>2017-03-10T10:57:53Z</time>
      </trkpt>
      <trkpt lat="46.648647515103221" lon="12.071864381432533">
        <ele>2068.8899999999999</ele>
        <time>2017-03-10T10:57:59Z</time>
      </trkpt>
      <trkpt lat="46.648665955290198" lon="12.071760110557079">
        <ele>2068.4099999999999</ele>
        <time>2017-03-10T10:58:08Z</time>
      </trkpt>
      <trkpt lat="46.648693615570664" lon="12.071636142209172">
        <ele>2068.8899999999999</ele>
        <time>2017-03-10T10:58:18Z</time>
      </trkpt>
      <trkpt lat="46.648700069636106" lon="12.071608481928706">
        <ele>2069.3800000000001</ele>
        <time>2017-03-10T10:58:20Z</time>
      </trkpt>
      <trkpt lat="46.648707445710897" lon="12.071589035913348">
        <ele>2069.3800000000001</ele>
        <time>2017-03-10T10:58:22Z</time>
      </trkpt>
      <trkpt lat="46.64876863360405" lon="12.071446124464273">
        <ele>2070.3400000000001</ele>
        <time>2017-03-10T10:58:35Z</time>
      </trkpt>
      <trkpt lat="46.648778859525919" lon="12.071426175534725">
        <ele>2069.3800000000001</ele>
        <time>2017-03-10T10:58:37Z</time>
      </trkpt>
      <trkpt lat="46.64879260584712" lon="12.071400443091989">
        <ele>2070.3400000000001</ele>
        <time>2017-03-10T10:58:40Z</time>
      </trkpt>
      <trkpt lat="46.648825462907553" lon="12.071357863023877">
        <ele>2068.8899999999999</ele>
        <time>2017-03-10T10:58:45Z</time>
      </trkpt>
      <trkpt lat="46.648874497041106" lon="12.071252753958106">
        <ele>2069.8600000000001</ele>
        <time>2017-03-10T10:58:54Z</time>
      </trkpt>
      <trkpt lat="46.648917160928249" lon="12.071191733703017">
        <ele>2071.3000000000002</ele>
        <time>2017-03-10T10:59:03Z</time>
      </trkpt>
      <trkpt lat="46.648928476497531" lon="12.071189805865288">
        <ele>2071.3000000000002</ele>
        <time>2017-03-10T10:59:25Z</time>
      </trkpt>
      <trkpt lat="46.648953203111887" lon="12.071142196655273">
        <ele>2070.3400000000001</ele>
        <time>2017-03-10T10:59:29Z</time>
      </trkpt>
      <trkpt lat="46.648959573358297" lon="12.071134150028229">
        <ele>2070.8200000000002</ele>
        <time>2017-03-10T10:59:30Z</time>
      </trkpt>
      <trkpt lat="46.649000896140933" lon="12.071074973791838">
        <ele>2071.7800000000002</ele>
        <time>2017-03-10T10:59:36Z</time>
      </trkpt>
      <trkpt lat="46.649025119841099" lon="12.071012193337083">
        <ele>2072.2600000000002</ele>
        <time>2017-03-10T10:59:41Z</time>
      </trkpt>
      <trkpt lat="46.649050181731582" lon="12.070991573855281">
        <ele>2072.2600000000002</ele>
        <time>2017-03-10T10:59:44Z</time>
      </trkpt>
      <trkpt lat="46.649122852832079" lon="12.07087623886764">
        <ele>2071.7800000000002</ele>
        <time>2017-03-10T10:59:55Z</time>
      </trkpt>
      <trkpt lat="46.649178005754948" lon="12.070780517533422">
        <ele>2072.7399999999998</ele>
        <time>2017-03-10T11:00:04Z</time>
      </trkpt>
      <trkpt lat="46.649212455376983" lon="12.070749336853623">
        <ele>2073.6999999999998</ele>
        <time>2017-03-10T11:00:08Z</time>
      </trkpt>
      <trkpt lat="46.649244893342257" lon="12.070681611075997">
        <ele>2073.6999999999998</ele>
        <time>2017-03-10T11:00:13Z</time>
      </trkpt>
      <trkpt lat="46.649279007688165" lon="12.070620255544782">
        <ele>2074.1799999999998</ele>
        <time>2017-03-10T11:00:19Z</time>
      </trkpt>
      <trkpt lat="46.649295436218381" lon="12.07058790139854">
        <ele>2074.6599999999999</ele>
        <time>2017-03-10T11:00:22Z</time>
      </trkpt>
      <trkpt lat="46.649351008236408" lon="12.07047063857317">
        <ele>2074.1799999999998</ele>
        <time>2017-03-10T11:00:32Z</time>
      </trkpt>
      <trkpt lat="46.649365676566958" lon="12.070451779291034">
        <ele>2075.1399999999999</ele>
        <time>2017-03-10T11:00:34Z</time>
      </trkpt>
      <trkpt lat="46.649423846974969" lon="12.070346502587199">
        <ele>2075.1399999999999</ele>
        <time>2017-03-10T11:00:43Z</time>
      </trkpt>
      <trkpt lat="46.649441784247756" lon="12.070329738780856">
        <ele>2075.6199999999999</ele>
        <time>2017-03-10T11:00:45Z</time>
      </trkpt>
      <trkpt lat="46.649473970755935" lon="12.070269472897053">
        <ele>2076.5900000000001</ele>
        <time>2017-03-10T11:00:50Z</time>
      </trkpt>
      <trkpt lat="46.649513868615031" lon="12.070193365216255">
        <ele>2077.0700000000002</ele>
        <time>2017-03-10T11:00:57Z</time>
      </trkpt>
      <trkpt lat="46.649533482268453" lon="12.070198561996222">
        <ele>2077.5500000000002</ele>
        <time>2017-03-10T11:00:59Z</time>
      </trkpt>
      <trkpt lat="46.649569105356932" lon="12.070139469578862">
        <ele>2078.5100000000002</ele>
        <time>2017-03-10T11:01:05Z</time>
      </trkpt>
      <trkpt lat="46.649574805051088" lon="12.070113150402904">
        <ele>2078.5100000000002</ele>
        <time>2017-03-10T11:01:07Z</time>
      </trkpt>
      <trkpt lat="46.649602130055428" lon="12.070076186209917">
        <ele>2078.9899999999998</ele>
        <time>2017-03-10T11:01:11Z</time>
      </trkpt>
      <trkpt lat="46.64960715919733" lon="12.070045173168182">
        <ele>2079.4699999999998</ele>
        <time>2017-03-10T11:01:13Z</time>
      </trkpt>
      <trkpt lat="46.649623503908515" lon="12.069993792101741">
        <ele>2078.9899999999998</ele>
        <time>2017-03-10T11:01:17Z</time>
      </trkpt>
      <trkpt lat="46.649672454223037" lon="12.069861106574535">
        <ele>2080.4299999999998</ele>
        <time>2017-03-10T11:01:29Z</time>
      </trkpt>
      <trkpt lat="46.649684943258762" lon="12.069805786013603">
        <ele>2080.4299999999998</ele>
        <time>2017-03-10T11:01:35Z</time>
      </trkpt>
      <trkpt lat="46.64969458244741" lon="12.069755578413606">
        <ele>2081.8699999999999</ele>
        <time>2017-03-10T11:01:39Z</time>
      </trkpt>
      <trkpt lat="46.649707406759262" lon="12.069640075787902">
        <ele>2081.8699999999999</ele>
        <time>2017-03-10T11:01:50Z</time>
      </trkpt>
      <trkpt lat="46.649710005149245" lon="12.06950169056654">
        <ele>2083.3099999999999</ele>
        <time>2017-03-10T11:02:02Z</time>
      </trkpt>
      <trkpt lat="46.649732133373618" lon="12.069447543472052">
        <ele>2083.3099999999999</ele>
        <time>2017-03-10T11:02:07Z</time>
      </trkpt>
      <trkpt lat="46.649774378165603" lon="12.069382416084409">
        <ele>2083.79</ele>
        <time>2017-03-10T11:02:14Z</time>
      </trkpt>
      <trkpt lat="46.649785945191979" lon="12.06934436224401">
        <ele>2083.79</ele>
        <time>2017-03-10T11:02:17Z</time>
      </trkpt>
      <trkpt lat="46.649865908548236" lon="12.069254089146852">
        <ele>2085.2399999999998</ele>
        <time>2017-03-10T11:02:28Z</time>
      </trkpt>
      <trkpt lat="46.649865573272109" lon="12.06922953017056">
        <ele>2085.7199999999998</ele>
        <time>2017-03-10T11:02:30Z</time>
      </trkpt>
      <trkpt lat="46.649938160553575" lon="12.069122409448028">
        <ele>2087.1599999999999</ele>
        <time>2017-03-10T11:02:41Z</time>
      </trkpt>
      <trkpt lat="46.649982500821352" lon="12.069031298160553">
        <ele>2087.6399999999999</ele>
        <time>2017-03-10T11:02:50Z</time>
      </trkpt>
      <trkpt lat="46.650047795847058" lon="12.068941444158554">
        <ele>2088.5999999999999</ele>
        <time>2017-03-10T11:03:01Z</time>
      </trkpt>
      <trkpt lat="46.650070091709495" lon="12.068901546299458">
        <ele>2089.5599999999999</ele>
        <time>2017-03-10T11:03:05Z</time>
      </trkpt>
      <trkpt lat="46.650090040639043" lon="12.068871287629008">
        <ele>2089.5599999999999</ele>
        <time>2017-03-10T11:03:10Z</time>
      </trkpt>
      <trkpt lat="46.650143852457404" lon="12.068777745589614">
        <ele>2091</ele>
        <time>2017-03-10T11:03:20Z</time>
      </trkpt>
      <trkpt lat="46.650143433362246" lon="12.068767687305808">
        <ele>2091</ele>
        <time>2017-03-10T11:03:21Z</time>
      </trkpt>
      <trkpt lat="46.650183750316501" lon="12.06871303729713">
        <ele>2092.4499999999998</ele>
        <time>2017-03-10T11:03:27Z</time>
      </trkpt>
      <trkpt lat="46.650188947096467" lon="12.068667691200972">
        <ele>2093.4099999999999</ele>
        <time>2017-03-10T11:03:30Z</time>
      </trkpt>
      <trkpt lat="46.650244267657399" lon="12.068580184131861">
        <ele>2093.8899999999999</ele>
        <time>2017-03-10T11:03:40Z</time>
      </trkpt>
      <trkpt lat="46.650249045342207" lon="12.068552859127522">
        <ele>2092.4499999999998</ele>
        <time>2017-03-10T11:03:44Z</time>
      </trkpt>
      <trkpt lat="46.650291373953223" lon="12.068464765325189">
        <ele>2093.8899999999999</ele>
        <time>2017-03-10T11:03:53Z</time>
      </trkpt>
      <trkpt lat="46.650294475257397" lon="12.068443140015006">
        <ele>2094.3699999999999</ele>
        <time>2017-03-10T11:03:55Z</time>
      </trkpt>
      <trkpt lat="46.650347700342536" lon="12.068320931866765">
        <ele>2095.3299999999999</ele>
        <time>2017-03-10T11:04:07Z</time>
      </trkpt>
      <trkpt lat="46.650385335087776" lon="12.068252451717854">
        <ele>2095.8099999999999</ele>
        <time>2017-03-10T11:04:15Z</time>
      </trkpt>
      <trkpt lat="46.650392627343535" lon="12.068219259381294">
        <ele>2097.73</ele>
        <time>2017-03-10T11:04:24Z</time>
      </trkpt>
      <trkpt lat="46.650406289845705" lon="12.06818975508213">
        <ele>2096.77</ele>
        <time>2017-03-10T11:04:36Z</time>
      </trkpt>
      <trkpt lat="46.650456413626671" lon="12.068063355982304">
        <ele>2097.73</ele>
        <time>2017-03-10T11:04:46Z</time>
      </trkpt>
      <trkpt lat="46.650479463860393" lon="12.067989762872458">
        <ele>2096.77</ele>
        <time>2017-03-10T11:04:52Z</time>
      </trkpt>
      <trkpt lat="46.650544172152877" lon="12.067851293832064">
        <ele>2096.29</ele>
        <time>2017-03-10T11:05:03Z</time>
      </trkpt>
      <trkpt lat="46.650580214336514" lon="12.067732606083155">
        <ele>2096.29</ele>
        <time>2017-03-10T11:05:12Z</time>
      </trkpt>
      <trkpt lat="46.650609467178583" lon="12.067662868648767">
        <ele>2096.77</ele>
        <time>2017-03-10T11:05:18Z</time>
      </trkpt>
      <trkpt lat="46.650643832981586" lon="12.067565470933914">
        <ele>2098.21</ele>
        <time>2017-03-10T11:05:27Z</time>
      </trkpt>
      <trkpt lat="46.650672415271401" lon="12.067500008270144">
        <ele>2099.1799999999998</ele>
        <time>2017-03-10T11:05:33Z</time>
      </trkpt>
      <trkpt lat="46.650712816044688" lon="12.067433623597026">
        <ele>2099.1799999999998</ele>
        <time>2017-03-10T11:05:40Z</time>
      </trkpt>
      <trkpt lat="46.650733603164554" lon="12.067402945831418">
        <ele>2099.6599999999999</ele>
        <time>2017-03-10T11:05:44Z</time>
      </trkpt>
      <trkpt lat="46.650771740823984" lon="12.06737226806581">
        <ele>2100.1399999999999</ele>
        <time>2017-03-10T11:05:49Z</time>
      </trkpt>
      <trkpt lat="46.650821948423982" lon="12.067270847037435">
        <ele>2102.0599999999999</ele>
        <time>2017-03-10T11:05:59Z</time>
      </trkpt>
      <trkpt lat="46.650847848504782" lon="12.067208401858807">
        <ele>2103.02</ele>
        <time>2017-03-10T11:06:06Z</time>
      </trkpt>
      <trkpt lat="46.650855811312795" lon="12.067183423787355">
        <ele>2103.02</ele>
        <time>2017-03-10T11:06:08Z</time>
      </trkpt>
      <trkpt lat="46.650907527655363" lon="12.067085690796375">
        <ele>2103.5</ele>
        <time>2017-03-10T11:06:19Z</time>
      </trkpt>
      <trkpt lat="46.650927057489753" lon="12.067065993323922">
        <ele>2102.54</ele>
        <time>2017-03-10T11:06:22Z</time>
      </trkpt>
      <trkpt lat="46.650938624516129" lon="12.067002458497882">
        <ele>2102.54</ele>
        <time>2017-03-10T11:06:27Z</time>
      </trkpt>
      <trkpt lat="46.650997549295425" lon="12.066884273663163">
        <ele>2103.5</ele>
        <time>2017-03-10T11:06:39Z</time>
      </trkpt>
      <trkpt lat="46.651081703603268" lon="12.066805483773351">
        <ele>2103.5</ele>
        <time>2017-03-10T11:06:52Z</time>
      </trkpt>
      <trkpt lat="46.651098132133484" lon="12.066771201789379">
        <ele>2104.9400000000001</ele>
        <time>2017-03-10T11:06:56Z</time>
      </trkpt>
      <trkpt lat="46.651104250922799" lon="12.066748151555657">
        <ele>2104.9400000000001</ele>
        <time>2017-03-10T11:06:59Z</time>
      </trkpt>
      <trkpt lat="46.651160661131144" lon="12.066640192642808">
        <ele>2106.8699999999999</ele>
        <time>2017-03-10T11:07:10Z</time>
      </trkpt>
      <trkpt lat="46.651166025549173" lon="12.066630721092224">
        <ele>2107.8299999999999</ele>
        <time>2017-03-10T11:07:11Z</time>
      </trkpt>
      <trkpt lat="46.651214389130473" lon="12.06654648296535">
        <ele>2109.27</ele>
        <time>2017-03-10T11:07:23Z</time>
      </trkpt>
      <trkpt lat="46.65126065723598" lon="12.066446905955672">
        <ele>2111.1900000000001</ele>
        <time>2017-03-10T11:07:33Z</time>
      </trkpt>
      <trkpt lat="46.651300135999918" lon="12.066368535161018">
        <ele>2112.1500000000001</ele>
        <time>2017-03-10T11:07:42Z</time>
      </trkpt>
      <trkpt lat="46.651335004717112" lon="12.066242722794414">
        <ele>2113.1199999999999</ele>
        <time>2017-03-10T11:07:54Z</time>
      </trkpt>
      <trkpt lat="46.651364844292402" lon="12.066169716417789">
        <ele>2114.0799999999999</ele>
        <time>2017-03-10T11:08:01Z</time>
      </trkpt>
      <trkpt lat="46.651414800435305" lon="12.066081957891583">
        <ele>2115.52</ele>
        <time>2017-03-10T11:08:11Z</time>
      </trkpt>
      <trkpt lat="46.651465678587556" lon="12.066022865474224">
        <ele>2116</ele>
        <time>2017-03-10T11:08:21Z</time>
      </trkpt>
      <trkpt lat="46.651519322767854" lon="12.065974837169051">
        <ele>2116.96</ele>
        <time>2017-03-10T11:08:29Z</time>
      </trkpt>
      <trkpt lat="46.651564165949821" lon="12.065962599590421">
        <ele>2118.4000000000001</ele>
        <time>2017-03-10T11:08:36Z</time>
      </trkpt>
      <trkpt lat="46.651643710210919" lon="12.065895963460207">
        <ele>2120.8099999999999</ele>
        <time>2017-03-10T11:08:48Z</time>
      </trkpt>
      <trkpt lat="46.651704059913754" lon="12.065855981782079">
        <ele>2121.29</ele>
        <time>2017-03-10T11:08:58Z</time>
      </trkpt>
      <trkpt lat="46.651732642203569" lon="12.065799320116639">
        <ele>2120.8099999999999</ele>
        <time>2017-03-10T11:09:04Z</time>
      </trkpt>
      <trkpt lat="46.651770947501063" lon="12.065744753926992">
        <ele>2121.77</ele>
        <time>2017-03-10T11:09:14Z</time>
      </trkpt>
      <trkpt lat="46.651799362152815" lon="12.065674597397447">
        <ele>2125.1300000000001</ele>
        <time>2017-03-10T11:09:23Z</time>
      </trkpt>
      <trkpt lat="46.651801792904735" lon="12.065670825541019">
        <ele>2123.6900000000001</ele>
        <time>2017-03-10T11:09:24Z</time>
      </trkpt>
      <trkpt lat="46.651821406558156" lon="12.065656408667564">
        <ele>2126.5700000000002</ele>
        <time>2017-03-10T11:09:29Z</time>
      </trkpt>
      <trkpt lat="46.651824424043298" lon="12.065648110583425">
        <ele>2125.6100000000001</ele>
        <time>2017-03-10T11:09:30Z</time>
      </trkpt>
      <trkpt lat="46.651831548660994" lon="12.065629921853542">
        <ele>2124.1700000000001</ele>
        <time>2017-03-10T11:09:32Z</time>
      </trkpt>
      <trkpt lat="46.651858035475016" lon="12.065559010952711">
        <ele>2124.6500000000001</ele>
        <time>2017-03-10T11:09:42Z</time>
      </trkpt>
      <trkpt lat="46.651867423206568" lon="12.065553478896618">
        <ele>2126.0900000000001</ele>
        <time>2017-03-10T11:09:51Z</time>
      </trkpt>
      <trkpt lat="46.651875469833612" lon="12.065528249368072">
        <ele>2122.73</ele>
        <time>2017-03-10T11:09:55Z</time>
      </trkpt>
      <trkpt lat="46.651933724060655" lon="12.065466307103634">
        <ele>2125.1300000000001</ele>
        <time>2017-03-10T11:10:03Z</time>
      </trkpt>
      <trkpt lat="46.651944201439619" lon="12.065437473356724">
        <ele>2122.73</ele>
        <time>2017-03-10T11:10:06Z</time>
      </trkpt>
      <trkpt lat="46.651965491473675" lon="12.065403694286942">
        <ele>2125.1300000000001</ele>
        <time>2017-03-10T11:10:10Z</time>
      </trkpt>
      <trkpt lat="46.651974376291037" lon="12.065380979329348">
        <ele>2126.0900000000001</ele>
        <time>2017-03-10T11:10:13Z</time>
      </trkpt>
      <trkpt lat="46.652021817862988" lon="12.065297244116664">
        <ele>2126.5700000000002</ele>
        <time>2017-03-10T11:10:22Z</time>
      </trkpt>
      <trkpt lat="46.65202827192843" lon="12.065274696797132">
        <ele>2127.5300000000002</ele>
        <time>2017-03-10T11:10:24Z</time>
      </trkpt>
      <trkpt lat="46.652082251384854" lon="12.065168749541044">
        <ele>2128.98</ele>
        <time>2017-03-10T11:10:35Z</time>
      </trkpt>
      <trkpt lat="46.652094991877675" lon="12.065153745934367">
        <ele>2130.4200000000001</ele>
        <time>2017-03-10T11:10:46Z</time>
      </trkpt>
      <trkpt lat="46.65210647508502" lon="12.065150309354067">
        <ele>2128.5</ele>
        <time>2017-03-10T11:10:55Z</time>
      </trkpt>
      <trkpt lat="46.652124747633934" lon="12.065106639638543">
        <ele>2132.3400000000001</ele>
        <time>2017-03-10T11:10:59Z</time>
      </trkpt>
      <trkpt lat="46.652180990204215" lon="12.065031202509999">
        <ele>2130.9000000000001</ele>
        <time>2017-03-10T11:11:09Z</time>
      </trkpt>
      <trkpt lat="46.652234550565481" lon="12.064938079565763">
        <ele>2131.3800000000001</ele>
        <time>2017-03-10T11:11:20Z</time>
      </trkpt>
      <trkpt lat="46.65224720723927" lon="12.064899690449238">
        <ele>2132.3400000000001</ele>
        <time>2017-03-10T11:11:24Z</time>
      </trkpt>
      <trkpt lat="46.652292385697365" lon="12.064790306612849">
        <ele>2134.2600000000002</ele>
        <time>2017-03-10T11:11:36Z</time>
      </trkpt>
      <trkpt lat="46.652309400960803" lon="12.064762059599161">
        <ele>2135.23</ele>
        <time>2017-03-10T11:11:40Z</time>
      </trkpt>
      <trkpt lat="46.652345359325409" lon="12.064641946926713">
        <ele>2137.1500000000001</ele>
        <time>2017-03-10T11:11:52Z</time>
      </trkpt>
      <trkpt lat="46.652391878888011" lon="12.064502974972129">
        <ele>2137.1500000000001</ele>
        <time>2017-03-10T11:12:04Z</time>
      </trkpt>
      <trkpt lat="46.652400512248278" lon="12.064454527571797">
        <ele>2137.1500000000001</ele>
        <time>2017-03-10T11:12:09Z</time>
      </trkpt>
      <trkpt lat="46.652435380965471" lon="12.064340701326728">
        <ele>2138.1100000000001</ele>
        <time>2017-03-10T11:12:20Z</time>
      </trkpt>
      <trkpt lat="46.652456084266305" lon="12.064299630001187">
        <ele>2137.6300000000001</ele>
        <time>2017-03-10T11:12:32Z</time>
      </trkpt>
      <trkpt lat="46.652488186955452" lon="12.064217235893011">
        <ele>2139.0700000000002</ele>
        <time>2017-03-10T11:12:39Z</time>
      </trkpt>
      <trkpt lat="46.652503944933414" lon="12.064187061041594">
        <ele>2140.9899999999998</ele>
        <time>2017-03-10T11:12:44Z</time>
      </trkpt>
      <trkpt lat="46.652538646012545" lon="12.064077258110046">
        <ele>2141.4699999999998</ele>
        <time>2017-03-10T11:12:55Z</time>
      </trkpt>
      <trkpt lat="46.652567563578486" lon="12.064030235633254">
        <ele>2141.4699999999998</ele>
        <time>2017-03-10T11:13:00Z</time>
      </trkpt>
      <trkpt lat="46.652593966573477" lon="12.063925545662642">
        <ele>2141.4699999999998</ele>
        <time>2017-03-10T11:13:08Z</time>
      </trkpt>
      <trkpt lat="46.652613328769803" lon="12.063898639753461">
        <ele>2141.9499999999998</ele>
        <time>2017-03-10T11:13:12Z</time>
      </trkpt>
      <trkpt lat="46.652644006535411" lon="12.063825549557805">
        <ele>2143.4000000000001</ele>
        <time>2017-03-10T11:13:20Z</time>
      </trkpt>
      <trkpt lat="46.65269186720252" lon="12.063725301995873">
        <ele>2143.8800000000001</ele>
        <time>2017-03-10T11:13:30Z</time>
      </trkpt>
      <trkpt lat="46.652733106166124" lon="12.063629496842623">
        <ele>2144.8400000000001</ele>
        <time>2017-03-10T11:13:39Z</time>
      </trkpt>
      <trkpt lat="46.652785912156105" lon="12.063544169068336">
        <ele>2144.3600000000001</ele>
        <time>2017-03-10T11:13:49Z</time>
      </trkpt>
      <trkpt lat="46.652828576043248" lon="12.06343537196517">
        <ele>2144.8400000000001</ele>
        <time>2017-03-10T11:13:59Z</time>
      </trkpt>
      <trkpt lat="46.652869982644916" lon="12.063313499093056">
        <ele>2145.8000000000002</ele>
        <time>2017-03-10T11:14:09Z</time>
      </trkpt>
      <trkpt lat="46.652920776978135" lon="12.063174024224281">
        <ele>2146.2800000000002</ele>
        <time>2017-03-10T11:14:21Z</time>
      </trkpt>
      <trkpt lat="46.652947850525379" lon="12.06310604698956">
        <ele>2143.4000000000001</ele>
        <time>2017-03-10T11:14:27Z</time>
      </trkpt>
      <trkpt lat="46.652961345389485" lon="12.063062964007258">
        <ele>2145.3200000000002</ele>
        <time>2017-03-10T11:14:30Z</time>
      </trkpt>
      <trkpt lat="46.653015073388815" lon="12.062933798879385">
        <ele>2147.7199999999998</ele>
        <time>2017-03-10T11:14:41Z</time>
      </trkpt>
      <trkpt lat="46.653061341494322" lon="12.062798179686069">
        <ele>2145.8000000000002</ele>
        <time>2017-03-10T11:14:52Z</time>
      </trkpt>
      <trkpt lat="46.653074081987143" lon="12.062750905752182">
        <ele>2147.7199999999998</ele>
        <time>2017-03-10T11:14:57Z</time>
      </trkpt>
      <trkpt lat="46.653111213818192" lon="12.062694747000933">
        <ele>2146.7600000000002</ele>
        <time>2017-03-10T11:15:01Z</time>
      </trkpt>
      <trkpt lat="46.653160834684968" lon="12.062548734247684">
        <ele>2145.3200000000002</ele>
        <time>2017-03-10T11:15:12Z</time>
      </trkpt>
      <trkpt lat="46.653221435844898" lon="12.062427615746856">
        <ele>2146.7600000000002</ele>
        <time>2017-03-10T11:15:23Z</time>
      </trkpt>
      <trkpt lat="46.653294190764427" lon="12.062301803380251">
        <ele>2146.7600000000002</ele>
        <time>2017-03-10T11:15:34Z</time>
      </trkpt>
      <trkpt lat="46.653338698670268" lon="12.062172722071409">
        <ele>2146.7600000000002</ele>
        <time>2017-03-10T11:15:43Z</time>
      </trkpt>
      <trkpt lat="46.653360156342387" lon="12.062089908868074">
        <ele>2147.2399999999998</ele>
        <time>2017-03-10T11:15:51Z</time>
      </trkpt>
      <trkpt lat="46.653371723368764" lon="12.062007347121835">
        <ele>2148.6799999999998</ele>
        <time>2017-03-10T11:15:57Z</time>
      </trkpt>
      <trkpt lat="46.653385888785124" lon="12.061861418187618">
        <ele>2148.6799999999998</ele>
        <time>2017-03-10T11:16:08Z</time>
      </trkpt>
      <trkpt lat="46.653429307043552" lon="12.061711382120848">
        <ele>2148.6799999999998</ele>
        <time>2017-03-10T11:16:19Z</time>
      </trkpt>
      <trkpt lat="46.653491165488958" lon="12.061574086546898">
        <ele>2148.1999999999998</ele>
        <time>2017-03-10T11:16:30Z</time>
      </trkpt>
      <trkpt lat="46.653557382524014" lon="12.061466882005334">
        <ele>2148.6799999999998</ele>
        <time>2017-03-10T11:16:39Z</time>
      </trkpt>
      <trkpt lat="46.653614966198802" lon="12.061342997476459">
        <ele>2148.1999999999998</ele>
        <time>2017-03-10T11:16:49Z</time>
      </trkpt>
      <trkpt lat="46.653623851016164" lon="12.061331514269114">
        <ele>2148.1999999999998</ele>
        <time>2017-03-10T11:16:50Z</time>
      </trkpt>
      <trkpt lat="46.653675232082605" lon="12.061188435181975">
        <ele>2149.1599999999999</ele>
        <time>2017-03-10T11:17:00Z</time>
      </trkpt>
      <trkpt lat="46.653695348650217" lon="12.061082236468792">
        <ele>2149.6500000000001</ele>
        <time>2017-03-10T11:17:08Z</time>
      </trkpt>
      <trkpt lat="46.65370280854404" lon="12.06091308966279">
        <ele>2149.6500000000001</ele>
        <time>2017-03-10T11:17:19Z</time>
      </trkpt>
      <trkpt lat="46.653700126335025" lon="12.060830108821392">
        <ele>2149.6500000000001</ele>
        <time>2017-03-10T11:17:24Z</time>
      </trkpt>
      <trkpt lat="46.653705909848213" lon="12.060792054980993">
        <ele>2149.1599999999999</ele>
        <time>2017-03-10T11:17:36Z</time>
      </trkpt>
      <trkpt lat="46.653708759695292" lon="12.060697842389345">
        <ele>2149.6500000000001</ele>
        <time>2017-03-10T11:17:42Z</time>
      </trkpt>
      <trkpt lat="46.65372627787292" lon="12.060514027252793">
        <ele>2148.6799999999998</ele>
        <time>2017-03-10T11:17:53Z</time>
      </trkpt>
      <trkpt lat="46.653727618977427" lon="12.060393579304218">
        <ele>2148.6799999999998</ele>
        <time>2017-03-10T11:18:00Z</time>
      </trkpt>
      <trkpt lat="46.653715884312987" lon="12.060393579304218">
        <ele>2148.6799999999998</ele>
        <time>2017-03-10T11:18:13Z</time>
      </trkpt>
      <trkpt lat="46.653715632855892" lon="12.060396512970328">
        <ele>2148.1999999999998</ele>
        <time>2017-03-10T11:18:21Z</time>
      </trkpt>
      <trkpt lat="46.653723176568747" lon="12.060339013114572">
        <ele>2147.7199999999998</ele>
        <time>2017-03-10T11:18:24Z</time>
      </trkpt>
      <trkpt lat="46.653717141598463" lon="12.060199789702892">
        <ele>2146.2800000000002</ele>
        <time>2017-03-10T11:18:32Z</time>
      </trkpt>
      <trkpt lat="46.653700713068247" lon="12.059980183839798">
        <ele>2145.3200000000002</ele>
        <time>2017-03-10T11:18:45Z</time>
      </trkpt>
      <trkpt lat="46.653688056394458" lon="12.05986401066184">
        <ele>2145.8000000000002</ele>
        <time>2017-03-10T11:18:56Z</time>
      </trkpt>
      <trkpt lat="46.653675567358732" lon="12.059762589633465">
        <ele>2146.2800000000002</ele>
        <time>2017-03-10T11:19:06Z</time>
      </trkpt>
      <trkpt lat="46.653684368357062" lon="12.059657732024789">
        <ele>2146.2800000000002</ele>
        <time>2017-03-10T11:19:16Z</time>
      </trkpt>
      <trkpt lat="46.653686799108982" lon="12.059643566608429">
        <ele>2145.8000000000002</ele>
        <time>2017-03-10T11:19:25Z</time>
      </trkpt>
      <trkpt lat="46.653671963140368" lon="12.059617331251502">
        <ele>2147.2399999999998</ele>
        <time>2017-03-10T11:19:36Z</time>
      </trkpt>
      <trkpt lat="46.653667520731688" lon="12.059593945741653">
        <ele>2149.1599999999999</ele>
        <time>2017-03-10T11:19:41Z</time>
      </trkpt>
      <trkpt lat="46.653653858229518" lon="12.059586653485894">
        <ele>2147.2399999999998</ele>
        <time>2017-03-10T11:19:48Z</time>
      </trkpt>
      <trkpt lat="46.653672130778432" lon="12.059624958783388">
        <ele>2146.7600000000002</ele>
        <time>2017-03-10T11:20:01Z</time>
      </trkpt>
      <trkpt lat="46.653629215434194" lon="12.05951607786119">
        <ele>2145.8000000000002</ele>
        <time>2017-03-10T11:20:13Z</time>
      </trkpt>
      <trkpt lat="46.65356601588428" lon="12.059485986828804">
        <ele>2145.3200000000002</ele>
        <time>2017-03-10T11:20:22Z</time>
      </trkpt>
      <trkpt lat="46.653550341725349" lon="12.05948531627655">
        <ele>2145.3200000000002</ele>
        <time>2017-03-10T11:20:33Z</time>
      </trkpt>
      <trkpt lat="46.653553862124681" lon="12.05949411727488">
        <ele>2145.3200000000002</ele>
        <time>2017-03-10T11:20:45Z</time>
      </trkpt>
      <trkpt lat="46.653561070561409" lon="12.059496715664864">
        <ele>2145.3200000000002</ele>
        <time>2017-03-10T11:20:54Z</time>
      </trkpt>
      <trkpt lat="46.653579426929355" lon="12.059511886909604">
        <ele>2145.3200000000002</ele>
        <time>2017-03-10T11:21:06Z</time>
      </trkpt>
      <trkpt lat="46.653554197400808" lon="12.059503421187401">
        <ele>2143.8800000000001</ele>
        <time>2017-03-10T11:21:12Z</time>
      </trkpt>
      <trkpt lat="46.653512204065919" lon="12.059510629624128">
        <ele>2143.8800000000001</ele>
        <time>2017-03-10T11:21:28Z</time>
      </trkpt>
      <trkpt lat="46.65352888405323" lon="12.059506857767701">
        <ele>2143.8800000000001</ele>
        <time>2017-03-10T11:21:38Z</time>
      </trkpt>
      <trkpt lat="46.653536427766085" lon="12.059502163901925">
        <ele>2143.8800000000001</ele>
        <time>2017-03-10T11:21:49Z</time>
      </trkpt>
      <trkpt lat="46.653540870174766" lon="12.059504929929972">
        <ele>2144.8400000000001</ele>
        <time>2017-03-10T11:22:05Z</time>
      </trkpt>
      <trkpt lat="46.653563417494297" lon="12.059497805312276">
        <ele>2144.3600000000001</ele>
        <time>2017-03-10T11:22:20Z</time>
      </trkpt>
      <trkpt lat="46.653576996177435" lon="12.059468803927302">
        <ele>2144.8400000000001</ele>
        <time>2017-03-10T11:22:32Z</time>
      </trkpt>
      <trkpt lat="46.653585126623511" lon="12.059450950473547">
        <ele>2145.3200000000002</ele>
        <time>2017-03-10T11:22:46Z</time>
      </trkpt>
      <trkpt lat="46.653564088046551" lon="12.059426894411445">
        <ele>2144.8400000000001</ele>
        <time>2017-03-10T11:23:00Z</time>
      </trkpt>
      <trkpt lat="46.653585880994797" lon="12.059406442567706">
        <ele>2144.8400000000001</ele>
        <time>2017-03-10T11:23:13Z</time>
      </trkpt>
      <trkpt lat="46.653571212664247" lon="12.059430833905935">
        <ele>2145.8000000000002</ele>
        <time>2017-03-10T11:23:23Z</time>
      </trkpt>
      <trkpt lat="46.653572134673595" lon="12.059427732601762">
        <ele>2145.3200000000002</ele>
        <time>2017-03-10T11:23:35Z</time>
      </trkpt>
      <trkpt lat="46.653601722791791" lon="12.059414740651846">
        <ele>2145.3200000000002</ele>
        <time>2017-03-10T11:23:45Z</time>
      </trkpt>
      <trkpt lat="46.653594765812159" lon="12.05941591411829">
        <ele>2145.3200000000002</ele>
        <time>2017-03-10T11:24:00Z</time>
      </trkpt>
      <trkpt lat="46.653607003390789" lon="12.059414992108941">
        <ele>2145.3200000000002</ele>
        <time>2017-03-10T11:24:16Z</time>
      </trkpt>
      <trkpt lat="46.653629466891289" lon="12.059386409819126">
        <ele>2145.3200000000002</ele>
        <time>2017-03-10T11:24:33Z</time>
      </trkpt>
      <trkpt lat="46.653636591508985" lon="12.059368556365371">
        <ele>2145.8000000000002</ele>
        <time>2017-03-10T11:24:44Z</time>
      </trkpt>
      <trkpt lat="46.653640447184443" lon="12.059359587728977">
        <ele>2145.8000000000002</ele>
        <time>2017-03-10T11:24:54Z</time>
      </trkpt>
      <trkpt lat="46.653637094423175" lon="12.059356989338994">
        <ele>2145.8000000000002</ele>
        <time>2017-03-10T11:25:02Z</time>
      </trkpt>
      <trkpt lat="46.653634076938033" lon="12.059359336271882">
        <ele>2145.3200000000002</ele>
        <time>2017-03-10T11:25:15Z</time>
      </trkpt>
      <trkpt lat="46.653617983683944" lon="12.059329831972718">
        <ele>2145.8000000000002</ele>
        <time>2017-03-10T11:25:25Z</time>
      </trkpt>
      <trkpt lat="46.653553443029523" lon="12.059393534436822">
        <ele>2146.2800000000002</ele>
        <time>2017-03-10T11:25:36Z</time>
      </trkpt>
      <trkpt lat="46.653544306755066" lon="12.059459248557687">
        <ele>2146.7600000000002</ele>
        <time>2017-03-10T11:25:53Z</time>
      </trkpt>
      <trkpt lat="46.653514886274934" lon="12.059452375397086">
        <ele>2146.7600000000002</ele>
        <time>2017-03-10T11:26:03Z</time>
      </trkpt>
      <trkpt lat="46.653514802455902" lon="12.059483136981726">
        <ele>2146.7600000000002</ele>
        <time>2017-03-10T11:26:17Z</time>
      </trkpt>
      <trkpt lat="46.653507510200143" lon="12.05942957662046">
        <ele>2145.8000000000002</ele>
        <time>2017-03-10T11:26:29Z</time>
      </trkpt>
      <trkpt lat="46.653511952608824" lon="12.059384314343333">
        <ele>2146.2800000000002</ele>
        <time>2017-03-10T11:26:38Z</time>
      </trkpt>
      <trkpt lat="46.653507677838206" lon="12.059338130056858">
        <ele>2145.8000000000002</ele>
        <time>2017-03-10T11:26:47Z</time>
      </trkpt>
      <trkpt lat="46.653513880446553" lon="12.059340057894588">
        <ele>2144.8400000000001</ele>
        <time>2017-03-10T11:26:56Z</time>
      </trkpt>
      <trkpt lat="46.653526453301311" lon="12.05933921970427">
        <ele>2144.8400000000001</ele>
        <time>2017-03-10T11:27:21Z</time>
      </trkpt>
      <trkpt lat="46.653525279834867" lon="12.059339471161366">
        <ele>2145.3200000000002</ele>
        <time>2017-03-10T11:27:41Z</time>
      </trkpt>
      <trkpt lat="46.653523351997137" lon="12.059344332665205">
        <ele>2145.8000000000002</ele>
        <time>2017-03-10T11:27:55Z</time>
      </trkpt>
      <trkpt lat="46.653527459129691" lon="12.059342823922634">
        <ele>2146.7600000000002</ele>
        <time>2017-03-10T11:28:04Z</time>
      </trkpt>
      <trkpt lat="46.653511365875602" lon="12.059322707355022">
        <ele>2145.3200000000002</ele>
        <time>2017-03-10T11:28:21Z</time>
      </trkpt>
      <trkpt lat="46.653499463573098" lon="12.059316337108612">
        <ele>2145.8000000000002</ele>
        <time>2017-03-10T11:28:38Z</time>
      </trkpt>
      <trkpt lat="46.653505247086287" lon="12.059319689869881">
        <ele>2145.8000000000002</ele>
        <time>2017-03-10T11:29:01Z</time>
      </trkpt>
      <trkpt lat="46.653512204065919" lon="12.059320528060198">
        <ele>2144.8400000000001</ele>
        <time>2017-03-10T11:29:21Z</time>
      </trkpt>
      <trkpt lat="46.653517736122012" lon="12.059310134500265">
        <ele>2145.8000000000002</ele>
        <time>2017-03-10T11:29:48Z</time>
      </trkpt>
      <trkpt lat="46.653502229601145" lon="12.059325473383069">
        <ele>2146.2800000000002</ele>
        <time>2017-03-10T11:30:15Z</time>
      </trkpt>
      <trkpt lat="46.653511701151729" lon="12.059311727061868">
        <ele>2145.8000000000002</ele>
        <time>2017-03-10T11:30:45Z</time>
      </trkpt>
      <trkpt lat="46.653511114418507" lon="12.059331508353353">
        <ele>2147.2399999999998</ele>
        <time>2017-03-10T11:31:03Z</time>
      </trkpt>
      <trkpt lat="46.653519747778773" lon="12.059323294088244">
        <ele>2146.2800000000002</ele>
        <time>2017-03-10T11:31:27Z</time>
      </trkpt>
      <trkpt lat="46.653518071398139" lon="12.059348439797759">
        <ele>2146.2800000000002</ele>
        <time>2017-03-10T11:31:46Z</time>
      </trkpt>
      <trkpt lat="46.653515221551061" lon="12.059336453676224">
        <ele>2145.8000000000002</ele>
        <time>2017-03-10T11:31:58Z</time>
      </trkpt>
      <trkpt lat="46.65352251380682" lon="12.059332430362701">
        <ele>2145.3200000000002</ele>
        <time>2017-03-10T11:32:22Z</time>
      </trkpt>
      <trkpt lat="46.653493009507656" lon="12.059340393170714">
        <ele>2145.8000000000002</ele>
        <time>2017-03-10T11:32:43Z</time>
      </trkpt>
      <trkpt lat="46.653511701151729" lon="12.059317762032151">
        <ele>2145.8000000000002</ele>
        <time>2017-03-10T11:33:01Z</time>
      </trkpt>
      <trkpt lat="46.653508516028523" lon="12.059323797002435">
        <ele>2145.8000000000002</ele>
        <time>2017-03-10T11:33:25Z</time>
      </trkpt>
      <trkpt lat="46.653506001457572" lon="12.059327233582735">
        <ele>2145.8000000000002</ele>
        <time>2017-03-10T11:33:54Z</time>
      </trkpt>
      <trkpt lat="46.653514467179775" lon="12.059328155592084">
        <ele>2145.8000000000002</ele>
        <time>2017-03-10T11:34:15Z</time>
      </trkpt>
      <trkpt lat="46.65351714938879" lon="12.059318851679564">
        <ele>2146.2800000000002</ele>
        <time>2017-03-10T11:34:31Z</time>
      </trkpt>
      <trkpt lat="46.653501726686954" lon="12.059332178905606">
        <ele>2146.2800000000002</ele>
        <time>2017-03-10T11:34:58Z</time>
      </trkpt>
      <trkpt lat="46.653493428602815" lon="12.059342404827476">
        <ele>2147.7199999999998</ele>
        <time>2017-03-10T11:35:29Z</time>
      </trkpt>
      <trkpt lat="46.653499798849225" lon="12.059332598000765">
        <ele>2148.1999999999998</ele>
        <time>2017-03-10T11:35:51Z</time>
      </trkpt>
      <trkpt lat="46.653500385582447" lon="12.059340476989746">
        <ele>2147.7199999999998</ele>
        <time>2017-03-10T11:36:16Z</time>
      </trkpt>
      <trkpt lat="46.653511701151729" lon="12.059330251067877">
        <ele>2147.7199999999998</ele>
        <time>2017-03-10T11:36:41Z</time>
      </trkpt>
      <trkpt lat="46.653518239036202" lon="12.059345254674554">
        <ele>2147.7199999999998</ele>
        <time>2017-03-10T11:37:08Z</time>
      </trkpt>
      <trkpt lat="46.653507174924016" lon="12.059353468939662">
        <ele>2147.2399999999998</ele>
        <time>2017-03-10T11:37:31Z</time>
      </trkpt>
      <trkpt lat="46.653505498543382" lon="12.059320025146008">
        <ele>2146.7600000000002</ele>
        <time>2017-03-10T11:37:58Z</time>
      </trkpt>
      <trkpt lat="46.653514383360744" lon="12.059331340715289">
        <ele>2146.2800000000002</ele>
        <time>2017-03-10T11:38:25Z</time>
      </trkpt>
      <trkpt lat="46.653511114418507" lon="12.059326227754354">
        <ele>2146.7600000000002</ele>
        <time>2017-03-10T11:38:47Z</time>
      </trkpt>
      <trkpt lat="46.653502900153399" lon="12.059322539716959">
        <ele>2146.2800000000002</ele>
        <time>2017-03-10T11:39:11Z</time>
      </trkpt>
      <trkpt lat="46.653512539342046" lon="12.059329077601433">
        <ele>2146.2800000000002</ele>
        <time>2017-03-10T11:39:38Z</time>
      </trkpt>
      <trkpt lat="46.653506336733699" lon="12.059339471161366">
        <ele>2145.8000000000002</ele>
        <time>2017-03-10T11:40:02Z</time>
      </trkpt>
      <trkpt lat="46.653507426381111" lon="12.059348104521632">
        <ele>2145.3200000000002</ele>
        <time>2017-03-10T11:40:25Z</time>
      </trkpt>
      <trkpt lat="46.653511198237538" lon="12.059349110350013">
        <ele>2145.3200000000002</ele>
        <time>2017-03-10T11:40:53Z</time>
      </trkpt>
      <trkpt lat="46.653499798849225" lon="12.059339471161366">
        <ele>2145.8000000000002</ele>
        <time>2017-03-10T11:41:27Z</time>
      </trkpt>
      <trkpt lat="46.653511449694633" lon="12.05934165045619">
        <ele>2145.8000000000002</ele>
        <time>2017-03-10T11:41:51Z</time>
      </trkpt>
      <trkpt lat="46.653512958437204" lon="12.059362856671214">
        <ele>2145.3200000000002</ele>
        <time>2017-03-10T11:42:21Z</time>
      </trkpt>
      <trkpt lat="46.653511365875602" lon="12.059359168633819">
        <ele>2145.8000000000002</ele>
        <time>2017-03-10T11:42:44Z</time>
      </trkpt>
      <trkpt lat="46.653521507978439" lon="12.059345589950681">
        <ele>2146.2800000000002</ele>
        <time>2017-03-10T11:43:08Z</time>
      </trkpt>
      <trkpt lat="46.653523100540042" lon="12.059357073158026">
        <ele>2147.2399999999998</ele>
        <time>2017-03-10T11:43:40Z</time>
      </trkpt>
      <trkpt lat="46.653517400845885" lon="12.059354223310947">
        <ele>2146.2800000000002</ele>
        <time>2017-03-10T11:44:13Z</time>
      </trkpt>
      <trkpt lat="46.653510611504316" lon="12.059347685426474">
        <ele>2146.2800000000002</ele>
        <time>2017-03-10T11:44:48Z</time>
      </trkpt>
      <trkpt lat="46.653513628989458" lon="12.059334274381399">
        <ele>2147.7199999999998</ele>
        <time>2017-03-10T11:45:17Z</time>
      </trkpt>
      <trkpt lat="46.653521759435534" lon="12.059359503909945">
        <ele>2148.1999999999998</ele>
        <time>2017-03-10T11:45:45Z</time>
      </trkpt>
      <trkpt lat="46.653517736122012" lon="12.05935581587255">
        <ele>2145.8000000000002</ele>
        <time>2017-03-10T11:46:18Z</time>
      </trkpt>
      <trkpt lat="46.653520502150059" lon="12.059335196390748">
        <ele>2145.8000000000002</ele>
        <time>2017-03-10T11:46:44Z</time>
      </trkpt>
      <trkpt lat="46.653507677838206" lon="12.059360425919294">
        <ele>2145.3200000000002</ele>
        <time>2017-03-10T11:47:12Z</time>
      </trkpt>
      <trkpt lat="46.653525112196803" lon="12.05935531295836">
        <ele>2145.8000000000002</ele>
        <time>2017-03-10T11:47:40Z</time>
      </trkpt>
      <trkpt lat="46.653521507978439" lon="12.059352211654186">
        <ele>2145.3200000000002</ele>
        <time>2017-03-10T11:48:03Z</time>
      </trkpt>
      <trkpt lat="46.653517317026854" lon="12.059356989338994">
        <ele>2144.8400000000001</ele>
        <time>2017-03-10T11:48:24Z</time>
      </trkpt>
      <trkpt lat="46.653516562655568" lon="12.05934215337038">
        <ele>2143.8800000000001</ele>
        <time>2017-03-10T11:48:58Z</time>
      </trkpt>
      <trkpt lat="46.65350834839046" lon="12.059352463111281">
        <ele>2143.8800000000001</ele>
        <time>2017-03-10T11:49:25Z</time>
      </trkpt>
      <trkpt lat="46.653501056134701" lon="12.059351205825806">
        <ele>2143.4000000000001</ele>
        <time>2017-03-10T11:49:51Z</time>
      </trkpt>
      <trkpt lat="46.653507258743048" lon="12.059345254674554">
        <ele>2143.4000000000001</ele>
        <time>2017-03-10T11:50:12Z</time>
      </trkpt>
      <trkpt lat="46.653515724465251" lon="12.059337627142668">
        <ele>2143.4000000000001</ele>
        <time>2017-03-10T11:50:30Z</time>
      </trkpt>
      <trkpt lat="46.653517987579107" lon="12.059340393170714">
        <ele>2142.9200000000001</ele>
        <time>2017-03-10T11:50:53Z</time>
      </trkpt>
      <trkpt lat="46.653512371703982" lon="12.059338297694921">
        <ele>2143.8800000000001</ele>
        <time>2017-03-10T11:51:22Z</time>
      </trkpt>
      <trkpt lat="46.653514467179775" lon="12.059336369857192">
        <ele>2143.8800000000001</ele>
        <time>2017-03-10T11:51:49Z</time>
      </trkpt>
      <trkpt lat="46.653500720858574" lon="12.059346595779061">
        <ele>2143.4000000000001</ele>
        <time>2017-03-10T11:52:13Z</time>
      </trkpt>
      <trkpt lat="46.653515556827188" lon="12.059347350150347">
        <ele>2143.4000000000001</ele>
        <time>2017-03-10T11:52:41Z</time>
      </trkpt>
      <trkpt lat="46.653534416109324" lon="12.059323964640498">
        <ele>2143.4000000000001</ele>
        <time>2017-03-10T11:53:02Z</time>
      </trkpt>
      <trkpt lat="46.653523268178105" lon="12.059332765638828">
        <ele>2143.4000000000001</ele>
        <time>2017-03-10T11:53:23Z</time>
      </trkpt>
      <trkpt lat="46.653524776920676" lon="12.059351038187742">
        <ele>2143.8800000000001</ele>
        <time>2017-03-10T11:53:46Z</time>
      </trkpt>
      <trkpt lat="46.653519915416837" lon="12.059351457282901">
        <ele>2145.3200000000002</ele>
        <time>2017-03-10T11:54:15Z</time>
      </trkpt>
      <trkpt lat="46.653517400845885" lon="12.059340225532651">
        <ele>2144.3600000000001</ele>
        <time>2017-03-10T11:54:34Z</time>
      </trkpt>
      <trkpt lat="46.653499295935035" lon="12.059363024309278">
        <ele>2144.8400000000001</ele>
        <time>2017-03-10T11:55:01Z</time>
      </trkpt>
      <trkpt lat="46.653513796627522" lon="12.059338884428144">
        <ele>2145.3200000000002</ele>
        <time>2017-03-10T11:55:19Z</time>
      </trkpt>
      <trkpt lat="46.653510024771094" lon="12.059328323230147">
        <ele>2145.3200000000002</ele>
        <time>2017-03-10T11:55:49Z</time>
      </trkpt>
      <trkpt lat="46.65350055322051" lon="12.05935338512063">
        <ele>2144.8400000000001</ele>
        <time>2017-03-10T11:56:18Z</time>
      </trkpt>
      <trkpt lat="46.653505079448223" lon="12.05935338512063">
        <ele>2144.8400000000001</ele>
        <time>2017-03-10T11:56:40Z</time>
      </trkpt>
      <trkpt lat="46.653504408895969" lon="12.059344416484237">
        <ele>2144.3600000000001</ele>
        <time>2017-03-10T11:57:01Z</time>
      </trkpt>
      <trkpt lat="46.653493763878942" lon="12.059362437576056">
        <ele>2143.4000000000001</ele>
        <time>2017-03-10T11:57:30Z</time>
      </trkpt>
      <trkpt lat="46.653500385582447" lon="12.059345506131649">
        <ele>2144.3600000000001</ele>
        <time>2017-03-10T11:57:50Z</time>
      </trkpt>
      <trkpt lat="46.653490830212831" lon="12.059347685426474">
        <ele>2142.9200000000001</ele>
        <time>2017-03-10T11:58:08Z</time>
      </trkpt>
      <trkpt lat="46.653502397239208" lon="12.059356486424804">
        <ele>2143.8800000000001</ele>
        <time>2017-03-10T11:58:21Z</time>
      </trkpt>
      <trkpt lat="46.65351614356041" lon="12.059374591335654">
        <ele>2144.3600000000001</ele>
        <time>2017-03-10T11:58:40Z</time>
      </trkpt>
      <trkpt lat="46.653512539342046" lon="12.059372663497925">
        <ele>2143.4000000000001</ele>
        <time>2017-03-10T11:59:00Z</time>
      </trkpt>
      <trkpt lat="46.653509018942714" lon="12.05937098711729">
        <ele>2143.4000000000001</ele>
        <time>2017-03-10T11:59:23Z</time>
      </trkpt>
      <trkpt lat="46.653508516028523" lon="12.0593670476228">
        <ele>2142.9200000000001</ele>
        <time>2017-03-10T11:59:36Z</time>
      </trkpt>
      <trkpt lat="46.653512120246887" lon="12.059360845014453">
        <ele>2142.9200000000001</ele>
        <time>2017-03-10T11:59:55Z</time>
      </trkpt>
      <trkpt lat="46.653502900153399" lon="12.059357576072216">
        <ele>2143.4000000000001</ele>
        <time>2017-03-10T12:00:22Z</time>
      </trkpt>
      <trkpt lat="46.653513042256236" lon="12.059336202219129">
        <ele>2143.4000000000001</ele>
        <time>2017-03-10T12:00:49Z</time>
      </trkpt>
      <trkpt lat="46.65350784547627" lon="12.059322204440832">
        <ele>2143.4000000000001</ele>
        <time>2017-03-10T12:01:15Z</time>
      </trkpt>
      <trkpt lat="46.653500804677606" lon="12.059350032359362">
        <ele>2144.3600000000001</ele>
        <time>2017-03-10T12:01:43Z</time>
      </trkpt>
      <trkpt lat="46.653514299541712" lon="12.059341734275222">
        <ele>2143.4000000000001</ele>
        <time>2017-03-10T12:02:12Z</time>
      </trkpt>
      <trkpt lat="46.653507174924016" lon="12.059347685426474">
        <ele>2143.4000000000001</ele>
        <time>2017-03-10T12:02:41Z</time>
      </trkpt>
      <trkpt lat="46.653494602069259" lon="12.059351876378059">
        <ele>2142.9200000000001</ele>
        <time>2017-03-10T12:03:18Z</time>
      </trkpt>
      <trkpt lat="46.653485549613833" lon="12.059335615485907">
        <ele>2143.4000000000001</ele>
        <time>2017-03-10T12:03:47Z</time>
      </trkpt>
      <trkpt lat="46.65348588488996" lon="12.059362605214119">
        <ele>2142.9200000000001</ele>
        <time>2017-03-10T12:04:24Z</time>
      </trkpt>
      <trkpt lat="46.653498373925686" lon="12.059346092864871">
        <ele>2142.9200000000001</ele>
        <time>2017-03-10T12:04:55Z</time>
      </trkpt>
      <trkpt lat="46.653505330905318" lon="12.059367215260863">
        <ele>2142.9200000000001</ele>
        <time>2017-03-10T12:05:29Z</time>
      </trkpt>
      <trkpt lat="46.653500134125352" lon="12.059358665719628">
        <ele>2142.4400000000001</ele>
        <time>2017-03-10T12:06:02Z</time>
      </trkpt>
      <trkpt lat="46.653495272621512" lon="12.05935531295836">
        <ele>2142.9200000000001</ele>
        <time>2017-03-10T12:06:30Z</time>
      </trkpt>
      <trkpt lat="46.653472138568759" lon="12.059380291029811">
        <ele>2143.8800000000001</ele>
        <time>2017-03-10T12:06:58Z</time>
      </trkpt>
      <trkpt lat="46.653466606512666" lon="12.059378111734986">
        <ele>2143.8800000000001</ele>
        <time>2017-03-10T12:07:26Z</time>
      </trkpt>
      <trkpt lat="46.653467947617173" lon="12.059324886649847">
        <ele>2144.3600000000001</ele>
        <time>2017-03-10T12:07:55Z</time>
      </trkpt>
      <trkpt lat="46.653469372540712" lon="12.059341734275222">
        <ele>2144.3600000000001</ele>
        <time>2017-03-10T12:08:25Z</time>
      </trkpt>
      <trkpt lat="46.65348001755774" lon="12.059350702911615">
        <ele>2144.3600000000001</ele>
        <time>2017-03-10T12:08:48Z</time>
      </trkpt>
      <trkpt lat="46.653479430824518" lon="12.059372747316957">
        <ele>2144.3600000000001</ele>
        <time>2017-03-10T12:09:17Z</time>
      </trkpt>
      <trkpt lat="46.653477922081947" lon="12.059364952147007">
        <ele>2144.3600000000001</ele>
        <time>2017-03-10T12:09:41Z</time>
      </trkpt>
      <trkpt lat="46.653482029214501" lon="12.059374256059527">
        <ele>2143.8800000000001</ele>
        <time>2017-03-10T12:10:01Z</time>
      </trkpt>
      <trkpt lat="46.653485298156738" lon="12.059380123391747">
        <ele>2143.4000000000001</ele>
        <time>2017-03-10T12:10:28Z</time>
      </trkpt>
      <trkpt lat="46.653472641482949" lon="12.059366209432483">
        <ele>2143.4000000000001</ele>
        <time>2017-03-10T12:10:52Z</time>
      </trkpt>
      <trkpt lat="46.653484627604485" lon="12.059373250231147">
        <ele>2143.4000000000001</ele>
        <time>2017-03-10T12:11:15Z</time>
      </trkpt>
      <trkpt lat="46.653487309813499" lon="12.059370316565037">
        <ele>2143.8800000000001</ele>
        <time>2017-03-10T12:11:45Z</time>
      </trkpt>
      <trkpt lat="46.653487980365753" lon="12.059365706518292">
        <ele>2143.8800000000001</ele>
        <time>2017-03-10T12:12:10Z</time>
      </trkpt>
      <trkpt lat="46.653489405289292" lon="12.059351289644837">
        <ele>2144.3600000000001</ele>
        <time>2017-03-10T12:12:41Z</time>
      </trkpt>
      <trkpt lat="46.653498457744718" lon="12.059353888034821">
        <ele>2145.3200000000002</ele>
        <time>2017-03-10T12:12:57Z</time>
      </trkpt>
      <trkpt lat="46.653491333127022" lon="12.059383308514953">
        <ele>2145.3200000000002</ele>
        <time>2017-03-10T12:13:09Z</time>
      </trkpt>
      <trkpt lat="46.65347364731133" lon="12.059438042342663">
        <ele>2144.8400000000001</ele>
        <time>2017-03-10T12:13:30Z</time>
      </trkpt>
      <trkpt lat="46.653476245701313" lon="12.059453884139657">
        <ele>2144.3600000000001</ele>
        <time>2017-03-10T12:13:44Z</time>
      </trkpt>
      <trkpt lat="46.653499295935035" lon="12.059453632682562">
        <ele>2144.3600000000001</ele>
        <time>2017-03-10T12:13:58Z</time>
      </trkpt>
      <trkpt lat="46.65351128205657" lon="12.059446256607771">
        <ele>2144.3600000000001</ele>
        <time>2017-03-10T12:14:44Z</time>
      </trkpt>
      <trkpt lat="46.653512958437204" lon="12.059443406760693">
        <ele>2143.8800000000001</ele>
        <time>2017-03-10T12:15:25Z</time>
      </trkpt>
      <trkpt lat="46.653506085276604" lon="12.059446508064866">
        <ele>2144.3600000000001</ele>
        <time>2017-03-10T12:16:04Z</time>
      </trkpt>
      <trkpt lat="46.653507510200143" lon="12.059442903846502">
        <ele>2143.8800000000001</ele>
        <time>2017-03-10T12:16:44Z</time>
      </trkpt>
      <trkpt lat="46.65349904447794" lon="12.059446424245834">
        <ele>2143.8800000000001</ele>
        <time>2017-03-10T12:17:20Z</time>
      </trkpt>
      <trkpt lat="46.653508432209492" lon="12.059441562741995">
        <ele>2144.3600000000001</ele>
        <time>2017-03-10T12:17:58Z</time>
      </trkpt>
      <trkpt lat="46.653494099155068" lon="12.059430330991745">
        <ele>2143.4000000000001</ele>
        <time>2017-03-10T12:18:43Z</time>
      </trkpt>
      <trkpt lat="46.653504241257906" lon="12.059437707066536">
        <ele>2143.4000000000001</ele>
        <time>2017-03-10T12:19:25Z</time>
      </trkpt>
      <trkpt lat="46.653511701151729" lon="12.059435779228806">
        <ele>2144.3600000000001</ele>
        <time>2017-03-10T12:20:06Z</time>
      </trkpt>
      <trkpt lat="46.653510024771094" lon="12.059433599933982">
        <ele>2144.3600000000001</ele>
        <time>2017-03-10T12:20:43Z</time>
      </trkpt>
      <trkpt lat="46.653509438037872" lon="12.059435024857521">
        <ele>2144.3600000000001</ele>
        <time>2017-03-10T12:21:14Z</time>
      </trkpt>
      <trkpt lat="46.653514048084617" lon="12.05943544395268">
        <ele>2144.3600000000001</ele>
        <time>2017-03-10T12:21:55Z</time>
      </trkpt>
      <trkpt lat="46.653507929295301" lon="12.059433935210109">
        <ele>2144.8400000000001</ele>
        <time>2017-03-10T12:22:26Z</time>
      </trkpt>
      <trkpt lat="46.653504576534033" lon="12.059442736208439">
        <ele>2146.2800000000002</ele>
        <time>2017-03-10T12:23:11Z</time>
      </trkpt>
      <trkpt lat="46.653512455523014" lon="12.059438461437821">
        <ele>2145.3200000000002</ele>
        <time>2017-03-10T12:23:45Z</time>
      </trkpt>
      <trkpt lat="46.653511533513665" lon="12.059442652389407">
        <ele>2145.8000000000002</ele>
        <time>2017-03-10T12:24:15Z</time>
      </trkpt>
      <trkpt lat="46.653516897931695" lon="12.059440892189741">
        <ele>2145.3200000000002</ele>
        <time>2017-03-10T12:24:52Z</time>
      </trkpt>
      <trkpt lat="46.653516981750727" lon="12.059443742036819">
        <ele>2144.8400000000001</ele>
        <time>2017-03-10T12:25:29Z</time>
      </trkpt>
      <trkpt lat="46.653501726686954" lon="12.059440137818456">
        <ele>2144.3600000000001</ele>
        <time>2017-03-10T12:26:00Z</time>
      </trkpt>
      <trkpt lat="46.653506252914667" lon="12.05943644978106">
        <ele>2144.8400000000001</ele>
        <time>2017-03-10T12:26:21Z</time>
      </trkpt>
      <trkpt lat="46.653505666181445" lon="12.059439886361361">
        <ele>2145.3200000000002</ele>
        <time>2017-03-10T12:26:57Z</time>
      </trkpt>
      <trkpt lat="46.653503067791462" lon="12.059442987665534">
        <ele>2144.8400000000001</ele>
        <time>2017-03-10T12:27:39Z</time>
      </trkpt>
      <trkpt lat="46.653505247086287" lon="12.059435527771711">
        <ele>2144.8400000000001</ele>
        <time>2017-03-10T12:28:12Z</time>
      </trkpt>
      <trkpt lat="46.653501391410828" lon="12.059435527771711">
        <ele>2145.3200000000002</ele>
        <time>2017-03-10T12:28:51Z</time>
      </trkpt>
      <trkpt lat="46.65350491181016" lon="12.059440389275551">
        <ele>2145.3200000000002</ele>
        <time>2017-03-10T12:29:11Z</time>
      </trkpt>
      <trkpt lat="46.653511198237538" lon="12.059425050392747">
        <ele>2144.8400000000001</ele>
        <time>2017-03-10T12:29:25Z</time>
      </trkpt>
      <trkpt lat="46.653491584584117" lon="12.059427313506603">
        <ele>2145.3200000000002</ele>
        <time>2017-03-10T12:29:59Z</time>
      </trkpt>
      <trkpt lat="46.653503989800811" lon="12.059426894411445">
        <ele>2144.8400000000001</ele>
        <time>2017-03-10T12:30:33Z</time>
      </trkpt>
      <trkpt lat="46.65350298397243" lon="12.05942764878273">
        <ele>2144.8400000000001</ele>
        <time>2017-03-10T12:31:03Z</time>
      </trkpt>
      <trkpt lat="46.65350055322051" lon="12.05942178145051">
        <ele>2144.8400000000001</ele>
        <time>2017-03-10T12:31:24Z</time>
      </trkpt>
      <trkpt lat="46.653499463573098" lon="12.059435024857521">
        <ele>2144.8400000000001</ele>
        <time>2017-03-10T12:31:49Z</time>
      </trkpt>
      <trkpt lat="46.653500469401479" lon="12.059432761743665">
        <ele>2144.8400000000001</ele>
        <time>2017-03-10T12:31:59Z</time>
      </trkpt>
      <trkpt lat="46.65350491181016" lon="12.059440976008773">
        <ele>2144.8400000000001</ele>
        <time>2017-03-10T12:32:17Z</time>
      </trkpt>
      <trkpt lat="46.653503570705652" lon="12.059445753693581">
        <ele>2144.8400000000001</ele>
        <time>2017-03-10T12:32:42Z</time>
      </trkpt>
      <trkpt lat="46.653499295935035" lon="12.05942521803081">
        <ele>2144.3600000000001</ele>
        <time>2017-03-10T12:33:15Z</time>
      </trkpt>
      <trkpt lat="46.653503989800811" lon="12.059425301849842">
        <ele>2144.3600000000001</ele>
        <time>2017-03-10T12:33:43Z</time>
      </trkpt>
      <trkpt lat="46.653503235429525" lon="12.059425134211779">
        <ele>2144.3600000000001</ele>
        <time>2017-03-10T12:34:14Z</time>
      </trkpt>
      <trkpt lat="46.653497200459242" lon="12.059435108676553">
        <ele>2143.8800000000001</ele>
        <time>2017-03-10T12:34:43Z</time>
      </trkpt>
      <trkpt lat="46.653490494936705" lon="12.059428319334984">
        <ele>2144.8400000000001</ele>
        <time>2017-03-10T12:35:10Z</time>
      </trkpt>
      <trkpt lat="46.653497787192464" lon="12.059429408982396">
        <ele>2144.3600000000001</ele>
        <time>2017-03-10T12:35:38Z</time>
      </trkpt>
      <trkpt lat="46.653501642867923" lon="12.059431672096252">
        <ele>2143.8800000000001</ele>
        <time>2017-03-10T12:36:11Z</time>
      </trkpt>
      <trkpt lat="46.65350491181016" lon="12.059440221637487">
        <ele>2144.3600000000001</ele>
        <time>2017-03-10T12:36:34Z</time>
      </trkpt>
      <trkpt lat="46.653499966487288" lon="12.059437287971377">
        <ele>2144.3600000000001</ele>
        <time>2017-03-10T12:37:04Z</time>
      </trkpt>
      <trkpt lat="46.653489824384451" lon="12.05943644978106">
        <ele>2144.8400000000001</ele>
        <time>2017-03-10T12:37:33Z</time>
      </trkpt>
      <trkpt lat="46.653489237651229" lon="12.059422535821795">
        <ele>2144.8400000000001</ele>
        <time>2017-03-10T12:37:54Z</time>
      </trkpt>
      <trkpt lat="46.653522178530693" lon="12.059438545256853">
        <ele>2144.8400000000001</ele>
        <time>2017-03-10T12:38:20Z</time>
      </trkpt>
      <trkpt lat="46.653527207672596" lon="12.059429325163364">
        <ele>2145.3200000000002</ele>
        <time>2017-03-10T12:38:47Z</time>
      </trkpt>
      <trkpt lat="46.653526788577437" lon="12.059431504458189">
        <ele>2144.3600000000001</ele>
        <time>2017-03-10T12:39:19Z</time>
      </trkpt>
      <trkpt lat="46.653518825769424" lon="12.059462098404765">
        <ele>2144.8400000000001</ele>
        <time>2017-03-10T12:39:26Z</time>
      </trkpt>
      <trkpt lat="46.653526034206152" lon="12.059514401480556">
        <ele>2143.8800000000001</ele>
        <time>2017-03-10T12:39:37Z</time>
      </trkpt>
      <trkpt lat="46.653525866568089" lon="12.059522196650505">
        <ele>2143.8800000000001</ele>
        <time>2017-03-10T12:39:47Z</time>
      </trkpt>
      <trkpt lat="46.653553945943713" lon="12.059535691514611">
        <ele>2143.8800000000001</ele>
        <time>2017-03-10T12:40:00Z</time>
      </trkpt>
      <trkpt lat="46.653578588739038" lon="12.059573912993073">
        <ele>2143.4000000000001</ele>
        <time>2017-03-10T12:40:11Z</time>
      </trkpt>
      <trkpt lat="46.653581857681274" lon="12.059552790597081">
        <ele>2144.3600000000001</ele>
        <time>2017-03-10T12:40:29Z</time>
      </trkpt>
      <trkpt lat="46.6535909101367" lon="12.059598891064525">
        <ele>2143.8800000000001</ele>
        <time>2017-03-10T12:40:51Z</time>
      </trkpt>
      <trkpt lat="46.653588227927685" lon="12.0595742482692">
        <ele>2143.4000000000001</ele>
        <time>2017-03-10T12:41:13Z</time>
      </trkpt>
      <trkpt lat="46.653573559597135" lon="12.059572320431471">
        <ele>2143.8800000000001</ele>
        <time>2017-03-10T12:41:22Z</time>
      </trkpt>
      <trkpt lat="46.653564674779773" lon="12.059573158621788">
        <ele>2144.3600000000001</ele>
        <time>2017-03-10T12:41:32Z</time>
      </trkpt>
      <trkpt lat="46.653580935671926" lon="12.05954298377037">
        <ele>2144.3600000000001</ele>
        <time>2017-03-10T12:41:48Z</time>
      </trkpt>
      <trkpt lat="46.653618654236197" lon="12.059566536918283">
        <ele>2144.3600000000001</ele>
        <time>2017-03-10T12:42:03Z</time>
      </trkpt>
      <trkpt lat="46.653638938441873" lon="12.059597717598081">
        <ele>2144.8400000000001</ele>
        <time>2017-03-10T12:42:07Z</time>
      </trkpt>
      <trkpt lat="46.653638016432524" lon="12.05963090993464">
        <ele>2144.3600000000001</ele>
        <time>2017-03-10T12:42:11Z</time>
      </trkpt>
      <trkpt lat="46.653548581525683" lon="12.059650691226125">
        <ele>2143.4000000000001</ele>
        <time>2017-03-10T12:42:22Z</time>
      </trkpt>
      <trkpt lat="46.653548330068588" lon="12.05964608117938">
        <ele>2143.4000000000001</ele>
        <time>2017-03-10T12:42:37Z</time>
      </trkpt>
      <trkpt lat="46.653531398624182" lon="12.059624623507261">
        <ele>2142.9200000000001</ele>
        <time>2017-03-10T12:42:53Z</time>
      </trkpt>
      <trkpt lat="46.653529303148389" lon="12.059712549671531">
        <ele>2142.9200000000001</ele>
        <time>2017-03-10T12:42:59Z</time>
      </trkpt>
      <trkpt lat="46.653514802455902" lon="12.059715399518609">
        <ele>2142.9200000000001</ele>
        <time>2017-03-10T12:43:07Z</time>
      </trkpt>
      <trkpt lat="46.653521088883281" lon="12.05971204675734">
        <ele>2142.9200000000001</ele>
        <time>2017-03-10T12:43:11Z</time>
      </trkpt>
      <trkpt lat="46.653538858518004" lon="12.059758650138974">
        <ele>2141.9499999999998</ele>
        <time>2017-03-10T12:43:14Z</time>
      </trkpt>
      <trkpt lat="46.653539864346385" lon="12.059804080054164">
        <ele>2142.4400000000001</ele>
        <time>2017-03-10T12:43:22Z</time>
      </trkpt>
      <trkpt lat="46.653575990349054" lon="12.0597452390939">
        <ele>2143.4000000000001</ele>
        <time>2017-03-10T12:43:29Z</time>
      </trkpt>
      <trkpt lat="46.653570206835866" lon="12.059746161103249">
        <ele>2143.4000000000001</ele>
        <time>2017-03-10T12:43:30Z</time>
      </trkpt>
      <trkpt lat="46.65355721488595" lon="12.059752028435469">
        <ele>2142.9200000000001</ele>
        <time>2017-03-10T12:43:31Z</time>
      </trkpt>
      <trkpt lat="46.653480185195804" lon="12.059716321527958">
        <ele>2142.4400000000001</ele>
        <time>2017-03-10T12:43:39Z</time>
      </trkpt>
      <trkpt lat="46.65345118381083" lon="12.059681285172701">
        <ele>2142.4400000000001</ele>
        <time>2017-03-10T12:43:43Z</time>
      </trkpt>
      <trkpt lat="46.653511198237538" lon="12.059664269909263">
        <ele>2142.9200000000001</ele>
        <time>2017-03-10T12:43:51Z</time>
      </trkpt>
      <trkpt lat="46.65354791097343" lon="12.059681117534637">
        <ele>2143.4000000000001</ele>
        <time>2017-03-10T12:43:59Z</time>
      </trkpt>
      <trkpt lat="46.653529722243547" lon="12.059687823057175">
        <ele>2142.9200000000001</ele>
        <time>2017-03-10T12:44:03Z</time>
      </trkpt>
      <trkpt lat="46.65347901172936" lon="12.059786729514599">
        <ele>2141.9499999999998</ele>
        <time>2017-03-10T12:44:13Z</time>
      </trkpt>
      <trkpt lat="46.653471384197474" lon="12.059781029820442">
        <ele>2141.4699999999998</ele>
        <time>2017-03-10T12:44:14Z</time>
      </trkpt>
      <trkpt lat="46.653460236266255" lon="12.059746999293566">
        <ele>2141.4699999999998</ele>
        <time>2017-03-10T12:44:25Z</time>
      </trkpt>
      <trkpt lat="46.653461661189795" lon="12.059739287942648">
        <ele>2141.4699999999998</ele>
        <time>2017-03-10T12:44:29Z</time>
      </trkpt>
      <trkpt lat="46.65347607806325" lon="12.059819083660841">
        <ele>2141.4699999999998</ele>
        <time>2017-03-10T12:44:38Z</time>
      </trkpt>
      <trkpt lat="46.653467612341046" lon="12.059781365096569">
        <ele>2140.9899999999998</ele>
        <time>2017-03-10T12:44:56Z</time>
      </trkpt>
      <trkpt lat="46.653471468016505" lon="12.059755129739642">
        <ele>2140.9899999999998</ele>
        <time>2017-03-10T12:45:05Z</time>
      </trkpt>
      <trkpt lat="46.653464930132031" lon="12.059771977365017">
        <ele>2141.4699999999998</ele>
        <time>2017-03-10T12:45:19Z</time>
      </trkpt>
      <trkpt lat="46.65347021073103" lon="12.059762086719275">
        <ele>2140.9899999999998</ele>
        <time>2017-03-10T12:45:31Z</time>
      </trkpt>
      <trkpt lat="46.653444478288293" lon="12.059837020933628">
        <ele>2140.5100000000002</ele>
        <time>2017-03-10T12:45:39Z</time>
      </trkpt>
      <trkpt lat="46.653448669239879" lon="12.059861496090889">
        <ele>2140.5100000000002</ele>
        <time>2017-03-10T12:45:47Z</time>
      </trkpt>
      <trkpt lat="46.653426541015506" lon="12.059847246855497">
        <ele>2140.5100000000002</ele>
        <time>2017-03-10T12:45:59Z</time>
      </trkpt>
      <trkpt lat="46.65341405197978" lon="12.059833416715264">
        <ele>2139.5500000000002</ele>
        <time>2017-03-10T12:46:06Z</time>
      </trkpt>
      <trkpt lat="46.653415309265256" lon="12.05982344225049">
        <ele>2140.5100000000002</ele>
        <time>2017-03-10T12:46:11Z</time>
      </trkpt>
      <trkpt lat="46.653412207961082" lon="12.059886557981372">
        <ele>2138.5900000000001</ele>
        <time>2017-03-10T12:46:19Z</time>
      </trkpt>
      <trkpt lat="46.653399635106325" lon="12.059879349544644">
        <ele>2140.0300000000002</ele>
        <time>2017-03-10T12:46:28Z</time>
      </trkpt>
      <trkpt lat="46.653389660641551" lon="12.059864345937967">
        <ele>2139.5500000000002</ele>
        <time>2017-03-10T12:46:47Z</time>
      </trkpt>
      <trkpt lat="46.653386307880282" lon="12.059866609051824">
        <ele>2139.5500000000002</ele>
        <time>2017-03-10T12:46:56Z</time>
      </trkpt>
      <trkpt lat="46.6533871460706" lon="12.059872224926949">
        <ele>2139.0700000000002</ele>
        <time>2017-03-10T12:47:12Z</time>
      </trkpt>
      <trkpt lat="46.653390498831868" lon="12.059868704527617">
        <ele>2139.5500000000002</ele>
        <time>2017-03-10T12:47:21Z</time>
      </trkpt>
      <trkpt lat="46.6533905826509" lon="12.059857891872525">
        <ele>2140.0300000000002</ele>
        <time>2017-03-10T12:47:29Z</time>
      </trkpt>
      <trkpt lat="46.653391420841217" lon="12.059846743941307">
        <ele>2140.5100000000002</ele>
        <time>2017-03-10T12:47:38Z</time>
      </trkpt>
      <trkpt lat="46.653389073908329" lon="12.0598522759974">
        <ele>2140.0300000000002</ele>
        <time>2017-03-10T12:47:46Z</time>
      </trkpt>
      <trkpt lat="46.653386224061251" lon="12.059878259897232">
        <ele>2139.5500000000002</ele>
        <time>2017-03-10T12:47:57Z</time>
      </trkpt>
      <trkpt lat="46.653368789702654" lon="12.059854287654161">
        <ele>2140.0300000000002</ele>
        <time>2017-03-10T12:48:16Z</time>
      </trkpt>
      <trkpt lat="46.653396198526025" lon="12.059838781133294">
        <ele>2140.0300000000002</ele>
        <time>2017-03-10T12:48:35Z</time>
      </trkpt>
      <trkpt lat="46.653419500216842" lon="12.05982537008822">
        <ele>2140.0300000000002</ele>
        <time>2017-03-10T12:48:37Z</time>
      </trkpt>
      <trkpt lat="46.653445484116673" lon="12.059850264340639">
        <ele>2140.0300000000002</ele>
        <time>2017-03-10T12:48:39Z</time>
      </trkpt>
      <trkpt lat="46.653477838262916" lon="12.059861915186048">
        <ele>2140.0300000000002</ele>
        <time>2017-03-10T12:48:42Z</time>
      </trkpt>
      <trkpt lat="46.653491165488958" lon="12.059836266562343">
        <ele>2141.4699999999998</ele>
        <time>2017-03-10T12:48:44Z</time>
      </trkpt>
      <trkpt lat="46.653504241257906" lon="12.059816988185048">
        <ele>2142.4400000000001</ele>
        <time>2017-03-10T12:48:46Z</time>
      </trkpt>
      <trkpt lat="46.653514467179775" lon="12.059798128902912">
        <ele>2141.4699999999998</ele>
        <time>2017-03-10T12:48:48Z</time>
      </trkpt>
      <trkpt lat="46.653526788577437" lon="12.059781029820442">
        <ele>2140.9899999999998</ele>
        <time>2017-03-10T12:48:50Z</time>
      </trkpt>
      <trkpt lat="46.653541289269924" lon="12.05979653634131">
        <ele>2141.4699999999998</ele>
        <time>2017-03-10T12:48:59Z</time>
      </trkpt>
      <trkpt lat="46.653500888496637" lon="12.059814305976033">
        <ele>2141.4699999999998</ele>
        <time>2017-03-10T12:49:10Z</time>
      </trkpt>
      <trkpt lat="46.653475239872932" lon="12.059850767254829">
        <ele>2141.4699999999998</ele>
        <time>2017-03-10T12:49:18Z</time>
      </trkpt>
      <trkpt lat="46.653430899605155" lon="12.059870967641473">
        <ele>2140.5100000000002</ele>
        <time>2017-03-10T12:49:25Z</time>
      </trkpt>
      <trkpt lat="46.653418494388461" lon="12.05988253466785">
        <ele>2140.5100000000002</ele>
        <time>2017-03-10T12:49:27Z</time>
      </trkpt>
      <trkpt lat="46.653409609571099" lon="12.059901980683208">
        <ele>2140.0300000000002</ele>
        <time>2017-03-10T12:49:29Z</time>
      </trkpt>
      <trkpt lat="46.653320677578449" lon="12.059963252395391">
        <ele>2140.5100000000002</ele>
        <time>2017-03-10T12:49:39Z</time>
      </trkpt>
      <trkpt lat="46.65321665816009" lon="12.060033576563001">
        <ele>2139.5500000000002</ele>
        <time>2017-03-10T12:49:50Z</time>
      </trkpt>
      <trkpt lat="46.653144909068942" lon="12.060088226571679">
        <ele>2138.5900000000001</ele>
        <time>2017-03-10T12:50:00Z</time>
      </trkpt>
      <trkpt lat="46.653057569637895" lon="12.060160310938954">
        <ele>2138.1100000000001</ele>
        <time>2017-03-10T12:50:12Z</time>
      </trkpt>
      <trkpt lat="46.652961261570454" lon="12.060229545459151">
        <ele>2138.1100000000001</ele>
        <time>2017-03-10T12:50:23Z</time>
      </trkpt>
      <trkpt lat="46.652885992079973" lon="12.060292409732938">
        <ele>2138.5900000000001</ele>
        <time>2017-03-10T12:50:33Z</time>
      </trkpt>
      <trkpt lat="46.652791611850262" lon="12.060356698930264">
        <ele>2138.1100000000001</ele>
        <time>2017-03-10T12:50:44Z</time>
      </trkpt>
      <trkpt lat="46.652779961004853" lon="12.060367176309228">
        <ele>2138.1100000000001</ele>
        <time>2017-03-10T12:50:46Z</time>
      </trkpt>
      <trkpt lat="46.652766047045588" lon="12.060383101925254">
        <ele>2135.71</ele>
        <time>2017-03-10T12:50:48Z</time>
      </trkpt>
      <trkpt lat="46.652710726484656" lon="12.060425095260143">
        <ele>2137.1500000000001</ele>
        <time>2017-03-10T12:50:54Z</time>
      </trkpt>
      <trkpt lat="46.652604024857283" lon="12.060496173799038">
        <ele>2137.1500000000001</ele>
        <time>2017-03-10T12:51:05Z</time>
      </trkpt>
      <trkpt lat="46.652525402605534" lon="12.060556774958968">
        <ele>2137.1500000000001</ele>
        <time>2017-03-10T12:51:14Z</time>
      </trkpt>
      <trkpt lat="46.652506040409207" lon="12.060572532936931">
        <ele>2137.1500000000001</ele>
        <time>2017-03-10T12:51:16Z</time>
      </trkpt>
      <trkpt lat="46.652433034032583" lon="12.060627518221736">
        <ele>2137.1500000000001</ele>
        <time>2017-03-10T12:51:24Z</time>
      </trkpt>
      <trkpt lat="46.652334630489349" lon="12.060691304504871">
        <ele>2136.6700000000001</ele>
        <time>2017-03-10T12:51:34Z</time>
      </trkpt>
      <trkpt lat="46.652234718203545" lon="12.060762466862798">
        <ele>2136.6700000000001</ele>
        <time>2017-03-10T12:51:45Z</time>
      </trkpt>
      <trkpt lat="46.652128268033266" lon="12.06082365475595">
        <ele>2136.1900000000001</ele>
        <time>2017-03-10T12:51:56Z</time>
      </trkpt>
      <trkpt lat="46.651993067935109" lon="12.060935636982322">
        <ele>2136.6700000000001</ele>
        <time>2017-03-10T12:52:12Z</time>
      </trkpt>
      <trkpt lat="46.65187044069171" lon="12.061037309467793">
        <ele>2136.1900000000001</ele>
        <time>2017-03-10T12:52:26Z</time>
      </trkpt>
      <trkpt lat="46.65173415094614" lon="12.061136132106185">
        <ele>2136.6700000000001</ele>
        <time>2017-03-10T12:52:41Z</time>
      </trkpt>
      <trkpt lat="46.651632562279701" lon="12.061207629740238">
        <ele>2135.71</ele>
        <time>2017-03-10T12:52:53Z</time>
      </trkpt>
      <trkpt lat="46.65152451954782" lon="12.061301087960601">
        <ele>2135.23</ele>
        <time>2017-03-10T12:53:05Z</time>
      </trkpt>
      <trkpt lat="46.651432989165187" lon="12.061389097943902">
        <ele>2135.71</ele>
        <time>2017-03-10T12:53:16Z</time>
      </trkpt>
      <trkpt lat="46.651355037465692" lon="12.061460679396987">
        <ele>2135.23</ele>
        <time>2017-03-10T12:53:25Z</time>
      </trkpt>
      <trkpt lat="46.651269290596247" lon="12.061533937230706">
        <ele>2135.23</ele>
        <time>2017-03-10T12:53:35Z</time>
      </trkpt>
      <trkpt lat="46.651217490434647" lon="12.061577523127198">
        <ele>2135.23</ele>
        <time>2017-03-10T12:53:40Z</time>
      </trkpt>
      <trkpt lat="46.651165271177888" lon="12.061628317460418">
        <ele>2134.7399999999998</ele>
        <time>2017-03-10T12:53:46Z</time>
      </trkpt>
      <trkpt lat="46.651044739410281" lon="12.061724541708827">
        <ele>2134.7399999999998</ele>
        <time>2017-03-10T12:53:58Z</time>
      </trkpt>
      <trkpt lat="46.650979947298765" lon="12.06176770851016">
        <ele>2134.7399999999998</ele>
        <time>2017-03-10T12:54:04Z</time>
      </trkpt>
      <trkpt lat="46.650899816304445" lon="12.061845324933529">
        <ele>2133.7800000000002</ele>
        <time>2017-03-10T12:54:13Z</time>
      </trkpt>
      <trkpt lat="46.650860169902444" lon="12.061871308833361">
        <ele>2133.7800000000002</ele>
        <time>2017-03-10T12:54:17Z</time>
      </trkpt>
      <trkpt lat="46.650801161304116" lon="12.061915313825011">
        <ele>2134.2600000000002</ele>
        <time>2017-03-10T12:54:23Z</time>
      </trkpt>
      <trkpt lat="46.650765705853701" lon="12.061954457312822">
        <ele>2134.2600000000002</ele>
        <time>2017-03-10T12:54:27Z</time>
      </trkpt>
      <trkpt lat="46.650695633143187" lon="12.061986057087779">
        <ele>2134.2600000000002</ele>
        <time>2017-03-10T12:54:34Z</time>
      </trkpt>
      <trkpt lat="46.650596810504794" lon="12.062055543065071">
        <ele>2134.7399999999998</ele>
        <time>2017-03-10T12:54:44Z</time>
      </trkpt>
      <trkpt lat="46.650575855746865" lon="12.062067529186606">
        <ele>2134.7399999999998</ele>
        <time>2017-03-10T12:54:46Z</time>
      </trkpt>
      <trkpt lat="46.65047544054687" lon="12.062134835869074">
        <ele>2135.23</ele>
        <time>2017-03-10T12:54:56Z</time>
      </trkpt>
      <trkpt lat="46.650447361171246" lon="12.062148582190275">
        <ele>2135.71</ele>
        <time>2017-03-10T12:54:59Z</time>
      </trkpt>
      <trkpt lat="46.650353483855724" lon="12.062155371531844">
        <ele>2136.1900000000001</ele>
        <time>2017-03-10T12:55:08Z</time>
      </trkpt>
      <trkpt lat="46.650331942364573" lon="12.06214246340096">
        <ele>2136.1900000000001</ele>
        <time>2017-03-10T12:55:11Z</time>
      </trkpt>
      <trkpt lat="46.650313083082438" lon="12.062150007113814">
        <ele>2135.71</ele>
        <time>2017-03-10T12:55:13Z</time>
      </trkpt>
      <trkpt lat="46.650223480537534" lon="12.062112959101796">
        <ele>2136.1900000000001</ele>
        <time>2017-03-10T12:55:23Z</time>
      </trkpt>
      <trkpt lat="46.650209985673428" lon="12.062099631875753">
        <ele>2136.6700000000001</ele>
        <time>2017-03-10T12:55:25Z</time>
      </trkpt>
      <trkpt lat="46.650197328999639" lon="12.062070965766907">
        <ele>2138.1100000000001</ele>
        <time>2017-03-10T12:55:31Z</time>
      </trkpt>
      <trkpt lat="46.650177799165249" lon="12.06205009482801">
        <ele>2136.1900000000001</ele>
        <time>2017-03-10T12:55:34Z</time>
      </trkpt>
      <trkpt lat="46.650169836357236" lon="12.062046071514487">
        <ele>2135.71</ele>
        <time>2017-03-10T12:55:45Z</time>
      </trkpt>
      <trkpt lat="46.650164555758238" lon="12.06204473040998">
        <ele>2134.2600000000002</ele>
        <time>2017-03-10T12:55:55Z</time>
      </trkpt>
      <trkpt lat="46.650188276544213" lon="12.062057387083769">
        <ele>2135.23</ele>
        <time>2017-03-10T12:56:03Z</time>
      </trkpt>
      <trkpt lat="46.650214930996299" lon="12.062071384862065">
        <ele>2134.7399999999998</ele>
        <time>2017-03-10T12:56:06Z</time>
      </trkpt>
      <trkpt lat="46.650226330384612" lon="12.062198035418987">
        <ele>2136.6700000000001</ele>
        <time>2017-03-10T12:56:17Z</time>
      </trkpt>
      <trkpt lat="46.650238987058401" lon="12.062253188341856">
        <ele>2132.8200000000002</ele>
        <time>2017-03-10T12:56:25Z</time>
      </trkpt>
      <trkpt lat="46.650261618196964" lon="12.062322422862053">
        <ele>2135.23</ele>
        <time>2017-03-10T12:56:32Z</time>
      </trkpt>
      <trkpt lat="46.650259606540203" lon="12.062368942424655">
        <ele>2134.2600000000002</ele>
        <time>2017-03-10T12:56:34Z</time>
      </trkpt>
      <trkpt lat="46.650218535214663" lon="12.062424430623651">
        <ele>2130.9000000000001</ele>
        <time>2017-03-10T12:56:39Z</time>
      </trkpt>
      <trkpt lat="46.650177044793963" lon="12.062423760071397">
        <ele>2128.98</ele>
        <time>2017-03-10T12:56:43Z</time>
      </trkpt>
      <trkpt lat="46.650166232138872" lon="12.06242686137557">
        <ele>2128.5</ele>
        <time>2017-03-10T12:56:44Z</time>
      </trkpt>
      <trkpt lat="46.650058776140213" lon="12.062336588278413">
        <ele>2125.6100000000001</ele>
        <time>2017-03-10T12:56:55Z</time>
      </trkpt>
      <trkpt lat="46.649958277121186" lon="12.06223432905972">
        <ele>2123.6900000000001</ele>
        <time>2017-03-10T12:57:05Z</time>
      </trkpt>
      <trkpt lat="46.649935645982623" lon="12.062221253290772">
        <ele>2122.25</ele>
        <time>2017-03-10T12:57:07Z</time>
      </trkpt>
      <trkpt lat="46.649835733696818" lon="12.062273640185595">
        <ele>2121.29</ele>
        <time>2017-03-10T12:57:16Z</time>
      </trkpt>
      <trkpt lat="46.649815533310175" lon="12.06230859272182">
        <ele>2119.8400000000001</ele>
        <time>2017-03-10T12:57:19Z</time>
      </trkpt>
      <trkpt lat="46.649759206920862" lon="12.062431639060378">
        <ele>2120.8099999999999</ele>
        <time>2017-03-10T12:57:28Z</time>
      </trkpt>
      <trkpt lat="46.649670358747244" lon="12.062555104494095">
        <ele>2117.9200000000001</ele>
        <time>2017-03-10T12:57:38Z</time>
      </trkpt>
      <trkpt lat="46.64955192245543" lon="12.062577735632658">
        <ele>2116.48</ele>
        <time>2017-03-10T12:57:47Z</time>
      </trkpt>
      <trkpt lat="46.649485621601343" lon="12.06257195211947">
        <ele>2115.52</ele>
        <time>2017-03-10T12:57:53Z</time>
      </trkpt>
      <trkpt lat="46.649438850581646" lon="12.062560049816966">
        <ele>2114.5599999999999</ele>
        <time>2017-03-10T12:57:58Z</time>
      </trkpt>
      <trkpt lat="46.649307254701853" lon="12.06248989328742">
        <ele>2111.6700000000001</ele>
        <time>2017-03-10T12:58:10Z</time>
      </trkpt>
      <trkpt lat="46.649201642721891" lon="12.062444547191262">
        <ele>2109.75</ele>
        <time>2017-03-10T12:58:19Z</time>
      </trkpt>
      <trkpt lat="46.649141628295183" lon="12.06241856329143">
        <ele>2107.8299999999999</ele>
        <time>2017-03-10T12:58:25Z</time>
      </trkpt>
      <trkpt lat="46.649092007428408" lon="12.062354106456041">
        <ele>2106.8699999999999</ele>
        <time>2017-03-10T12:58:31Z</time>
      </trkpt>
      <trkpt lat="46.649034759029746" lon="12.062182864174247">
        <ele>2106.3899999999999</ele>
        <time>2017-03-10T12:58:43Z</time>
      </trkpt>
      <trkpt lat="46.648965105414391" lon="12.062047077342868">
        <ele>2106.8699999999999</ele>
        <time>2017-03-10T12:58:54Z</time>
      </trkpt>
      <trkpt lat="46.64891573600471" lon="12.061918415129185">
        <ele>2106.3899999999999</ele>
        <time>2017-03-10T12:59:04Z</time>
      </trkpt>
      <trkpt lat="46.648901486769319" lon="12.061861585825682">
        <ele>2106.3899999999999</ele>
        <time>2017-03-10T12:59:08Z</time>
      </trkpt>
      <trkpt lat="46.648862930014729" lon="12.061707191169262">
        <ele>2105.9099999999999</ele>
        <time>2017-03-10T12:59:19Z</time>
      </trkpt>
      <trkpt lat="46.64882579818368" lon="12.061559921130538">
        <ele>2105.9099999999999</ele>
        <time>2017-03-10T12:59:30Z</time>
      </trkpt>
      <trkpt lat="46.648827726021409" lon="12.061413992196321">
        <ele>2105.9099999999999</ele>
        <time>2017-03-10T12:59:40Z</time>
      </trkpt>
      <trkpt lat="46.648862762376666" lon="12.061322294175625">
        <ele>2105.9099999999999</ele>
        <time>2017-03-10T12:59:47Z</time>
      </trkpt>
      <trkpt lat="46.648881705477834" lon="12.06119941547513">
        <ele>2105.4200000000001</ele>
        <time>2017-03-10T12:59:56Z</time>
      </trkpt>
      <trkpt lat="46.648827474564314" lon="12.061059856787324">
        <ele>2105.9099999999999</ele>
        <time>2017-03-10T13:00:08Z</time>
      </trkpt>
      <trkpt lat="46.648757820948958" lon="12.060962626710534">
        <ele>2104.9400000000001</ele>
        <time>2017-03-10T13:00:18Z</time>
      </trkpt>
      <trkpt lat="46.648742901161313" lon="12.060946198180318">
        <ele>2104.9400000000001</ele>
        <time>2017-03-10T13:00:20Z</time>
      </trkpt>
      <trkpt lat="46.648681042715907" lon="12.060872437432408">
        <ele>2104.9400000000001</ele>
        <time>2017-03-10T13:00:28Z</time>
      </trkpt>
      <trkpt lat="46.648650951683521" lon="12.060836479067802">
        <ele>2104.46</ele>
        <time>2017-03-10T13:00:32Z</time>
      </trkpt>
      <trkpt lat="46.648551877588034" lon="12.060729023069143">
        <ele>2104.46</ele>
        <time>2017-03-10T13:00:44Z</time>
      </trkpt>
      <trkpt lat="46.648490522056818" lon="12.060677139088511">
        <ele>2103.5</ele>
        <time>2017-03-10T13:00:51Z</time>
      </trkpt>
      <trkpt lat="46.648458670824766" lon="12.060644533485174">
        <ele>2103.02</ele>
        <time>2017-03-10T13:00:58Z</time>
      </trkpt>
      <trkpt lat="46.648340821266174" lon="12.060531042516232">
        <ele>2102.54</ele>
        <time>2017-03-10T13:01:10Z</time>
      </trkpt>
      <trkpt lat="46.648266725242138" lon="12.060464657843113">
        <ele>2102.54</ele>
        <time>2017-03-10T13:01:18Z</time>
      </trkpt>
      <trkpt lat="46.648168489336967" lon="12.060403134673834">
        <ele>2102.54</ele>
        <time>2017-03-10T13:01:28Z</time>
      </trkpt>
      <trkpt lat="46.648144014179707" lon="12.060384778305888">
        <ele>2103.02</ele>
        <time>2017-03-10T13:01:32Z</time>
      </trkpt>
      <trkpt lat="46.648102691397071" lon="12.060368768870831">
        <ele>2103.5</ele>
        <time>2017-03-10T13:01:36Z</time>
      </trkpt>
      <trkpt lat="46.647989451885223" lon="12.060298025608063">
        <ele>2103.02</ele>
        <time>2017-03-10T13:01:48Z</time>
      </trkpt>
      <trkpt lat="46.647944692522287" lon="12.060279082506895">
        <ele>2103.02</ele>
        <time>2017-03-10T13:01:53Z</time>
      </trkpt>
      <trkpt lat="46.647918038070202" lon="12.060279082506895">
        <ele>2102.54</ele>
        <time>2017-03-10T13:02:02Z</time>
      </trkpt>
      <trkpt lat="46.647920804098248" lon="12.060283776372671">
        <ele>2104.9400000000001</ele>
        <time>2017-03-10T13:02:06Z</time>
      </trkpt>
      <trkpt lat="46.647919798269868" lon="12.060267766937613">
        <ele>2098.6999999999998</ele>
        <time>2017-03-10T13:02:09Z</time>
      </trkpt>
      <trkpt lat="46.647924240678549" lon="12.060262821614742">
        <ele>2100.6199999999999</ele>
        <time>2017-03-10T13:02:10Z</time>
      </trkpt>
      <trkpt lat="46.647937148809433" lon="12.060263240709901">
        <ele>2103.5</ele>
        <time>2017-03-10T13:02:33Z</time>
      </trkpt>
      <trkpt lat="46.64792868308723" lon="12.060267515480518">
        <ele>2102.0599999999999</ele>
        <time>2017-03-10T13:02:41Z</time>
      </trkpt>
      <trkpt lat="46.647930443286896" lon="12.060280255973339">
        <ele>2102.54</ele>
        <time>2017-03-10T13:02:48Z</time>
      </trkpt>
      <trkpt lat="46.647917618975043" lon="12.060274723917246">
        <ele>2102.54</ele>
        <time>2017-03-10T13:02:58Z</time>
      </trkpt>
      <trkpt lat="46.647906135767698" lon="12.060276735574007">
        <ele>2103.02</ele>
        <time>2017-03-10T13:03:07Z</time>
      </trkpt>
      <trkpt lat="46.647906638681889" lon="12.060269191861153">
        <ele>2103.02</ele>
        <time>2017-03-10T13:03:16Z</time>
      </trkpt>
      <trkpt lat="46.647896245121956" lon="12.060286542400718">
        <ele>2102.54</ele>
        <time>2017-03-10T13:03:24Z</time>
      </trkpt>
      <trkpt lat="46.647863639518619" lon="12.060266090556979">
        <ele>2102.54</ele>
        <time>2017-03-10T13:03:27Z</time>
      </trkpt>
      <trkpt lat="46.64780261926353" lon="12.060235664248466">
        <ele>2101.5799999999999</ele>
        <time>2017-03-10T13:03:37Z</time>
      </trkpt>
      <trkpt lat="46.647777054458857" lon="12.060211021453142">
        <ele>2101.0999999999999</ele>
        <time>2017-03-10T13:03:41Z</time>
      </trkpt>
      <trkpt lat="46.647723410278559" lon="12.06002427265048">
        <ele>2101.5799999999999</ele>
        <time>2017-03-10T13:03:53Z</time>
      </trkpt>
      <trkpt lat="46.647685607895255" lon="12.059897538274527">
        <ele>2101.0999999999999</ele>
        <time>2017-03-10T13:04:02Z</time>
      </trkpt>
      <trkpt lat="46.647643363103271" lon="12.0598454028368">
        <ele>2100.6199999999999</ele>
        <time>2017-03-10T13:04:08Z</time>
      </trkpt>
      <trkpt lat="46.647597178816795" lon="12.059826292097569">
        <ele>2099.6599999999999</ele>
        <time>2017-03-10T13:04:13Z</time>
      </trkpt>
      <trkpt lat="46.647550156340003" lon="12.059832662343979">
        <ele>2099.6599999999999</ele>
        <time>2017-03-10T13:04:21Z</time>
      </trkpt>
      <trkpt lat="46.647445382550359" lon="12.059889743104577">
        <ele>2098.21</ele>
        <time>2017-03-10T13:04:32Z</time>
      </trkpt>
      <trkpt lat="46.647338680922985" lon="12.059996863827109">
        <ele>2097.73</ele>
        <time>2017-03-10T13:04:43Z</time>
      </trkpt>
      <trkpt lat="46.647324180230498" lon="12.060015304014087">
        <ele>2097.73</ele>
        <time>2017-03-10T13:04:45Z</time>
      </trkpt>
      <trkpt lat="46.647250838577747" lon="12.0600491669029">
        <ele>2097.25</ele>
        <time>2017-03-10T13:04:52Z</time>
      </trkpt>
      <trkpt lat="46.647212449461222" lon="12.060056459158659">
        <ele>2098.21</ele>
        <time>2017-03-10T13:04:57Z</time>
      </trkpt>
      <trkpt lat="46.647173473611474" lon="12.060064002871513">
        <ele>2098.6999999999998</ele>
        <time>2017-03-10T13:05:01Z</time>
      </trkpt>
      <trkpt lat="46.647080350667238" lon="12.060109013691545">
        <ele>2099.1799999999998</ele>
        <time>2017-03-10T13:05:10Z</time>
      </trkpt>
      <trkpt lat="46.646993262693286" lon="12.06016399897635">
        <ele>2098.6999999999998</ele>
        <time>2017-03-10T13:05:18Z</time>
      </trkpt>
      <trkpt lat="46.646975157782435" lon="12.060168273746967">
        <ele>2098.21</ele>
        <time>2017-03-10T13:05:20Z</time>
      </trkpt>
      <trkpt lat="46.646938025951385" lon="12.060194006189704">
        <ele>2098.21</ele>
        <time>2017-03-10T13:05:24Z</time>
      </trkpt>
      <trkpt lat="46.646812884137034" lon="12.060257205739617">
        <ele>2098.6999999999998</ele>
        <time>2017-03-10T13:05:35Z</time>
      </trkpt>
      <trkpt lat="46.646801820024848" lon="12.060259217396379">
        <ele>2098.6999999999998</ele>
        <time>2017-03-10T13:05:36Z</time>
      </trkpt>
      <trkpt lat="46.646709451451898" lon="12.060319818556309">
        <ele>2100.1399999999999</ele>
        <time>2017-03-10T13:05:45Z</time>
      </trkpt>
      <trkpt lat="46.646688161417842" lon="12.060325685888529">
        <ele>2099.6599999999999</ele>
        <time>2017-03-10T13:05:47Z</time>
      </trkpt>
      <trkpt lat="46.646584561094642" lon="12.060345634818077">
        <ele>2099.6599999999999</ele>
        <time>2017-03-10T13:05:56Z</time>
      </trkpt>
      <trkpt lat="46.646520690992475" lon="12.060345048084855">
        <ele>2099.6599999999999</ele>
        <time>2017-03-10T13:06:02Z</time>
      </trkpt>
      <trkpt lat="46.646435279399157" lon="12.06035946495831">
        <ele>2100.1399999999999</ele>
        <time>2017-03-10T13:06:11Z</time>
      </trkpt>
      <trkpt lat="46.646390771493316" lon="12.06035552546382">
        <ele>2100.6199999999999</ele>
        <time>2017-03-10T13:06:15Z</time>
      </trkpt>
      <trkpt lat="46.646341569721699" lon="12.060353262349963">
        <ele>2101.0999999999999</ele>
        <time>2017-03-10T13:06:20Z</time>
      </trkpt>
      <trkpt lat="46.646224977448583" lon="12.060362650081515">
        <ele>2102.0599999999999</ele>
        <time>2017-03-10T13:06:30Z</time>
      </trkpt>
      <trkpt lat="46.646092040464282" lon="12.060350244864821">
        <ele>2101.5799999999999</ele>
        <time>2017-03-10T13:06:42Z</time>
      </trkpt>
      <trkpt lat="46.646060608327389" lon="12.060350328683853">
        <ele>2101.0999999999999</ele>
        <time>2017-03-10T13:06:45Z</time>
      </trkpt>
      <trkpt lat="46.646016016602516" lon="12.060353346168995">
        <ele>2101.5799999999999</ele>
        <time>2017-03-10T13:06:49Z</time>
      </trkpt>
      <trkpt lat="46.645922223106027" lon="12.060337672010064">
        <ele>2101.5799999999999</ele>
        <time>2017-03-10T13:06:57Z</time>
      </trkpt>
      <trkpt lat="46.645806888118386" lon="12.060321159660816">
        <ele>2102.0599999999999</ele>
        <time>2017-03-10T13:07:07Z</time>
      </trkpt>
      <trkpt lat="46.645797332748771" lon="12.060318309813738">
        <ele>2102.0599999999999</ele>
        <time>2017-03-10T13:07:08Z</time>
      </trkpt>
      <trkpt lat="46.645691720768809" lon="12.060284027829766">
        <ele>2102.0599999999999</ele>
        <time>2017-03-10T13:07:18Z</time>
      </trkpt>
      <trkpt lat="46.64566389285028" lon="12.06026466563344">
        <ele>2102.54</ele>
        <time>2017-03-10T13:07:21Z</time>
      </trkpt>
      <trkpt lat="46.645642099902034" lon="12.060219738632441">
        <ele>2103.02</ele>
        <time>2017-03-10T13:07:25Z</time>
      </trkpt>
      <trkpt lat="46.645629107952118" lon="12.060204232111573">
        <ele>2103.5</ele>
        <time>2017-03-10T13:07:27Z</time>
      </trkpt>
      <trkpt lat="46.645615361630917" lon="12.060134578496218">
        <ele>2103.02</ele>
        <time>2017-03-10T13:07:32Z</time>
      </trkpt>
      <trkpt lat="46.645609997212887" lon="12.060103816911578">
        <ele>2103.02</ele>
        <time>2017-03-10T13:07:34Z</time>
      </trkpt>
      <trkpt lat="46.645610500127077" lon="12.060028547421098">
        <ele>2103.5</ele>
        <time>2017-03-10T13:07:39Z</time>
      </trkpt>
      <trkpt lat="46.645623911172152" lon="12.059853784739971">
        <ele>2103.02</ele>
        <time>2017-03-10T13:07:50Z</time>
      </trkpt>
      <trkpt lat="46.64562625810504" lon="12.059837272390723">
        <ele>2102.54</ele>
        <time>2017-03-10T13:07:51Z</time>
      </trkpt>
      <trkpt lat="46.645647380501032" lon="12.059762589633465">
        <ele>2102.54</ele>
        <time>2017-03-10T13:07:56Z</time>
      </trkpt>
      <trkpt lat="46.645663473755121" lon="12.059720512479544">
        <ele>2102.54</ele>
        <time>2017-03-10T13:07:59Z</time>
      </trkpt>
      <trkpt lat="46.645670933648944" lon="12.059671562165022">
        <ele>2103.02</ele>
        <time>2017-03-10T13:08:02Z</time>
      </trkpt>
      <trkpt lat="46.645667999982834" lon="12.05960450693965">
        <ele>2102.0599999999999</ele>
        <time>2017-03-10T13:08:06Z</time>
      </trkpt>
      <trkpt lat="46.645610332489014" lon="12.059486573562026">
        <ele>2101.0999999999999</ele>
        <time>2017-03-10T13:08:17Z</time>
      </trkpt>
      <trkpt lat="46.645500026643276" lon="12.059461511671543">
        <ele>2098.6999999999998</ele>
        <time>2017-03-10T13:08:28Z</time>
      </trkpt>
      <trkpt lat="46.645438587293029" lon="12.059513730928302">
        <ele>2097.73</ele>
        <time>2017-03-10T13:08:35Z</time>
      </trkpt>
      <trkpt lat="46.645393576472998" lon="12.059557484462857">
        <ele>2096.77</ele>
        <time>2017-03-10T13:08:41Z</time>
      </trkpt>
      <trkpt lat="46.645344374701381" lon="12.059593610465527">
        <ele>2095.3299999999999</ele>
        <time>2017-03-10T13:08:47Z</time>
      </trkpt>
      <trkpt lat="46.645230799913406" lon="12.059618672356009">
        <ele>2092.9299999999998</ele>
        <time>2017-03-10T13:08:58Z</time>
      </trkpt>
      <trkpt lat="46.645163241773844" lon="12.05960500985384">
        <ele>2091</ele>
        <time>2017-03-10T13:09:04Z</time>
      </trkpt>
      <trkpt lat="46.645056456327438" lon="12.05955614335835">
        <ele>2088.5999999999999</ele>
        <time>2017-03-10T13:09:13Z</time>
      </trkpt>
      <trkpt lat="46.64497934281826" lon="12.059483472257853">
        <ele>2087.1599999999999</ele>
        <time>2017-03-10T13:09:21Z</time>
      </trkpt>
      <trkpt lat="46.644924692809582" lon="12.059433264657855">
        <ele>2086.6799999999998</ele>
        <time>2017-03-10T13:09:26Z</time>
      </trkpt>
      <trkpt lat="46.644812878221273" lon="12.059340309351683">
        <ele>2086.6799999999998</ele>
        <time>2017-03-10T13:09:38Z</time>
      </trkpt>
      <trkpt lat="46.64477507583797" lon="12.059313990175724">
        <ele>2085.2399999999998</ele>
        <time>2017-03-10T13:09:42Z</time>
      </trkpt>
      <trkpt lat="46.644675247371197" lon="12.059239475056529">
        <ele>2085.2399999999998</ele>
        <time>2017-03-10T13:09:52Z</time>
      </trkpt>
      <trkpt lat="46.644596206024289" lon="12.059208378195763">
        <ele>2083.3099999999999</ele>
        <time>2017-03-10T13:10:00Z</time>
      </trkpt>
      <trkpt lat="46.644474668428302" lon="12.059221202507615">
        <ele>2083.3099999999999</ele>
        <time>2017-03-10T13:10:11Z</time>
      </trkpt>
      <trkpt lat="46.644357908517122" lon="12.059219777584076">
        <ele>2083.3099999999999</ele>
        <time>2017-03-10T13:10:21Z</time>
      </trkpt>
      <trkpt lat="46.644302252680063" lon="12.059213826432824">
        <ele>2082.8299999999999</ele>
        <time>2017-03-10T13:10:26Z</time>
      </trkpt>
      <trkpt lat="46.64428205229342" lon="12.059205612167716">
        <ele>2082.8299999999999</ele>
        <time>2017-03-10T13:10:28Z</time>
      </trkpt>
      <trkpt lat="46.644159173592925" lon="12.059159763157368">
        <ele>2082.3499999999999</ele>
        <time>2017-03-10T13:10:39Z</time>
      </trkpt>
      <trkpt lat="46.644058506935835" lon="12.059095054864883">
        <ele>2081.8699999999999</ele>
        <time>2017-03-10T13:10:49Z</time>
      </trkpt>
      <trkpt lat="46.644048616290092" lon="12.059090696275234">
        <ele>2082.3499999999999</ele>
        <time>2017-03-10T13:10:50Z</time>
      </trkpt>
      <trkpt lat="46.643941411748528" lon="12.059008050709963">
        <ele>2083.3099999999999</ele>
        <time>2017-03-10T13:11:02Z</time>
      </trkpt>
      <trkpt lat="46.643824568018317" lon="12.058933032676578">
        <ele>2085.2399999999998</ele>
        <time>2017-03-10T13:11:14Z</time>
      </trkpt>
      <trkpt lat="46.643736055120826" lon="12.058903276920319">
        <ele>2084.2800000000002</ele>
        <time>2017-03-10T13:11:23Z</time>
      </trkpt>
      <trkpt lat="46.643639076501131" lon="12.058816440403461">
        <ele>2082.8299999999999</ele>
        <time>2017-03-10T13:11:35Z</time>
      </trkpt>
      <trkpt lat="46.643586521968246" lon="12.058736560866237">
        <ele>2083.3099999999999</ele>
        <time>2017-03-10T13:11:42Z</time>
      </trkpt>
      <trkpt lat="46.643523657694459" lon="12.058631451800466">
        <ele>2078.0300000000002</ele>
        <time>2017-03-10T13:11:52Z</time>
      </trkpt>
      <trkpt lat="46.643504714593291" lon="12.05860823392868">
        <ele>2077.0700000000002</ele>
        <time>2017-03-10T13:11:55Z</time>
      </trkpt>
      <trkpt lat="46.64347043260932" lon="12.058529276400805">
        <ele>2075.6199999999999</ele>
        <time>2017-03-10T13:12:01Z</time>
      </trkpt>
      <trkpt lat="46.643455512821674" lon="12.058506058529019">
        <ele>2075.1399999999999</ele>
        <time>2017-03-10T13:12:03Z</time>
      </trkpt>
      <trkpt lat="46.643413351848722" lon="12.058375887572765">
        <ele>2074.1799999999998</ele>
        <time>2017-03-10T13:12:13Z</time>
      </trkpt>
      <trkpt lat="46.643392900004983" lon="12.058230880647898">
        <ele>2072.2600000000002</ele>
        <time>2017-03-10T13:12:23Z</time>
      </trkpt>
      <trkpt lat="46.643369933590293" lon="12.058087885379791">
        <ele>2071.7800000000002</ele>
        <time>2017-03-10T13:12:32Z</time>
      </trkpt>
      <trkpt lat="46.643351074308157" lon="12.057978501543403">
        <ele>2070.3400000000001</ele>
        <time>2017-03-10T13:12:39Z</time>
      </trkpt>
      <trkpt lat="46.643324587494135" lon="12.057820586487651">
        <ele>2068.8899999999999</ele>
        <time>2017-03-10T13:12:49Z</time>
      </trkpt>
      <trkpt lat="46.643300615251064" lon="12.057625288143754">
        <ele>2065.5300000000002</ele>
        <time>2017-03-10T13:13:00Z</time>
      </trkpt>
      <trkpt lat="46.643256274983287" lon="12.057430995628238">
        <ele>2065.0500000000002</ele>
        <time>2017-03-10T13:13:13Z</time>
      </trkpt>
      <trkpt lat="46.643244959414005" lon="12.057388080283999">
        <ele>2065.0500000000002</ele>
        <time>2017-03-10T13:13:16Z</time>
      </trkpt>
      <trkpt lat="46.64322660304606" lon="12.057333514094353">
        <ele>2064.0900000000001</ele>
        <time>2017-03-10T13:13:20Z</time>
      </trkpt>
      <trkpt lat="46.643174551427364" lon="12.057241313159466">
        <ele>2064.5700000000002</ele>
        <time>2017-03-10T13:13:26Z</time>
      </trkpt>
      <trkpt lat="46.643138844519854" lon="12.057097228243947">
        <ele>2063.6100000000001</ele>
        <time>2017-03-10T13:13:36Z</time>
      </trkpt>
      <trkpt lat="46.64304044097662" lon="12.056960016489029">
        <ele>2060.7199999999998</ele>
        <time>2017-03-10T13:13:48Z</time>
      </trkpt>
      <trkpt lat="46.642947653308511" lon="12.05685649998486">
        <ele>2058.3200000000002</ele>
        <time>2017-03-10T13:13:58Z</time>
      </trkpt>
      <trkpt lat="46.642922759056091" lon="12.056799503043294">
        <ele>2057.3600000000001</ele>
        <time>2017-03-10T13:14:02Z</time>
      </trkpt>
      <trkpt lat="46.642881017178297" lon="12.056675450876355">
        <ele>2055.4400000000001</ele>
        <time>2017-03-10T13:14:10Z</time>
      </trkpt>
      <trkpt lat="46.642824942246079" lon="12.0565349701792">
        <ele>2053.5100000000002</ele>
        <time>2017-03-10T13:14:19Z</time>
      </trkpt>
      <trkpt lat="46.642748666927218" lon="12.056389041244984">
        <ele>2050.6300000000001</ele>
        <time>2017-03-10T13:14:29Z</time>
      </trkpt>
      <trkpt lat="46.642707260325551" lon="12.056331373751163">
        <ele>2049.1900000000001</ele>
        <time>2017-03-10T13:14:34Z</time>
      </trkpt>
      <trkpt lat="46.64267742075026" lon="12.056304216384888">
        <ele>2048.71</ele>
        <time>2017-03-10T13:14:43Z</time>
      </trkpt>
      <trkpt lat="46.642560577020049" lon="12.056258451193571">
        <ele>2045.8199999999999</ele>
        <time>2017-03-10T13:14:52Z</time>
      </trkpt>
      <trkpt lat="46.642526965588331" lon="12.056257613003254">
        <ele>2044.8599999999999</ele>
        <time>2017-03-10T13:14:55Z</time>
      </trkpt>
      <trkpt lat="46.642477931454778" lon="12.056260127574205">
        <ele>2044.8599999999999</ele>
        <time>2017-03-10T13:15:06Z</time>
      </trkpt>
      <trkpt lat="46.642428729683161" lon="12.056248812004924">
        <ele>2043.9000000000001</ele>
        <time>2017-03-10T13:15:15Z</time>
      </trkpt>
      <trkpt lat="46.64231046102941" lon="12.056191815063357">
        <ele>2042.46</ele>
        <time>2017-03-10T13:15:25Z</time>
      </trkpt>
      <trkpt lat="46.64229922927916" lon="12.056183097884059">
        <ele>2042.46</ele>
        <time>2017-03-10T13:15:26Z</time>
      </trkpt>
      <trkpt lat="46.642244746908545" lon="12.05613917671144">
        <ele>2041.98</ele>
        <time>2017-03-10T13:15:31Z</time>
      </trkpt>
      <trkpt lat="46.642209459096193" lon="12.056090561673045">
        <ele>2041.02</ele>
        <time>2017-03-10T13:15:35Z</time>
      </trkpt>
      <trkpt lat="46.642181044444442" lon="12.056022165343165">
        <ele>2040.54</ele>
        <time>2017-03-10T13:15:40Z</time>
      </trkpt>
      <trkpt lat="46.642126562073827" lon="12.055838601663709">
        <ele>2039.5699999999999</ele>
        <time>2017-03-10T13:15:51Z</time>
      </trkpt>
      <trkpt lat="46.642111223191023" lon="12.055774899199605">
        <ele>2039.0899999999999</ele>
        <time>2017-03-10T13:15:55Z</time>
      </trkpt>
      <trkpt lat="46.642024973407388" lon="12.055616481229663">
        <ele>2038.6099999999999</ele>
        <time>2017-03-10T13:16:08Z</time>
      </trkpt>
      <trkpt lat="46.64199236780405" lon="12.05559141933918">
        <ele>2037.6500000000001</ele>
        <time>2017-03-10T13:16:20Z</time>
      </trkpt>
      <trkpt lat="46.641956577077508" lon="12.055566357448697">
        <ele>2038.1300000000001</ele>
        <time>2017-03-10T13:16:28Z</time>
      </trkpt>
      <trkpt lat="46.641947273164988" lon="12.055559568107128">
        <ele>2037.6500000000001</ele>
        <time>2017-03-10T13:16:29Z</time>
      </trkpt>
      <trkpt lat="46.641808887943625" lon="12.055567111819983">
        <ele>2035.25</ele>
        <time>2017-03-10T13:16:41Z</time>
      </trkpt>
      <trkpt lat="46.641694642603397" lon="12.055604578927159">
        <ele>2034.29</ele>
        <time>2017-03-10T13:16:50Z</time>
      </trkpt>
      <trkpt lat="46.641570087522268" lon="12.055640202015638">
        <ele>2031.4000000000001</ele>
        <time>2017-03-10T13:17:01Z</time>
      </trkpt>
      <trkpt lat="46.641502529382706" lon="12.05567984841764">
        <ele>2030.4400000000001</ele>
        <time>2017-03-10T13:17:08Z</time>
      </trkpt>
      <trkpt lat="46.641444694250822" lon="12.055743969976902">
        <ele>2029.96</ele>
        <time>2017-03-10T13:17:14Z</time>
      </trkpt>
      <trkpt lat="46.64131167344749" lon="12.05588704906404">
        <ele>2028.04</ele>
        <time>2017-03-10T13:17:26Z</time>
      </trkpt>
      <trkpt lat="46.641206312924623" lon="12.055998276919127">
        <ele>2026.5999999999999</ele>
        <time>2017-03-10T13:17:36Z</time>
      </trkpt>
      <trkpt lat="46.641132803633809" lon="12.056033480912447">
        <ele>2026.5999999999999</ele>
        <time>2017-03-10T13:17:42Z</time>
      </trkpt>
      <trkpt lat="46.641043620184064" lon="12.05607857555151">
        <ele>2025.6400000000001</ele>
        <time>2017-03-10T13:17:49Z</time>
      </trkpt>
      <trkpt lat="46.640885705128312" lon="12.056001210585237">
        <ele>2022.75</ele>
        <time>2017-03-10T13:18:00Z</time>
      </trkpt>
      <trkpt lat="46.640837509185076" lon="12.055979752913117">
        <ele>2021.79</ele>
        <time>2017-03-10T13:18:04Z</time>
      </trkpt>
      <trkpt lat="46.640750169754028" lon="12.055912781506777">
        <ele>2020.8299999999999</ele>
        <time>2017-03-10T13:18:12Z</time>
      </trkpt>
      <trkpt lat="46.640695100650191" lon="12.05575562082231">
        <ele>2019.8699999999999</ele>
        <time>2017-03-10T13:18:22Z</time>
      </trkpt>
      <trkpt lat="46.640686970204115" lon="12.055609691888094">
        <ele>2018.9100000000001</ele>
        <time>2017-03-10T13:18:31Z</time>
      </trkpt>
      <trkpt lat="46.64067649282515" lon="12.055527968332171">
        <ele>2018.4300000000001</ele>
        <time>2017-03-10T13:18:36Z</time>
      </trkpt>
      <trkpt lat="46.6406842879951" lon="12.055392349138856">
        <ele>2016.98</ele>
        <time>2017-03-10T13:18:46Z</time>
      </trkpt>
      <trkpt lat="46.64067842066288" lon="12.055405844002962">
        <ele>2016.5</ele>
        <time>2017-03-10T13:18:57Z</time>
      </trkpt>
      <trkpt lat="46.640687054023147" lon="12.055428894236684">
        <ele>2016.5</ele>
        <time>2017-03-10T13:19:17Z</time>
      </trkpt>
      <trkpt lat="46.640687556937337" lon="12.055445406585932">
        <ele>2016.5</ele>
        <time>2017-03-10T13:19:23Z</time>
      </trkpt>
      <trkpt lat="46.640697531402111" lon="12.055492512881756">
        <ele>2016.5</ele>
        <time>2017-03-10T13:19:26Z</time>
      </trkpt>
      <trkpt lat="46.640708427876234" lon="12.055562501773238">
        <ele>2017.46</ele>
        <time>2017-03-10T13:19:30Z</time>
      </trkpt>
      <trkpt lat="46.6407067514956" lon="12.055594939738512">
        <ele>2017.46</ele>
        <time>2017-03-10T13:19:32Z</time>
      </trkpt>
      <trkpt lat="46.640704739838839" lon="12.055640369653702">
        <ele>2017.9400000000001</ele>
        <time>2017-03-10T13:19:35Z</time>
      </trkpt>
      <trkpt lat="46.640708260238171" lon="12.055685464292765">
        <ele>2017.9400000000001</ele>
        <time>2017-03-10T13:19:38Z</time>
      </trkpt>
      <trkpt lat="46.640710774809122" lon="12.055751094594598">
        <ele>2018.4300000000001</ele>
        <time>2017-03-10T13:19:42Z</time>
      </trkpt>
      <trkpt lat="46.640737010166049" lon="12.055850503966212">
        <ele>2019.3900000000001</ele>
        <time>2017-03-10T13:19:49Z</time>
      </trkpt>
      <trkpt lat="46.64075075648725" lon="12.055894508957863">
        <ele>2018.9100000000001</ele>
        <time>2017-03-10T13:19:52Z</time>
      </trkpt>
      <trkpt lat="46.640794174745679" lon="12.055937256664038">
        <ele>2019.8699999999999</ele>
        <time>2017-03-10T13:19:58Z</time>
      </trkpt>
      <trkpt lat="46.640895176678896" lon="12.055974639952183">
        <ele>2021.79</ele>
        <time>2017-03-10T13:20:09Z</time>
      </trkpt>
      <trkpt lat="46.640974469482899" lon="12.055984530597925">
        <ele>2022.75</ele>
        <time>2017-03-10T13:20:18Z</time>
      </trkpt>
      <trkpt lat="46.64100238122046" lon="12.055989308282733">
        <ele>2023.23</ele>
        <time>2017-03-10T13:20:21Z</time>
      </trkpt>
      <trkpt lat="46.64110891520977" lon="12.055963156744838">
        <ele>2025.1500000000001</ele>
        <time>2017-03-10T13:20:32Z</time>
      </trkpt>
      <trkpt lat="46.641154177486897" lon="12.055940357968211">
        <ele>2025.6400000000001</ele>
        <time>2017-03-10T13:20:37Z</time>
      </trkpt>
      <trkpt lat="46.641177143901587" lon="12.055926192551851">
        <ele>2026.1199999999999</ele>
        <time>2017-03-10T13:20:39Z</time>
      </trkpt>
      <trkpt lat="46.64126674644649" lon="12.055868776515126">
        <ele>2027.0799999999999</ele>
        <time>2017-03-10T13:20:50Z</time>
      </trkpt>
      <trkpt lat="46.641296586021781" lon="12.05584111623466">
        <ele>2027.5599999999999</ele>
        <time>2017-03-10T13:20:55Z</time>
      </trkpt>
      <trkpt lat="46.641363725066185" lon="12.055776659399271">
        <ele>2029</ele>
        <time>2017-03-10T13:21:04Z</time>
      </trkpt>
      <trkpt lat="46.641428600996733" lon="12.055701473727822">
        <ele>2029.96</ele>
        <time>2017-03-10T13:21:14Z</time>
      </trkpt>
      <trkpt lat="46.641500433906913" lon="12.055635424330831">
        <ele>2030.9200000000001</ele>
        <time>2017-03-10T13:21:24Z</time>
      </trkpt>
      <trkpt lat="46.641603531315923" lon="12.055583288893104">
        <ele>2033.3299999999999</ele>
        <time>2017-03-10T13:21:36Z</time>
      </trkpt>
      <trkpt lat="46.641693469136953" lon="12.055545402690768">
        <ele>2034.29</ele>
        <time>2017-03-10T13:21:45Z</time>
      </trkpt>
      <trkpt lat="46.641774605959654" lon="12.055527213960886">
        <ele>2035.73</ele>
        <time>2017-03-10T13:21:55Z</time>
      </trkpt>
      <trkpt lat="46.641828250139952" lon="12.055523777380586">
        <ele>2035.73</ele>
        <time>2017-03-10T13:22:04Z</time>
      </trkpt>
      <trkpt lat="46.641928246244788" lon="12.055509779602289">
        <ele>2037.6500000000001</ele>
        <time>2017-03-10T13:22:14Z</time>
      </trkpt>
      <trkpt lat="46.642021285369992" lon="12.055553616955876">
        <ele>2038.1300000000001</ele>
        <time>2017-03-10T13:22:25Z</time>
      </trkpt>
      <trkpt lat="46.642044838517904" lon="12.055580858141184">
        <ele>2038.6099999999999</ele>
        <time>2017-03-10T13:22:28Z</time>
      </trkpt>
      <trkpt lat="46.642117341980338" lon="12.055719159543514">
        <ele>2038.6099999999999</ele>
        <time>2017-03-10T13:22:39Z</time>
      </trkpt>
      <trkpt lat="46.642123460769653" lon="12.055748915299773">
        <ele>2038.1300000000001</ele>
        <time>2017-03-10T13:22:41Z</time>
      </trkpt>
      <trkpt lat="46.642155228182673" lon="12.055928120389581">
        <ele>2039.5699999999999</ele>
        <time>2017-03-10T13:22:53Z</time>
      </trkpt>
      <trkpt lat="46.642180625349283" lon="12.056025434285402">
        <ele>2041.5</ele>
        <time>2017-03-10T13:23:04Z</time>
      </trkpt>
      <trkpt lat="46.642180876806378" lon="12.056047897785902">
        <ele>2041.02</ele>
        <time>2017-03-10T13:23:26Z</time>
      </trkpt>
      <trkpt lat="46.642174255102873" lon="12.056048316881061">
        <ele>2041.98</ele>
        <time>2017-03-10T13:23:40Z</time>
      </trkpt>
      <trkpt lat="46.642159502953291" lon="12.055974220857024">
        <ele>2041.5</ele>
        <time>2017-03-10T13:23:48Z</time>
      </trkpt>
      <trkpt lat="46.642155144363642" lon="12.055968269705772">
        <ele>2041.5</ele>
        <time>2017-03-10T13:23:52Z</time>
      </trkpt>
      <trkpt lat="46.642090687528253" lon="12.055750172585249">
        <ele>2039.5699999999999</ele>
        <time>2017-03-10T13:24:05Z</time>
      </trkpt>
      <trkpt lat="46.642020614817739" lon="12.055614301934838">
        <ele>2039.0899999999999</ele>
        <time>2017-03-10T13:24:15Z</time>
      </trkpt>
      <trkpt lat="46.641993625089526" lon="12.055589910596609">
        <ele>2038.6099999999999</ele>
        <time>2017-03-10T13:24:18Z</time>
      </trkpt>
      <trkpt lat="46.6418481990695" lon="12.055546827614307">
        <ele>2037.6500000000001</ele>
        <time>2017-03-10T13:24:31Z</time>
      </trkpt>
      <trkpt lat="46.641791285946965" lon="12.055563926696777">
        <ele>2036.21</ele>
        <time>2017-03-10T13:24:36Z</time>
      </trkpt>
      <trkpt lat="46.641669999808073" lon="12.055596364662051">
        <ele>2033.8099999999999</ele>
        <time>2017-03-10T13:24:46Z</time>
      </trkpt>
      <trkpt lat="46.641550306230783" lon="12.055654535070062">
        <ele>2031.4000000000001</ele>
        <time>2017-03-10T13:24:56Z</time>
      </trkpt>
      <trkpt lat="46.641495823860168" lon="12.055699378252029">
        <ele>2030.9200000000001</ele>
        <time>2017-03-10T13:25:01Z</time>
      </trkpt>
      <trkpt lat="46.641384344547987" lon="12.055819574743509">
        <ele>2028.52</ele>
        <time>2017-03-10T13:25:12Z</time>
      </trkpt>
      <trkpt lat="46.641363808885217" lon="12.05584011040628">
        <ele>2028.04</ele>
        <time>2017-03-10T13:25:14Z</time>
      </trkpt>
      <trkpt lat="46.641328437253833" lon="12.055875062942505">
        <ele>2027.5599999999999</ele>
        <time>2017-03-10T13:25:17Z</time>
      </trkpt>
      <trkpt lat="46.64117731153965" lon="12.056001462042332">
        <ele>2024.6700000000001</ele>
        <time>2017-03-10T13:25:30Z</time>
      </trkpt>
      <trkpt lat="46.641075303778052" lon="12.056036749854684">
        <ele>2022.75</ele>
        <time>2017-03-10T13:25:38Z</time>
      </trkpt>
      <trkpt lat="46.640895931050181" lon="12.055986290797591">
        <ele>2021.3099999999999</ele>
        <time>2017-03-10T13:25:50Z</time>
      </trkpt>
      <trkpt lat="46.640865253284574" lon="12.055976567789912">
        <ele>2020.8299999999999</ele>
        <time>2017-03-10T13:25:52Z</time>
      </trkpt>
      <trkpt lat="46.64071261882782" lon="12.055867267772555">
        <ele>2019.3900000000001</ele>
        <time>2017-03-10T13:26:04Z</time>
      </trkpt>
      <trkpt lat="46.640707589685917" lon="12.055850420147181">
        <ele>2019.3900000000001</ele>
        <time>2017-03-10T13:26:05Z</time>
      </trkpt>
      <trkpt lat="46.640685377642512" lon="12.055744640529156">
        <ele>2018.9100000000001</ele>
        <time>2017-03-10T13:26:11Z</time>
      </trkpt>
      <trkpt lat="46.640687808394432" lon="12.055515060201287">
        <ele>2017.9400000000001</ele>
        <time>2017-03-10T13:26:23Z</time>
      </trkpt>
      <trkpt lat="46.640691915526986" lon="12.055328562855721">
        <ele>2016.5</ele>
        <time>2017-03-10T13:26:33Z</time>
      </trkpt>
      <trkpt lat="46.640693005174398" lon="12.055266872048378">
        <ele>2016.5</ele>
        <time>2017-03-10T13:26:36Z</time>
      </trkpt>
      <trkpt lat="46.640717228874564" lon="12.055102167651057">
        <ele>2014.5799999999999</ele>
        <time>2017-03-10T13:26:45Z</time>
      </trkpt>
      <trkpt lat="46.640733908861876" lon="12.055008122697473">
        <ele>2014.5799999999999</ele>
        <time>2017-03-10T13:26:50Z</time>
      </trkpt>
      <trkpt lat="46.640815883874893" lon="12.054753564298153">
        <ele>2013.1400000000001</ele>
        <time>2017-03-10T13:27:06Z</time>
      </trkpt>
      <trkpt lat="46.640816973522305" lon="12.054728921502829">
        <ele>2013.1400000000001</ele>
        <time>2017-03-10T13:27:08Z</time>
      </trkpt>
      <trkpt lat="46.640812279656529" lon="12.05470209941268">
        <ele>2011.22</ele>
        <time>2017-03-10T13:27:12Z</time>
      </trkpt>
      <trkpt lat="46.640789648517966" lon="12.054729172959924">
        <ele>2010.73</ele>
        <time>2017-03-10T13:27:26Z</time>
      </trkpt>
      <trkpt lat="46.640750505030155" lon="12.054797653108835">
        <ele>2010.25</ele>
        <time>2017-03-10T13:27:36Z</time>
      </trkpt>
      <trkpt lat="46.640752432867885" lon="12.054875940084457">
        <ele>2010.25</ele>
        <time>2017-03-10T13:27:44Z</time>
      </trkpt>
      <trkpt lat="46.640728712081909" lon="12.055032681673765">
        <ele>2010.25</ele>
        <time>2017-03-10T13:27:55Z</time>
      </trkpt>
      <trkpt lat="46.640700045973063" lon="12.055167881771922">
        <ele>2010.73</ele>
        <time>2017-03-10T13:28:05Z</time>
      </trkpt>
      <trkpt lat="46.640669452026486" lon="12.05531045794487">
        <ele>2011.22</ele>
        <time>2017-03-10T13:28:15Z</time>
      </trkpt>
      <trkpt lat="46.640639863908291" lon="12.055415147915483">
        <ele>2011.7</ele>
        <time>2017-03-10T13:28:24Z</time>
      </trkpt>
      <trkpt lat="46.640625866129994" lon="12.055469714105129">
        <ele>2012.1800000000001</ele>
        <time>2017-03-10T13:28:28Z</time>
      </trkpt>
      <trkpt lat="46.640588566660881" lon="12.055604998022318">
        <ele>2012.1800000000001</ele>
        <time>2017-03-10T13:28:38Z</time>
      </trkpt>
      <trkpt lat="46.640561241656542" lon="12.055650008842349">
        <ele>2012.6600000000001</ele>
        <time>2017-03-10T13:28:42Z</time>
      </trkpt>
      <trkpt lat="46.640543807297945" lon="12.055701976642013">
        <ele>2012.6600000000001</ele>
        <time>2017-03-10T13:28:46Z</time>
      </trkpt>
      <trkpt lat="46.640478176996112" lon="12.055820915848017">
        <ele>2013.6199999999999</ele>
        <time>2017-03-10T13:28:56Z</time>
      </trkpt>
      <trkpt lat="46.640429310500622" lon="12.055893838405609">
        <ele>2014.0999999999999</ele>
        <time>2017-03-10T13:29:03Z</time>
      </trkpt>
      <trkpt lat="46.640398046001792" lon="12.05595251172781">
        <ele>2014.5799999999999</ele>
        <time>2017-03-10T13:29:08Z</time>
      </trkpt>
      <trkpt lat="46.640324369072914" lon="12.056072205305099">
        <ele>2014.0999999999999</ele>
        <time>2017-03-10T13:29:19Z</time>
      </trkpt>
      <trkpt lat="46.640294948592782" lon="12.056163819506764">
        <ele>2015.0599999999999</ele>
        <time>2017-03-10T13:29:26Z</time>
      </trkpt>
      <trkpt lat="46.640297882258892" lon="12.05629943870008">
        <ele>2015.54</ele>
        <time>2017-03-10T13:29:37Z</time>
      </trkpt>
      <trkpt lat="46.64030366577208" lon="12.056430783122778">
        <ele>2017.46</ele>
        <time>2017-03-10T13:29:47Z</time>
      </trkpt>
      <trkpt lat="46.640303833410144" lon="12.056444445624948">
        <ele>2017.9400000000001</ele>
        <time>2017-03-10T13:29:48Z</time>
      </trkpt>
      <trkpt lat="46.640257481485605" lon="12.056607138365507">
        <ele>2017.9400000000001</ele>
        <time>2017-03-10T13:30:00Z</time>
      </trkpt>
      <trkpt lat="46.640227809548378" lon="12.05673823133111">
        <ele>2017.9400000000001</ele>
        <time>2017-03-10T13:30:10Z</time>
      </trkpt>
      <trkpt lat="46.6402059327811" lon="12.056804783642292">
        <ele>2018.4300000000001</ele>
        <time>2017-03-10T13:30:15Z</time>
      </trkpt>
      <trkpt lat="46.640189839527011" lon="12.056927746161819">
        <ele>2019.3900000000001</ele>
        <time>2017-03-10T13:30:24Z</time>
      </trkpt>
      <trkpt lat="46.640165029093623" lon="12.057061186060309">
        <ele>2020.3499999999999</ele>
        <time>2017-03-10T13:30:34Z</time>
      </trkpt>
      <trkpt lat="46.640120185911655" lon="12.057176604866982">
        <ele>2021.79</ele>
        <time>2017-03-10T13:30:44Z</time>
      </trkpt>
      <trkpt lat="46.640065284445882" lon="12.057280205190182">
        <ele>2022.75</ele>
        <time>2017-03-10T13:30:55Z</time>
      </trkpt>
      <trkpt lat="46.640034858137369" lon="12.057285066694021">
        <ele>2024.1900000000001</ele>
        <time>2017-03-10T13:30:58Z</time>
      </trkpt>
      <trkpt lat="46.639920528978109" lon="12.057313313707709">
        <ele>2025.6400000000001</ele>
        <time>2017-03-10T13:31:09Z</time>
      </trkpt>
      <trkpt lat="46.63984919898212" lon="12.057358659803867">
        <ele>2027.0799999999999</ele>
        <time>2017-03-10T13:31:19Z</time>
      </trkpt>
      <trkpt lat="46.639770409092307" lon="12.057405514642596">
        <ele>2028.04</ele>
        <time>2017-03-10T13:31:28Z</time>
      </trkpt>
      <trkpt lat="46.639733444899321" lon="12.057437701150775">
        <ele>2028.52</ele>
        <time>2017-03-10T13:31:33Z</time>
      </trkpt>
      <trkpt lat="46.639681560918689" lon="12.057555466890335">
        <ele>2028.52</ele>
        <time>2017-03-10T13:31:44Z</time>
      </trkpt>
      <trkpt lat="46.639659181237221" lon="12.057673735544086">
        <ele>2028.04</ele>
        <time>2017-03-10T13:31:52Z</time>
      </trkpt>
      <trkpt lat="46.639644848182797" lon="12.057721177116036">
        <ele>2028.04</ele>
        <time>2017-03-10T13:31:56Z</time>
      </trkpt>
      <trkpt lat="46.639620205387473" lon="12.057779347524047">
        <ele>2028.04</ele>
        <time>2017-03-10T13:32:01Z</time>
      </trkpt>
      <trkpt lat="46.639604112133384" lon="12.057921336963773">
        <ele>2028.52</ele>
        <time>2017-03-10T13:32:11Z</time>
      </trkpt>
      <trkpt lat="46.639604195952415" lon="12.058060308918357">
        <ele>2028.52</ele>
        <time>2017-03-10T13:32:20Z</time>
      </trkpt>
      <trkpt lat="46.639602016657591" lon="12.058256696909666">
        <ele>2029</ele>
        <time>2017-03-10T13:32:33Z</time>
      </trkpt>
      <trkpt lat="46.639615511521697" lon="12.058437075465918">
        <ele>2028.52</ele>
        <time>2017-03-10T13:32:45Z</time>
      </trkpt>
      <trkpt lat="46.639609141275287" lon="12.058586943894625">
        <ele>2028.52</ele>
        <time>2017-03-10T13:32:55Z</time>
      </trkpt>
      <trkpt lat="46.639610566198826" lon="12.05864243209362">
        <ele>2028.52</ele>
        <time>2017-03-10T13:32:58Z</time>
      </trkpt>
      <trkpt lat="46.639604195952415" lon="12.058671349659562">
        <ele>2028.52</ele>
        <time>2017-03-10T13:33:00Z</time>
      </trkpt>
      <trkpt lat="46.639600927010179" lon="12.058827085420489">
        <ele>2029</ele>
        <time>2017-03-10T13:33:10Z</time>
      </trkpt>
      <trkpt lat="46.639582319185138" lon="12.058969410136342">
        <ele>2029</ele>
        <time>2017-03-10T13:33:20Z</time>
      </trkpt>
      <trkpt lat="46.639574021100998" lon="12.05902841873467">
        <ele>2029</ele>
        <time>2017-03-10T13:33:24Z</time>
      </trkpt>
      <trkpt lat="46.639544852077961" lon="12.059105783700943">
        <ele>2029</ele>
        <time>2017-03-10T13:33:34Z</time>
      </trkpt>
      <trkpt lat="46.63953110575676" lon="12.05913788639009">
        <ele>2028.52</ele>
        <time>2017-03-10T13:33:37Z</time>
      </trkpt>
      <trkpt lat="46.639493387192488" lon="12.05922338180244">
        <ele>2028.04</ele>
        <time>2017-03-10T13:33:44Z</time>
      </trkpt>
      <trkpt lat="46.639448963105679" lon="12.059320025146008">
        <ele>2028.52</ele>
        <time>2017-03-10T13:33:55Z</time>
      </trkpt>
      <trkpt lat="46.639373023062944" lon="12.059418596327305">
        <ele>2028.04</ele>
        <time>2017-03-10T13:34:05Z</time>
      </trkpt>
      <trkpt lat="46.639366485178471" lon="12.059429241344333">
        <ele>2027.5599999999999</ele>
        <time>2017-03-10T13:34:06Z</time>
      </trkpt>
      <trkpt lat="46.639293311163783" lon="12.059477604925632">
        <ele>2027.0799999999999</ele>
        <time>2017-03-10T13:34:14Z</time>
      </trkpt>
      <trkpt lat="46.63926724344492" lon="12.059495458379388">
        <ele>2026.1199999999999</ele>
        <time>2017-03-10T13:34:17Z</time>
      </trkpt>
      <trkpt lat="46.639212509617209" lon="12.059538960456848">
        <ele>2025.6400000000001</ele>
        <time>2017-03-10T13:34:23Z</time>
      </trkpt>
      <trkpt lat="46.639138916507363" lon="12.059586737304926">
        <ele>2024.6700000000001</ele>
        <time>2017-03-10T13:34:31Z</time>
      </trkpt>
      <trkpt lat="46.639023749157786" lon="12.059682793915272">
        <ele>2021.79</ele>
        <time>2017-03-10T13:34:43Z</time>
      </trkpt>
      <trkpt lat="46.638946468010545" lon="12.05975797958672">
        <ele>2019.3900000000001</ele>
        <time>2017-03-10T13:34:52Z</time>
      </trkpt>
      <trkpt lat="46.638888213783503" lon="12.059819754213095">
        <ele>2017.9400000000001</ele>
        <time>2017-03-10T13:34:58Z</time>
      </trkpt>
      <trkpt lat="46.638794085010886" lon="12.059891419485211">
        <ele>2016.5</ele>
        <time>2017-03-10T13:35:07Z</time>
      </trkpt>
      <trkpt lat="46.638650000095367" lon="12.059882618486881">
        <ele>2014.5799999999999</ele>
        <time>2017-03-10T13:35:20Z</time>
      </trkpt>
      <trkpt lat="46.638602139428258" lon="12.059868285432458">
        <ele>2013.6199999999999</ele>
        <time>2017-03-10T13:35:25Z</time>
      </trkpt>
      <trkpt lat="46.638463670387864" lon="12.059787064790726">
        <ele>2010.73</ele>
        <time>2017-03-10T13:35:37Z</time>
      </trkpt>
      <trkpt lat="46.638414720073342" lon="12.059756722301245">
        <ele>2009.77</ele>
        <time>2017-03-10T13:35:41Z</time>
      </trkpt>
      <trkpt lat="46.638262672349811" lon="12.059720177203417">
        <ele>2006.8900000000001</ele>
        <time>2017-03-10T13:35:54Z</time>
      </trkpt>
      <trkpt lat="46.638170555233955" lon="12.059745574370027">
        <ele>2005.9300000000001</ele>
        <time>2017-03-10T13:36:03Z</time>
      </trkpt>
      <trkpt lat="46.638147253543139" lon="12.059746999293566">
        <ele>2005.9300000000001</ele>
        <time>2017-03-10T13:36:05Z</time>
      </trkpt>
      <trkpt lat="46.638004174456" lon="12.059851437807083">
        <ele>2004.01</ele>
        <time>2017-03-10T13:36:19Z</time>
      </trkpt>
      <trkpt lat="46.637929826974869" lon="12.05994020216167">
        <ele>2002.5599999999999</ele>
        <time>2017-03-10T13:36:28Z</time>
      </trkpt>
      <trkpt lat="46.637900741770864" lon="12.059965766966343">
        <ele>2001.5999999999999</ele>
        <time>2017-03-10T13:36:31Z</time>
      </trkpt>
      <trkpt lat="46.637764284387231" lon="12.059934670105577">
        <ele>1998.72</ele>
        <time>2017-03-10T13:36:43Z</time>
      </trkpt>
      <trkpt lat="46.637756992131472" lon="12.059929557144642">
        <ele>1998.72</ele>
        <time>2017-03-10T13:36:44Z</time>
      </trkpt>
      <trkpt lat="46.637735115364194" lon="12.059900220483541">
        <ele>1998.72</ele>
        <time>2017-03-10T13:36:47Z</time>
      </trkpt>
      <trkpt lat="46.637700079008937" lon="12.059855125844479">
        <ele>1998.24</ele>
        <time>2017-03-10T13:36:56Z</time>
      </trkpt>
      <trkpt lat="46.637697396799922" lon="12.05984691157937">
        <ele>1998.24</ele>
        <time>2017-03-10T13:37:12Z</time>
      </trkpt>
      <trkpt lat="46.637691697105765" lon="12.059832997620106">
        <ele>1998.72</ele>
        <time>2017-03-10T13:37:16Z</time>
      </trkpt>
      <trkpt lat="46.637651631608605" lon="12.059789914637804">
        <ele>1996.8</ele>
        <time>2017-03-10T13:37:25Z</time>
      </trkpt>
      <trkpt lat="46.637624138966203" lon="12.059749010950327">
        <ele>1996.3199999999999</ele>
        <time>2017-03-10T13:37:29Z</time>
      </trkpt>
      <trkpt lat="46.63756295107305" lon="12.059696707874537">
        <ele>1994.3900000000001</ele>
        <time>2017-03-10T13:37:36Z</time>
      </trkpt>
      <trkpt lat="46.637443844228983" lon="12.059664186090231">
        <ele>1991.99</ele>
        <time>2017-03-10T13:37:47Z</time>
      </trkpt>
      <trkpt lat="46.637396486476064" lon="12.059671059250832">
        <ele>1990.55</ele>
        <time>2017-03-10T13:37:51Z</time>
      </trkpt>
      <trkpt lat="46.63726732134819" lon="12.059699976816773">
        <ele>1989.0999999999999</ele>
        <time>2017-03-10T13:38:02Z</time>
      </trkpt>
      <trkpt lat="46.637215269729495" lon="12.059717997908592">
        <ele>1988.1400000000001</ele>
        <time>2017-03-10T13:38:06Z</time>
      </trkpt>
      <trkpt lat="46.637150980532169" lon="12.059726379811764">
        <ele>1987.6600000000001</ele>
        <time>2017-03-10T13:38:12Z</time>
      </trkpt>
      <trkpt lat="46.637075627222657" lon="12.059707101434469">
        <ele>1988.1400000000001</ele>
        <time>2017-03-10T13:38:22Z</time>
      </trkpt>
      <trkpt lat="46.637073699384928" lon="12.059733001515269">
        <ele>1986.7</ele>
        <time>2017-03-10T13:38:30Z</time>
      </trkpt>
      <trkpt lat="46.6370664909482" lon="12.059752363711596">
        <ele>1986.7</ele>
        <time>2017-03-10T13:38:32Z</time>
      </trkpt>
      <trkpt lat="46.637011086568236" lon="12.059763427823782">
        <ele>1987.6600000000001</ele>
        <time>2017-03-10T13:38:37Z</time>
      </trkpt>
      <trkpt lat="46.636934140697122" lon="12.059779101982713">
        <ele>1985.26</ele>
        <time>2017-03-10T13:38:46Z</time>
      </trkpt>
      <trkpt lat="46.636856524273753" lon="12.059802822768688">
        <ele>1981.9000000000001</ele>
        <time>2017-03-10T13:38:54Z</time>
      </trkpt>
      <trkpt lat="46.636773208156228" lon="12.05982930958271">
        <ele>1980.45</ele>
        <time>2017-03-10T13:39:02Z</time>
      </trkpt>
      <trkpt lat="46.636763066053391" lon="12.059835009276867">
        <ele>1979.97</ele>
        <time>2017-03-10T13:39:03Z</time>
      </trkpt>
      <trkpt lat="46.636697854846716" lon="12.059851856902242">
        <ele>1979.01</ele>
        <time>2017-03-10T13:39:09Z</time>
      </trkpt>
      <trkpt lat="46.636605067178607" lon="12.059897622093558">
        <ele>1978.05</ele>
        <time>2017-03-10T13:39:18Z</time>
      </trkpt>
      <trkpt lat="46.63645469583571" lon="12.060000970959663">
        <ele>1976.6099999999999</ele>
        <time>2017-03-10T13:39:33Z</time>
      </trkpt>
      <trkpt lat="46.636389568448067" lon="12.060048077255487">
        <ele>1975.6500000000001</ele>
        <time>2017-03-10T13:39:40Z</time>
      </trkpt>
      <trkpt lat="46.636296277865767" lon="12.060091327875853">
        <ele>1975.6500000000001</ele>
        <time>2017-03-10T13:39:50Z</time>
      </trkpt>
      <trkpt lat="46.636266941204667" lon="12.0601009670645">
        <ele>1975.1700000000001</ele>
        <time>2017-03-10T13:39:54Z</time>
      </trkpt>
      <trkpt lat="46.63624120876193" lon="12.06011563539505">
        <ele>1975.1700000000001</ele>
        <time>2017-03-10T13:40:01Z</time>
      </trkpt>
      <trkpt lat="46.636236514896154" lon="12.060097111389041">
        <ele>1974.6900000000001</ele>
        <time>2017-03-10T13:40:11Z</time>
      </trkpt>
      <trkpt lat="46.636213548481464" lon="12.06008143723011">
        <ele>1975.1700000000001</ele>
        <time>2017-03-10T13:40:33Z</time>
      </trkpt>
      <trkpt lat="46.63624657317996" lon="12.060072720050812">
        <ele>1975.6500000000001</ele>
        <time>2017-03-10T13:40:58Z</time>
      </trkpt>
      <trkpt lat="46.636256212368608" lon="12.060098620131612">
        <ele>1976.6099999999999</ele>
        <time>2017-03-10T13:41:09Z</time>
      </trkpt>
      <trkpt lat="46.63624900393188" lon="12.06011563539505">
        <ele>1976.6099999999999</ele>
        <time>2017-03-10T13:41:26Z</time>
      </trkpt>
      <trkpt lat="46.636251602321863" lon="12.060115467756987">
        <ele>1975.6500000000001</ele>
        <time>2017-03-10T13:41:37Z</time>
      </trkpt>
      <trkpt lat="46.636242382228374" lon="12.060119574889541">
        <ele>1976.1300000000001</ele>
        <time>2017-03-10T13:41:56Z</time>
      </trkpt>
      <trkpt lat="46.636263839900494" lon="12.060093255713582">
        <ele>1976.6099999999999</ele>
        <time>2017-03-10T13:42:10Z</time>
      </trkpt>
      <trkpt lat="46.636266354471445" lon="12.06009853631258">
        <ele>1976.1300000000001</ele>
        <time>2017-03-10T13:42:23Z</time>
      </trkpt>
      <trkpt lat="46.636263253167272" lon="12.060098452493548">
        <ele>1976.1300000000001</ele>
        <time>2017-03-10T13:42:36Z</time>
      </trkpt>
      <trkpt lat="46.636271886527538" lon="12.06009317189455">
        <ele>1975.6500000000001</ele>
        <time>2017-03-10T13:42:48Z</time>
      </trkpt>
      <trkpt lat="46.636275490745902" lon="12.060086885467172">
        <ele>1976.1300000000001</ele>
        <time>2017-03-10T13:43:00Z</time>
      </trkpt>
      <trkpt lat="46.63626124151051" lon="12.060087472200394">
        <ele>1974.6900000000001</ele>
        <time>2017-03-10T13:43:19Z</time>
      </trkpt>
      <trkpt lat="46.63624120876193" lon="12.060077330097556">
        <ele>1973.72</ele>
        <time>2017-03-10T13:43:30Z</time>
      </trkpt>
      <trkpt lat="46.636253111064434" lon="12.060082275420427">
        <ele>1976.1300000000001</ele>
        <time>2017-03-10T13:43:44Z</time>
      </trkpt>
      <trkpt lat="46.636242382228374" lon="12.06006626598537">
        <ele>1974.6900000000001</ele>
        <time>2017-03-10T13:43:59Z</time>
      </trkpt>
      <trkpt lat="46.636254284530878" lon="12.060081856325269">
        <ele>1975.6500000000001</ele>
        <time>2017-03-10T13:44:13Z</time>
      </trkpt>
      <trkpt lat="46.63620550185442" lon="12.060084706172347">
        <ele>1975.1700000000001</ele>
        <time>2017-03-10T13:44:32Z</time>
      </trkpt>
      <trkpt lat="46.636151690036058" lon="12.06012200564146">
        <ele>1976.1300000000001</ele>
        <time>2017-03-10T13:44:42Z</time>
      </trkpt>
      <trkpt lat="46.636179517954588" lon="12.060130555182695">
        <ele>1976.1300000000001</ele>
        <time>2017-03-10T13:44:52Z</time>
      </trkpt>
      <trkpt lat="46.636175829917192" lon="12.060130052268505">
        <ele>1976.6099999999999</ele>
        <time>2017-03-10T13:44:58Z</time>
      </trkpt>
      <trkpt lat="46.636135764420033" lon="12.060224432498217">
        <ele>1976.6099999999999</ele>
        <time>2017-03-10T13:45:08Z</time>
      </trkpt>
      <trkpt lat="46.636143056675792" lon="12.060230216011405">
        <ele>1977.0899999999999</ele>
        <time>2017-03-10T13:45:17Z</time>
      </trkpt>
      <trkpt lat="46.636151019483805" lon="12.060220995917916">
        <ele>1977.0899999999999</ele>
        <time>2017-03-10T13:45:34Z</time>
      </trkpt>
      <trkpt lat="46.636140290647745" lon="12.060212697833776">
        <ele>1977.5699999999999</ele>
        <time>2017-03-10T13:45:47Z</time>
      </trkpt>
      <trkpt lat="46.636141631752253" lon="12.060211943462491">
        <ele>1977.0899999999999</ele>
        <time>2017-03-10T13:45:48Z</time>
      </trkpt>
      <trkpt lat="46.636140709742904" lon="12.060237759724259">
        <ele>1977.5699999999999</ele>
        <time>2017-03-10T13:45:50Z</time>
      </trkpt>
      <trkpt lat="46.63613366894424" lon="12.060242034494877">
        <ele>1979.01</ele>
        <time>2017-03-10T13:45:55Z</time>
      </trkpt>
      <trkpt lat="46.636136518791318" lon="12.060250919312239">
        <ele>1976.6099999999999</ele>
        <time>2017-03-10T13:46:09Z</time>
      </trkpt>
      <trkpt lat="46.636119671165943" lon="12.060236586257815">
        <ele>1977.5699999999999</ele>
        <time>2017-03-10T13:46:19Z</time>
      </trkpt>
      <trkpt lat="46.63614347577095" lon="12.06023532897234">
        <ele>1976.6099999999999</ele>
        <time>2017-03-10T13:46:36Z</time>
      </trkpt>
      <trkpt lat="46.636090837419033" lon="12.060276567935944">
        <ele>1977.5699999999999</ele>
        <time>2017-03-10T13:46:42Z</time>
      </trkpt>
      <trkpt lat="46.636050436645746" lon="12.060322249308228">
        <ele>1978.53</ele>
        <time>2017-03-10T13:46:48Z</time>
      </trkpt>
      <trkpt lat="46.636001486331224" lon="12.060435572639108">
        <ele>1979.97</ele>
        <time>2017-03-10T13:46:59Z</time>
      </trkpt>
      <trkpt lat="46.635977681726217" lon="12.060485277324915">
        <ele>1979.97</ele>
        <time>2017-03-10T13:47:03Z</time>
      </trkpt>
      <trkpt lat="46.635976089164615" lon="12.060599774122238">
        <ele>1980.45</ele>
        <time>2017-03-10T13:47:13Z</time>
      </trkpt>
      <trkpt lat="46.635942729189992" lon="12.060724161565304">
        <ele>1980.9300000000001</ele>
        <time>2017-03-10T13:47:24Z</time>
      </trkpt>
      <trkpt lat="46.635945411399007" lon="12.060773530974984">
        <ele>1981.4100000000001</ele>
        <time>2017-03-10T13:47:29Z</time>
      </trkpt>
      <trkpt lat="46.635953122749925" lon="12.060895403847098">
        <ele>1981.9000000000001</ele>
        <time>2017-03-10T13:47:40Z</time>
      </trkpt>
      <trkpt lat="46.635939376428723" lon="12.061020797118545">
        <ele>1983.3399999999999</ele>
        <time>2017-03-10T13:47:53Z</time>
      </trkpt>
      <trkpt lat="46.635903082787991" lon="12.061122385784984">
        <ele>1984.3</ele>
        <time>2017-03-10T13:48:04Z</time>
      </trkpt>
      <trkpt lat="46.635888582095504" lon="12.061149626970291">
        <ele>1984.78</ele>
        <time>2017-03-10T13:48:08Z</time>
      </trkpt>
      <trkpt lat="46.635858239606023" lon="12.061215089634061">
        <ele>1985.26</ele>
        <time>2017-03-10T13:48:14Z</time>
      </trkpt>
      <trkpt lat="46.635848432779312" lon="12.061293628066778">
        <ele>1985.74</ele>
        <time>2017-03-10T13:48:26Z</time>
      </trkpt>
      <trkpt lat="46.635849857702851" lon="12.061360934749246">
        <ele>1987.1800000000001</ele>
        <time>2017-03-10T13:48:35Z</time>
      </trkpt>
      <trkpt lat="46.635838374495506" lon="12.061460595577955">
        <ele>1988.6199999999999</ele>
        <time>2017-03-10T13:48:46Z</time>
      </trkpt>
      <trkpt lat="46.635824795812368" lon="12.061504432931542">
        <ele>1988.6199999999999</ele>
        <time>2017-03-10T13:48:56Z</time>
      </trkpt>
      <trkpt lat="46.635780120268464" lon="12.061555813997984">
        <ele>1988.6199999999999</ele>
        <time>2017-03-10T13:49:06Z</time>
      </trkpt>
      <trkpt lat="46.635783053934574" lon="12.061617337167263">
        <ele>1990.55</ele>
        <time>2017-03-10T13:49:15Z</time>
      </trkpt>
      <trkpt lat="46.635797554627061" lon="12.061761673539877">
        <ele>1991.03</ele>
        <time>2017-03-10T13:49:28Z</time>
      </trkpt>
      <trkpt lat="46.635795207694173" lon="12.061807354912162">
        <ele>1991.03</ele>
        <time>2017-03-10T13:49:31Z</time>
      </trkpt>
      <trkpt lat="46.635780204087496" lon="12.061841636896133">
        <ele>1991.99</ele>
        <time>2017-03-10T13:49:41Z</time>
      </trkpt>
      <trkpt lat="46.635800572112203" lon="12.06195680424571">
        <ele>1991.03</ele>
        <time>2017-03-10T13:49:51Z</time>
      </trkpt>
      <trkpt lat="46.635803170502186" lon="12.061967113986611">
        <ele>1990.55</ele>
        <time>2017-03-10T13:49:52Z</time>
      </trkpt>
      <trkpt lat="46.635842649266124" lon="12.062034253031015">
        <ele>1991.03</ele>
        <time>2017-03-10T13:50:00Z</time>
      </trkpt>
      <trkpt lat="46.635869471356273" lon="12.062086137011647">
        <ele>1991.03</ele>
        <time>2017-03-10T13:50:06Z</time>
      </trkpt>
      <trkpt lat="46.635878104716539" lon="12.062106588855386">
        <ele>1991.99</ele>
        <time>2017-03-10T13:50:08Z</time>
      </trkpt>
      <trkpt lat="46.635892186313868" lon="12.062143720686436">
        <ele>1991.51</ele>
        <time>2017-03-10T13:50:11Z</time>
      </trkpt>
      <trkpt lat="46.635928731411695" lon="12.062293672934175">
        <ele>1989.5899999999999</ele>
        <time>2017-03-10T13:50:23Z</time>
      </trkpt>
      <trkpt lat="46.635943567380309" lon="12.062297612428665">
        <ele>1989.5899999999999</ele>
        <time>2017-03-10T13:50:25Z</time>
      </trkpt>
      <trkpt lat="46.636014310643077" lon="12.062385706230998">
        <ele>1990.0699999999999</ele>
        <time>2017-03-10T13:50:37Z</time>
      </trkpt>
      <trkpt lat="46.636051693931222" lon="12.062475895509124">
        <ele>1992.47</ele>
        <time>2017-03-10T13:50:47Z</time>
      </trkpt>
      <trkpt lat="46.636069631204009" lon="12.062592152506113">
        <ele>1993.4300000000001</ele>
        <time>2017-03-10T13:51:00Z</time>
      </trkpt>
      <trkpt lat="46.63605990819633" lon="12.062666835263371">
        <ele>1993.9100000000001</ele>
        <time>2017-03-10T13:51:10Z</time>
      </trkpt>
      <trkpt lat="46.636046832427382" lon="12.062734058126807">
        <ele>1995.3499999999999</ele>
        <time>2017-03-10T13:51:20Z</time>
      </trkpt>
      <trkpt lat="46.636060914024711" lon="12.062789378687739">
        <ele>1996.8</ele>
        <time>2017-03-10T13:51:30Z</time>
      </trkpt>
      <trkpt lat="46.636035433039069" lon="12.062816536054015">
        <ele>1997.76</ele>
        <time>2017-03-10T13:51:41Z</time>
      </trkpt>
      <trkpt lat="46.636040294542909" lon="12.062831958755851">
        <ele>1997.76</ele>
        <time>2017-03-10T13:51:51Z</time>
      </trkpt>
      <trkpt lat="46.636048341169953" lon="12.062915861606598">
        <ele>1997.28</ele>
        <time>2017-03-10T13:51:59Z</time>
      </trkpt>
      <trkpt lat="46.636061668395996" lon="12.063049972057343">
        <ele>1997.28</ele>
        <time>2017-03-10T13:52:10Z</time>
      </trkpt>
      <trkpt lat="46.63603987544775" lon="12.063197745010257">
        <ele>1997.28</ele>
        <time>2017-03-10T13:52:21Z</time>
      </trkpt>
      <trkpt lat="46.636055298149586" lon="12.063298244029284">
        <ele>1998.24</ele>
        <time>2017-03-10T13:52:32Z</time>
      </trkpt>
      <trkpt lat="46.636052113026381" lon="12.063352894037962">
        <ele>1997.76</ele>
        <time>2017-03-10T13:52:42Z</time>
      </trkpt>
      <trkpt lat="46.636023782193661" lon="12.063381811603904">
        <ele>1997.28</ele>
        <time>2017-03-10T13:52:56Z</time>
      </trkpt>
      <trkpt lat="46.636018166318536" lon="12.063392624258995">
        <ele>1997.76</ele>
        <time>2017-03-10T13:52:57Z</time>
      </trkpt>
      <trkpt lat="46.635955888777971" lon="12.063495637848973">
        <ele>1997.76</ele>
        <time>2017-03-10T13:53:08Z</time>
      </trkpt>
      <trkpt lat="46.635894617065787" lon="12.063607703894377">
        <ele>1998.24</ele>
        <time>2017-03-10T13:53:19Z</time>
      </trkpt>
      <trkpt lat="46.635867627337575" lon="12.063704011961818">
        <ele>1998.72</ele>
        <time>2017-03-10T13:53:28Z</time>
      </trkpt>
      <trkpt lat="46.635824125260115" lon="12.063857819885015">
        <ele>1998.24</ele>
        <time>2017-03-10T13:53:42Z</time>
      </trkpt>
      <trkpt lat="46.635772828012705" lon="12.063964437693357">
        <ele>1998.24</ele>
        <time>2017-03-10T13:53:52Z</time>
      </trkpt>
      <trkpt lat="46.635716333985329" lon="12.064056554809213">
        <ele>1998.72</ele>
        <time>2017-03-10T13:54:03Z</time>
      </trkpt>
      <trkpt lat="46.635703928768635" lon="12.064042054116726">
        <ele>1998.72</ele>
        <time>2017-03-10T13:54:11Z</time>
      </trkpt>
      <trkpt lat="46.635682135820389" lon="12.064101565629244">
        <ele>1998.24</ele>
        <time>2017-03-10T13:54:25Z</time>
      </trkpt>
      <trkpt lat="46.635615583509207" lon="12.064195945858955">
        <ele>1998.24</ele>
        <time>2017-03-10T13:54:34Z</time>
      </trkpt>
      <trkpt lat="46.635600076988339" lon="12.064227629452944">
        <ele>1998.24</ele>
        <time>2017-03-10T13:54:37Z</time>
      </trkpt>
      <trkpt lat="46.635566800832748" lon="12.064246069639921">
        <ele>1998.24</ele>
        <time>2017-03-10T13:54:41Z</time>
      </trkpt>
      <trkpt lat="46.635470073670149" lon="12.064296947792172">
        <ele>1998.24</ele>
        <time>2017-03-10T13:54:51Z</time>
      </trkpt>
      <trkpt lat="46.635391283780336" lon="12.064312705770135">
        <ele>1998.24</ele>
        <time>2017-03-10T13:55:00Z</time>
      </trkpt>
      <trkpt lat="46.63530495017767" lon="12.064339611679316">
        <ele>1998.24</ele>
        <time>2017-03-10T13:55:10Z</time>
      </trkpt>
      <trkpt lat="46.635237392038107" lon="12.06442242488265">
        <ele>1997.28</ele>
        <time>2017-03-10T13:55:20Z</time>
      </trkpt>
      <trkpt lat="46.635180981829762" lon="12.064502220600843">
        <ele>1997.76</ele>
        <time>2017-03-10T13:55:29Z</time>
      </trkpt>
      <trkpt lat="46.635157261043787" lon="12.064583608880639">
        <ele>1998.72</ele>
        <time>2017-03-10T13:55:39Z</time>
      </trkpt>
      <trkpt lat="46.635147873312235" lon="12.064594756811857">
        <ele>1999.6800000000001</ele>
        <time>2017-03-10T13:55:41Z</time>
      </trkpt>
      <trkpt lat="46.6350909601897" lon="12.06468285061419">
        <ele>1999.2</ele>
        <time>2017-03-10T13:55:51Z</time>
      </trkpt>
      <trkpt lat="46.635061874985695" lon="12.064708331599832">
        <ele>1999.6800000000001</ele>
        <time>2017-03-10T13:55:55Z</time>
      </trkpt>
      <trkpt lat="46.63495852611959" lon="12.064727945253253">
        <ele>2001.1199999999999</ele>
        <time>2017-03-10T13:56:07Z</time>
      </trkpt>
      <trkpt lat="46.634909994900227" lon="12.064771950244904">
        <ele>2002.5599999999999</ele>
        <time>2017-03-10T13:56:14Z</time>
      </trkpt>
      <trkpt lat="46.634832127019763" lon="12.064825678244233">
        <ele>2003.04</ele>
        <time>2017-03-10T13:56:25Z</time>
      </trkpt>
      <trkpt lat="46.634810250252485" lon="12.064850823953748">
        <ele>2003.04</ele>
        <time>2017-03-10T13:56:28Z</time>
      </trkpt>
      <trkpt lat="46.634736740961671" lon="12.064916202798486">
        <ele>2004.01</ele>
        <time>2017-03-10T13:56:39Z</time>
      </trkpt>
      <trkpt lat="46.634696172550321" lon="12.065017623826861">
        <ele>2004.97</ele>
        <time>2017-03-10T13:56:50Z</time>
      </trkpt>
      <trkpt lat="46.634654263034463" lon="12.065129773691297">
        <ele>2005.45</ele>
        <time>2017-03-10T13:57:01Z</time>
      </trkpt>
      <trkpt lat="46.634641103446484" lon="12.065233709290624">
        <ele>2005.9300000000001</ele>
        <time>2017-03-10T13:57:11Z</time>
      </trkpt>
      <trkpt lat="46.63462333381176" lon="12.065361114218831">
        <ele>2005.45</ele>
        <time>2017-03-10T13:57:23Z</time>
      </trkpt>
      <trkpt lat="46.634612353518605" lon="12.065447615459561">
        <ele>2005.9300000000001</ele>
        <time>2017-03-10T13:57:33Z</time>
      </trkpt>
      <trkpt lat="46.634577149525285" lon="12.065518693998456">
        <ele>2006.4100000000001</ele>
        <time>2017-03-10T13:57:40Z</time>
      </trkpt>
      <trkpt lat="46.634540185332298" lon="12.065657749772072">
        <ele>2006.8900000000001</ele>
        <time>2017-03-10T13:57:54Z</time>
      </trkpt>
      <trkpt lat="46.634488888084888" lon="12.065755818039179">
        <ele>2007.8499999999999</ele>
        <time>2017-03-10T13:58:04Z</time>
      </trkpt>
      <trkpt lat="46.634476901963353" lon="12.06576956436038">
        <ele>2007.8499999999999</ele>
        <time>2017-03-10T13:58:06Z</time>
      </trkpt>
      <trkpt lat="46.63442250341177" lon="12.065839972347021">
        <ele>2007.8499999999999</ele>
        <time>2017-03-10T13:58:15Z</time>
      </trkpt>
      <trkpt lat="46.634416971355677" lon="12.065864196047187">
        <ele>2007.8499999999999</ele>
        <time>2017-03-10T13:58:17Z</time>
      </trkpt>
      <trkpt lat="46.634400794282556" lon="12.065886156633496">
        <ele>2007.3699999999999</ele>
        <time>2017-03-10T13:58:19Z</time>
      </trkpt>
      <trkpt lat="46.634359136223793" lon="12.065982799977064">
        <ele>2007.3699999999999</ele>
        <time>2017-03-10T13:58:29Z</time>
      </trkpt>
      <trkpt lat="46.634334241971374" lon="12.066074917092919">
        <ele>2007.8499999999999</ele>
        <time>2017-03-10T13:58:39Z</time>
      </trkpt>
      <trkpt lat="46.634332900866866" lon="12.066130489110947">
        <ele>2008.3299999999999</ele>
        <time>2017-03-10T13:58:43Z</time>
      </trkpt>
      <trkpt lat="46.634324099868536" lon="12.066181786358356">
        <ele>2008.3299999999999</ele>
        <time>2017-03-10T13:58:47Z</time>
      </trkpt>
      <trkpt lat="46.634343462064862" lon="12.06617315299809">
        <ele>2008.3299999999999</ele>
        <time>2017-03-10T13:58:59Z</time>
      </trkpt>
      <trkpt lat="46.634319657459855" lon="12.066251272335649">
        <ele>2008.3299999999999</ele>
        <time>2017-03-10T13:59:07Z</time>
      </trkpt>
      <trkpt lat="46.634308090433478" lon="12.066289074718952">
        <ele>2008.3299999999999</ele>
        <time>2017-03-10T13:59:17Z</time>
      </trkpt>
      <trkpt lat="46.634317561984062" lon="12.06627725623548">
        <ele>2009.77</ele>
        <time>2017-03-10T13:59:34Z</time>
      </trkpt>
      <trkpt lat="46.634304570034146" lon="12.066328804939985">
        <ele>2009.29</ele>
        <time>2017-03-10T13:59:46Z</time>
      </trkpt>
      <trkpt lat="46.634254278615117" lon="12.066464843228459">
        <ele>2009.77</ele>
        <time>2017-03-10T13:59:58Z</time>
      </trkpt>
      <trkpt lat="46.634252434596419" lon="12.066541872918606">
        <ele>2010.25</ele>
        <time>2017-03-10T14:00:07Z</time>
      </trkpt>
      <trkpt lat="46.634252183139324" lon="12.066583447158337">
        <ele>2010.25</ele>
        <time>2017-03-10T14:00:16Z</time>
      </trkpt>
      <trkpt lat="46.63424463942647" lon="12.066740859299898">
        <ele>2010.73</ele>
        <time>2017-03-10T14:00:28Z</time>
      </trkpt>
      <trkpt lat="46.634238939732313" lon="12.066908497363329">
        <ele>2010.73</ele>
        <time>2017-03-10T14:00:41Z</time>
      </trkpt>
      <trkpt lat="46.634238185361028" lon="12.0670360699296">
        <ele>2011.7</ele>
        <time>2017-03-10T14:00:51Z</time>
      </trkpt>
      <trkpt lat="46.634241370484233" lon="12.067147716879845">
        <ele>2012.1800000000001</ele>
        <time>2017-03-10T14:01:02Z</time>
      </trkpt>
      <trkpt lat="46.634261487051845" lon="12.067160792648792">
        <ele>2012.1800000000001</ele>
        <time>2017-03-10T14:01:05Z</time>
      </trkpt>
      <trkpt lat="46.634310688823462" lon="12.067244192585349">
        <ele>2012.1800000000001</ele>
        <time>2017-03-10T14:01:15Z</time>
      </trkpt>
      <trkpt lat="46.634350167587399" lon="12.067288113757968">
        <ele>2012.1800000000001</ele>
        <time>2017-03-10T14:01:21Z</time>
      </trkpt>
      <trkpt lat="46.634406745433807" lon="12.067417027428746">
        <ele>2012.6600000000001</ele>
        <time>2017-03-10T14:01:33Z</time>
      </trkpt>
      <trkpt lat="46.634448235854506" lon="12.067563207820058">
        <ele>2012.1800000000001</ele>
        <time>2017-03-10T14:01:45Z</time>
      </trkpt>
      <trkpt lat="46.634501796215773" lon="12.067697988823056">
        <ele>2012.6600000000001</ele>
        <time>2017-03-10T14:01:57Z</time>
      </trkpt>
      <trkpt lat="46.634522248059511" lon="12.067777868360281">
        <ele>2012.1800000000001</ele>
        <time>2017-03-10T14:02:04Z</time>
      </trkpt>
      <trkpt lat="46.63456373848021" lon="12.06792488694191">
        <ele>2012.6600000000001</ele>
        <time>2017-03-10T14:02:16Z</time>
      </trkpt>
      <trkpt lat="46.634594751521945" lon="12.068009879440069">
        <ele>2013.1400000000001</ele>
        <time>2017-03-10T14:02:24Z</time>
      </trkpt>
      <trkpt lat="46.634611431509256" lon="12.068046005442739">
        <ele>2012.1800000000001</ele>
        <time>2017-03-10T14:02:35Z</time>
      </trkpt>
      <trkpt lat="46.634591231122613" lon="12.068010717630386">
        <ele>2012.6600000000001</ele>
        <time>2017-03-10T14:02:51Z</time>
      </trkpt>
      <trkpt lat="46.634601289406419" lon="12.068026224151254">
        <ele>2012.6600000000001</ele>
        <time>2017-03-10T14:03:06Z</time>
      </trkpt>
      <trkpt lat="46.634600535035133" lon="12.067998899146914">
        <ele>2012.6600000000001</ele>
        <time>2017-03-10T14:03:25Z</time>
      </trkpt>
      <trkpt lat="46.634596176445484" lon="12.068012226372957">
        <ele>2011.7</ele>
        <time>2017-03-10T14:03:29Z</time>
      </trkpt>
      <trkpt lat="46.634599613025784" lon="12.068038210272789">
        <ele>2011.7</ele>
        <time>2017-03-10T14:03:41Z</time>
      </trkpt>
      <trkpt lat="46.634601289406419" lon="12.068035779520869">
        <ele>2012.6600000000001</ele>
        <time>2017-03-10T14:03:43Z</time>
      </trkpt>
      <trkpt lat="46.634582178667188" lon="12.06809101626277">
        <ele>2012.6600000000001</ele>
        <time>2017-03-10T14:03:50Z</time>
      </trkpt>
      <trkpt lat="46.634569270536304" lon="12.06808615475893">
        <ele>2012.6600000000001</ele>
        <time>2017-03-10T14:04:01Z</time>
      </trkpt>
      <trkpt lat="46.634609755128622" lon="12.068208698183298">
        <ele>2012.6600000000001</ele>
        <time>2017-03-10T14:04:13Z</time>
      </trkpt>
      <trkpt lat="46.634588800370693" lon="12.068408858031034">
        <ele>2011.7</ele>
        <time>2017-03-10T14:04:25Z</time>
      </trkpt>
      <trkpt lat="46.634584693238139" lon="12.068440793082118">
        <ele>2010.73</ele>
        <time>2017-03-10T14:04:27Z</time>
      </trkpt>
      <trkpt lat="46.634575054049492" lon="12.068503322079778">
        <ele>2010.73</ele>
        <time>2017-03-10T14:04:31Z</time>
      </trkpt>
      <trkpt lat="46.634515542536974" lon="12.06861387938261">
        <ele>2010.73</ele>
        <time>2017-03-10T14:04:40Z</time>
      </trkpt>
      <trkpt lat="46.634499365463853" lon="12.068635504692793">
        <ele>2011.22</ele>
        <time>2017-03-10T14:04:42Z</time>
      </trkpt>
      <trkpt lat="46.634456450119615" lon="12.068662326782942">
        <ele>2010.73</ele>
        <time>2017-03-10T14:04:52Z</time>
      </trkpt>
      <trkpt lat="46.634449157863855" lon="12.068682108074427">
        <ele>2009.77</ele>
        <time>2017-03-10T14:05:07Z</time>
      </trkpt>
      <trkpt lat="46.634459886699915" lon="12.068683030083776">
        <ele>2009.77</ele>
        <time>2017-03-10T14:05:31Z</time>
      </trkpt>
      <trkpt lat="46.634462149813771" lon="12.068679509684443">
        <ele>2009.77</ele>
        <time>2017-03-10T14:05:45Z</time>
      </trkpt>
      <trkpt lat="46.634492408484221" lon="12.068676073104143">
        <ele>2008.3299999999999</ele>
        <time>2017-03-10T14:05:48Z</time>
      </trkpt>
      <trkpt lat="46.634521661326289" lon="12.068646568804979">
        <ele>2008.3299999999999</ele>
        <time>2017-03-10T14:05:58Z</time>
      </trkpt>
      <trkpt lat="46.634533479809761" lon="12.068704152479768">
        <ele>2009.29</ele>
        <time>2017-03-10T14:06:09Z</time>
      </trkpt>
      <trkpt lat="46.634526774287224" lon="12.068712953478098">
        <ele>2009.29</ele>
        <time>2017-03-10T14:06:20Z</time>
      </trkpt>
      <trkpt lat="46.634521996602416" lon="12.0687301363796">
        <ele>2008.8099999999999</ele>
        <time>2017-03-10T14:06:23Z</time>
      </trkpt>
      <trkpt lat="46.634496264159679" lon="12.068853517994285">
        <ele>2008.8099999999999</ele>
        <time>2017-03-10T14:06:35Z</time>
      </trkpt>
      <trkpt lat="46.634485702961683" lon="12.068959884345531">
        <ele>2009.29</ele>
        <time>2017-03-10T14:06:44Z</time>
      </trkpt>
      <trkpt lat="46.634485451504588" lon="12.068981509655714">
        <ele>2009.77</ele>
        <time>2017-03-10T14:06:46Z</time>
      </trkpt>
      <trkpt lat="46.63447086699307" lon="12.06905267201364">
        <ele>2009.29</ele>
        <time>2017-03-10T14:06:52Z</time>
      </trkpt>
      <trkpt lat="46.634463826194406" lon="12.069127857685089">
        <ele>2009.77</ele>
        <time>2017-03-10T14:06:58Z</time>
      </trkpt>
      <trkpt lat="46.634452762082219" lon="12.069240175187588">
        <ele>2010.25</ele>
        <time>2017-03-10T14:07:07Z</time>
      </trkpt>
      <trkpt lat="46.634427951648831" lon="12.069368502125144">
        <ele>2009.77</ele>
        <time>2017-03-10T14:07:18Z</time>
      </trkpt>
      <trkpt lat="46.634401716291904" lon="12.069422481581569">
        <ele>2010.25</ele>
        <time>2017-03-10T14:07:26Z</time>
      </trkpt>
      <trkpt lat="46.634371457621455" lon="12.069549132138491">
        <ele>2010.73</ele>
        <time>2017-03-10T14:07:37Z</time>
      </trkpt>
      <trkpt lat="46.634327955543995" lon="12.069665808230639">
        <ele>2009.29</ele>
        <time>2017-03-10T14:07:48Z</time>
      </trkpt>
      <trkpt lat="46.634288057684898" lon="12.069799667224288">
        <ele>2008.3299999999999</ele>
        <time>2017-03-10T14:07:59Z</time>
      </trkpt>
      <trkpt lat="46.634263666346669" lon="12.069948865100741">
        <ele>2007.3699999999999</ele>
        <time>2017-03-10T14:08:11Z</time>
      </trkpt>
      <trkpt lat="46.634247321635485" lon="12.07006361335516">
        <ele>2006.8900000000001</ele>
        <time>2017-03-10T14:08:20Z</time>
      </trkpt>
      <trkpt lat="46.634218571707606" lon="12.070224294438958">
        <ele>2005.9300000000001</ele>
        <time>2017-03-10T14:08:32Z</time>
      </trkpt>
      <trkpt lat="46.634204657748342" lon="12.070326553657651">
        <ele>2006.4100000000001</ele>
        <time>2017-03-10T14:08:41Z</time>
      </trkpt>
      <trkpt lat="46.634190576151013" lon="12.070401823148131">
        <ele>2007.8499999999999</ele>
        <time>2017-03-10T14:08:52Z</time>
      </trkpt>
      <trkpt lat="46.634183451533318" lon="12.070521600544453">
        <ele>2007.3699999999999</ele>
        <time>2017-03-10T14:09:01Z</time>
      </trkpt>
      <trkpt lat="46.634181356057525" lon="12.070640791207552">
        <ele>2006.4100000000001</ele>
        <time>2017-03-10T14:09:10Z</time>
      </trkpt>
      <trkpt lat="46.634184289723635" lon="12.070711366832256">
        <ele>2005.9300000000001</ele>
        <time>2017-03-10T14:09:16Z</time>
      </trkpt>
      <trkpt lat="46.634170711040497" lon="12.070855954661965">
        <ele>2004.49</ele>
        <time>2017-03-10T14:09:27Z</time>
      </trkpt>
      <trkpt lat="46.634154953062534" lon="12.07099886611104">
        <ele>2004.49</ele>
        <time>2017-03-10T14:09:38Z</time>
      </trkpt>
      <trkpt lat="46.634154701605439" lon="12.071132306009531">
        <ele>2004.01</ele>
        <time>2017-03-10T14:09:48Z</time>
      </trkpt>
      <trkpt lat="46.634184624999762" lon="12.07125585526228">
        <ele>2004.01</ele>
        <time>2017-03-10T14:09:58Z</time>
      </trkpt>
      <trkpt lat="46.634200969710946" lon="12.071300949901342">
        <ele>2004.01</ele>
        <time>2017-03-10T14:10:02Z</time>
      </trkpt>
      <trkpt lat="46.634224858134985" lon="12.071374794468284">
        <ele>2003.52</ele>
        <time>2017-03-10T14:10:08Z</time>
      </trkpt>
      <trkpt lat="46.634276323020458" lon="12.071520891040564">
        <ele>2004.01</ele>
        <time>2017-03-10T14:10:20Z</time>
      </trkpt>
      <trkpt lat="46.634339522570372" lon="12.071620048955083">
        <ele>2003.04</ele>
        <time>2017-03-10T14:10:30Z</time>
      </trkpt>
      <trkpt lat="46.634417055174708" lon="12.071704706177115">
        <ele>2003.04</ele>
        <time>2017-03-10T14:10:41Z</time>
      </trkpt>
      <trkpt lat="46.634431974962354" lon="12.071722475811839">
        <ele>2002.0799999999999</ele>
        <time>2017-03-10T14:10:44Z</time>
      </trkpt>
      <trkpt lat="46.634449157863855" lon="12.071740077808499">
        <ele>2001.5999999999999</ele>
        <time>2017-03-10T14:10:46Z</time>
      </trkpt>
      <trkpt lat="46.63445670157671" lon="12.071868404746056">
        <ele>2002.0799999999999</ele>
        <time>2017-03-10T14:10:56Z</time>
      </trkpt>
      <trkpt lat="46.634467598050833" lon="12.071915427222848">
        <ele>2002.0799999999999</ele>
        <time>2017-03-10T14:11:00Z</time>
      </trkpt>
      <trkpt lat="46.634496012702584" lon="12.072063870728016">
        <ele>2001.5999999999999</ele>
        <time>2017-03-10T14:11:12Z</time>
      </trkpt>
      <trkpt lat="46.634525684639812" lon="12.072170656174421">
        <ele>2000.6400000000001</ele>
        <time>2017-03-10T14:11:21Z</time>
      </trkpt>
      <trkpt lat="46.634548315778375" lon="12.072302084416151">
        <ele>2000.6400000000001</ele>
        <time>2017-03-10T14:11:32Z</time>
      </trkpt>
      <trkpt lat="46.634553512558341" lon="12.072333935648203">
        <ele>2000.6400000000001</ele>
        <time>2017-03-10T14:11:34Z</time>
      </trkpt>
      <trkpt lat="46.634567761793733" lon="12.072492353618145">
        <ele>1999.6800000000001</ele>
        <time>2017-03-10T14:11:47Z</time>
      </trkpt>
      <trkpt lat="46.634564492851496" lon="12.072612969204783">
        <ele>1999.6800000000001</ele>
        <time>2017-03-10T14:11:57Z</time>
      </trkpt>
      <trkpt lat="46.634562816470861" lon="12.072640042752028">
        <ele>1999.6800000000001</ele>
        <time>2017-03-10T14:11:59Z</time>
      </trkpt>
      <trkpt lat="46.634567929431796" lon="12.072730399668217">
        <ele>2000.1600000000001</ele>
        <time>2017-03-10T14:12:07Z</time>
      </trkpt>
      <trkpt lat="46.634558793157339" lon="12.072835508733988">
        <ele>2001.1199999999999</ele>
        <time>2017-03-10T14:12:16Z</time>
      </trkpt>
      <trkpt lat="46.634535826742649" lon="12.072948245331645">
        <ele>2001.5999999999999</ele>
        <time>2017-03-10T14:12:25Z</time>
      </trkpt>
      <trkpt lat="46.634528785943985" lon="12.073052516207099">
        <ele>2001.5999999999999</ele>
        <time>2017-03-10T14:12:35Z</time>
      </trkpt>
      <trkpt lat="46.634578155353665" lon="12.073113704100251">
        <ele>2001.5999999999999</ele>
        <time>2017-03-10T14:12:44Z</time>
      </trkpt>
      <trkpt lat="46.634614700451493" lon="12.073121499270201">
        <ele>2001.1199999999999</ele>
        <time>2017-03-10T14:12:48Z</time>
      </trkpt>
      <trkpt lat="46.634681168943644" lon="12.073179418221116">
        <ele>2001.1199999999999</ele>
        <time>2017-03-10T14:12:57Z</time>
      </trkpt>
      <trkpt lat="46.634773621335626" lon="12.073250329121947">
        <ele>2000.6400000000001</ele>
        <time>2017-03-10T14:13:09Z</time>
      </trkpt>
      <trkpt lat="46.634836904704571" lon="12.073292741551995">
        <ele>2000.1600000000001</ele>
        <time>2017-03-10T14:13:19Z</time>
      </trkpt>
      <trkpt lat="46.634879233315587" lon="12.073324173688889">
        <ele>2000.1600000000001</ele>
        <time>2017-03-10T14:13:29Z</time>
      </trkpt>
      <trkpt lat="46.634962800890207" lon="12.073407238349319">
        <ele>1999.2</ele>
        <time>2017-03-10T14:13:39Z</time>
      </trkpt>
      <trkpt lat="46.635047206655145" lon="12.073521567508578">
        <ele>1998.24</ele>
        <time>2017-03-10T14:13:51Z</time>
      </trkpt>
      <trkpt lat="46.635116273537278" lon="12.073631873354316">
        <ele>1997.76</ele>
        <time>2017-03-10T14:14:02Z</time>
      </trkpt>
      <trkpt lat="46.63513052277267" lon="12.073651570826769">
        <ele>1997.76</ele>
        <time>2017-03-10T14:14:04Z</time>
      </trkpt>
      <trkpt lat="46.635155333206058" lon="12.073691468685865">
        <ele>1997.76</ele>
        <time>2017-03-10T14:14:08Z</time>
      </trkpt>
      <trkpt lat="46.635189782828093" lon="12.073820801451802">
        <ele>1997.28</ele>
        <time>2017-03-10T14:14:18Z</time>
      </trkpt>
      <trkpt lat="46.63524342700839" lon="12.073932280763984">
        <ele>1996.3199999999999</ele>
        <time>2017-03-10T14:14:28Z</time>
      </trkpt>
      <trkpt lat="46.635310901328921" lon="12.074036886915565">
        <ele>1995.8299999999999</ele>
        <time>2017-03-10T14:14:39Z</time>
      </trkpt>
      <trkpt lat="46.635316349565983" lon="12.074049040675163">
        <ele>1995.8299999999999</ele>
        <time>2017-03-10T14:14:40Z</time>
      </trkpt>
      <trkpt lat="46.635359767824411" lon="12.074149288237095">
        <ele>1994.8699999999999</ele>
        <time>2017-03-10T14:14:49Z</time>
      </trkpt>
      <trkpt lat="46.635370748117566" lon="12.074280884116888">
        <ele>1994.3900000000001</ele>
        <time>2017-03-10T14:14:58Z</time>
      </trkpt>
      <trkpt lat="46.635371167212725" lon="12.074373085051775">
        <ele>1993.4300000000001</ele>
        <time>2017-03-10T14:15:04Z</time>
      </trkpt>
      <trkpt lat="46.635401174426079" lon="12.074476182460785">
        <ele>1992.95</ele>
        <time>2017-03-10T14:15:12Z</time>
      </trkpt>
      <trkpt lat="46.635401090607047" lon="12.074548685923219">
        <ele>1993.4300000000001</ele>
        <time>2017-03-10T14:15:17Z</time>
      </trkpt>
      <trkpt lat="46.635402012616396" lon="12.074577938765287">
        <ele>1992.95</ele>
        <time>2017-03-10T14:15:19Z</time>
      </trkpt>
      <trkpt lat="46.635411148890853" lon="12.074714228510857">
        <ele>1992.95</ele>
        <time>2017-03-10T14:15:29Z</time>
      </trkpt>
      <trkpt lat="46.635388182476163" lon="12.074847165495157">
        <ele>1992.47</ele>
        <time>2017-03-10T14:15:38Z</time>
      </trkpt>
      <trkpt lat="46.635379632934928" lon="12.074896702542901">
        <ele>1992.47</ele>
        <time>2017-03-10T14:15:42Z</time>
      </trkpt>
      <trkpt lat="46.635393714532256" lon="12.074934085831046">
        <ele>1991.99</ele>
        <time>2017-03-10T14:15:45Z</time>
      </trkpt>
      <trkpt lat="46.63540955632925" lon="12.074987562373281">
        <ele>1991.51</ele>
        <time>2017-03-10T14:15:49Z</time>
      </trkpt>
      <trkpt lat="46.635409640148282" lon="12.075141873210669">
        <ele>1989.5899999999999</ele>
        <time>2017-03-10T14:16:00Z</time>
      </trkpt>
      <trkpt lat="46.635359432548285" lon="12.075318731367588">
        <ele>1987.6600000000001</ele>
        <time>2017-03-10T14:16:12Z</time>
      </trkpt>
      <trkpt lat="46.635350044816732" lon="12.075347732752562">
        <ele>1987.1800000000001</ele>
        <time>2017-03-10T14:16:14Z</time>
      </trkpt>
      <trkpt lat="46.635317020118237" lon="12.075483184307814">
        <ele>1985.74</ele>
        <time>2017-03-10T14:16:24Z</time>
      </trkpt>
      <trkpt lat="46.635287348181009" lon="12.075637578964233">
        <ele>1984.78</ele>
        <time>2017-03-10T14:16:35Z</time>
      </trkpt>
      <trkpt lat="46.63526245392859" lon="12.075726762413979">
        <ele>1984.3</ele>
        <time>2017-03-10T14:16:42Z</time>
      </trkpt>
      <trkpt lat="46.635210905224085" lon="12.075876127928495">
        <ele>1984.78</ele>
        <time>2017-03-10T14:16:54Z</time>
      </trkpt>
      <trkpt lat="46.635189615190029" lon="12.075906889513135">
        <ele>1984.78</ele>
        <time>2017-03-10T14:16:57Z</time>
      </trkpt>
      <trkpt lat="46.635105712339282" lon="12.076036892831326">
        <ele>1984.3</ele>
        <time>2017-03-10T14:17:09Z</time>
      </trkpt>
      <trkpt lat="46.635042177513242" lon="12.076148958876729">
        <ele>1983.8199999999999</ele>
        <time>2017-03-10T14:17:19Z</time>
      </trkpt>
      <trkpt lat="46.635015020146966" lon="12.076209811493754">
        <ele>1983.8199999999999</ele>
        <time>2017-03-10T14:17:24Z</time>
      </trkpt>
      <trkpt lat="46.634947210550308" lon="12.076307628303766">
        <ele>1983.8199999999999</ele>
        <time>2017-03-10T14:17:35Z</time>
      </trkpt>
      <trkpt lat="46.634905971586704" lon="12.076409719884396">
        <ele>1984.78</ele>
        <time>2017-03-10T14:17:45Z</time>
      </trkpt>
      <trkpt lat="46.634881999343634" lon="12.076515918597579">
        <ele>1986.7</ele>
        <time>2017-03-10T14:17:55Z</time>
      </trkpt>
      <trkpt lat="46.634882502257824" lon="12.076539471745491">
        <ele>1986.7</ele>
        <time>2017-03-10T14:17:57Z</time>
      </trkpt>
      <trkpt lat="46.634875796735287" lon="12.076653884723783">
        <ele>1987.1800000000001</ele>
        <time>2017-03-10T14:18:07Z</time>
      </trkpt>
      <trkpt lat="46.634865906089544" lon="12.076778272166848">
        <ele>1987.6600000000001</ele>
        <time>2017-03-10T14:18:19Z</time>
      </trkpt>
      <trkpt lat="46.634806646034122" lon="12.076873406767845">
        <ele>1987.6600000000001</ele>
        <time>2017-03-10T14:18:30Z</time>
      </trkpt>
      <trkpt lat="46.63475526496768" lon="12.076954459771514">
        <ele>1988.6199999999999</ele>
        <time>2017-03-10T14:18:41Z</time>
      </trkpt>
      <trkpt lat="46.634709080681205" lon="12.07701095379889">
        <ele>1989.5899999999999</ele>
        <time>2017-03-10T14:18:52Z</time>
      </trkpt>
      <trkpt lat="46.634664069861174" lon="12.077079769223928">
        <ele>1990.0699999999999</ele>
        <time>2017-03-10T14:19:00Z</time>
      </trkpt>
      <trkpt lat="46.634579077363014" lon="12.077160738408566">
        <ele>1990.0699999999999</ele>
        <time>2017-03-10T14:19:12Z</time>
      </trkpt>
      <trkpt lat="46.63451973348856" lon="12.077239360660315">
        <ele>1991.03</ele>
        <time>2017-03-10T14:19:22Z</time>
      </trkpt>
      <trkpt lat="46.634451169520617" lon="12.077322257682681">
        <ele>1991.99</ele>
        <time>2017-03-10T14:19:35Z</time>
      </trkpt>
      <trkpt lat="46.634444463998079" lon="12.077335501089692">
        <ele>1991.99</ele>
        <time>2017-03-10T14:19:36Z</time>
      </trkpt>
      <trkpt lat="46.634366093203425" lon="12.077430551871657">
        <ele>1992.47</ele>
        <time>2017-03-10T14:19:48Z</time>
      </trkpt>
      <trkpt lat="46.634345473721623" lon="12.077445555478334">
        <ele>1992.95</ele>
        <time>2017-03-10T14:19:51Z</time>
      </trkpt>
      <trkpt lat="46.634280011057854" lon="12.07751277834177">
        <ele>1992.47</ele>
        <time>2017-03-10T14:19:59Z</time>
      </trkpt>
      <trkpt lat="46.634197533130646" lon="12.077549574896693">
        <ele>1992.47</ele>
        <time>2017-03-10T14:20:10Z</time>
      </trkpt>
      <trkpt lat="46.634171549230814" lon="12.07757530733943">
        <ele>1992.95</ele>
        <time>2017-03-10T14:20:14Z</time>
      </trkpt>
      <trkpt lat="46.634142296388745" lon="12.077663149684668">
        <ele>1992.95</ele>
        <time>2017-03-10T14:20:23Z</time>
      </trkpt>
      <trkpt lat="46.634155623614788" lon="12.077795416116714">
        <ele>1992.95</ele>
        <time>2017-03-10T14:20:35Z</time>
      </trkpt>
      <trkpt lat="46.63416107185185" lon="12.077859872952104">
        <ele>1992.95</ele>
        <time>2017-03-10T14:20:41Z</time>
      </trkpt>
      <trkpt lat="46.63413810543716" lon="12.0778997708112">
        <ele>1992.47</ele>
        <time>2017-03-10T14:20:44Z</time>
      </trkpt>
      <trkpt lat="46.634098961949348" lon="12.078025750815868">
        <ele>1993.9100000000001</ele>
        <time>2017-03-10T14:20:54Z</time>
      </trkpt>
      <trkpt lat="46.634074905887246" lon="12.078094650059938">
        <ele>1993.9100000000001</ele>
        <time>2017-03-10T14:20:59Z</time>
      </trkpt>
      <trkpt lat="46.634072307497263" lon="12.078138487413526">
        <ele>1994.3900000000001</ele>
        <time>2017-03-10T14:21:02Z</time>
      </trkpt>
      <trkpt lat="46.634037857875228" lon="12.078289948403835">
        <ele>1994.8699999999999</ele>
        <time>2017-03-10T14:21:13Z</time>
      </trkpt>
      <trkpt lat="46.634010784327984" lon="12.078429004177451">
        <ele>1994.8699999999999</ele>
        <time>2017-03-10T14:21:23Z</time>
      </trkpt>
      <trkpt lat="46.634002150967717" lon="12.07845339551568">
        <ele>1994.8699999999999</ele>
        <time>2017-03-10T14:21:25Z</time>
      </trkpt>
      <trkpt lat="46.633996870368719" lon="12.078511817380786">
        <ele>1994.8699999999999</ele>
        <time>2017-03-10T14:21:29Z</time>
      </trkpt>
      <trkpt lat="46.633974993601441" lon="12.078668810427189">
        <ele>1994.8699999999999</ele>
        <time>2017-03-10T14:21:40Z</time>
      </trkpt>
      <trkpt lat="46.63395051844418" lon="12.078797305002809">
        <ele>1994.3900000000001</ele>
        <time>2017-03-10T14:21:50Z</time>
      </trkpt>
      <trkpt lat="46.633916990831494" lon="12.078926302492619">
        <ele>1994.8699999999999</ele>
        <time>2017-03-10T14:22:00Z</time>
      </trkpt>
      <trkpt lat="46.633900478482246" lon="12.079063933342695">
        <ele>1994.3900000000001</ele>
        <time>2017-03-10T14:22:10Z</time>
      </trkpt>
      <trkpt lat="46.63389234803617" lon="12.079123528674245">
        <ele>1993.9100000000001</ele>
        <time>2017-03-10T14:22:18Z</time>
      </trkpt>
      <trkpt lat="46.633879859000444" lon="12.07919217646122">
        <ele>1992.47</ele>
        <time>2017-03-10T14:22:23Z</time>
      </trkpt>
      <trkpt lat="46.633871309459209" lon="12.07929284311831">
        <ele>1991.51</ele>
        <time>2017-03-10T14:22:30Z</time>
      </trkpt>
      <trkpt lat="46.633864352479577" lon="12.079363251104951">
        <ele>1991.03</ele>
        <time>2017-03-10T14:22:36Z</time>
      </trkpt>
      <trkpt lat="46.633816659450531" lon="12.07950540818274">
        <ele>1989.5899999999999</ele>
        <time>2017-03-10T14:22:47Z</time>
      </trkpt>
      <trkpt lat="46.633812636137009" lon="12.079513622447848">
        <ele>1989.5899999999999</ele>
        <time>2017-03-10T14:22:48Z</time>
      </trkpt>
      <trkpt lat="46.633784556761384" lon="12.079585706815124">
        <ele>1989.0999999999999</ele>
        <time>2017-03-10T14:22:53Z</time>
      </trkpt>
      <trkpt lat="46.633757315576077" lon="12.079626526683569">
        <ele>1989.0999999999999</ele>
        <time>2017-03-10T14:22:57Z</time>
      </trkpt>
      <trkpt lat="46.633737199008465" lon="12.079672962427139">
        <ele>1989.0999999999999</ele>
        <time>2017-03-10T14:23:01Z</time>
      </trkpt>
      <trkpt lat="46.633718423545361" lon="12.079715207219124">
        <ele>1989.0999999999999</ele>
        <time>2017-03-10T14:23:04Z</time>
      </trkpt>
      <trkpt lat="46.63368958979845" lon="12.079862309619784">
        <ele>1988.1400000000001</ele>
        <time>2017-03-10T14:23:15Z</time>
      </trkpt>
      <trkpt lat="46.633691936731339" lon="12.079906649887562">
        <ele>1988.1400000000001</ele>
        <time>2017-03-10T14:23:19Z</time>
      </trkpt>
      <trkpt lat="46.633710209280252" lon="12.080055512487888">
        <ele>1987.6600000000001</ele>
        <time>2017-03-10T14:23:30Z</time>
      </trkpt>
      <trkpt lat="46.633730912581086" lon="12.080169757828116">
        <ele>1987.6600000000001</ele>
        <time>2017-03-10T14:23:39Z</time>
      </trkpt>
      <trkpt lat="46.63376921787858" lon="12.0803052932024">
        <ele>1987.1800000000001</ele>
        <time>2017-03-10T14:23:50Z</time>
      </trkpt>
      <trkpt lat="46.633778940886259" lon="12.080416521057487">
        <ele>1986.7</ele>
        <time>2017-03-10T14:23:58Z</time>
      </trkpt>
      <trkpt lat="46.633809870108962" lon="12.080588350072503">
        <ele>1985.74</ele>
        <time>2017-03-10T14:24:10Z</time>
      </trkpt>
      <trkpt lat="46.633891006931663" lon="12.080675521865487">
        <ele>1985.26</ele>
        <time>2017-03-10T14:24:20Z</time>
      </trkpt>
      <trkpt lat="46.633979687467217" lon="12.080779960379004">
        <ele>1984.3</ele>
        <time>2017-03-10T14:24:32Z</time>
      </trkpt>
      <trkpt lat="46.634017825126648" lon="12.080851374194026">
        <ele>1984.3</ele>
        <time>2017-03-10T14:24:41Z</time>
      </trkpt>
      <trkpt lat="46.633960576727986" lon="12.080872831866145">
        <ele>1983.8199999999999</ele>
        <time>2017-03-10T14:25:02Z</time>
      </trkpt>
      <trkpt lat="46.633954206481576" lon="12.080882303416729">
        <ele>1983.8199999999999</ele>
        <time>2017-03-10T14:25:13Z</time>
      </trkpt>
      <trkpt lat="46.633967282250524" lon="12.080878615379333">
        <ele>1984.3</ele>
        <time>2017-03-10T14:25:28Z</time>
      </trkpt>
      <trkpt lat="46.633971557021141" lon="12.080896804109216">
        <ele>1984.3</ele>
        <time>2017-03-10T14:25:50Z</time>
      </trkpt>
      <trkpt lat="46.633968371897936" lon="12.080915663391352">
        <ele>1983.8199999999999</ele>
        <time>2017-03-10T14:26:01Z</time>
      </trkpt>
      <trkpt lat="46.633974742144346" lon="12.080928655341268">
        <ele>1982.3800000000001</ele>
        <time>2017-03-10T14:26:19Z</time>
      </trkpt>
      <trkpt lat="46.633972562849522" lon="12.080898815765977">
        <ele>1981.9000000000001</ele>
        <time>2017-03-10T14:26:33Z</time>
      </trkpt>
      <trkpt lat="46.634008688852191" lon="12.080967044457793">
        <ele>1982.3800000000001</ele>
        <time>2017-03-10T14:26:43Z</time>
      </trkpt>
      <trkpt lat="46.634012125432491" lon="12.081005433574319">
        <ele>1982.3800000000001</ele>
        <time>2017-03-10T14:26:47Z</time>
      </trkpt>
      <trkpt lat="46.634012376889586" lon="12.081032004207373">
        <ele>1981.9000000000001</ele>
        <time>2017-03-10T14:26:49Z</time>
      </trkpt>
      <trkpt lat="46.634028805419803" lon="12.081079529598355">
        <ele>1981.9000000000001</ele>
        <time>2017-03-10T14:26:54Z</time>
      </trkpt>
      <trkpt lat="46.634034924209118" lon="12.081108363345265">
        <ele>1981.4100000000001</ele>
        <time>2017-03-10T14:26:58Z</time>
      </trkpt>
      <trkpt lat="46.634053112939" lon="12.08124004304409">
        <ele>1980.45</ele>
        <time>2017-03-10T14:27:09Z</time>
      </trkpt>
      <trkpt lat="46.634026542305946" lon="12.081368453800678">
        <ele>1978.05</ele>
        <time>2017-03-10T14:27:19Z</time>
      </trkpt>
      <trkpt lat="46.633994104340672" lon="12.081460151821375">
        <ele>1975.6500000000001</ele>
        <time>2017-03-10T14:27:26Z</time>
      </trkpt>
      <trkpt lat="46.633958648890257" lon="12.081583784893155">
        <ele>1975.1700000000001</ele>
        <time>2017-03-10T14:27:35Z</time>
      </trkpt>
      <trkpt lat="46.633927635848522" lon="12.081712447106838">
        <ele>1974.6900000000001</ele>
        <time>2017-03-10T14:27:44Z</time>
      </trkpt>
      <trkpt lat="46.633883798494935" lon="12.081863489001989">
        <ele>1975.1700000000001</ele>
        <time>2017-03-10T14:27:55Z</time>
      </trkpt>
      <trkpt lat="46.633864436298609" lon="12.081980081275105">
        <ele>1975.6500000000001</ele>
        <time>2017-03-10T14:28:04Z</time>
      </trkpt>
      <trkpt lat="46.633853875100613" lon="12.082076389342546">
        <ele>1975.6500000000001</ele>
        <time>2017-03-10T14:28:12Z</time>
      </trkpt>
      <trkpt lat="46.633849097415805" lon="12.082101786509156">
        <ele>1976.1300000000001</ele>
        <time>2017-03-10T14:28:14Z</time>
      </trkpt>
      <trkpt lat="46.633828058838844" lon="12.082266826182604">
        <ele>1976.1300000000001</ele>
        <time>2017-03-10T14:28:26Z</time>
      </trkpt>
      <trkpt lat="46.633826047182083" lon="12.082298509776592">
        <ele>1976.6099999999999</ele>
        <time>2017-03-10T14:28:28Z</time>
      </trkpt>
      <trkpt lat="46.63382294587791" lon="12.082405295222998">
        <ele>1976.1300000000001</ele>
        <time>2017-03-10T14:28:35Z</time>
      </trkpt>
      <trkpt lat="46.633870387449861" lon="12.082535214722157">
        <ele>1975.1700000000001</ele>
        <time>2017-03-10T14:28:44Z</time>
      </trkpt>
      <trkpt lat="46.633873237296939" lon="12.082580728456378">
        <ele>1975.1700000000001</ele>
        <time>2017-03-10T14:28:47Z</time>
      </trkpt>
      <trkpt lat="46.63385471329093" lon="12.082728920504451">
        <ele>1974.2</ele>
        <time>2017-03-10T14:28:57Z</time>
      </trkpt>
      <trkpt lat="46.63385228253901" lon="12.082796478644013">
        <ele>1973.72</ele>
        <time>2017-03-10T14:29:01Z</time>
      </trkpt>
      <trkpt lat="46.633847169578075" lon="12.08282858133316">
        <ele>1974.2</ele>
        <time>2017-03-10T14:29:03Z</time>
      </trkpt>
      <trkpt lat="46.633818838745356" lon="12.08295657299459">
        <ele>1974.2</ele>
        <time>2017-03-10T14:29:12Z</time>
      </trkpt>
      <trkpt lat="46.633790256455541" lon="12.083097891882062">
        <ele>1973.24</ele>
        <time>2017-03-10T14:29:23Z</time>
      </trkpt>
      <trkpt lat="46.633778186514974" lon="12.083137286826968">
        <ele>1973.24</ele>
        <time>2017-03-10T14:29:26Z</time>
      </trkpt>
      <trkpt lat="46.633717166259885" lon="12.083244156092405">
        <ele>1972.76</ele>
        <time>2017-03-10T14:29:37Z</time>
      </trkpt>
      <trkpt lat="46.633727392181754" lon="12.083254465833306">
        <ele>1972.76</ele>
        <time>2017-03-10T14:29:52Z</time>
      </trkpt>
      <trkpt lat="46.633679699152708" lon="12.083371728658676">
        <ele>1972.28</ele>
        <time>2017-03-10T14:30:01Z</time>
      </trkpt>
      <trkpt lat="46.633656229823828" lon="12.083528051152825">
        <ele>1972.76</ele>
        <time>2017-03-10T14:30:12Z</time>
      </trkpt>
      <trkpt lat="46.633647931739688" lon="12.083590663969517">
        <ele>1972.76</ele>
        <time>2017-03-10T14:30:17Z</time>
      </trkpt>
      <trkpt lat="46.633639549836516" lon="12.083699461072683">
        <ele>1972.28</ele>
        <time>2017-03-10T14:30:24Z</time>
      </trkpt>
      <trkpt lat="46.633631084114313" lon="12.083726283162832">
        <ele>1972.28</ele>
        <time>2017-03-10T14:30:26Z</time>
      </trkpt>
      <trkpt lat="46.633580205962062" lon="12.083852682262659">
        <ele>1971.3199999999999</ele>
        <time>2017-03-10T14:30:35Z</time>
      </trkpt>
      <trkpt lat="46.633550366386771" lon="12.083949828520417">
        <ele>1971.3199999999999</ele>
        <time>2017-03-10T14:30:43Z</time>
      </trkpt>
      <trkpt lat="46.633518598973751" lon="12.084103552624583">
        <ele>1972.28</ele>
        <time>2017-03-10T14:30:54Z</time>
      </trkpt>
      <trkpt lat="46.633509462699294" lon="12.084145965054631">
        <ele>1972.28</ele>
        <time>2017-03-10T14:30:57Z</time>
      </trkpt>
      <trkpt lat="46.633475515991449" lon="12.084215031936765">
        <ele>1972.28</ele>
        <time>2017-03-10T14:31:02Z</time>
      </trkpt>
      <trkpt lat="46.633415250107646" lon="12.084365906193852">
        <ele>1970.3599999999999</ele>
        <time>2017-03-10T14:31:14Z</time>
      </trkpt>
      <trkpt lat="46.633409885689616" lon="12.084455341100693">
        <ele>1969.4000000000001</ele>
        <time>2017-03-10T14:31:20Z</time>
      </trkpt>
      <trkpt lat="46.633409801870584" lon="12.084504626691341">
        <ele>1969.4000000000001</ele>
        <time>2017-03-10T14:31:24Z</time>
      </trkpt>
      <trkpt lat="46.633420446887612" lon="12.084570340812206">
        <ele>1967.96</ele>
        <time>2017-03-10T14:31:28Z</time>
      </trkpt>
      <trkpt lat="46.633412735536695" lon="12.084717778488994">
        <ele>1966.51</ele>
        <time>2017-03-10T14:31:37Z</time>
      </trkpt>
      <trkpt lat="46.633395636454225" lon="12.084805704653263">
        <ele>1964.5899999999999</ele>
        <time>2017-03-10T14:31:42Z</time>
      </trkpt>
      <trkpt lat="46.633387673646212" lon="12.084852643311024">
        <ele>1963.1500000000001</ele>
        <time>2017-03-10T14:31:45Z</time>
      </trkpt>
      <trkpt lat="46.633386919274926" lon="12.084870496764779">
        <ele>1963.1500000000001</ele>
        <time>2017-03-10T14:31:46Z</time>
      </trkpt>
      <trkpt lat="46.633354062214494" lon="12.084951382130384">
        <ele>1961.71</ele>
        <time>2017-03-10T14:31:51Z</time>
      </trkpt>
      <trkpt lat="46.633338555693626" lon="12.084986669942737">
        <ele>1962.1900000000001</ele>
        <time>2017-03-10T14:31:53Z</time>
      </trkpt>
      <trkpt lat="46.633322797715664" lon="12.085044924169779">
        <ele>1961.71</ele>
        <time>2017-03-10T14:31:57Z</time>
      </trkpt>
      <trkpt lat="46.633302429690957" lon="12.085090773180127">
        <ele>1960.27</ele>
        <time>2017-03-10T14:32:00Z</time>
      </trkpt>
      <trkpt lat="46.633280552923679" lon="12.085133017972112">
        <ele>1959.3</ele>
        <time>2017-03-10T14:32:03Z</time>
      </trkpt>
      <trkpt lat="46.633230596780777" lon="12.085263356566429">
        <ele>1957.3800000000001</ele>
        <time>2017-03-10T14:32:12Z</time>
      </trkpt>
      <trkpt lat="46.633249707520008" lon="12.085373746231198">
        <ele>1954.98</ele>
        <time>2017-03-10T14:32:22Z</time>
      </trkpt>
      <trkpt lat="46.633267560973763" lon="12.085357485339046">
        <ele>1955.46</ele>
        <time>2017-03-10T14:32:25Z</time>
      </trkpt>
      <trkpt lat="46.633343836292624" lon="12.085280288010836">
        <ele>1952.0899999999999</ele>
        <time>2017-03-10T14:32:35Z</time>
      </trkpt>
      <trkpt lat="46.633425308391452" lon="12.085215663537383">
        <ele>1952.5699999999999</ele>
        <time>2017-03-10T14:32:45Z</time>
      </trkpt>
      <trkpt lat="46.633462607860565" lon="12.085194960236549">
        <ele>1950.1700000000001</ele>
        <time>2017-03-10T14:32:50Z</time>
      </trkpt>
      <trkpt lat="46.633497308939695" lon="12.085177861154079">
        <ele>1947.77</ele>
        <time>2017-03-10T14:32:53Z</time>
      </trkpt>
      <trkpt lat="46.633521365001798" lon="12.085160929709673">
        <ele>1948.73</ele>
        <time>2017-03-10T14:32:56Z</time>
      </trkpt>
      <trkpt lat="46.633585821837187" lon="12.085112063214183">
        <ele>1947.77</ele>
        <time>2017-03-10T14:33:03Z</time>
      </trkpt>
      <trkpt lat="46.633675843477249" lon="12.085060263052583">
        <ele>1945.8499999999999</ele>
        <time>2017-03-10T14:33:12Z</time>
      </trkpt>
      <trkpt lat="46.63368372246623" lon="12.08505037240684">
        <ele>1945.8499999999999</ele>
        <time>2017-03-10T14:33:13Z</time>
      </trkpt>
      <trkpt lat="46.633785478770733" lon="12.08496973849833">
        <ele>1942.48</ele>
        <time>2017-03-10T14:33:24Z</time>
      </trkpt>
      <trkpt lat="46.633863346651196" lon="12.084915842860937">
        <ele>1941.04</ele>
        <time>2017-03-10T14:33:32Z</time>
      </trkpt>
      <trkpt lat="46.633897628635168" lon="12.084887847304344">
        <ele>1940.5599999999999</ele>
        <time>2017-03-10T14:33:35Z</time>
      </trkpt>
      <trkpt lat="46.633965941146016" lon="12.084761029109359">
        <ele>1940.0799999999999</ele>
        <time>2017-03-10T14:33:44Z</time>
      </trkpt>
      <trkpt lat="46.634019836783409" lon="12.084734123200178">
        <ele>1937.6700000000001</ele>
        <time>2017-03-10T14:33:49Z</time>
      </trkpt>
      <trkpt lat="46.634031319990754" lon="12.084767483174801">
        <ele>1937.1900000000001</ele>
        <time>2017-03-10T14:33:51Z</time>
      </trkpt>
      <trkpt lat="46.634022183716297" lon="12.084819953888655">
        <ele>1937.6700000000001</ele>
        <time>2017-03-10T14:33:54Z</time>
      </trkpt>
      <trkpt lat="46.633978514000773" lon="12.084928499534726">
        <ele>1937.1900000000001</ele>
        <time>2017-03-10T14:34:02Z</time>
      </trkpt>
      <trkpt lat="46.634030900895596" lon="12.084933361038566">
        <ele>1936.23</ele>
        <time>2017-03-10T14:34:09Z</time>
      </trkpt>
      <trkpt lat="46.634099129587412" lon="12.084841746836901">
        <ele>1936.23</ele>
        <time>2017-03-10T14:34:17Z</time>
      </trkpt>
      <trkpt lat="46.634166436269879" lon="12.084759771823883">
        <ele>1933.3499999999999</ele>
        <time>2017-03-10T14:34:25Z</time>
      </trkpt>
      <trkpt lat="46.634203232824802" lon="12.084731860086322">
        <ele>1932.3900000000001</ele>
        <time>2017-03-10T14:34:29Z</time>
      </trkpt>
      <trkpt lat="46.634304989129305" lon="12.08464577794075">
        <ele>1929.5</ele>
        <time>2017-03-10T14:34:41Z</time>
      </trkpt>
      <trkpt lat="46.634403560310602" lon="12.084541758522391">
        <ele>1928.54</ele>
        <time>2017-03-10T14:34:51Z</time>
      </trkpt>
      <trkpt lat="46.634425353258848" lon="12.084523737430573">
        <ele>1927.5799999999999</ele>
        <time>2017-03-10T14:34:53Z</time>
      </trkpt>
      <trkpt lat="46.634445050731301" lon="12.084504375234246">
        <ele>1926.6199999999999</ele>
        <time>2017-03-10T14:34:55Z</time>
      </trkpt>
      <trkpt lat="46.634535910561681" lon="12.084448300302029">
        <ele>1924.7</ele>
        <time>2017-03-10T14:35:04Z</time>
      </trkpt>
      <trkpt lat="46.634606318548322" lon="12.0844083186239">
        <ele>1923.25</ele>
        <time>2017-03-10T14:35:12Z</time>
      </trkpt>
      <trkpt lat="46.634657699614763" lon="12.084383340552449">
        <ele>1922.29</ele>
        <time>2017-03-10T14:35:18Z</time>
      </trkpt>
      <trkpt lat="46.63468150421977" lon="12.084399098530412">
        <ele>1921.8099999999999</ele>
        <time>2017-03-10T14:35:20Z</time>
      </trkpt>
      <trkpt lat="46.634689969941974" lon="12.084546117112041">
        <ele>1919.4100000000001</ele>
        <time>2017-03-10T14:35:29Z</time>
      </trkpt>
      <trkpt lat="46.634684354066849" lon="12.084670588374138">
        <ele>1917.49</ele>
        <time>2017-03-10T14:35:37Z</time>
      </trkpt>
      <trkpt lat="46.634658705443144" lon="12.08472934551537">
        <ele>1916.04</ele>
        <time>2017-03-10T14:35:42Z</time>
      </trkpt>
      <trkpt lat="46.634671445935965" lon="12.084788773208857">
        <ele>1915.0799999999999</ele>
        <time>2017-03-10T14:35:48Z</time>
      </trkpt>
      <trkpt lat="46.634743781760335" lon="12.084716102108359">
        <ele>1913.1600000000001</ele>
        <time>2017-03-10T14:35:58Z</time>
      </trkpt>
      <trkpt lat="46.634747134521604" lon="12.084706714376807">
        <ele>1913.1600000000001</ele>
        <time>2017-03-10T14:35:59Z</time>
      </trkpt>
      <trkpt lat="46.634808657690883" lon="12.084588697180152">
        <ele>1912.6800000000001</ele>
        <time>2017-03-10T14:36:09Z</time>
      </trkpt>
      <trkpt lat="46.634842939674854" lon="12.084543853998184">
        <ele>1912.2</ele>
        <time>2017-03-10T14:36:13Z</time>
      </trkpt>
      <trkpt lat="46.634911000728607" lon="12.084465231746435">
        <ele>1910.28</ele>
        <time>2017-03-10T14:36:22Z</time>
      </trkpt>
      <trkpt lat="46.634978894144297" lon="12.084394823759794">
        <ele>1907.3900000000001</ele>
        <time>2017-03-10T14:36:31Z</time>
      </trkpt>
      <trkpt lat="46.635015187785029" lon="12.084458190947771">
        <ele>1906.4300000000001</ele>
        <time>2017-03-10T14:36:40Z</time>
      </trkpt>
      <trkpt lat="46.635010913014412" lon="12.084485683590174">
        <ele>1905.95</ele>
        <time>2017-03-10T14:36:42Z</time>
      </trkpt>
      <trkpt lat="46.635016864165664" lon="12.084524743258953">
        <ele>1904.99</ele>
        <time>2017-03-10T14:36:50Z</time>
      </trkpt>
      <trkpt lat="46.634982246905565" lon="12.08460227586329">
        <ele>1903.0699999999999</ele>
        <time>2017-03-10T14:36:56Z</time>
      </trkpt>
      <trkpt lat="46.634963052347302" lon="12.08464041352272">
        <ele>1901.6300000000001</ele>
        <time>2017-03-10T14:36:59Z</time>
      </trkpt>
      <trkpt lat="46.63497076369822" lon="12.084677210077643">
        <ele>1900.1800000000001</ele>
        <time>2017-03-10T14:37:02Z</time>
      </trkpt>
      <trkpt lat="46.635010410100222" lon="12.084650723263621">
        <ele>1897.3</ele>
        <time>2017-03-10T14:37:08Z</time>
      </trkpt>
      <trkpt lat="46.635016277432442" lon="12.084638234227896">
        <ele>1895.8599999999999</ele>
        <time>2017-03-10T14:37:10Z</time>
      </trkpt>
      <trkpt lat="46.635028515011072" lon="12.084604455158114">
        <ele>1895.8599999999999</ele>
        <time>2017-03-10T14:37:13Z</time>
      </trkpt>
      <trkpt lat="46.635048883035779" lon="12.084560617804527">
        <ele>1892.97</ele>
        <time>2017-03-10T14:37:16Z</time>
      </trkpt>
      <trkpt lat="46.635061288252473" lon="12.084534969180822">
        <ele>1892.01</ele>
        <time>2017-03-10T14:37:18Z</time>
      </trkpt>
      <trkpt lat="46.635096576064825" lon="12.084493478760123">
        <ele>1894.9000000000001</ele>
        <time>2017-03-10T14:37:23Z</time>
      </trkpt>
      <trkpt lat="46.635119123384356" lon="12.084514517337084">
        <ele>1891.05</ele>
        <time>2017-03-10T14:37:33Z</time>
      </trkpt>
      <trkpt lat="46.635124236345291" lon="12.084520468488336">
        <ele>1894.9000000000001</ele>
        <time>2017-03-10T14:37:36Z</time>
      </trkpt>
      <trkpt lat="46.635128427296877" lon="12.08451577462256">
        <ele>1894.9000000000001</ele>
        <time>2017-03-10T14:37:37Z</time>
      </trkpt>
      <trkpt lat="46.635142089799047" lon="12.084492472931743">
        <ele>1897.3</ele>
        <time>2017-03-10T14:37:40Z</time>
      </trkpt>
      <trkpt lat="46.635151728987694" lon="12.0844342187047">
        <ele>1895.8599999999999</ele>
        <time>2017-03-10T14:37:45Z</time>
      </trkpt>
      <trkpt lat="46.635185340419412" lon="12.084366576746106">
        <ele>1895.8599999999999</ele>
        <time>2017-03-10T14:37:54Z</time>
      </trkpt>
      <trkpt lat="46.635197158902884" lon="12.084361296147108">
        <ele>1895.3800000000001</ele>
        <time>2017-03-10T14:37:57Z</time>
      </trkpt>
      <trkpt lat="46.635230351239443" lon="12.084330199286342">
        <ele>1894.9000000000001</ele>
        <time>2017-03-10T14:38:05Z</time>
      </trkpt>
      <trkpt lat="46.635298663750291" lon="12.084288373589516">
        <ele>1894.4200000000001</ele>
        <time>2017-03-10T14:38:14Z</time>
      </trkpt>
      <trkpt lat="46.635330347344279" lon="12.084278985857964">
        <ele>1893.9300000000001</ele>
        <time>2017-03-10T14:38:17Z</time>
      </trkpt>
      <trkpt lat="46.635379046201706" lon="12.084285356104374">
        <ele>1892.97</ele>
        <time>2017-03-10T14:38:21Z</time>
      </trkpt>
      <trkpt lat="46.635475102812052" lon="12.084263395518064">
        <ele>1889.6099999999999</ele>
        <time>2017-03-10T14:38:29Z</time>
      </trkpt>
      <trkpt lat="46.635509384796023" lon="12.084266999736428">
        <ele>1888.1700000000001</ele>
        <time>2017-03-10T14:38:32Z</time>
      </trkpt>
      <trkpt lat="46.635512067005038" lon="12.084349812939763">
        <ele>1885.76</ele>
        <time>2017-03-10T14:38:41Z</time>
      </trkpt>
      <trkpt lat="46.635488430038095" lon="12.084368923678994">
        <ele>1884.8</ele>
        <time>2017-03-10T14:38:44Z</time>
      </trkpt>
      <trkpt lat="46.635464960709214" lon="12.084382670000196">
        <ele>1884.3199999999999</ele>
        <time>2017-03-10T14:38:47Z</time>
      </trkpt>
      <trkpt lat="46.635408466681838" lon="12.084419718012214">
        <ele>1883.3599999999999</ele>
        <time>2017-03-10T14:38:53Z</time>
      </trkpt>
      <trkpt lat="46.635371502488852" lon="12.08445081487298">
        <ele>1882.8800000000001</ele>
        <time>2017-03-10T14:38:57Z</time>
      </trkpt>
      <trkpt lat="46.635392289608717" lon="12.084478726610541">
        <ele>1881.9200000000001</ele>
        <time>2017-03-10T14:39:06Z</time>
      </trkpt>
      <trkpt lat="46.635387847200036" lon="12.084460370242596">
        <ele>1881.9200000000001</ele>
        <time>2017-03-10T14:39:17Z</time>
      </trkpt>
      <trkpt lat="46.635378627106547" lon="12.084457268938422">
        <ele>1881.4400000000001</ele>
        <time>2017-03-10T14:39:30Z</time>
      </trkpt>
      <trkpt lat="46.635360270738602" lon="12.084409324452281">
        <ele>1881.4400000000001</ele>
        <time>2017-03-10T14:39:48Z</time>
      </trkpt>
      <trkpt lat="46.635359097272158" lon="12.084492556750774">
        <ele>1881.9200000000001</ele>
        <time>2017-03-10T14:40:08Z</time>
      </trkpt>
      <trkpt lat="46.635341076180339" lon="12.084489120170474">
        <ele>1881.9200000000001</ele>
        <time>2017-03-10T14:40:25Z</time>
      </trkpt>
      <trkpt lat="46.63535088300705" lon="12.084457604214549">
        <ele>1881.4400000000001</ele>
        <time>2017-03-10T14:40:46Z</time>
      </trkpt>
      <trkpt lat="46.635388266295195" lon="12.08446154370904">
        <ele>1881.4400000000001</ele>
        <time>2017-03-10T14:40:58Z</time>
      </trkpt>
      <trkpt lat="46.635498572140932" lon="12.084506135433912">
        <ele>1879.03</ele>
        <time>2017-03-10T14:41:08Z</time>
      </trkpt>
      <trkpt lat="46.635559508576989" lon="12.084467662498355">
        <ele>1877.5899999999999</ele>
        <time>2017-03-10T14:41:15Z</time>
      </trkpt>
      <trkpt lat="46.635655565187335" lon="12.084363475441933">
        <ele>1875.1900000000001</ele>
        <time>2017-03-10T14:41:26Z</time>
      </trkpt>
      <trkpt lat="46.635810043662786" lon="12.084308573976159">
        <ele>1873.75</ele>
        <time>2017-03-10T14:41:37Z</time>
      </trkpt>
      <trkpt lat="46.635892186313868" lon="12.084318548440933">
        <ele>1872.3</ele>
        <time>2017-03-10T14:41:46Z</time>
      </trkpt>
      <trkpt lat="46.635943148285151" lon="12.0843271818012">
        <ele>1871.3399999999999</ele>
        <time>2017-03-10T14:41:51Z</time>
      </trkpt>
      <trkpt lat="46.636063931509852" lon="12.084293151274323">
        <ele>1869.4200000000001</ele>
        <time>2017-03-10T14:42:02Z</time>
      </trkpt>
      <trkpt lat="46.636139703914523" lon="12.084265071898699">
        <ele>1868.9400000000001</ele>
        <time>2017-03-10T14:42:09Z</time>
      </trkpt>
      <trkpt lat="46.636261073872447" lon="12.084232047200203">
        <ele>1867.98</ele>
        <time>2017-03-10T14:42:21Z</time>
      </trkpt>
      <trkpt lat="46.636376576498151" lon="12.0841976813972">
        <ele>1865.5799999999999</ele>
        <time>2017-03-10T14:42:28Z</time>
      </trkpt>
      <trkpt lat="46.636469196528196" lon="12.084214948117733">
        <ele>1864.1300000000001</ele>
        <time>2017-03-10T14:42:34Z</time>
      </trkpt>
      <trkpt lat="46.636374145746231" lon="12.084288122132421">
        <ele>1861.73</ele>
        <time>2017-03-10T14:42:44Z</time>
      </trkpt>
      <trkpt lat="46.636346401646733" lon="12.084343275055289">
        <ele>1860.77</ele>
        <time>2017-03-10T14:42:50Z</time>
      </trkpt>
      <trkpt lat="46.636285968124866" lon="12.084431704133749">
        <ele>1859.3299999999999</ele>
        <time>2017-03-10T14:42:58Z</time>
      </trkpt>
      <trkpt lat="46.636236263439059" lon="12.084468081593513">
        <ele>1857.4000000000001</ele>
        <time>2017-03-10T14:43:09Z</time>
      </trkpt>
      <trkpt lat="46.636292086914182" lon="12.08440974354744">
        <ele>1855.96</ele>
        <time>2017-03-10T14:43:19Z</time>
      </trkpt>
      <trkpt lat="46.636388981714845" lon="12.084389543160796">
        <ele>1853.0799999999999</ele>
        <time>2017-03-10T14:43:29Z</time>
      </trkpt>
      <trkpt lat="46.636450253427029" lon="12.084369258955121">
        <ele>1852.1199999999999</ele>
        <time>2017-03-10T14:43:35Z</time>
      </trkpt>
      <trkpt lat="46.636463245376945" lon="12.084405720233917">
        <ele>1851.6400000000001</ele>
        <time>2017-03-10T14:43:38Z</time>
      </trkpt>
      <trkpt lat="46.63634573109448" lon="12.084504961967468">
        <ele>1849.71</ele>
        <time>2017-03-10T14:43:49Z</time>
      </trkpt>
      <trkpt lat="46.636337181553245" lon="12.084514517337084">
        <ele>1849.71</ele>
        <time>2017-03-10T14:43:50Z</time>
      </trkpt>
      <trkpt lat="46.636320166289806" lon="12.084536729380488">
        <ele>1849.23</ele>
        <time>2017-03-10T14:43:52Z</time>
      </trkpt>
      <trkpt lat="46.636223271489143" lon="12.084641838446259">
        <ele>1846.8299999999999</ele>
        <time>2017-03-10T14:44:03Z</time>
      </trkpt>
      <trkpt lat="46.636220840737224" lon="12.084712749347091">
        <ele>1843.95</ele>
        <time>2017-03-10T14:44:12Z</time>
      </trkpt>
      <trkpt lat="46.636281944811344" lon="12.084674695506692">
        <ele>1842.02</ele>
        <time>2017-03-10T14:44:21Z</time>
      </trkpt>
      <trkpt lat="46.636308096349239" lon="12.084677210077643">
        <ele>1841.0599999999999</ele>
        <time>2017-03-10T14:44:25Z</time>
      </trkpt>
      <trkpt lat="46.636366518214345" lon="12.084661955013871">
        <ele>1839.6199999999999</ele>
        <time>2017-03-10T14:44:33Z</time>
      </trkpt>
      <trkpt lat="46.636436507105827" lon="12.084630774334073">
        <ele>1838.6600000000001</ele>
        <time>2017-03-10T14:44:40Z</time>
      </trkpt>
      <trkpt lat="46.636463664472103" lon="12.084660110995173">
        <ele>1838.1800000000001</ele>
        <time>2017-03-10T14:44:42Z</time>
      </trkpt>
      <trkpt lat="46.636467855423689" lon="12.084695734083652">
        <ele>1837.22</ele>
        <time>2017-03-10T14:44:45Z</time>
      </trkpt>
      <trkpt lat="46.636408679187298" lon="12.084769494831562">
        <ele>1834.3299999999999</ele>
        <time>2017-03-10T14:44:57Z</time>
      </trkpt>
      <trkpt lat="46.636397195979953" lon="12.084802351891994">
        <ele>1833.8499999999999</ele>
        <time>2017-03-10T14:45:00Z</time>
      </trkpt>
      <trkpt lat="46.636384623125196" lon="12.084888434037566">
        <ele>1832.4100000000001</ele>
        <time>2017-03-10T14:45:05Z</time>
      </trkpt>
      <trkpt lat="46.636370876803994" lon="12.084962110966444">
        <ele>1831.45</ele>
        <time>2017-03-10T14:45:10Z</time>
      </trkpt>
      <trkpt lat="46.636342043057084" lon="12.085001757368445">
        <ele>1830.49</ele>
        <time>2017-03-10T14:45:13Z</time>
      </trkpt>
      <trkpt lat="46.636291248723865" lon="12.085063783451915">
        <ele>1829.53</ele>
        <time>2017-03-10T14:45:18Z</time>
      </trkpt>
      <trkpt lat="46.636226791888475" lon="12.085173754021525">
        <ele>1826.6400000000001</ele>
        <time>2017-03-10T14:45:28Z</time>
      </trkpt>
      <trkpt lat="46.636151019483805" lon="12.085303589701653">
        <ele>1824.24</ele>
        <time>2017-03-10T14:45:38Z</time>
      </trkpt>
      <trkpt lat="46.636067116633058" lon="12.085426971316338">
        <ele>1821.3499999999999</ele>
        <time>2017-03-10T14:45:48Z</time>
      </trkpt>
      <trkpt lat="46.636054795235395" lon="12.085465947166085">
        <ele>1820.3900000000001</ele>
        <time>2017-03-10T14:45:52Z</time>
      </trkpt>
      <trkpt lat="46.636047838255763" lon="12.085487907752395">
        <ele>1819.9100000000001</ele>
        <time>2017-03-10T14:45:54Z</time>
      </trkpt>
      <trkpt lat="46.636014813557267" lon="12.085528476163745">
        <ele>1818.95</ele>
        <time>2017-03-10T14:45:58Z</time>
      </trkpt>
      <trkpt lat="46.635932754725218" lon="12.085599889978766">
        <ele>1818.47</ele>
        <time>2017-03-10T14:46:07Z</time>
      </trkpt>
      <trkpt lat="46.635939124971628" lon="12.085671639069915">
        <ele>1816.55</ele>
        <time>2017-03-10T14:46:17Z</time>
      </trkpt>
      <trkpt lat="46.635946920141578" lon="12.085669292137027">
        <ele>1816.0699999999999</ele>
        <time>2017-03-10T14:46:19Z</time>
      </trkpt>
      <trkpt lat="46.635965444147587" lon="12.085666945204139">
        <ele>1815.5899999999999</ele>
        <time>2017-03-10T14:46:21Z</time>
      </trkpt>
      <trkpt lat="46.63606770336628" lon="12.085712794214487">
        <ele>1813.6600000000001</ele>
        <time>2017-03-10T14:46:31Z</time>
      </trkpt>
      <trkpt lat="46.636075582355261" lon="12.085761409252882">
        <ele>1812.7</ele>
        <time>2017-03-10T14:46:34Z</time>
      </trkpt>
      <trkpt lat="46.636052280664444" lon="12.08585855551064">
        <ele>1810.3</ele>
        <time>2017-03-10T14:46:42Z</time>
      </trkpt>
      <trkpt lat="46.635942393913865" lon="12.085993839427829">
        <ele>1807.4200000000001</ele>
        <time>2017-03-10T14:46:54Z</time>
      </trkpt>
      <trkpt lat="46.635882379487157" lon="12.086056871339679">
        <ele>1806.45</ele>
        <time>2017-03-10T14:47:01Z</time>
      </trkpt>
      <trkpt lat="46.635798895731568" lon="12.086147395893931">
        <ele>1805.49</ele>
        <time>2017-03-10T14:47:09Z</time>
      </trkpt>
      <trkpt lat="46.635704934597015" lon="12.086231298744678">
        <ele>1804.05</ele>
        <time>2017-03-10T14:47:18Z</time>
      </trkpt>
      <trkpt lat="46.635610805824399" lon="12.086279075592756">
        <ele>1802.1300000000001</ele>
        <time>2017-03-10T14:47:27Z</time>
      </trkpt>
      <trkpt lat="46.635553389787674" lon="12.086324170231819">
        <ele>1801.6500000000001</ele>
        <time>2017-03-10T14:47:32Z</time>
      </trkpt>
      <trkpt lat="46.635515755042434" lon="12.086380999535322">
        <ele>1801.1700000000001</ele>
        <time>2017-03-10T14:47:36Z</time>
      </trkpt>
      <trkpt lat="46.635481975972652" lon="12.086512176319957">
        <ele>1798.76</ele>
        <time>2017-03-10T14:47:45Z</time>
      </trkpt>
      <trkpt lat="46.635478623211384" lon="12.086527263745666">
        <ele>1798.28</ele>
        <time>2017-03-10T14:47:46Z</time>
      </trkpt>
      <trkpt lat="46.635463032871485" lon="12.086605634540319">
        <ele>1797.3199999999999</ele>
        <time>2017-03-10T14:47:51Z</time>
      </trkpt>
      <trkpt lat="46.635449035093188" lon="12.086723148822784">
        <ele>1795.8800000000001</ele>
        <time>2017-03-10T14:47:58Z</time>
      </trkpt>
      <trkpt lat="46.635456662625074" lon="12.086757933720946">
        <ele>1795.4000000000001</ele>
        <time>2017-03-10T14:48:00Z</time>
      </trkpt>
      <trkpt lat="46.635454567149282" lon="12.086794562637806">
        <ele>1794.9200000000001</ele>
        <time>2017-03-10T14:48:02Z</time>
      </trkpt>
      <trkpt lat="46.635479126125574" lon="12.086858935654163">
        <ele>1793.96</ele>
        <time>2017-03-10T14:48:06Z</time>
      </trkpt>
      <trkpt lat="46.635533273220062" lon="12.086984496563673">
        <ele>1791.0699999999999</ele>
        <time>2017-03-10T14:48:15Z</time>
      </trkpt>
      <trkpt lat="46.635591192170978" lon="12.087115924805403">
        <ele>1790.1099999999999</ele>
        <time>2017-03-10T14:48:24Z</time>
      </trkpt>
      <trkpt lat="46.635598987340927" lon="12.087141489610076">
        <ele>1788.1900000000001</ele>
        <time>2017-03-10T14:48:26Z</time>
      </trkpt>
      <trkpt lat="46.635569985955954" lon="12.087256908416748">
        <ele>1786.27</ele>
        <time>2017-03-10T14:48:33Z</time>
      </trkpt>
      <trkpt lat="46.635440066456795" lon="12.087376350536942">
        <ele>1783.3800000000001</ele>
        <time>2017-03-10T14:48:44Z</time>
      </trkpt>
      <trkpt lat="46.635410813614726" lon="12.087433682754636">
        <ele>1782.4200000000001</ele>
        <time>2017-03-10T14:48:49Z</time>
      </trkpt>
      <trkpt lat="46.635372508317232" lon="12.087632333859801">
        <ele>1780.98</ele>
        <time>2017-03-10T14:49:01Z</time>
      </trkpt>
      <trkpt lat="46.635336969047785" lon="12.087751943618059">
        <ele>1779.54</ele>
        <time>2017-03-10T14:49:10Z</time>
      </trkpt>
      <trkpt lat="46.635321378707886" lon="12.087869625538588">
        <ele>1777.1300000000001</ele>
        <time>2017-03-10T14:49:20Z</time>
      </trkpt>
      <trkpt lat="46.635355995967984" lon="12.08786292001605">
        <ele>1776.6500000000001</ele>
        <time>2017-03-10T14:49:24Z</time>
      </trkpt>
      <trkpt lat="46.635386673733592" lon="12.087835762649775">
        <ele>1775.6900000000001</ele>
        <time>2017-03-10T14:49:28Z</time>
      </trkpt>
      <trkpt lat="46.63548868149519" lon="12.087843976914883">
        <ele>1775.21</ele>
        <time>2017-03-10T14:49:38Z</time>
      </trkpt>
      <trkpt lat="46.635505110025406" lon="12.087862668558955">
        <ele>1775.21</ele>
        <time>2017-03-10T14:49:40Z</time>
      </trkpt>
      <trkpt lat="46.635576523840427" lon="12.087989067658782">
        <ele>1773.29</ele>
        <time>2017-03-10T14:49:50Z</time>
      </trkpt>
      <trkpt lat="46.635607536882162" lon="12.088123261928558">
        <ele>1770.8900000000001</ele>
        <time>2017-03-10T14:49:59Z</time>
      </trkpt>
      <trkpt lat="46.635635197162628" lon="12.088267430663109">
        <ele>1769.4400000000001</ele>
        <time>2017-03-10T14:50:08Z</time>
      </trkpt>
      <trkpt lat="46.635642740875483" lon="12.088298527523875">
        <ele>1768.96</ele>
        <time>2017-03-10T14:50:10Z</time>
      </trkpt>
      <trkpt lat="46.635644752532244" lon="12.088349908590317">
        <ele>1768</ele>
        <time>2017-03-10T14:50:13Z</time>
      </trkpt>
      <trkpt lat="46.635672496631742" lon="12.088425513356924">
        <ele>1767.04</ele>
        <time>2017-03-10T14:50:18Z</time>
      </trkpt>
      <trkpt lat="46.635709712281823" lon="12.088511008769274">
        <ele>1766.0799999999999</ele>
        <time>2017-03-10T14:50:25Z</time>
      </trkpt>
      <trkpt lat="46.635749107226729" lon="12.08856406621635">
        <ele>1765.1199999999999</ele>
        <time>2017-03-10T14:50:31Z</time>
      </trkpt>
      <trkpt lat="46.635797470808029" lon="12.088663894683123">
        <ele>1765.1199999999999</ele>
        <time>2017-03-10T14:50:42Z</time>
      </trkpt>
      <trkpt lat="46.635805768892169" lon="12.088681580498815">
        <ele>1766.0799999999999</ele>
        <time>2017-03-10T14:50:45Z</time>
      </trkpt>
      <trkpt lat="46.635835440829396" lon="12.088718628510833">
        <ele>1766.0799999999999</ele>
        <time>2017-03-10T14:50:49Z</time>
      </trkpt>
      <trkpt lat="46.635855305939913" lon="12.088734805583954">
        <ele>1765.5999999999999</ele>
        <time>2017-03-10T14:50:51Z</time>
      </trkpt>
      <trkpt lat="46.635867040604353" lon="12.088746540248394">
        <ele>1765.1199999999999</ele>
        <time>2017-03-10T14:50:52Z</time>
      </trkpt>
      <trkpt lat="46.635905597358942" lon="12.088815774768591">
        <ele>1763.6800000000001</ele>
        <time>2017-03-10T14:50:58Z</time>
      </trkpt>
      <trkpt lat="46.635962761938572" lon="12.088928008452058">
        <ele>1763.2</ele>
        <time>2017-03-10T14:51:07Z</time>
      </trkpt>
      <trkpt lat="46.63600517436862" lon="12.089024903252721">
        <ele>1763.2</ele>
        <time>2017-03-10T14:51:16Z</time>
      </trkpt>
      <trkpt lat="46.63602621294558" lon="12.089075110852718">
        <ele>1763.6800000000001</ele>
        <time>2017-03-10T14:51:21Z</time>
      </trkpt>
      <trkpt lat="46.636072061955929" lon="12.089200420305133">
        <ele>1762.71</ele>
        <time>2017-03-10T14:51:31Z</time>
      </trkpt>
      <trkpt lat="46.636095112189651" lon="12.08923009224236">
        <ele>1762.23</ele>
        <time>2017-03-10T14:51:34Z</time>
      </trkpt>
      <trkpt lat="46.636101063340902" lon="12.089268313720822">
        <ele>1763.6800000000001</ele>
        <time>2017-03-10T14:51:37Z</time>
      </trkpt>
      <trkpt lat="46.636117491871119" lon="12.089300835505128">
        <ele>1763.6800000000001</ele>
        <time>2017-03-10T14:51:40Z</time>
      </trkpt>
      <trkpt lat="46.636170968413353" lon="12.089424384757876">
        <ele>1762.23</ele>
        <time>2017-03-10T14:51:52Z</time>
      </trkpt>
      <trkpt lat="46.63619820959866" lon="12.089477106928825">
        <ele>1764.1600000000001</ele>
        <time>2017-03-10T14:51:57Z</time>
      </trkpt>
      <trkpt lat="46.636193348094821" lon="12.089623874053359">
        <ele>1764.1600000000001</ele>
        <time>2017-03-10T14:52:08Z</time>
      </trkpt>
      <trkpt lat="46.636162586510181" lon="12.089674836024642">
        <ele>1765.5999999999999</ele>
        <time>2017-03-10T14:52:19Z</time>
      </trkpt>
      <trkpt lat="46.636160742491484" lon="12.089674333110452">
        <ele>1764.1600000000001</ele>
        <time>2017-03-10T14:52:22Z</time>
      </trkpt>
      <trkpt lat="46.63616250269115" lon="12.089670058339834">
        <ele>1764.1600000000001</ele>
        <time>2017-03-10T14:52:23Z</time>
      </trkpt>
      <trkpt lat="46.636189827695489" lon="12.089607277885079">
        <ele>1762.71</ele>
        <time>2017-03-10T14:52:32Z</time>
      </trkpt>
      <trkpt lat="46.636184547096491" lon="12.089564362540841">
        <ele>1763.2</ele>
        <time>2017-03-10T14:52:57Z</time>
      </trkpt>
      <trkpt lat="46.636171219870448" lon="12.089568637311459">
        <ele>1762.23</ele>
        <time>2017-03-10T14:53:13Z</time>
      </trkpt>
      <trkpt lat="46.636166023090482" lon="12.089569056406617">
        <ele>1763.2</ele>
        <time>2017-03-10T14:53:33Z</time>
      </trkpt>
      <trkpt lat="46.636180523782969" lon="12.089547263458371">
        <ele>1763.6800000000001</ele>
        <time>2017-03-10T14:53:56Z</time>
      </trkpt>
      <trkpt lat="46.636172225698829" lon="12.089575510472059">
        <ele>1762.23</ele>
        <time>2017-03-10T14:54:10Z</time>
      </trkpt>
      <trkpt lat="46.636158647015691" lon="12.089569643139839">
        <ele>1763.6800000000001</ele>
        <time>2017-03-10T14:54:14Z</time>
      </trkpt>
      <trkpt lat="46.636169124394655" lon="12.089586993679404">
        <ele>1765.1199999999999</ele>
        <time>2017-03-10T14:54:24Z</time>
      </trkpt>
      <trkpt lat="46.636132327839732" lon="12.089610211551189">
        <ele>1765.1199999999999</ele>
        <time>2017-03-10T14:54:34Z</time>
      </trkpt>
      <trkpt lat="46.636129477992654" lon="12.089596968144178">
        <ele>1765.1199999999999</ele>
        <time>2017-03-10T14:54:48Z</time>
      </trkpt>
      <trkpt lat="46.636119168251753" lon="12.089602751657367">
        <ele>1764.1600000000001</ele>
        <time>2017-03-10T14:55:03Z</time>
      </trkpt>
      <trkpt lat="46.636109529063106" lon="12.089640134945512">
        <ele>1764.1600000000001</ele>
        <time>2017-03-10T14:55:24Z</time>
      </trkpt>
      <trkpt lat="46.636096620932221" lon="12.089620940387249">
        <ele>1764.6400000000001</ele>
        <time>2017-03-10T14:55:37Z</time>
      </trkpt>
      <trkpt lat="46.636096118018031" lon="12.089645667001605">
        <ele>1765.1199999999999</ele>
        <time>2017-03-10T14:55:52Z</time>
      </trkpt>
      <trkpt lat="46.636123862117529" lon="12.089634519070387">
        <ele>1764.6400000000001</ele>
        <time>2017-03-10T14:56:11Z</time>
      </trkpt>
      <trkpt lat="46.636119838804007" lon="12.089633429422975">
        <ele>1764.6400000000001</ele>
        <time>2017-03-10T14:56:22Z</time>
      </trkpt>
      <trkpt lat="46.6361029073596" lon="12.089627394452691">
        <ele>1764.1600000000001</ele>
        <time>2017-03-10T14:56:39Z</time>
      </trkpt>
      <trkpt lat="46.636105254292488" lon="12.089656060561538">
        <ele>1765.5999999999999</ele>
        <time>2017-03-10T14:56:50Z</time>
      </trkpt>
      <trkpt lat="46.636127214878798" lon="12.08968061953783">
        <ele>1765.1199999999999</ele>
        <time>2017-03-10T14:57:07Z</time>
      </trkpt>
      <trkpt lat="46.636111792176962" lon="12.089657988399267">
        <ele>1764.6400000000001</ele>
        <time>2017-03-10T14:57:21Z</time>
      </trkpt>
      <trkpt lat="46.636128891259432" lon="12.089629992842674">
        <ele>1766.5599999999999</ele>
        <time>2017-03-10T14:57:40Z</time>
      </trkpt>
      <trkpt lat="46.636126460507512" lon="12.08966008387506">
        <ele>1766.0799999999999</ele>
        <time>2017-03-10T14:57:56Z</time>
      </trkpt>
      <trkpt lat="46.636119252070785" lon="12.089642062783241">
        <ele>1765.1199999999999</ele>
        <time>2017-03-10T14:58:13Z</time>
      </trkpt>
      <trkpt lat="46.636115983128548" lon="12.089638290926814">
        <ele>1765.5999999999999</ele>
        <time>2017-03-10T14:58:24Z</time>
      </trkpt>
      <trkpt lat="46.636096620932221" lon="12.089636279270053">
        <ele>1766.5599999999999</ele>
        <time>2017-03-10T14:58:38Z</time>
      </trkpt>
      <trkpt lat="46.636096118018031" lon="12.089644996449351">
        <ele>1765.1199999999999</ele>
        <time>2017-03-10T14:58:42Z</time>
      </trkpt>
      <trkpt lat="46.636081617325544" lon="12.089640973135829">
        <ele>1766.0799999999999</ele>
        <time>2017-03-10T14:59:02Z</time>
      </trkpt>
      <trkpt lat="46.63606770336628" lon="12.089670645073056">
        <ele>1768</ele>
        <time>2017-03-10T14:59:19Z</time>
      </trkpt>
      <trkpt lat="46.636077091097832" lon="12.089655892923474">
        <ele>1767.52</ele>
        <time>2017-03-10T14:59:30Z</time>
      </trkpt>
      <trkpt lat="46.636107517406344" lon="12.089645834639668">
        <ele>1766.5599999999999</ele>
        <time>2017-03-10T14:59:46Z</time>
      </trkpt>
      <trkpt lat="46.636114306747913" lon="12.089658072218299">
        <ele>1766.0799999999999</ele>
        <time>2017-03-10T14:59:59Z</time>
      </trkpt>
      <trkpt lat="46.636123862117529" lon="12.089638123288751">
        <ele>1765.5999999999999</ele>
        <time>2017-03-10T15:00:18Z</time>
      </trkpt>
      <trkpt lat="46.636120844632387" lon="12.089628651738167">
        <ele>1766.5599999999999</ele>
        <time>2017-03-10T15:00:28Z</time>
      </trkpt>
      <trkpt lat="46.63609653711319" lon="12.089655473828316">
        <ele>1766.5599999999999</ele>
        <time>2017-03-10T15:00:45Z</time>
      </trkpt>
      <trkpt lat="46.636093184351921" lon="12.089645247906446">
        <ele>1766.5599999999999</ele>
        <time>2017-03-10T15:01:00Z</time>
      </trkpt>
      <trkpt lat="46.636076923459768" lon="12.089642565697432">
        <ele>1766.5599999999999</ele>
        <time>2017-03-10T15:01:14Z</time>
      </trkpt>
      <trkpt lat="46.636081533506513" lon="12.089610882103443">
        <ele>1766.0799999999999</ele>
        <time>2017-03-10T15:01:24Z</time>
      </trkpt>
      <trkpt lat="46.636059824377298" lon="12.089656731113791">
        <ele>1765.1199999999999</ele>
        <time>2017-03-10T15:01:42Z</time>
      </trkpt>
      <trkpt lat="46.636073151603341" lon="12.089659832417965">
        <ele>1766.5599999999999</ele>
        <time>2017-03-10T15:01:53Z</time>
      </trkpt>
      <trkpt lat="46.636029481887817" lon="12.08969964645803">
        <ele>1766.5599999999999</ele>
        <time>2017-03-10T15:02:00Z</time>
      </trkpt>
      <trkpt lat="46.635984219610691" lon="12.089761840179563">
        <ele>1766.0799999999999</ele>
        <time>2017-03-10T15:02:09Z</time>
      </trkpt>
      <trkpt lat="46.635916074737906" lon="12.089837025851011">
        <ele>1766.0799999999999</ele>
        <time>2017-03-10T15:02:19Z</time>
      </trkpt>
      <trkpt lat="46.635891096666455" lon="12.089850436896086">
        <ele>1766.0799999999999</ele>
        <time>2017-03-10T15:02:22Z</time>
      </trkpt>
      <trkpt lat="46.635845750570297" lon="12.089873319491744">
        <ele>1766.5599999999999</ele>
        <time>2017-03-10T15:02:29Z</time>
      </trkpt>
      <trkpt lat="46.635769475251436" lon="12.089932076632977">
        <ele>1766.5599999999999</ele>
        <time>2017-03-10T15:02:38Z</time>
      </trkpt>
      <trkpt lat="46.635764027014375" lon="12.089939117431641">
        <ele>1766.5599999999999</ele>
        <time>2017-03-10T15:02:39Z</time>
      </trkpt>
      <trkpt lat="46.635748520493507" lon="12.08995764143765">
        <ele>1766.5599999999999</ele>
        <time>2017-03-10T15:02:41Z</time>
      </trkpt>
      <trkpt lat="46.635668976232409" lon="12.09001824259758">
        <ele>1766.5599999999999</ele>
        <time>2017-03-10T15:02:52Z</time>
      </trkpt>
      <trkpt lat="46.635603010654449" lon="12.090092422440648">
        <ele>1766.0799999999999</ele>
        <time>2017-03-10T15:03:00Z</time>
      </trkpt>
      <trkpt lat="46.635533524677157" lon="12.090196358039975">
        <ele>1766.0799999999999</ele>
        <time>2017-03-10T15:03:10Z</time>
      </trkpt>
      <trkpt lat="46.635442497208714" lon="12.090306160971522">
        <ele>1764.6400000000001</ele>
        <time>2017-03-10T15:03:23Z</time>
      </trkpt>
      <trkpt lat="46.635345602408051" lon="12.09041940048337">
        <ele>1764.6400000000001</ele>
        <time>2017-03-10T15:03:35Z</time>
      </trkpt>
      <trkpt lat="46.635336801409721" lon="12.090430045500398">
        <ele>1765.1199999999999</ele>
        <time>2017-03-10T15:03:36Z</time>
      </trkpt>
      <trkpt lat="46.635235212743282" lon="12.090578153729439">
        <ele>1765.1199999999999</ele>
        <time>2017-03-10T15:03:49Z</time>
      </trkpt>
      <trkpt lat="46.635209647938609" lon="12.090612687170506">
        <ele>1765.1199999999999</ele>
        <time>2017-03-10T15:03:52Z</time>
      </trkpt>
      <trkpt lat="46.635114345699549" lon="12.090715700760484">
        <ele>1763.6800000000001</ele>
        <time>2017-03-10T15:04:04Z</time>
      </trkpt>
      <trkpt lat="46.635035052895546" lon="12.090793736279011">
        <ele>1763.2</ele>
        <time>2017-03-10T15:04:13Z</time>
      </trkpt>
      <trkpt lat="46.634991802275181" lon="12.090875543653965">
        <ele>1762.71</ele>
        <time>2017-03-10T15:04:20Z</time>
      </trkpt>
      <trkpt lat="46.634975038468838" lon="12.09090412594378">
        <ele>1762.71</ele>
        <time>2017-03-10T15:04:22Z</time>
      </trkpt>
      <trkpt lat="46.634895158931613" lon="12.09102482534945">
        <ele>1762.23</ele>
        <time>2017-03-10T15:04:31Z</time>
      </trkpt>
      <trkpt lat="46.634795749559999" lon="12.091163210570812">
        <ele>1760.79</ele>
        <time>2017-03-10T15:04:42Z</time>
      </trkpt>
      <trkpt lat="46.634711679071188" lon="12.091281311586499">
        <ele>1760.3099999999999</ele>
        <time>2017-03-10T15:04:51Z</time>
      </trkpt>
      <trkpt lat="46.634633643552661" lon="12.09140251390636">
        <ele>1759.3499999999999</ele>
        <time>2017-03-10T15:05:02Z</time>
      </trkpt>
      <trkpt lat="46.634530881419778" lon="12.091515753418207">
        <ele>1758.8699999999999</ele>
        <time>2017-03-10T15:05:12Z</time>
      </trkpt>
      <trkpt lat="46.634478578343987" lon="12.091591442003846">
        <ele>1758.3900000000001</ele>
        <time>2017-03-10T15:05:19Z</time>
      </trkpt>
      <trkpt lat="46.634456617757678" lon="12.091632597148418">
        <ele>1758.3900000000001</ele>
        <time>2017-03-10T15:05:23Z</time>
      </trkpt>
      <trkpt lat="46.634413450956345" lon="12.091696131974459">
        <ele>1758.3900000000001</ele>
        <time>2017-03-10T15:05:28Z</time>
      </trkpt>
      <trkpt lat="46.634335750713944" lon="12.091852119192481">
        <ele>1757.9100000000001</ele>
        <time>2017-03-10T15:05:39Z</time>
      </trkpt>
      <trkpt lat="46.634263414889574" lon="12.091928394511342">
        <ele>1756.95</ele>
        <time>2017-03-10T15:05:46Z</time>
      </trkpt>
      <trkpt lat="46.634209519252181" lon="12.09199570119381">
        <ele>1756.47</ele>
        <time>2017-03-10T15:05:52Z</time>
      </trkpt>
      <trkpt lat="46.63415034301579" lon="12.092056721448898">
        <ele>1755.99</ele>
        <time>2017-03-10T15:05:58Z</time>
      </trkpt>
      <trkpt lat="46.634129136800766" lon="12.092081196606159">
        <ele>1755.5</ele>
        <time>2017-03-10T15:06:00Z</time>
      </trkpt>
      <trkpt lat="46.634049341082573" lon="12.092129057273269">
        <ele>1754.54</ele>
        <time>2017-03-10T15:06:07Z</time>
      </trkpt>
      <trkpt lat="46.633935682475567" lon="12.092221844941378">
        <ele>1753.0999999999999</ele>
        <time>2017-03-10T15:06:19Z</time>
      </trkpt>
      <trkpt lat="46.633890252560377" lon="12.092273477464914">
        <ele>1753.0999999999999</ele>
        <time>2017-03-10T15:06:24Z</time>
      </trkpt>
      <trkpt lat="46.633868543431163" lon="12.092312956228852">
        <ele>1752.6199999999999</ele>
        <time>2017-03-10T15:06:27Z</time>
      </trkpt>
      <trkpt lat="46.633789921179414" lon="12.092458885163069">
        <ele>1750.7</ele>
        <time>2017-03-10T15:06:37Z</time>
      </trkpt>
      <trkpt lat="46.633760333061218" lon="12.092520827427506">
        <ele>1750.22</ele>
        <time>2017-03-10T15:06:41Z</time>
      </trkpt>
      <trkpt lat="46.633702162653208" lon="12.092612273991108">
        <ele>1750.22</ele>
        <time>2017-03-10T15:06:48Z</time>
      </trkpt>
      <trkpt lat="46.633605938404799" lon="12.092778570950031">
        <ele>1749.74</ele>
        <time>2017-03-10T15:07:00Z</time>
      </trkpt>
      <trkpt lat="46.633578110486269" lon="12.092847051098943">
        <ele>1749.74</ele>
        <time>2017-03-10T15:07:05Z</time>
      </trkpt>
      <trkpt lat="46.633549360558391" lon="12.092890972271562">
        <ele>1749.74</ele>
        <time>2017-03-10T15:07:09Z</time>
      </trkpt>
      <trkpt lat="46.633522203192115" lon="12.092973198741674">
        <ele>1749.26</ele>
        <time>2017-03-10T15:07:15Z</time>
      </trkpt>
      <trkpt lat="46.633477443829179" lon="12.093038326129317">
        <ele>1749.26</ele>
        <time>2017-03-10T15:07:22Z</time>
      </trkpt>
      <trkpt lat="46.633369568735361" lon="12.093138406053185">
        <ele>1748.78</ele>
        <time>2017-03-10T15:07:33Z</time>
      </trkpt>
      <trkpt lat="46.633302932605147" lon="12.093194732442498">
        <ele>1748.29</ele>
        <time>2017-03-10T15:07:38Z</time>
      </trkpt>
      <trkpt lat="46.633147280663252" lon="12.093241000548005">
        <ele>1746.3699999999999</ele>
        <time>2017-03-10T15:07:50Z</time>
      </trkpt>
      <trkpt lat="46.633115848526359" lon="12.093243263661861">
        <ele>1746.3699999999999</ele>
        <time>2017-03-10T15:07:53Z</time>
      </trkpt>
      <trkpt lat="46.633054995909333" lon="12.093246281147003">
        <ele>1745.4100000000001</ele>
        <time>2017-03-10T15:07:58Z</time>
      </trkpt>
      <trkpt lat="46.632960364222527" lon="12.093265559524298">
        <ele>1745.8900000000001</ele>
        <time>2017-03-10T15:08:08Z</time>
      </trkpt>
      <trkpt lat="46.632930189371109" lon="12.093326328322291">
        <ele>1745.4100000000001</ele>
        <time>2017-03-10T15:08:13Z</time>
      </trkpt>
      <trkpt lat="46.632924405857921" lon="12.093391371890903">
        <ele>1744.9300000000001</ele>
        <time>2017-03-10T15:08:17Z</time>
      </trkpt>
      <trkpt lat="46.632894985377789" lon="12.093548700213432">
        <ele>1744.45</ele>
        <time>2017-03-10T15:08:26Z</time>
      </trkpt>
      <trkpt lat="46.632865061983466" lon="12.093634195625782">
        <ele>1744.45</ele>
        <time>2017-03-10T15:08:31Z</time>
      </trkpt>
      <trkpt lat="46.632779398933053" lon="12.093694293871522">
        <ele>1743.49</ele>
        <time>2017-03-10T15:08:37Z</time>
      </trkpt>
      <trkpt lat="46.632690047845244" lon="12.093719355762005">
        <ele>1743.01</ele>
        <time>2017-03-10T15:08:45Z</time>
      </trkpt>
      <trkpt lat="46.632666997611523" lon="12.093724803999066">
        <ele>1742.53</ele>
        <time>2017-03-10T15:08:48Z</time>
      </trkpt>
      <trkpt lat="46.632582759484649" lon="12.093756990507245">
        <ele>1741.5699999999999</ele>
        <time>2017-03-10T15:08:55Z</time>
      </trkpt>
      <trkpt lat="46.632485864683986" lon="12.093834020197392">
        <ele>1742.05</ele>
        <time>2017-03-10T15:09:04Z</time>
      </trkpt>
      <trkpt lat="46.632406488060951" lon="12.093903254717588">
        <ele>1742.05</ele>
        <time>2017-03-10T15:09:13Z</time>
      </trkpt>
      <trkpt lat="46.632329290732741" lon="12.093974836170673">
        <ele>1741.5699999999999</ele>
        <time>2017-03-10T15:09:20Z</time>
      </trkpt>
      <trkpt lat="46.632245052605867" lon="12.094059744849801">
        <ele>1741.0799999999999</ele>
        <time>2017-03-10T15:09:28Z</time>
      </trkpt>
      <trkpt lat="46.632122593000531" lon="12.094172732904553">
        <ele>1739.6400000000001</ele>
        <time>2017-03-10T15:09:38Z</time>
      </trkpt>
      <trkpt lat="46.632016142830253" lon="12.094264095649123">
        <ele>1739.1600000000001</ele>
        <time>2017-03-10T15:09:48Z</time>
      </trkpt>
      <trkpt lat="46.632004659622908" lon="12.094270633533597">
        <ele>1738.6800000000001</ele>
        <time>2017-03-10T15:09:49Z</time>
      </trkpt>
      <trkpt lat="46.631963672116399" lon="12.094307849183679">
        <ele>1738.2</ele>
        <time>2017-03-10T15:09:53Z</time>
      </trkpt>
      <trkpt lat="46.631864598020911" lon="12.094336431473494">
        <ele>1736.76</ele>
        <time>2017-03-10T15:10:02Z</time>
      </trkpt>
      <trkpt lat="46.631733756512403" lon="12.094299215823412">
        <ele>1734.8399999999999</ele>
        <time>2017-03-10T15:10:13Z</time>
      </trkpt>
      <trkpt lat="46.631673658266664" lon="12.094281194731593">
        <ele>1733.8800000000001</ele>
        <time>2017-03-10T15:10:18Z</time>
      </trkpt>
      <trkpt lat="46.631634263321757" lon="12.094285385683179">
        <ele>1733.8800000000001</ele>
        <time>2017-03-10T15:10:21Z</time>
      </trkpt>
      <trkpt lat="46.631508367136121" lon="12.094302568584681">
        <ele>1732.9100000000001</ele>
        <time>2017-03-10T15:10:31Z</time>
      </trkpt>
      <trkpt lat="46.63138423115015" lon="12.094336850568652">
        <ele>1730.99</ele>
        <time>2017-03-10T15:10:42Z</time>
      </trkpt>
      <trkpt lat="46.631271997466683" lon="12.094382112845778">
        <ele>1729.55</ele>
        <time>2017-03-10T15:10:52Z</time>
      </trkpt>
      <trkpt lat="46.631259173154831" lon="12.094383370131254">
        <ele>1729.55</ele>
        <time>2017-03-10T15:10:53Z</time>
      </trkpt>
      <trkpt lat="46.631190860643983" lon="12.094415472820401">
        <ele>1728.5899999999999</ele>
        <time>2017-03-10T15:10:59Z</time>
      </trkpt>
      <trkpt lat="46.63111693225801" lon="12.094459980726242">
        <ele>1728.1099999999999</ele>
        <time>2017-03-10T15:11:06Z</time>
      </trkpt>
      <trkpt lat="46.631044847890735" lon="12.094494933262467">
        <ele>1727.1500000000001</ele>
        <time>2017-03-10T15:11:13Z</time>
      </trkpt>
      <trkpt lat="46.630965555086732" lon="12.094537764787674">
        <ele>1726.6700000000001</ele>
        <time>2017-03-10T15:11:23Z</time>
      </trkpt>
      <trkpt lat="46.63086430169642" lon="12.094624433666468">
        <ele>1725.7</ele>
        <time>2017-03-10T15:11:33Z</time>
      </trkpt>
      <trkpt lat="46.630787942558527" lon="12.094672713428736">
        <ele>1723.78</ele>
        <time>2017-03-10T15:11:40Z</time>
      </trkpt>
      <trkpt lat="46.630773944780231" lon="12.094690315425396">
        <ele>1723.3</ele>
        <time>2017-03-10T15:11:42Z</time>
      </trkpt>
      <trkpt lat="46.63068207912147" lon="12.094755275174975">
        <ele>1721.8599999999999</ele>
        <time>2017-03-10T15:11:51Z</time>
      </trkpt>
      <trkpt lat="46.630625668913126" lon="12.094792826101184">
        <ele>1720.9000000000001</ele>
        <time>2017-03-10T15:11:56Z</time>
      </trkpt>
      <trkpt lat="46.630566073581576" lon="12.094837753102183">
        <ele>1719.9400000000001</ele>
        <time>2017-03-10T15:12:01Z</time>
      </trkpt>
      <trkpt lat="46.630487702786922" lon="12.094907741993666">
        <ele>1719.46</ele>
        <time>2017-03-10T15:12:09Z</time>
      </trkpt>
      <trkpt lat="46.630374379456043" lon="12.095004469156265">
        <ele>1716.0899999999999</ele>
        <time>2017-03-10T15:12:20Z</time>
      </trkpt>
      <trkpt lat="46.630271784961224" lon="12.095098178833723">
        <ele>1716.5699999999999</ele>
        <time>2017-03-10T15:12:31Z</time>
      </trkpt>
      <trkpt lat="46.630247728899121" lon="12.095115948468447">
        <ele>1715.6099999999999</ele>
        <time>2017-03-10T15:12:33Z</time>
      </trkpt>
      <trkpt lat="46.630155276507139" lon="12.095197588205338">
        <ele>1714.6500000000001</ele>
        <time>2017-03-10T15:12:43Z</time>
      </trkpt>
      <trkpt lat="46.630078749731183" lon="12.095275204628706">
        <ele>1714.1700000000001</ele>
        <time>2017-03-10T15:12:52Z</time>
      </trkpt>
      <trkpt lat="46.629996355623007" lon="12.095384169369936">
        <ele>1715.6099999999999</ele>
        <time>2017-03-10T15:13:02Z</time>
      </trkpt>
      <trkpt lat="46.629980597645044" lon="12.095407303422689">
        <ele>1714.1700000000001</ele>
        <time>2017-03-10T15:13:04Z</time>
      </trkpt>
      <trkpt lat="46.629855958744884" lon="12.095552058890462">
        <ele>1714.6500000000001</ele>
        <time>2017-03-10T15:13:17Z</time>
      </trkpt>
      <trkpt lat="46.629760740324855" lon="12.095653982833028">
        <ele>1714.1700000000001</ele>
        <time>2017-03-10T15:13:27Z</time>
      </trkpt>
      <trkpt lat="46.629678346216679" lon="12.095752470195293">
        <ele>1713.6900000000001</ele>
        <time>2017-03-10T15:13:37Z</time>
      </trkpt>
      <trkpt lat="46.629581116139889" lon="12.095862189307809">
        <ele>1715.1300000000001</ele>
        <time>2017-03-10T15:13:48Z</time>
      </trkpt>
      <trkpt lat="46.629557060077786" lon="12.095876690000296">
        <ele>1714.6500000000001</ele>
        <time>2017-03-10T15:13:50Z</time>
      </trkpt>
      <trkpt lat="46.62950936704874" lon="12.095915414392948">
        <ele>1715.1300000000001</ele>
        <time>2017-03-10T15:13:54Z</time>
      </trkpt>
      <trkpt lat="46.629472905769944" lon="12.095959251746535">
        <ele>1714.1700000000001</ele>
        <time>2017-03-10T15:13:58Z</time>
      </trkpt>
      <trkpt lat="46.629392271861434" lon="12.096065618097782">
        <ele>1712.73</ele>
        <time>2017-03-10T15:14:08Z</time>
      </trkpt>
      <trkpt lat="46.629282720386982" lon="12.096171481534839">
        <ele>1712.25</ele>
        <time>2017-03-10T15:14:19Z</time>
      </trkpt>
      <trkpt lat="46.629205271601677" lon="12.096248511224985">
        <ele>1713.21</ele>
        <time>2017-03-10T15:14:27Z</time>
      </trkpt>
      <trkpt lat="46.629187921062112" lon="12.096269298344851">
        <ele>1714.1700000000001</ele>
        <time>2017-03-10T15:14:29Z</time>
      </trkpt>
      <trkpt lat="46.629080213606358" lon="12.096352195367217">
        <ele>1712.25</ele>
        <time>2017-03-10T15:14:39Z</time>
      </trkpt>
      <trkpt lat="46.628992455080152" lon="12.096400810405612">
        <ele>1712.25</ele>
        <time>2017-03-10T15:14:47Z</time>
      </trkpt>
      <trkpt lat="46.628916431218386" lon="12.096438193693757">
        <ele>1711.76</ele>
        <time>2017-03-10T15:14:54Z</time>
      </trkpt>
      <trkpt lat="46.628887513652444" lon="12.096458142623305">
        <ele>1711.28</ele>
        <time>2017-03-10T15:14:57Z</time>
      </trkpt>
      <trkpt lat="46.628844849765301" lon="12.096491251140833">
        <ele>1711.76</ele>
        <time>2017-03-10T15:15:02Z</time>
      </trkpt>
      <trkpt lat="46.628823643550277" lon="12.096505835652351">
        <ele>1711.76</ele>
        <time>2017-03-10T15:15:04Z</time>
      </trkpt>
      <trkpt lat="46.628794893622398" lon="12.096530394628644">
        <ele>1711.28</ele>
        <time>2017-03-10T15:15:07Z</time>
      </trkpt>
      <trkpt lat="46.628709817305207" lon="12.096603401005268">
        <ele>1711.28</ele>
        <time>2017-03-10T15:15:16Z</time>
      </trkpt>
      <trkpt lat="46.628628261387348" lon="12.096663666889071">
        <ele>1711.76</ele>
        <time>2017-03-10T15:15:24Z</time>
      </trkpt>
      <trkpt lat="46.628543268889189" lon="12.096730973571539">
        <ele>1712.25</ele>
        <time>2017-03-10T15:15:33Z</time>
      </trkpt>
      <trkpt lat="46.628465568646789" lon="12.096798280254006">
        <ele>1712.25</ele>
        <time>2017-03-10T15:15:42Z</time>
      </trkpt>
      <trkpt lat="46.628384431824088" lon="12.096862401813269">
        <ele>1711.76</ele>
        <time>2017-03-10T15:15:51Z</time>
      </trkpt>
      <trkpt lat="46.628295416012406" lon="12.096942281350493">
        <ele>1711.28</ele>
        <time>2017-03-10T15:16:01Z</time>
      </trkpt>
      <trkpt lat="46.628288039937615" lon="12.096948064863682">
        <ele>1711.28</ele>
        <time>2017-03-10T15:16:02Z</time>
      </trkpt>
      <trkpt lat="46.628225427120924" lon="12.096991064026952">
        <ele>1709.3599999999999</ele>
        <time>2017-03-10T15:16:09Z</time>
      </trkpt>
      <trkpt lat="46.628213692456484" lon="12.097009504213929">
        <ele>1708.8800000000001</ele>
        <time>2017-03-10T15:16:11Z</time>
      </trkpt>
      <trkpt lat="46.628135740756989" lon="12.097076140344143">
        <ele>1706.96</ele>
        <time>2017-03-10T15:16:20Z</time>
      </trkpt>
      <trkpt lat="46.628116210922599" lon="12.097097430378199">
        <ele>1707.4400000000001</ele>
        <time>2017-03-10T15:16:23Z</time>
      </trkpt>
      <trkpt lat="46.628100285306573" lon="12.097111344337463">
        <ele>1706.48</ele>
        <time>2017-03-10T15:16:25Z</time>
      </trkpt>
      <trkpt lat="46.628025770187378" lon="12.097173957154155">
        <ele>1706.48</ele>
        <time>2017-03-10T15:16:34Z</time>
      </trkpt>
      <trkpt lat="46.628018477931619" lon="12.097178818657994">
        <ele>1706.48</ele>
        <time>2017-03-10T15:16:35Z</time>
      </trkpt>
      <trkpt lat="46.627974975854158" lon="12.09721720777452">
        <ele>1706.48</ele>
        <time>2017-03-10T15:16:40Z</time>
      </trkpt>
      <trkpt lat="46.627950249239802" lon="12.097246963530779">
        <ele>1706</ele>
        <time>2017-03-10T15:16:43Z</time>
      </trkpt>
      <trkpt lat="46.627902975305915" lon="12.097312845289707">
        <ele>1705.52</ele>
        <time>2017-03-10T15:16:50Z</time>
      </trkpt>
      <trkpt lat="46.62781085819006" lon="12.097411835566163">
        <ele>1704.55</ele>
        <time>2017-03-10T15:17:00Z</time>
      </trkpt>
      <trkpt lat="46.627759309485555" lon="12.097470173612237">
        <ele>1704.0699999999999</ele>
        <time>2017-03-10T15:17:07Z</time>
      </trkpt>
      <trkpt lat="46.62769946269691" lon="12.09753873758018">
        <ele>1703.1099999999999</ele>
        <time>2017-03-10T15:17:15Z</time>
      </trkpt>
      <trkpt lat="46.627613296732306" lon="12.097606714814901">
        <ele>1702.6300000000001</ele>
        <time>2017-03-10T15:17:24Z</time>
      </trkpt>
      <trkpt lat="46.627514977008104" lon="12.097667483612895">
        <ele>1702.1500000000001</ele>
        <time>2017-03-10T15:17:34Z</time>
      </trkpt>
      <trkpt lat="46.627489663660526" lon="12.097686175256968">
        <ele>1701.6700000000001</ele>
        <time>2017-03-10T15:17:37Z</time>
      </trkpt>
      <trkpt lat="46.627468122169375" lon="12.097696736454964">
        <ele>1701.6700000000001</ele>
        <time>2017-03-10T15:17:39Z</time>
      </trkpt>
      <trkpt lat="46.627345578745008" lon="12.097741244360805">
        <ele>1701.1900000000001</ele>
        <time>2017-03-10T15:17:50Z</time>
      </trkpt>
      <trkpt lat="46.627268381416798" lon="12.097771419212222">
        <ele>1700.71</ele>
        <time>2017-03-10T15:17:58Z</time>
      </trkpt>
      <trkpt lat="46.627155225723982" lon="12.097777957096696">
        <ele>1700.71</ele>
        <time>2017-03-10T15:18:09Z</time>
      </trkpt>
      <trkpt lat="46.627097306773067" lon="12.097773430868983">
        <ele>1700.23</ele>
        <time>2017-03-10T15:18:14Z</time>
      </trkpt>
      <trkpt lat="46.627076519653201" lon="12.097767144441605">
        <ele>1700.23</ele>
        <time>2017-03-10T15:18:16Z</time>
      </trkpt>
      <trkpt lat="46.627056067809463" lon="12.097767982631922">
        <ele>1700.23</ele>
        <time>2017-03-10T15:18:18Z</time>
      </trkpt>
      <trkpt lat="46.626961352303624" lon="12.097728168591857">
        <ele>1700.23</ele>
        <time>2017-03-10T15:18:27Z</time>
      </trkpt>
      <trkpt lat="46.626935033127666" lon="12.097717691212893">
        <ele>1699.75</ele>
        <time>2017-03-10T15:18:30Z</time>
      </trkpt>
      <trkpt lat="46.626832103356719" lon="12.097677877172828">
        <ele>1700.23</ele>
        <time>2017-03-10T15:18:42Z</time>
      </trkpt>
      <trkpt lat="46.626791954040527" lon="12.097674524411559">
        <ele>1700.23</ele>
        <time>2017-03-10T15:18:46Z</time>
      </trkpt>
      <trkpt lat="46.626762868836522" lon="12.09767896682024">
        <ele>1700.23</ele>
        <time>2017-03-10T15:18:50Z</time>
      </trkpt>
      <trkpt lat="46.626705033704638" lon="12.097692796960473">
        <ele>1700.23</ele>
        <time>2017-03-10T15:18:57Z</time>
      </trkpt>
      <trkpt lat="46.626670667901635" lon="12.097706375643611">
        <ele>1699.75</ele>
        <time>2017-03-10T15:19:02Z</time>
      </trkpt>
      <trkpt lat="46.626592632383108" lon="12.097733533009887">
        <ele>1698.3099999999999</ele>
        <time>2017-03-10T15:19:11Z</time>
      </trkpt>
      <trkpt lat="46.626516859978437" lon="12.097770413383842">
        <ele>1697.8299999999999</ele>
        <time>2017-03-10T15:19:19Z</time>
      </trkpt>
      <trkpt lat="46.626479141414165" lon="12.09778550080955">
        <ele>1697.3399999999999</ele>
        <time>2017-03-10T15:19:24Z</time>
      </trkpt>
      <trkpt lat="46.626460198312998" lon="12.097794972360134">
        <ele>1697.3399999999999</ele>
        <time>2017-03-10T15:19:26Z</time>
      </trkpt>
      <trkpt lat="46.626359028741717" lon="12.097834870219231">
        <ele>1698.3099999999999</ele>
        <time>2017-03-10T15:19:38Z</time>
      </trkpt>
      <trkpt lat="46.626327596604824" lon="12.097849538549781">
        <ele>1697.8299999999999</ele>
        <time>2017-03-10T15:19:42Z</time>
      </trkpt>
      <trkpt lat="46.626236317679286" lon="12.097911480814219">
        <ele>1697.3399999999999</ele>
        <time>2017-03-10T15:19:53Z</time>
      </trkpt>
      <trkpt lat="46.626176638528705" lon="12.097965544089675">
        <ele>1696.3800000000001</ele>
        <time>2017-03-10T15:20:01Z</time>
      </trkpt>
      <trkpt lat="46.626102542504668" lon="12.098035532981157">
        <ele>1695.4200000000001</ele>
        <time>2017-03-10T15:20:11Z</time>
      </trkpt>
      <trkpt lat="46.626082677394152" lon="12.09805422462523">
        <ele>1694.9400000000001</ele>
        <time>2017-03-10T15:20:14Z</time>
      </trkpt>
      <trkpt lat="46.62604889832437" lon="12.098090602084994">
        <ele>1694.9400000000001</ele>
        <time>2017-03-10T15:20:18Z</time>
      </trkpt>
      <trkpt lat="46.625969689339399" lon="12.098175762221217">
        <ele>1694.9400000000001</ele>
        <time>2017-03-10T15:20:29Z</time>
      </trkpt>
      <trkpt lat="46.625963738188148" lon="12.098183389753103">
        <ele>1694.9400000000001</ele>
        <time>2017-03-10T15:20:30Z</time>
      </trkpt>
      <trkpt lat="46.625884361565113" lon="12.098264945670962">
        <ele>1694.46</ele>
        <time>2017-03-10T15:20:40Z</time>
      </trkpt>
      <trkpt lat="46.625875309109688" lon="12.098274836316705">
        <ele>1693.98</ele>
        <time>2017-03-10T15:20:41Z</time>
      </trkpt>
      <trkpt lat="46.625806577503681" lon="12.098345998674631">
        <ele>1693.5</ele>
        <time>2017-03-10T15:20:50Z</time>
      </trkpt>
      <trkpt lat="46.625760644674301" lon="12.098419591784477">
        <ele>1693.02</ele>
        <time>2017-03-10T15:20:58Z</time>
      </trkpt>
      <trkpt lat="46.625748574733734" lon="12.098585721105337">
        <ele>1692.54</ele>
        <time>2017-03-10T15:21:10Z</time>
      </trkpt>
      <trkpt lat="46.625726195052266" lon="12.098700553178787">
        <ele>1693.5</ele>
        <time>2017-03-10T15:21:20Z</time>
      </trkpt>
      <trkpt lat="46.625712951645255" lon="12.09872460924089">
        <ele>1693.5</ele>
        <time>2017-03-10T15:21:22Z</time>
      </trkpt>
      <trkpt lat="46.625688141211867" lon="12.098801555112004">
        <ele>1694.46</ele>
        <time>2017-03-10T15:21:33Z</time>
      </trkpt>
      <trkpt lat="46.625688308849931" lon="12.098761489614844">
        <ele>1693.5</ele>
        <time>2017-03-10T15:21:47Z</time>
      </trkpt>
      <trkpt lat="46.625693254172802" lon="12.09877691231668">
        <ele>1693.5</ele>
        <time>2017-03-10T15:21:56Z</time>
      </trkpt>
      <trkpt lat="46.625704569742084" lon="12.098767021670938">
        <ele>1694.46</ele>
        <time>2017-03-10T15:22:15Z</time>
      </trkpt>
      <trkpt lat="46.625720914453268" lon="12.098769284784794">
        <ele>1694.9400000000001</ele>
        <time>2017-03-10T15:22:35Z</time>
      </trkpt>
      <trkpt lat="46.62571320310235" lon="12.098752437159419">
        <ele>1693.98</ele>
        <time>2017-03-10T15:22:49Z</time>
      </trkpt>
      <trkpt lat="46.625709012150764" lon="12.098731566220522">
        <ele>1694.46</ele>
        <time>2017-03-10T15:23:06Z</time>
      </trkpt>
      <trkpt lat="46.625690320506692" lon="12.09870751015842">
        <ele>1693.98</ele>
        <time>2017-03-10T15:23:19Z</time>
      </trkpt>
      <trkpt lat="46.625676825642586" lon="12.098688818514347">
        <ele>1693.98</ele>
        <time>2017-03-10T15:23:40Z</time>
      </trkpt>
      <trkpt lat="46.625692499801517" lon="12.098744558170438">
        <ele>1693.98</ele>
        <time>2017-03-10T15:24:06Z</time>
      </trkpt>
      <trkpt lat="46.625695936381817" lon="12.098737601190805">
        <ele>1693.5</ele>
        <time>2017-03-10T15:24:32Z</time>
      </trkpt>
      <trkpt lat="46.62572493776679" lon="12.098747910931706">
        <ele>1694.9400000000001</ele>
        <time>2017-03-10T15:24:41Z</time>
      </trkpt>
      <trkpt lat="46.625713957473636" lon="12.098717149347067">
        <ele>1693.5</ele>
        <time>2017-03-10T15:25:04Z</time>
      </trkpt>
      <trkpt lat="46.625703144818544" lon="12.09869141690433">
        <ele>1693.02</ele>
        <time>2017-03-10T15:25:26Z</time>
      </trkpt>
      <trkpt lat="46.625677747651935" lon="12.098726285621524">
        <ele>1693.5</ele>
        <time>2017-03-10T15:25:43Z</time>
      </trkpt>
      <trkpt lat="46.625673891976476" lon="12.09873391315341">
        <ele>1693.02</ele>
        <time>2017-03-10T15:26:06Z</time>
      </trkpt>
      <trkpt lat="46.625687219202518" lon="12.098753610625863">
        <ele>1694.46</ele>
        <time>2017-03-10T15:26:32Z</time>
      </trkpt>
      <trkpt lat="46.625687386840582" lon="12.098765010014176">
        <ele>1692.54</ele>
        <time>2017-03-10T15:26:44Z</time>
      </trkpt>
      <trkpt lat="46.625678334385157" lon="12.098760902881622">
        <ele>1694.9400000000001</ele>
        <time>2017-03-10T15:27:04Z</time>
      </trkpt>
      <trkpt lat="46.625682273879647" lon="12.098765932023525">
        <ele>1695.4200000000001</ele>
        <time>2017-03-10T15:27:13Z</time>
      </trkpt>
      <trkpt lat="46.625680681318045" lon="12.098767524585128">
        <ele>1695.4200000000001</ele>
        <time>2017-03-10T15:27:42Z</time>
      </trkpt>
      <trkpt lat="46.625675987452269" lon="12.098799124360085">
        <ele>1693.5</ele>
        <time>2017-03-10T15:28:02Z</time>
      </trkpt>
      <trkpt lat="46.625689063221216" lon="12.098801219835877">
        <ele>1695.4200000000001</ele>
        <time>2017-03-10T15:28:17Z</time>
      </trkpt>
      <trkpt lat="46.625704569742084" lon="12.098801890388131">
        <ele>1694.9400000000001</ele>
        <time>2017-03-10T15:28:23Z</time>
      </trkpt>
      <trkpt lat="46.625707671046257" lon="12.098792418837547">
        <ele>1694.9400000000001</ele>
        <time>2017-03-10T15:28:32Z</time>
      </trkpt>
      <trkpt lat="46.62571077235043" lon="12.098773140460253">
        <ele>1695.4200000000001</ele>
        <time>2017-03-10T15:28:37Z</time>
      </trkpt>
      <trkpt lat="46.62570683285594" lon="12.098794598132372">
        <ele>1693.98</ele>
        <time>2017-03-10T15:28:39Z</time>
      </trkpt>
      <trkpt lat="46.625683112069964" lon="12.098798705264926">
        <ele>1694.46</ele>
        <time>2017-03-10T15:28:50Z</time>
      </trkpt>
      <trkpt lat="46.625687470659614" lon="12.098745312541723">
        <ele>1694.46</ele>
        <time>2017-03-10T15:29:02Z</time>
      </trkpt>
      <trkpt lat="46.625685626640916" lon="12.098724022507668">
        <ele>1694.9400000000001</ele>
        <time>2017-03-10T15:29:18Z</time>
      </trkpt>
      <trkpt lat="46.625675400719047" lon="12.098728464916348">
        <ele>1694.46</ele>
        <time>2017-03-10T15:29:35Z</time>
      </trkpt>
      <trkpt lat="46.625705324113369" lon="12.098680101335049">
        <ele>1693.98</ele>
        <time>2017-03-10T15:29:46Z</time>
      </trkpt>
      <trkpt lat="46.625719657167792" lon="12.09863324649632">
        <ele>1694.46</ele>
        <time>2017-03-10T15:29:56Z</time>
      </trkpt>
      <trkpt lat="46.625721920281649" lon="12.098664846271276">
        <ele>1693.5</ele>
        <time>2017-03-10T15:30:12Z</time>
      </trkpt>
      <trkpt lat="46.6257209982723" lon="12.09865864366293">
        <ele>1693.5</ele>
        <time>2017-03-10T15:30:31Z</time>
      </trkpt>
      <trkpt lat="46.625712364912033" lon="12.098623188212514">
        <ele>1693.98</ele>
        <time>2017-03-10T15:30:45Z</time>
      </trkpt>
      <trkpt lat="46.625702641904354" lon="12.098612207919359">
        <ele>1693.02</ele>
        <time>2017-03-10T15:30:57Z</time>
      </trkpt>
      <trkpt lat="46.625709179788828" lon="12.098617404699326">
        <ele>1693.5</ele>
        <time>2017-03-10T15:31:12Z</time>
      </trkpt>
      <trkpt lat="46.625696858391166" lon="12.098629474639893">
        <ele>1693.5</ele>
        <time>2017-03-10T15:31:27Z</time>
      </trkpt>
      <trkpt lat="46.625684117898345" lon="12.098588235676289">
        <ele>1693.5</ele>
        <time>2017-03-10T15:31:33Z</time>
      </trkpt>
      <trkpt lat="46.625668779015541" lon="12.098542721942067">
        <ele>1693.5</ele>
        <time>2017-03-10T15:31:36Z</time>
      </trkpt>
      <trkpt lat="46.625614548102021" lon="12.098517743870616">
        <ele>1692.54</ele>
        <time>2017-03-10T15:31:41Z</time>
      </trkpt>
      <trkpt lat="46.625523185357451" lon="12.098608016967773">
        <ele>1691.5799999999999</ele>
        <time>2017-03-10T15:31:50Z</time>
      </trkpt>
      <trkpt lat="46.625467864796519" lon="12.098657973110676">
        <ele>1690.6199999999999</ele>
        <time>2017-03-10T15:31:56Z</time>
      </trkpt>
      <trkpt lat="46.625438444316387" lon="12.098678005859256">
        <ele>1690.1400000000001</ele>
        <time>2017-03-10T15:31:59Z</time>
      </trkpt>
      <trkpt lat="46.625354625284672" lon="12.098792837932706">
        <ele>1689.6500000000001</ele>
        <time>2017-03-10T15:32:10Z</time>
      </trkpt>
      <trkpt lat="46.625286648049951" lon="12.098937509581447">
        <ele>1689.6500000000001</ele>
        <time>2017-03-10T15:32:21Z</time>
      </trkpt>
      <trkpt lat="46.625288240611553" lon="12.098956201225519">
        <ele>1689.1700000000001</ele>
        <time>2017-03-10T15:32:22Z</time>
      </trkpt>
      <trkpt lat="46.625219006091356" lon="12.099120821803808">
        <ele>1688.6900000000001</ele>
        <time>2017-03-10T15:32:34Z</time>
      </trkpt>
      <trkpt lat="46.625167960301042" lon="12.099198773503304">
        <ele>1688.6900000000001</ele>
        <time>2017-03-10T15:32:40Z</time>
      </trkpt>
      <trkpt lat="46.625055726617575" lon="12.099333722144365">
        <ele>1688.21</ele>
        <time>2017-03-10T15:32:52Z</time>
      </trkpt>
      <trkpt lat="46.624949108809233" lon="12.099441848695278">
        <ele>1688.21</ele>
        <time>2017-03-10T15:33:03Z</time>
      </trkpt>
      <trkpt lat="46.624783566221595" lon="12.099561793729663">
        <ele>1687.73</ele>
        <time>2017-03-10T15:33:17Z</time>
      </trkpt>
      <trkpt lat="46.62462992593646" lon="12.099690120667219">
        <ele>1686.77</ele>
        <time>2017-03-10T15:33:32Z</time>
      </trkpt>
      <trkpt lat="46.624546777456999" lon="12.09976639598608">
        <ele>1687.73</ele>
        <time>2017-03-10T15:33:43Z</time>
      </trkpt>
      <trkpt lat="46.624452816322446" lon="12.099852813407779">
        <ele>1688.21</ele>
        <time>2017-03-10T15:33:52Z</time>
      </trkpt>
      <trkpt lat="46.624377379193902" lon="12.099907631054521">
        <ele>1686.77</ele>
        <time>2017-03-10T15:33:59Z</time>
      </trkpt>
      <trkpt lat="46.624221224337816" lon="12.100049620494246">
        <ele>1684.3699999999999</ele>
        <time>2017-03-10T15:34:13Z</time>
      </trkpt>
      <trkpt lat="46.62407043389976" lon="12.100213402882218">
        <ele>1682.9300000000001</ele>
        <time>2017-03-10T15:34:28Z</time>
      </trkpt>
      <trkpt lat="46.623984603211284" lon="12.100378107279539">
        <ele>1682.4400000000001</ele>
        <time>2017-03-10T15:34:40Z</time>
      </trkpt>
      <trkpt lat="46.624014610424638" lon="12.100577680394053">
        <ele>1680.52</ele>
        <time>2017-03-10T15:34:53Z</time>
      </trkpt>
      <trkpt lat="46.623965073376894" lon="12.100721346214414">
        <ele>1680.04</ele>
        <time>2017-03-10T15:35:03Z</time>
      </trkpt>
      <trkpt lat="46.623933725059032" lon="12.100708689540625">
        <ele>1679.5599999999999</ele>
        <time>2017-03-10T15:35:06Z</time>
      </trkpt>
      <trkpt lat="46.623910926282406" lon="12.100688237696886">
        <ele>1679.5599999999999</ele>
        <time>2017-03-10T15:35:08Z</time>
      </trkpt>
      <trkpt lat="46.623865496367216" lon="12.100504422560334">
        <ele>1678.5999999999999</ele>
        <time>2017-03-10T15:35:19Z</time>
      </trkpt>
      <trkpt lat="46.623773798346519" lon="12.100413395091891">
        <ele>1677.6400000000001</ele>
        <time>2017-03-10T15:35:29Z</time>
      </trkpt>
      <trkpt lat="46.623719315975904" lon="12.100399062037468">
        <ele>1676.6800000000001</ele>
        <time>2017-03-10T15:35:34Z</time>
      </trkpt>
      <trkpt lat="46.623584283515811" lon="12.100378945469856">
        <ele>1673.3099999999999</ele>
        <time>2017-03-10T15:35:47Z</time>
      </trkpt>
      <trkpt lat="46.623416058719158" lon="12.100344160571694">
        <ele>1671.8699999999999</ele>
        <time>2017-03-10T15:36:01Z</time>
      </trkpt>
      <trkpt lat="46.623396025970578" lon="12.100347513332963">
        <ele>1671.3900000000001</ele>
        <time>2017-03-10T15:36:03Z</time>
      </trkpt>
      <trkpt lat="46.623376328498125" lon="12.100366288796067">
        <ele>1670.9100000000001</ele>
        <time>2017-03-10T15:36:05Z</time>
      </trkpt>
      <trkpt lat="46.623363336548209" lon="12.100427141413093">
        <ele>1669.95</ele>
        <time>2017-03-10T15:36:09Z</time>
      </trkpt>
      <trkpt lat="46.623366437852383" lon="12.10047148168087">
        <ele>1668.99</ele>
        <time>2017-03-10T15:36:12Z</time>
      </trkpt>
      <trkpt lat="46.623492166399956" lon="12.100565945729613">
        <ele>1668.02</ele>
        <time>2017-03-10T15:36:25Z</time>
      </trkpt>
      <trkpt lat="46.623515048995614" lon="12.100650770589709">
        <ele>1668.02</ele>
        <time>2017-03-10T15:36:30Z</time>
      </trkpt>
      <trkpt lat="46.623380435630679" lon="12.100759986788034">
        <ele>1666.5799999999999</ele>
        <time>2017-03-10T15:36:42Z</time>
      </trkpt>
      <trkpt lat="46.623235177248716" lon="12.100789239630103">
        <ele>1664.1800000000001</ele>
        <time>2017-03-10T15:36:53Z</time>
      </trkpt>
      <trkpt lat="46.623104922473431" lon="12.100806003436446">
        <ele>1661.78</ele>
        <time>2017-03-10T15:37:05Z</time>
      </trkpt>
      <trkpt lat="46.623033089563251" lon="12.100841039791703">
        <ele>1660.3299999999999</ele>
        <time>2017-03-10T15:37:12Z</time>
      </trkpt>
      <trkpt lat="46.622933596372604" lon="12.10085017606616">
        <ele>1658.4100000000001</ele>
        <time>2017-03-10T15:37:19Z</time>
      </trkpt>
      <trkpt lat="46.622818261384964" lon="12.100838776677847">
        <ele>1656.97</ele>
        <time>2017-03-10T15:37:31Z</time>
      </trkpt>
      <trkpt lat="46.622688677161932" lon="12.100759819149971">
        <ele>1654.5699999999999</ele>
        <time>2017-03-10T15:37:44Z</time>
      </trkpt>
      <trkpt lat="46.622591949999332" lon="12.100729644298553">
        <ele>1652.6400000000001</ele>
        <time>2017-03-10T15:37:55Z</time>
      </trkpt>
      <trkpt lat="46.622511148452759" lon="12.100770967081189">
        <ele>1650.72</ele>
        <time>2017-03-10T15:38:05Z</time>
      </trkpt>
      <trkpt lat="46.622500419616699" lon="12.100785132497549">
        <ele>1650.24</ele>
        <time>2017-03-10T15:38:07Z</time>
      </trkpt>
      <trkpt lat="46.622454738244414" lon="12.100887726992369">
        <ele>1648.8</ele>
        <time>2017-03-10T15:38:16Z</time>
      </trkpt>
      <trkpt lat="46.622312245890498" lon="12.100915303453803">
        <ele>1647.3599999999999</ele>
        <time>2017-03-10T15:38:28Z</time>
      </trkpt>
      <trkpt lat="46.622296907007694" lon="12.100913291797042">
        <ele>1646.8800000000001</ele>
        <time>2017-03-10T15:38:29Z</time>
      </trkpt>
      <trkpt lat="46.622166400775313" lon="12.100947238504887">
        <ele>1644.47</ele>
        <time>2017-03-10T15:38:41Z</time>
      </trkpt>
      <trkpt lat="46.622020974755287" lon="12.100865598767996">
        <ele>1642.55</ele>
        <time>2017-03-10T15:38:53Z</time>
      </trkpt>
      <trkpt lat="46.621889797970653" lon="12.100801980122924">
        <ele>1640.6300000000001</ele>
        <time>2017-03-10T15:39:05Z</time>
      </trkpt>
      <trkpt lat="46.621751999482512" lon="12.10076711140573">
        <ele>1638.22</ele>
        <time>2017-03-10T15:39:17Z</time>
      </trkpt>
      <trkpt lat="46.621702210977674" lon="12.100779097527266">
        <ele>1637.74</ele>
        <time>2017-03-10T15:39:21Z</time>
      </trkpt>
      <trkpt lat="46.621664157137275" lon="12.10074950940907">
        <ele>1637.26</ele>
        <time>2017-03-10T15:39:24Z</time>
      </trkpt>
      <trkpt lat="46.621520156040788" lon="12.100736685097218">
        <ele>1635.3399999999999</ele>
        <time>2017-03-10T15:39:36Z</time>
      </trkpt>
      <trkpt lat="46.621381687000394" lon="12.10073727183044">
        <ele>1633.9000000000001</ele>
        <time>2017-03-10T15:39:48Z</time>
      </trkpt>
      <trkpt lat="46.62136634811759" lon="12.100723022595048">
        <ele>1633.9000000000001</ele>
        <time>2017-03-10T15:39:50Z</time>
      </trkpt>
      <trkpt lat="46.621218910440803" lon="12.10073777474463">
        <ele>1632.46</ele>
        <time>2017-03-10T15:40:03Z</time>
      </trkpt>
      <trkpt lat="46.621167277917266" lon="12.100743390619755">
        <ele>1631.98</ele>
        <time>2017-03-10T15:40:08Z</time>
      </trkpt>
      <trkpt lat="46.621051440015435" lon="12.100738026201725">
        <ele>1630.53</ele>
        <time>2017-03-10T15:40:20Z</time>
      </trkpt>
      <trkpt lat="46.620964854955673" lon="12.100777504965663">
        <ele>1628.6099999999999</ele>
        <time>2017-03-10T15:40:29Z</time>
      </trkpt>
      <trkpt lat="46.620873073115945" lon="12.100796364247799">
        <ele>1627.6500000000001</ele>
        <time>2017-03-10T15:40:37Z</time>
      </trkpt>
      <trkpt lat="46.620782380923629" lon="12.100792089477181">
        <ele>1626.21</ele>
        <time>2017-03-10T15:40:44Z</time>
      </trkpt>
      <trkpt lat="46.620696885511279" lon="12.100783539935946">
        <ele>1624.28</ele>
        <time>2017-03-10T15:40:50Z</time>
      </trkpt>
      <trkpt lat="46.620589345693588" lon="12.100797118619084">
        <ele>1623.3199999999999</ele>
        <time>2017-03-10T15:40:58Z</time>
      </trkpt>
      <trkpt lat="46.620547352358699" lon="12.100816145539284">
        <ele>1622.8399999999999</ele>
        <time>2017-03-10T15:41:02Z</time>
      </trkpt>
      <trkpt lat="46.620412655174732" lon="12.100840033963323">
        <ele>1620.9200000000001</ele>
        <time>2017-03-10T15:41:16Z</time>
      </trkpt>
      <trkpt lat="46.620321711525321" lon="12.100837267935276">
        <ele>1619.48</ele>
        <time>2017-03-10T15:41:24Z</time>
      </trkpt>
      <trkpt lat="46.620185505598783" lon="12.100830730050802">
        <ele>1618.04</ele>
        <time>2017-03-10T15:41:38Z</time>
      </trkpt>
      <trkpt lat="46.620124988257885" lon="12.100840620696545">
        <ele>1616.1099999999999</ele>
        <time>2017-03-10T15:41:49Z</time>
      </trkpt>
      <trkpt lat="46.62006757222116" lon="12.10082033649087">
        <ele>1615.1500000000001</ele>
        <time>2017-03-10T15:41:57Z</time>
      </trkpt>
      <trkpt lat="46.620000852271914" lon="12.100744815543294">
        <ele>1613.71</ele>
        <time>2017-03-10T15:42:05Z</time>
      </trkpt>
      <trkpt lat="46.619909657165408" lon="12.100689159706235">
        <ele>1613.23</ele>
        <time>2017-03-10T15:42:14Z</time>
      </trkpt>
      <trkpt lat="46.619809996336699" lon="12.100635515525937">
        <ele>1609.8599999999999</ele>
        <time>2017-03-10T15:42:24Z</time>
      </trkpt>
      <trkpt lat="46.619707150384784" lon="12.100570136681199">
        <ele>1608.4200000000001</ele>
        <time>2017-03-10T15:42:34Z</time>
      </trkpt>
      <trkpt lat="46.619636826217175" lon="12.100498974323273">
        <ele>1607.9400000000001</ele>
        <time>2017-03-10T15:42:44Z</time>
      </trkpt>
      <trkpt lat="46.61951495334506" lon="12.100408617407084">
        <ele>1607.46</ele>
        <time>2017-03-10T15:42:56Z</time>
      </trkpt>
      <trkpt lat="46.619377238675952" lon="12.100289594382048">
        <ele>1605.54</ele>
        <time>2017-03-10T15:43:08Z</time>
      </trkpt>
      <trkpt lat="46.619240613654256" lon="12.100182725116611">
        <ele>1603.6199999999999</ele>
        <time>2017-03-10T15:43:20Z</time>
      </trkpt>
      <trkpt lat="46.619180683046579" lon="12.100142072886229">
        <ele>1604.0999999999999</ele>
        <time>2017-03-10T15:43:26Z</time>
      </trkpt>
      <trkpt lat="46.619070796296" lon="12.100068312138319">
        <ele>1604.5799999999999</ele>
        <time>2017-03-10T15:43:38Z</time>
      </trkpt>
      <trkpt lat="46.618953114375472" lon="12.100009806454182">
        <ele>1604.5799999999999</ele>
        <time>2017-03-10T15:43:49Z</time>
      </trkpt>
      <trkpt lat="46.618858985602856" lon="12.099885754287243">
        <ele>1602.6600000000001</ele>
        <time>2017-03-10T15:44:00Z</time>
      </trkpt>
      <trkpt lat="46.618755552917719" lon="12.099830433726311">
        <ele>1602.1700000000001</ele>
        <time>2017-03-10T15:44:09Z</time>
      </trkpt>
      <trkpt lat="46.618687827140093" lon="12.099777963012457">
        <ele>1601.21</ele>
        <time>2017-03-10T15:44:19Z</time>
      </trkpt>
      <trkpt lat="46.618545083329082" lon="12.099697077646852">
        <ele>1600.73</ele>
        <time>2017-03-10T15:44:31Z</time>
      </trkpt>
      <trkpt lat="46.618422456085682" lon="12.099596243351698">
        <ele>1598.8099999999999</ele>
        <time>2017-03-10T15:44:43Z</time>
      </trkpt>
      <trkpt lat="46.61836126819253" lon="12.099557099863887">
        <ele>1597.8499999999999</ele>
        <time>2017-03-10T15:44:50Z</time>
      </trkpt>
      <trkpt lat="46.61832220852375" lon="12.099498845636845">
        <ele>1595.9300000000001</ele>
        <time>2017-03-10T15:44:57Z</time>
      </trkpt>
      <trkpt lat="46.618188600987196" lon="12.099417205899954">
        <ele>1594.48</ele>
        <time>2017-03-10T15:45:09Z</time>
      </trkpt>
      <trkpt lat="46.618100674822927" lon="12.09939549677074">
        <ele>1594.48</ele>
        <time>2017-03-10T15:45:19Z</time>
      </trkpt>
      <trkpt lat="46.618085335940123" lon="12.099401196464896">
        <ele>1594.48</ele>
        <time>2017-03-10T15:45:28Z</time>
      </trkpt>
      <trkpt lat="46.618035715073347" lon="12.099365657195449">
        <ele>1594.96</ele>
        <time>2017-03-10T15:45:33Z</time>
      </trkpt>
      <trkpt lat="46.617868412286043" lon="12.099322155117989">
        <ele>1594</ele>
        <time>2017-03-10T15:45:44Z</time>
      </trkpt>
      <trkpt lat="46.617765733972192" lon="12.09928804077208">
        <ele>1593.04</ele>
        <time>2017-03-10T15:45:54Z</time>
      </trkpt>
      <trkpt lat="46.61765324883163" lon="12.099184691905975">
        <ele>1593.52</ele>
        <time>2017-03-10T15:46:04Z</time>
      </trkpt>
      <trkpt lat="46.617501704022288" lon="12.099036080762744">
        <ele>1593.52</ele>
        <time>2017-03-10T15:46:16Z</time>
      </trkpt>
      <trkpt lat="46.617421321570873" lon="12.098968690261245">
        <ele>1593.52</ele>
        <time>2017-03-10T15:46:27Z</time>
      </trkpt>
      <trkpt lat="46.617357032373548" lon="12.098905071616173">
        <ele>1594</ele>
        <time>2017-03-10T15:46:34Z</time>
      </trkpt>
      <trkpt lat="46.617249492555857" lon="12.098789820447564">
        <ele>1594</ele>
        <time>2017-03-10T15:46:44Z</time>
      </trkpt>
      <trkpt lat="46.617177156731486" lon="12.098693093284965">
        <ele>1592.5599999999999</ele>
        <time>2017-03-10T15:46:52Z</time>
      </trkpt>
      <trkpt lat="46.617102222517133" lon="12.098540710285306">
        <ele>1592.0799999999999</ele>
        <time>2017-03-10T15:47:00Z</time>
      </trkpt>
      <trkpt lat="46.616962999105453" lon="12.098323618993163">
        <ele>1590.6400000000001</ele>
        <time>2017-03-10T15:47:13Z</time>
      </trkpt>
      <trkpt lat="46.616859482601285" lon="12.098150113597512">
        <ele>1589.2</ele>
        <time>2017-03-10T15:47:23Z</time>
      </trkpt>
      <trkpt lat="46.616740375757217" lon="12.098025055602193">
        <ele>1587.75</ele>
        <time>2017-03-10T15:47:35Z</time>
      </trkpt>
      <trkpt lat="46.61661883816123" lon="12.097951043397188">
        <ele>1585.8299999999999</ele>
        <time>2017-03-10T15:47:45Z</time>
      </trkpt>
      <trkpt lat="46.61651766858995" lon="12.097981385886669">
        <ele>1583.9100000000001</ele>
        <time>2017-03-10T15:47:58Z</time>
      </trkpt>
      <trkpt lat="46.616497887298465" lon="12.097974680364132">
        <ele>1583.4300000000001</ele>
        <time>2017-03-10T15:48:01Z</time>
      </trkpt>
      <trkpt lat="46.616673655807972" lon="12.098170900717378">
        <ele>1582.95</ele>
        <time>2017-03-10T15:48:10Z</time>
      </trkpt>
      <trkpt lat="46.616803072392941" lon="12.098443983122706">
        <ele>1580.54</ele>
        <time>2017-03-10T15:48:21Z</time>
      </trkpt>
      <trkpt lat="46.616696789860725" lon="12.098473319783807">
        <ele>1578.1400000000001</ele>
        <time>2017-03-10T15:48:34Z</time>
      </trkpt>
      <trkpt lat="46.616639290004969" lon="12.098498716950417">
        <ele>1574.78</ele>
        <time>2017-03-10T15:48:43Z</time>
      </trkpt>
      <trkpt lat="46.616566786542535" lon="12.098504081368446">
        <ele>1571.8900000000001</ele>
        <time>2017-03-10T15:48:52Z</time>
      </trkpt>
      <trkpt lat="46.616554213687778" lon="12.098503829911351">
        <ele>1570.9300000000001</ele>
        <time>2017-03-10T15:48:54Z</time>
      </trkpt>
      <trkpt lat="46.616445332765579" lon="12.098491508513689">
        <ele>1570.45</ele>
        <time>2017-03-10T15:49:07Z</time>
      </trkpt>
      <trkpt lat="46.616351036354899" lon="12.098461333662271">
        <ele>1570.45</ele>
        <time>2017-03-10T15:49:16Z</time>
      </trkpt>
      <trkpt lat="46.616152552887797" lon="12.098360080271959">
        <ele>1570.45</ele>
        <time>2017-03-10T15:49:29Z</time>
      </trkpt>
      <trkpt lat="46.616057669743896" lon="12.098255641758442">
        <ele>1570.45</ele>
        <time>2017-03-10T15:49:34Z</time>
      </trkpt>
      <trkpt lat="46.615966390818357" lon="12.098207361996174">
        <ele>1569.97</ele>
        <time>2017-03-10T15:49:43Z</time>
      </trkpt>
      <trkpt lat="46.615838315337896" lon="12.098144246265292">
        <ele>1568.05</ele>
        <time>2017-03-10T15:49:55Z</time>
      </trkpt>
      <trkpt lat="46.615714430809021" lon="12.098077442497015">
        <ele>1566.6099999999999</ele>
        <time>2017-03-10T15:50:05Z</time>
      </trkpt>
      <trkpt lat="46.615631198510528" lon="12.098021870478988">
        <ele>1566.1199999999999</ele>
        <time>2017-03-10T15:50:13Z</time>
      </trkpt>
      <trkpt lat="46.615567831322551" lon="12.097971076145768">
        <ele>1565.6400000000001</ele>
        <time>2017-03-10T15:50:19Z</time>
      </trkpt>
      <trkpt lat="46.615458447486162" lon="12.097859848290682">
        <ele>1564.2</ele>
        <time>2017-03-10T15:50:31Z</time>
      </trkpt>
      <trkpt lat="46.615453753620386" lon="12.097854651510715">
        <ele>1564.2</ele>
        <time>2017-03-10T15:50:32Z</time>
      </trkpt>
      <trkpt lat="46.615442018955946" lon="12.097846688702703">
        <ele>1564.2</ele>
        <time>2017-03-10T15:50:33Z</time>
      </trkpt>
      <trkpt lat="46.615277817472816" lon="12.097725067287683">
        <ele>1563.24</ele>
        <time>2017-03-10T15:50:47Z</time>
      </trkpt>
      <trkpt lat="46.615139851346612" lon="12.097677206620574">
        <ele>1562.76</ele>
        <time>2017-03-10T15:50:59Z</time>
      </trkpt>
      <trkpt lat="46.615056032314897" lon="12.097651557996869">
        <ele>1561.8</ele>
        <time>2017-03-10T15:51:08Z</time>
      </trkpt>
      <trkpt lat="46.615015296265483" lon="12.097650216892362">
        <ele>1561.8</ele>
        <time>2017-03-10T15:51:13Z</time>
      </trkpt>
      <trkpt lat="46.614897530525923" lon="12.097614258527756">
        <ele>1562.76</ele>
        <time>2017-03-10T15:51:24Z</time>
      </trkpt>
      <trkpt lat="46.614796025678515" lon="12.09753337316215">
        <ele>1561.3199999999999</ele>
        <time>2017-03-10T15:51:36Z</time>
      </trkpt>
      <trkpt lat="46.61467163823545" lon="12.097413931041956">
        <ele>1561.3199999999999</ele>
        <time>2017-03-10T15:51:49Z</time>
      </trkpt>
      <trkpt lat="46.614675493910909" lon="12.097418373450637">
        <ele>1560.3599999999999</ele>
        <time>2017-03-10T15:52:00Z</time>
      </trkpt>
      <trkpt lat="46.614605840295553" lon="12.097387192770839">
        <ele>1560.8399999999999</ele>
        <time>2017-03-10T15:52:11Z</time>
      </trkpt>
      <trkpt lat="46.614552196115255" lon="12.097380654886365">
        <ele>1561.8</ele>
        <time>2017-03-10T15:52:18Z</time>
      </trkpt>
      <trkpt lat="46.614415571093559" lon="12.097337823361158">
        <ele>1562.76</ele>
        <time>2017-03-10T15:52:31Z</time>
      </trkpt>
      <trkpt lat="46.614281795918941" lon="12.097275294363499">
        <ele>1563.24</ele>
        <time>2017-03-10T15:52:42Z</time>
      </trkpt>
      <trkpt lat="46.614123377948999" lon="12.097239755094051">
        <ele>1562.76</ele>
        <time>2017-03-10T15:52:52Z</time>
      </trkpt>
      <trkpt lat="46.61399295553565" lon="12.097219722345471">
        <ele>1563.24</ele>
        <time>2017-03-10T15:53:04Z</time>
      </trkpt>
      <trkpt lat="46.613903185352683" lon="12.097231289371848">
        <ele>1562.76</ele>
        <time>2017-03-10T15:53:16Z</time>
      </trkpt>
      <trkpt lat="46.613815175369382" lon="12.097242353484035">
        <ele>1566.1199999999999</ele>
        <time>2017-03-10T15:53:26Z</time>
      </trkpt>
      <trkpt lat="46.613770416006446" lon="12.097241934388876">
        <ele>1564.2</ele>
        <time>2017-03-10T15:53:31Z</time>
      </trkpt>
      <trkpt lat="46.613610321655869" lon="12.097173454239964">
        <ele>1564.6800000000001</ele>
        <time>2017-03-10T15:53:43Z</time>
      </trkpt>
      <trkpt lat="46.613514767959714" lon="12.097129952162504">
        <ele>1566.1199999999999</ele>
        <time>2017-03-10T15:53:55Z</time>
      </trkpt>
      <trkpt lat="46.613451819866896" lon="12.097140764817595">
        <ele>1566.1199999999999</ele>
        <time>2017-03-10T15:54:05Z</time>
      </trkpt>
      <trkpt lat="46.613350985571742" lon="12.097110757604241">
        <ele>1568.05</ele>
        <time>2017-03-10T15:54:17Z</time>
      </trkpt>
      <trkpt lat="46.613285942003131" lon="12.097131628543139">
        <ele>1567.5699999999999</ele>
        <time>2017-03-10T15:54:24Z</time>
      </trkpt>
      <trkpt lat="46.613166583701968" lon="12.097163312137127">
        <ele>1567.5699999999999</ele>
        <time>2017-03-10T15:54:36Z</time>
      </trkpt>
      <trkpt lat="46.613066839054227" lon="12.097183093428612">
        <ele>1567.0899999999999</ele>
        <time>2017-03-10T15:54:47Z</time>
      </trkpt>
      <trkpt lat="46.613051248714328" lon="12.097181333228946">
        <ele>1567.0899999999999</ele>
        <time>2017-03-10T15:54:49Z</time>
      </trkpt>
      <trkpt lat="46.612937254831195" lon="12.097201533615589">
        <ele>1568.53</ele>
        <time>2017-03-10T15:55:00Z</time>
      </trkpt>
      <trkpt lat="46.612889226526022" lon="12.097226344048977">
        <ele>1566.6099999999999</ele>
        <time>2017-03-10T15:55:06Z</time>
      </trkpt>
      <trkpt lat="46.612786967307329" lon="12.097349809482694">
        <ele>1567.5699999999999</ele>
        <time>2017-03-10T15:55:20Z</time>
      </trkpt>
      <trkpt lat="46.612678589299321" lon="12.097488781437278">
        <ele>1568.53</ele>
        <time>2017-03-10T15:55:34Z</time>
      </trkpt>
      <trkpt lat="46.612568870186806" lon="12.097568744793534">
        <ele>1568.53</ele>
        <time>2017-03-10T15:55:45Z</time>
      </trkpt>
      <trkpt lat="46.612519333139062" lon="12.097614174708724">
        <ele>1567.0899999999999</ele>
        <time>2017-03-10T15:55:50Z</time>
      </trkpt>
      <trkpt lat="46.612448841333389" lon="12.097678044810891">
        <ele>1567.0899999999999</ele>
        <time>2017-03-10T15:55:57Z</time>
      </trkpt>
      <trkpt lat="46.61231598816812" lon="12.097786674275994">
        <ele>1566.6099999999999</ele>
        <time>2017-03-10T15:56:11Z</time>
      </trkpt>
      <trkpt lat="46.612258572131395" lon="12.097820872440934">
        <ele>1566.6099999999999</ele>
        <time>2017-03-10T15:56:17Z</time>
      </trkpt>
      <trkpt lat="46.612156229093671" lon="12.097875438630581">
        <ele>1566.6099999999999</ele>
        <time>2017-03-10T15:56:26Z</time>
      </trkpt>
      <trkpt lat="46.612140974029899" lon="12.097880635410547">
        <ele>1566.6099999999999</ele>
        <time>2017-03-10T15:56:28Z</time>
      </trkpt>
      <trkpt lat="46.61201206035912" lon="12.097902176901698">
        <ele>1565.6400000000001</ele>
        <time>2017-03-10T15:56:39Z</time>
      </trkpt>
      <trkpt lat="46.611864622682333" lon="12.097938889637589">
        <ele>1564.6800000000001</ele>
        <time>2017-03-10T15:56:52Z</time>
      </trkpt>
      <trkpt lat="46.611737050116062" lon="12.097964035347104">
        <ele>1564.6800000000001</ele>
        <time>2017-03-10T15:57:04Z</time>
      </trkpt>
      <trkpt lat="46.611722465604544" lon="12.097975267097354">
        <ele>1562.28</ele>
        <time>2017-03-10T15:57:06Z</time>
      </trkpt>
      <trkpt lat="46.611719951033592" lon="12.097978368401527">
        <ele>1563.24</ele>
        <time>2017-03-10T15:57:07Z</time>
      </trkpt>
      <trkpt lat="46.611716262996197" lon="12.097979793325067">
        <ele>1562.76</ele>
        <time>2017-03-10T15:57:08Z</time>
      </trkpt>
      <trkpt lat="46.611691620200872" lon="12.097993539646268">
        <ele>1562.28</ele>
        <time>2017-03-10T15:57:10Z</time>
      </trkpt>
      <trkpt lat="46.611517025157809" lon="12.098017260432243">
        <ele>1561.8</ele>
        <time>2017-03-10T15:57:22Z</time>
      </trkpt>
      <trkpt lat="46.611346621066332" lon="12.098032180219889">
        <ele>1559.4000000000001</ele>
        <time>2017-03-10T15:57:34Z</time>
      </trkpt>
      <trkpt lat="46.611207984387875" lon="12.09807719103992">
        <ele>1559.4000000000001</ele>
        <time>2017-03-10T15:57:46Z</time>
      </trkpt>
      <trkpt lat="46.611157273873687" lon="12.098107449710369">
        <ele>1559.4000000000001</ele>
        <time>2017-03-10T15:57:50Z</time>
      </trkpt>
      <trkpt lat="46.611092649400234" lon="12.098139217123389">
        <ele>1556.51</ele>
        <time>2017-03-10T15:57:56Z</time>
      </trkpt>
      <trkpt lat="46.611027019098401" lon="12.098207864910364">
        <ele>1555.0699999999999</ele>
        <time>2017-03-10T15:58:04Z</time>
      </trkpt>
      <trkpt lat="46.610907493159175" lon="12.098299479112029">
        <ele>1553.6300000000001</ele>
        <time>2017-03-10T15:58:17Z</time>
      </trkpt>
      <trkpt lat="46.610775142908096" lon="12.098307944834232">
        <ele>1554.5899999999999</ele>
        <time>2017-03-10T15:58:28Z</time>
      </trkpt>
      <trkpt lat="46.610586969181895" lon="12.098284894600511">
        <ele>1556.03</ele>
        <time>2017-03-10T15:58:43Z</time>
      </trkpt>
      <trkpt lat="46.610456882044673" lon="12.098277434706688">
        <ele>1557.47</ele>
        <time>2017-03-10T15:58:54Z</time>
      </trkpt>
      <trkpt lat="46.610431065782905" lon="12.098273998126388">
        <ele>1558.4300000000001</ele>
        <time>2017-03-10T15:58:56Z</time>
      </trkpt>
      <trkpt lat="46.610333081334829" lon="12.09826972335577">
        <ele>1556.99</ele>
        <time>2017-03-10T15:59:05Z</time>
      </trkpt>
      <trkpt lat="46.610209029167891" lon="12.098275758326054">
        <ele>1558.4300000000001</ele>
        <time>2017-03-10T15:59:15Z</time>
      </trkpt>
      <trkpt lat="46.610080115497112" lon="12.098299730569124">
        <ele>1559.4000000000001</ele>
        <time>2017-03-10T15:59:24Z</time>
      </trkpt>
      <trkpt lat="46.60994709469378" lon="12.09835329093039">
        <ele>1558.4300000000001</ele>
        <time>2017-03-10T15:59:35Z</time>
      </trkpt>
      <trkpt lat="46.609818935394287" lon="12.098389584571123">
        <ele>1558.9200000000001</ele>
        <time>2017-03-10T15:59:45Z</time>
      </trkpt>
      <trkpt lat="46.609669402241707" lon="12.098396206274629">
        <ele>1558.4300000000001</ele>
        <time>2017-03-10T15:59:56Z</time>
      </trkpt>
      <trkpt lat="46.609591199085116" lon="12.098453622311354">
        <ele>1560.3599999999999</ele>
        <time>2017-03-10T16:00:04Z</time>
      </trkpt>
      <trkpt lat="46.609468990936875" lon="12.098474157974124">
        <ele>1558.9200000000001</ele>
        <time>2017-03-10T16:00:14Z</time>
      </trkpt>
      <trkpt lat="46.60945164039731" lon="12.098488407209516">
        <ele>1559.4000000000001</ele>
        <time>2017-03-10T16:00:16Z</time>
      </trkpt>
      <trkpt lat="46.609340747818351" lon="12.098502488806844">
        <ele>1560.8399999999999</ele>
        <time>2017-03-10T16:00:25Z</time>
      </trkpt>
      <trkpt lat="46.609288528561592" lon="12.098494190722704">
        <ele>1560.8399999999999</ele>
        <time>2017-03-10T16:00:30Z</time>
      </trkpt>
      <trkpt lat="46.609197501093149" lon="12.098503326997161">
        <ele>1561.3199999999999</ele>
        <time>2017-03-10T16:00:36Z</time>
      </trkpt>
      <trkpt lat="46.609069677069783" lon="12.098521683365107">
        <ele>1561.3199999999999</ele>
        <time>2017-03-10T16:00:46Z</time>
      </trkpt>
      <trkpt lat="46.608963813632727" lon="12.09861715324223">
        <ele>1561.8</ele>
        <time>2017-03-10T16:00:56Z</time>
      </trkpt>
      <trkpt lat="46.608953755348921" lon="12.098624110221863">
        <ele>1563.72</ele>
        <time>2017-03-10T16:00:57Z</time>
      </trkpt>
      <trkpt lat="46.608886364847422" lon="12.098666522651911">
        <ele>1562.28</ele>
        <time>2017-03-10T16:01:03Z</time>
      </trkpt>
      <trkpt lat="46.608804808929563" lon="12.098814295604825">
        <ele>1561.8</ele>
        <time>2017-03-10T16:01:14Z</time>
      </trkpt>
      <trkpt lat="46.608791733160615" lon="12.098847655579448">
        <ele>1560.8399999999999</ele>
        <time>2017-03-10T16:01:16Z</time>
      </trkpt>
      <trkpt lat="46.608768263831735" lon="12.09889174439013">
        <ele>1560.8399999999999</ele>
        <time>2017-03-10T16:01:19Z</time>
      </trkpt>
      <trkpt lat="46.608752338215709" lon="12.098937341943383">
        <ele>1560.8399999999999</ele>
        <time>2017-03-10T16:01:22Z</time>
      </trkpt>
      <trkpt lat="46.608723755925894" lon="12.099001128226519">
        <ele>1561.3199999999999</ele>
        <time>2017-03-10T16:01:26Z</time>
      </trkpt>
      <trkpt lat="46.608716631308198" lon="12.099012862890959">
        <ele>1561.8</ele>
        <time>2017-03-10T16:01:27Z</time>
      </trkpt>
      <trkpt lat="46.608709674328566" lon="12.099022418260574">
        <ele>1561.8</ele>
        <time>2017-03-10T16:01:28Z</time>
      </trkpt>
      <trkpt lat="46.608657203614712" lon="12.099132053554058">
        <ele>1561.3199999999999</ele>
        <time>2017-03-10T16:01:36Z</time>
      </trkpt>
      <trkpt lat="46.608588807284832" lon="12.09925233386457">
        <ele>1561.8</ele>
        <time>2017-03-10T16:01:45Z</time>
      </trkpt>
      <trkpt lat="46.608553770929575" lon="12.099362891167402">
        <ele>1561.8</ele>
        <time>2017-03-10T16:01:52Z</time>
      </trkpt>
      <trkpt lat="46.608531977981329" lon="12.099408321082592">
        <ele>1561.8</ele>
        <time>2017-03-10T16:01:55Z</time>
      </trkpt>
      <trkpt lat="46.60852468572557" lon="12.099423911422491">
        <ele>1561.8</ele>
        <time>2017-03-10T16:01:56Z</time>
      </trkpt>
      <trkpt lat="46.608486799523234" lon="12.0995684992522">
        <ele>1561.8</ele>
        <time>2017-03-10T16:02:05Z</time>
      </trkpt>
      <trkpt lat="46.608474897220731" lon="12.099601440131664">
        <ele>1561.8</ele>
        <time>2017-03-10T16:02:07Z</time>
      </trkpt>
      <trkpt lat="46.608463665470481" lon="12.099613174796104">
        <ele>1562.28</ele>
        <time>2017-03-10T16:02:08Z</time>
      </trkpt>
      <trkpt lat="46.608415050432086" lon="12.09966623224318">
        <ele>1561.8</ele>
        <time>2017-03-10T16:02:14Z</time>
      </trkpt>
      <trkpt lat="46.608405914157629" lon="12.099679727107286">
        <ele>1561.8</ele>
        <time>2017-03-10T16:02:15Z</time>
      </trkpt>
      <trkpt lat="46.608365681022406" lon="12.099724737927318">
        <ele>1561.3199999999999</ele>
        <time>2017-03-10T16:02:19Z</time>
      </trkpt>
      <trkpt lat="46.608236515894532" lon="12.099778214469552">
        <ele>1560.8399999999999</ele>
        <time>2017-03-10T16:02:29Z</time>
      </trkpt>
      <trkpt lat="46.608147164806724" lon="12.099914839491248">
        <ele>1560.8399999999999</ele>
        <time>2017-03-10T16:02:39Z</time>
      </trkpt>
      <trkpt lat="46.608050772920251" lon="12.100047441199422">
        <ele>1560.8399999999999</ele>
        <time>2017-03-10T16:02:50Z</time>
      </trkpt>
      <trkpt lat="46.608043229207397" lon="12.100073928013444">
        <ele>1560.3599999999999</ele>
        <time>2017-03-10T16:02:51Z</time>
      </trkpt>
      <trkpt lat="46.607909789308906" lon="12.100159423425794">
        <ele>1559.8800000000001</ele>
        <time>2017-03-10T16:03:02Z</time>
      </trkpt>
      <trkpt lat="46.60778783261776" lon="12.100227065384388">
        <ele>1559.8800000000001</ele>
        <time>2017-03-10T16:03:12Z</time>
      </trkpt>
      <trkpt lat="46.607655650004745" lon="12.100334018468857">
        <ele>1557.47</ele>
        <time>2017-03-10T16:03:23Z</time>
      </trkpt>
      <trkpt lat="46.607536878436804" lon="12.100369390100241">
        <ele>1555.55</ele>
        <time>2017-03-10T16:03:32Z</time>
      </trkpt>
      <trkpt lat="46.607386590912938" lon="12.100409120321274">
        <ele>1553.6300000000001</ele>
        <time>2017-03-10T16:03:42Z</time>
      </trkpt>
      <trkpt lat="46.607229262590408" lon="12.100462345406413">
        <ele>1552.1900000000001</ele>
        <time>2017-03-10T16:03:54Z</time>
      </trkpt>
      <trkpt lat="46.607094900682569" lon="12.100508781149983">
        <ele>1550.74</ele>
        <time>2017-03-10T16:04:04Z</time>
      </trkpt>
      <trkpt lat="46.606943439692259" lon="12.100509786978364">
        <ele>1548.8199999999999</ele>
        <time>2017-03-10T16:04:15Z</time>
      </trkpt>
      <trkpt lat="46.606788542121649" lon="12.100544990971684">
        <ele>1546.9000000000001</ele>
        <time>2017-03-10T16:04:26Z</time>
      </trkpt>
      <trkpt lat="46.606749482452869" lon="12.100564939901233">
        <ele>1546.4200000000001</ele>
        <time>2017-03-10T16:04:29Z</time>
      </trkpt>
      <trkpt lat="46.60679985769093" lon="12.100906670093536">
        <ele>1543.53</ele>
        <time>2017-03-10T16:04:41Z</time>
      </trkpt>
      <trkpt lat="46.606777142733335" lon="12.100952183827758">
        <ele>1543.05</ele>
        <time>2017-03-10T16:04:45Z</time>
      </trkpt>
      <trkpt lat="46.606678906828165" lon="12.101058382540941">
        <ele>1540.6500000000001</ele>
        <time>2017-03-10T16:04:56Z</time>
      </trkpt>
      <trkpt lat="46.606649653986096" lon="12.101100627332926">
        <ele>1539.6900000000001</ele>
        <time>2017-03-10T16:05:00Z</time>
      </trkpt>
      <trkpt lat="46.606636829674244" lon="12.101105656474829">
        <ele>1539.21</ele>
        <time>2017-03-10T16:05:01Z</time>
      </trkpt>
      <trkpt lat="46.606622580438852" lon="12.101111272349954">
        <ele>1539.21</ele>
        <time>2017-03-10T16:05:02Z</time>
      </trkpt>
      <trkpt lat="46.60654915496707" lon="12.101171454414725">
        <ele>1538.73</ele>
        <time>2017-03-10T16:05:09Z</time>
      </trkpt>
      <trkpt lat="46.606536498293281" lon="12.101183189079165">
        <ele>1538.73</ele>
        <time>2017-03-10T16:05:10Z</time>
      </trkpt>
      <trkpt lat="46.606515543535352" lon="12.101184027269483">
        <ele>1539.21</ele>
        <time>2017-03-10T16:05:11Z</time>
      </trkpt>
      <trkpt lat="46.60647002980113" lon="12.101205568760633">
        <ele>1539.21</ele>
        <time>2017-03-10T16:05:14Z</time>
      </trkpt>
      <trkpt lat="46.606446728110313" lon="12.101249573752284">
        <ele>1538.73</ele>
        <time>2017-03-10T16:05:17Z</time>
      </trkpt>
      <trkpt lat="46.606434406712651" lon="12.101257452741265">
        <ele>1538.73</ele>
        <time>2017-03-10T16:05:18Z</time>
      </trkpt>
      <trkpt lat="46.606320748105645" lon="12.101410757750273">
        <ele>1536.3199999999999</ele>
        <time>2017-03-10T16:05:30Z</time>
      </trkpt>
      <trkpt lat="46.606310438364744" lon="12.101416289806366">
        <ele>1536.3199999999999</ele>
        <time>2017-03-10T16:05:31Z</time>
      </trkpt>
      <trkpt lat="46.606299793347716" lon="12.101424839347601">
        <ele>1536.3199999999999</ele>
        <time>2017-03-10T16:05:32Z</time>
      </trkpt>
      <trkpt lat="46.606289483606815" lon="12.101435232907534">
        <ele>1535.8399999999999</ele>
        <time>2017-03-10T16:05:33Z</time>
      </trkpt>
      <trkpt lat="46.60627800039947" lon="12.101441351696849">
        <ele>1535.8399999999999</ele>
        <time>2017-03-10T16:05:34Z</time>
      </trkpt>
      <trkpt lat="46.606265930458903" lon="12.10144679993391">
        <ele>1535.3599999999999</ele>
        <time>2017-03-10T16:05:35Z</time>
      </trkpt>
      <trkpt lat="46.606253944337368" lon="12.10145216435194">
        <ele>1535.3599999999999</ele>
        <time>2017-03-10T16:05:36Z</time>
      </trkpt>
      <trkpt lat="46.606244388967752" lon="12.101456439122558">
        <ele>1535.3599999999999</ele>
        <time>2017-03-10T16:05:37Z</time>
      </trkpt>
      <trkpt lat="46.60623399540782" lon="12.10146389901638">
        <ele>1534.8800000000001</ele>
        <time>2017-03-10T16:05:38Z</time>
      </trkpt>
      <trkpt lat="46.60622326657176" lon="12.101474795490503">
        <ele>1534.8800000000001</ele>
        <time>2017-03-10T16:05:39Z</time>
      </trkpt>
      <trkpt lat="46.606213543564081" lon="12.101491056382656">
        <ele>1534.8800000000001</ele>
        <time>2017-03-10T16:05:40Z</time>
      </trkpt>
      <trkpt lat="46.60620516166091" lon="12.101504718884826">
        <ele>1534.8800000000001</ele>
        <time>2017-03-10T16:05:41Z</time>
      </trkpt>
      <trkpt lat="46.606199629604816" lon="12.101521901786327">
        <ele>1534.4000000000001</ele>
        <time>2017-03-10T16:05:42Z</time>
      </trkpt>
      <trkpt lat="46.606192756444216" lon="12.101538414135575">
        <ele>1534.8800000000001</ele>
        <time>2017-03-10T16:05:43Z</time>
      </trkpt>
      <trkpt lat="46.60615193657577" lon="12.101620305329561">
        <ele>1534.4000000000001</ele>
        <time>2017-03-10T16:05:48Z</time>
      </trkpt>
      <trkpt lat="46.606127293780446" lon="12.101726168766618">
        <ele>1533.4400000000001</ele>
        <time>2017-03-10T16:05:54Z</time>
      </trkpt>
      <trkpt lat="46.60612016916275" lon="12.101784255355597">
        <ele>1532.96</ele>
        <time>2017-03-10T16:05:57Z</time>
      </trkpt>
      <trkpt lat="46.60611916333437" lon="12.10180445574224">
        <ele>1532.48</ele>
        <time>2017-03-10T16:05:58Z</time>
      </trkpt>
      <trkpt lat="46.606118660420179" lon="12.101827505975962">
        <ele>1532</ele>
        <time>2017-03-10T16:05:59Z</time>
      </trkpt>
      <trkpt lat="46.60612016916275" lon="12.101852316409349">
        <ele>1532</ele>
        <time>2017-03-10T16:06:00Z</time>
      </trkpt>
      <trkpt lat="46.606120588257909" lon="12.101872265338898">
        <ele>1531.52</ele>
        <time>2017-03-10T16:06:01Z</time>
      </trkpt>
      <trkpt lat="46.606111954897642" lon="12.101989947259426">
        <ele>1530.0799999999999</ele>
        <time>2017-03-10T16:06:08Z</time>
      </trkpt>
      <trkpt lat="46.606081193313003" lon="12.102140737697482">
        <ele>1528.1500000000001</ele>
        <time>2017-03-10T16:06:17Z</time>
      </trkpt>
      <trkpt lat="46.606059903278947" lon="12.102251797914505">
        <ele>1527.6700000000001</ele>
        <time>2017-03-10T16:06:22Z</time>
      </trkpt>
      <trkpt lat="46.606056550517678" lon="12.102270070463419">
        <ele>1527.6700000000001</ele>
        <time>2017-03-10T16:06:23Z</time>
      </trkpt>
      <trkpt lat="46.606053616851568" lon="12.102288007736206">
        <ele>1527.1900000000001</ele>
        <time>2017-03-10T16:06:24Z</time>
      </trkpt>
      <trkpt lat="46.606039702892303" lon="12.102334778755903">
        <ele>1526.71</ele>
        <time>2017-03-10T16:06:27Z</time>
      </trkpt>
      <trkpt lat="46.606033332645893" lon="12.102354140952229">
        <ele>1526.71</ele>
        <time>2017-03-10T16:06:28Z</time>
      </trkpt>
      <trkpt lat="46.60602486692369" lon="12.102387081831694">
        <ele>1526.23</ele>
        <time>2017-03-10T16:06:30Z</time>
      </trkpt>
      <trkpt lat="46.606019586324692" lon="12.102404935285449">
        <ele>1526.23</ele>
        <time>2017-03-10T16:06:31Z</time>
      </trkpt>
      <trkpt lat="46.606015982106328" lon="12.102423375472426">
        <ele>1526.23</ele>
        <time>2017-03-10T16:06:32Z</time>
      </trkpt>
      <trkpt lat="46.606010869145393" lon="12.102459585294127">
        <ele>1525.75</ele>
        <time>2017-03-10T16:06:34Z</time>
      </trkpt>
      <trkpt lat="46.606006762012839" lon="12.102470146492124">
        <ele>1525.27</ele>
        <time>2017-03-10T16:06:35Z</time>
      </trkpt>
      <trkpt lat="46.606003325432539" lon="12.102484479546547">
        <ele>1525.27</ele>
        <time>2017-03-10T16:06:36Z</time>
      </trkpt>
      <trkpt lat="46.605981951579452" lon="12.102545918896794">
        <ele>1524.3099999999999</ele>
        <time>2017-03-10T16:06:40Z</time>
      </trkpt>
      <trkpt lat="46.605978514999151" lon="12.10256377235055">
        <ele>1524.3099999999999</ele>
        <time>2017-03-10T16:06:41Z</time>
      </trkpt>
      <trkpt lat="46.605968289077282" lon="12.102592522278428">
        <ele>1523.3499999999999</ele>
        <time>2017-03-10T16:06:43Z</time>
      </trkpt>
      <trkpt lat="46.605965187773108" lon="12.102610794827342">
        <ele>1523.3499999999999</ele>
        <time>2017-03-10T16:06:44Z</time>
      </trkpt>
      <trkpt lat="46.605931995436549" lon="12.102807685732841">
        <ele>1519.98</ele>
        <time>2017-03-10T16:06:56Z</time>
      </trkpt>
      <trkpt lat="46.605892684310675" lon="12.102850684896111">
        <ele>1519.02</ele>
        <time>2017-03-10T16:07:04Z</time>
      </trkpt>
      <trkpt lat="46.605889163911343" lon="12.102940957993269">
        <ele>1518.54</ele>
        <time>2017-03-10T16:07:08Z</time>
      </trkpt>
      <trkpt lat="46.605867119506001" lon="12.103152936324477">
        <ele>1516.1400000000001</ele>
        <time>2017-03-10T16:07:19Z</time>
      </trkpt>
      <trkpt lat="46.605813978239894" lon="12.103348653763533">
        <ele>1513.25</ele>
        <time>2017-03-10T16:07:31Z</time>
      </trkpt>
      <trkpt lat="46.605775253847241" lon="12.103524673730135">
        <ele>1510.8499999999999</ele>
        <time>2017-03-10T16:07:41Z</time>
      </trkpt>
      <trkpt lat="46.605758406221867" lon="12.103568343445659">
        <ele>1509.8900000000001</ele>
        <time>2017-03-10T16:07:44Z</time>
      </trkpt>
      <trkpt lat="46.60575027577579" lon="12.103629782795906">
        <ele>1508.9300000000001</ele>
        <time>2017-03-10T16:07:48Z</time>
      </trkpt>
      <trkpt lat="46.60574734210968" lon="12.103648809716105">
        <ele>1508.9300000000001</ele>
        <time>2017-03-10T16:07:49Z</time>
      </trkpt>
      <trkpt lat="46.605740636587143" lon="12.103661969304085">
        <ele>1508.45</ele>
        <time>2017-03-10T16:07:50Z</time>
      </trkpt>
      <trkpt lat="46.605733679607511" lon="12.103848801925778">
        <ele>1505.5599999999999</ele>
        <time>2017-03-10T16:08:01Z</time>
      </trkpt>
      <trkpt lat="46.605748180299997" lon="12.103889873251319">
        <ele>1505.0799999999999</ele>
        <time>2017-03-10T16:08:03Z</time>
      </trkpt>
      <trkpt lat="46.605751281604171" lon="12.103954581543803">
        <ele>1504.1199999999999</ele>
        <time>2017-03-10T16:08:06Z</time>
      </trkpt>
      <trkpt lat="46.605747761204839" lon="12.104085674509406">
        <ele>1503.1600000000001</ele>
        <time>2017-03-10T16:08:10Z</time>
      </trkpt>
      <trkpt lat="46.605734266340733" lon="12.104102438315749">
        <ele>1502.6800000000001</ele>
        <time>2017-03-10T16:08:11Z</time>
      </trkpt>
      <trkpt lat="46.605711802840233" lon="12.10422950796783">
        <ele>1501.24</ele>
        <time>2017-03-10T16:08:17Z</time>
      </trkpt>
      <trkpt lat="46.605605268850923" lon="12.104413406923413">
        <ele>1497.8699999999999</ele>
        <time>2017-03-10T16:08:28Z</time>
      </trkpt>
      <trkpt lat="46.605525892227888" lon="12.104450622573495">
        <ele>1496.4300000000001</ele>
        <time>2017-03-10T16:08:35Z</time>
      </trkpt>
      <trkpt lat="46.605494543910027" lon="12.104490101337433">
        <ele>1495.95</ele>
        <time>2017-03-10T16:08:38Z</time>
      </trkpt>
      <trkpt lat="46.605488928034902" lon="12.104554641991854">
        <ele>1495.47</ele>
        <time>2017-03-10T16:08:40Z</time>
      </trkpt>
      <trkpt lat="46.605461351573467" lon="12.104702582582831">
        <ele>1493.0599999999999</ele>
        <time>2017-03-10T16:08:49Z</time>
      </trkpt>
      <trkpt lat="46.605412820354104" lon="12.104789754375815">
        <ele>1491.1400000000001</ele>
        <time>2017-03-10T16:08:58Z</time>
      </trkpt>
      <trkpt lat="46.605404019355774" lon="12.104796627536416">
        <ele>1491.1400000000001</ele>
        <time>2017-03-10T16:08:59Z</time>
      </trkpt>
      <trkpt lat="46.605370743200183" lon="12.104821102693677">
        <ele>1490.6600000000001</ele>
        <time>2017-03-10T16:09:03Z</time>
      </trkpt>
      <trkpt lat="46.605256665498018" lon="12.104888912290335">
        <ele>1488.26</ele>
        <time>2017-03-10T16:09:15Z</time>
      </trkpt>
      <trkpt lat="46.605227328836918" lon="12.104933839291334">
        <ele>1487.78</ele>
        <time>2017-03-10T16:09:19Z</time>
      </trkpt>
      <trkpt lat="46.605198998004198" lon="12.105030147358775">
        <ele>1486.8199999999999</ele>
        <time>2017-03-10T16:09:25Z</time>
      </trkpt>
      <trkpt lat="46.605161698535085" lon="12.105148751288652">
        <ele>1484.8900000000001</ele>
        <time>2017-03-10T16:09:31Z</time>
      </trkpt>
      <trkpt lat="46.605132864788175" lon="12.105175070464611">
        <ele>1484.4100000000001</ele>
        <time>2017-03-10T16:09:34Z</time>
      </trkpt>
      <trkpt lat="46.605115765705705" lon="12.105201305821538">
        <ele>1483.9300000000001</ele>
        <time>2017-03-10T16:09:37Z</time>
      </trkpt>
      <trkpt lat="46.604979559779167" lon="12.105225864797831">
        <ele>1481.05</ele>
        <time>2017-03-10T16:09:49Z</time>
      </trkpt>
      <trkpt lat="46.604879312217236" lon="12.105269534513354">
        <ele>1478.6500000000001</ele>
        <time>2017-03-10T16:09:58Z</time>
      </trkpt>
      <trkpt lat="46.604770934209228" lon="12.105271127074957">
        <ele>1476.24</ele>
        <time>2017-03-10T16:10:07Z</time>
      </trkpt>
      <trkpt lat="46.604656605049968" lon="12.105269534513354">
        <ele>1474.3199999999999</ele>
        <time>2017-03-10T16:10:17Z</time>
      </trkpt>
      <trkpt lat="46.604640847072005" lon="12.105279425159097">
        <ele>1473.8399999999999</ele>
        <time>2017-03-10T16:10:19Z</time>
      </trkpt>
      <trkpt lat="46.604604721069336" lon="12.105308594182134">
        <ele>1472.8800000000001</ele>
        <time>2017-03-10T16:10:23Z</time>
      </trkpt>
      <trkpt lat="46.604495504871011" lon="12.105456199496984">
        <ele>1469.51</ele>
        <time>2017-03-10T16:10:36Z</time>
      </trkpt>
      <trkpt lat="46.604488380253315" lon="12.105475310236216">
        <ele>1469.51</ele>
        <time>2017-03-10T16:10:37Z</time>
      </trkpt>
      <trkpt lat="46.604411685839295" lon="12.105582263320684">
        <ele>1467.5899999999999</ele>
        <time>2017-03-10T16:10:45Z</time>
      </trkpt>
      <trkpt lat="46.604394419118762" lon="12.105604307726026">
        <ele>1467.1099999999999</ele>
        <time>2017-03-10T16:10:47Z</time>
      </trkpt>
      <trkpt lat="46.604263661429286" lon="12.105607744306326">
        <ele>1466.1500000000001</ele>
        <time>2017-03-10T16:10:57Z</time>
      </trkpt>
      <trkpt lat="46.604213118553162" lon="12.105593578889966">
        <ele>1466.6300000000001</ele>
        <time>2017-03-10T16:11:01Z</time>
      </trkpt>
      <trkpt lat="46.604179088026285" lon="12.105595925822854">
        <ele>1464.71</ele>
        <time>2017-03-10T16:11:04Z</time>
      </trkpt>
      <trkpt lat="46.604131981730461" lon="12.105603469535708">
        <ele>1463.74</ele>
        <time>2017-03-10T16:11:08Z</time>
      </trkpt>
      <trkpt lat="46.604065094143152" lon="12.105590980499983">
        <ele>1462.78</ele>
        <time>2017-03-10T16:11:14Z</time>
      </trkpt>
      <trkpt lat="46.60395747050643" lon="12.105638002976775">
        <ele>1460.3800000000001</ele>
        <time>2017-03-10T16:11:25Z</time>
      </trkpt>
      <trkpt lat="46.603849763050675" lon="12.105649067088962">
        <ele>1458.46</ele>
        <time>2017-03-10T16:11:34Z</time>
      </trkpt>
      <trkpt lat="46.60383777692914" lon="12.105664238333702">
        <ele>1457.98</ele>
        <time>2017-03-10T16:11:36Z</time>
      </trkpt>
      <trkpt lat="46.603745492175221" lon="12.105710841715336">
        <ele>1456.05</ele>
        <time>2017-03-10T16:11:44Z</time>
      </trkpt>
      <trkpt lat="46.603720933198929" lon="12.105760211125016">
        <ele>1455.5699999999999</ele>
        <time>2017-03-10T16:11:48Z</time>
      </trkpt>
      <trkpt lat="46.603664690628648" lon="12.105773705989122">
        <ele>1454.6099999999999</ele>
        <time>2017-03-10T16:11:53Z</time>
      </trkpt>
      <trkpt lat="46.603608364239335" lon="12.105843275785446">
        <ele>1452.6900000000001</ele>
        <time>2017-03-10T16:12:00Z</time>
      </trkpt>
      <trkpt lat="46.603507529944181" lon="12.105916785076261">
        <ele>1450.29</ele>
        <time>2017-03-10T16:12:10Z</time>
      </trkpt>
      <trkpt lat="46.603508200496435" lon="12.105993563309312">
        <ele>1449.8099999999999</ele>
        <time>2017-03-10T16:12:21Z</time>
      </trkpt>
      <trkpt lat="46.603439720347524" lon="12.106026839464903">
        <ele>1448.8399999999999</ele>
        <time>2017-03-10T16:12:30Z</time>
      </trkpt>
      <trkpt lat="46.603418765589595" lon="12.106056176126003">
        <ele>1448.8399999999999</ele>
        <time>2017-03-10T16:12:33Z</time>
      </trkpt>
      <trkpt lat="46.603396972641349" lon="12.106112670153379">
        <ele>1448.3599999999999</ele>
        <time>2017-03-10T16:12:38Z</time>
      </trkpt>
      <trkpt lat="46.603389931842685" lon="12.106183413416147">
        <ele>1448.3599999999999</ele>
        <time>2017-03-10T16:12:45Z</time>
      </trkpt>
      <trkpt lat="46.603350955992937" lon="12.106221718713641">
        <ele>1447.4000000000001</ele>
        <time>2017-03-10T16:12:49Z</time>
      </trkpt>
      <trkpt lat="46.603302676230669" lon="12.10625926963985">
        <ele>1447.8800000000001</ele>
        <time>2017-03-10T16:12:53Z</time>
      </trkpt>
      <trkpt lat="46.603196309879422" lon="12.106321630999446">
        <ele>1447.4000000000001</ele>
        <time>2017-03-10T16:13:03Z</time>
      </trkpt>
      <trkpt lat="46.603156412020326" lon="12.106295563280582">
        <ele>1446.4400000000001</ele>
        <time>2017-03-10T16:13:06Z</time>
      </trkpt>
      <trkpt lat="46.603155909106135" lon="12.106233453378081">
        <ele>1446.4400000000001</ele>
        <time>2017-03-10T16:13:08Z</time>
      </trkpt>
      <trkpt lat="46.603112407028675" lon="12.106010243296623">
        <ele>1445</ele>
        <time>2017-03-10T16:13:19Z</time>
      </trkpt>
      <trkpt lat="46.603093631565571" lon="12.105901697650552">
        <ele>1444.52</ele>
        <time>2017-03-10T16:13:26Z</time>
      </trkpt>
      <trkpt lat="46.603053817525506" lon="12.105884850025177">
        <ele>1444.04</ele>
        <time>2017-03-10T16:13:30Z</time>
      </trkpt>
      <trkpt lat="46.603054404258728" lon="12.105726264417171">
        <ele>1444.04</ele>
        <time>2017-03-10T16:13:40Z</time>
      </trkpt>
      <trkpt lat="46.603030767291784" lon="12.105666249990463">
        <ele>1444.52</ele>
        <time>2017-03-10T16:13:50Z</time>
      </trkpt>
      <trkpt lat="46.603043088689446" lon="12.10565241985023">
        <ele>1445.48</ele>
        <time>2017-03-10T16:14:00Z</time>
      </trkpt>
      <trkpt lat="46.603051722049713" lon="12.105626603588462">
        <ele>1444.04</ele>
        <time>2017-03-10T16:14:25Z</time>
      </trkpt>
      <trkpt lat="46.603047028183937" lon="12.105671530589461">
        <ele>1443.5599999999999</ele>
        <time>2017-03-10T16:14:41Z</time>
      </trkpt>
      <trkpt lat="46.603086339309812" lon="12.105744369328022">
        <ele>1444.04</ele>
        <time>2017-03-10T16:14:50Z</time>
      </trkpt>
      <trkpt lat="46.603064546361566" lon="12.105889962986112">
        <ele>1443.5599999999999</ele>
        <time>2017-03-10T16:15:01Z</time>
      </trkpt>
      <trkpt lat="46.603074101731181" lon="12.10599104873836">
        <ele>1444.04</ele>
        <time>2017-03-10T16:15:11Z</time>
      </trkpt>
      <trkpt lat="46.603098325431347" lon="12.106015356257558">
        <ele>1442.5999999999999</ele>
        <time>2017-03-10T16:15:16Z</time>
      </trkpt>
      <trkpt lat="46.603136714547873" lon="12.106110071763396">
        <ele>1445</ele>
        <time>2017-03-10T16:15:24Z</time>
      </trkpt>
      <trkpt lat="46.603119783103466" lon="12.106241835281253">
        <ele>1445.48</ele>
        <time>2017-03-10T16:15:34Z</time>
      </trkpt>
      <trkpt lat="46.603071503341198" lon="12.106317188590765">
        <ele>1447.8800000000001</ele>
        <time>2017-03-10T16:15:45Z</time>
      </trkpt>
      <trkpt lat="46.603009728714824" lon="12.106411904096603">
        <ele>1445</ele>
        <time>2017-03-10T16:15:54Z</time>
      </trkpt>
      <trkpt lat="46.602923311293125" lon="12.106482563540339">
        <ele>1442.5999999999999</ele>
        <time>2017-03-10T16:16:04Z</time>
      </trkpt>
      <trkpt lat="46.602813089266419" lon="12.106609800830483">
        <ele>1441.1500000000001</ele>
        <time>2017-03-10T16:16:16Z</time>
      </trkpt>
      <trkpt lat="46.602801689878106" lon="12.106616087257862">
        <ele>1440.6700000000001</ele>
        <time>2017-03-10T16:16:17Z</time>
      </trkpt>
      <trkpt lat="46.602750895544887" lon="12.106675012037158">
        <ele>1438.75</ele>
        <time>2017-03-10T16:16:22Z</time>
      </trkpt>
      <trkpt lat="46.602668417617679" lon="12.106814319267869">
        <ele>1437.79</ele>
        <time>2017-03-10T16:16:32Z</time>
      </trkpt>
      <trkpt lat="46.602603038772941" lon="12.106858240440488">
        <ele>1436.8299999999999</ele>
        <time>2017-03-10T16:16:39Z</time>
      </trkpt>
      <trkpt lat="46.602491140365601" lon="12.106995871290565">
        <ele>1433.9400000000001</ele>
        <time>2017-03-10T16:16:52Z</time>
      </trkpt>
      <trkpt lat="46.602413272485137" lon="12.107054460793734">
        <ele>1432.02</ele>
        <time>2017-03-10T16:17:00Z</time>
      </trkpt>
      <trkpt lat="46.602385444566607" lon="12.107081282883883">
        <ele>1431.54</ele>
        <time>2017-03-10T16:17:05Z</time>
      </trkpt>
      <trkpt lat="46.602397598326206" lon="12.107129143550992">
        <ele>1430.0999999999999</ele>
        <time>2017-03-10T16:17:15Z</time>
      </trkpt>
      <trkpt lat="46.602396089583635" lon="12.107080779969692">
        <ele>1430.5799999999999</ele>
        <time>2017-03-10T16:17:31Z</time>
      </trkpt>
      <trkpt lat="46.602378403767943" lon="12.107078768312931">
        <ele>1432.02</ele>
        <time>2017-03-10T16:17:46Z</time>
      </trkpt>
      <trkpt lat="46.602403968572617" lon="12.107090083882213">
        <ele>1430.5799999999999</ele>
        <time>2017-03-10T16:17:55Z</time>
      </trkpt>
      <trkpt lat="46.602410338819027" lon="12.107106428593397">
        <ele>1429.1400000000001</ele>
        <time>2017-03-10T16:17:59Z</time>
      </trkpt>
      <trkpt lat="46.60238653421402" lon="12.10712612606585">
        <ele>1430.5799999999999</ele>
        <time>2017-03-10T16:18:15Z</time>
      </trkpt>
      <trkpt lat="46.602365160360932" lon="12.107098801061511">
        <ele>1431.0599999999999</ele>
        <time>2017-03-10T16:18:25Z</time>
      </trkpt>
      <trkpt lat="46.602347390726209" lon="12.107071559876204">
        <ele>1430.5799999999999</ele>
        <time>2017-03-10T16:18:45Z</time>
      </trkpt>
      <trkpt lat="46.602390641346574" lon="12.107134759426117">
        <ele>1432.02</ele>
        <time>2017-03-10T16:19:10Z</time>
      </trkpt>
      <trkpt lat="46.602406147867441" lon="12.107135094702244">
        <ele>1430.5799999999999</ele>
        <time>2017-03-10T16:19:30Z</time>
      </trkpt>
      <trkpt lat="46.602402962744236" lon="12.107130652293563">
        <ele>1432.5</ele>
        <time>2017-03-10T16:19:39Z</time>
      </trkpt>
      <trkpt lat="46.602415451779962" lon="12.107126545161009">
        <ele>1431.54</ele>
        <time>2017-03-10T16:19:55Z</time>
      </trkpt>
      <trkpt lat="46.602387456223369" lon="12.107120007276535">
        <ele>1432.02</ele>
        <time>2017-03-10T16:20:08Z</time>
      </trkpt>
    </trkseg>
  </trk>

  <trk>
    <name>tre cime di lavaredo2017-03-11</name>
    <extensions>
      <gpxx:TrackExtension>
        <gpxx:DisplayColor>Yellow</gpxx:DisplayColor>
      </gpxx:TrackExtension>
      <gpxtrkx:TrackStatsExtension xmlns:gpxtrkx="http://www.garmin.com/xmlschemas/TrackStatsExtension/v1">
        <gpxtrkx:Distance>16328</gpxtrkx:Distance>
        <gpxtrkx:TotalElapsedTime>28986</gpxtrkx:TotalElapsedTime>
        <gpxtrkx:MovingTime>17113</gpxtrkx:MovingTime>
        <gpxtrkx:StoppedTime>8807</gpxtrkx:StoppedTime>
        <gpxtrkx:MovingSpeed>1</gpxtrkx:MovingSpeed>
        <gpxtrkx:MaxSpeed>2</gpxtrkx:MaxSpeed>
        <gpxtrkx:MaxElevation>2423</gpxtrkx:MaxElevation>
        <gpxtrkx:MinElevation>1460</gpxtrkx:MinElevation>
        <gpxtrkx:Ascent>990</gpxtrkx:Ascent>
        <gpxtrkx:Descent>986</gpxtrkx:Descent>
        <gpxtrkx:AvgAscentRate>0</gpxtrkx:AvgAscentRate>
        <gpxtrkx:MaxAscentRate>0</gpxtrkx:MaxAscentRate>
        <gpxtrkx:AvgDescentRate>0</gpxtrkx:AvgDescentRate>
        <gpxtrkx:MaxDescentRate>-0</gpxtrkx:MaxDescentRate>
      </gpxtrkx:TrackStatsExtension>
    </extensions>
    <trkseg>
      <trkpt lat="46.666300725191832" lon="12.353688525035977">
        <ele>1459.4200000000001</ele>
        <time>2017-03-11T08:01:11Z</time>
      </trkpt>
      <trkpt lat="46.666254373267293" lon="12.353667067363858">
        <ele>1459.9000000000001</ele>
        <time>2017-03-11T08:01:22Z</time>
      </trkpt>
      <trkpt lat="46.666244985535741" lon="12.353665390983224">
        <ele>1459.9000000000001</ele>
        <time>2017-03-11T08:01:36Z</time>
      </trkpt>
      <trkpt lat="46.666246326640248" lon="12.353646447882056">
        <ele>1459.9000000000001</ele>
        <time>2017-03-11T08:01:50Z</time>
      </trkpt>
      <trkpt lat="46.666228976100683" lon="12.353645190596581">
        <ele>1459.9000000000001</ele>
        <time>2017-03-11T08:02:07Z</time>
      </trkpt>
      <trkpt lat="46.666225455701351" lon="12.353665977716446">
        <ele>1459.9000000000001</ele>
        <time>2017-03-11T08:02:19Z</time>
      </trkpt>
      <trkpt lat="46.666223611682653" lon="12.353651477023959">
        <ele>1460.3800000000001</ele>
        <time>2017-03-11T08:02:37Z</time>
      </trkpt>
      <trkpt lat="46.666218750178814" lon="12.353632533922791">
        <ele>1460.3800000000001</ele>
        <time>2017-03-11T08:02:57Z</time>
      </trkpt>
      <trkpt lat="46.666214810684323" lon="12.353589786216617">
        <ele>1460.3800000000001</ele>
        <time>2017-03-11T08:03:10Z</time>
      </trkpt>
      <trkpt lat="46.666207266971469" lon="12.353589115664363">
        <ele>1461.3399999999999</ele>
        <time>2017-03-11T08:03:21Z</time>
      </trkpt>
      <trkpt lat="46.66619997471571" lon="12.353570172563195">
        <ele>1460.8599999999999</ele>
        <time>2017-03-11T08:03:26Z</time>
      </trkpt>
      <trkpt lat="46.666179103776813" lon="12.353637479245663">
        <ele>1460.8599999999999</ele>
        <time>2017-03-11T08:03:36Z</time>
      </trkpt>
      <trkpt lat="46.66614381596446" lon="12.353616189211607">
        <ele>1461.3399999999999</ele>
        <time>2017-03-11T08:03:46Z</time>
      </trkpt>
      <trkpt lat="46.666125459596515" lon="12.353553157299757">
        <ele>1461.3399999999999</ele>
        <time>2017-03-11T08:03:57Z</time>
      </trkpt>
      <trkpt lat="46.666109450161457" lon="12.35355575568974">
        <ele>1461.8199999999999</ele>
        <time>2017-03-11T08:04:06Z</time>
      </trkpt>
      <trkpt lat="46.666076425462961" lon="12.353547289967537">
        <ele>1461.8199999999999</ele>
        <time>2017-03-11T08:04:14Z</time>
      </trkpt>
      <trkpt lat="46.666027642786503" lon="12.353521976619959">
        <ele>1461.8199999999999</ele>
        <time>2017-03-11T08:04:20Z</time>
      </trkpt>
      <trkpt lat="46.666009789332747" lon="12.353510074317455">
        <ele>1461.8199999999999</ele>
        <time>2017-03-11T08:04:22Z</time>
      </trkpt>
      <trkpt lat="46.665918761864305" lon="12.353451903909445">
        <ele>1462.3</ele>
        <time>2017-03-11T08:04:32Z</time>
      </trkpt>
      <trkpt lat="46.665833685547113" lon="12.35340622253716">
        <ele>1463.26</ele>
        <time>2017-03-11T08:04:42Z</time>
      </trkpt>
      <trkpt lat="46.665833937004209" lon="12.353451400995255">
        <ele>1463.26</ele>
        <time>2017-03-11T08:04:51Z</time>
      </trkpt>
      <trkpt lat="46.665782639756799" lon="12.353426842018962">
        <ele>1463.26</ele>
        <time>2017-03-11T08:05:03Z</time>
      </trkpt>
      <trkpt lat="46.66577828116715" lon="12.353353835642338">
        <ele>1463.26</ele>
        <time>2017-03-11T08:05:18Z</time>
      </trkpt>
      <trkpt lat="46.665720110759139" lon="12.353285942226648">
        <ele>1463.26</ele>
        <time>2017-03-11T08:05:27Z</time>
      </trkpt>
      <trkpt lat="46.665717093273997" lon="12.353297341614962">
        <ele>1463.26</ele>
        <time>2017-03-11T08:05:30Z</time>
      </trkpt>
      <trkpt lat="46.665690690279007" lon="12.353272531181574">
        <ele>1463.26</ele>
        <time>2017-03-11T08:05:34Z</time>
      </trkpt>
      <trkpt lat="46.6656150855124" lon="12.353242356330156">
        <ele>1463.74</ele>
        <time>2017-03-11T08:05:45Z</time>
      </trkpt>
      <trkpt lat="46.665541911497712" lon="12.353203883394599">
        <ele>1463.74</ele>
        <time>2017-03-11T08:05:55Z</time>
      </trkpt>
      <trkpt lat="46.665437892079353" lon="12.353156609460711">
        <ele>1463.26</ele>
        <time>2017-03-11T08:06:04Z</time>
      </trkpt>
      <trkpt lat="46.665420792996883" lon="12.353151412680745">
        <ele>1463.74</ele>
        <time>2017-03-11T08:06:06Z</time>
      </trkpt>
      <trkpt lat="46.665284838527441" lon="12.353087374940515">
        <ele>1463.74</ele>
        <time>2017-03-11T08:06:19Z</time>
      </trkpt>
      <trkpt lat="46.665262207388878" lon="12.353079663589597">
        <ele>1463.74</ele>
        <time>2017-03-11T08:06:22Z</time>
      </trkpt>
      <trkpt lat="46.665237229317427" lon="12.353067258372903">
        <ele>1464.23</ele>
        <time>2017-03-11T08:06:29Z</time>
      </trkpt>
      <trkpt lat="46.665136981755495" lon="12.353011770173907">
        <ele>1464.23</ele>
        <time>2017-03-11T08:06:39Z</time>
      </trkpt>
      <trkpt lat="46.665066406130791" lon="12.352978745475411">
        <ele>1464.23</ele>
        <time>2017-03-11T08:06:46Z</time>
      </trkpt>
      <trkpt lat="46.665010498836637" lon="12.352940607815981">
        <ele>1464.71</ele>
        <time>2017-03-11T08:06:52Z</time>
      </trkpt>
      <trkpt lat="46.664946880191565" lon="12.352900709956884">
        <ele>1464.23</ele>
        <time>2017-03-11T08:06:58Z</time>
      </trkpt>
      <trkpt lat="46.664820397272706" lon="12.352809179574251">
        <ele>1464.71</ele>
        <time>2017-03-11T08:07:10Z</time>
      </trkpt>
      <trkpt lat="46.664799526333809" lon="12.352798786014318">
        <ele>1464.71</ele>
        <time>2017-03-11T08:07:12Z</time>
      </trkpt>
      <trkpt lat="46.664697183296084" lon="12.352754613384604">
        <ele>1466.1500000000001</ele>
        <time>2017-03-11T08:07:22Z</time>
      </trkpt>
      <trkpt lat="46.664644880220294" lon="12.35274656675756">
        <ele>1465.1900000000001</ele>
        <time>2017-03-11T08:07:33Z</time>
      </trkpt>
      <trkpt lat="46.664650160819292" lon="12.352772634476423">
        <ele>1465.1900000000001</ele>
        <time>2017-03-11T08:07:48Z</time>
      </trkpt>
      <trkpt lat="46.664619147777557" lon="12.352763917297125">
        <ele>1464.71</ele>
        <time>2017-03-11T08:07:51Z</time>
      </trkpt>
      <trkpt lat="46.664561815559864" lon="12.352744555100799">
        <ele>1465.1900000000001</ele>
        <time>2017-03-11T08:07:56Z</time>
      </trkpt>
      <trkpt lat="46.664487887173891" lon="12.352708010002971">
        <ele>1466.1500000000001</ele>
        <time>2017-03-11T08:08:03Z</time>
      </trkpt>
      <trkpt lat="46.66434321552515" lon="12.352637769654393">
        <ele>1466.1500000000001</ele>
        <time>2017-03-11T08:08:16Z</time>
      </trkpt>
      <trkpt lat="46.664304072037339" lon="12.352618407458067">
        <ele>1466.1500000000001</ele>
        <time>2017-03-11T08:08:20Z</time>
      </trkpt>
      <trkpt lat="46.664239950478077" lon="12.352554453536868">
        <ele>1466.1500000000001</ele>
        <time>2017-03-11T08:08:26Z</time>
      </trkpt>
      <trkpt lat="46.664087316021323" lon="12.352430736646056">
        <ele>1466.6300000000001</ele>
        <time>2017-03-11T08:08:41Z</time>
      </trkpt>
      <trkpt lat="46.663949685171247" lon="12.352310204878449">
        <ele>1466.6300000000001</ele>
        <time>2017-03-11T08:08:54Z</time>
      </trkpt>
      <trkpt lat="46.663816664367914" lon="12.352211885154247">
        <ele>1466.6300000000001</ele>
        <time>2017-03-11T08:09:06Z</time>
      </trkpt>
      <trkpt lat="46.663727648556232" lon="12.352140387520194">
        <ele>1467.1099999999999</ele>
        <time>2017-03-11T08:09:14Z</time>
      </trkpt>
      <trkpt lat="46.663623293861747" lon="12.3520502820611">
        <ele>1468.0699999999999</ele>
        <time>2017-03-11T08:09:25Z</time>
      </trkpt>
      <trkpt lat="46.663580713793635" lon="12.352006193250418">
        <ele>1468.0699999999999</ele>
        <time>2017-03-11T08:09:30Z</time>
      </trkpt>
      <trkpt lat="46.663501420989633" lon="12.351929498836398">
        <ele>1468.0699999999999</ele>
        <time>2017-03-11T08:09:41Z</time>
      </trkpt>
      <trkpt lat="46.663472168147564" lon="12.35191055573523">
        <ele>1468.55</ele>
        <time>2017-03-11T08:09:56Z</time>
      </trkpt>
      <trkpt lat="46.663444507867098" lon="12.351884907111526">
        <ele>1468.55</ele>
        <time>2017-03-11T08:10:00Z</time>
      </trkpt>
      <trkpt lat="46.663407124578953" lon="12.351793125271797">
        <ele>1468.55</ele>
        <time>2017-03-11T08:10:11Z</time>
      </trkpt>
      <trkpt lat="46.663377368822694" lon="12.351747443899512">
        <ele>1469.03</ele>
        <time>2017-03-11T08:10:19Z</time>
      </trkpt>
      <trkpt lat="46.6633166000247" lon="12.351677371188998">
        <ele>1469.03</ele>
        <time>2017-03-11T08:10:28Z</time>
      </trkpt>
      <trkpt lat="46.663263458758593" lon="12.351607298478484">
        <ele>1469.03</ele>
        <time>2017-03-11T08:10:35Z</time>
      </trkpt>
      <trkpt lat="46.663191793486476" lon="12.351519372314215">
        <ele>1469.03</ele>
        <time>2017-03-11T08:10:43Z</time>
      </trkpt>
      <trkpt lat="46.663133455440402" lon="12.351391883566976">
        <ele>1469.51</ele>
        <time>2017-03-11T08:10:53Z</time>
      </trkpt>
      <trkpt lat="46.663081152364612" lon="12.351294737309217">
        <ele>1469.51</ele>
        <time>2017-03-11T08:11:01Z</time>
      </trkpt>
      <trkpt lat="46.663019545376301" lon="12.351240254938602">
        <ele>1469.99</ele>
        <time>2017-03-11T08:11:08Z</time>
      </trkpt>
      <trkpt lat="46.662911418825388" lon="12.351183593273163">
        <ele>1470.47</ele>
        <time>2017-03-11T08:11:20Z</time>
      </trkpt>
      <trkpt lat="46.66287780739367" lon="12.351185772567987">
        <ele>1469.99</ele>
        <time>2017-03-11T08:11:23Z</time>
      </trkpt>
      <trkpt lat="46.662875460460782" lon="12.351187951862812">
        <ele>1469.99</ele>
        <time>2017-03-11T08:11:29Z</time>
      </trkpt>
      <trkpt lat="46.662860037758946" lon="12.351191723719239">
        <ele>1470.47</ele>
        <time>2017-03-11T08:11:31Z</time>
      </trkpt>
      <trkpt lat="46.662801364436746" lon="12.351170852780342">
        <ele>1470.47</ele>
        <time>2017-03-11T08:11:36Z</time>
      </trkpt>
      <trkpt lat="46.662749899551272" lon="12.351160543039441">
        <ele>1470.47</ele>
        <time>2017-03-11T08:11:46Z</time>
      </trkpt>
      <trkpt lat="46.662727016955614" lon="12.351162303239107">
        <ele>1470.47</ele>
        <time>2017-03-11T08:11:48Z</time>
      </trkpt>
      <trkpt lat="46.662629451602697" lon="12.351172529160976">
        <ele>1470.95</ele>
        <time>2017-03-11T08:11:57Z</time>
      </trkpt>
      <trkpt lat="46.662581590935588" lon="12.351169679313898">
        <ele>1471.4400000000001</ele>
        <time>2017-03-11T08:12:01Z</time>
      </trkpt>
      <trkpt lat="46.662496598437428" lon="12.351133720949292">
        <ele>1471.9200000000001</ele>
        <time>2017-03-11T08:12:09Z</time>
      </trkpt>
      <trkpt lat="46.662374557927251" lon="12.351047052070498">
        <ele>1472.4000000000001</ele>
        <time>2017-03-11T08:12:21Z</time>
      </trkpt>
      <trkpt lat="46.662358129397035" lon="12.351025762036443">
        <ele>1472.8800000000001</ele>
        <time>2017-03-11T08:12:29Z</time>
      </trkpt>
      <trkpt lat="46.662330720573664" lon="12.351013859733939">
        <ele>1472.8800000000001</ele>
        <time>2017-03-11T08:12:32Z</time>
      </trkpt>
      <trkpt lat="46.662201723083854" lon="12.350993910804391">
        <ele>1473.3599999999999</ele>
        <time>2017-03-11T08:12:44Z</time>
      </trkpt>
      <trkpt lat="46.662194179370999" lon="12.350995251908898">
        <ele>1473.8399999999999</ele>
        <time>2017-03-11T08:12:45Z</time>
      </trkpt>
      <trkpt lat="46.662143217399716" lon="12.350985864177346">
        <ele>1473.8399999999999</ele>
        <time>2017-03-11T08:12:49Z</time>
      </trkpt>
      <trkpt lat="46.662020841613412" lon="12.351000281050801">
        <ele>1474.8</ele>
        <time>2017-03-11T08:13:00Z</time>
      </trkpt>
      <trkpt lat="46.661943728104234" lon="12.351025342941284">
        <ele>1475.28</ele>
        <time>2017-03-11T08:13:08Z</time>
      </trkpt>
      <trkpt lat="46.661898717284203" lon="12.351042525842786">
        <ele>1475.76</ele>
        <time>2017-03-11T08:13:12Z</time>
      </trkpt>
      <trkpt lat="46.661787740886211" lon="12.351092146709561">
        <ele>1476.24</ele>
        <time>2017-03-11T08:13:23Z</time>
      </trkpt>
      <trkpt lat="46.661703083664179" lon="12.351124249398708">
        <ele>1476.72</ele>
        <time>2017-03-11T08:13:32Z</time>
      </trkpt>
      <trkpt lat="46.661626221612096" lon="12.351142689585686">
        <ele>1477.2</ele>
        <time>2017-03-11T08:13:43Z</time>
      </trkpt>
      <trkpt lat="46.661528572440147" lon="12.351142438128591">
        <ele>1477.6800000000001</ele>
        <time>2017-03-11T08:13:53Z</time>
      </trkpt>
      <trkpt lat="46.661462103947997" lon="12.351132547482848">
        <ele>1477.6800000000001</ele>
        <time>2017-03-11T08:13:59Z</time>
      </trkpt>
      <trkpt lat="46.661399574950337" lon="12.351126009598374">
        <ele>1478.6500000000001</ele>
        <time>2017-03-11T08:14:04Z</time>
      </trkpt>
      <trkpt lat="46.661362024024129" lon="12.351115280762315">
        <ele>1478.6500000000001</ele>
        <time>2017-03-11T08:14:08Z</time>
      </trkpt>
      <trkpt lat="46.661231182515621" lon="12.351148808375001">
        <ele>1479.6099999999999</ele>
        <time>2017-03-11T08:14:20Z</time>
      </trkpt>
      <trkpt lat="46.66119983419776" lon="12.351179402321577">
        <ele>1480.0899999999999</ele>
        <time>2017-03-11T08:14:23Z</time>
      </trkpt>
      <trkpt lat="46.661141496151686" lon="12.351204128935933">
        <ele>1480.5699999999999</ele>
        <time>2017-03-11T08:14:28Z</time>
      </trkpt>
      <trkpt lat="46.661033034324646" lon="12.351222904399037">
        <ele>1480.5699999999999</ele>
        <time>2017-03-11T08:14:38Z</time>
      </trkpt>
      <trkpt lat="46.660927170887589" lon="12.351224748417735">
        <ele>1482.01</ele>
        <time>2017-03-11T08:14:48Z</time>
      </trkpt>
      <trkpt lat="46.660902025178075" lon="12.351230029016733">
        <ele>1482.01</ele>
        <time>2017-03-11T08:14:50Z</time>
      </trkpt>
      <trkpt lat="46.660786857828498" lon="12.351253917440772">
        <ele>1482.49</ele>
        <time>2017-03-11T08:15:00Z</time>
      </trkpt>
      <trkpt lat="46.660707145929337" lon="12.351257773116231">
        <ele>1482.97</ele>
        <time>2017-03-11T08:15:07Z</time>
      </trkpt>
      <trkpt lat="46.660689879208803" lon="12.351257940754294">
        <ele>1482.97</ele>
        <time>2017-03-11T08:15:09Z</time>
      </trkpt>
      <trkpt lat="46.660617543384433" lon="12.351281829178333">
        <ele>1483.45</ele>
        <time>2017-03-11T08:15:15Z</time>
      </trkpt>
      <trkpt lat="46.660518301650882" lon="12.35129926353693">
        <ele>1483.45</ele>
        <time>2017-03-11T08:15:25Z</time>
      </trkpt>
      <trkpt lat="46.660392070189118" lon="12.351325415074825">
        <ele>1484.8900000000001</ele>
        <time>2017-03-11T08:15:37Z</time>
      </trkpt>
      <trkpt lat="46.660303808748722" lon="12.351431949064136">
        <ele>1485.3699999999999</ele>
        <time>2017-03-11T08:15:47Z</time>
      </trkpt>
      <trkpt lat="46.660297438502312" lon="12.351439408957958">
        <ele>1485.3699999999999</ele>
        <time>2017-03-11T08:15:48Z</time>
      </trkpt>
      <trkpt lat="46.660187551751733" lon="12.351473607122898">
        <ele>1486.3399999999999</ele>
        <time>2017-03-11T08:15:58Z</time>
      </trkpt>
      <trkpt lat="46.660176403820515" lon="12.351472349837422">
        <ele>1486.3399999999999</ele>
        <time>2017-03-11T08:15:59Z</time>
      </trkpt>
      <trkpt lat="46.66013172827661" lon="12.35147469677031">
        <ele>1486.3399999999999</ele>
        <time>2017-03-11T08:16:03Z</time>
      </trkpt>
      <trkpt lat="46.66009015403688" lon="12.351479390636086">
        <ele>1486.8199999999999</ele>
        <time>2017-03-11T08:16:07Z</time>
      </trkpt>
      <trkpt lat="46.660026954486966" lon="12.351486431434751">
        <ele>1487.3</ele>
        <time>2017-03-11T08:16:13Z</time>
      </trkpt>
      <trkpt lat="46.659946320578456" lon="12.351547367870808">
        <ele>1487.78</ele>
        <time>2017-03-11T08:16:21Z</time>
      </trkpt>
      <trkpt lat="46.6598697938025" lon="12.351597994565964">
        <ele>1488.26</ele>
        <time>2017-03-11T08:16:29Z</time>
      </trkpt>
      <trkpt lat="46.659805588424206" lon="12.351644765585661">
        <ele>1488.74</ele>
        <time>2017-03-11T08:16:37Z</time>
      </trkpt>
      <trkpt lat="46.659759739413857" lon="12.351689357310534">
        <ele>1489.22</ele>
        <time>2017-03-11T08:16:44Z</time>
      </trkpt>
      <trkpt lat="46.65969000197947" lon="12.351785581558943">
        <ele>1489.7</ele>
        <time>2017-03-11T08:16:53Z</time>
      </trkpt>
      <trkpt lat="46.659673070535064" lon="12.35180988907814">
        <ele>1489.7</ele>
        <time>2017-03-11T08:16:56Z</time>
      </trkpt>
      <trkpt lat="46.659582881256938" lon="12.351887002587318">
        <ele>1490.1800000000001</ele>
        <time>2017-03-11T08:17:06Z</time>
      </trkpt>
      <trkpt lat="46.659573577344418" lon="12.351896306499839">
        <ele>1490.6600000000001</ele>
        <time>2017-03-11T08:17:07Z</time>
      </trkpt>
      <trkpt lat="46.659499816596508" lon="12.351960511878133">
        <ele>1491.1400000000001</ele>
        <time>2017-03-11T08:17:15Z</time>
      </trkpt>
      <trkpt lat="46.65941926650703" lon="12.352034440264106">
        <ele>1492.0999999999999</ele>
        <time>2017-03-11T08:17:24Z</time>
      </trkpt>
      <trkpt lat="46.659321449697018" lon="12.352081378921866">
        <ele>1492.5799999999999</ele>
        <time>2017-03-11T08:17:34Z</time>
      </trkpt>
      <trkpt lat="46.659214748069644" lon="12.352090682834387">
        <ele>1493.0599999999999</ele>
        <time>2017-03-11T08:17:45Z</time>
      </trkpt>
      <trkpt lat="46.65913688018918" lon="12.352123623713851">
        <ele>1493.0599999999999</ele>
        <time>2017-03-11T08:17:54Z</time>
      </trkpt>
      <trkpt lat="46.659059431403875" lon="12.352202665060759">
        <ele>1494.03</ele>
        <time>2017-03-11T08:18:04Z</time>
      </trkpt>
      <trkpt lat="46.658991035073996" lon="12.352292938157916">
        <ele>1494.99</ele>
        <time>2017-03-11T08:18:13Z</time>
      </trkpt>
      <trkpt lat="46.658972343429923" lon="12.35231707803905">
        <ele>1494.99</ele>
        <time>2017-03-11T08:18:16Z</time>
      </trkpt>
      <trkpt lat="46.65888911113143" lon="12.352406848222017">
        <ele>1495.47</ele>
        <time>2017-03-11T08:18:26Z</time>
      </trkpt>
      <trkpt lat="46.658873185515404" lon="12.35242260619998">
        <ele>1495.95</ele>
        <time>2017-03-11T08:18:28Z</time>
      </trkpt>
      <trkpt lat="46.658770674839616" lon="12.352486979216337">
        <ele>1496.4300000000001</ele>
        <time>2017-03-11T08:18:39Z</time>
      </trkpt>
      <trkpt lat="46.658669169992208" lon="12.352515561506152">
        <ele>1496.4300000000001</ele>
        <time>2017-03-11T08:18:49Z</time>
      </trkpt>
      <trkpt lat="46.658604629337788" lon="12.352575659751892">
        <ele>1496.9100000000001</ele>
        <time>2017-03-11T08:18:57Z</time>
      </trkpt>
      <trkpt lat="46.65859499014914" lon="12.352592339739203">
        <ele>1498.3499999999999</ele>
        <time>2017-03-11T08:18:59Z</time>
      </trkpt>
      <trkpt lat="46.658567916601896" lon="12.352642463520169">
        <ele>1498.3499999999999</ele>
        <time>2017-03-11T08:19:04Z</time>
      </trkpt>
      <trkpt lat="46.658507483080029" lon="12.352742040529847">
        <ele>1498.3499999999999</ele>
        <time>2017-03-11T08:19:13Z</time>
      </trkpt>
      <trkpt lat="46.658495245501399" lon="12.352762073278427">
        <ele>1498.3499999999999</ele>
        <time>2017-03-11T08:19:15Z</time>
      </trkpt>
      <trkpt lat="46.658465657383204" lon="12.352809095755219">
        <ele>1497.8699999999999</ele>
        <time>2017-03-11T08:19:19Z</time>
      </trkpt>
      <trkpt lat="46.658422406762838" lon="12.352852178737521">
        <ele>1498.8299999999999</ele>
        <time>2017-03-11T08:19:24Z</time>
      </trkpt>
      <trkpt lat="46.658370522782207" lon="12.352900290861726">
        <ele>1498.8299999999999</ele>
        <time>2017-03-11T08:19:29Z</time>
      </trkpt>
      <trkpt lat="46.658273125067353" lon="12.352947145700455">
        <ele>1499.79</ele>
        <time>2017-03-11T08:19:39Z</time>
      </trkpt>
      <trkpt lat="46.658186875283718" lon="12.353000789880753">
        <ele>1500.27</ele>
        <time>2017-03-11T08:19:49Z</time>
      </trkpt>
      <trkpt lat="46.658143205568194" lon="12.353028450161219">
        <ele>1500.76</ele>
        <time>2017-03-11T08:19:54Z</time>
      </trkpt>
      <trkpt lat="46.658123591914773" lon="12.353036412969232">
        <ele>1500.76</ele>
        <time>2017-03-11T08:19:56Z</time>
      </trkpt>
      <trkpt lat="46.658057374879718" lon="12.353065833449364">
        <ele>1500.76</ele>
        <time>2017-03-11T08:20:03Z</time>
      </trkpt>
      <trkpt lat="46.657946733757854" lon="12.353104557842016">
        <ele>1502.2</ele>
        <time>2017-03-11T08:20:14Z</time>
      </trkpt>
      <trkpt lat="46.657847492024302" lon="12.353136409074068">
        <ele>1502.2</ele>
        <time>2017-03-11T08:20:25Z</time>
      </trkpt>
      <trkpt lat="46.657840451225638" lon="12.353132218122482">
        <ele>1502.2</ele>
        <time>2017-03-11T08:20:26Z</time>
      </trkpt>
      <trkpt lat="46.657820753753185" lon="12.353136911988258">
        <ele>1502.6800000000001</ele>
        <time>2017-03-11T08:20:29Z</time>
      </trkpt>
      <trkpt lat="46.657739030197263" lon="12.353170104324818">
        <ele>1502.6800000000001</ele>
        <time>2017-03-11T08:20:37Z</time>
      </trkpt>
      <trkpt lat="46.657716818153858" lon="12.353188963606954">
        <ele>1503.1600000000001</ele>
        <time>2017-03-11T08:20:40Z</time>
      </trkpt>
      <trkpt lat="46.657694689929485" lon="12.353213271126151">
        <ele>1503.6400000000001</ele>
        <time>2017-03-11T08:20:43Z</time>
      </trkpt>
      <trkpt lat="46.65764607489109" lon="12.35328552313149">
        <ele>1503.6400000000001</ele>
        <time>2017-03-11T08:20:52Z</time>
      </trkpt>
      <trkpt lat="46.657615229487419" lon="12.353362469002604">
        <ele>1504.1199999999999</ele>
        <time>2017-03-11T08:21:00Z</time>
      </trkpt>
      <trkpt lat="46.65760844014585" lon="12.353441091254354">
        <ele>1504.5999999999999</ele>
        <time>2017-03-11T08:21:06Z</time>
      </trkpt>
      <trkpt lat="46.657594442367554" lon="12.353509655222297">
        <ele>1505.0799999999999</ele>
        <time>2017-03-11T08:21:13Z</time>
      </trkpt>
      <trkpt lat="46.65759620256722" lon="12.353560868650675">
        <ele>1505.0799999999999</ele>
        <time>2017-03-11T08:21:16Z</time>
      </trkpt>
      <trkpt lat="46.657578516751528" lon="12.353645022958517">
        <ele>1505.5599999999999</ele>
        <time>2017-03-11T08:21:22Z</time>
      </trkpt>
      <trkpt lat="46.657578181475401" lon="12.353673269972205">
        <ele>1505.0799999999999</ele>
        <time>2017-03-11T08:21:24Z</time>
      </trkpt>
      <trkpt lat="46.657547755166888" lon="12.353811655193567">
        <ele>1506.04</ele>
        <time>2017-03-11T08:21:34Z</time>
      </trkpt>
      <trkpt lat="46.657510036602616" lon="12.353880805894732">
        <ele>1506.52</ele>
        <time>2017-03-11T08:21:40Z</time>
      </trkpt>
      <trkpt lat="46.657498888671398" lon="12.353902012109756">
        <ele>1506.52</ele>
        <time>2017-03-11T08:21:42Z</time>
      </trkpt>
      <trkpt lat="46.657443903386593" lon="12.35400628298521">
        <ele>1507</ele>
        <time>2017-03-11T08:21:51Z</time>
      </trkpt>
      <trkpt lat="46.657359497621655" lon="12.354096220806241">
        <ele>1507.97</ele>
        <time>2017-03-11T08:22:01Z</time>
      </trkpt>
      <trkpt lat="46.657291771844029" lon="12.354129664599895">
        <ele>1507.97</ele>
        <time>2017-03-11T08:22:08Z</time>
      </trkpt>
      <trkpt lat="46.657223040238023" lon="12.354163276031613">
        <ele>1507.97</ele>
        <time>2017-03-11T08:22:15Z</time>
      </trkpt>
      <trkpt lat="46.657135281711817" lon="12.354241898283362">
        <ele>1509.4100000000001</ele>
        <time>2017-03-11T08:22:26Z</time>
      </trkpt>
      <trkpt lat="46.657129665836692" lon="12.354247430339456">
        <ele>1509.4100000000001</ele>
        <time>2017-03-11T08:22:27Z</time>
      </trkpt>
      <trkpt lat="46.657114997506142" lon="12.354263858869672">
        <ele>1509.4100000000001</ele>
        <time>2017-03-11T08:22:29Z</time>
      </trkpt>
      <trkpt lat="46.657032771036029" lon="12.35432923771441">
        <ele>1510.3699999999999</ele>
        <time>2017-03-11T08:22:37Z</time>
      </trkpt>
      <trkpt lat="46.657026065513492" lon="12.35433854162693">
        <ele>1510.3699999999999</ele>
        <time>2017-03-11T08:22:38Z</time>
      </trkpt>
      <trkpt lat="46.656944509595633" lon="12.354387324303389">
        <ele>1510.8499999999999</ele>
        <time>2017-03-11T08:22:47Z</time>
      </trkpt>
      <trkpt lat="46.656909137964249" lon="12.354412972927094">
        <ele>1511.3299999999999</ele>
        <time>2017-03-11T08:22:51Z</time>
      </trkpt>
      <trkpt lat="46.65684225037694" lon="12.354450942948461">
        <ele>1511.8099999999999</ele>
        <time>2017-03-11T08:22:59Z</time>
      </trkpt>
      <trkpt lat="46.656823307275772" lon="12.354457983747125">
        <ele>1512.29</ele>
        <time>2017-03-11T08:23:01Z</time>
      </trkpt>
      <trkpt lat="46.656815260648727" lon="12.354467120021582">
        <ele>1512.29</ele>
        <time>2017-03-11T08:23:02Z</time>
      </trkpt>
      <trkpt lat="46.656719706952572" lon="12.354518417268991">
        <ele>1512.77</ele>
        <time>2017-03-11T08:23:11Z</time>
      </trkpt>
      <trkpt lat="46.656711073592305" lon="12.3545300681144">
        <ele>1512.77</ele>
        <time>2017-03-11T08:23:12Z</time>
      </trkpt>
      <trkpt lat="46.656601941213012" lon="12.354573821648955">
        <ele>1513.25</ele>
        <time>2017-03-11T08:23:23Z</time>
      </trkpt>
      <trkpt lat="46.656568413600326" lon="12.354583460837603">
        <ele>1513.25</ele>
        <time>2017-03-11T08:23:26Z</time>
      </trkpt>
      <trkpt lat="46.656558020040393" lon="12.354588573798537">
        <ele>1513.73</ele>
        <time>2017-03-11T08:23:27Z</time>
      </trkpt>
      <trkpt lat="46.65652952156961" lon="12.354602068662643">
        <ele>1515.1800000000001</ele>
        <time>2017-03-11T08:23:30Z</time>
      </trkpt>
      <trkpt lat="46.65650999173522" lon="12.354600308462977">
        <ele>1514.21</ele>
        <time>2017-03-11T08:23:32Z</time>
      </trkpt>
      <trkpt lat="46.656434638425708" lon="12.354611707851291">
        <ele>1514.21</ele>
        <time>2017-03-11T08:23:39Z</time>
      </trkpt>
      <trkpt lat="46.656344868242741" lon="12.354617742821574">
        <ele>1515.1800000000001</ele>
        <time>2017-03-11T08:23:47Z</time>
      </trkpt>
      <trkpt lat="46.656317124143243" lon="12.354628806933761">
        <ele>1514.6900000000001</ele>
        <time>2017-03-11T08:23:50Z</time>
      </trkpt>
      <trkpt lat="46.656298683956265" lon="12.354634422808886">
        <ele>1515.1800000000001</ele>
        <time>2017-03-11T08:23:52Z</time>
      </trkpt>
      <trkpt lat="46.65627839975059" lon="12.354627968743443">
        <ele>1515.1800000000001</ele>
        <time>2017-03-11T08:23:54Z</time>
      </trkpt>
      <trkpt lat="46.656215954571962" lon="12.35464733093977">
        <ele>1515.6600000000001</ele>
        <time>2017-03-11T08:24:00Z</time>
      </trkpt>
      <trkpt lat="46.656190138310194" lon="12.354645151644945">
        <ele>1515.6600000000001</ele>
        <time>2017-03-11T08:24:03Z</time>
      </trkpt>
      <trkpt lat="46.656093494966626" lon="12.354670213535428">
        <ele>1516.6199999999999</ele>
        <time>2017-03-11T08:24:12Z</time>
      </trkpt>
      <trkpt lat="46.656004143878818" lon="12.354696532711387">
        <ele>1517.0999999999999</ele>
        <time>2017-03-11T08:24:22Z</time>
      </trkpt>
      <trkpt lat="46.655904734507203" lon="12.354723941534758">
        <ele>1517.5799999999999</ele>
        <time>2017-03-11T08:24:32Z</time>
      </trkpt>
      <trkpt lat="46.655876655131578" lon="12.354733580723405">
        <ele>1518.0599999999999</ele>
        <time>2017-03-11T08:24:34Z</time>
      </trkpt>
      <trkpt lat="46.655774898827076" lon="12.354768449440598">
        <ele>1518.54</ele>
        <time>2017-03-11T08:24:44Z</time>
      </trkpt>
      <trkpt lat="46.655698288232088" lon="12.354780770838261">
        <ele>1519.02</ele>
        <time>2017-03-11T08:24:52Z</time>
      </trkpt>
      <trkpt lat="46.655685799196362" lon="12.354776496067643">
        <ele>1519.02</ele>
        <time>2017-03-11T08:24:54Z</time>
      </trkpt>
      <trkpt lat="46.655666185542941" lon="12.354779513552785">
        <ele>1519.02</ele>
        <time>2017-03-11T08:24:56Z</time>
      </trkpt>
      <trkpt lat="46.655607596039772" lon="12.354789320379496">
        <ele>1519.5</ele>
        <time>2017-03-11T08:25:00Z</time>
      </trkpt>
      <trkpt lat="46.65554934181273" lon="12.354793511331081">
        <ele>1519.98</ele>
        <time>2017-03-11T08:25:06Z</time>
      </trkpt>
      <trkpt lat="46.655433839187026" lon="12.354794517159462">
        <ele>1520.46</ele>
        <time>2017-03-11T08:25:18Z</time>
      </trkpt>
      <trkpt lat="46.655342141166329" lon="12.354792673140764">
        <ele>1521.4200000000001</ele>
        <time>2017-03-11T08:25:26Z</time>
      </trkpt>
      <trkpt lat="46.655334262177348" lon="12.354795606806874">
        <ele>1521.4200000000001</ele>
        <time>2017-03-11T08:25:27Z</time>
      </trkpt>
      <trkpt lat="46.655290508642793" lon="12.354789152741432">
        <ele>1522.8699999999999</ele>
        <time>2017-03-11T08:25:31Z</time>
      </trkpt>
      <trkpt lat="46.655255472287536" lon="12.354793511331081">
        <ele>1521.9000000000001</ele>
        <time>2017-03-11T08:25:34Z</time>
      </trkpt>
      <trkpt lat="46.655233595520258" lon="12.354792002588511">
        <ele>1521.9000000000001</ele>
        <time>2017-03-11T08:25:36Z</time>
      </trkpt>
      <trkpt lat="46.655215071514249" lon="12.354796947911382">
        <ele>1521.9000000000001</ele>
        <time>2017-03-11T08:25:38Z</time>
      </trkpt>
      <trkpt lat="46.655100407078862" lon="12.354799881577492">
        <ele>1522.8699999999999</ele>
        <time>2017-03-11T08:25:49Z</time>
      </trkpt>
      <trkpt lat="46.655015498399734" lon="12.354798121377826">
        <ele>1522.8699999999999</ele>
        <time>2017-03-11T08:25:57Z</time>
      </trkpt>
      <trkpt lat="46.654991190880537" lon="12.354792421683669">
        <ele>1522.8699999999999</ele>
        <time>2017-03-11T08:26:00Z</time>
      </trkpt>
      <trkpt lat="46.654974427074194" lon="12.354792840778828">
        <ele>1523.8299999999999</ele>
        <time>2017-03-11T08:26:02Z</time>
      </trkpt>
      <trkpt lat="46.654858589172363" lon="12.354768868535757">
        <ele>1523.8299999999999</ele>
        <time>2017-03-11T08:26:14Z</time>
      </trkpt>
      <trkpt lat="46.654744679108262" lon="12.354701729491353">
        <ele>1523.8299999999999</ele>
        <time>2017-03-11T08:26:25Z</time>
      </trkpt>
      <trkpt lat="46.654683155938983" lon="12.354656299576163">
        <ele>1523.8299999999999</ele>
        <time>2017-03-11T08:26:32Z</time>
      </trkpt>
      <trkpt lat="46.654668319970369" lon="12.354657389223576">
        <ele>1523.8299999999999</ele>
        <time>2017-03-11T08:26:33Z</time>
      </trkpt>
      <trkpt lat="46.654626997187734" lon="12.354635009542108">
        <ele>1523.8299999999999</ele>
        <time>2017-03-11T08:26:37Z</time>
      </trkpt>
      <trkpt lat="46.65461165830493" lon="12.35462729819119">
        <ele>1523.8299999999999</ele>
        <time>2017-03-11T08:26:39Z</time>
      </trkpt>
      <trkpt lat="46.654513590037823" lon="12.354581449180841">
        <ele>1524.79</ele>
        <time>2017-03-11T08:26:48Z</time>
      </trkpt>
      <trkpt lat="46.654505208134651" lon="12.354582119733095">
        <ele>1524.79</ele>
        <time>2017-03-11T08:26:49Z</time>
      </trkpt>
      <trkpt lat="46.654487354680896" lon="12.354572396725416">
        <ele>1525.27</ele>
        <time>2017-03-11T08:26:51Z</time>
      </trkpt>
      <trkpt lat="46.654465729370713" lon="12.35456719994545">
        <ele>1525.27</ele>
        <time>2017-03-11T08:26:53Z</time>
      </trkpt>
      <trkpt lat="46.654404792934656" lon="12.354560410603881">
        <ele>1525.75</ele>
        <time>2017-03-11T08:26:59Z</time>
      </trkpt>
      <trkpt lat="46.654363051056862" lon="12.354550352320075">
        <ele>1525.75</ele>
        <time>2017-03-11T08:27:03Z</time>
      </trkpt>
      <trkpt lat="46.654311586171389" lon="12.354518584907055">
        <ele>1526.23</ele>
        <time>2017-03-11T08:27:08Z</time>
      </trkpt>
      <trkpt lat="46.654216451570392" lon="12.35448706895113">
        <ele>1526.71</ele>
        <time>2017-03-11T08:27:18Z</time>
      </trkpt>
      <trkpt lat="46.654128944501281" lon="12.354464353993535">
        <ele>1527.6700000000001</ele>
        <time>2017-03-11T08:27:29Z</time>
      </trkpt>
      <trkpt lat="46.654084688052535" lon="12.354441890493035">
        <ele>1529.1099999999999</ele>
        <time>2017-03-11T08:27:32Z</time>
      </trkpt>
      <trkpt lat="46.654071360826492" lon="12.354444153606892">
        <ele>1527.6700000000001</ele>
        <time>2017-03-11T08:27:33Z</time>
      </trkpt>
      <trkpt lat="46.654066080227494" lon="12.354429317638278">
        <ele>1527.6700000000001</ele>
        <time>2017-03-11T08:27:34Z</time>
      </trkpt>
      <trkpt lat="46.653936244547367" lon="12.354370895773172">
        <ele>1528.1500000000001</ele>
        <time>2017-03-11T08:27:46Z</time>
      </trkpt>
      <trkpt lat="46.653833985328674" lon="12.354330746456981">
        <ele>1529.1099999999999</ele>
        <time>2017-03-11T08:27:56Z</time>
      </trkpt>
      <trkpt lat="46.653802217915654" lon="12.354310797527432">
        <ele>1529.1099999999999</ele>
        <time>2017-03-11T08:27:58Z</time>
      </trkpt>
      <trkpt lat="46.65372678078711" lon="12.354305936023593">
        <ele>1529.5899999999999</ele>
        <time>2017-03-11T08:28:06Z</time>
      </trkpt>
      <trkpt lat="46.653618905693293" lon="12.354290597140789">
        <ele>1531.04</ele>
        <time>2017-03-11T08:28:17Z</time>
      </trkpt>
      <trkpt lat="46.653507677838206" lon="12.354274084791541">
        <ele>1531.52</ele>
        <time>2017-03-11T08:28:27Z</time>
      </trkpt>
      <trkpt lat="46.653501223772764" lon="12.354271737858653">
        <ele>1531.52</ele>
        <time>2017-03-11T08:28:28Z</time>
      </trkpt>
      <trkpt lat="46.653419500216842" lon="12.354278611019254">
        <ele>1532</ele>
        <time>2017-03-11T08:28:36Z</time>
      </trkpt>
      <trkpt lat="46.653383374214172" lon="12.35419831238687">
        <ele>1532.96</ele>
        <time>2017-03-11T08:28:45Z</time>
      </trkpt>
      <trkpt lat="46.653309864923358" lon="12.354173166677356">
        <ele>1532.96</ele>
        <time>2017-03-11T08:28:53Z</time>
      </trkpt>
      <trkpt lat="46.653237193822861" lon="12.354185152798891">
        <ele>1533.4400000000001</ele>
        <time>2017-03-11T08:28:59Z</time>
      </trkpt>
      <trkpt lat="46.653132420033216" lon="12.354158749803901">
        <ele>1533.9200000000001</ele>
        <time>2017-03-11T08:29:09Z</time>
      </trkpt>
      <trkpt lat="46.65309495292604" lon="12.354188589379191">
        <ele>1533.9200000000001</ele>
        <time>2017-03-11T08:29:12Z</time>
      </trkpt>
      <trkpt lat="46.65307005867362" lon="12.354198144748807">
        <ele>1534.4000000000001</ele>
        <time>2017-03-11T08:29:14Z</time>
      </trkpt>
      <trkpt lat="46.652945335954428" lon="12.354205353185534">
        <ele>1535.3599999999999</ele>
        <time>2017-03-11T08:29:25Z</time>
      </trkpt>
      <trkpt lat="46.652868306264281" lon="12.354219686239958">
        <ele>1535.8399999999999</ele>
        <time>2017-03-11T08:29:31Z</time>
      </trkpt>
      <trkpt lat="46.652831844985485" lon="12.354229409247637">
        <ele>1537.29</ele>
        <time>2017-03-11T08:29:34Z</time>
      </trkpt>
      <trkpt lat="46.652730004861951" lon="12.354232678189874">
        <ele>1536.3199999999999</ele>
        <time>2017-03-11T08:29:43Z</time>
      </trkpt>
      <trkpt lat="46.65271776728332" lon="12.354230331256986">
        <ele>1536.8</ele>
        <time>2017-03-11T08:29:44Z</time>
      </trkpt>
      <trkpt lat="46.652701757848263" lon="12.354240640997887">
        <ele>1536.8</ele>
        <time>2017-03-11T08:29:46Z</time>
      </trkpt>
      <trkpt lat="46.652587847784162" lon="12.35424080863595">
        <ele>1537.29</ele>
        <time>2017-03-11T08:29:55Z</time>
      </trkpt>
      <trkpt lat="46.652483828365803" lon="12.354224547743797">
        <ele>1538.25</ele>
        <time>2017-03-11T08:30:05Z</time>
      </trkpt>
      <trkpt lat="46.652448875829577" lon="12.354215914383531">
        <ele>1538.25</ele>
        <time>2017-03-11T08:30:08Z</time>
      </trkpt>
      <trkpt lat="46.652368577197194" lon="12.354189176112413">
        <ele>1539.21</ele>
        <time>2017-03-11T08:30:16Z</time>
      </trkpt>
      <trkpt lat="46.652321806177497" lon="12.354178028181195">
        <ele>1539.6900000000001</ele>
        <time>2017-03-11T08:30:20Z</time>
      </trkpt>
      <trkpt lat="46.652296995744109" lon="12.35417677089572">
        <ele>1539.6900000000001</ele>
        <time>2017-03-11T08:30:22Z</time>
      </trkpt>
      <trkpt lat="46.652279309928417" lon="12.354151960462332">
        <ele>1539.6900000000001</ele>
        <time>2017-03-11T08:30:24Z</time>
      </trkpt>
      <trkpt lat="46.652263468131423" lon="12.354146931320429">
        <ele>1539.6900000000001</ele>
        <time>2017-03-11T08:30:25Z</time>
      </trkpt>
      <trkpt lat="46.652257600799203" lon="12.354134945198894">
        <ele>1540.1700000000001</ele>
        <time>2017-03-11T08:30:26Z</time>
      </trkpt>
      <trkpt lat="46.652224408462644" lon="12.354119354858994">
        <ele>1540.1700000000001</ele>
        <time>2017-03-11T08:30:29Z</time>
      </trkpt>
      <trkpt lat="46.652205632999539" lon="12.354122959077358">
        <ele>1540.1700000000001</ele>
        <time>2017-03-11T08:30:30Z</time>
      </trkpt>
      <trkpt lat="46.652196915820241" lon="12.35411474481225">
        <ele>1540.1700000000001</ele>
        <time>2017-03-11T08:30:31Z</time>
      </trkpt>
      <trkpt lat="46.65218073874712" lon="12.354112062603235">
        <ele>1540.1700000000001</ele>
        <time>2017-03-11T08:30:32Z</time>
      </trkpt>
      <trkpt lat="46.652074037119746" lon="12.353984070941806">
        <ele>1541.1300000000001</ele>
        <time>2017-03-11T08:30:44Z</time>
      </trkpt>
      <trkpt lat="46.651989044621587" lon="12.35395347699523">
        <ele>1541.6099999999999</ele>
        <time>2017-03-11T08:30:54Z</time>
      </trkpt>
      <trkpt lat="46.651918217539787" lon="12.353906035423279">
        <ele>1542.0899999999999</ele>
        <time>2017-03-11T08:31:02Z</time>
      </trkpt>
      <trkpt lat="46.651829788461328" lon="12.353857001289725">
        <ele>1542.0899999999999</ele>
        <time>2017-03-11T08:31:12Z</time>
      </trkpt>
      <trkpt lat="46.651751920580864" lon="12.353828754276037">
        <ele>1542.5699999999999</ele>
        <time>2017-03-11T08:31:21Z</time>
      </trkpt>
      <trkpt lat="46.65169115178287" lon="12.353797741234303">
        <ele>1543.05</ele>
        <time>2017-03-11T08:31:30Z</time>
      </trkpt>
      <trkpt lat="46.651666089892387" lon="12.353772176429629">
        <ele>1543.05</ele>
        <time>2017-03-11T08:31:34Z</time>
      </trkpt>
      <trkpt lat="46.651607416570187" lon="12.353715598583221">
        <ele>1543.53</ele>
        <time>2017-03-11T08:31:41Z</time>
      </trkpt>
      <trkpt lat="46.65160221979022" lon="12.353701516985893">
        <ele>1543.53</ele>
        <time>2017-03-11T08:31:42Z</time>
      </trkpt>
      <trkpt lat="46.651543881744146" lon="12.353656757622957">
        <ele>1544.5</ele>
        <time>2017-03-11T08:31:51Z</time>
      </trkpt>
      <trkpt lat="46.651532566174865" lon="12.353700594976544">
        <ele>1544.98</ele>
        <time>2017-03-11T08:31:55Z</time>
      </trkpt>
      <trkpt lat="46.651499625295401" lon="12.353736218065023">
        <ele>1544.98</ele>
        <time>2017-03-11T08:32:03Z</time>
      </trkpt>
      <trkpt lat="46.651504822075367" lon="12.353714760392904">
        <ele>1544.01</ele>
        <time>2017-03-11T08:32:16Z</time>
      </trkpt>
      <trkpt lat="46.651498451828957" lon="12.353681651875377">
        <ele>1544.01</ele>
        <time>2017-03-11T08:32:33Z</time>
      </trkpt>
      <trkpt lat="46.651476826518774" lon="12.353661116212606">
        <ele>1544.01</ele>
        <time>2017-03-11T08:32:49Z</time>
      </trkpt>
      <trkpt lat="46.651472803205252" lon="12.353710401803255">
        <ele>1544.98</ele>
        <time>2017-03-11T08:33:04Z</time>
      </trkpt>
      <trkpt lat="46.651512701064348" lon="12.353541925549507">
        <ele>1544.5</ele>
        <time>2017-03-11T08:33:24Z</time>
      </trkpt>
      <trkpt lat="46.651557376608253" lon="12.353490879759192">
        <ele>1544.01</ele>
        <time>2017-03-11T08:33:47Z</time>
      </trkpt>
      <trkpt lat="46.651532230898738" lon="12.353559862822294">
        <ele>1544.01</ele>
        <time>2017-03-11T08:34:08Z</time>
      </trkpt>
      <trkpt lat="46.651515550911427" lon="12.353617027401924">
        <ele>1544.5</ele>
        <time>2017-03-11T08:34:29Z</time>
      </trkpt>
      <trkpt lat="46.651539020240307" lon="12.353575536981225">
        <ele>1544.01</ele>
        <time>2017-03-11T08:34:57Z</time>
      </trkpt>
      <trkpt lat="46.651587383821607" lon="12.353519713506103">
        <ele>1544.01</ele>
        <time>2017-03-11T08:35:20Z</time>
      </trkpt>
      <trkpt lat="46.651522926986217" lon="12.353393314406276">
        <ele>1544.01</ele>
        <time>2017-03-11T08:35:44Z</time>
      </trkpt>
      <trkpt lat="46.651537008583546" lon="12.353364899754524">
        <ele>1544.01</ele>
        <time>2017-03-11T08:36:09Z</time>
      </trkpt>
      <trkpt lat="46.651542708277702" lon="12.353458441793919">
        <ele>1544.01</ele>
        <time>2017-03-11T08:36:39Z</time>
      </trkpt>
      <trkpt lat="46.651617139577866" lon="12.353383591398597">
        <ele>1544.5</ele>
        <time>2017-03-11T08:37:07Z</time>
      </trkpt>
      <trkpt lat="46.651559891179204" lon="12.35322056338191">
        <ele>1544.5</ele>
        <time>2017-03-11T08:37:33Z</time>
      </trkpt>
      <trkpt lat="46.651540361344814" lon="12.353273704648018">
        <ele>1544.5</ele>
        <time>2017-03-11T08:37:55Z</time>
      </trkpt>
      <trkpt lat="46.651598447933793" lon="12.353484677150846">
        <ele>1544.5</ele>
        <time>2017-03-11T08:38:19Z</time>
      </trkpt>
      <trkpt lat="46.651583276689053" lon="12.353478306904435">
        <ele>1544.5</ele>
        <time>2017-03-11T08:38:48Z</time>
      </trkpt>
      <trkpt lat="46.651620659977198" lon="12.353421477600932">
        <ele>1544.98</ele>
        <time>2017-03-11T08:39:10Z</time>
      </trkpt>
      <trkpt lat="46.65151915512979" lon="12.353553408756852">
        <ele>1544.98</ele>
        <time>2017-03-11T08:39:38Z</time>
      </trkpt>
      <trkpt lat="46.651540864259005" lon="12.353588696569204">
        <ele>1544.98</ele>
        <time>2017-03-11T08:40:09Z</time>
      </trkpt>
      <trkpt lat="46.65158411487937" lon="12.353528263047338">
        <ele>1544.5</ele>
        <time>2017-03-11T08:40:36Z</time>
      </trkpt>
      <trkpt lat="46.651530722156167" lon="12.353538740426302">
        <ele>1544.5</ele>
        <time>2017-03-11T08:40:57Z</time>
      </trkpt>
      <trkpt lat="46.65153382346034" lon="12.353410916402936">
        <ele>1544.5</ele>
        <time>2017-03-11T08:41:27Z</time>
      </trkpt>
      <trkpt lat="46.651485040783882" lon="12.353334976360202">
        <ele>1544.5</ele>
        <time>2017-03-11T08:41:51Z</time>
      </trkpt>
      <trkpt lat="46.651491578668356" lon="12.353457352146506">
        <ele>1544.5</ele>
        <time>2017-03-11T08:42:11Z</time>
      </trkpt>
      <trkpt lat="46.651493087410927" lon="12.35349859111011">
        <ele>1545.46</ele>
        <time>2017-03-11T08:42:28Z</time>
      </trkpt>
      <trkpt lat="46.651517143473029" lon="12.353533040732145">
        <ele>1544.01</ele>
        <time>2017-03-11T08:42:36Z</time>
      </trkpt>
      <trkpt lat="46.651517227292061" lon="12.353548463433981">
        <ele>1545.9400000000001</ele>
        <time>2017-03-11T08:42:41Z</time>
      </trkpt>
      <trkpt lat="46.651514293625951" lon="12.353547541424632">
        <ele>1544.98</ele>
        <time>2017-03-11T08:42:42Z</time>
      </trkpt>
      <trkpt lat="46.651488309726119" lon="12.353590121492743">
        <ele>1543.53</ele>
        <time>2017-03-11T08:42:50Z</time>
      </trkpt>
      <trkpt lat="46.651488309726119" lon="12.353643765673041">
        <ele>1544.5</ele>
        <time>2017-03-11T08:43:08Z</time>
      </trkpt>
      <trkpt lat="46.651464253664017" lon="12.353643262758851">
        <ele>1545.46</ele>
        <time>2017-03-11T08:43:20Z</time>
      </trkpt>
      <trkpt lat="46.651503732427955" lon="12.353730099275708">
        <ele>1544.98</ele>
        <time>2017-03-11T08:43:31Z</time>
      </trkpt>
      <trkpt lat="46.651511024683714" lon="12.353734374046326">
        <ele>1544.98</ele>
        <time>2017-03-11T08:43:48Z</time>
      </trkpt>
      <trkpt lat="46.651468947529793" lon="12.353770667687058">
        <ele>1544.98</ele>
        <time>2017-03-11T08:44:02Z</time>
      </trkpt>
      <trkpt lat="46.651515550911427" lon="12.35371015034616">
        <ele>1544.98</ele>
        <time>2017-03-11T08:44:26Z</time>
      </trkpt>
      <trkpt lat="46.651544803753495" lon="12.353732446208596">
        <ele>1544.5</ele>
        <time>2017-03-11T08:44:46Z</time>
      </trkpt>
      <trkpt lat="46.651500212028623" lon="12.353714676573873">
        <ele>1544.98</ele>
        <time>2017-03-11T08:45:02Z</time>
      </trkpt>
      <trkpt lat="46.651497948914766" lon="12.353640999644995">
        <ele>1544.5</ele>
        <time>2017-03-11T08:45:18Z</time>
      </trkpt>
      <trkpt lat="46.651481939479709" lon="12.353667318820953">
        <ele>1544.5</ele>
        <time>2017-03-11T08:45:33Z</time>
      </trkpt>
      <trkpt lat="46.651504151523113" lon="12.35366178676486">
        <ele>1544.98</ele>
        <time>2017-03-11T08:45:43Z</time>
      </trkpt>
      <trkpt lat="46.651514125987887" lon="12.353687351569533">
        <ele>1544.5</ele>
        <time>2017-03-11T08:46:00Z</time>
      </trkpt>
      <trkpt lat="46.651500044390559" lon="12.353696990758181">
        <ele>1544.98</ele>
        <time>2017-03-11T08:46:19Z</time>
      </trkpt>
      <trkpt lat="46.651498200371861" lon="12.353676119819283">
        <ele>1544.5</ele>
        <time>2017-03-11T08:46:32Z</time>
      </trkpt>
      <trkpt lat="46.65150155313313" lon="12.353616524487734">
        <ele>1544.5</ele>
        <time>2017-03-11T08:46:52Z</time>
      </trkpt>
      <trkpt lat="46.651500966399908" lon="12.353615183383226">
        <ele>1544.98</ele>
        <time>2017-03-11T08:46:56Z</time>
      </trkpt>
      <trkpt lat="46.651482358574867" lon="12.35356061719358">
        <ele>1544.5</ele>
        <time>2017-03-11T08:47:07Z</time>
      </trkpt>
      <trkpt lat="46.651509096845984" lon="12.353614093735814">
        <ele>1544.5</ele>
        <time>2017-03-11T08:47:20Z</time>
      </trkpt>
      <trkpt lat="46.651508342474699" lon="12.353591378778219">
        <ele>1544.01</ele>
        <time>2017-03-11T08:47:24Z</time>
      </trkpt>
      <trkpt lat="46.651450758799911" lon="12.353456513956189">
        <ele>1544.98</ele>
        <time>2017-03-11T08:47:36Z</time>
      </trkpt>
      <trkpt lat="46.651434581726789" lon="12.353469422087073">
        <ele>1544.98</ele>
        <time>2017-03-11T08:47:48Z</time>
      </trkpt>
      <trkpt lat="46.651457883417606" lon="12.353495825082064">
        <ele>1544.5</ele>
        <time>2017-03-11T08:47:58Z</time>
      </trkpt>
      <trkpt lat="46.651460397988558" lon="12.353483168408275">
        <ele>1544.98</ele>
        <time>2017-03-11T08:48:16Z</time>
      </trkpt>
      <trkpt lat="46.651439694687724" lon="12.353516109287739">
        <ele>1544.01</ele>
        <time>2017-03-11T08:48:31Z</time>
      </trkpt>
      <trkpt lat="46.651444304734468" lon="12.353486604988575">
        <ele>1544.5</ele>
        <time>2017-03-11T08:48:44Z</time>
      </trkpt>
      <trkpt lat="46.651459559798241" lon="12.353482078760862">
        <ele>1544.5</ele>
        <time>2017-03-11T08:48:54Z</time>
      </trkpt>
      <trkpt lat="46.651473557576537" lon="12.353491801768541">
        <ele>1544.5</ele>
        <time>2017-03-11T08:49:08Z</time>
      </trkpt>
      <trkpt lat="46.651494931429625" lon="12.353513175621629">
        <ele>1544.5</ele>
        <time>2017-03-11T08:49:22Z</time>
      </trkpt>
      <trkpt lat="46.651495518162847" lon="12.353511834517121">
        <ele>1544.01</ele>
        <time>2017-03-11T08:49:34Z</time>
      </trkpt>
      <trkpt lat="46.651532482355833" lon="12.353511247783899">
        <ele>1544.01</ele>
        <time>2017-03-11T08:49:52Z</time>
      </trkpt>
      <trkpt lat="46.651536589488387" lon="12.353515354916453">
        <ele>1544.5</ele>
        <time>2017-03-11T08:50:06Z</time>
      </trkpt>
      <trkpt lat="46.651515467092395" lon="12.353505799546838">
        <ele>1544.01</ele>
        <time>2017-03-11T08:50:20Z</time>
      </trkpt>
      <trkpt lat="46.651512701064348" lon="12.353493142873049">
        <ele>1544.01</ele>
        <time>2017-03-11T08:50:36Z</time>
      </trkpt>
      <trkpt lat="46.651489650830626" lon="12.353492975234985">
        <ele>1544.5</ele>
        <time>2017-03-11T08:50:50Z</time>
      </trkpt>
      <trkpt lat="46.651512365788221" lon="12.353491550311446">
        <ele>1544.01</ele>
        <time>2017-03-11T08:51:03Z</time>
      </trkpt>
      <trkpt lat="46.651531560346484" lon="12.353501608595252">
        <ele>1544.5</ele>
        <time>2017-03-11T08:51:19Z</time>
      </trkpt>
      <trkpt lat="46.651525273919106" lon="12.353496747091413">
        <ele>1544.5</ele>
        <time>2017-03-11T08:51:40Z</time>
      </trkpt>
      <trkpt lat="46.651474228128791" lon="12.353493310511112">
        <ele>1544.5</ele>
        <time>2017-03-11T08:51:51Z</time>
      </trkpt>
      <trkpt lat="46.651495266705751" lon="12.353472942486405">
        <ele>1544.5</ele>
        <time>2017-03-11T08:52:10Z</time>
      </trkpt>
      <trkpt lat="46.651515131816268" lon="12.353470427915454">
        <ele>1544.5</ele>
        <time>2017-03-11T08:52:34Z</time>
      </trkpt>
      <trkpt lat="46.651490153744817" lon="12.353466907516122">
        <ele>1544.5</ele>
        <time>2017-03-11T08:52:46Z</time>
      </trkpt>
      <trkpt lat="46.651438269764185" lon="12.353466656059027">
        <ele>1544.98</ele>
        <time>2017-03-11T08:52:58Z</time>
      </trkpt>
      <trkpt lat="46.651387307792902" lon="12.353393649682403">
        <ele>1546.4200000000001</ele>
        <time>2017-03-11T08:53:07Z</time>
      </trkpt>
      <trkpt lat="46.651301644742489" lon="12.353326510637999">
        <ele>1546.9000000000001</ele>
        <time>2017-03-11T08:53:20Z</time>
      </trkpt>
      <trkpt lat="46.651228722184896" lon="12.353253085166216">
        <ele>1547.8599999999999</ele>
        <time>2017-03-11T08:53:30Z</time>
      </trkpt>
      <trkpt lat="46.65114926174283" lon="12.353141354396939">
        <ele>1548.8199999999999</ele>
        <time>2017-03-11T08:53:41Z</time>
      </trkpt>
      <trkpt lat="46.651072148233652" lon="12.353107240051031">
        <ele>1550.74</ele>
        <time>2017-03-11T08:53:52Z</time>
      </trkpt>
      <trkpt lat="46.650991346687078" lon="12.353040939196944">
        <ele>1551.22</ele>
        <time>2017-03-11T08:54:04Z</time>
      </trkpt>
      <trkpt lat="46.65089663118124" lon="12.352910852059722">
        <ele>1552.1900000000001</ele>
        <time>2017-03-11T08:54:17Z</time>
      </trkpt>
      <trkpt lat="46.650814488530159" lon="12.35283843241632">
        <ele>1553.1500000000001</ele>
        <time>2017-03-11T08:54:28Z</time>
      </trkpt>
      <trkpt lat="46.650735698640347" lon="12.352771544829011">
        <ele>1553.6300000000001</ele>
        <time>2017-03-11T08:54:38Z</time>
      </trkpt>
      <trkpt lat="46.650648191571236" lon="12.352710105478764">
        <ele>1556.03</ele>
        <time>2017-03-11T08:54:50Z</time>
      </trkpt>
      <trkpt lat="46.650653472170234" lon="12.352718906477094">
        <ele>1555.0699999999999</ele>
        <time>2017-03-11T08:55:03Z</time>
      </trkpt>
      <trkpt lat="46.650614831596613" lon="12.352699795737863">
        <ele>1555.0699999999999</ele>
        <time>2017-03-11T08:55:14Z</time>
      </trkpt>
      <trkpt lat="46.650584656745195" lon="12.352659227326512">
        <ele>1556.51</ele>
        <time>2017-03-11T08:55:23Z</time>
      </trkpt>
      <trkpt lat="46.650522630661726" lon="12.352637434378266">
        <ele>1556.51</ele>
        <time>2017-03-11T08:55:34Z</time>
      </trkpt>
      <trkpt lat="46.650456078350544" lon="12.352609522640705">
        <ele>1557.47</ele>
        <time>2017-03-11T08:55:45Z</time>
      </trkpt>
      <trkpt lat="46.650429423898458" lon="12.352614887058735">
        <ele>1557.95</ele>
        <time>2017-03-11T08:55:54Z</time>
      </trkpt>
      <trkpt lat="46.650345521047711" lon="12.352583874017">
        <ele>1558.4300000000001</ele>
        <time>2017-03-11T08:56:04Z</time>
      </trkpt>
      <trkpt lat="46.650269581004977" lon="12.352528972551227">
        <ele>1558.9200000000001</ele>
        <time>2017-03-11T08:56:14Z</time>
      </trkpt>
      <trkpt lat="46.650211745873094" lon="12.352472227066755">
        <ele>1559.4000000000001</ele>
        <time>2017-03-11T08:56:24Z</time>
      </trkpt>
      <trkpt lat="46.650195904076099" lon="12.35246317461133">
        <ele>1558.9200000000001</ele>
        <time>2017-03-11T08:56:33Z</time>
      </trkpt>
      <trkpt lat="46.65019154548645" lon="12.35243677161634">
        <ele>1558.4300000000001</ele>
        <time>2017-03-11T08:56:54Z</time>
      </trkpt>
      <trkpt lat="46.650200514122844" lon="12.352464348077774">
        <ele>1559.4000000000001</ele>
        <time>2017-03-11T08:57:06Z</time>
      </trkpt>
      <trkpt lat="46.650213170796633" lon="12.352472981438041">
        <ele>1558.9200000000001</ele>
        <time>2017-03-11T08:57:16Z</time>
      </trkpt>
      <trkpt lat="46.650202106684446" lon="12.352459486573935">
        <ele>1557.95</ele>
        <time>2017-03-11T08:57:30Z</time>
      </trkpt>
      <trkpt lat="46.650216355919838" lon="12.352451104670763">
        <ele>1558.9200000000001</ele>
        <time>2017-03-11T08:57:39Z</time>
      </trkpt>
      <trkpt lat="46.65023990906775" lon="12.352468203753233">
        <ele>1558.9200000000001</ele>
        <time>2017-03-11T08:57:49Z</time>
      </trkpt>
      <trkpt lat="46.650226078927517" lon="12.352469377219677">
        <ele>1558.9200000000001</ele>
        <time>2017-03-11T08:58:02Z</time>
      </trkpt>
      <trkpt lat="46.65019640699029" lon="12.352456133812666">
        <ele>1558.9200000000001</ele>
        <time>2017-03-11T08:58:12Z</time>
      </trkpt>
      <trkpt lat="46.650159442797303" lon="12.352383462712169">
        <ele>1559.4000000000001</ele>
        <time>2017-03-11T08:58:25Z</time>
      </trkpt>
      <trkpt lat="46.650114934891462" lon="12.352261338382959">
        <ele>1560.3599999999999</ele>
        <time>2017-03-11T08:58:36Z</time>
      </trkpt>
      <trkpt lat="46.650098422542214" lon="12.352227056398988">
        <ele>1560.3599999999999</ele>
        <time>2017-03-11T08:58:40Z</time>
      </trkpt>
      <trkpt lat="46.650086939334869" lon="12.352199563756585">
        <ele>1560.3599999999999</ele>
        <time>2017-03-11T08:58:42Z</time>
      </trkpt>
      <trkpt lat="46.650078222155571" lon="12.352172322571278">
        <ele>1560.8399999999999</ele>
        <time>2017-03-11T08:58:44Z</time>
      </trkpt>
      <trkpt lat="46.650038156658411" lon="12.352091856300831">
        <ele>1562.28</ele>
        <time>2017-03-11T08:58:55Z</time>
      </trkpt>
      <trkpt lat="46.650032959878445" lon="12.352063609287143">
        <ele>1562.76</ele>
        <time>2017-03-11T08:59:05Z</time>
      </trkpt>
      <trkpt lat="46.649970514699817" lon="12.352023543789983">
        <ele>1562.76</ele>
        <time>2017-03-11T08:59:10Z</time>
      </trkpt>
      <trkpt lat="46.649871692061424" lon="12.351952632889152">
        <ele>1563.72</ele>
        <time>2017-03-11T08:59:21Z</time>
      </trkpt>
      <trkpt lat="46.649806732311845" lon="12.351909885182977">
        <ele>1564.6800000000001</ele>
        <time>2017-03-11T08:59:29Z</time>
      </trkpt>
      <trkpt lat="46.64979038760066" lon="12.351892031729221">
        <ele>1564.6800000000001</ele>
        <time>2017-03-11T08:59:31Z</time>
      </trkpt>
      <trkpt lat="46.649743197485805" lon="12.351871412247419">
        <ele>1564.6800000000001</ele>
        <time>2017-03-11T08:59:37Z</time>
      </trkpt>
      <trkpt lat="46.6496501583606" lon="12.351822629570961">
        <ele>1565.6400000000001</ele>
        <time>2017-03-11T08:59:47Z</time>
      </trkpt>
      <trkpt lat="46.649590898305178" lon="12.351761860772967">
        <ele>1566.1199999999999</ele>
        <time>2017-03-11T08:59:55Z</time>
      </trkpt>
      <trkpt lat="46.649522837251425" lon="12.351663373410702">
        <ele>1566.6099999999999</ele>
        <time>2017-03-11T09:00:05Z</time>
      </trkpt>
      <trkpt lat="46.649472126737237" lon="12.351557929068804">
        <ele>1567.0899999999999</ele>
        <time>2017-03-11T09:00:15Z</time>
      </trkpt>
      <trkpt lat="46.649432564154267" lon="12.351420214399695">
        <ele>1567.5699999999999</ele>
        <time>2017-03-11T09:00:25Z</time>
      </trkpt>
      <trkpt lat="46.649426613003016" lon="12.351407557725906">
        <ele>1568.05</ele>
        <time>2017-03-11T09:00:26Z</time>
      </trkpt>
      <trkpt lat="46.649368945509195" lon="12.351276213303208">
        <ele>1568.05</ele>
        <time>2017-03-11T09:00:36Z</time>
      </trkpt>
      <trkpt lat="46.649353019893169" lon="12.351239835843444">
        <ele>1568.53</ele>
        <time>2017-03-11T09:00:39Z</time>
      </trkpt>
      <trkpt lat="46.649276241660118" lon="12.351111257448792">
        <ele>1569.01</ele>
        <time>2017-03-11T09:00:51Z</time>
      </trkpt>
      <trkpt lat="46.649206168949604" lon="12.35102173872292">
        <ele>1569.49</ele>
        <time>2017-03-11T09:01:01Z</time>
      </trkpt>
      <trkpt lat="46.649163085967302" lon="12.350980080664158">
        <ele>1570.45</ele>
        <time>2017-03-11T09:01:10Z</time>
      </trkpt>
      <trkpt lat="46.649081530049443" lon="12.35092107206583">
        <ele>1571.4100000000001</ele>
        <time>2017-03-11T09:01:20Z</time>
      </trkpt>
      <trkpt lat="46.648989748209715" lon="12.350864326581359">
        <ele>1572.8499999999999</ele>
        <time>2017-03-11T09:01:31Z</time>
      </trkpt>
      <trkpt lat="46.648973068222404" lon="12.350857788696885">
        <ele>1572.8499999999999</ele>
        <time>2017-03-11T09:01:33Z</time>
      </trkpt>
      <trkpt lat="46.64888740517199" lon="12.350865751504898">
        <ele>1574.3</ele>
        <time>2017-03-11T09:01:42Z</time>
      </trkpt>
      <trkpt lat="46.64880727417767" lon="12.350864242762327">
        <ele>1575.26</ele>
        <time>2017-03-11T09:01:52Z</time>
      </trkpt>
      <trkpt lat="46.648733094334602" lon="12.350860722362995">
        <ele>1576.7</ele>
        <time>2017-03-11T09:02:01Z</time>
      </trkpt>
      <trkpt lat="46.648669810965657" lon="12.350850077345967">
        <ele>1577.1800000000001</ele>
        <time>2017-03-11T09:02:08Z</time>
      </trkpt>
      <trkpt lat="46.648580962792039" lon="12.350792326033115">
        <ele>1578.6199999999999</ele>
        <time>2017-03-11T09:02:19Z</time>
      </trkpt>
      <trkpt lat="46.648514913395047" lon="12.350739017128944">
        <ele>1580.0599999999999</ele>
        <time>2017-03-11T09:02:29Z</time>
      </trkpt>
      <trkpt lat="46.648459676653147" lon="12.350698113441467">
        <ele>1581.03</ele>
        <time>2017-03-11T09:02:38Z</time>
      </trkpt>
      <trkpt lat="46.648369152098894" lon="12.350640362128615">
        <ele>1581.99</ele>
        <time>2017-03-11T09:02:50Z</time>
      </trkpt>
      <trkpt lat="46.648334115743637" lon="12.350630220025778">
        <ele>1582.95</ele>
        <time>2017-03-11T09:02:55Z</time>
      </trkpt>
      <trkpt lat="46.648313999176025" lon="12.350617479532957">
        <ele>1583.4300000000001</ele>
        <time>2017-03-11T09:02:58Z</time>
      </trkpt>
      <trkpt lat="46.648247865960002" lon="12.350605661049485">
        <ele>1584.3900000000001</ele>
        <time>2017-03-11T09:03:07Z</time>
      </trkpt>
      <trkpt lat="46.648187600076199" lon="12.350623598322272">
        <ele>1585.3499999999999</ele>
        <time>2017-03-11T09:03:14Z</time>
      </trkpt>
      <trkpt lat="46.648098835721612" lon="12.35058881342411">
        <ele>1586.3099999999999</ele>
        <time>2017-03-11T09:03:25Z</time>
      </trkpt>
      <trkpt lat="46.648013340309262" lon="12.350598704069853">
        <ele>1587.27</ele>
        <time>2017-03-11T09:03:34Z</time>
      </trkpt>
      <trkpt lat="46.647938238456845" lon="12.350546987727284">
        <ele>1588.72</ele>
        <time>2017-03-11T09:03:44Z</time>
      </trkpt>
      <trkpt lat="46.647878643125296" lon="12.350487057119608">
        <ele>1591.1199999999999</ele>
        <time>2017-03-11T09:03:54Z</time>
      </trkpt>
      <trkpt lat="46.647811671718955" lon="12.350432658568025">
        <ele>1590.6400000000001</ele>
        <time>2017-03-11T09:04:05Z</time>
      </trkpt>
      <trkpt lat="46.647781999781728" lon="12.350335931405425">
        <ele>1592.5599999999999</ele>
        <time>2017-03-11T09:04:15Z</time>
      </trkpt>
      <trkpt lat="46.647725086659193" lon="12.350265858694911">
        <ele>1593.52</ele>
        <time>2017-03-11T09:04:25Z</time>
      </trkpt>
      <trkpt lat="46.647655349224806" lon="12.350193355232477">
        <ele>1595.45</ele>
        <time>2017-03-11T09:04:37Z</time>
      </trkpt>
      <trkpt lat="46.647592820227146" lon="12.350158654153347">
        <ele>1596.4100000000001</ele>
        <time>2017-03-11T09:04:46Z</time>
      </trkpt>
      <trkpt lat="46.647546887397766" lon="12.350116157904267">
        <ele>1597.8499999999999</ele>
        <time>2017-03-11T09:04:55Z</time>
      </trkpt>
      <trkpt lat="46.647512018680573" lon="12.350079277530313">
        <ele>1598.8099999999999</ele>
        <time>2017-03-11T09:05:03Z</time>
      </trkpt>
      <trkpt lat="46.647441778331995" lon="12.350009707733989">
        <ele>1600.25</ele>
        <time>2017-03-11T09:05:15Z</time>
      </trkpt>
      <trkpt lat="46.647402299568057" lon="12.349967882037163">
        <ele>1602.1700000000001</ele>
        <time>2017-03-11T09:05:24Z</time>
      </trkpt>
      <trkpt lat="46.647376902401447" lon="12.349944831803441">
        <ele>1602.6600000000001</ele>
        <time>2017-03-11T09:05:29Z</time>
      </trkpt>
      <trkpt lat="46.647320156916976" lon="12.349874256178737">
        <ele>1604.0999999999999</ele>
        <time>2017-03-11T09:05:40Z</time>
      </trkpt>
      <trkpt lat="46.647287216037512" lon="12.34982212074101">
        <ele>1605.0599999999999</ele>
        <time>2017-03-11T09:05:49Z</time>
      </trkpt>
      <trkpt lat="46.647249413654208" lon="12.349753137677908">
        <ele>1606.5</ele>
        <time>2017-03-11T09:05:59Z</time>
      </trkpt>
      <trkpt lat="46.647210689261556" lon="12.3496931232512">
        <ele>1607.46</ele>
        <time>2017-03-11T09:06:10Z</time>
      </trkpt>
      <trkpt lat="46.647166600450873" lon="12.349641490727663">
        <ele>1608.9000000000001</ele>
        <time>2017-03-11T09:06:20Z</time>
      </trkpt>
      <trkpt lat="46.647117398679256" lon="12.34956119209528">
        <ele>1610.3499999999999</ele>
        <time>2017-03-11T09:06:32Z</time>
      </trkpt>
      <trkpt lat="46.647103819996119" lon="12.349460860714316">
        <ele>1610.8299999999999</ele>
        <time>2017-03-11T09:06:44Z</time>
      </trkpt>
      <trkpt lat="46.64707750082016" lon="12.349391290917993">
        <ele>1612.75</ele>
        <time>2017-03-11T09:06:53Z</time>
      </trkpt>
      <trkpt lat="46.647035675123334" lon="12.349310740828514">
        <ele>1613.23</ele>
        <time>2017-03-11T09:07:05Z</time>
      </trkpt>
      <trkpt lat="46.646988401189446" lon="12.349238321185112">
        <ele>1616.1099999999999</ele>
        <time>2017-03-11T09:07:16Z</time>
      </trkpt>
      <trkpt lat="46.646946743130684" lon="12.349157352000475">
        <ele>1617.5599999999999</ele>
        <time>2017-03-11T09:07:29Z</time>
      </trkpt>
      <trkpt lat="46.646926123648882" lon="12.349096750840545">
        <ele>1618.52</ele>
        <time>2017-03-11T09:07:38Z</time>
      </trkpt>
      <trkpt lat="46.646921010687947" lon="12.34899977222085">
        <ele>1620.4400000000001</ele>
        <time>2017-03-11T09:07:50Z</time>
      </trkpt>
      <trkpt lat="46.646902989596128" lon="12.348909582942724">
        <ele>1621.4000000000001</ele>
        <time>2017-03-11T09:08:01Z</time>
      </trkpt>
      <trkpt lat="46.646876586601138" lon="12.34880824573338">
        <ele>1623.3199999999999</ele>
        <time>2017-03-11T09:08:15Z</time>
      </trkpt>
      <trkpt lat="46.646832330152392" lon="12.348726270720363">
        <ele>1625.25</ele>
        <time>2017-03-11T09:08:27Z</time>
      </trkpt>
      <trkpt lat="46.646787486970425" lon="12.348657203838229">
        <ele>1626.6900000000001</ele>
        <time>2017-03-11T09:08:39Z</time>
      </trkpt>
      <trkpt lat="46.646726634353399" lon="12.348599620163441">
        <ele>1628.1300000000001</ele>
        <time>2017-03-11T09:08:51Z</time>
      </trkpt>
      <trkpt lat="46.646682294085622" lon="12.348536169156432">
        <ele>1630.05</ele>
        <time>2017-03-11T09:09:03Z</time>
      </trkpt>
      <trkpt lat="46.646623369306326" lon="12.348495265468955">
        <ele>1631.01</ele>
        <time>2017-03-11T09:09:15Z</time>
      </trkpt>
      <trkpt lat="46.646547932177782" lon="12.348404824733734">
        <ele>1632.9400000000001</ele>
        <time>2017-03-11T09:09:28Z</time>
      </trkpt>
      <trkpt lat="46.646529324352741" lon="12.34833718277514">
        <ele>1634.8599999999999</ele>
        <time>2017-03-11T09:09:37Z</time>
      </trkpt>
      <trkpt lat="46.646543573588133" lon="12.348290244117379">
        <ele>1635.3399999999999</ele>
        <time>2017-03-11T09:09:49Z</time>
      </trkpt>
      <trkpt lat="46.646593529731035" lon="12.348193768411875">
        <ele>1637.26</ele>
        <time>2017-03-11T09:10:00Z</time>
      </trkpt>
      <trkpt lat="46.646623872220516" lon="12.348107434809208">
        <ele>1639.1900000000001</ele>
        <time>2017-03-11T09:10:13Z</time>
      </trkpt>
      <trkpt lat="46.646607359871268" lon="12.348125958815217">
        <ele>1640.1500000000001</ele>
        <time>2017-03-11T09:10:22Z</time>
      </trkpt>
      <trkpt lat="46.646611467003822" lon="12.3480024933815">
        <ele>1641.5899999999999</ele>
        <time>2017-03-11T09:10:33Z</time>
      </trkpt>
      <trkpt lat="46.646611383184791" lon="12.347881374880672">
        <ele>1643.03</ele>
        <time>2017-03-11T09:10:44Z</time>
      </trkpt>
      <trkpt lat="46.646581627428532" lon="12.347800489515066">
        <ele>1644.95</ele>
        <time>2017-03-11T09:10:54Z</time>
      </trkpt>
      <trkpt lat="46.646549440920353" lon="12.347716838121414">
        <ele>1646.4000000000001</ele>
        <time>2017-03-11T09:11:05Z</time>
      </trkpt>
      <trkpt lat="46.646496215835214" lon="12.347744163125753">
        <ele>1647.8399999999999</ele>
        <time>2017-03-11T09:11:14Z</time>
      </trkpt>
      <trkpt lat="46.646438213065267" lon="12.34773863106966">
        <ele>1649.76</ele>
        <time>2017-03-11T09:11:26Z</time>
      </trkpt>
      <trkpt lat="46.646407870575786" lon="12.347736451774836">
        <ele>1650.72</ele>
        <time>2017-03-11T09:11:35Z</time>
      </trkpt>
      <trkpt lat="46.646382892504334" lon="12.347749276086688">
        <ele>1650.72</ele>
        <time>2017-03-11T09:11:51Z</time>
      </trkpt>
      <trkpt lat="46.64636948145926" lon="12.34775472432375">
        <ele>1651.2</ele>
        <time>2017-03-11T09:12:02Z</time>
      </trkpt>
      <trkpt lat="46.646307287737727" lon="12.347726477310061">
        <ele>1652.6400000000001</ele>
        <time>2017-03-11T09:12:13Z</time>
      </trkpt>
      <trkpt lat="46.646267725154757" lon="12.347708959132433">
        <ele>1654.0899999999999</ele>
        <time>2017-03-11T09:12:22Z</time>
      </trkpt>
      <trkpt lat="46.646204190328717" lon="12.347681801766157">
        <ele>1655.53</ele>
        <time>2017-03-11T09:12:31Z</time>
      </trkpt>
      <trkpt lat="46.646143421530724" lon="12.347689513117075">
        <ele>1656.49</ele>
        <time>2017-03-11T09:12:41Z</time>
      </trkpt>
      <trkpt lat="46.646136380732059" lon="12.34771859832108">
        <ele>1656.97</ele>
        <time>2017-03-11T09:12:51Z</time>
      </trkpt>
      <trkpt lat="46.646087095141411" lon="12.347708372399211">
        <ele>1658.4100000000001</ele>
        <time>2017-03-11T09:12:59Z</time>
      </trkpt>
      <trkpt lat="46.646050047129393" lon="12.347620697692037">
        <ele>1659.3699999999999</ele>
        <time>2017-03-11T09:13:07Z</time>
      </trkpt>
      <trkpt lat="46.646047113463283" lon="12.347506452351809">
        <ele>1660.8099999999999</ele>
        <time>2017-03-11T09:13:19Z</time>
      </trkpt>
      <trkpt lat="46.646064631640911" lon="12.347417520359159">
        <ele>1662.26</ele>
        <time>2017-03-11T09:13:28Z</time>
      </trkpt>
      <trkpt lat="46.6460963152349" lon="12.34736630693078">
        <ele>1664.1800000000001</ele>
        <time>2017-03-11T09:13:39Z</time>
      </trkpt>
      <trkpt lat="46.64609195664525" lon="12.347318110987544">
        <ele>1664.1800000000001</ele>
        <time>2017-03-11T09:13:53Z</time>
      </trkpt>
      <trkpt lat="46.646052477881312" lon="12.347230184823275">
        <ele>1665.6199999999999</ele>
        <time>2017-03-11T09:14:01Z</time>
      </trkpt>
      <trkpt lat="46.64603621698916" lon="12.347123399376869">
        <ele>1666.5799999999999</ele>
        <time>2017-03-11T09:14:12Z</time>
      </trkpt>
      <trkpt lat="46.646055411547422" lon="12.347053410485387">
        <ele>1668.02</ele>
        <time>2017-03-11T09:14:23Z</time>
      </trkpt>
      <trkpt lat="46.646072259172797" lon="12.346984846517444">
        <ele>1668.51</ele>
        <time>2017-03-11T09:14:32Z</time>
      </trkpt>
      <trkpt lat="46.646077539771795" lon="12.346896333619952">
        <ele>1670.4300000000001</ele>
        <time>2017-03-11T09:14:42Z</time>
      </trkpt>
      <trkpt lat="46.646068738773465" lon="12.346816370263696">
        <ele>1671.8699999999999</ele>
        <time>2017-03-11T09:14:52Z</time>
      </trkpt>
      <trkpt lat="46.646015681326389" lon="12.346768509596586">
        <ele>1674.27</ele>
        <time>2017-03-11T09:15:03Z</time>
      </trkpt>
      <trkpt lat="46.646004365757108" lon="12.346703549847007">
        <ele>1675.72</ele>
        <time>2017-03-11T09:15:13Z</time>
      </trkpt>
      <trkpt lat="46.645966898649931" lon="12.34662895090878">
        <ele>1677.6400000000001</ele>
        <time>2017-03-11T09:15:24Z</time>
      </trkpt>
      <trkpt lat="46.645946530625224" lon="12.346550496295094">
        <ele>1679.5599999999999</ele>
        <time>2017-03-11T09:15:35Z</time>
      </trkpt>
      <trkpt lat="46.645905878394842" lon="12.346515795215964">
        <ele>1681.48</ele>
        <time>2017-03-11T09:15:46Z</time>
      </trkpt>
      <trkpt lat="46.645875032991171" lon="12.346499618142843">
        <ele>1682.9300000000001</ele>
        <time>2017-03-11T09:15:55Z</time>
      </trkpt>
      <trkpt lat="46.645824909210205" lon="12.346470197662711">
        <ele>1684.8499999999999</ele>
        <time>2017-03-11T09:16:06Z</time>
      </trkpt>
      <trkpt lat="46.645833374932408" lon="12.346350587904453">
        <ele>1686.77</ele>
        <time>2017-03-11T09:16:18Z</time>
      </trkpt>
      <trkpt lat="46.645789705216885" lon="12.346308343112469">
        <ele>1688.21</ele>
        <time>2017-03-11T09:16:29Z</time>
      </trkpt>
      <trkpt lat="46.645737485960126" lon="12.346283281221986">
        <ele>1690.1400000000001</ele>
        <time>2017-03-11T09:16:41Z</time>
      </trkpt>
      <trkpt lat="46.645740922540426" lon="12.346204658970237">
        <ele>1691.5799999999999</ele>
        <time>2017-03-11T09:16:50Z</time>
      </trkpt>
      <trkpt lat="46.645742347463965" lon="12.346100555732846">
        <ele>1693.02</ele>
        <time>2017-03-11T09:17:03Z</time>
      </trkpt>
      <trkpt lat="46.64575332775712" lon="12.346021346747875">
        <ele>1694.9400000000001</ele>
        <time>2017-03-11T09:17:14Z</time>
      </trkpt>
      <trkpt lat="46.645726757124066" lon="12.345956806093454">
        <ele>1696.3800000000001</ele>
        <time>2017-03-11T09:17:25Z</time>
      </trkpt>
      <trkpt lat="46.645725751295686" lon="12.345887655392289">
        <ele>1698.3099999999999</ele>
        <time>2017-03-11T09:17:35Z</time>
      </trkpt>
      <trkpt lat="46.64576112292707" lon="12.345827473327518">
        <ele>1699.75</ele>
        <time>2017-03-11T09:17:45Z</time>
      </trkpt>
      <trkpt lat="46.645830776542425" lon="12.345789838582277">
        <ele>1701.6700000000001</ele>
        <time>2017-03-11T09:17:57Z</time>
      </trkpt>
      <trkpt lat="46.645893305540085" lon="12.34576209448278">
        <ele>1703.1099999999999</ele>
        <time>2017-03-11T09:18:09Z</time>
      </trkpt>
      <trkpt lat="46.64587888866663" lon="12.345736278221011">
        <ele>1705.04</ele>
        <time>2017-03-11T09:18:19Z</time>
      </trkpt>
      <trkpt lat="46.645834380760789" lon="12.345681795850396">
        <ele>1706.96</ele>
        <time>2017-03-11T09:18:31Z</time>
      </trkpt>
      <trkpt lat="46.645788615569472" lon="12.34563997015357">
        <ele>1708.8800000000001</ele>
        <time>2017-03-11T09:18:43Z</time>
      </trkpt>
      <trkpt lat="46.645744945853949" lon="12.345572076737881">
        <ele>1710.8</ele>
        <time>2017-03-11T09:18:55Z</time>
      </trkpt>
      <trkpt lat="46.645713681355119" lon="12.345510218292475">
        <ele>1713.21</ele>
        <time>2017-03-11T09:19:07Z</time>
      </trkpt>
      <trkpt lat="46.645660707727075" lon="12.345472248271108">
        <ele>1714.6500000000001</ele>
        <time>2017-03-11T09:19:19Z</time>
      </trkpt>
      <trkpt lat="46.6455920599401" lon="12.345389015972614">
        <ele>1717.05</ele>
        <time>2017-03-11T09:19:33Z</time>
      </trkpt>
      <trkpt lat="46.645564483478665" lon="12.345326486974955">
        <ele>1718.97</ele>
        <time>2017-03-11T09:19:44Z</time>
      </trkpt>
      <trkpt lat="46.645558699965477" lon="12.345228083431721">
        <ele>1720.4200000000001</ele>
        <time>2017-03-11T09:19:55Z</time>
      </trkpt>
      <trkpt lat="46.645597340539098" lon="12.345119956880808">
        <ele>1722.3399999999999</ele>
        <time>2017-03-11T09:20:09Z</time>
      </trkpt>
      <trkpt lat="46.645650314167142" lon="12.345049381256104">
        <ele>1724.26</ele>
        <time>2017-03-11T09:20:21Z</time>
      </trkpt>
      <trkpt lat="46.645727846771479" lon="12.345003448426723">
        <ele>1726.1800000000001</ele>
        <time>2017-03-11T09:20:35Z</time>
      </trkpt>
      <trkpt lat="46.645797751843929" lon="12.345035132020712">
        <ele>1728.1099999999999</ele>
        <time>2017-03-11T09:20:48Z</time>
      </trkpt>
      <trkpt lat="46.645787861198187" lon="12.344981152564287">
        <ele>1729.0699999999999</ele>
        <time>2017-03-11T09:20:57Z</time>
      </trkpt>
      <trkpt lat="46.645775455981493" lon="12.34487914480269">
        <ele>1731.47</ele>
        <time>2017-03-11T09:21:13Z</time>
      </trkpt>
      <trkpt lat="46.645764643326402" lon="12.344814520329237">
        <ele>1733.3900000000001</ele>
        <time>2017-03-11T09:21:25Z</time>
      </trkpt>
      <trkpt lat="46.645731199532747" lon="12.344750985503197">
        <ele>1734.8399999999999</ele>
        <time>2017-03-11T09:21:36Z</time>
      </trkpt>
      <trkpt lat="46.645725164562464" lon="12.344726510345936">
        <ele>1735.8</ele>
        <time>2017-03-11T09:21:45Z</time>
      </trkpt>
      <trkpt lat="46.645732037723064" lon="12.344657694920897">
        <ele>1737.24</ele>
        <time>2017-03-11T09:21:54Z</time>
      </trkpt>
      <trkpt lat="46.645696666091681" lon="12.344605894759297">
        <ele>1740.5999999999999</ele>
        <time>2017-03-11T09:22:05Z</time>
      </trkpt>
      <trkpt lat="46.645690463483334" lon="12.344601284712553">
        <ele>1739.6400000000001</ele>
        <time>2017-03-11T09:22:06Z</time>
      </trkpt>
      <trkpt lat="46.645676549524069" lon="12.344529200345278">
        <ele>1741.0799999999999</ele>
        <time>2017-03-11T09:22:16Z</time>
      </trkpt>
      <trkpt lat="46.645669927820563" lon="12.34449902549386">
        <ele>1742.05</ele>
        <time>2017-03-11T09:22:24Z</time>
      </trkpt>
      <trkpt lat="46.645651990547776" lon="12.344440938904881">
        <ele>1743.97</ele>
        <time>2017-03-11T09:22:35Z</time>
      </trkpt>
      <trkpt lat="46.645621061325073" lon="12.34435728751123">
        <ele>1746.3699999999999</ele>
        <time>2017-03-11T09:22:48Z</time>
      </trkpt>
      <trkpt lat="46.64558082818985" lon="12.344302218407393">
        <ele>1748.29</ele>
        <time>2017-03-11T09:23:02Z</time>
      </trkpt>
      <trkpt lat="46.645552162081003" lon="12.34421705827117">
        <ele>1750.22</ele>
        <time>2017-03-11T09:23:14Z</time>
      </trkpt>
      <trkpt lat="46.645511509850621" lon="12.344157546758652">
        <ele>1751.1800000000001</ele>
        <time>2017-03-11T09:23:24Z</time>
      </trkpt>
      <trkpt lat="46.64548653177917" lon="12.344104824587703">
        <ele>1753.0999999999999</ele>
        <time>2017-03-11T09:23:35Z</time>
      </trkpt>
      <trkpt lat="46.645463481545448" lon="12.344029638916254">
        <ele>1754.54</ele>
        <time>2017-03-11T09:23:45Z</time>
      </trkpt>
      <trkpt lat="46.645447975024581" lon="12.343985633924603">
        <ele>1755.5</ele>
        <time>2017-03-11T09:23:56Z</time>
      </trkpt>
      <trkpt lat="46.645423835143447" lon="12.343932492658496">
        <ele>1758.8699999999999</ele>
        <time>2017-03-11T09:24:06Z</time>
      </trkpt>
      <trkpt lat="46.645372454077005" lon="12.34388136304915">
        <ele>1758.8699999999999</ele>
        <time>2017-03-11T09:24:18Z</time>
      </trkpt>
      <trkpt lat="46.645344123244286" lon="12.343874322250485">
        <ele>1760.3099999999999</ele>
        <time>2017-03-11T09:24:29Z</time>
      </trkpt>
      <trkpt lat="46.645342698320746" lon="12.343809781596065">
        <ele>1762.23</ele>
        <time>2017-03-11T09:24:41Z</time>
      </trkpt>
      <trkpt lat="46.645377902314067" lon="12.343726297840476">
        <ele>1764.6400000000001</ele>
        <time>2017-03-11T09:24:55Z</time>
      </trkpt>
      <trkpt lat="46.645442359149456" lon="12.343708947300911">
        <ele>1766.0799999999999</ele>
        <time>2017-03-11T09:25:06Z</time>
      </trkpt>
      <trkpt lat="46.645451076328754" lon="12.343737445771694">
        <ele>1767.04</ele>
        <time>2017-03-11T09:25:18Z</time>
      </trkpt>
      <trkpt lat="46.645422577857971" lon="12.343761501833797">
        <ele>1766.5599999999999</ele>
        <time>2017-03-11T09:25:41Z</time>
      </trkpt>
      <trkpt lat="46.645444789901376" lon="12.343758149072528">
        <ele>1767.04</ele>
        <time>2017-03-11T09:25:54Z</time>
      </trkpt>
      <trkpt lat="46.645500864833593" lon="12.343688746914268">
        <ele>1768</ele>
        <time>2017-03-11T09:26:06Z</time>
      </trkpt>
      <trkpt lat="46.645528944209218" lon="12.343617165461183">
        <ele>1769.9200000000001</ele>
        <time>2017-03-11T09:26:17Z</time>
      </trkpt>
      <trkpt lat="46.645560963079333" lon="12.343593193218112">
        <ele>1771.8499999999999</ele>
        <time>2017-03-11T09:26:27Z</time>
      </trkpt>
      <trkpt lat="46.645591640844941" lon="12.34353887848556">
        <ele>1773.77</ele>
        <time>2017-03-11T09:26:40Z</time>
      </trkpt>
      <trkpt lat="46.645558113232255" lon="12.343491520732641">
        <ele>1775.21</ele>
        <time>2017-03-11T09:26:51Z</time>
      </trkpt>
      <trkpt lat="46.645515784621239" lon="12.343467967584729">
        <ele>1777.1300000000001</ele>
        <time>2017-03-11T09:27:02Z</time>
      </trkpt>
      <trkpt lat="46.645470857620239" lon="12.343425387516618">
        <ele>1778.5799999999999</ele>
        <time>2017-03-11T09:27:14Z</time>
      </trkpt>
      <trkpt lat="46.645418219268322" lon="12.343383394181728">
        <ele>1780.5</ele>
        <time>2017-03-11T09:27:27Z</time>
      </trkpt>
      <trkpt lat="46.645370693877339" lon="12.343322457745671">
        <ele>1781.9400000000001</ele>
        <time>2017-03-11T09:27:39Z</time>
      </trkpt>
      <trkpt lat="46.645349152386189" lon="12.343266550451517">
        <ele>1783.8599999999999</ele>
        <time>2017-03-11T09:27:50Z</time>
      </trkpt>
      <trkpt lat="46.645300453528762" lon="12.343203350901604">
        <ele>1785.79</ele>
        <time>2017-03-11T09:28:02Z</time>
      </trkpt>
      <trkpt lat="46.645235242322087" lon="12.343176528811455">
        <ele>1787.23</ele>
        <time>2017-03-11T09:28:15Z</time>
      </trkpt>
      <trkpt lat="46.645231386646628" lon="12.34310595318675">
        <ele>1788.6700000000001</ele>
        <time>2017-03-11T09:28:26Z</time>
      </trkpt>
      <trkpt lat="46.645270949229598" lon="12.343083573505282">
        <ele>1790.1099999999999</ele>
        <time>2017-03-11T09:28:37Z</time>
      </trkpt>
      <trkpt lat="46.645317804068327" lon="12.343049626797438">
        <ele>1791.55</ele>
        <time>2017-03-11T09:28:49Z</time>
      </trkpt>
      <trkpt lat="46.645377483218908" lon="12.343051889911294">
        <ele>1793</ele>
        <time>2017-03-11T09:29:01Z</time>
      </trkpt>
      <trkpt lat="46.645456021651626" lon="12.343023726716638">
        <ele>1794.4400000000001</ele>
        <time>2017-03-11T09:29:12Z</time>
      </trkpt>
      <trkpt lat="46.645530788227916" lon="12.343000676482916">
        <ele>1795.8800000000001</ele>
        <time>2017-03-11T09:29:24Z</time>
      </trkpt>
      <trkpt lat="46.645576050505042" lon="12.342960191890597">
        <ele>1797.8</ele>
        <time>2017-03-11T09:29:36Z</time>
      </trkpt>
      <trkpt lat="46.645512012764812" lon="12.342928173020482">
        <ele>1799.73</ele>
        <time>2017-03-11T09:29:49Z</time>
      </trkpt>
      <trkpt lat="46.645506480708718" lon="12.342840330675244">
        <ele>1801.1700000000001</ele>
        <time>2017-03-11T09:30:01Z</time>
      </trkpt>
      <trkpt lat="46.645508324727416" lon="12.342816693708301">
        <ele>1803.0899999999999</ele>
        <time>2017-03-11T09:30:11Z</time>
      </trkpt>
      <trkpt lat="46.645478568971157" lon="12.342765647917986">
        <ele>1804.05</ele>
        <time>2017-03-11T09:30:21Z</time>
      </trkpt>
      <trkpt lat="46.645458787679672" lon="12.342722648754716">
        <ele>1805.01</ele>
        <time>2017-03-11T09:30:31Z</time>
      </trkpt>
      <trkpt lat="46.645451914519072" lon="12.342690462246537">
        <ele>1805.97</ele>
        <time>2017-03-11T09:30:39Z</time>
      </trkpt>
      <trkpt lat="46.645426182076335" lon="12.3426285199821">
        <ele>1807.4200000000001</ele>
        <time>2017-03-11T09:30:49Z</time>
      </trkpt>
      <trkpt lat="46.645392654463649" lon="12.342545790597796">
        <ele>1809.3399999999999</ele>
        <time>2017-03-11T09:31:02Z</time>
      </trkpt>
      <trkpt lat="46.64537756703794" lon="12.342476220801473">
        <ele>1809.8199999999999</ele>
        <time>2017-03-11T09:31:12Z</time>
      </trkpt>
      <trkpt lat="46.645355271175504" lon="12.34241059049964">
        <ele>1811.74</ele>
        <time>2017-03-11T09:31:24Z</time>
      </trkpt>
      <trkpt lat="46.645330293104053" lon="12.342328280210495">
        <ele>1813.6600000000001</ele>
        <time>2017-03-11T09:31:36Z</time>
      </trkpt>
      <trkpt lat="46.645302884280682" lon="12.342258123680949">
        <ele>1815.1099999999999</ele>
        <time>2017-03-11T09:31:46Z</time>
      </trkpt>
      <trkpt lat="46.645268267020583" lon="12.342203725129366">
        <ele>1817.03</ele>
        <time>2017-03-11T09:31:57Z</time>
      </trkpt>
      <trkpt lat="46.645217891782522" lon="12.342148656025529">
        <ele>1818.47</ele>
        <time>2017-03-11T09:32:10Z</time>
      </trkpt>
      <trkpt lat="46.645182184875011" lon="12.342082774266601">
        <ele>1819.9100000000001</ele>
        <time>2017-03-11T09:32:21Z</time>
      </trkpt>
      <trkpt lat="46.645145807415247" lon="12.342022676020861">
        <ele>1820.8699999999999</ele>
        <time>2017-03-11T09:32:29Z</time>
      </trkpt>
      <trkpt lat="46.645082524046302" lon="12.341931564733386">
        <ele>1822.3199999999999</ele>
        <time>2017-03-11T09:32:43Z</time>
      </trkpt>
      <trkpt lat="46.645063832402229" lon="12.341862330213189">
        <ele>1823.76</ele>
        <time>2017-03-11T09:32:54Z</time>
      </trkpt>
      <trkpt lat="46.645041955634952" lon="12.3418531101197">
        <ele>1824.24</ele>
        <time>2017-03-11T09:32:58Z</time>
      </trkpt>
      <trkpt lat="46.644969116896391" lon="12.341849002987146">
        <ele>1825.2</ele>
        <time>2017-03-11T09:33:10Z</time>
      </trkpt>
      <trkpt lat="46.644907593727112" lon="12.341798543930054">
        <ele>1825.6800000000001</ele>
        <time>2017-03-11T09:33:19Z</time>
      </trkpt>
      <trkpt lat="46.644860571250319" lon="12.341716401278973">
        <ele>1826.1600000000001</ele>
        <time>2017-03-11T09:33:29Z</time>
      </trkpt>
      <trkpt lat="46.644836850464344" lon="12.341614309698343">
        <ele>1827.1199999999999</ele>
        <time>2017-03-11T09:33:41Z</time>
      </trkpt>
      <trkpt lat="46.644816733896732" lon="12.341556139290333">
        <ele>1828.5599999999999</ele>
        <time>2017-03-11T09:33:51Z</time>
      </trkpt>
      <trkpt lat="46.644828300923109" lon="12.341463100165129">
        <ele>1830.01</ele>
        <time>2017-03-11T09:34:03Z</time>
      </trkpt>
      <trkpt lat="46.644808854907751" lon="12.341406606137753">
        <ele>1831.45</ele>
        <time>2017-03-11T09:34:13Z</time>
      </trkpt>
      <trkpt lat="46.644787061959505" lon="12.341316835954785">
        <ele>1832.8900000000001</ele>
        <time>2017-03-11T09:34:27Z</time>
      </trkpt>
      <trkpt lat="46.644733250141144" lon="12.341203177347779">
        <ele>1834.3299999999999</ele>
        <time>2017-03-11T09:34:40Z</time>
      </trkpt>
      <trkpt lat="46.644670553505421" lon="12.341181552037597">
        <ele>1834.8099999999999</ele>
        <time>2017-03-11T09:34:49Z</time>
      </trkpt>
      <trkpt lat="46.64459821768105" lon="12.341151293367147">
        <ele>1835.29</ele>
        <time>2017-03-11T09:34:59Z</time>
      </trkpt>
      <trkpt lat="46.644524708390236" lon="12.341056577861309">
        <ele>1836.26</ele>
        <time>2017-03-11T09:35:11Z</time>
      </trkpt>
      <trkpt lat="46.644513895735145" lon="12.341042412444949">
        <ele>1836.74</ele>
        <time>2017-03-11T09:35:19Z</time>
      </trkpt>
      <trkpt lat="46.644472572952509" lon="12.340972507372499">
        <ele>1838.1800000000001</ele>
        <time>2017-03-11T09:35:30Z</time>
      </trkpt>
      <trkpt lat="46.644446337595582" lon="12.340891035273671">
        <ele>1840.0999999999999</ele>
        <time>2017-03-11T09:35:42Z</time>
      </trkpt>
      <trkpt lat="46.644436195492744" lon="12.340807802975178">
        <ele>1841.54</ele>
        <time>2017-03-11T09:35:52Z</time>
      </trkpt>
      <trkpt lat="46.6444022487849" lon="12.340719206258655">
        <ele>1843.47</ele>
        <time>2017-03-11T09:36:05Z</time>
      </trkpt>
      <trkpt lat="46.644410630688071" lon="12.340735634788871">
        <ele>1842.98</ele>
        <time>2017-03-11T09:36:20Z</time>
      </trkpt>
      <trkpt lat="46.644410379230976" lon="12.340725911781192">
        <ele>1843.47</ele>
        <time>2017-03-11T09:36:34Z</time>
      </trkpt>
      <trkpt lat="46.644393615424633" lon="12.340705543756485">
        <ele>1843.47</ele>
        <time>2017-03-11T09:36:44Z</time>
      </trkpt>
      <trkpt lat="46.64440032094717" lon="12.340619377791882">
        <ele>1844.4300000000001</ele>
        <time>2017-03-11T09:36:54Z</time>
      </trkpt>
      <trkpt lat="46.644392358139157" lon="12.340527679771185">
        <ele>1845.8699999999999</ele>
        <time>2017-03-11T09:37:04Z</time>
      </trkpt>
      <trkpt lat="46.644383305683732" lon="12.340544946491718">
        <ele>1846.8299999999999</ele>
        <time>2017-03-11T09:37:15Z</time>
      </trkpt>
      <trkpt lat="46.644385317340493" lon="12.340570762753487">
        <ele>1846.3499999999999</ele>
        <time>2017-03-11T09:37:36Z</time>
      </trkpt>
      <trkpt lat="46.644346844404936" lon="12.340494487434626">
        <ele>1846.8299999999999</ele>
        <time>2017-03-11T09:38:00Z</time>
      </trkpt>
      <trkpt lat="46.644357154145837" lon="12.340397341176867">
        <ele>1847.79</ele>
        <time>2017-03-11T09:38:10Z</time>
      </trkpt>
      <trkpt lat="46.644390681758523" lon="12.340341517701745">
        <ele>1850.1900000000001</ele>
        <time>2017-03-11T09:38:21Z</time>
      </trkpt>
      <trkpt lat="46.644422616809607" lon="12.340263230726123">
        <ele>1851.6400000000001</ele>
        <time>2017-03-11T09:38:34Z</time>
      </trkpt>
      <trkpt lat="46.644400907680392" lon="12.340212101116776">
        <ele>1853.5599999999999</ele>
        <time>2017-03-11T09:38:45Z</time>
      </trkpt>
      <trkpt lat="46.644394285976887" lon="12.340141525492072">
        <ele>1855</ele>
        <time>2017-03-11T09:38:55Z</time>
      </trkpt>
      <trkpt lat="46.644347012042999" lon="12.340043624863029">
        <ele>1856.9200000000001</ele>
        <time>2017-03-11T09:39:10Z</time>
      </trkpt>
      <trkpt lat="46.644305605441332" lon="12.339962404221296">
        <ele>1858.3699999999999</ele>
        <time>2017-03-11T09:39:21Z</time>
      </trkpt>
      <trkpt lat="46.644266294315457" lon="12.339890068396926">
        <ele>1859.8099999999999</ele>
        <time>2017-03-11T09:39:33Z</time>
      </trkpt>
      <trkpt lat="46.64424785412848" lon="12.339794682338834">
        <ele>1860.77</ele>
        <time>2017-03-11T09:39:44Z</time>
      </trkpt>
      <trkpt lat="46.644191108644009" lon="12.33970264904201">
        <ele>1861.73</ele>
        <time>2017-03-11T09:39:55Z</time>
      </trkpt>
      <trkpt lat="46.64415598846972" lon="12.339602569118142">
        <ele>1861.73</ele>
        <time>2017-03-11T09:40:05Z</time>
      </trkpt>
      <trkpt lat="46.644109971821308" lon="12.339506512507796">
        <ele>1863.1700000000001</ele>
        <time>2017-03-11T09:40:15Z</time>
      </trkpt>
      <trkpt lat="46.644045263528824" lon="12.339386316016316">
        <ele>1861.25</ele>
        <time>2017-03-11T09:40:27Z</time>
      </trkpt>
      <trkpt lat="46.64399522356689" lon="12.339336862787604">
        <ele>1862.21</ele>
        <time>2017-03-11T09:40:36Z</time>
      </trkpt>
      <trkpt lat="46.643948536366224" lon="12.339262263849378">
        <ele>1862.6900000000001</ele>
        <time>2017-03-11T09:40:45Z</time>
      </trkpt>
      <trkpt lat="46.643899166956544" lon="12.339095128700137">
        <ele>1861.73</ele>
        <time>2017-03-11T09:40:57Z</time>
      </trkpt>
      <trkpt lat="46.643890701234341" lon="12.33896772377193">
        <ele>1862.6900000000001</ele>
        <time>2017-03-11T09:41:08Z</time>
      </trkpt>
      <trkpt lat="46.643886426463723" lon="12.338851047679782">
        <ele>1863.1700000000001</ele>
        <time>2017-03-11T09:41:18Z</time>
      </trkpt>
      <trkpt lat="46.643891874700785" lon="12.338817268610001">
        <ele>1863.6500000000001</ele>
        <time>2017-03-11T09:41:21Z</time>
      </trkpt>
      <trkpt lat="46.643897742033005" lon="12.33874250203371">
        <ele>1864.1300000000001</ele>
        <time>2017-03-11T09:41:30Z</time>
      </trkpt>
      <trkpt lat="46.64386966265738" lon="12.338678799569607">
        <ele>1865.5799999999999</ele>
        <time>2017-03-11T09:41:38Z</time>
      </trkpt>
      <trkpt lat="46.643863711506128" lon="12.338616605848074">
        <ele>1865.5799999999999</ele>
        <time>2017-03-11T09:41:43Z</time>
      </trkpt>
      <trkpt lat="46.643849210813642" lon="12.338535636663437">
        <ele>1866.0599999999999</ele>
        <time>2017-03-11T09:41:51Z</time>
      </trkpt>
      <trkpt lat="46.643838649615645" lon="12.338426671922207">
        <ele>1867.02</ele>
        <time>2017-03-11T09:42:02Z</time>
      </trkpt>
      <trkpt lat="46.643844936043024" lon="12.338319886475801">
        <ele>1867.98</ele>
        <time>2017-03-11T09:42:12Z</time>
      </trkpt>
      <trkpt lat="46.643815767019987" lon="12.338239084929228">
        <ele>1867.98</ele>
        <time>2017-03-11T09:42:22Z</time>
      </trkpt>
      <trkpt lat="46.643798416480422" lon="12.33814244158566">
        <ele>1868.9400000000001</ele>
        <time>2017-03-11T09:42:31Z</time>
      </trkpt>
      <trkpt lat="46.643797159194946" lon="12.338037500157952">
        <ele>1869.9000000000001</ele>
        <time>2017-03-11T09:42:41Z</time>
      </trkpt>
      <trkpt lat="46.643795985728502" lon="12.337911184877157">
        <ele>1871.3399999999999</ele>
        <time>2017-03-11T09:42:53Z</time>
      </trkpt>
      <trkpt lat="46.643810570240021" lon="12.337816469371319">
        <ele>1871.8199999999999</ele>
        <time>2017-03-11T09:43:02Z</time>
      </trkpt>
      <trkpt lat="46.643812162801623" lon="12.337773386389017">
        <ele>1872.3</ele>
        <time>2017-03-11T09:43:06Z</time>
      </trkpt>
      <trkpt lat="46.643835129216313" lon="12.337655620649457">
        <ele>1872.79</ele>
        <time>2017-03-11T09:43:17Z</time>
      </trkpt>
      <trkpt lat="46.643822388723493" lon="12.337553277611732">
        <ele>1874.23</ele>
        <time>2017-03-11T09:43:28Z</time>
      </trkpt>
      <trkpt lat="46.643817191943526" lon="12.337512625381351">
        <ele>1874.71</ele>
        <time>2017-03-11T09:43:32Z</time>
      </trkpt>
      <trkpt lat="46.643806044012308" lon="12.337453532963991">
        <ele>1875.1900000000001</ele>
        <time>2017-03-11T09:43:37Z</time>
      </trkpt>
      <trkpt lat="46.643797662109137" lon="12.337339874356985">
        <ele>1876.1500000000001</ele>
        <time>2017-03-11T09:43:48Z</time>
      </trkpt>
      <trkpt lat="46.643826412037015" lon="12.337237950414419">
        <ele>1877.1099999999999</ele>
        <time>2017-03-11T09:43:57Z</time>
      </trkpt>
      <trkpt lat="46.643830602988601" lon="12.337201237678528">
        <ele>1876.6300000000001</ele>
        <time>2017-03-11T09:44:00Z</time>
      </trkpt>
      <trkpt lat="46.643832949921489" lon="12.337088920176029">
        <ele>1876.1500000000001</ele>
        <time>2017-03-11T09:44:10Z</time>
      </trkpt>
      <trkpt lat="46.643832949921489" lon="12.336970483884215">
        <ele>1875.6700000000001</ele>
        <time>2017-03-11T09:44:20Z</time>
      </trkpt>
      <trkpt lat="46.643828758969903" lon="12.33691013418138">
        <ele>1876.1500000000001</ele>
        <time>2017-03-11T09:44:25Z</time>
      </trkpt>
      <trkpt lat="46.643797578290105" lon="12.33680946752429">
        <ele>1877.1099999999999</ele>
        <time>2017-03-11T09:44:36Z</time>
      </trkpt>
      <trkpt lat="46.643749969080091" lon="12.336819777265191">
        <ele>1877.5899999999999</ele>
        <time>2017-03-11T09:44:40Z</time>
      </trkpt>
      <trkpt lat="46.643720380961895" lon="12.336721960455179">
        <ele>1878.0699999999999</ele>
        <time>2017-03-11T09:44:50Z</time>
      </trkpt>
      <trkpt lat="46.64368836209178" lon="12.336622551083565">
        <ele>1879.51</ele>
        <time>2017-03-11T09:45:01Z</time>
      </trkpt>
      <trkpt lat="46.643652152270079" lon="12.33654216863215">
        <ele>1880</ele>
        <time>2017-03-11T09:45:11Z</time>
      </trkpt>
      <trkpt lat="46.643643099814653" lon="12.336473939940333">
        <ele>1880</ele>
        <time>2017-03-11T09:45:17Z</time>
      </trkpt>
      <trkpt lat="46.643615690991282" lon="12.336386935785413">
        <ele>1880</ele>
        <time>2017-03-11T09:45:26Z</time>
      </trkpt>
      <trkpt lat="46.643604207783937" lon="12.3363340459764">
        <ele>1880.48</ele>
        <time>2017-03-11T09:45:33Z</time>
      </trkpt>
      <trkpt lat="46.6435940656811" lon="12.336216531693935">
        <ele>1880.96</ele>
        <time>2017-03-11T09:45:44Z</time>
      </trkpt>
      <trkpt lat="46.643594317138195" lon="12.336113937199116">
        <ele>1881.9200000000001</ele>
        <time>2017-03-11T09:45:53Z</time>
      </trkpt>
      <trkpt lat="46.643602279946208" lon="12.336074123159051">
        <ele>1881.9200000000001</ele>
        <time>2017-03-11T09:45:56Z</time>
      </trkpt>
      <trkpt lat="46.643589371815324" lon="12.335925931110978">
        <ele>1882.4000000000001</ele>
        <time>2017-03-11T09:46:08Z</time>
      </trkpt>
      <trkpt lat="46.64359649643302" lon="12.33579995110631">
        <ele>1883.8399999999999</ele>
        <time>2017-03-11T09:46:20Z</time>
      </trkpt>
      <trkpt lat="46.643595742061734" lon="12.335793245583773">
        <ele>1883.8399999999999</ele>
        <time>2017-03-11T09:46:21Z</time>
      </trkpt>
      <trkpt lat="46.643552994355559" lon="12.335692578926682">
        <ele>1884.8</ele>
        <time>2017-03-11T09:46:32Z</time>
      </trkpt>
      <trkpt lat="46.643485855311155" lon="12.335652178153396">
        <ele>1885.76</ele>
        <time>2017-03-11T09:46:42Z</time>
      </trkpt>
      <trkpt lat="46.643434474244714" lon="12.335606077685952">
        <ele>1886.24</ele>
        <time>2017-03-11T09:46:50Z</time>
      </trkpt>
      <trkpt lat="46.643356774002314" lon="12.335550589486957">
        <ele>1887.21</ele>
        <time>2017-03-11T09:47:02Z</time>
      </trkpt>
      <trkpt lat="46.643302710726857" lon="12.335497112944722">
        <ele>1888.1700000000001</ele>
        <time>2017-03-11T09:47:13Z</time>
      </trkpt>
      <trkpt lat="46.643240181729198" lon="12.335480097681284">
        <ele>1889.6099999999999</ele>
        <time>2017-03-11T09:47:23Z</time>
      </trkpt>
      <trkpt lat="46.643185699358582" lon="12.335442630574107">
        <ele>1890.5699999999999</ele>
        <time>2017-03-11T09:47:33Z</time>
      </trkpt>
      <trkpt lat="46.643125852569938" lon="12.33541589230299">
        <ele>1892.01</ele>
        <time>2017-03-11T09:47:43Z</time>
      </trkpt>
      <trkpt lat="46.643088888376951" lon="12.335385801270604">
        <ele>1892.97</ele>
        <time>2017-03-11T09:47:52Z</time>
      </trkpt>
      <trkpt lat="46.643036920577288" lon="12.335375072434545">
        <ele>1894.9000000000001</ele>
        <time>2017-03-11T09:48:02Z</time>
      </trkpt>
      <trkpt lat="46.642983444035053" lon="12.335329558700323">
        <ele>1895.3800000000001</ele>
        <time>2017-03-11T09:48:12Z</time>
      </trkpt>
      <trkpt lat="46.6429344099015" lon="12.335301646962762">
        <ele>1897.3</ele>
        <time>2017-03-11T09:48:22Z</time>
      </trkpt>
      <trkpt lat="46.642879173159599" lon="12.335294606164098">
        <ele>1898.74</ele>
        <time>2017-03-11T09:48:33Z</time>
      </trkpt>
      <trkpt lat="46.642835503444076" lon="12.335253283381462">
        <ele>1900.1800000000001</ele>
        <time>2017-03-11T09:48:44Z</time>
      </trkpt>
      <trkpt lat="46.642860313877463" lon="12.33516133390367">
        <ele>1901.6300000000001</ele>
        <time>2017-03-11T09:48:55Z</time>
      </trkpt>
      <trkpt lat="46.642864672467113" lon="12.335136858746409">
        <ele>1903.0699999999999</ele>
        <time>2017-03-11T09:49:04Z</time>
      </trkpt>
      <trkpt lat="46.642921920865774" lon="12.335129650309682">
        <ele>1904.99</ele>
        <time>2017-03-11T09:49:18Z</time>
      </trkpt>
      <trkpt lat="46.642968021333218" lon="12.335090842097998">
        <ele>1906.9100000000001</ele>
        <time>2017-03-11T09:49:31Z</time>
      </trkpt>
      <trkpt lat="46.642994927242398" lon="12.335114311426878">
        <ele>1907.3900000000001</ele>
        <time>2017-03-11T09:49:40Z</time>
      </trkpt>
      <trkpt lat="46.643041530624032" lon="12.335094530135393">
        <ele>1908.8299999999999</ele>
        <time>2017-03-11T09:49:52Z</time>
      </trkpt>
      <trkpt lat="46.643079333007336" lon="12.335064522922039">
        <ele>1909.8</ele>
        <time>2017-03-11T09:50:02Z</time>
      </trkpt>
      <trkpt lat="46.643036250025034" lon="12.33504599891603">
        <ele>1911.24</ele>
        <time>2017-03-11T09:50:14Z</time>
      </trkpt>
      <trkpt lat="46.643007416278124" lon="12.334985481575131">
        <ele>1912.6800000000001</ele>
        <time>2017-03-11T09:50:25Z</time>
      </trkpt>
      <trkpt lat="46.642984952777624" lon="12.334943823516369">
        <ele>1914.1199999999999</ele>
        <time>2017-03-11T09:50:36Z</time>
      </trkpt>
      <trkpt lat="46.642961986362934" lon="12.334906691685319">
        <ele>1916.04</ele>
        <time>2017-03-11T09:50:45Z</time>
      </trkpt>
      <trkpt lat="46.642920998856425" lon="12.33485690318048">
        <ele>1918.45</ele>
        <time>2017-03-11T09:50:57Z</time>
      </trkpt>
      <trkpt lat="46.642910940572619" lon="12.334817508235574">
        <ele>1919.8900000000001</ele>
        <time>2017-03-11T09:51:07Z</time>
      </trkpt>
      <trkpt lat="46.642855871468782" lon="12.334811054170132">
        <ele>1921.3299999999999</ele>
        <time>2017-03-11T09:51:18Z</time>
      </trkpt>
      <trkpt lat="46.642776913940907" lon="12.33482806943357">
        <ele>1922.29</ele>
        <time>2017-03-11T09:51:29Z</time>
      </trkpt>
      <trkpt lat="46.642729472368956" lon="12.334771575406194">
        <ele>1923.74</ele>
        <time>2017-03-11T09:51:39Z</time>
      </trkpt>
      <trkpt lat="46.642707344144583" lon="12.334696892648935">
        <ele>1924.22</ele>
        <time>2017-03-11T09:51:48Z</time>
      </trkpt>
      <trkpt lat="46.642658226191998" lon="12.33464484103024">
        <ele>1925.6600000000001</ele>
        <time>2017-03-11T09:52:00Z</time>
      </trkpt>
      <trkpt lat="46.642611371353269" lon="12.334544090554118">
        <ele>1926.6199999999999</ele>
        <time>2017-03-11T09:52:12Z</time>
      </trkpt>
      <trkpt lat="46.642587399110198" lon="12.334482902660966">
        <ele>1929.02</ele>
        <time>2017-03-11T09:52:20Z</time>
      </trkpt>
      <trkpt lat="46.642562672495842" lon="12.334411321207881">
        <ele>1928.0599999999999</ele>
        <time>2017-03-11T09:52:29Z</time>
      </trkpt>
      <trkpt lat="46.642530066892505" lon="12.334336554631591">
        <ele>1929.02</ele>
        <time>2017-03-11T09:52:40Z</time>
      </trkpt>
      <trkpt lat="46.642468543723226" lon="12.334257597103715">
        <ele>1929.98</ele>
        <time>2017-03-11T09:52:53Z</time>
      </trkpt>
      <trkpt lat="46.64238715544343" lon="12.334265308454633">
        <ele>1930.95</ele>
        <time>2017-03-11T09:53:04Z</time>
      </trkpt>
      <trkpt lat="46.64233585819602" lon="12.33421535231173">
        <ele>1932.3900000000001</ele>
        <time>2017-03-11T09:53:14Z</time>
      </trkpt>
      <trkpt lat="46.642298307269812" lon="12.334135808050632">
        <ele>1933.3499999999999</ele>
        <time>2017-03-11T09:53:25Z</time>
      </trkpt>
      <trkpt lat="46.6422781907022" lon="12.33408342115581">
        <ele>1934.3099999999999</ele>
        <time>2017-03-11T09:53:33Z</time>
      </trkpt>
      <trkpt lat="46.642253967002034" lon="12.333988789469004">
        <ele>1936.23</ele>
        <time>2017-03-11T09:53:45Z</time>
      </trkpt>
      <trkpt lat="46.642231000587344" lon="12.333913519978523">
        <ele>1937.6700000000001</ele>
        <time>2017-03-11T09:53:56Z</time>
      </trkpt>
      <trkpt lat="46.642216835170984" lon="12.333832215517759">
        <ele>1939.5999999999999</ele>
        <time>2017-03-11T09:54:08Z</time>
      </trkpt>
      <trkpt lat="46.642190599814057" lon="12.333749737590551">
        <ele>1941.52</ele>
        <time>2017-03-11T09:54:18Z</time>
      </trkpt>
      <trkpt lat="46.642182134091854" lon="12.333731632679701">
        <ele>1943.4400000000001</ele>
        <time>2017-03-11T09:54:21Z</time>
      </trkpt>
      <trkpt lat="46.642179368063807" lon="12.333644377067685">
        <ele>1942.96</ele>
        <time>2017-03-11T09:54:31Z</time>
      </trkpt>
      <trkpt lat="46.642182972282171" lon="12.333548655733466">
        <ele>1944.4000000000001</ele>
        <time>2017-03-11T09:54:42Z</time>
      </trkpt>
      <trkpt lat="46.642184145748615" lon="12.333466010168195">
        <ele>1945.8499999999999</ele>
        <time>2017-03-11T09:54:52Z</time>
      </trkpt>
      <trkpt lat="46.642145505174994" lon="12.333399038761854">
        <ele>1946.8099999999999</ele>
        <time>2017-03-11T09:55:02Z</time>
      </trkpt>
      <trkpt lat="46.642109965905547" lon="12.333308849483728">
        <ele>1947.77</ele>
        <time>2017-03-11T09:55:11Z</time>
      </trkpt>
      <trkpt lat="46.642092280089855" lon="12.333209021016955">
        <ele>1948.73</ele>
        <time>2017-03-11T09:55:21Z</time>
      </trkpt>
      <trkpt lat="46.642059842124581" lon="12.333147581666708">
        <ele>1949.21</ele>
        <time>2017-03-11T09:55:30Z</time>
      </trkpt>
      <trkpt lat="46.642050873488188" lon="12.333080191165209">
        <ele>1950.1700000000001</ele>
        <time>2017-03-11T09:55:39Z</time>
      </trkpt>
      <trkpt lat="46.642069732770324" lon="12.333140289410949">
        <ele>1950.6500000000001</ele>
        <time>2017-03-11T09:55:52Z</time>
      </trkpt>
      <trkpt lat="46.642030421644449" lon="12.333004837855697">
        <ele>1951.6099999999999</ele>
        <time>2017-03-11T09:56:03Z</time>
      </trkpt>
      <trkpt lat="46.642056154087186" lon="12.332886988297105">
        <ele>1952.0899999999999</ele>
        <time>2017-03-11T09:56:14Z</time>
      </trkpt>
      <trkpt lat="46.642023967579007" lon="12.332813311368227">
        <ele>1954.02</ele>
        <time>2017-03-11T09:56:22Z</time>
      </trkpt>
      <trkpt lat="46.641949787735939" lon="12.332744160667062">
        <ele>1953.0599999999999</ele>
        <time>2017-03-11T09:56:32Z</time>
      </trkpt>
      <trkpt lat="46.641941657289863" lon="12.332657827064395">
        <ele>1954.02</ele>
        <time>2017-03-11T09:56:40Z</time>
      </trkpt>
      <trkpt lat="46.641899412497878" lon="12.332540983334184">
        <ele>1954.5</ele>
        <time>2017-03-11T09:56:50Z</time>
      </trkpt>
      <trkpt lat="46.641863286495209" lon="12.332448698580265">
        <ele>1954.98</ele>
        <time>2017-03-11T09:56:59Z</time>
      </trkpt>
      <trkpt lat="46.64183646440506" lon="12.332350546494126">
        <ele>1955.9400000000001</ele>
        <time>2017-03-11T09:57:09Z</time>
      </trkpt>
      <trkpt lat="46.641766140237451" lon="12.332284580916166">
        <ele>1957.3800000000001</ele>
        <time>2017-03-11T09:57:20Z</time>
      </trkpt>
      <trkpt lat="46.641717860475183" lon="12.332226745784283">
        <ele>1958.8199999999999</ele>
        <time>2017-03-11T09:57:30Z</time>
      </trkpt>
      <trkpt lat="46.641681985929608" lon="12.332186680287123">
        <ele>1960.27</ele>
        <time>2017-03-11T09:57:38Z</time>
      </trkpt>
      <trkpt lat="46.641708724200726" lon="12.332127336412668">
        <ele>1961.23</ele>
        <time>2017-03-11T09:57:47Z</time>
      </trkpt>
      <trkpt lat="46.641771839931607" lon="12.332077547907829">
        <ele>1962.6700000000001</ele>
        <time>2017-03-11T09:57:59Z</time>
      </trkpt>
      <trkpt lat="46.641748789697886" lon="12.332034632563591">
        <ele>1964.5899999999999</ele>
        <time>2017-03-11T09:58:10Z</time>
      </trkpt>
      <trkpt lat="46.641714256256819" lon="12.332006301730871">
        <ele>1965.55</ele>
        <time>2017-03-11T09:58:17Z</time>
      </trkpt>
      <trkpt lat="46.641685338690877" lon="12.331999009475112">
        <ele>1967.48</ele>
        <time>2017-03-11T09:58:23Z</time>
      </trkpt>
      <trkpt lat="46.641659354791045" lon="12.331942012533545">
        <ele>1967.96</ele>
        <time>2017-03-11T09:58:33Z</time>
      </trkpt>
      <trkpt lat="46.641616020351648" lon="12.331893146038055">
        <ele>1969.4000000000001</ele>
        <time>2017-03-11T09:58:44Z</time>
      </trkpt>
      <trkpt lat="46.641590874642134" lon="12.331833466887474">
        <ele>1970.8399999999999</ele>
        <time>2017-03-11T09:58:53Z</time>
      </trkpt>
      <trkpt lat="46.641566567122936" lon="12.331783091649413">
        <ele>1972.28</ele>
        <time>2017-03-11T09:59:03Z</time>
      </trkpt>
      <trkpt lat="46.641522143036127" lon="12.331730704754591">
        <ele>1973.72</ele>
        <time>2017-03-11T09:59:14Z</time>
      </trkpt>
      <trkpt lat="46.641473863273859" lon="12.331640431657434">
        <ele>1975.6500000000001</ele>
        <time>2017-03-11T09:59:28Z</time>
      </trkpt>
      <trkpt lat="46.641440838575363" lon="12.331600282341242">
        <ele>1977.5699999999999</ele>
        <time>2017-03-11T09:59:38Z</time>
      </trkpt>
      <trkpt lat="46.641389289870858" lon="12.331579746678472">
        <ele>1978.53</ele>
        <time>2017-03-11T09:59:49Z</time>
      </trkpt>
      <trkpt lat="46.64133271202445" lon="12.331515289843082">
        <ele>1980.45</ele>
        <time>2017-03-11T10:00:00Z</time>
      </trkpt>
      <trkpt lat="46.641295831650496" lon="12.331467177718878">
        <ele>1981.4100000000001</ele>
        <time>2017-03-11T10:00:09Z</time>
      </trkpt>
      <trkpt lat="46.641257693991065" lon="12.331439852714539">
        <ele>1981.9000000000001</ele>
        <time>2017-03-11T10:00:17Z</time>
      </trkpt>
      <trkpt lat="46.641232213005424" lon="12.331382939592004">
        <ele>1984.3</ele>
        <time>2017-03-11T10:00:24Z</time>
      </trkpt>
      <trkpt lat="46.641287952661514" lon="12.331379586830735">
        <ele>1984.3</ele>
        <time>2017-03-11T10:00:33Z</time>
      </trkpt>
      <trkpt lat="46.641336148604751" lon="12.331391489133239">
        <ele>1985.26</ele>
        <time>2017-03-11T10:00:43Z</time>
      </trkpt>
      <trkpt lat="46.641340758651495" lon="12.331395680084825">
        <ele>1985.74</ele>
        <time>2017-03-11T10:00:52Z</time>
      </trkpt>
      <trkpt lat="46.641363557428122" lon="12.331347148865461">
        <ele>1986.22</ele>
        <time>2017-03-11T10:01:01Z</time>
      </trkpt>
      <trkpt lat="46.641413178294897" lon="12.331326026469469">
        <ele>1986.7</ele>
        <time>2017-03-11T10:01:10Z</time>
      </trkpt>
      <trkpt lat="46.641462463885546" lon="12.33130113221705">
        <ele>1988.1400000000001</ele>
        <time>2017-03-11T10:01:19Z</time>
      </trkpt>
      <trkpt lat="46.641504541039467" lon="12.331275902688503">
        <ele>1989.5899999999999</ele>
        <time>2017-03-11T10:01:28Z</time>
      </trkpt>
      <trkpt lat="46.641537984833121" lon="12.331239944323897">
        <ele>1991.03</ele>
        <time>2017-03-11T10:01:36Z</time>
      </trkpt>
      <trkpt lat="46.641542678698897" lon="12.331230388954282">
        <ele>1991.51</ele>
        <time>2017-03-11T10:01:37Z</time>
      </trkpt>
      <trkpt lat="46.641555670648813" lon="12.331122849136591">
        <ele>1992.95</ele>
        <time>2017-03-11T10:01:49Z</time>
      </trkpt>
      <trkpt lat="46.641514431685209" lon="12.331106085330248">
        <ele>1994.3900000000001</ele>
        <time>2017-03-11T10:01:59Z</time>
      </trkpt>
      <trkpt lat="46.641495069488883" lon="12.331115556880832">
        <ele>1994.8699999999999</ele>
        <time>2017-03-11T10:02:03Z</time>
      </trkpt>
      <trkpt lat="46.641441341489553" lon="12.331080436706543">
        <ele>1996.3199999999999</ele>
        <time>2017-03-11T10:02:11Z</time>
      </trkpt>
      <trkpt lat="46.641430193558335" lon="12.331067025661469">
        <ele>1996.8</ele>
        <time>2017-03-11T10:02:14Z</time>
      </trkpt>
      <trkpt lat="46.641377806663513" lon="12.331032576039433">
        <ele>1998.24</ele>
        <time>2017-03-11T10:02:23Z</time>
      </trkpt>
      <trkpt lat="46.641373448073864" lon="12.331027714535594">
        <ele>1999.6800000000001</ele>
        <time>2017-03-11T10:02:25Z</time>
      </trkpt>
      <trkpt lat="46.641482077538967" lon="12.331010028719902">
        <ele>1998.24</ele>
        <time>2017-03-11T10:02:37Z</time>
      </trkpt>
      <trkpt lat="46.641481490805745" lon="12.330976752564311">
        <ele>1998.72</ele>
        <time>2017-03-11T10:02:56Z</time>
      </trkpt>
      <trkpt lat="46.641417201608419" lon="12.330911289900541">
        <ele>2000.6400000000001</ele>
        <time>2017-03-11T10:03:10Z</time>
      </trkpt>
      <trkpt lat="46.641402617096901" lon="12.330843061208725">
        <ele>2002.0799999999999</ele>
        <time>2017-03-11T10:03:18Z</time>
      </trkpt>
      <trkpt lat="46.641343608498573" lon="12.330823112279177">
        <ele>2003.52</ele>
        <time>2017-03-11T10:03:29Z</time>
      </trkpt>
      <trkpt lat="46.641278062015772" lon="12.33077198266983">
        <ele>2004.97</ele>
        <time>2017-03-11T10:03:39Z</time>
      </trkpt>
      <trkpt lat="46.641238583251834" lon="12.330711213871837">
        <ele>2006.4100000000001</ele>
        <time>2017-03-11T10:03:49Z</time>
      </trkpt>
      <trkpt lat="46.641227854415774" lon="12.330702999606729">
        <ele>2006.4100000000001</ele>
        <time>2017-03-11T10:03:50Z</time>
      </trkpt>
      <trkpt lat="46.641154512763023" lon="12.330648768693209">
        <ele>2007.8499999999999</ele>
        <time>2017-03-11T10:04:00Z</time>
      </trkpt>
      <trkpt lat="46.641099862754345" lon="12.330587496981025">
        <ele>2008.8099999999999</ele>
        <time>2017-03-11T10:04:10Z</time>
      </trkpt>
      <trkpt lat="46.641084859147668" lon="12.33058137819171">
        <ele>2009.29</ele>
        <time>2017-03-11T10:04:13Z</time>
      </trkpt>
      <trkpt lat="46.641009338200092" lon="12.330538462847471">
        <ele>2010.73</ele>
        <time>2017-03-11T10:04:22Z</time>
      </trkpt>
      <trkpt lat="46.640997352078557" lon="12.330514909699559">
        <ele>2012.1800000000001</ele>
        <time>2017-03-11T10:04:26Z</time>
      </trkpt>
      <trkpt lat="46.641144789755344" lon="12.330445339903235">
        <ele>2011.7</ele>
        <time>2017-03-11T10:04:36Z</time>
      </trkpt>
      <trkpt lat="46.641198266297579" lon="12.330417847260833">
        <ele>2011.7</ele>
        <time>2017-03-11T10:04:51Z</time>
      </trkpt>
      <trkpt lat="46.641182927414775" lon="12.330386750400066">
        <ele>2012.1800000000001</ele>
        <time>2017-03-11T10:05:02Z</time>
      </trkpt>
      <trkpt lat="46.641123415902257" lon="12.330314079299569">
        <ele>2013.6199999999999</ele>
        <time>2017-03-11T10:05:12Z</time>
      </trkpt>
      <trkpt lat="46.641065748408437" lon="12.330277869477868">
        <ele>2015.54</ele>
        <time>2017-03-11T10:05:24Z</time>
      </trkpt>
      <trkpt lat="46.64113774895668" lon="12.33028382062912">
        <ele>2015.0599999999999</ele>
        <time>2017-03-11T10:05:38Z</time>
      </trkpt>
      <trkpt lat="46.641124170273542" lon="12.330172173678875">
        <ele>2016.5</ele>
        <time>2017-03-11T10:05:47Z</time>
      </trkpt>
      <trkpt lat="46.641076225787401" lon="12.330082235857844">
        <ele>2017.9400000000001</ele>
        <time>2017-03-11T10:05:58Z</time>
      </trkpt>
      <trkpt lat="46.641049990430474" lon="12.329975618049502">
        <ele>2020.3499999999999</ele>
        <time>2017-03-11T10:06:11Z</time>
      </trkpt>
      <trkpt lat="46.641033729538321" lon="12.329882076010108">
        <ele>2021.3099999999999</ele>
        <time>2017-03-11T10:06:20Z</time>
      </trkpt>
      <trkpt lat="46.641061808913946" lon="12.32987922616303">
        <ele>2022.27</ele>
        <time>2017-03-11T10:06:30Z</time>
      </trkpt>
      <trkpt lat="46.641056947410107" lon="12.329881237819791">
        <ele>2021.79</ele>
        <time>2017-03-11T10:06:37Z</time>
      </trkpt>
      <trkpt lat="46.641072370111942" lon="12.329862797632813">
        <ele>2021.3099999999999</ele>
        <time>2017-03-11T10:06:44Z</time>
      </trkpt>
      <trkpt lat="46.641080835834146" lon="12.329856427386403">
        <ele>2021.3099999999999</ele>
        <time>2017-03-11T10:07:01Z</time>
      </trkpt>
      <trkpt lat="46.641069771721959" lon="12.329836981371045">
        <ele>2021.3099999999999</ele>
        <time>2017-03-11T10:07:14Z</time>
      </trkpt>
      <trkpt lat="46.641085110604763" lon="12.329861875623465">
        <ele>2020.8299999999999</ele>
        <time>2017-03-11T10:07:32Z</time>
      </trkpt>
      <trkpt lat="46.641107490286231" lon="12.329887775704265">
        <ele>2020.3499999999999</ele>
        <time>2017-03-11T10:07:59Z</time>
      </trkpt>
      <trkpt lat="46.641133138909936" lon="12.329858439043164">
        <ele>2020.3499999999999</ele>
        <time>2017-03-11T10:08:18Z</time>
      </trkpt>
      <trkpt lat="46.641139425337315" lon="12.329865228384733">
        <ele>2019.8699999999999</ele>
        <time>2017-03-11T10:08:35Z</time>
      </trkpt>
      <trkpt lat="46.641127020120621" lon="12.329880064353347">
        <ele>2019.8699999999999</ele>
        <time>2017-03-11T10:08:54Z</time>
      </trkpt>
      <trkpt lat="46.641111597418785" lon="12.329872017726302">
        <ele>2019.3900000000001</ele>
        <time>2017-03-11T10:09:17Z</time>
      </trkpt>
      <trkpt lat="46.641083937138319" lon="12.32986900024116">
        <ele>2020.3499999999999</ele>
        <time>2017-03-11T10:09:33Z</time>
      </trkpt>
      <trkpt lat="46.641088631004095" lon="12.329820636659861">
        <ele>2021.3099999999999</ele>
        <time>2017-03-11T10:09:37Z</time>
      </trkpt>
      <trkpt lat="46.641113609075546" lon="12.329729357734323">
        <ele>2023.23</ele>
        <time>2017-03-11T10:09:48Z</time>
      </trkpt>
      <trkpt lat="46.641122996807098" lon="12.329705217853189">
        <ele>2023.23</ele>
        <time>2017-03-11T10:09:58Z</time>
      </trkpt>
      <trkpt lat="46.641113273799419" lon="12.329692058265209">
        <ele>2022.75</ele>
        <time>2017-03-11T10:10:16Z</time>
      </trkpt>
      <trkpt lat="46.641140514984727" lon="12.329693650826812">
        <ele>2022.27</ele>
        <time>2017-03-11T10:10:40Z</time>
      </trkpt>
      <trkpt lat="46.641136994585395" lon="12.329689878970385">
        <ele>2022.27</ele>
        <time>2017-03-11T10:11:04Z</time>
      </trkpt>
      <trkpt lat="46.641145376488566" lon="12.329688034951687">
        <ele>2023.23</ele>
        <time>2017-03-11T10:11:19Z</time>
      </trkpt>
      <trkpt lat="46.64113967679441" lon="12.329676048830152">
        <ele>2022.27</ele>
        <time>2017-03-11T10:11:31Z</time>
      </trkpt>
      <trkpt lat="46.641144789755344" lon="12.329687112942338">
        <ele>2022.27</ele>
        <time>2017-03-11T10:11:46Z</time>
      </trkpt>
      <trkpt lat="46.641155434772372" lon="12.329680491238832">
        <ele>2022.27</ele>
        <time>2017-03-11T10:12:00Z</time>
      </trkpt>
      <trkpt lat="46.641139928251505" lon="12.32967252843082">
        <ele>2021.3099999999999</ele>
        <time>2017-03-11T10:12:14Z</time>
      </trkpt>
      <trkpt lat="46.641121320426464" lon="12.329667080193758">
        <ele>2020.8299999999999</ele>
        <time>2017-03-11T10:12:31Z</time>
      </trkpt>
      <trkpt lat="46.641120901331306" lon="12.329672276973724">
        <ele>2020.3499999999999</ele>
        <time>2017-03-11T10:12:48Z</time>
      </trkpt>
      <trkpt lat="46.641142694279552" lon="12.32966716401279">
        <ele>2021.3099999999999</ele>
        <time>2017-03-11T10:12:59Z</time>
      </trkpt>
      <trkpt lat="46.641140012070537" lon="12.329679736867547">
        <ele>2021.3099999999999</ele>
        <time>2017-03-11T10:13:10Z</time>
      </trkpt>
      <trkpt lat="46.641137665137649" lon="12.32965987175703">
        <ele>2021.3099999999999</ele>
        <time>2017-03-11T10:13:27Z</time>
      </trkpt>
      <trkpt lat="46.641143448650837" lon="12.329607149586082">
        <ele>2022.75</ele>
        <time>2017-03-11T10:13:34Z</time>
      </trkpt>
      <trkpt lat="46.641154931858182" lon="12.329527605324984">
        <ele>2024.6700000000001</ele>
        <time>2017-03-11T10:13:44Z</time>
      </trkpt>
      <trkpt lat="46.641159625723958" lon="12.329406989738345">
        <ele>2026.5999999999999</ele>
        <time>2017-03-11T10:13:55Z</time>
      </trkpt>
      <trkpt lat="46.641184519976377" lon="12.329353680834174">
        <ele>2028.52</ele>
        <time>2017-03-11T10:14:06Z</time>
      </trkpt>
      <trkpt lat="46.641186950728297" lon="12.329295175150037">
        <ele>2029.96</ele>
        <time>2017-03-11T10:14:16Z</time>
      </trkpt>
      <trkpt lat="46.641243193298578" lon="12.329305903986096">
        <ele>2031.4000000000001</ele>
        <time>2017-03-11T10:14:25Z</time>
      </trkpt>
      <trkpt lat="46.641250988468528" lon="12.329308083280921">
        <ele>2031.4000000000001</ele>
        <time>2017-03-11T10:14:30Z</time>
      </trkpt>
      <trkpt lat="46.641241516917944" lon="12.329320991411805">
        <ele>2030.4400000000001</ele>
        <time>2017-03-11T10:14:32Z</time>
      </trkpt>
      <trkpt lat="46.641258113086224" lon="12.329293414950371">
        <ele>2030.4400000000001</ele>
        <time>2017-03-11T10:14:44Z</time>
      </trkpt>
      <trkpt lat="46.641262220218778" lon="12.329273885115981">
        <ele>2030.4400000000001</ele>
        <time>2017-03-11T10:15:02Z</time>
      </trkpt>
      <trkpt lat="46.641271105036139" lon="12.329290565103292">
        <ele>2030.4400000000001</ele>
        <time>2017-03-11T10:15:17Z</time>
      </trkpt>
      <trkpt lat="46.64125693961978" lon="12.329293582588434">
        <ele>2029.96</ele>
        <time>2017-03-11T10:15:34Z</time>
      </trkpt>
      <trkpt lat="46.641240762546659" lon="12.329311687499285">
        <ele>2029.96</ele>
        <time>2017-03-11T10:15:45Z</time>
      </trkpt>
      <trkpt lat="46.64124084636569" lon="12.329300371930003">
        <ele>2029.96</ele>
        <time>2017-03-11T10:16:03Z</time>
      </trkpt>
      <trkpt lat="46.641247216612101" lon="12.329312358051538">
        <ele>2029.96</ele>
        <time>2017-03-11T10:16:11Z</time>
      </trkpt>
      <trkpt lat="46.641253083944321" lon="12.329286374151707">
        <ele>2030.9200000000001</ele>
        <time>2017-03-11T10:16:17Z</time>
      </trkpt>
      <trkpt lat="46.641259705647826" lon="12.329307580366731">
        <ele>2030.9200000000001</ele>
        <time>2017-03-11T10:16:27Z</time>
      </trkpt>
      <trkpt lat="46.641246043145657" lon="12.32932073995471">
        <ele>2030.4400000000001</ele>
        <time>2017-03-11T10:16:44Z</time>
      </trkpt>
      <trkpt lat="46.641247132793069" lon="12.329307664185762">
        <ele>2030.4400000000001</ele>
        <time>2017-03-11T10:16:56Z</time>
      </trkpt>
      <trkpt lat="46.641246378421783" lon="12.329296516254544">
        <ele>2030.4400000000001</ele>
        <time>2017-03-11T10:17:08Z</time>
      </trkpt>
      <trkpt lat="46.641235817223787" lon="12.329304814338684">
        <ele>2030.4400000000001</ele>
        <time>2017-03-11T10:17:19Z</time>
      </trkpt>
      <trkpt lat="46.641223998740315" lon="12.329290565103292">
        <ele>2030.4400000000001</ele>
        <time>2017-03-11T10:17:33Z</time>
      </trkpt>
      <trkpt lat="46.641242941841483" lon="12.32931193895638">
        <ele>2030.4400000000001</ele>
        <time>2017-03-11T10:17:43Z</time>
      </trkpt>
      <trkpt lat="46.641254676505923" lon="12.329323841258883">
        <ele>2029.96</ele>
        <time>2017-03-11T10:17:55Z</time>
      </trkpt>
      <trkpt lat="46.641257777810097" lon="12.329321494325995">
        <ele>2029.96</ele>
        <time>2017-03-11T10:18:11Z</time>
      </trkpt>
      <trkpt lat="46.64125258103013" lon="12.329299701377749">
        <ele>2029.96</ele>
        <time>2017-03-11T10:18:25Z</time>
      </trkpt>
      <trkpt lat="46.641244031488895" lon="12.329310933127999">
        <ele>2030.4400000000001</ele>
        <time>2017-03-11T10:18:46Z</time>
      </trkpt>
      <trkpt lat="46.641252832487226" lon="12.329297941178083">
        <ele>2030.4400000000001</ele>
        <time>2017-03-11T10:19:00Z</time>
      </trkpt>
      <trkpt lat="46.64125794544816" lon="12.329303054139018">
        <ele>2030.4400000000001</ele>
        <time>2017-03-11T10:19:17Z</time>
      </trkpt>
      <trkpt lat="46.641268003731966" lon="12.329317387193441">
        <ele>2030.4400000000001</ele>
        <time>2017-03-11T10:19:36Z</time>
      </trkpt>
      <trkpt lat="46.641291892156005" lon="12.329305149614811">
        <ele>2030.4400000000001</ele>
        <time>2017-03-11T10:19:51Z</time>
      </trkpt>
      <trkpt lat="46.641289377585053" lon="12.329305736348033">
        <ele>2029.96</ele>
        <time>2017-03-11T10:20:06Z</time>
      </trkpt>
      <trkpt lat="46.641260627657175" lon="12.329316213726997">
        <ele>2030.4400000000001</ele>
        <time>2017-03-11T10:20:21Z</time>
      </trkpt>
      <trkpt lat="46.641284180805087" lon="12.329321159049869">
        <ele>2029.96</ele>
        <time>2017-03-11T10:20:38Z</time>
      </trkpt>
      <trkpt lat="46.641282672062516" lon="12.329306490719318">
        <ele>2029.96</ele>
        <time>2017-03-11T10:20:47Z</time>
      </trkpt>
      <trkpt lat="46.641279822215438" lon="12.329342868179083">
        <ele>2029.96</ele>
        <time>2017-03-11T10:21:07Z</time>
      </trkpt>
      <trkpt lat="46.641288287937641" lon="12.329306993633509">
        <ele>2030.4400000000001</ele>
        <time>2017-03-11T10:21:18Z</time>
      </trkpt>
      <trkpt lat="46.64128577336669" lon="12.329305820167065">
        <ele>2030.9200000000001</ele>
        <time>2017-03-11T10:21:32Z</time>
      </trkpt>
      <trkpt lat="46.64126917719841" lon="12.329329205676913">
        <ele>2030.4400000000001</ele>
        <time>2017-03-11T10:21:45Z</time>
      </trkpt>
      <trkpt lat="46.641277307644486" lon="12.329316884279251">
        <ele>2030.4400000000001</ele>
        <time>2017-03-11T10:22:00Z</time>
      </trkpt>
      <trkpt lat="46.64127261377871" lon="12.32930707745254">
        <ele>2030.9200000000001</ele>
        <time>2017-03-11T10:22:13Z</time>
      </trkpt>
      <trkpt lat="46.641275295987725" lon="12.329295594245195">
        <ele>2030.9200000000001</ele>
        <time>2017-03-11T10:22:31Z</time>
      </trkpt>
      <trkpt lat="46.641278313472867" lon="12.329308418557048">
        <ele>2030.4400000000001</ele>
        <time>2017-03-11T10:22:51Z</time>
      </trkpt>
      <trkpt lat="46.641271021217108" lon="12.329326439648867">
        <ele>2030.4400000000001</ele>
        <time>2017-03-11T10:23:11Z</time>
      </trkpt>
      <trkpt lat="46.641277391463518" lon="12.329307831823826">
        <ele>2030.4400000000001</ele>
        <time>2017-03-11T10:23:35Z</time>
      </trkpt>
      <trkpt lat="46.641265237703919" lon="12.329307328909636">
        <ele>2029.96</ele>
        <time>2017-03-11T10:23:54Z</time>
      </trkpt>
      <trkpt lat="46.641268003731966" lon="12.32932610437274">
        <ele>2030.4400000000001</ele>
        <time>2017-03-11T10:24:15Z</time>
      </trkpt>
      <trkpt lat="46.641282420605421" lon="12.329325936734676">
        <ele>2029.96</ele>
        <time>2017-03-11T10:24:35Z</time>
      </trkpt>
      <trkpt lat="46.641289461404085" lon="12.329337000846863">
        <ele>2029.96</ele>
        <time>2017-03-11T10:24:47Z</time>
      </trkpt>
      <trkpt lat="46.641296418383718" lon="12.32936717569828">
        <ele>2030.4400000000001</ele>
        <time>2017-03-11T10:25:09Z</time>
      </trkpt>
      <trkpt lat="46.641300274059176" lon="12.329343371093273">
        <ele>2029.96</ele>
        <time>2017-03-11T10:25:27Z</time>
      </trkpt>
      <trkpt lat="46.641335980966687" lon="12.329350663349032">
        <ele>2031.4000000000001</ele>
        <time>2017-03-11T10:25:35Z</time>
      </trkpt>
      <trkpt lat="46.641354756429791" lon="12.329378323629498">
        <ele>2032.8399999999999</ele>
        <time>2017-03-11T10:25:43Z</time>
      </trkpt>
      <trkpt lat="46.641393061727285" lon="12.329431381076574">
        <ele>2033.8099999999999</ele>
        <time>2017-03-11T10:25:52Z</time>
      </trkpt>
      <trkpt lat="46.641425164416432" lon="12.329447558149695">
        <ele>2034.77</ele>
        <time>2017-03-11T10:26:02Z</time>
      </trkpt>
      <trkpt lat="46.64149540476501" lon="12.329486114904284">
        <ele>2036.6900000000001</ele>
        <time>2017-03-11T10:26:13Z</time>
      </trkpt>
      <trkpt lat="46.641552317887545" lon="12.329509751871228">
        <ele>2038.1300000000001</ele>
        <time>2017-03-11T10:26:24Z</time>
      </trkpt>
      <trkpt lat="46.641570925712585" lon="12.32953573577106">
        <ele>2038.6099999999999</ele>
        <time>2017-03-11T10:26:32Z</time>
      </trkpt>
      <trkpt lat="46.641616774722934" lon="12.329545291140676">
        <ele>2040.05</ele>
        <time>2017-03-11T10:26:40Z</time>
      </trkpt>
      <trkpt lat="46.641673436388373" lon="12.329571694135666">
        <ele>2041.02</ele>
        <time>2017-03-11T10:26:50Z</time>
      </trkpt>
      <trkpt lat="46.641678214073181" lon="12.329515032470226">
        <ele>2042.46</ele>
        <time>2017-03-11T10:26:59Z</time>
      </trkpt>
      <trkpt lat="46.641673604026437" lon="12.329481421038508">
        <ele>2042.9400000000001</ele>
        <time>2017-03-11T10:27:02Z</time>
      </trkpt>
      <trkpt lat="46.641649715602398" lon="12.329371450468898">
        <ele>2043.9000000000001</ele>
        <time>2017-03-11T10:27:13Z</time>
      </trkpt>
      <trkpt lat="46.641657343134284" lon="12.32932073995471">
        <ele>2044.8599999999999</ele>
        <time>2017-03-11T10:27:21Z</time>
      </trkpt>
      <trkpt lat="46.641730600968003" lon="12.329337671399117">
        <ele>2046.3</ele>
        <time>2017-03-11T10:27:32Z</time>
      </trkpt>
      <trkpt lat="46.64178567007184" lon="12.329366840422153">
        <ele>2047.75</ele>
        <time>2017-03-11T10:27:41Z</time>
      </trkpt>
      <trkpt lat="46.641843924298882" lon="12.329361978918314">
        <ele>2049.1900000000001</ele>
        <time>2017-03-11T10:27:50Z</time>
      </trkpt>
      <trkpt lat="46.641872338950634" lon="12.329362817108631">
        <ele>2051.1100000000001</ele>
        <time>2017-03-11T10:28:01Z</time>
      </trkpt>
      <trkpt lat="46.641933778300881" lon="12.329378826543689">
        <ele>2053.0300000000002</ele>
        <time>2017-03-11T10:28:13Z</time>
      </trkpt>
      <trkpt lat="46.641966132447124" lon="12.329406822100282">
        <ele>2053.5100000000002</ele>
        <time>2017-03-11T10:28:24Z</time>
      </trkpt>
      <trkpt lat="46.641968479380012" lon="12.329404139891267">
        <ele>2053.9899999999998</ele>
        <time>2017-03-11T10:28:29Z</time>
      </trkpt>
      <trkpt lat="46.642004102468491" lon="12.329413359984756">
        <ele>2055.4400000000001</ele>
        <time>2017-03-11T10:28:37Z</time>
      </trkpt>
      <trkpt lat="46.642003934830427" lon="12.329333396628499">
        <ele>2056.4000000000001</ele>
        <time>2017-03-11T10:28:47Z</time>
      </trkpt>
      <trkpt lat="46.64196596480906" lon="12.329242201521993">
        <ele>2057.8400000000001</ele>
        <time>2017-03-11T10:28:57Z</time>
      </trkpt>
      <trkpt lat="46.641930257901549" lon="12.329113958403468">
        <ele>2059.2800000000002</ele>
        <time>2017-03-11T10:29:10Z</time>
      </trkpt>
      <trkpt lat="46.641935454681516" lon="12.329030893743038">
        <ele>2061.1999999999998</ele>
        <time>2017-03-11T10:29:19Z</time>
      </trkpt>
      <trkpt lat="46.641929252073169" lon="12.328974483534694">
        <ele>2062.1700000000001</ele>
        <time>2017-03-11T10:29:26Z</time>
      </trkpt>
      <trkpt lat="46.641924558207393" lon="12.328871134668589">
        <ele>2063.6100000000001</ele>
        <time>2017-03-11T10:29:37Z</time>
      </trkpt>
      <trkpt lat="46.641948949545622" lon="12.328875828534365">
        <ele>2064.5700000000002</ele>
        <time>2017-03-11T10:29:48Z</time>
      </trkpt>
      <trkpt lat="46.641990188509226" lon="12.328813131898642">
        <ele>2066.4899999999998</ele>
        <time>2017-03-11T10:29:58Z</time>
      </trkpt>
      <trkpt lat="46.641981052234769" lon="12.32874171808362">
        <ele>2067.9299999999998</ele>
        <time>2017-03-11T10:30:06Z</time>
      </trkpt>
      <trkpt lat="46.642000833526254" lon="12.328708861023188">
        <ele>2069.8600000000001</ele>
        <time>2017-03-11T10:30:16Z</time>
      </trkpt>
      <trkpt lat="46.642065793275833" lon="12.328763930127025">
        <ele>2071.3000000000002</ele>
        <time>2017-03-11T10:30:26Z</time>
      </trkpt>
      <trkpt lat="46.642110217362642" lon="12.328771976754069">
        <ele>2072.7399999999998</ele>
        <time>2017-03-11T10:30:36Z</time>
      </trkpt>
      <trkpt lat="46.642175344750285" lon="12.328772060573101">
        <ele>2074.1799999999998</ele>
        <time>2017-03-11T10:30:45Z</time>
      </trkpt>
      <trkpt lat="46.642217338085175" lon="12.328760242089629">
        <ele>2076.0999999999999</ele>
        <time>2017-03-11T10:30:55Z</time>
      </trkpt>
      <trkpt lat="46.642271149903536" lon="12.328757895156741">
        <ele>2077.5500000000002</ele>
        <time>2017-03-11T10:31:06Z</time>
      </trkpt>
      <trkpt lat="46.642264276742935" lon="12.328681452199817">
        <ele>2079.4699999999998</ele>
        <time>2017-03-11T10:31:15Z</time>
      </trkpt>
      <trkpt lat="46.642245417460799" lon="12.328611211851239">
        <ele>2080.9099999999999</ele>
        <time>2017-03-11T10:31:26Z</time>
      </trkpt>
      <trkpt lat="46.642299899831414" lon="12.328588664531708">
        <ele>2082.8299999999999</ele>
        <time>2017-03-11T10:31:36Z</time>
      </trkpt>
      <trkpt lat="46.642355220392346" lon="12.328593106940389">
        <ele>2083.79</ele>
        <time>2017-03-11T10:31:45Z</time>
      </trkpt>
      <trkpt lat="46.642405176535249" lon="12.328602662310004">
        <ele>2085.7199999999998</ele>
        <time>2017-03-11T10:31:55Z</time>
      </trkpt>
      <trkpt lat="46.642445409670472" lon="12.328597633168101">
        <ele>2087.6399999999999</ele>
        <time>2017-03-11T10:32:05Z</time>
      </trkpt>
      <trkpt lat="46.642439793795347" lon="12.328533008694649">
        <ele>2089.0799999999999</ele>
        <time>2017-03-11T10:32:13Z</time>
      </trkpt>
      <trkpt lat="46.642420096322894" lon="12.328458577394485">
        <ele>2090.04</ele>
        <time>2017-03-11T10:32:23Z</time>
      </trkpt>
      <trkpt lat="46.642422024160624" lon="12.328375345095992">
        <ele>2091.4899999999998</ele>
        <time>2017-03-11T10:32:34Z</time>
      </trkpt>
      <trkpt lat="46.642443146556616" lon="12.328291861340404">
        <ele>2092.9299999999998</ele>
        <time>2017-03-11T10:32:43Z</time>
      </trkpt>
      <trkpt lat="46.642453707754612" lon="12.328231260180473">
        <ele>2093.4099999999999</ele>
        <time>2017-03-11T10:32:54Z</time>
      </trkpt>
      <trkpt lat="46.642455467954278" lon="12.328214580193162">
        <ele>2093.8899999999999</ele>
        <time>2017-03-11T10:32:56Z</time>
      </trkpt>
      <trkpt lat="46.64247558452189" lon="12.328186752274632">
        <ele>2094.3699999999999</ele>
        <time>2017-03-11T10:32:59Z</time>
      </trkpt>
      <trkpt lat="46.642466029152274" lon="12.328131180256605">
        <ele>2093.8899999999999</ele>
        <time>2017-03-11T10:33:10Z</time>
      </trkpt>
      <trkpt lat="46.642412049695849" lon="12.328128246590495">
        <ele>2094.8499999999999</ele>
        <time>2017-03-11T10:33:18Z</time>
      </trkpt>
      <trkpt lat="46.642412217333913" lon="12.32809572480619">
        <ele>2095.8099999999999</ele>
        <time>2017-03-11T10:33:29Z</time>
      </trkpt>
      <trkpt lat="46.642400063574314" lon="12.328005870804191">
        <ele>2097.25</ele>
        <time>2017-03-11T10:33:40Z</time>
      </trkpt>
      <trkpt lat="46.642400734126568" lon="12.328035542741418">
        <ele>2097.73</ele>
        <time>2017-03-11T10:33:50Z</time>
      </trkpt>
      <trkpt lat="46.642375336959958" lon="12.327967062592506">
        <ele>2098.21</ele>
        <time>2017-03-11T10:33:55Z</time>
      </trkpt>
      <trkpt lat="46.642339881509542" lon="12.327880645170808">
        <ele>2100.1399999999999</ele>
        <time>2017-03-11T10:34:07Z</time>
      </trkpt>
      <trkpt lat="46.642310796305537" lon="12.327757347375154">
        <ele>2101.5799999999999</ele>
        <time>2017-03-11T10:34:17Z</time>
      </trkpt>
      <trkpt lat="46.64226989261806" lon="12.327683083713055">
        <ele>2102.54</ele>
        <time>2017-03-11T10:34:28Z</time>
      </trkpt>
      <trkpt lat="46.642249105498195" lon="12.3276237398386">
        <ele>2103.5</ele>
        <time>2017-03-11T10:34:40Z</time>
      </trkpt>
      <trkpt lat="46.642223540693521" lon="12.327541429549456">
        <ele>2104.46</ele>
        <time>2017-03-11T10:34:50Z</time>
      </trkpt>
      <trkpt lat="46.642238292843103" lon="12.32753237709403">
        <ele>2104.9400000000001</ele>
        <time>2017-03-11T10:34:57Z</time>
      </trkpt>
      <trkpt lat="46.642262097448111" lon="12.327558109536767">
        <ele>2104.9400000000001</ele>
        <time>2017-03-11T10:35:12Z</time>
      </trkpt>
      <trkpt lat="46.642285231500864" lon="12.327554505318403">
        <ele>2104.9400000000001</ele>
        <time>2017-03-11T10:35:31Z</time>
      </trkpt>
      <trkpt lat="46.642270227894187" lon="12.327506560832262">
        <ele>2104.9400000000001</ele>
        <time>2017-03-11T10:35:48Z</time>
      </trkpt>
      <trkpt lat="46.642252709716558" lon="12.327450234442949">
        <ele>2105.4200000000001</ele>
        <time>2017-03-11T10:35:58Z</time>
      </trkpt>
      <trkpt lat="46.642255475744605" lon="12.327465824782848">
        <ele>2105.4200000000001</ele>
        <time>2017-03-11T10:36:10Z</time>
      </trkpt>
      <trkpt lat="46.642268383875489" lon="12.327480493113399">
        <ele>2105.4200000000001</ele>
        <time>2017-03-11T10:36:21Z</time>
      </trkpt>
      <trkpt lat="46.642298810184002" lon="12.327422322705388">
        <ele>2106.3899999999999</ele>
        <time>2017-03-11T10:36:33Z</time>
      </trkpt>
      <trkpt lat="46.642319764941931" lon="12.327362643554807">
        <ele>2108.3099999999999</ele>
        <time>2017-03-11T10:36:40Z</time>
      </trkpt>
      <trkpt lat="46.642342144623399" lon="12.32729977928102">
        <ele>2108.79</ele>
        <time>2017-03-11T10:36:49Z</time>
      </trkpt>
      <trkpt lat="46.642335690557957" lon="12.327231131494045">
        <ele>2110.71</ele>
        <time>2017-03-11T10:36:58Z</time>
      </trkpt>
      <trkpt lat="46.642306940630078" lon="12.327136667445302">
        <ele>2112.1500000000001</ele>
        <time>2017-03-11T10:37:08Z</time>
      </trkpt>
      <trkpt lat="46.642307359725237" lon="12.327055614441633">
        <ele>2114.0799999999999</ele>
        <time>2017-03-11T10:37:19Z</time>
      </trkpt>
      <trkpt lat="46.642295373603702" lon="12.327010184526443">
        <ele>2116</ele>
        <time>2017-03-11T10:37:30Z</time>
      </trkpt>
      <trkpt lat="46.642283219844103" lon="12.327053351327777">
        <ele>2116.96</ele>
        <time>2017-03-11T10:37:46Z</time>
      </trkpt>
      <trkpt lat="46.642230497673154" lon="12.327048489823937">
        <ele>2118.4000000000001</ele>
        <time>2017-03-11T10:37:55Z</time>
      </trkpt>
      <trkpt lat="46.642158329486847" lon="12.327026529237628">
        <ele>2120.3200000000002</ele>
        <time>2017-03-11T10:38:06Z</time>
      </trkpt>
      <trkpt lat="46.642113570123911" lon="12.326993839815259">
        <ele>2121.29</ele>
        <time>2017-03-11T10:38:15Z</time>
      </trkpt>
      <trkpt lat="46.642043916508555" lon="12.326975483447313">
        <ele>2122.25</ele>
        <time>2017-03-11T10:38:26Z</time>
      </trkpt>
      <trkpt lat="46.642000498250127" lon="12.326923599466681">
        <ele>2123.6900000000001</ele>
        <time>2017-03-11T10:38:35Z</time>
      </trkpt>
      <trkpt lat="46.641993122175336" lon="12.326854867860675">
        <ele>2124.1700000000001</ele>
        <time>2017-03-11T10:38:46Z</time>
      </trkpt>
      <trkpt lat="46.641968227922916" lon="12.326749842613935">
        <ele>2126.0900000000001</ele>
        <time>2017-03-11T10:38:57Z</time>
      </trkpt>
      <trkpt lat="46.641942076385021" lon="12.326700054109097">
        <ele>2127.0500000000002</ele>
        <time>2017-03-11T10:39:06Z</time>
      </trkpt>
      <trkpt lat="46.641920451074839" lon="12.326611708849669">
        <ele>2128.5</ele>
        <time>2017-03-11T10:39:18Z</time>
      </trkpt>
      <trkpt lat="46.641925480216742" lon="12.326548844575882">
        <ele>2129.46</ele>
        <time>2017-03-11T10:39:28Z</time>
      </trkpt>
      <trkpt lat="46.641912823542953" lon="12.326496709138155">
        <ele>2130.4200000000001</ele>
        <time>2017-03-11T10:39:39Z</time>
      </trkpt>
      <trkpt lat="46.641875943168998" lon="12.326404927298427">
        <ele>2131.8600000000001</ele>
        <time>2017-03-11T10:39:51Z</time>
      </trkpt>
      <trkpt lat="46.641856916248798" lon="12.326338961720467">
        <ele>2133.3000000000002</ele>
        <time>2017-03-11T10:40:00Z</time>
      </trkpt>
      <trkpt lat="46.641835458576679" lon="12.326269224286079">
        <ele>2135.23</ele>
        <time>2017-03-11T10:40:11Z</time>
      </trkpt>
      <trkpt lat="46.641834955662489" lon="12.326204013079405">
        <ele>2136.6700000000001</ele>
        <time>2017-03-11T10:40:20Z</time>
      </trkpt>
      <trkpt lat="46.641832189634442" lon="12.326123882085085">
        <ele>2138.1100000000001</ele>
        <time>2017-03-11T10:40:30Z</time>
      </trkpt>
      <trkpt lat="46.641812659800053" lon="12.32607283629477">
        <ele>2139.5500000000002</ele>
        <time>2017-03-11T10:40:39Z</time>
      </trkpt>
      <trkpt lat="46.641807546839118" lon="12.326050791889429">
        <ele>2140.9899999999998</ele>
        <time>2017-03-11T10:40:42Z</time>
      </trkpt>
      <trkpt lat="46.641801008954644" lon="12.325976444408298">
        <ele>2141.4699999999998</ele>
        <time>2017-03-11T10:40:53Z</time>
      </trkpt>
      <trkpt lat="46.641810145229101" lon="12.325912993401289">
        <ele>2143.4000000000001</ele>
        <time>2017-03-11T10:41:04Z</time>
      </trkpt>
      <trkpt lat="46.641833363100886" lon="12.32585147023201">
        <ele>2144.3600000000001</ele>
        <time>2017-03-11T10:41:13Z</time>
      </trkpt>
      <trkpt lat="46.641841745004058" lon="12.325759185478091">
        <ele>2146.2800000000002</ele>
        <time>2017-03-11T10:41:24Z</time>
      </trkpt>
      <trkpt lat="46.64184576831758" lon="12.325685173273087">
        <ele>2148.1999999999998</ele>
        <time>2017-03-11T10:41:34Z</time>
      </trkpt>
      <trkpt lat="46.641839314252138" lon="12.325619459152222">
        <ele>2149.1599999999999</ele>
        <time>2017-03-11T10:41:43Z</time>
      </trkpt>
      <trkpt lat="46.641838727518916" lon="12.325642593204975">
        <ele>2149.1599999999999</ele>
        <time>2017-03-11T10:41:58Z</time>
      </trkpt>
      <trkpt lat="46.641823807731271" lon="12.325501525774598">
        <ele>2150.1300000000001</ele>
        <time>2017-03-11T10:42:08Z</time>
      </trkpt>
      <trkpt lat="46.641841912642121" lon="12.325402116402984">
        <ele>2151.5700000000002</ele>
        <time>2017-03-11T10:42:19Z</time>
      </trkpt>
      <trkpt lat="46.641839314252138" lon="12.325298096984625">
        <ele>2153.0100000000002</ele>
        <time>2017-03-11T10:42:30Z</time>
      </trkpt>
      <trkpt lat="46.641783071681857" lon="12.325210506096482">
        <ele>2155.4099999999999</ele>
        <time>2017-03-11T10:42:43Z</time>
      </trkpt>
      <trkpt lat="46.641748286783695" lon="12.325167842209339">
        <ele>2156.3699999999999</ele>
        <time>2017-03-11T10:42:55Z</time>
      </trkpt>
      <trkpt lat="46.641709059476852" lon="12.32515518553555">
        <ele>2157.8200000000002</ele>
        <time>2017-03-11T10:43:05Z</time>
      </trkpt>
      <trkpt lat="46.641669999808073" lon="12.325167758390307">
        <ele>2159.2600000000002</ele>
        <time>2017-03-11T10:43:15Z</time>
      </trkpt>
      <trkpt lat="46.641636220738292" lon="12.325150407850742">
        <ele>2160.6999999999998</ele>
        <time>2017-03-11T10:43:24Z</time>
      </trkpt>
      <trkpt lat="46.641634711995721" lon="12.325113443657756">
        <ele>2161.1799999999998</ele>
        <time>2017-03-11T10:43:30Z</time>
      </trkpt>
      <trkpt lat="46.641624150797725" lon="12.325048735365272">
        <ele>2162.6199999999999</ele>
        <time>2017-03-11T10:43:39Z</time>
      </trkpt>
      <trkpt lat="46.641590874642134" lon="12.32497681863606">
        <ele>2164.5500000000002</ele>
        <time>2017-03-11T10:43:51Z</time>
      </trkpt>
      <trkpt lat="46.641580229625106" lon="12.324924683198333">
        <ele>2165.5100000000002</ele>
        <time>2017-03-11T10:44:01Z</time>
      </trkpt>
      <trkpt lat="46.641604034230113" lon="12.324925940483809">
        <ele>2165.9899999999998</ele>
        <time>2017-03-11T10:44:16Z</time>
      </trkpt>
      <trkpt lat="46.641595317050815" lon="12.324838181957603">
        <ele>2166.9499999999998</ele>
        <time>2017-03-11T10:44:25Z</time>
      </trkpt>
      <trkpt lat="46.641584588214755" lon="12.32474765740335">
        <ele>2168.3899999999999</ele>
        <time>2017-03-11T10:44:37Z</time>
      </trkpt>
      <trkpt lat="46.641570087522268" lon="12.324686218053102">
        <ele>2169.8299999999999</ele>
        <time>2017-03-11T10:44:47Z</time>
      </trkpt>
      <trkpt lat="46.641546869650483" lon="12.324571302160621">
        <ele>2170.79</ele>
        <time>2017-03-11T10:44:57Z</time>
      </trkpt>
      <trkpt lat="46.641560532152653" lon="12.324621677398682">
        <ele>2171.27</ele>
        <time>2017-03-11T10:45:05Z</time>
      </trkpt>
      <trkpt lat="46.641565058380365" lon="12.32463869266212">
        <ele>2171.27</ele>
        <time>2017-03-11T10:45:17Z</time>
      </trkpt>
      <trkpt lat="46.641550725325942" lon="12.32456099241972">
        <ele>2172.2399999999998</ele>
        <time>2017-03-11T10:45:25Z</time>
      </trkpt>
      <trkpt lat="46.641503954306245" lon="12.324421936646104">
        <ele>2174.1599999999999</ele>
        <time>2017-03-11T10:45:38Z</time>
      </trkpt>
      <trkpt lat="46.641500601544976" lon="12.324407855048776">
        <ele>2174.1599999999999</ele>
        <time>2017-03-11T10:45:39Z</time>
      </trkpt>
      <trkpt lat="46.641472857445478" lon="12.324272319674492">
        <ele>2175.5999999999999</ele>
        <time>2017-03-11T10:45:52Z</time>
      </trkpt>
      <trkpt lat="46.641436228528619" lon="12.324205599725246">
        <ele>2176.5599999999999</ele>
        <time>2017-03-11T10:46:02Z</time>
      </trkpt>
      <trkpt lat="46.641373950988054" lon="12.32412563636899">
        <ele>2178</ele>
        <time>2017-03-11T10:46:13Z</time>
      </trkpt>
      <trkpt lat="46.641308655962348" lon="12.324043158441782">
        <ele>2178.9699999999998</ele>
        <time>2017-03-11T10:46:24Z</time>
      </trkpt>
      <trkpt lat="46.641260795295238" lon="12.323970487341285">
        <ele>2180.4099999999999</ele>
        <time>2017-03-11T10:46:35Z</time>
      </trkpt>
      <trkpt lat="46.641241433098912" lon="12.323962273076177">
        <ele>2183.29</ele>
        <time>2017-03-11T10:46:45Z</time>
      </trkpt>
      <trkpt lat="46.641241181641817" lon="12.323947018012404">
        <ele>2182.3299999999999</ele>
        <time>2017-03-11T10:46:56Z</time>
      </trkpt>
      <trkpt lat="46.641196673735976" lon="12.323877783492208">
        <ele>2183.29</ele>
        <time>2017-03-11T10:47:06Z</time>
      </trkpt>
      <trkpt lat="46.641144035384059" lon="12.323800418525934">
        <ele>2184.73</ele>
        <time>2017-03-11T10:47:17Z</time>
      </trkpt>
      <trkpt lat="46.641067340970039" lon="12.323747025802732">
        <ele>2186.6599999999999</ele>
        <time>2017-03-11T10:47:29Z</time>
      </trkpt>
      <trkpt lat="46.641010176390409" lon="12.323715342208743">
        <ele>2188.0999999999999</ele>
        <time>2017-03-11T10:47:41Z</time>
      </trkpt>
      <trkpt lat="46.640974637120962" lon="12.32364971190691">
        <ele>2189.54</ele>
        <time>2017-03-11T10:47:51Z</time>
      </trkpt>
      <trkpt lat="46.640908839181066" lon="12.323572095483541">
        <ele>2190.5</ele>
        <time>2017-03-11T10:48:02Z</time>
      </trkpt>
      <trkpt lat="46.640870114788413" lon="12.323535466566682">
        <ele>2191.46</ele>
        <time>2017-03-11T10:48:11Z</time>
      </trkpt>
      <trkpt lat="46.640830971300602" lon="12.32348995283246">
        <ele>2192.9000000000001</ele>
        <time>2017-03-11T10:48:21Z</time>
      </trkpt>
      <trkpt lat="46.640860140323639" lon="12.32351878657937">
        <ele>2192.9000000000001</ele>
        <time>2017-03-11T10:48:35Z</time>
      </trkpt>
      <trkpt lat="46.64081571623683" lon="12.323450054973364">
        <ele>2193.8699999999999</ele>
        <time>2017-03-11T10:48:45Z</time>
      </trkpt>
      <trkpt lat="46.640757881104946" lon="12.323414012789726">
        <ele>2195.3099999999999</ele>
        <time>2017-03-11T10:48:55Z</time>
      </trkpt>
      <trkpt lat="46.640710774809122" lon="12.32336388900876">
        <ele>2196.75</ele>
        <time>2017-03-11T10:49:05Z</time>
      </trkpt>
      <trkpt lat="46.640666769817472" lon="12.323367241770029">
        <ele>2197.71</ele>
        <time>2017-03-11T10:49:15Z</time>
      </trkpt>
      <trkpt lat="46.640648916363716" lon="12.323379395529628">
        <ele>2198.1900000000001</ele>
        <time>2017-03-11T10:49:28Z</time>
      </trkpt>
      <trkpt lat="46.64060901850462" lon="12.323415437713265">
        <ele>2199.1500000000001</ele>
        <time>2017-03-11T10:49:38Z</time>
      </trkpt>
      <trkpt lat="46.640605581924319" lon="12.323441253975034">
        <ele>2199.6300000000001</ele>
        <time>2017-03-11T10:49:55Z</time>
      </trkpt>
      <trkpt lat="46.640566773712635" lon="12.323499424383044">
        <ele>2201.0799999999999</ele>
        <time>2017-03-11T10:50:05Z</time>
      </trkpt>
      <trkpt lat="46.64052402600646" lon="12.323540411889553">
        <ele>2202.52</ele>
        <time>2017-03-11T10:50:12Z</time>
      </trkpt>
      <trkpt lat="46.640484044328332" lon="12.323574693873525">
        <ele>2203.96</ele>
        <time>2017-03-11T10:50:22Z</time>
      </trkpt>
      <trkpt lat="46.640454037114978" lon="12.323614507913589">
        <ele>2205.8800000000001</ele>
        <time>2017-03-11T10:50:33Z</time>
      </trkpt>
      <trkpt lat="46.64042285643518" lon="12.323687430471182">
        <ele>2207.3200000000002</ele>
        <time>2017-03-11T10:50:43Z</time>
      </trkpt>
      <trkpt lat="46.64037742651999" lon="12.32372984290123">
        <ele>2207.8099999999999</ele>
        <time>2017-03-11T10:50:54Z</time>
      </trkpt>
      <trkpt lat="46.640362925827503" lon="12.323731016367674">
        <ele>2207.8099999999999</ele>
        <time>2017-03-11T10:51:08Z</time>
      </trkpt>
      <trkpt lat="46.640329398214817" lon="12.323754401877522">
        <ele>2208.29</ele>
        <time>2017-03-11T10:51:19Z</time>
      </trkpt>
      <trkpt lat="46.640288326889277" lon="12.323714755475521">
        <ele>2209.73</ele>
        <time>2017-03-11T10:51:28Z</time>
      </trkpt>
      <trkpt lat="46.640288662165403" lon="12.323708552867174">
        <ele>2209.73</ele>
        <time>2017-03-11T10:51:45Z</time>
      </trkpt>
      <trkpt lat="46.640300899744034" lon="12.32364485040307">
        <ele>2210.6900000000001</ele>
        <time>2017-03-11T10:52:01Z</time>
      </trkpt>
      <trkpt lat="46.640328811481595" lon="12.323659518733621">
        <ele>2211.6500000000001</ele>
        <time>2017-03-11T10:52:16Z</time>
      </trkpt>
      <trkpt lat="46.640306347981095" lon="12.323657004162669">
        <ele>2211.6500000000001</ele>
        <time>2017-03-11T10:52:31Z</time>
      </trkpt>
      <trkpt lat="46.640299055725336" lon="12.323630936443806">
        <ele>2212.1300000000001</ele>
        <time>2017-03-11T10:52:46Z</time>
      </trkpt>
      <trkpt lat="46.640268294140697" lon="12.323631104081869">
        <ele>2213.0900000000001</ele>
        <time>2017-03-11T10:52:51Z</time>
      </trkpt>
      <trkpt lat="46.640211548656225" lon="12.323672845959663">
        <ele>2215.0100000000002</ele>
        <time>2017-03-11T10:53:03Z</time>
      </trkpt>
      <trkpt lat="46.640146924182773" lon="12.323678461834788">
        <ele>2216.46</ele>
        <time>2017-03-11T10:53:13Z</time>
      </trkpt>
      <trkpt lat="46.640104511752725" lon="12.323627583682537">
        <ele>2217.4200000000001</ele>
        <time>2017-03-11T10:53:24Z</time>
      </trkpt>
      <trkpt lat="46.64009646512568" lon="12.323567066341639">
        <ele>2218.3800000000001</ele>
        <time>2017-03-11T10:53:38Z</time>
      </trkpt>
      <trkpt lat="46.640104176476598" lon="12.323504537343979">
        <ele>2220.3000000000002</ele>
        <time>2017-03-11T10:53:48Z</time>
      </trkpt>
      <trkpt lat="46.640127813443542" lon="12.323474194854498">
        <ele>2221.7399999999998</ele>
        <time>2017-03-11T10:53:57Z</time>
      </trkpt>
      <trkpt lat="46.640130076557398" lon="12.32342105358839">
        <ele>2222.71</ele>
        <time>2017-03-11T10:54:11Z</time>
      </trkpt>
      <trkpt lat="46.64014189504087" lon="12.323353746905923">
        <ele>2224.6300000000001</ele>
        <time>2017-03-11T10:54:23Z</time>
      </trkpt>
      <trkpt lat="46.640173746272922" lon="12.323279902338982">
        <ele>2226.5500000000002</ele>
        <time>2017-03-11T10:54:34Z</time>
      </trkpt>
      <trkpt lat="46.640178104862571" lon="12.323227766901255">
        <ele>2227.9899999999998</ele>
        <time>2017-03-11T10:54:43Z</time>
      </trkpt>
      <trkpt lat="46.640188917517662" lon="12.323181331157684">
        <ele>2229.4299999999998</ele>
        <time>2017-03-11T10:54:51Z</time>
      </trkpt>
      <trkpt lat="46.640209536999464" lon="12.323127603158355">
        <ele>2230.8800000000001</ele>
        <time>2017-03-11T10:55:00Z</time>
      </trkpt>
      <trkpt lat="46.640238035470247" lon="12.323081335052848">
        <ele>2232.8000000000002</ele>
        <time>2017-03-11T10:55:10Z</time>
      </trkpt>
      <trkpt lat="46.640245411545038" lon="12.323046214878559">
        <ele>2233.2800000000002</ele>
        <time>2017-03-11T10:55:25Z</time>
      </trkpt>
      <trkpt lat="46.640264270827174" lon="12.322978237643838">
        <ele>2235.1999999999998</ele>
        <time>2017-03-11T10:55:36Z</time>
      </trkpt>
      <trkpt lat="46.64029486477375" lon="12.322911852970719">
        <ele>2236.1599999999999</ele>
        <time>2017-03-11T10:55:45Z</time>
      </trkpt>
      <trkpt lat="46.640334762632847" lon="12.322811940684915">
        <ele>2237.6100000000001</ele>
        <time>2017-03-11T10:55:57Z</time>
      </trkpt>
      <trkpt lat="46.640342054888606" lon="12.322738347575068">
        <ele>2239.0500000000002</ele>
        <time>2017-03-11T10:56:09Z</time>
      </trkpt>
      <trkpt lat="46.64035152643919" lon="12.322629215195775">
        <ele>2241.4499999999998</ele>
        <time>2017-03-11T10:56:24Z</time>
      </trkpt>
      <trkpt lat="46.640370972454548" lon="12.322583114728332">
        <ele>2242.4099999999999</ele>
        <time>2017-03-11T10:56:33Z</time>
      </trkpt>
      <trkpt lat="46.640375833958387" lon="12.322530979290605">
        <ele>2242.8899999999999</ele>
        <time>2017-03-11T10:56:44Z</time>
      </trkpt>
      <trkpt lat="46.640387317165732" lon="12.322471216320992">
        <ele>2244.3299999999999</ele>
        <time>2017-03-11T10:56:53Z</time>
      </trkpt>
      <trkpt lat="46.640388239175081" lon="12.32245939783752">
        <ele>2244.8200000000002</ele>
        <time>2017-03-11T10:56:54Z</time>
      </trkpt>
      <trkpt lat="46.64039695635438" lon="12.322367783635855">
        <ele>2246.2600000000002</ele>
        <time>2017-03-11T10:57:05Z</time>
      </trkpt>
      <trkpt lat="46.640405086800456" lon="12.322317073121667">
        <ele>2247.6999999999998</ele>
        <time>2017-03-11T10:57:16Z</time>
      </trkpt>
      <trkpt lat="46.640417743474245" lon="12.322265608236194">
        <ele>2248.6599999999999</ele>
        <time>2017-03-11T10:57:25Z</time>
      </trkpt>
      <trkpt lat="46.640455964952707" lon="12.322194445878267">
        <ele>2250.0999999999999</ele>
        <time>2017-03-11T10:57:35Z</time>
      </trkpt>
      <trkpt lat="46.640422018244863" lon="12.322123702615499">
        <ele>2251.0599999999999</ele>
        <time>2017-03-11T10:57:44Z</time>
      </trkpt>
      <trkpt lat="46.640398297458887" lon="12.322102496400476">
        <ele>2251.54</ele>
        <time>2017-03-11T10:57:54Z</time>
      </trkpt>
      <trkpt lat="46.640407852828503" lon="12.322110375389457">
        <ele>2251.0599999999999</ele>
        <time>2017-03-11T10:58:05Z</time>
      </trkpt>
      <trkpt lat="46.640412546694279" lon="12.322087660431862">
        <ele>2251.0599999999999</ele>
        <time>2017-03-11T10:58:21Z</time>
      </trkpt>
      <trkpt lat="46.640419755131006" lon="12.322119595482945">
        <ele>2251.0599999999999</ele>
        <time>2017-03-11T10:58:37Z</time>
      </trkpt>
      <trkpt lat="46.640422269701958" lon="12.322116913273931">
        <ele>2250.5799999999999</ele>
        <time>2017-03-11T10:58:46Z</time>
      </trkpt>
      <trkpt lat="46.640417072921991" lon="12.322099478915334">
        <ele>2250.0999999999999</ele>
        <time>2017-03-11T10:59:12Z</time>
      </trkpt>
      <trkpt lat="46.640418916940689" lon="12.322097886353731">
        <ele>2250.0999999999999</ele>
        <time>2017-03-11T10:59:32Z</time>
      </trkpt>
      <trkpt lat="46.640418078750372" lon="12.322091767564416">
        <ele>2250.5799999999999</ele>
        <time>2017-03-11T10:59:58Z</time>
      </trkpt>
      <trkpt lat="46.640405924990773" lon="12.322095623239875">
        <ele>2250.5799999999999</ele>
        <time>2017-03-11T11:00:24Z</time>
      </trkpt>
      <trkpt lat="46.640401901677251" lon="12.32210710644722">
        <ele>2250.0999999999999</ele>
        <time>2017-03-11T11:00:50Z</time>
      </trkpt>
      <trkpt lat="46.640418078750372" lon="12.32210517860949">
        <ele>2250.0999999999999</ele>
        <time>2017-03-11T11:01:12Z</time>
      </trkpt>
      <trkpt lat="46.640415312722325" lon="12.322131162509322">
        <ele>2250.5799999999999</ele>
        <time>2017-03-11T11:01:22Z</time>
      </trkpt>
      <trkpt lat="46.640418916940689" lon="12.322132168337703">
        <ele>2251.0599999999999</ele>
        <time>2017-03-11T11:01:32Z</time>
      </trkpt>
      <trkpt lat="46.64041506126523" lon="12.322101239115">
        <ele>2250.0999999999999</ele>
        <time>2017-03-11T11:01:44Z</time>
      </trkpt>
      <trkpt lat="46.640415815636516" lon="12.322123199701309">
        <ele>2250.0999999999999</ele>
        <time>2017-03-11T11:02:01Z</time>
      </trkpt>
      <trkpt lat="46.640419000759721" lon="12.322120266035199">
        <ele>2250.0999999999999</ele>
        <time>2017-03-11T11:02:28Z</time>
      </trkpt>
      <trkpt lat="46.640435680747032" lon="12.322109369561076">
        <ele>2250.0999999999999</ele>
        <time>2017-03-11T11:02:57Z</time>
      </trkpt>
      <trkpt lat="46.64042579010129" lon="12.322105597704649">
        <ele>2250.0999999999999</ele>
        <time>2017-03-11T11:03:20Z</time>
      </trkpt>
      <trkpt lat="46.640429981052876" lon="12.322113728150725">
        <ele>2250.0999999999999</ele>
        <time>2017-03-11T11:03:50Z</time>
      </trkpt>
      <trkpt lat="46.640441631898284" lon="12.322117164731026">
        <ele>2249.6199999999999</ele>
        <time>2017-03-11T11:04:18Z</time>
      </trkpt>
      <trkpt lat="46.640446661040187" lon="12.322118505835533">
        <ele>2249.6199999999999</ele>
        <time>2017-03-11T11:04:39Z</time>
      </trkpt>
      <trkpt lat="46.640452863648534" lon="12.322106854990125">
        <ele>2249.6199999999999</ele>
        <time>2017-03-11T11:05:05Z</time>
      </trkpt>
      <trkpt lat="46.640449427068233" lon="12.322114650160074">
        <ele>2249.6199999999999</ele>
        <time>2017-03-11T11:05:28Z</time>
      </trkpt>
      <trkpt lat="46.640435764566064" lon="12.322111716493964">
        <ele>2249.6199999999999</ele>
        <time>2017-03-11T11:05:57Z</time>
      </trkpt>
      <trkpt lat="46.640429561957717" lon="12.322108866646886">
        <ele>2249.6199999999999</ele>
        <time>2017-03-11T11:06:26Z</time>
      </trkpt>
      <trkpt lat="46.640434004366398" lon="12.322113392874599">
        <ele>2249.6199999999999</ele>
        <time>2017-03-11T11:06:59Z</time>
      </trkpt>
      <trkpt lat="46.640416234731674" lon="12.322114733979106">
        <ele>2249.1399999999999</ele>
        <time>2017-03-11T11:07:26Z</time>
      </trkpt>
      <trkpt lat="46.640412714332342" lon="12.322103083133698">
        <ele>2249.6199999999999</ele>
        <time>2017-03-11T11:07:34Z</time>
      </trkpt>
      <trkpt lat="46.640447331592441" lon="12.322062263265252">
        <ele>2250.0999999999999</ele>
        <time>2017-03-11T11:07:42Z</time>
      </trkpt>
      <trkpt lat="46.640453198924661" lon="12.322015827521682">
        <ele>2249.6199999999999</ele>
        <time>2017-03-11T11:07:51Z</time>
      </trkpt>
      <trkpt lat="46.640449175611138" lon="12.322038542479277">
        <ele>2249.1399999999999</ele>
        <time>2017-03-11T11:08:21Z</time>
      </trkpt>
      <trkpt lat="46.640457725152373" lon="12.322024628520012">
        <ele>2249.1399999999999</ele>
        <time>2017-03-11T11:08:51Z</time>
      </trkpt>
      <trkpt lat="46.64047222584486" lon="12.322035357356071">
        <ele>2248.6599999999999</ele>
        <time>2017-03-11T11:09:13Z</time>
      </trkpt>
      <trkpt lat="46.640477003529668" lon="12.322040386497974">
        <ele>2249.1399999999999</ele>
        <time>2017-03-11T11:09:41Z</time>
      </trkpt>
      <trkpt lat="46.640433585271239" lon="12.322029154747725">
        <ele>2248.6599999999999</ele>
        <time>2017-03-11T11:10:11Z</time>
      </trkpt>
      <trkpt lat="46.640448337420821" lon="12.322018845006824">
        <ele>2248.6599999999999</ele>
        <time>2017-03-11T11:10:43Z</time>
      </trkpt>
      <trkpt lat="46.640447080135345" lon="12.322008199989796">
        <ele>2249.1399999999999</ele>
        <time>2017-03-11T11:11:13Z</time>
      </trkpt>
      <trkpt lat="46.640435680747032" lon="12.321987329050899">
        <ele>2249.6199999999999</ele>
        <time>2017-03-11T11:11:20Z</time>
      </trkpt>
      <trkpt lat="46.640420509502292" lon="12.321994956582785">
        <ele>2249.1399999999999</ele>
        <time>2017-03-11T11:11:29Z</time>
      </trkpt>
      <trkpt lat="46.640401482582092" lon="12.322019767016172">
        <ele>2248.6599999999999</ele>
        <time>2017-03-11T11:11:52Z</time>
      </trkpt>
      <trkpt lat="46.640407014638186" lon="12.322000321000814">
        <ele>2248.6599999999999</ele>
        <time>2017-03-11T11:12:13Z</time>
      </trkpt>
      <trkpt lat="46.640413217246532" lon="12.322004176676273">
        <ele>2248.6599999999999</ele>
        <time>2017-03-11T11:12:36Z</time>
      </trkpt>
      <trkpt lat="46.640400560572743" lon="12.322010127827525">
        <ele>2248.6599999999999</ele>
        <time>2017-03-11T11:13:02Z</time>
      </trkpt>
      <trkpt lat="46.640423526987433" lon="12.321978779509664">
        <ele>2248.6599999999999</ele>
        <time>2017-03-11T11:13:25Z</time>
      </trkpt>
      <trkpt lat="46.640442218631506" lon="12.321988167241216">
        <ele>2248.1799999999998</ele>
        <time>2017-03-11T11:13:44Z</time>
      </trkpt>
      <trkpt lat="46.640451522544026" lon="12.321999818086624">
        <ele>2248.6599999999999</ele>
        <time>2017-03-11T11:14:03Z</time>
      </trkpt>
      <trkpt lat="46.640426712110639" lon="12.322011468932033">
        <ele>2248.1799999999998</ele>
        <time>2017-03-11T11:14:21Z</time>
      </trkpt>
      <trkpt lat="46.640433166176081" lon="12.321994286030531">
        <ele>2248.1799999999998</ele>
        <time>2017-03-11T11:14:47Z</time>
      </trkpt>
      <trkpt lat="46.64041263051331" lon="12.322002667933702">
        <ele>2248.6599999999999</ele>
        <time>2017-03-11T11:15:15Z</time>
      </trkpt>
      <trkpt lat="46.640433249995112" lon="12.321991939097643">
        <ele>2248.6599999999999</ele>
        <time>2017-03-11T11:15:44Z</time>
      </trkpt>
      <trkpt lat="46.640419000759721" lon="12.321988837793469">
        <ele>2248.6599999999999</ele>
        <time>2017-03-11T11:16:12Z</time>
      </trkpt>
      <trkpt lat="46.640416486188769" lon="12.322008954361081">
        <ele>2249.1399999999999</ele>
        <time>2017-03-11T11:16:34Z</time>
      </trkpt>
      <trkpt lat="46.640419252216816" lon="12.321970900520682">
        <ele>2249.6199999999999</ele>
        <time>2017-03-11T11:16:40Z</time>
      </trkpt>
      <trkpt lat="46.640438949689269" lon="12.322014570236206">
        <ele>2250.0999999999999</ele>
        <time>2017-03-11T11:16:49Z</time>
      </trkpt>
      <trkpt lat="46.640453031286597" lon="12.322003254666924">
        <ele>2249.6199999999999</ele>
        <time>2017-03-11T11:16:59Z</time>
      </trkpt>
      <trkpt lat="46.640460910275578" lon="12.322013396769762">
        <ele>2250.0999999999999</ele>
        <time>2017-03-11T11:17:15Z</time>
      </trkpt>
      <trkpt lat="46.640483289957047" lon="12.322033513337374">
        <ele>2249.6199999999999</ele>
        <time>2017-03-11T11:17:23Z</time>
      </trkpt>
      <trkpt lat="46.640550512820482" lon="12.322051199153066">
        <ele>2251.0599999999999</ele>
        <time>2017-03-11T11:17:33Z</time>
      </trkpt>
      <trkpt lat="46.640607342123985" lon="12.322027310729027">
        <ele>2251.54</ele>
        <time>2017-03-11T11:17:42Z</time>
      </trkpt>
      <trkpt lat="46.640646485611796" lon="12.322016833350062">
        <ele>2252.9899999999998</ele>
        <time>2017-03-11T11:17:50Z</time>
      </trkpt>
      <trkpt lat="46.640698872506618" lon="12.321936367079616">
        <ele>2253.4699999999998</ele>
        <time>2017-03-11T11:17:59Z</time>
      </trkpt>
      <trkpt lat="46.640711193904281" lon="12.321836957708001">
        <ele>2254.4299999999998</ele>
        <time>2017-03-11T11:18:08Z</time>
      </trkpt>
      <trkpt lat="46.640725526958704" lon="12.321735788136721">
        <ele>2255.8699999999999</ele>
        <time>2017-03-11T11:18:19Z</time>
      </trkpt>
      <trkpt lat="46.640768190845847" lon="12.32163704931736">
        <ele>2257.3099999999999</ele>
        <time>2017-03-11T11:18:29Z</time>
      </trkpt>
      <trkpt lat="46.640790989622474" lon="12.321564294397831">
        <ele>2258.75</ele>
        <time>2017-03-11T11:18:38Z</time>
      </trkpt>
      <trkpt lat="46.640834240242839" lon="12.321451976895332">
        <ele>2260.1999999999998</ele>
        <time>2017-03-11T11:18:49Z</time>
      </trkpt>
      <trkpt lat="46.640845220535994" lon="12.321376204490662">
        <ele>2261.6399999999999</ele>
        <time>2017-03-11T11:18:59Z</time>
      </trkpt>
      <trkpt lat="46.640884783118963" lon="12.321289367973804">
        <ele>2263.5599999999999</ele>
        <time>2017-03-11T11:19:09Z</time>
      </trkpt>
      <trkpt lat="46.640929291024804" lon="12.321210578083992">
        <ele>2265.48</ele>
        <time>2017-03-11T11:19:21Z</time>
      </trkpt>
      <trkpt lat="46.640930296853185" lon="12.321170344948769">
        <ele>2265.96</ele>
        <time>2017-03-11T11:19:27Z</time>
      </trkpt>
      <trkpt lat="46.640957789495587" lon="12.321096416562796">
        <ele>2267.8899999999999</ele>
        <time>2017-03-11T11:19:38Z</time>
      </trkpt>
      <trkpt lat="46.640982264652848" lon="12.32104386202991">
        <ele>2269.8099999999999</ele>
        <time>2017-03-11T11:19:48Z</time>
      </trkpt>
      <trkpt lat="46.641015205532312" lon="12.32100572437048">
        <ele>2270.77</ele>
        <time>2017-03-11T11:19:57Z</time>
      </trkpt>
      <trkpt lat="46.641044961288571" lon="12.32095249928534">
        <ele>2272.6900000000001</ele>
        <time>2017-03-11T11:20:06Z</time>
      </trkpt>
      <trkpt lat="46.641078572720289" lon="12.320921570062637">
        <ele>2273.6599999999999</ele>
        <time>2017-03-11T11:20:17Z</time>
      </trkpt>
      <trkpt lat="46.641080165281892" lon="12.320876978337765">
        <ele>2275.0999999999999</ele>
        <time>2017-03-11T11:20:27Z</time>
      </trkpt>
      <trkpt lat="46.641096761450171" lon="12.320855353027582">
        <ele>2276.0599999999999</ele>
        <time>2017-03-11T11:20:36Z</time>
      </trkpt>
      <trkpt lat="46.641131546348333" lon="12.320849485695362">
        <ele>2277.98</ele>
        <time>2017-03-11T11:20:46Z</time>
      </trkpt>
      <trkpt lat="46.641144454479218" lon="12.320805815979838">
        <ele>2278.9400000000001</ele>
        <time>2017-03-11T11:20:55Z</time>
      </trkpt>
      <trkpt lat="46.641172952950001" lon="12.320738509297371">
        <ele>2280.8699999999999</ele>
        <time>2017-03-11T11:21:06Z</time>
      </trkpt>
      <trkpt lat="46.641202624887228" lon="12.320693749934435">
        <ele>2282.79</ele>
        <time>2017-03-11T11:21:16Z</time>
      </trkpt>
      <trkpt lat="46.641224585473537" lon="12.320644967257977">
        <ele>2284.23</ele>
        <time>2017-03-11T11:21:26Z</time>
      </trkpt>
      <trkpt lat="46.641247216612101" lon="12.320584449917078">
        <ele>2285.6700000000001</ele>
        <time>2017-03-11T11:21:36Z</time>
      </trkpt>
      <trkpt lat="46.641257610172033" lon="12.320520076900721">
        <ele>2287.1100000000001</ele>
        <time>2017-03-11T11:21:46Z</time>
      </trkpt>
      <trkpt lat="46.641272949054837" lon="12.320488644763827">
        <ele>2288.0799999999999</ele>
        <time>2017-03-11T11:21:55Z</time>
      </trkpt>
      <trkpt lat="46.641307314857841" lon="12.320457044988871">
        <ele>2288.5599999999999</ele>
        <time>2017-03-11T11:22:06Z</time>
      </trkpt>
      <trkpt lat="46.641302537173033" lon="12.320420918986201">
        <ele>2290</ele>
        <time>2017-03-11T11:22:17Z</time>
      </trkpt>
      <trkpt lat="46.641353080049157" lon="12.320368615910411">
        <ele>2291.4400000000001</ele>
        <time>2017-03-11T11:22:26Z</time>
      </trkpt>
      <trkpt lat="46.641374956816435" lon="12.320340787991881">
        <ele>2291.9200000000001</ele>
        <time>2017-03-11T11:22:30Z</time>
      </trkpt>
      <trkpt lat="46.641444275155663" lon="12.320255795493722">
        <ele>2291.9200000000001</ele>
        <time>2017-03-11T11:22:41Z</time>
      </trkpt>
      <trkpt lat="46.641443101689219" lon="12.32024934142828">
        <ele>2291.4400000000001</ele>
        <time>2017-03-11T11:22:52Z</time>
      </trkpt>
      <trkpt lat="46.641463218256831" lon="12.320215310901403">
        <ele>2291.4400000000001</ele>
        <time>2017-03-11T11:23:04Z</time>
      </trkpt>
      <trkpt lat="46.641501020640135" lon="12.320185890421271">
        <ele>2291.4400000000001</ele>
        <time>2017-03-11T11:23:09Z</time>
      </trkpt>
      <trkpt lat="46.641523148864508" lon="12.320166360586882">
        <ele>2291.4400000000001</ele>
        <time>2017-03-11T11:23:12Z</time>
      </trkpt>
      <trkpt lat="46.641568494960666" lon="12.32010274194181">
        <ele>2292.4000000000001</ele>
        <time>2017-03-11T11:23:21Z</time>
      </trkpt>
      <trkpt lat="46.641620630398393" lon="12.320015486329794">
        <ele>2292.4000000000001</ele>
        <time>2017-03-11T11:23:30Z</time>
      </trkpt>
      <trkpt lat="46.641630688682199" lon="12.319984724745154">
        <ele>2292.4000000000001</ele>
        <time>2017-03-11T11:23:33Z</time>
      </trkpt>
      <trkpt lat="46.641679387539625" lon="12.319873748347163">
        <ele>2292.8800000000001</ele>
        <time>2017-03-11T11:23:43Z</time>
      </trkpt>
      <trkpt lat="46.641711741685867" lon="12.31976805254817">
        <ele>2293.8400000000001</ele>
        <time>2017-03-11T11:23:52Z</time>
      </trkpt>
      <trkpt lat="46.641735630109906" lon="12.31966445222497">
        <ele>2294.3200000000002</ele>
        <time>2017-03-11T11:24:02Z</time>
      </trkpt>
      <trkpt lat="46.641778964549303" lon="12.319580633193254">
        <ele>2295.2800000000002</ele>
        <time>2017-03-11T11:24:11Z</time>
      </trkpt>
      <trkpt lat="46.641831938177347" lon="12.319531766697764">
        <ele>2295.77</ele>
        <time>2017-03-11T11:24:19Z</time>
      </trkpt>
      <trkpt lat="46.641848366707563" lon="12.319486923515797">
        <ele>2296.25</ele>
        <time>2017-03-11T11:24:23Z</time>
      </trkpt>
      <trkpt lat="46.641918858513236" lon="12.319415342062712">
        <ele>2297.21</ele>
        <time>2017-03-11T11:24:34Z</time>
      </trkpt>
      <trkpt lat="46.64194643497467" lon="12.319380221888423">
        <ele>2297.6900000000001</ele>
        <time>2017-03-11T11:24:39Z</time>
      </trkpt>
      <trkpt lat="46.641962192952633" lon="12.319365469738841">
        <ele>2298.1700000000001</ele>
        <time>2017-03-11T11:24:41Z</time>
      </trkpt>
      <trkpt lat="46.641995804384351" lon="12.319281566888094">
        <ele>2299.1300000000001</ele>
        <time>2017-03-11T11:24:51Z</time>
      </trkpt>
      <trkpt lat="46.642030337825418" lon="12.319153742864728">
        <ele>2300.0900000000001</ele>
        <time>2017-03-11T11:25:03Z</time>
      </trkpt>
      <trkpt lat="46.642052885144949" lon="12.319079730659723">
        <ele>2301.0500000000002</ele>
        <time>2017-03-11T11:25:13Z</time>
      </trkpt>
      <trkpt lat="46.642079958692193" lon="12.31904192827642">
        <ele>2302.4899999999998</ele>
        <time>2017-03-11T11:25:22Z</time>
      </trkpt>
      <trkpt lat="46.642109295353293" lon="12.318965150043368">
        <ele>2303.9400000000001</ele>
        <time>2017-03-11T11:25:32Z</time>
      </trkpt>
      <trkpt lat="46.642135782167315" lon="12.318887282162905">
        <ele>2305.3800000000001</ele>
        <time>2017-03-11T11:25:43Z</time>
      </trkpt>
      <trkpt lat="46.642137207090855" lon="12.318881582468748">
        <ele>2305.3800000000001</ele>
        <time>2017-03-11T11:25:44Z</time>
      </trkpt>
      <trkpt lat="46.642157910391688" lon="12.318806983530521">
        <ele>2306.3400000000001</ele>
        <time>2017-03-11T11:25:51Z</time>
      </trkpt>
      <trkpt lat="46.642153048887849" lon="12.31874386779964">
        <ele>2307.7800000000002</ele>
        <time>2017-03-11T11:26:01Z</time>
      </trkpt>
      <trkpt lat="46.642147349193692" lon="12.318685781210661">
        <ele>2308.7399999999998</ele>
        <time>2017-03-11T11:26:11Z</time>
      </trkpt>
      <trkpt lat="46.642145672813058" lon="12.318609422072768">
        <ele>2310.1900000000001</ele>
        <time>2017-03-11T11:26:21Z</time>
      </trkpt>
      <trkpt lat="46.642153216525912" lon="12.318523339927197">
        <ele>2311.6300000000001</ele>
        <time>2017-03-11T11:26:32Z</time>
      </trkpt>
      <trkpt lat="46.642160508781672" lon="12.318440694361925">
        <ele>2313.0700000000002</ele>
        <time>2017-03-11T11:26:44Z</time>
      </trkpt>
      <trkpt lat="46.642176099121571" lon="12.318358719348907">
        <ele>2314.5100000000002</ele>
        <time>2017-03-11T11:26:53Z</time>
      </trkpt>
      <trkpt lat="46.642153887078166" lon="12.318325527012348">
        <ele>2315.4699999999998</ele>
        <time>2017-03-11T11:27:02Z</time>
      </trkpt>
      <trkpt lat="46.642158161848783" lon="12.318299040198326">
        <ele>2315.9499999999998</ele>
        <time>2017-03-11T11:27:14Z</time>
      </trkpt>
      <trkpt lat="46.642213398590684" lon="12.318257801234722">
        <ele>2316.9099999999999</ele>
        <time>2017-03-11T11:27:24Z</time>
      </trkpt>
      <trkpt lat="46.642237119376659" lon="12.318166438490152">
        <ele>2318.3600000000001</ele>
        <time>2017-03-11T11:27:33Z</time>
      </trkpt>
      <trkpt lat="46.642262013629079" lon="12.318108016625047">
        <ele>2319.3200000000002</ele>
        <time>2017-03-11T11:27:43Z</time>
      </trkpt>
      <trkpt lat="46.642272491008043" lon="12.318020677193999">
        <ele>2320.7600000000002</ele>
        <time>2017-03-11T11:27:54Z</time>
      </trkpt>
      <trkpt lat="46.64228992536664" lon="12.317978348582983">
        <ele>2321.2399999999998</ele>
        <time>2017-03-11T11:27:58Z</time>
      </trkpt>
      <trkpt lat="46.6423299908638" lon="12.317902240902185">
        <ele>2322.1999999999998</ele>
        <time>2017-03-11T11:28:07Z</time>
      </trkpt>
      <trkpt lat="46.642341809347272" lon="12.317811381071806">
        <ele>2322.6799999999998</ele>
        <time>2017-03-11T11:28:17Z</time>
      </trkpt>
      <trkpt lat="46.642344323918223" lon="12.31777299195528">
        <ele>2322.6799999999998</ele>
        <time>2017-03-11T11:28:20Z</time>
      </trkpt>
      <trkpt lat="46.642349604517221" lon="12.317695207893848">
        <ele>2323.1599999999999</ele>
        <time>2017-03-11T11:28:30Z</time>
      </trkpt>
      <trkpt lat="46.642315406352282" lon="12.31764885596931">
        <ele>2324.6100000000001</ele>
        <time>2017-03-11T11:28:40Z</time>
      </trkpt>
      <trkpt lat="46.64228699170053" lon="12.317574759945273">
        <ele>2326.0500000000002</ele>
        <time>2017-03-11T11:28:54Z</time>
      </trkpt>
      <trkpt lat="46.642287997528911" lon="12.317522959783673">
        <ele>2327.0100000000002</ele>
        <time>2017-03-11T11:29:04Z</time>
      </trkpt>
      <trkpt lat="46.642287410795689" lon="12.317492365837097">
        <ele>2327.9699999999998</ele>
        <time>2017-03-11T11:29:11Z</time>
      </trkpt>
      <trkpt lat="46.642231922596693" lon="12.317518768832088">
        <ele>2328.4499999999998</ele>
        <time>2017-03-11T11:29:21Z</time>
      </trkpt>
      <trkpt lat="46.642231419682503" lon="12.31749446131289">
        <ele>2328.4499999999998</ele>
        <time>2017-03-11T11:29:38Z</time>
      </trkpt>
      <trkpt lat="46.642240472137928" lon="12.317489013075829">
        <ele>2328.4499999999998</ele>
        <time>2017-03-11T11:29:53Z</time>
      </trkpt>
      <trkpt lat="46.642233682796359" lon="12.31746076606214">
        <ele>2328.4499999999998</ele>
        <time>2017-03-11T11:29:55Z</time>
      </trkpt>
      <trkpt lat="46.642217505723238" lon="12.317374600097537">
        <ele>2329.4099999999999</ele>
        <time>2017-03-11T11:30:02Z</time>
      </trkpt>
      <trkpt lat="46.6421555634588" lon="12.317239651456475">
        <ele>2327.4899999999998</ele>
        <time>2017-03-11T11:30:14Z</time>
      </trkpt>
      <trkpt lat="46.642160676419735" lon="12.317230263724923">
        <ele>2327.0100000000002</ele>
        <time>2017-03-11T11:30:23Z</time>
      </trkpt>
      <trkpt lat="46.642163693904877" lon="12.317206962034106">
        <ele>2327.0100000000002</ele>
        <time>2017-03-11T11:30:31Z</time>
      </trkpt>
      <trkpt lat="46.642171908169985" lon="12.317147366702557">
        <ele>2326.5300000000002</ele>
        <time>2017-03-11T11:30:41Z</time>
      </trkpt>
      <trkpt lat="46.642165035009384" lon="12.317105541005731">
        <ele>2326.5300000000002</ele>
        <time>2017-03-11T11:30:52Z</time>
      </trkpt>
      <trkpt lat="46.642166459932923" lon="12.317109564319253">
        <ele>2326.5300000000002</ele>
        <time>2017-03-11T11:30:57Z</time>
      </trkpt>
      <trkpt lat="46.642155814915895" lon="12.317066816613078">
        <ele>2327.0100000000002</ele>
        <time>2017-03-11T11:31:01Z</time>
      </trkpt>
      <trkpt lat="46.642151204869151" lon="12.316977046430111">
        <ele>2327.0100000000002</ele>
        <time>2017-03-11T11:31:07Z</time>
      </trkpt>
      <trkpt lat="46.642092699185014" lon="12.316844193264842">
        <ele>2327.0100000000002</ele>
        <time>2017-03-11T11:31:18Z</time>
      </trkpt>
      <trkpt lat="46.642058836296201" lon="12.316718716174364">
        <ele>2327.0100000000002</ele>
        <time>2017-03-11T11:31:28Z</time>
      </trkpt>
      <trkpt lat="46.642027236521244" lon="12.316624168306589">
        <ele>2328.4499999999998</ele>
        <time>2017-03-11T11:31:38Z</time>
      </trkpt>
      <trkpt lat="46.642012987285852" lon="12.316509671509266">
        <ele>2329.8899999999999</ele>
        <time>2017-03-11T11:31:48Z</time>
      </trkpt>
      <trkpt lat="46.641999408602715" lon="12.316393414512277">
        <ele>2330.8499999999999</ele>
        <time>2017-03-11T11:31:59Z</time>
      </trkpt>
      <trkpt lat="46.641982225701213" lon="12.316283360123634">
        <ele>2331.8099999999999</ele>
        <time>2017-03-11T11:32:10Z</time>
      </trkpt>
      <trkpt lat="46.641956325620413" lon="12.316193925216794">
        <ele>2333.2600000000002</ele>
        <time>2017-03-11T11:32:21Z</time>
      </trkpt>
      <trkpt lat="46.641936879605055" lon="12.316096778959036">
        <ele>2334.6999999999998</ele>
        <time>2017-03-11T11:32:31Z</time>
      </trkpt>
      <trkpt lat="46.641932101920247" lon="12.316100131720304">
        <ele>2334.6999999999998</ele>
        <time>2017-03-11T11:32:44Z</time>
      </trkpt>
      <trkpt lat="46.641924558207393" lon="12.315995777025819">
        <ele>2336.1399999999999</ele>
        <time>2017-03-11T11:32:55Z</time>
      </trkpt>
      <trkpt lat="46.641912069171667" lon="12.315931404009461">
        <ele>2338.0599999999999</ele>
        <time>2017-03-11T11:33:05Z</time>
      </trkpt>
      <trkpt lat="46.641904441639781" lon="12.315836688503623">
        <ele>2339.5100000000002</ele>
        <time>2017-03-11T11:33:16Z</time>
      </trkpt>
      <trkpt lat="46.641888683661819" lon="12.315761838108301">
        <ele>2340.4699999999998</ele>
        <time>2017-03-11T11:33:25Z</time>
      </trkpt>
      <trkpt lat="46.641878122463822" lon="12.315689083188772">
        <ele>2341.9099999999999</ele>
        <time>2017-03-11T11:33:35Z</time>
      </trkpt>
      <trkpt lat="46.641871919855475" lon="12.315591350197792">
        <ele>2343.3499999999999</ele>
        <time>2017-03-11T11:33:44Z</time>
      </trkpt>
      <trkpt lat="46.641888683661819" lon="12.315498646348715">
        <ele>2343.8299999999999</ele>
        <time>2017-03-11T11:33:54Z</time>
      </trkpt>
      <trkpt lat="46.641860939562321" lon="12.315444750711322">
        <ele>2345.27</ele>
        <time>2017-03-11T11:34:04Z</time>
      </trkpt>
      <trkpt lat="46.641837134957314" lon="12.315395381301641">
        <ele>2346.7199999999998</ele>
        <time>2017-03-11T11:34:13Z</time>
      </trkpt>
      <trkpt lat="46.641784915700555" lon="12.315324386581779">
        <ele>2347.6799999999998</ele>
        <time>2017-03-11T11:34:23Z</time>
      </trkpt>
      <trkpt lat="46.641747029498219" lon="12.315207542851567">
        <ele>2348.6399999999999</ele>
        <time>2017-03-11T11:34:36Z</time>
      </trkpt>
      <trkpt lat="46.641736971214414" lon="12.315256996080279">
        <ele>2348.6399999999999</ele>
        <time>2017-03-11T11:34:48Z</time>
      </trkpt>
      <trkpt lat="46.641704030334949" lon="12.315260851755738">
        <ele>2348.6399999999999</ele>
        <time>2017-03-11T11:34:52Z</time>
      </trkpt>
      <trkpt lat="46.64160680025816" lon="12.315191449597478">
        <ele>2348.1599999999999</ele>
        <time>2017-03-11T11:35:04Z</time>
      </trkpt>
      <trkpt lat="46.641537398099899" lon="12.315087933093309">
        <ele>2347.6799999999998</ele>
        <time>2017-03-11T11:35:16Z</time>
      </trkpt>
      <trkpt lat="46.641491465270519" lon="12.315043173730373">
        <ele>2347.6799999999998</ele>
        <time>2017-03-11T11:35:22Z</time>
      </trkpt>
      <trkpt lat="46.641424745321274" lon="12.314939321950078">
        <ele>2347.6799999999998</ele>
        <time>2017-03-11T11:35:32Z</time>
      </trkpt>
      <trkpt lat="46.641396498307586" lon="12.314888359978795">
        <ele>2347.1999999999998</ele>
        <time>2017-03-11T11:35:42Z</time>
      </trkpt>
      <trkpt lat="46.641385266557336" lon="12.314883582293987">
        <ele>2347.1999999999998</ele>
        <time>2017-03-11T11:36:03Z</time>
      </trkpt>
      <trkpt lat="46.641419716179371" lon="12.314927838742733">
        <ele>2347.1999999999998</ele>
        <time>2017-03-11T11:36:21Z</time>
      </trkpt>
      <trkpt lat="46.641398929059505" lon="12.314924402162433">
        <ele>2347.1999999999998</ele>
        <time>2017-03-11T11:36:33Z</time>
      </trkpt>
      <trkpt lat="46.641400437802076" lon="12.314906883984804">
        <ele>2347.1999999999998</ele>
        <time>2017-03-11T11:36:38Z</time>
      </trkpt>
      <trkpt lat="46.641386523842812" lon="12.314859693869948">
        <ele>2347.1999999999998</ele>
        <time>2017-03-11T11:36:45Z</time>
      </trkpt>
      <trkpt lat="46.641323240473866" lon="12.314744777977467">
        <ele>2347.1999999999998</ele>
        <time>2017-03-11T11:36:56Z</time>
      </trkpt>
      <trkpt lat="46.641309158876538" lon="12.314709657803178">
        <ele>2346.7199999999998</ele>
        <time>2017-03-11T11:36:59Z</time>
      </trkpt>
      <trkpt lat="46.641255766153336" lon="12.314591892063618">
        <ele>2347.1999999999998</ele>
        <time>2017-03-11T11:37:10Z</time>
      </trkpt>
      <trkpt lat="46.641227519139647" lon="12.314527602866292">
        <ele>2347.6799999999998</ele>
        <time>2017-03-11T11:37:17Z</time>
      </trkpt>
      <trkpt lat="46.641183765605092" lon="12.314427858218551">
        <ele>2348.1599999999999</ele>
        <time>2017-03-11T11:37:27Z</time>
      </trkpt>
      <trkpt lat="46.641141185536981" lon="12.314344877377152">
        <ele>2348.1599999999999</ele>
        <time>2017-03-11T11:37:36Z</time>
      </trkpt>
      <trkpt lat="46.641101622954011" lon="12.314267177134752">
        <ele>2349.1199999999999</ele>
        <time>2017-03-11T11:37:46Z</time>
      </trkpt>
      <trkpt lat="46.641066921874881" lon="12.314198361709714">
        <ele>2350.0799999999999</ele>
        <time>2017-03-11T11:37:56Z</time>
      </trkpt>
      <trkpt lat="46.641023084521294" lon="12.314126025885344">
        <ele>2351.52</ele>
        <time>2017-03-11T11:38:07Z</time>
      </trkpt>
      <trkpt lat="46.640985533595085" lon="12.314057713374496">
        <ele>2352.48</ele>
        <time>2017-03-11T11:38:17Z</time>
      </trkpt>
      <trkpt lat="46.640997687354684" lon="12.314009433612227">
        <ele>2352.48</ele>
        <time>2017-03-11T11:38:26Z</time>
      </trkpt>
      <trkpt lat="46.640993328765035" lon="12.314022174105048">
        <ele>2352.96</ele>
        <time>2017-03-11T11:38:37Z</time>
      </trkpt>
      <trkpt lat="46.640933817252517" lon="12.313920753076673">
        <ele>2353.4400000000001</ele>
        <time>2017-03-11T11:38:47Z</time>
      </trkpt>
      <trkpt lat="46.640882771462202" lon="12.313840119168162">
        <ele>2354.8899999999999</ele>
        <time>2017-03-11T11:38:57Z</time>
      </trkpt>
      <trkpt lat="46.640835916623473" lon="12.313768705353141">
        <ele>2355.8499999999999</ele>
        <time>2017-03-11T11:39:08Z</time>
      </trkpt>
      <trkpt lat="46.640813536942005" lon="12.313716905191541">
        <ele>2356.8099999999999</ele>
        <time>2017-03-11T11:39:20Z</time>
      </trkpt>
      <trkpt lat="46.640779254958034" lon="12.313637780025601">
        <ele>2357.77</ele>
        <time>2017-03-11T11:39:29Z</time>
      </trkpt>
      <trkpt lat="46.640745392069221" lon="12.313558738678694">
        <ele>2358.73</ele>
        <time>2017-03-11T11:39:40Z</time>
      </trkpt>
      <trkpt lat="46.640703566372395" lon="12.313481708988547">
        <ele>2359.6900000000001</ele>
        <time>2017-03-11T11:39:50Z</time>
      </trkpt>
      <trkpt lat="46.640667859464884" lon="12.313442146405578">
        <ele>2360.1700000000001</ele>
        <time>2017-03-11T11:39:58Z</time>
      </trkpt>
      <trkpt lat="46.640621842816472" lon="12.313407780602574">
        <ele>2360.6500000000001</ele>
        <time>2017-03-11T11:40:07Z</time>
      </trkpt>
      <trkpt lat="46.64061245508492" lon="12.313379785045981">
        <ele>2360.6500000000001</ele>
        <time>2017-03-11T11:40:10Z</time>
      </trkpt>
      <trkpt lat="46.640588734298944" lon="12.313337624073029">
        <ele>2361.1399999999999</ele>
        <time>2017-03-11T11:40:15Z</time>
      </trkpt>
      <trkpt lat="46.640520002692938" lon="12.313225390389562">
        <ele>2362.0999999999999</ele>
        <time>2017-03-11T11:40:26Z</time>
      </trkpt>
      <trkpt lat="46.640453534200788" lon="12.313133776187897">
        <ele>2363.0599999999999</ele>
        <time>2017-03-11T11:40:37Z</time>
      </trkpt>
      <trkpt lat="46.64039695635438" lon="12.313051298260689">
        <ele>2364.5</ele>
        <time>2017-03-11T11:40:48Z</time>
      </trkpt>
      <trkpt lat="46.640348006039858" lon="12.312982231378555">
        <ele>2366.4200000000001</ele>
        <time>2017-03-11T11:41:00Z</time>
      </trkpt>
      <trkpt lat="46.640311377122998" lon="12.312887432053685">
        <ele>2368.3499999999999</ele>
        <time>2017-03-11T11:41:12Z</time>
      </trkpt>
      <trkpt lat="46.640275251120329" lon="12.312851892784238">
        <ele>2369.79</ele>
        <time>2017-03-11T11:41:21Z</time>
      </trkpt>
      <trkpt lat="46.640241304412484" lon="12.312799002975225">
        <ele>2371.71</ele>
        <time>2017-03-11T11:41:32Z</time>
      </trkpt>
      <trkpt lat="46.640227222815156" lon="12.31275818310678">
        <ele>2372.1900000000001</ele>
        <time>2017-03-11T11:41:38Z</time>
      </trkpt>
      <trkpt lat="46.640196042135358" lon="12.312670256942511">
        <ele>2373.1500000000001</ele>
        <time>2017-03-11T11:41:48Z</time>
      </trkpt>
      <trkpt lat="46.640163185074925" lon="12.312591718509793">
        <ele>2374.1100000000001</ele>
        <time>2017-03-11T11:41:58Z</time>
      </trkpt>
      <trkpt lat="46.640111301094294" lon="12.312526674941182">
        <ele>2375.5500000000002</ele>
        <time>2017-03-11T11:42:09Z</time>
      </trkpt>
      <trkpt lat="46.640083305537701" lon="12.312448304146528">
        <ele>2376.52</ele>
        <time>2017-03-11T11:42:19Z</time>
      </trkpt>
      <trkpt lat="46.640039552003145" lon="12.312370939180255">
        <ele>2378.4400000000001</ele>
        <time>2017-03-11T11:42:30Z</time>
      </trkpt>
      <trkpt lat="46.639979034662247" lon="12.312270691618323">
        <ele>2379.8800000000001</ele>
        <time>2017-03-11T11:42:42Z</time>
      </trkpt>
      <trkpt lat="46.639938717707992" lon="12.312216628342867">
        <ele>2382.2800000000002</ele>
        <time>2017-03-11T11:42:54Z</time>
      </trkpt>
      <trkpt lat="46.639905357733369" lon="12.312181005254388">
        <ele>2381.8000000000002</ele>
        <time>2017-03-11T11:43:07Z</time>
      </trkpt>
      <trkpt lat="46.639847941696644" lon="12.312143789604306">
        <ele>2383.25</ele>
        <time>2017-03-11T11:43:17Z</time>
      </trkpt>
      <trkpt lat="46.639786921441555" lon="12.312092073261738">
        <ele>2384.6900000000001</ele>
        <time>2017-03-11T11:43:26Z</time>
      </trkpt>
      <trkpt lat="46.639719698578119" lon="12.312096767127514">
        <ele>2386.1300000000001</ele>
        <time>2017-03-11T11:43:38Z</time>
      </trkpt>
      <trkpt lat="46.639648536220193" lon="12.312063658609986">
        <ele>2387.5700000000002</ele>
        <time>2017-03-11T11:43:49Z</time>
      </trkpt>
      <trkpt lat="46.639634957537055" lon="12.312073968350887">
        <ele>2388.0500000000002</ele>
        <time>2017-03-11T11:43:59Z</time>
      </trkpt>
      <trkpt lat="46.639632526785135" lon="12.312015211209655">
        <ele>2388.5300000000002</ele>
        <time>2017-03-11T11:44:11Z</time>
      </trkpt>
      <trkpt lat="46.639580139890313" lon="12.311965422704816">
        <ele>2389.9699999999998</ele>
        <time>2017-03-11T11:44:20Z</time>
      </trkpt>
      <trkpt lat="46.639552731066942" lon="12.311958465725183">
        <ele>2389.9699999999998</ele>
        <time>2017-03-11T11:44:24Z</time>
      </trkpt>
      <trkpt lat="46.639473689720035" lon="12.311913454905152">
        <ele>2391.4200000000001</ele>
        <time>2017-03-11T11:44:35Z</time>
      </trkpt>
      <trkpt lat="46.639386266469955" lon="12.311856206506491">
        <ele>2392.3800000000001</ele>
        <time>2017-03-11T11:44:46Z</time>
      </trkpt>
      <trkpt lat="46.639351733028889" lon="12.311840197071433">
        <ele>2392.8600000000001</ele>
        <time>2017-03-11T11:44:50Z</time>
      </trkpt>
      <trkpt lat="46.639271099120378" lon="12.31179267168045">
        <ele>2393.8200000000002</ele>
        <time>2017-03-11T11:45:00Z</time>
      </trkpt>
      <trkpt lat="46.639255592599511" lon="12.311789905652404">
        <ele>2393.8200000000002</ele>
        <time>2017-03-11T11:45:02Z</time>
      </trkpt>
      <trkpt lat="46.639214688912034" lon="12.311755623668432">
        <ele>2394.3000000000002</ele>
        <time>2017-03-11T11:45:08Z</time>
      </trkpt>
      <trkpt lat="46.639131456613541" lon="12.311707260087132">
        <ele>2395.7399999999998</ele>
        <time>2017-03-11T11:45:19Z</time>
      </trkpt>
      <trkpt lat="46.639065742492676" lon="12.311674235388637">
        <ele>2396.2199999999998</ele>
        <time>2017-03-11T11:45:28Z</time>
      </trkpt>
      <trkpt lat="46.638992819935083" lon="12.311639618128538">
        <ele>2398.1500000000001</ele>
        <time>2017-03-11T11:45:39Z</time>
      </trkpt>
      <trkpt lat="46.638920567929745" lon="12.311600726097822">
        <ele>2399.1100000000001</ele>
        <time>2017-03-11T11:45:48Z</time>
      </trkpt>
      <trkpt lat="46.638854099437594" lon="12.311543142423034">
        <ele>2400.5500000000002</ele>
        <time>2017-03-11T11:45:59Z</time>
      </trkpt>
      <trkpt lat="46.638794839382172" lon="12.311505507677794">
        <ele>2401.5100000000002</ele>
        <time>2017-03-11T11:46:09Z</time>
      </trkpt>
      <trkpt lat="46.638744799420238" lon="12.31147893704474">
        <ele>2401.9899999999998</ele>
        <time>2017-03-11T11:46:20Z</time>
      </trkpt>
      <trkpt lat="46.63872049190104" lon="12.31148723512888">
        <ele>2402.4699999999998</ele>
        <time>2017-03-11T11:46:27Z</time>
      </trkpt>
      <trkpt lat="46.638693250715733" lon="12.311441553756595">
        <ele>2402.9499999999998</ele>
        <time>2017-03-11T11:46:40Z</time>
      </trkpt>
      <trkpt lat="46.638625524938107" lon="12.311429986730218">
        <ele>2404.8800000000001</ele>
        <time>2017-03-11T11:46:51Z</time>
      </trkpt>
      <trkpt lat="46.638594763353467" lon="12.311404254287481">
        <ele>2405.8400000000001</ele>
        <time>2017-03-11T11:47:00Z</time>
      </trkpt>
      <trkpt lat="46.638558972626925" lon="12.311414731666446">
        <ele>2406.3200000000002</ele>
        <time>2017-03-11T11:47:13Z</time>
      </trkpt>
      <trkpt lat="46.638495773077011" lon="12.311395704746246">
        <ele>2407.7600000000002</ele>
        <time>2017-03-11T11:47:23Z</time>
      </trkpt>
      <trkpt lat="46.638424191623926" lon="12.311369301751256">
        <ele>2409.1999999999998</ele>
        <time>2017-03-11T11:47:33Z</time>
      </trkpt>
      <trkpt lat="46.638370295986533" lon="12.311323871836066">
        <ele>2410.1599999999999</ele>
        <time>2017-03-11T11:47:42Z</time>
      </trkpt>
      <trkpt lat="46.638328470289707" lon="12.31128984130919">
        <ele>2411.5999999999999</ele>
        <time>2017-03-11T11:47:53Z</time>
      </trkpt>
      <trkpt lat="46.638294104486704" lon="12.31126494705677">
        <ele>2411.5999999999999</ele>
        <time>2017-03-11T11:48:02Z</time>
      </trkpt>
      <trkpt lat="46.638285638764501" lon="12.311252038925886">
        <ele>2412.0900000000001</ele>
        <time>2017-03-11T11:48:14Z</time>
      </trkpt>
      <trkpt lat="46.6382563021034" lon="12.311228737235069">
        <ele>2411.5999999999999</ele>
        <time>2017-03-11T11:48:25Z</time>
      </trkpt>
      <trkpt lat="46.638247082009912" lon="12.311210632324219">
        <ele>2412.5700000000002</ele>
        <time>2017-03-11T11:48:35Z</time>
      </trkpt>
      <trkpt lat="46.638237861916423" lon="12.31116184964776">
        <ele>2413.0500000000002</ele>
        <time>2017-03-11T11:48:47Z</time>
      </trkpt>
      <trkpt lat="46.638224869966507" lon="12.311153216287494">
        <ele>2414.4899999999998</ele>
        <time>2017-03-11T11:48:57Z</time>
      </trkpt>
      <trkpt lat="46.638220679014921" lon="12.311157491058111">
        <ele>2413.5300000000002</ele>
        <time>2017-03-11T11:49:07Z</time>
      </trkpt>
      <trkpt lat="46.638186480849981" lon="12.311129327863455">
        <ele>2413.5300000000002</ele>
        <time>2017-03-11T11:49:19Z</time>
      </trkpt>
      <trkpt lat="46.638181284070015" lon="12.311151120811701">
        <ele>2413.5300000000002</ele>
        <time>2017-03-11T11:49:29Z</time>
      </trkpt>
      <trkpt lat="46.638173488900065" lon="12.311163693666458">
        <ele>2413.5300000000002</ele>
        <time>2017-03-11T11:49:44Z</time>
      </trkpt>
      <trkpt lat="46.638174075633287" lon="12.311146007850766">
        <ele>2413.0500000000002</ele>
        <time>2017-03-11T11:49:54Z</time>
      </trkpt>
      <trkpt lat="46.638162424787879" lon="12.311084484681487">
        <ele>2413.5300000000002</ele>
        <time>2017-03-11T11:50:03Z</time>
      </trkpt>
      <trkpt lat="46.63815219886601" lon="12.311013741418719">
        <ele>2412.5700000000002</ele>
        <time>2017-03-11T11:50:15Z</time>
      </trkpt>
      <trkpt lat="46.638160580769181" lon="12.310999324545264">
        <ele>2413.0500000000002</ele>
        <time>2017-03-11T11:50:30Z</time>
      </trkpt>
      <trkpt lat="46.638152617961168" lon="12.310990523546934">
        <ele>2413.0500000000002</ele>
        <time>2017-03-11T11:50:38Z</time>
      </trkpt>
      <trkpt lat="46.638096962124109" lon="12.310912404209375">
        <ele>2412.5700000000002</ele>
        <time>2017-03-11T11:50:48Z</time>
      </trkpt>
      <trkpt lat="46.638039462268353" lon="12.310843840241432">
        <ele>2413.0500000000002</ele>
        <time>2017-03-11T11:50:58Z</time>
      </trkpt>
      <trkpt lat="46.637985650449991" lon="12.310792123898864">
        <ele>2413.0500000000002</ele>
        <time>2017-03-11T11:51:07Z</time>
      </trkpt>
      <trkpt lat="46.637917086482048" lon="12.310718614608049">
        <ele>2413.5300000000002</ele>
        <time>2017-03-11T11:51:17Z</time>
      </trkpt>
      <trkpt lat="46.637908788397908" lon="12.310719033703208">
        <ele>2414.0100000000002</ele>
        <time>2017-03-11T11:51:25Z</time>
      </trkpt>
      <trkpt lat="46.637901663780212" lon="12.310705287382007">
        <ele>2413.5300000000002</ele>
        <time>2017-03-11T11:51:41Z</time>
      </trkpt>
      <trkpt lat="46.637838967144489" lon="12.310635047033429">
        <ele>2413.5300000000002</ele>
        <time>2017-03-11T11:51:50Z</time>
      </trkpt>
      <trkpt lat="46.637782556936145" lon="12.310585007071495">
        <ele>2413.5300000000002</ele>
        <time>2017-03-11T11:51:58Z</time>
      </trkpt>
      <trkpt lat="46.637712651863694" lon="12.31048752553761">
        <ele>2414.0100000000002</ele>
        <time>2017-03-11T11:52:09Z</time>
      </trkpt>
      <trkpt lat="46.637700414285064" lon="12.310486268252134">
        <ele>2414.4899999999998</ele>
        <time>2017-03-11T11:52:11Z</time>
      </trkpt>
      <trkpt lat="46.637622211128473" lon="12.310443185269833">
        <ele>2414.9699999999998</ele>
        <time>2017-03-11T11:52:22Z</time>
      </trkpt>
      <trkpt lat="46.637534704059362" lon="12.310380404815078">
        <ele>2416.4099999999999</ele>
        <time>2017-03-11T11:52:36Z</time>
      </trkpt>
      <trkpt lat="46.637463457882404" lon="12.310359198600054">
        <ele>2417.3699999999999</ele>
        <time>2017-03-11T11:52:47Z</time>
      </trkpt>
      <trkpt lat="46.637423560023308" lon="12.310307649895549">
        <ele>2418.3299999999999</ele>
        <time>2017-03-11T11:52:57Z</time>
      </trkpt>
      <trkpt lat="46.637385757640004" lon="12.310231374576688">
        <ele>2419.3000000000002</ele>
        <time>2017-03-11T11:53:07Z</time>
      </trkpt>
      <trkpt lat="46.637377124279737" lon="12.310173120349646">
        <ele>2420.2600000000002</ele>
        <time>2017-03-11T11:53:19Z</time>
      </trkpt>
      <trkpt lat="46.637359354645014" lon="12.310162894427776">
        <ele>2420.7399999999998</ele>
        <time>2017-03-11T11:53:29Z</time>
      </trkpt>
      <trkpt lat="46.63730931468308" lon="12.310120314359665">
        <ele>2420.7399999999998</ele>
        <time>2017-03-11T11:53:40Z</time>
      </trkpt>
      <trkpt lat="46.637332364916801" lon="12.310080835595727">
        <ele>2421.2199999999998</ele>
        <time>2017-03-11T11:53:57Z</time>
      </trkpt>
      <trkpt lat="46.637322558090091" lon="12.310050576925278">
        <ele>2421.2199999999998</ele>
        <time>2017-03-11T11:54:04Z</time>
      </trkpt>
      <trkpt lat="46.637324402108788" lon="12.31003507040441">
        <ele>2421.6999999999998</ele>
        <time>2017-03-11T11:54:15Z</time>
      </trkpt>
      <trkpt lat="46.637311074882746" lon="12.310031969100237">
        <ele>2421.2199999999998</ele>
        <time>2017-03-11T11:54:24Z</time>
      </trkpt>
      <trkpt lat="46.637323815375566" lon="12.309995926916599">
        <ele>2421.2199999999998</ele>
        <time>2017-03-11T11:54:41Z</time>
      </trkpt>
      <trkpt lat="46.637340746819973" lon="12.310027442872524">
        <ele>2421.6999999999998</ele>
        <time>2017-03-11T11:54:51Z</time>
      </trkpt>
      <trkpt lat="46.637347703799605" lon="12.310053510591388">
        <ele>2421.2199999999998</ele>
        <time>2017-03-11T11:55:02Z</time>
      </trkpt>
      <trkpt lat="46.637336136773229" lon="12.310084439814091">
        <ele>2421.2199999999998</ele>
        <time>2017-03-11T11:55:13Z</time>
      </trkpt>
      <trkpt lat="46.637327587231994" lon="12.310112100094557">
        <ele>2420.7399999999998</ele>
        <time>2017-03-11T11:55:23Z</time>
      </trkpt>
      <trkpt lat="46.637325072661042" lon="12.310122409835458">
        <ele>2420.7399999999998</ele>
        <time>2017-03-11T11:55:33Z</time>
      </trkpt>
      <trkpt lat="46.637330856174231" lon="12.310094833374023">
        <ele>2420.7399999999998</ele>
        <time>2017-03-11T11:55:43Z</time>
      </trkpt>
      <trkpt lat="46.637347368523479" lon="12.310096845030785">
        <ele>2420.7399999999998</ele>
        <time>2017-03-11T11:55:53Z</time>
      </trkpt>
      <trkpt lat="46.637335298582911" lon="12.310127774253488">
        <ele>2420.2600000000002</ele>
        <time>2017-03-11T11:56:07Z</time>
      </trkpt>
      <trkpt lat="46.637325910851359" lon="12.310151914134622">
        <ele>2420.2600000000002</ele>
        <time>2017-03-11T11:56:19Z</time>
      </trkpt>
      <trkpt lat="46.637339573353529" lon="12.310165911912918">
        <ele>2420.2600000000002</ele>
        <time>2017-03-11T11:56:30Z</time>
      </trkpt>
      <trkpt lat="46.637310991063714" lon="12.310196338221431">
        <ele>2419.3000000000002</ele>
        <time>2017-03-11T11:56:34Z</time>
      </trkpt>
      <trkpt lat="46.637190207839012" lon="12.310256436467171">
        <ele>2416.8899999999999</ele>
        <time>2017-03-11T11:56:45Z</time>
      </trkpt>
      <trkpt lat="46.63717495277524" lon="12.310235565528274">
        <ele>2416.4099999999999</ele>
        <time>2017-03-11T11:56:55Z</time>
      </trkpt>
      <trkpt lat="46.637167241424322" lon="12.310246042907238">
        <ele>2415.9299999999998</ele>
        <time>2017-03-11T11:57:09Z</time>
      </trkpt>
      <trkpt lat="46.637109993025661" lon="12.310259118676186">
        <ele>2415.4499999999998</ele>
        <time>2017-03-11T11:57:15Z</time>
      </trkpt>
      <trkpt lat="46.6370337177068" lon="12.310287533327937">
        <ele>2414.0100000000002</ele>
        <time>2017-03-11T11:57:23Z</time>
      </trkpt>
      <trkpt lat="46.636917712166905" lon="12.310296166688204">
        <ele>2412.0900000000001</ele>
        <time>2017-03-11T11:57:34Z</time>
      </trkpt>
      <trkpt lat="46.63686758838594" lon="12.310351571068168">
        <ele>2413.0500000000002</ele>
        <time>2017-03-11T11:57:41Z</time>
      </trkpt>
      <trkpt lat="46.636840431019664" lon="12.310503451153636">
        <ele>2412.5700000000002</ele>
        <time>2017-03-11T11:57:53Z</time>
      </trkpt>
      <trkpt lat="46.636818051338196" lon="12.310571931302547">
        <ele>2412.0900000000001</ele>
        <time>2017-03-11T11:58:03Z</time>
      </trkpt>
      <trkpt lat="46.636805478483438" lon="12.310567572712898">
        <ele>2412.0900000000001</ele>
        <time>2017-03-11T11:58:13Z</time>
      </trkpt>
      <trkpt lat="46.636792905628681" lon="12.310590790584683">
        <ele>2411.1199999999999</ele>
        <time>2017-03-11T11:58:23Z</time>
      </trkpt>
      <trkpt lat="46.636792151257396" lon="12.310592215508223">
        <ele>2411.1199999999999</ele>
        <time>2017-03-11T11:58:32Z</time>
      </trkpt>
      <trkpt lat="46.636798018589616" lon="12.310566985979676">
        <ele>2411.1199999999999</ele>
        <time>2017-03-11T11:58:42Z</time>
      </trkpt>
      <trkpt lat="46.636802796274424" lon="12.310528848320246">
        <ele>2411.5999999999999</ele>
        <time>2017-03-11T11:58:45Z</time>
      </trkpt>
      <trkpt lat="46.636809669435024" lon="12.310501020401716">
        <ele>2411.5999999999999</ele>
        <time>2017-03-11T11:58:47Z</time>
      </trkpt>
      <trkpt lat="46.63684319704771" lon="12.310448801144958">
        <ele>2411.1199999999999</ele>
        <time>2017-03-11T11:58:56Z</time>
      </trkpt>
      <trkpt lat="46.636854177340865" lon="12.310443101450801">
        <ele>2411.5999999999999</ele>
        <time>2017-03-11T11:59:13Z</time>
      </trkpt>
      <trkpt lat="46.636840095743537" lon="12.31045818887651">
        <ele>2411.5999999999999</ele>
        <time>2017-03-11T11:59:15Z</time>
      </trkpt>
      <trkpt lat="46.636837078258395" lon="12.310518622398376">
        <ele>2411.5999999999999</ele>
        <time>2017-03-11T11:59:25Z</time>
      </trkpt>
      <trkpt lat="46.636856775730848" lon="12.310528513044119">
        <ele>2411.5999999999999</ele>
        <time>2017-03-11T11:59:48Z</time>
      </trkpt>
      <trkpt lat="46.636860128492117" lon="12.31053932569921">
        <ele>2411.1199999999999</ele>
        <time>2017-03-11T12:00:11Z</time>
      </trkpt>
      <trkpt lat="46.636874042451382" lon="12.310525998473167">
        <ele>2411.1199999999999</ele>
        <time>2017-03-11T12:00:39Z</time>
      </trkpt>
      <trkpt lat="46.636870605871081" lon="12.310525663197041">
        <ele>2411.1199999999999</ele>
        <time>2017-03-11T12:01:12Z</time>
      </trkpt>
      <trkpt lat="46.636856021359563" lon="12.310518454760313">
        <ele>2411.1199999999999</ele>
        <time>2017-03-11T12:01:44Z</time>
      </trkpt>
      <trkpt lat="46.636866666376591" lon="12.31053002178669">
        <ele>2405.3600000000001</ele>
        <time>2017-03-11T12:02:08Z</time>
      </trkpt>
      <trkpt lat="46.636868342757225" lon="12.310530440881848">
        <ele>2415.4499999999998</ele>
        <time>2017-03-11T12:02:09Z</time>
      </trkpt>
      <trkpt lat="46.63686809130013" lon="12.310529686510563">
        <ele>2407.2800000000002</ele>
        <time>2017-03-11T12:02:10Z</time>
      </trkpt>
      <trkpt lat="46.636866331100464" lon="12.310533206909895">
        <ele>2414.9699999999998</ele>
        <time>2017-03-11T12:02:12Z</time>
      </trkpt>
      <trkpt lat="46.636862810701132" lon="12.310531865805387">
        <ele>2408.2399999999998</ele>
        <time>2017-03-11T12:02:13Z</time>
      </trkpt>
      <trkpt lat="46.636862056329846" lon="12.310533793643117">
        <ele>2412.5700000000002</ele>
        <time>2017-03-11T12:02:14Z</time>
      </trkpt>
      <trkpt lat="46.6368627268821" lon="12.310537984594703">
        <ele>2408.2399999999998</ele>
        <time>2017-03-11T12:02:15Z</time>
      </trkpt>
      <trkpt lat="46.636866331100464" lon="12.310540163889527">
        <ele>2412.5700000000002</ele>
        <time>2017-03-11T12:02:16Z</time>
      </trkpt>
      <trkpt lat="46.636870019137859" lon="12.310540582984686">
        <ele>2408.2399999999998</ele>
        <time>2017-03-11T12:02:19Z</time>
      </trkpt>
      <trkpt lat="46.636869516223669" lon="12.31053831987083">
        <ele>2410.1599999999999</ele>
        <time>2017-03-11T12:02:20Z</time>
      </trkpt>
      <trkpt lat="46.636893153190613" lon="12.310544019564986">
        <ele>2410.6399999999999</ele>
        <time>2017-03-11T12:02:48Z</time>
      </trkpt>
      <trkpt lat="46.636881921440363" lon="12.310538152232766">
        <ele>2409.6799999999998</ele>
        <time>2017-03-11T12:03:15Z</time>
      </trkpt>
      <trkpt lat="46.636878568679094" lon="12.310541672632098">
        <ele>2421.2199999999998</ele>
        <time>2017-03-11T12:03:41Z</time>
      </trkpt>
      <trkpt lat="46.63687739521265" lon="12.310544103384018">
        <ele>2411.1199999999999</ele>
        <time>2017-03-11T12:03:42Z</time>
      </trkpt>
      <trkpt lat="46.636870941147208" lon="12.310545025393367">
        <ele>2410.6399999999999</ele>
        <time>2017-03-11T12:03:44Z</time>
      </trkpt>
      <trkpt lat="46.636894913390279" lon="12.310549970716238">
        <ele>2410.1599999999999</ele>
        <time>2017-03-11T12:04:08Z</time>
      </trkpt>
      <trkpt lat="46.636893237009645" lon="12.310545528307557">
        <ele>2410.1599999999999</ele>
        <time>2017-03-11T12:04:24Z</time>
      </trkpt>
      <trkpt lat="46.636891979724169" lon="12.310543181374669">
        <ele>2410.1599999999999</ele>
        <time>2017-03-11T12:04:52Z</time>
      </trkpt>
      <trkpt lat="46.636880915611982" lon="12.310560280457139">
        <ele>2409.6799999999998</ele>
        <time>2017-03-11T12:05:14Z</time>
      </trkpt>
      <trkpt lat="46.636873790994287" lon="12.310555754229426">
        <ele>2410.1599999999999</ele>
        <time>2017-03-11T12:05:41Z</time>
      </trkpt>
      <trkpt lat="46.636877479031682" lon="12.310555670410395">
        <ele>2409.6799999999998</ele>
        <time>2017-03-11T12:06:08Z</time>
      </trkpt>
      <trkpt lat="46.636878652498126" lon="12.310554916039109">
        <ele>2413.5300000000002</ele>
        <time>2017-03-11T12:06:11Z</time>
      </trkpt>
      <trkpt lat="46.636879742145538" lon="12.310555754229426">
        <ele>2409.1999999999998</ele>
        <time>2017-03-11T12:06:12Z</time>
      </trkpt>
      <trkpt lat="46.63687052205205" lon="12.310548210516572">
        <ele>2409.6799999999998</ele>
        <time>2017-03-11T12:06:39Z</time>
      </trkpt>
      <trkpt lat="46.636837916448712" lon="12.310522478073835">
        <ele>2409.1999999999998</ele>
        <time>2017-03-11T12:06:54Z</time>
      </trkpt>
      <trkpt lat="46.636836407706141" lon="12.310524238273501">
        <ele>2409.1999999999998</ele>
        <time>2017-03-11T12:07:17Z</time>
      </trkpt>
      <trkpt lat="46.636840850114822" lon="12.310514347627759">
        <ele>2409.1999999999998</ele>
        <time>2017-03-11T12:07:39Z</time>
      </trkpt>
      <trkpt lat="46.63683732971549" lon="12.310521304607391">
        <ele>2409.1999999999998</ele>
        <time>2017-03-11T12:08:11Z</time>
      </trkpt>
      <trkpt lat="46.636829115450382" lon="12.310524322092533">
        <ele>2409.6799999999998</ele>
        <time>2017-03-11T12:08:31Z</time>
      </trkpt>
      <trkpt lat="46.636837832629681" lon="12.310544606298208">
        <ele>2409.6799999999998</ele>
        <time>2017-03-11T12:08:58Z</time>
      </trkpt>
      <trkpt lat="46.636821990832686" lon="12.310536140576005">
        <ele>2409.1999999999998</ele>
        <time>2017-03-11T12:09:18Z</time>
      </trkpt>
      <trkpt lat="46.636832300573587" lon="12.310519544407725">
        <ele>2409.1999999999998</ele>
        <time>2017-03-11T12:09:40Z</time>
      </trkpt>
      <trkpt lat="46.636828780174255" lon="12.310514515265822">
        <ele>2409.6799999999998</ele>
        <time>2017-03-11T12:09:51Z</time>
      </trkpt>
      <trkpt lat="46.636828863993287" lon="12.310523819178343">
        <ele>2409.6799999999998</ele>
        <time>2017-03-11T12:10:06Z</time>
      </trkpt>
      <trkpt lat="46.63683976046741" lon="12.310517784208059">
        <ele>2409.1999999999998</ele>
        <time>2017-03-11T12:10:29Z</time>
      </trkpt>
      <trkpt lat="46.63684168830514" lon="12.310518538579345">
        <ele>2409.6799999999998</ele>
        <time>2017-03-11T12:10:59Z</time>
      </trkpt>
      <trkpt lat="46.636830037459731" lon="12.310522645711899">
        <ele>2409.6799999999998</ele>
        <time>2017-03-11T12:11:25Z</time>
      </trkpt>
      <trkpt lat="46.6368402633816" lon="12.310523064807057">
        <ele>2409.6799999999998</ele>
        <time>2017-03-11T12:11:50Z</time>
      </trkpt>
      <trkpt lat="46.636834144592285" lon="12.31051828712225">
        <ele>2409.6799999999998</ele>
        <time>2017-03-11T12:12:15Z</time>
      </trkpt>
      <trkpt lat="46.636841604486108" lon="12.310522813349962">
        <ele>2409.6799999999998</ele>
        <time>2017-03-11T12:12:41Z</time>
      </trkpt>
      <trkpt lat="46.636836910620332" lon="12.310514766722918">
        <ele>2409.6799999999998</ele>
        <time>2017-03-11T12:13:06Z</time>
      </trkpt>
      <trkpt lat="46.636830372735858" lon="12.310521639883518">
        <ele>2409.6799999999998</ele>
        <time>2017-03-11T12:13:27Z</time>
      </trkpt>
      <trkpt lat="46.636845292523503" lon="12.310522897168994">
        <ele>2409.6799999999998</ele>
        <time>2017-03-11T12:13:52Z</time>
      </trkpt>
      <trkpt lat="46.636834647506475" lon="12.310526166111231">
        <ele>2410.1599999999999</ele>
        <time>2017-03-11T12:14:13Z</time>
      </trkpt>
      <trkpt lat="46.636831210926175" lon="12.310527423396707">
        <ele>2410.1599999999999</ele>
        <time>2017-03-11T12:14:33Z</time>
      </trkpt>
      <trkpt lat="46.636844202876091" lon="12.31053245253861">
        <ele>2409.6799999999998</ele>
        <time>2017-03-11T12:14:53Z</time>
      </trkpt>
      <trkpt lat="46.636838000267744" lon="12.310508480295539">
        <ele>2410.1599999999999</ele>
        <time>2017-03-11T12:15:20Z</time>
      </trkpt>
      <trkpt lat="46.636836742982268" lon="12.31051635928452">
        <ele>2409.6799999999998</ele>
        <time>2017-03-11T12:15:45Z</time>
      </trkpt>
      <trkpt lat="46.636837916448712" lon="12.310533709824085">
        <ele>2409.6799999999998</ele>
        <time>2017-03-11T12:16:11Z</time>
      </trkpt>
      <trkpt lat="46.636840095743537" lon="12.310536224395037">
        <ele>2410.1599999999999</ele>
        <time>2017-03-11T12:16:37Z</time>
      </trkpt>
      <trkpt lat="46.636834060773253" lon="12.310537733137608">
        <ele>2409.6799999999998</ele>
        <time>2017-03-11T12:17:08Z</time>
      </trkpt>
      <trkpt lat="46.636807406321168" lon="12.310517197474837">
        <ele>2409.6799999999998</ele>
        <time>2017-03-11T12:17:39Z</time>
      </trkpt>
      <trkpt lat="46.636818973347545" lon="12.310527339577675">
        <ele>2409.6799999999998</ele>
        <time>2017-03-11T12:18:08Z</time>
      </trkpt>
      <trkpt lat="46.636824673041701" lon="12.310536475852132">
        <ele>2409.6799999999998</ele>
        <time>2017-03-11T12:18:36Z</time>
      </trkpt>
      <trkpt lat="46.636837078258395" lon="12.310539660975337">
        <ele>2409.1999999999998</ele>
        <time>2017-03-11T12:19:08Z</time>
      </trkpt>
      <trkpt lat="46.636829366907477" lon="12.310532536357641">
        <ele>2409.1999999999998</ele>
        <time>2017-03-11T12:19:35Z</time>
      </trkpt>
      <trkpt lat="46.636845543980598" lon="12.310536643490195">
        <ele>2409.1999999999998</ele>
        <time>2017-03-11T12:20:10Z</time>
      </trkpt>
      <trkpt lat="46.63683146238327" lon="12.31051979586482">
        <ele>2409.1999999999998</ele>
        <time>2017-03-11T12:20:42Z</time>
      </trkpt>
      <trkpt lat="46.636835737153888" lon="12.310520298779011">
        <ele>2409.1999999999998</ele>
        <time>2017-03-11T12:21:05Z</time>
      </trkpt>
      <trkpt lat="46.636820817366242" lon="12.310511162504554">
        <ele>2409.1999999999998</ele>
        <time>2017-03-11T12:21:37Z</time>
      </trkpt>
      <trkpt lat="46.636807909235358" lon="12.310487357899547">
        <ele>2409.1999999999998</ele>
        <time>2017-03-11T12:22:05Z</time>
      </trkpt>
      <trkpt lat="46.63681729696691" lon="12.310500601306558">
        <ele>2409.1999999999998</ele>
        <time>2017-03-11T12:22:30Z</time>
      </trkpt>
      <trkpt lat="46.636822912842035" lon="12.310520885512233">
        <ele>2409.1999999999998</ele>
        <time>2017-03-11T12:22:53Z</time>
      </trkpt>
      <trkpt lat="46.636836994439363" lon="12.310534883290529">
        <ele>2409.6799999999998</ele>
        <time>2017-03-11T12:23:26Z</time>
      </trkpt>
      <trkpt lat="46.636830540373921" lon="12.31053002178669">
        <ele>2409.6799999999998</ele>
        <time>2017-03-11T12:23:53Z</time>
      </trkpt>
      <trkpt lat="46.636839006096125" lon="12.310535218566656">
        <ele>2409.6799999999998</ele>
        <time>2017-03-11T12:24:16Z</time>
      </trkpt>
      <trkpt lat="46.636837581172585" lon="12.310538068413734">
        <ele>2409.6799999999998</ele>
        <time>2017-03-11T12:24:43Z</time>
      </trkpt>
      <trkpt lat="46.636857111006975" lon="12.310549803078175">
        <ele>2410.1599999999999</ele>
        <time>2017-03-11T12:25:09Z</time>
      </trkpt>
      <trkpt lat="46.636828277260065" lon="12.310539241880178">
        <ele>2409.6799999999998</ele>
        <time>2017-03-11T12:25:31Z</time>
      </trkpt>
      <trkpt lat="46.63681629113853" lon="12.310525579378009">
        <ele>2409.6799999999998</ele>
        <time>2017-03-11T12:26:01Z</time>
      </trkpt>
      <trkpt lat="46.63682023063302" lon="12.310529602691531">
        <ele>2409.6799999999998</ele>
        <time>2017-03-11T12:26:30Z</time>
      </trkpt>
      <trkpt lat="46.636831378564239" lon="12.310539744794369">
        <ele>2409.6799999999998</ele>
        <time>2017-03-11T12:26:53Z</time>
      </trkpt>
      <trkpt lat="46.636832132935524" lon="12.310522980988026">
        <ele>2409.1999999999998</ele>
        <time>2017-03-11T12:27:13Z</time>
      </trkpt>
      <trkpt lat="46.636838419362903" lon="12.310508564114571">
        <ele>2409.6799999999998</ele>
        <time>2017-03-11T12:27:30Z</time>
      </trkpt>
      <trkpt lat="46.636831378564239" lon="12.310522142797709">
        <ele>2409.6799999999998</ele>
        <time>2017-03-11T12:27:56Z</time>
      </trkpt>
      <trkpt lat="46.636817716062069" lon="12.310532787814736">
        <ele>2409.6799999999998</ele>
        <time>2017-03-11T12:28:17Z</time>
      </trkpt>
      <trkpt lat="46.636807909235358" lon="12.310509150847793">
        <ele>2410.1599999999999</ele>
        <time>2017-03-11T12:28:43Z</time>
      </trkpt>
      <trkpt lat="46.636802293360233" lon="12.310486016795039">
        <ele>2410.1599999999999</ele>
        <time>2017-03-11T12:29:08Z</time>
      </trkpt>
      <trkpt lat="46.636803885921836" lon="12.310535218566656">
        <ele>2410.6399999999999</ele>
        <time>2017-03-11T12:29:30Z</time>
      </trkpt>
      <trkpt lat="46.636807657778263" lon="12.310523819178343">
        <ele>2410.6399999999999</ele>
        <time>2017-03-11T12:29:48Z</time>
      </trkpt>
      <trkpt lat="46.636816123500466" lon="12.310537900775671">
        <ele>2410.1599999999999</ele>
        <time>2017-03-11T12:30:07Z</time>
      </trkpt>
      <trkpt lat="46.636822493746877" lon="12.310531698167324">
        <ele>2410.1599999999999</ele>
        <time>2017-03-11T12:30:33Z</time>
      </trkpt>
      <trkpt lat="46.636824170127511" lon="12.310529015958309">
        <ele>2410.1599999999999</ele>
        <time>2017-03-11T12:31:05Z</time>
      </trkpt>
      <trkpt lat="46.63680799305439" lon="12.310529937967658">
        <ele>2410.1599999999999</ele>
        <time>2017-03-11T12:31:27Z</time>
      </trkpt>
      <trkpt lat="46.636821320280433" lon="12.31054712086916">
        <ele>2410.6399999999999</ele>
        <time>2017-03-11T12:31:47Z</time>
      </trkpt>
      <trkpt lat="46.636835737153888" lon="12.310543013736606">
        <ele>2410.1599999999999</ele>
        <time>2017-03-11T12:32:13Z</time>
      </trkpt>
      <trkpt lat="46.636818470433354" lon="12.310543097555637">
        <ele>2410.1599999999999</ele>
        <time>2017-03-11T12:32:31Z</time>
      </trkpt>
      <trkpt lat="46.636827439069748" lon="12.3105363920331">
        <ele>2410.1599999999999</ele>
        <time>2017-03-11T12:32:50Z</time>
      </trkpt>
      <trkpt lat="46.636834479868412" lon="12.310534212738276">
        <ele>2410.1599999999999</ele>
        <time>2017-03-11T12:33:08Z</time>
      </trkpt>
      <trkpt lat="46.636840347200632" lon="12.310533626005054">
        <ele>2410.1599999999999</ele>
        <time>2017-03-11T12:33:31Z</time>
      </trkpt>
      <trkpt lat="46.636842777952552" lon="12.310536559671164">
        <ele>2410.1599999999999</ele>
        <time>2017-03-11T12:33:51Z</time>
      </trkpt>
      <trkpt lat="46.63683045655489" lon="12.310532536357641">
        <ele>2410.1599999999999</ele>
        <time>2017-03-11T12:34:12Z</time>
      </trkpt>
      <trkpt lat="46.636830540373921" lon="12.310539493337274">
        <ele>2410.1599999999999</ele>
        <time>2017-03-11T12:34:33Z</time>
      </trkpt>
      <trkpt lat="46.636827271431684" lon="12.310535302385688">
        <ele>2410.1599999999999</ele>
        <time>2017-03-11T12:34:53Z</time>
      </trkpt>
      <trkpt lat="46.63683439604938" lon="12.310524741187692">
        <ele>2410.1599999999999</ele>
        <time>2017-03-11T12:35:21Z</time>
      </trkpt>
      <trkpt lat="46.636852752417326" lon="12.310524573549628">
        <ele>2410.1599999999999</ele>
        <time>2017-03-11T12:35:47Z</time>
      </trkpt>
      <trkpt lat="46.636850656941533" lon="12.310526836663485">
        <ele>2410.6399999999999</ele>
        <time>2017-03-11T12:36:14Z</time>
      </trkpt>
      <trkpt lat="46.636844454333186" lon="12.310532620176673">
        <ele>2410.6399999999999</ele>
        <time>2017-03-11T12:36:35Z</time>
      </trkpt>
      <trkpt lat="46.636828109622002" lon="12.310534464195371">
        <ele>2410.6399999999999</ele>
        <time>2017-03-11T12:36:55Z</time>
      </trkpt>
      <trkpt lat="46.636819643899798" lon="12.310542678460479">
        <ele>2410.6399999999999</ele>
        <time>2017-03-11T12:37:16Z</time>
      </trkpt>
      <trkpt lat="46.6368109267205" lon="12.310531279072165">
        <ele>2410.6399999999999</ele>
        <time>2017-03-11T12:37:43Z</time>
      </trkpt>
      <trkpt lat="46.636787625029683" lon="12.310532284900546">
        <ele>2410.1599999999999</ele>
        <time>2017-03-11T12:38:08Z</time>
      </trkpt>
      <trkpt lat="46.636780919507146" lon="12.310542007908225">
        <ele>2410.6399999999999</ele>
        <time>2017-03-11T12:38:37Z</time>
      </trkpt>
      <trkpt lat="46.63681142963469" lon="12.31053345836699">
        <ele>2410.6399999999999</ele>
        <time>2017-03-11T12:39:02Z</time>
      </trkpt>
      <trkpt lat="46.636827355250716" lon="12.310531614348292">
        <ele>2411.1199999999999</ele>
        <time>2017-03-11T12:39:28Z</time>
      </trkpt>
      <trkpt lat="46.6368368268013" lon="12.310527758672833">
        <ele>2411.1199999999999</ele>
        <time>2017-03-11T12:40:01Z</time>
      </trkpt>
      <trkpt lat="46.636842107400298" lon="12.310530859977007">
        <ele>2411.1199999999999</ele>
        <time>2017-03-11T12:40:22Z</time>
      </trkpt>
      <trkpt lat="46.636834479868412" lon="12.310525914654136">
        <ele>2411.1199999999999</ele>
        <time>2017-03-11T12:40:48Z</time>
      </trkpt>
      <trkpt lat="46.636854344978929" lon="12.310527507215738">
        <ele>2411.1199999999999</ele>
        <time>2017-03-11T12:41:11Z</time>
      </trkpt>
      <trkpt lat="46.636868678033352" lon="12.310532620176673">
        <ele>2411.1199999999999</ele>
        <time>2017-03-11T12:41:44Z</time>
      </trkpt>
      <trkpt lat="46.636859541758895" lon="12.310531781986356">
        <ele>2411.1199999999999</ele>
        <time>2017-03-11T12:42:21Z</time>
      </trkpt>
      <trkpt lat="46.636843699961901" lon="12.310525998473167">
        <ele>2411.1199999999999</ele>
        <time>2017-03-11T12:42:58Z</time>
      </trkpt>
      <trkpt lat="46.636853590607643" lon="12.310521891340613">
        <ele>2411.1199999999999</ele>
        <time>2017-03-11T12:43:34Z</time>
      </trkpt>
      <trkpt lat="46.636851914227009" lon="12.310519209131598">
        <ele>2411.1199999999999</ele>
        <time>2017-03-11T12:44:08Z</time>
      </trkpt>
      <trkpt lat="46.636836072430015" lon="12.310515018180013">
        <ele>2411.1199999999999</ele>
        <time>2017-03-11T12:44:43Z</time>
      </trkpt>
      <trkpt lat="46.636815955862403" lon="12.310503199696541">
        <ele>2410.6399999999999</ele>
        <time>2017-03-11T12:45:16Z</time>
      </trkpt>
      <trkpt lat="46.636818638071418" lon="12.310499763116241">
        <ele>2410.6399999999999</ele>
        <time>2017-03-11T12:45:53Z</time>
      </trkpt>
      <trkpt lat="46.636805813759565" lon="12.310505881905556">
        <ele>2411.1199999999999</ele>
        <time>2017-03-11T12:46:25Z</time>
      </trkpt>
      <trkpt lat="46.636803047731519" lon="12.310508396476507">
        <ele>2411.1199999999999</ele>
        <time>2017-03-11T12:46:53Z</time>
      </trkpt>
      <trkpt lat="46.636807573959231" lon="12.310505965724587">
        <ele>2411.1199999999999</ele>
        <time>2017-03-11T12:47:24Z</time>
      </trkpt>
      <trkpt lat="46.636811178177595" lon="12.31050412170589">
        <ele>2410.6399999999999</ele>
        <time>2017-03-11T12:47:51Z</time>
      </trkpt>
      <trkpt lat="46.636813608929515" lon="12.310508647933602">
        <ele>2410.6399999999999</ele>
        <time>2017-03-11T12:48:31Z</time>
      </trkpt>
      <trkpt lat="46.636821907013655" lon="12.310515185818076">
        <ele>2410.6399999999999</ele>
        <time>2017-03-11T12:49:03Z</time>
      </trkpt>
      <trkpt lat="46.636817548424006" lon="12.310505714267492">
        <ele>2410.6399999999999</ele>
        <time>2017-03-11T12:49:31Z</time>
      </trkpt>
      <trkpt lat="46.636832049116492" lon="12.31051635928452">
        <ele>2410.1599999999999</ele>
        <time>2017-03-11T12:50:08Z</time>
      </trkpt>
      <trkpt lat="46.636822493746877" lon="12.310508647933602">
        <ele>2410.1599999999999</ele>
        <time>2017-03-11T12:50:42Z</time>
      </trkpt>
      <trkpt lat="46.636816542595625" lon="12.310510911047459">
        <ele>2410.1599999999999</ele>
        <time>2017-03-11T12:51:18Z</time>
      </trkpt>
      <trkpt lat="46.636814614757895" lon="12.310516275465488">
        <ele>2410.1599999999999</ele>
        <time>2017-03-11T12:51:51Z</time>
      </trkpt>
      <trkpt lat="46.636807322502136" lon="12.310502445325255">
        <ele>2411.1199999999999</ele>
        <time>2017-03-11T12:52:12Z</time>
      </trkpt>
      <trkpt lat="46.636807909235358" lon="12.310496242716908">
        <ele>2411.5999999999999</ele>
        <time>2017-03-11T12:52:23Z</time>
      </trkpt>
      <trkpt lat="46.636787541210651" lon="12.31051879003644">
        <ele>2411.1199999999999</ele>
        <time>2017-03-11T12:52:37Z</time>
      </trkpt>
      <trkpt lat="46.636765832081437" lon="12.310601603239775">
        <ele>2411.1199999999999</ele>
        <time>2017-03-11T12:52:47Z</time>
      </trkpt>
      <trkpt lat="46.636767508462071" lon="12.310563381761312">
        <ele>2411.1199999999999</ele>
        <time>2017-03-11T12:52:58Z</time>
      </trkpt>
      <trkpt lat="46.636777147650719" lon="12.310535050928593">
        <ele>2410.6399999999999</ele>
        <time>2017-03-11T12:53:11Z</time>
      </trkpt>
      <trkpt lat="46.636797012761235" lon="12.310565309599042">
        <ele>2411.1199999999999</ele>
        <time>2017-03-11T12:53:26Z</time>
      </trkpt>
      <trkpt lat="46.636804053559899" lon="12.310592718422413">
        <ele>2411.1199999999999</ele>
        <time>2017-03-11T12:53:42Z</time>
      </trkpt>
      <trkpt lat="46.636832719668746" lon="12.310577044263482">
        <ele>2411.1199999999999</ele>
        <time>2017-03-11T12:54:06Z</time>
      </trkpt>
      <trkpt lat="46.636841520667076" lon="12.310565141960979">
        <ele>2411.1199999999999</ele>
        <time>2017-03-11T12:54:30Z</time>
      </trkpt>
      <trkpt lat="46.636819057166576" lon="12.310543349012733">
        <ele>2411.1199999999999</ele>
        <time>2017-03-11T12:54:53Z</time>
      </trkpt>
      <trkpt lat="46.636797850951552" lon="12.3105588555336">
        <ele>2411.1199999999999</ele>
        <time>2017-03-11T12:55:10Z</time>
      </trkpt>
      <trkpt lat="46.636785110458732" lon="12.310540331527591">
        <ele>2411.1199999999999</ele>
        <time>2017-03-11T12:55:27Z</time>
      </trkpt>
      <trkpt lat="46.636801874265075" lon="12.3105398286134">
        <ele>2411.1199999999999</ele>
        <time>2017-03-11T12:55:47Z</time>
      </trkpt>
      <trkpt lat="46.636801538988948" lon="12.31053882278502">
        <ele>2411.1199999999999</ele>
        <time>2017-03-11T12:56:02Z</time>
      </trkpt>
      <trkpt lat="46.636788966134191" lon="12.310570674017072">
        <ele>2411.1199999999999</ele>
        <time>2017-03-11T12:56:20Z</time>
      </trkpt>
      <trkpt lat="46.63677572272718" lon="12.310666730627418">
        <ele>2411.5999999999999</ele>
        <time>2017-03-11T12:56:33Z</time>
      </trkpt>
      <trkpt lat="46.636807741597295" lon="12.310664802789688">
        <ele>2412.0900000000001</ele>
        <time>2017-03-11T12:56:37Z</time>
      </trkpt>
      <trkpt lat="46.636886950582266" lon="12.310724565759301">
        <ele>2413.0500000000002</ele>
        <time>2017-03-11T12:56:49Z</time>
      </trkpt>
      <trkpt lat="46.636921316385269" lon="12.310733953490853">
        <ele>2413.5300000000002</ele>
        <time>2017-03-11T12:56:57Z</time>
      </trkpt>
      <trkpt lat="46.636962303891778" lon="12.310704197734594">
        <ele>2413.5300000000002</ele>
        <time>2017-03-11T12:57:06Z</time>
      </trkpt>
      <trkpt lat="46.637013098224998" lon="12.310646781697869">
        <ele>2414.4899999999998</ele>
        <time>2017-03-11T12:57:15Z</time>
      </trkpt>
      <trkpt lat="46.63702592253685" lon="12.31063068844378">
        <ele>2414.9699999999998</ele>
        <time>2017-03-11T12:57:18Z</time>
      </trkpt>
      <trkpt lat="46.637085936963558" lon="12.310593975707889">
        <ele>2414.4899999999998</ele>
        <time>2017-03-11T12:57:27Z</time>
      </trkpt>
      <trkpt lat="46.637150309979916" lon="12.310604117810726">
        <ele>2414.4899999999998</ele>
        <time>2017-03-11T12:57:37Z</time>
      </trkpt>
      <trkpt lat="46.637162547558546" lon="12.310601938515902">
        <ele>2414.4899999999998</ele>
        <time>2017-03-11T12:57:49Z</time>
      </trkpt>
      <trkpt lat="46.637179898098111" lon="12.310590790584683">
        <ele>2414.4899999999998</ele>
        <time>2017-03-11T12:58:03Z</time>
      </trkpt>
      <trkpt lat="46.637264806777239" lon="12.310587856918573">
        <ele>2414.0100000000002</ele>
        <time>2017-03-11T12:58:12Z</time>
      </trkpt>
      <trkpt lat="46.637336891144514" lon="12.310563381761312">
        <ele>2413.0500000000002</ele>
        <time>2017-03-11T12:58:22Z</time>
      </trkpt>
      <trkpt lat="46.637325910851359" lon="12.310570674017072">
        <ele>2413.5300000000002</ele>
        <time>2017-03-11T12:58:33Z</time>
      </trkpt>
      <trkpt lat="46.637337142601609" lon="12.310562459751964">
        <ele>2413.5300000000002</ele>
        <time>2017-03-11T12:58:53Z</time>
      </trkpt>
      <trkpt lat="46.637322222813964" lon="12.310591964051127">
        <ele>2413.5300000000002</ele>
        <time>2017-03-11T12:59:07Z</time>
      </trkpt>
      <trkpt lat="46.637331107631326" lon="12.310595819726586">
        <ele>2413.5300000000002</ele>
        <time>2017-03-11T12:59:22Z</time>
      </trkpt>
      <trkpt lat="46.637337896972895" lon="12.310580229386687">
        <ele>2413.5300000000002</ele>
        <time>2017-03-11T12:59:38Z</time>
      </trkpt>
      <trkpt lat="46.637331694364548" lon="12.310597244650126">
        <ele>2413.5300000000002</ele>
        <time>2017-03-11T12:59:53Z</time>
      </trkpt>
      <trkpt lat="46.637344770133495" lon="12.310587856918573">
        <ele>2413.5300000000002</ele>
        <time>2017-03-11T13:00:07Z</time>
      </trkpt>
      <trkpt lat="46.637344351038337" lon="12.310585426166654">
        <ele>2413.5300000000002</ele>
        <time>2017-03-11T13:00:17Z</time>
      </trkpt>
      <trkpt lat="46.637339573353529" lon="12.310586683452129">
        <ele>2413.0500000000002</ele>
        <time>2017-03-11T13:00:33Z</time>
      </trkpt>
      <trkpt lat="46.637333370745182" lon="12.310588946565986">
        <ele>2413.5300000000002</ele>
        <time>2017-03-11T13:00:44Z</time>
      </trkpt>
      <trkpt lat="46.63734351284802" lon="12.310604117810726">
        <ele>2413.5300000000002</ele>
        <time>2017-03-11T13:01:00Z</time>
      </trkpt>
      <trkpt lat="46.637349715456367" lon="12.310602106153965">
        <ele>2414.0100000000002</ele>
        <time>2017-03-11T13:01:08Z</time>
      </trkpt>
      <trkpt lat="46.637367652729154" lon="12.310590455308557">
        <ele>2413.5300000000002</ele>
        <time>2017-03-11T13:01:29Z</time>
      </trkpt>
      <trkpt lat="46.637354074046016" lon="12.310617864131927">
        <ele>2413.5300000000002</ele>
        <time>2017-03-11T13:01:45Z</time>
      </trkpt>
      <trkpt lat="46.637363797053695" lon="12.310603447258472">
        <ele>2413.5300000000002</ele>
        <time>2017-03-11T13:02:01Z</time>
      </trkpt>
      <trkpt lat="46.637379052117467" lon="12.310544103384018">
        <ele>2413.0500000000002</ele>
        <time>2017-03-11T13:02:13Z</time>
      </trkpt>
      <trkpt lat="46.637396654114127" lon="12.310546869412065">
        <ele>2413.0500000000002</ele>
        <time>2017-03-11T13:02:21Z</time>
      </trkpt>
      <trkpt lat="46.637425236403942" lon="12.310545863583684">
        <ele>2413.0500000000002</ele>
        <time>2017-03-11T13:02:27Z</time>
      </trkpt>
      <trkpt lat="46.637455746531487" lon="12.310552233830094">
        <ele>2412.0900000000001</ele>
        <time>2017-03-11T13:02:38Z</time>
      </trkpt>
      <trkpt lat="46.637495309114456" lon="12.310529435053468">
        <ele>2412.0900000000001</ele>
        <time>2017-03-11T13:02:43Z</time>
      </trkpt>
      <trkpt lat="46.637563453987241" lon="12.310484675690532">
        <ele>2412.0900000000001</ele>
        <time>2017-03-11T13:02:53Z</time>
      </trkpt>
      <trkpt lat="46.637644758448005" lon="12.310441760346293">
        <ele>2411.5999999999999</ele>
        <time>2017-03-11T13:03:02Z</time>
      </trkpt>
      <trkpt lat="46.637751376256347" lon="12.310492806136608">
        <ele>2410.6399999999999</ele>
        <time>2017-03-11T13:03:12Z</time>
      </trkpt>
      <trkpt lat="46.63783167488873" lon="12.310580229386687">
        <ele>2411.1199999999999</ele>
        <time>2017-03-11T13:03:23Z</time>
      </trkpt>
      <trkpt lat="46.63792110979557" lon="12.310672011226416">
        <ele>2411.1199999999999</ele>
        <time>2017-03-11T13:03:34Z</time>
      </trkpt>
      <trkpt lat="46.638013981282711" lon="12.310761110857129">
        <ele>2410.1599999999999</ele>
        <time>2017-03-11T13:03:45Z</time>
      </trkpt>
      <trkpt lat="46.63809847086668" lon="12.310890192165971">
        <ele>2409.6799999999998</ele>
        <time>2017-03-11T13:03:56Z</time>
      </trkpt>
      <trkpt lat="46.638170806691051" lon="12.311015417799354">
        <ele>2409.6799999999998</ele>
        <time>2017-03-11T13:04:08Z</time>
      </trkpt>
      <trkpt lat="46.638175584375858" lon="12.311024637892842">
        <ele>2409.6799999999998</ele>
        <time>2017-03-11T13:04:09Z</time>
      </trkpt>
      <trkpt lat="46.638197125867009" lon="12.311105774715543">
        <ele>2410.1599999999999</ele>
        <time>2017-03-11T13:04:18Z</time>
      </trkpt>
      <trkpt lat="46.638271557167172" lon="12.311212308704853">
        <ele>2409.1999999999998</ele>
        <time>2017-03-11T13:04:30Z</time>
      </trkpt>
      <trkpt lat="46.638357136398554" lon="12.311261929571629">
        <ele>2407.7600000000002</ele>
        <time>2017-03-11T13:04:40Z</time>
      </trkpt>
      <trkpt lat="46.638427209109068" lon="12.311320602893829">
        <ele>2406.3200000000002</ele>
        <time>2017-03-11T13:04:48Z</time>
      </trkpt>
      <trkpt lat="46.638507256284356" lon="12.311361758038402">
        <ele>2404.8800000000001</ele>
        <time>2017-03-11T13:04:56Z</time>
      </trkpt>
      <trkpt lat="46.638617645949125" lon="12.311369134113193">
        <ele>2402.4699999999998</ele>
        <time>2017-03-11T13:05:06Z</time>
      </trkpt>
      <trkpt lat="46.638683779165149" lon="12.311397884041071">
        <ele>2401.0300000000002</ele>
        <time>2017-03-11T13:05:13Z</time>
      </trkpt>
      <trkpt lat="46.638762485235929" lon="12.31143107637763">
        <ele>2399.1100000000001</ele>
        <time>2017-03-11T13:05:23Z</time>
      </trkpt>
      <trkpt lat="46.63877522572875" lon="12.311443146318197">
        <ele>2399.1100000000001</ele>
        <time>2017-03-11T13:05:25Z</time>
      </trkpt>
      <trkpt lat="46.63888075388968" lon="12.31152193620801">
        <ele>2397.1799999999998</ele>
        <time>2017-03-11T13:05:38Z</time>
      </trkpt>
      <trkpt lat="46.638947725296021" lon="12.311571054160595">
        <ele>2396.2199999999998</ele>
        <time>2017-03-11T13:05:47Z</time>
      </trkpt>
      <trkpt lat="46.639049230143428" lon="12.311628218740225">
        <ele>2394.3000000000002</ele>
        <time>2017-03-11T13:05:59Z</time>
      </trkpt>
      <trkpt lat="46.639136066660285" lon="12.311674151569605">
        <ele>2392.8600000000001</ele>
        <time>2017-03-11T13:06:10Z</time>
      </trkpt>
      <trkpt lat="46.639218293130398" lon="12.311713295057416">
        <ele>2391.4200000000001</ele>
        <time>2017-03-11T13:06:20Z</time>
      </trkpt>
      <trkpt lat="46.639287946745753" lon="12.311775237321854">
        <ele>2390.9400000000001</ele>
        <time>2017-03-11T13:06:30Z</time>
      </trkpt>
      <trkpt lat="46.639349805191159" lon="12.31181857176125">
        <ele>2389.9699999999998</ele>
        <time>2017-03-11T13:06:39Z</time>
      </trkpt>
      <trkpt lat="46.639433205127716" lon="12.311877245083451">
        <ele>2389.4899999999998</ele>
        <time>2017-03-11T13:06:51Z</time>
      </trkpt>
      <trkpt lat="46.639457596465945" lon="12.311894595623016">
        <ele>2388.5300000000002</ele>
        <time>2017-03-11T13:06:55Z</time>
      </trkpt>
      <trkpt lat="46.639489531517029" lon="12.311906665563583">
        <ele>2388.5300000000002</ele>
        <time>2017-03-11T13:07:01Z</time>
      </trkpt>
      <trkpt lat="46.63950671441853" lon="12.311910521239042">
        <ele>2388.5300000000002</ele>
        <time>2017-03-11T13:07:03Z</time>
      </trkpt>
      <trkpt lat="46.639607800170779" lon="12.311977576464415">
        <ele>2386.6100000000001</ele>
        <time>2017-03-11T13:07:15Z</time>
      </trkpt>
      <trkpt lat="46.639647698029876" lon="12.312012948095798">
        <ele>2385.6500000000001</ele>
        <time>2017-03-11T13:07:23Z</time>
      </trkpt>
      <trkpt lat="46.639676699414849" lon="12.31203306466341">
        <ele>2384.6900000000001</ele>
        <time>2017-03-11T13:07:27Z</time>
      </trkpt>
      <trkpt lat="46.639726152643561" lon="12.312038512900472">
        <ele>2383.73</ele>
        <time>2017-03-11T13:07:34Z</time>
      </trkpt>
      <trkpt lat="46.639821035787463" lon="12.312072962522507">
        <ele>2381.8000000000002</ele>
        <time>2017-03-11T13:07:46Z</time>
      </trkpt>
      <trkpt lat="46.639889851212502" lon="12.312132390215993">
        <ele>2379.8800000000001</ele>
        <time>2017-03-11T13:07:56Z</time>
      </trkpt>
      <trkpt lat="46.639899574220181" lon="12.312146807089448">
        <ele>2379.4000000000001</ele>
        <time>2017-03-11T13:07:58Z</time>
      </trkpt>
      <trkpt lat="46.639908961951733" lon="12.312192320823669">
        <ele>2378.9200000000001</ele>
        <time>2017-03-11T13:08:01Z</time>
      </trkpt>
      <trkpt lat="46.639895550906658" lon="12.312244288623333">
        <ele>2377.96</ele>
        <time>2017-03-11T13:08:04Z</time>
      </trkpt>
      <trkpt lat="46.639898736029863" lon="12.312265075743198">
        <ele>2377</ele>
        <time>2017-03-11T13:08:12Z</time>
      </trkpt>
      <trkpt lat="46.639903010800481" lon="12.312261052429676">
        <ele>2377</ele>
        <time>2017-03-11T13:08:24Z</time>
      </trkpt>
      <trkpt lat="46.639950117096305" lon="12.312343781813979">
        <ele>2376.04</ele>
        <time>2017-03-11T13:08:30Z</time>
      </trkpt>
      <trkpt lat="46.639984818175435" lon="12.312387116253376">
        <ele>2374.5900000000001</ele>
        <time>2017-03-11T13:08:34Z</time>
      </trkpt>
      <trkpt lat="46.640057573094964" lon="12.312509659677744">
        <ele>2372.6700000000001</ele>
        <time>2017-03-11T13:08:44Z</time>
      </trkpt>
      <trkpt lat="46.640123203396797" lon="12.312621809542179">
        <ele>2370.75</ele>
        <time>2017-03-11T13:08:54Z</time>
      </trkpt>
      <trkpt lat="46.6401990596205" lon="12.312712837010622">
        <ele>2369.79</ele>
        <time>2017-03-11T13:09:04Z</time>
      </trkpt>
      <trkpt lat="46.640252787619829" lon="12.312773270532489">
        <ele>2368.3499999999999</ele>
        <time>2017-03-11T13:09:11Z</time>
      </trkpt>
      <trkpt lat="46.640298133715987" lon="12.312873182818294">
        <ele>2365.9400000000001</ele>
        <time>2017-03-11T13:09:22Z</time>
      </trkpt>
      <trkpt lat="46.640356471762061" lon="12.312987931072712">
        <ele>2363.0599999999999</ele>
        <time>2017-03-11T13:09:32Z</time>
      </trkpt>
      <trkpt lat="46.640413552522659" lon="12.313080132007599">
        <ele>2361.1399999999999</ele>
        <time>2017-03-11T13:09:42Z</time>
      </trkpt>
      <trkpt lat="46.640479769557714" lon="12.313166130334139">
        <ele>2359.21</ele>
        <time>2017-03-11T13:09:52Z</time>
      </trkpt>
      <trkpt lat="46.64052452892065" lon="12.313253302127123">
        <ele>2358.25</ele>
        <time>2017-03-11T13:10:02Z</time>
      </trkpt>
      <trkpt lat="46.640558894723654" lon="12.313298480585217">
        <ele>2358.25</ele>
        <time>2017-03-11T13:10:07Z</time>
      </trkpt>
      <trkpt lat="46.640581609681249" lon="12.313331253826618">
        <ele>2357.77</ele>
        <time>2017-03-11T13:10:11Z</time>
      </trkpt>
      <trkpt lat="46.64060608483851" lon="12.313371067866683">
        <ele>2357.29</ele>
        <time>2017-03-11T13:10:16Z</time>
      </trkpt>
      <trkpt lat="46.640623770654202" lon="12.313395291566849">
        <ele>2356.8099999999999</ele>
        <time>2017-03-11T13:10:19Z</time>
      </trkpt>
      <trkpt lat="46.640647910535336" lon="12.313435776159167">
        <ele>2356.8099999999999</ele>
        <time>2017-03-11T13:10:23Z</time>
      </trkpt>
      <trkpt lat="46.640700129792094" lon="12.313524540513754">
        <ele>2355.8499999999999</ele>
        <time>2017-03-11T13:10:31Z</time>
      </trkpt>
      <trkpt lat="46.640710607171059" lon="12.313544740900397">
        <ele>2355.3699999999999</ele>
        <time>2017-03-11T13:10:33Z</time>
      </trkpt>
      <trkpt lat="46.640792917460203" lon="12.313692094758153">
        <ele>2353.4400000000001</ele>
        <time>2017-03-11T13:10:45Z</time>
      </trkpt>
      <trkpt lat="46.64082108065486" lon="12.31374372728169">
        <ele>2352.96</ele>
        <time>2017-03-11T13:10:49Z</time>
      </trkpt>
      <trkpt lat="46.640882939100266" lon="12.313844477757812">
        <ele>2351.04</ele>
        <time>2017-03-11T13:10:59Z</time>
      </trkpt>
      <trkpt lat="46.640945384278893" lon="12.313980096951127">
        <ele>2349.1199999999999</ele>
        <time>2017-03-11T13:11:10Z</time>
      </trkpt>
      <trkpt lat="46.641000285744667" lon="12.31409702450037">
        <ele>2347.6799999999998</ele>
        <time>2017-03-11T13:11:21Z</time>
      </trkpt>
      <trkpt lat="46.641067927703261" lon="12.314215209335089">
        <ele>2345.75</ele>
        <time>2017-03-11T13:11:32Z</time>
      </trkpt>
      <trkpt lat="46.641136826947331" lon="12.314328616485">
        <ele>2344.3099999999999</ele>
        <time>2017-03-11T13:11:42Z</time>
      </trkpt>
      <trkpt lat="46.641193823888898" lon="12.314446717500687">
        <ele>2343.3499999999999</ele>
        <time>2017-03-11T13:11:52Z</time>
      </trkpt>
      <trkpt lat="46.641211928799748" lon="12.314485022798181">
        <ele>2343.3499999999999</ele>
        <time>2017-03-11T13:11:56Z</time>
      </trkpt>
      <trkpt lat="46.641223998740315" lon="12.314504720270634">
        <ele>2342.8699999999999</ele>
        <time>2017-03-11T13:11:58Z</time>
      </trkpt>
      <trkpt lat="46.641279067844152" lon="12.31463891454041">
        <ele>2342.3899999999999</ele>
        <time>2017-03-11T13:12:08Z</time>
      </trkpt>
      <trkpt lat="46.64132684469223" lon="12.314736228436232">
        <ele>2342.3899999999999</ele>
        <time>2017-03-11T13:12:16Z</time>
      </trkpt>
      <trkpt lat="46.641401275992393" lon="12.314871596172452">
        <ele>2342.3899999999999</ele>
        <time>2017-03-11T13:12:28Z</time>
      </trkpt>
      <trkpt lat="46.641467744484544" lon="12.314998079091311">
        <ele>2342.8699999999999</ele>
        <time>2017-03-11T13:12:39Z</time>
      </trkpt>
      <trkpt lat="46.641512587666512" lon="12.315054824575782">
        <ele>2342.3899999999999</ele>
        <time>2017-03-11T13:12:45Z</time>
      </trkpt>
      <trkpt lat="46.641592131927609" lon="12.315146941691637">
        <ele>2342.3899999999999</ele>
        <time>2017-03-11T13:12:56Z</time>
      </trkpt>
      <trkpt lat="46.641648961231112" lon="12.315193880349398">
        <ele>2343.3499999999999</ele>
        <time>2017-03-11T13:13:05Z</time>
      </trkpt>
      <trkpt lat="46.641720123589039" lon="12.315214248374104">
        <ele>2343.3499999999999</ele>
        <time>2017-03-11T13:13:13Z</time>
      </trkpt>
      <trkpt lat="46.641757423058152" lon="12.315242998301983">
        <ele>2343.3499999999999</ele>
        <time>2017-03-11T13:13:18Z</time>
      </trkpt>
      <trkpt lat="46.641790363937616" lon="12.315285410732031">
        <ele>2342.8699999999999</ele>
        <time>2017-03-11T13:13:23Z</time>
      </trkpt>
      <trkpt lat="46.641806541010737" lon="12.315325476229191">
        <ele>2342.8699999999999</ele>
        <time>2017-03-11T13:13:26Z</time>
      </trkpt>
      <trkpt lat="46.641854988411069" lon="12.315393537282944">
        <ele>2341.9099999999999</ele>
        <time>2017-03-11T13:13:34Z</time>
      </trkpt>
      <trkpt lat="46.64188290014863" lon="12.31545883230865">
        <ele>2340.9499999999998</ele>
        <time>2017-03-11T13:13:39Z</time>
      </trkpt>
      <trkpt lat="46.641898490488529" lon="12.315531754866242">
        <ele>2339.9899999999998</ele>
        <time>2017-03-11T13:13:44Z</time>
      </trkpt>
      <trkpt lat="46.641879547387362" lon="12.315668128430843">
        <ele>2338.54</ele>
        <time>2017-03-11T13:13:54Z</time>
      </trkpt>
      <trkpt lat="46.641896395012736" lon="12.315783128142357">
        <ele>2336.6199999999999</ele>
        <time>2017-03-11T13:14:03Z</time>
      </trkpt>
      <trkpt lat="46.641919780522585" lon="12.315922351554036">
        <ele>2334.2199999999998</ele>
        <time>2017-03-11T13:14:13Z</time>
      </trkpt>
      <trkpt lat="46.641938304528594" lon="12.316043553873897">
        <ele>2331.8099999999999</ele>
        <time>2017-03-11T13:14:22Z</time>
      </trkpt>
      <trkpt lat="46.641958588734269" lon="12.316165175288916">
        <ele>2329.4099999999999</ele>
        <time>2017-03-11T13:14:32Z</time>
      </trkpt>
      <trkpt lat="46.641963785514235" lon="12.316193673759699">
        <ele>2328.9299999999998</ele>
        <time>2017-03-11T13:14:34Z</time>
      </trkpt>
      <trkpt lat="46.641985159367323" lon="12.316277911886573">
        <ele>2327.4899999999998</ele>
        <time>2017-03-11T13:14:40Z</time>
      </trkpt>
      <trkpt lat="46.642014412209392" lon="12.316415794193745">
        <ele>2325.5700000000002</ele>
        <time>2017-03-11T13:14:50Z</time>
      </trkpt>
      <trkpt lat="46.642021620646119" lon="12.316540936008096">
        <ele>2325.0900000000001</ele>
        <time>2017-03-11T13:14:59Z</time>
      </trkpt>
      <trkpt lat="46.64204559288919" lon="12.316677393391728">
        <ele>2322.6799999999998</ele>
        <time>2017-03-11T13:15:09Z</time>
      </trkpt>
      <trkpt lat="46.642087418586016" lon="12.316787363961339">
        <ele>2321.7199999999998</ele>
        <time>2017-03-11T13:15:19Z</time>
      </trkpt>
      <trkpt lat="46.642090855166316" lon="12.316795997321606">
        <ele>2321.7199999999998</ele>
        <time>2017-03-11T13:15:20Z</time>
      </trkpt>
      <trkpt lat="46.64212329313159" lon="12.316879313439131">
        <ele>2321.7199999999998</ele>
        <time>2017-03-11T13:15:28Z</time>
      </trkpt>
      <trkpt lat="46.642146930098534" lon="12.316948547959328">
        <ele>2322.6799999999998</ele>
        <time>2017-03-11T13:15:33Z</time>
      </trkpt>
      <trkpt lat="46.642169812694192" lon="12.317090537399054">
        <ele>2321.2399999999998</ele>
        <time>2017-03-11T13:15:44Z</time>
      </trkpt>
      <trkpt lat="46.642173333093524" lon="12.317209811881185">
        <ele>2321.2399999999998</ele>
        <time>2017-03-11T13:15:53Z</time>
      </trkpt>
      <trkpt lat="46.642183139920235" lon="12.317322967574">
        <ele>2322.1999999999998</ele>
        <time>2017-03-11T13:16:03Z</time>
      </trkpt>
      <trkpt lat="46.642185989767313" lon="12.31735029257834">
        <ele>2322.1999999999998</ele>
        <time>2017-03-11T13:16:05Z</time>
      </trkpt>
      <trkpt lat="46.64219462312758" lon="12.317375186830759">
        <ele>2323.1599999999999</ele>
        <time>2017-03-11T13:16:15Z</time>
      </trkpt>
      <trkpt lat="46.642199987545609" lon="12.317360350862145">
        <ele>2322.6799999999998</ele>
        <time>2017-03-11T13:16:33Z</time>
      </trkpt>
      <trkpt lat="46.642177188768983" lon="12.317370492964983">
        <ele>2323.1599999999999</ele>
        <time>2017-03-11T13:16:51Z</time>
      </trkpt>
      <trkpt lat="46.642161095514894" lon="12.317398153245449">
        <ele>2322.6799999999998</ele>
        <time>2017-03-11T13:17:07Z</time>
      </trkpt>
      <trkpt lat="46.642156736925244" lon="12.317409804090858">
        <ele>2323.1599999999999</ele>
        <time>2017-03-11T13:17:23Z</time>
      </trkpt>
      <trkpt lat="46.642152797430754" lon="12.317403769120574">
        <ele>2323.1599999999999</ele>
        <time>2017-03-11T13:17:42Z</time>
      </trkpt>
      <trkpt lat="46.642171237617731" lon="12.31738843023777">
        <ele>2323.1599999999999</ele>
        <time>2017-03-11T13:17:59Z</time>
      </trkpt>
      <trkpt lat="46.642164113000035" lon="12.317410726100206">
        <ele>2323.1599999999999</ele>
        <time>2017-03-11T13:18:13Z</time>
      </trkpt>
      <trkpt lat="46.642154306173325" lon="12.317407205700874">
        <ele>2323.1599999999999</ele>
        <time>2017-03-11T13:18:35Z</time>
      </trkpt>
      <trkpt lat="46.642179870977998" lon="12.317416928708553">
        <ele>2323.1599999999999</ele>
        <time>2017-03-11T13:18:44Z</time>
      </trkpt>
      <trkpt lat="46.642168052494526" lon="12.317387508228421">
        <ele>2323.6399999999999</ele>
        <time>2017-03-11T13:19:02Z</time>
      </trkpt>
      <trkpt lat="46.642173668369651" lon="12.317379377782345">
        <ele>2323.6399999999999</ele>
        <time>2017-03-11T13:19:17Z</time>
      </trkpt>
      <trkpt lat="46.64217215962708" lon="12.317379545420408">
        <ele>2323.6399999999999</ele>
        <time>2017-03-11T13:19:30Z</time>
      </trkpt>
      <trkpt lat="46.642193868756294" lon="12.317379964515567">
        <ele>2324.6100000000001</ele>
        <time>2017-03-11T13:19:49Z</time>
      </trkpt>
      <trkpt lat="46.642182972282171" lon="12.317374851554632">
        <ele>2323.6399999999999</ele>
        <time>2017-03-11T13:20:00Z</time>
      </trkpt>
      <trkpt lat="46.642166124656796" lon="12.317377617582679">
        <ele>2323.6399999999999</ele>
        <time>2017-03-11T13:20:17Z</time>
      </trkpt>
      <trkpt lat="46.642174422740936" lon="12.317367726936936">
        <ele>2324.1199999999999</ele>
        <time>2017-03-11T13:20:31Z</time>
      </trkpt>
      <trkpt lat="46.642174338921905" lon="12.317387256771326">
        <ele>2324.1199999999999</ele>
        <time>2017-03-11T13:20:56Z</time>
      </trkpt>
      <trkpt lat="46.642182134091854" lon="12.31737912632525">
        <ele>2324.1199999999999</ele>
        <time>2017-03-11T13:21:18Z</time>
      </trkpt>
      <trkpt lat="46.642172913998365" lon="12.317388681694865">
        <ele>2324.6100000000001</ele>
        <time>2017-03-11T13:21:41Z</time>
      </trkpt>
      <trkpt lat="46.642156569287181" lon="12.317392118275166">
        <ele>2324.6100000000001</ele>
        <time>2017-03-11T13:22:01Z</time>
      </trkpt>
      <trkpt lat="46.642174590379" lon="12.317393543198705">
        <ele>2324.6100000000001</ele>
        <time>2017-03-11T13:22:16Z</time>
      </trkpt>
      <trkpt lat="46.64219856262207" lon="12.317432099953294">
        <ele>2324.6100000000001</ele>
        <time>2017-03-11T13:22:26Z</time>
      </trkpt>
      <trkpt lat="46.642204262316227" lon="12.317438554018736">
        <ele>2324.6100000000001</ele>
        <time>2017-03-11T13:22:27Z</time>
      </trkpt>
      <trkpt lat="46.642232928425074" lon="12.317469483241439">
        <ele>2325.0900000000001</ele>
        <time>2017-03-11T13:22:31Z</time>
      </trkpt>
      <trkpt lat="46.642260001972318" lon="12.317535281181335">
        <ele>2324.6100000000001</ele>
        <time>2017-03-11T13:22:35Z</time>
      </trkpt>
      <trkpt lat="46.642298558726907" lon="12.317597810178995">
        <ele>2323.1599999999999</ele>
        <time>2017-03-11T13:22:42Z</time>
      </trkpt>
      <trkpt lat="46.642327392473817" lon="12.317643743008375">
        <ele>2321.7199999999998</ele>
        <time>2017-03-11T13:22:46Z</time>
      </trkpt>
      <trkpt lat="46.642372151836753" lon="12.317793779075146">
        <ele>2318.8400000000001</ele>
        <time>2017-03-11T13:22:56Z</time>
      </trkpt>
      <trkpt lat="46.642375336959958" lon="12.317831078544259">
        <ele>2319.3200000000002</ele>
        <time>2017-03-11T13:22:58Z</time>
      </trkpt>
      <trkpt lat="46.642342060804367" lon="12.318003745749593">
        <ele>2318.8400000000001</ele>
        <time>2017-03-11T13:23:10Z</time>
      </trkpt>
      <trkpt lat="46.642314316704869" lon="12.318066526204348">
        <ele>2318.3600000000001</ele>
        <time>2017-03-11T13:23:15Z</time>
      </trkpt>
      <trkpt lat="46.642287410795689" lon="12.318243887275457">
        <ele>2315.9499999999998</ele>
        <time>2017-03-11T13:23:27Z</time>
      </trkpt>
      <trkpt lat="46.642276346683502" lon="12.318273307755589">
        <ele>2315.9499999999998</ele>
        <time>2017-03-11T13:23:29Z</time>
      </trkpt>
      <trkpt lat="46.642245836555958" lon="12.318427031859756">
        <ele>2313.0700000000002</ele>
        <time>2017-03-11T13:23:40Z</time>
      </trkpt>
      <trkpt lat="46.642213482409716" lon="12.318553347140551">
        <ele>2310.6700000000001</ele>
        <time>2017-03-11T13:23:49Z</time>
      </trkpt>
      <trkpt lat="46.642212560400367" lon="12.318577822297812">
        <ele>2310.1900000000001</ele>
        <time>2017-03-11T13:23:51Z</time>
      </trkpt>
      <trkpt lat="46.642201161012053" lon="12.318673711270094">
        <ele>2308.2600000000002</ele>
        <time>2017-03-11T13:23:57Z</time>
      </trkpt>
      <trkpt lat="46.642209542915225" lon="12.318712687119842">
        <ele>2307.7800000000002</ele>
        <time>2017-03-11T13:24:00Z</time>
      </trkpt>
      <trkpt lat="46.642209626734257" lon="12.318769348785281">
        <ele>2306.8200000000002</ele>
        <time>2017-03-11T13:24:05Z</time>
      </trkpt>
      <trkpt lat="46.6421814635396" lon="12.318950649350882">
        <ele>2304.4200000000001</ele>
        <time>2017-03-11T13:24:17Z</time>
      </trkpt>
      <trkpt lat="46.642127316445112" lon="12.319084592163563">
        <ele>2301.5300000000002</ele>
        <time>2017-03-11T13:24:28Z</time>
      </trkpt>
      <trkpt lat="46.642069146037102" lon="12.319237142801285">
        <ele>2299.6100000000001</ele>
        <time>2017-03-11T13:24:40Z</time>
      </trkpt>
      <trkpt lat="46.642055315896869" lon="12.319265892729163">
        <ele>2299.1300000000001</ele>
        <time>2017-03-11T13:24:42Z</time>
      </trkpt>
      <trkpt lat="46.642006868496537" lon="12.319443672895432">
        <ele>2297.21</ele>
        <time>2017-03-11T13:24:54Z</time>
      </trkpt>
      <trkpt lat="46.641946602612734" lon="12.319474350661039">
        <ele>2296.73</ele>
        <time>2017-03-11T13:24:59Z</time>
      </trkpt>
      <trkpt lat="46.641854317858815" lon="12.319576274603605">
        <ele>2295.2800000000002</ele>
        <time>2017-03-11T13:25:09Z</time>
      </trkpt>
      <trkpt lat="46.641813078895211" lon="12.319635367020965">
        <ele>2295.2800000000002</ele>
        <time>2017-03-11T13:25:15Z</time>
      </trkpt>
      <trkpt lat="46.641761530190706" lon="12.319758413359523">
        <ele>2293.8400000000001</ele>
        <time>2017-03-11T13:25:25Z</time>
      </trkpt>
      <trkpt lat="46.641744682565331" lon="12.319839969277382">
        <ele>2292.8800000000001</ele>
        <time>2017-03-11T13:25:30Z</time>
      </trkpt>
      <trkpt lat="46.641682740300894" lon="12.32000601477921">
        <ele>2291.9200000000001</ele>
        <time>2017-03-11T13:25:42Z</time>
      </trkpt>
      <trkpt lat="46.641629515215755" lon="12.32008614577353">
        <ele>2291.9200000000001</ele>
        <time>2017-03-11T13:25:49Z</time>
      </trkpt>
      <trkpt lat="46.641559861600399" lon="12.320207934826612">
        <ele>2291.4400000000001</ele>
        <time>2017-03-11T13:26:00Z</time>
      </trkpt>
      <trkpt lat="46.64155357517302" lon="12.320216149091721">
        <ele>2291.4400000000001</ele>
        <time>2017-03-11T13:26:01Z</time>
      </trkpt>
      <trkpt lat="46.641473192721605" lon="12.320281444117427">
        <ele>2291.4400000000001</ele>
        <time>2017-03-11T13:26:13Z</time>
      </trkpt>
      <trkpt lat="46.641435977071524" lon="12.320278510451317">
        <ele>2290.96</ele>
        <time>2017-03-11T13:26:23Z</time>
      </trkpt>
      <trkpt lat="46.641383673995733" lon="12.320367693901062">
        <ele>2290.96</ele>
        <time>2017-03-11T13:26:32Z</time>
      </trkpt>
      <trkpt lat="46.641378058120608" lon="12.320375656709075">
        <ele>2291.4400000000001</ele>
        <time>2017-03-11T13:26:39Z</time>
      </trkpt>
      <trkpt lat="46.641377974301577" lon="12.320344978943467">
        <ele>2290.48</ele>
        <time>2017-03-11T13:26:48Z</time>
      </trkpt>
      <trkpt lat="46.641380153596401" lon="12.320371465757489">
        <ele>2290</ele>
        <time>2017-03-11T13:27:07Z</time>
      </trkpt>
      <trkpt lat="46.641375795006752" lon="12.320358389988542">
        <ele>2291.4400000000001</ele>
        <time>2017-03-11T13:27:21Z</time>
      </trkpt>
      <trkpt lat="46.641384176909924" lon="12.320367861539125">
        <ele>2291.4400000000001</ele>
        <time>2017-03-11T13:27:30Z</time>
      </trkpt>
      <trkpt lat="46.64140353910625" lon="12.320363502949476">
        <ele>2291.4400000000001</ele>
        <time>2017-03-11T13:27:45Z</time>
      </trkpt>
      <trkpt lat="46.641406388953328" lon="12.320360317826271">
        <ele>2290.96</ele>
        <time>2017-03-11T13:27:47Z</time>
      </trkpt>
      <trkpt lat="46.641386104747653" lon="12.320395521819592">
        <ele>2291.4400000000001</ele>
        <time>2017-03-11T13:27:59Z</time>
      </trkpt>
      <trkpt lat="46.641306225210428" lon="12.320476658642292">
        <ele>2289.04</ele>
        <time>2017-03-11T13:28:09Z</time>
      </trkpt>
      <trkpt lat="46.641293065622449" lon="12.320519741624594">
        <ele>2287.1100000000001</ele>
        <time>2017-03-11T13:28:18Z</time>
      </trkpt>
      <trkpt lat="46.641298346221447" lon="12.320543294772506">
        <ele>2287.1100000000001</ele>
        <time>2017-03-11T13:28:20Z</time>
      </trkpt>
      <trkpt lat="46.641256688162684" lon="12.320676483213902">
        <ele>2284.71</ele>
        <time>2017-03-11T13:28:29Z</time>
      </trkpt>
      <trkpt lat="46.641253838315606" lon="12.320687882602215">
        <ele>2284.71</ele>
        <time>2017-03-11T13:28:30Z</time>
      </trkpt>
      <trkpt lat="46.641237828880548" lon="12.320722080767155">
        <ele>2283.75</ele>
        <time>2017-03-11T13:28:33Z</time>
      </trkpt>
      <trkpt lat="46.641214694827795" lon="12.320750076323748">
        <ele>2282.3099999999999</ele>
        <time>2017-03-11T13:28:36Z</time>
      </trkpt>
      <trkpt lat="46.641169097274542" lon="12.320804474875331">
        <ele>2279.9000000000001</ele>
        <time>2017-03-11T13:28:47Z</time>
      </trkpt>
      <trkpt lat="46.641185525804758" lon="12.320806989446282">
        <ele>2279.9000000000001</ele>
        <time>2017-03-11T13:29:00Z</time>
      </trkpt>
      <trkpt lat="46.641179826110601" lon="12.320838756859303">
        <ele>2279.9000000000001</ele>
        <time>2017-03-11T13:29:05Z</time>
      </trkpt>
      <trkpt lat="46.641105646267533" lon="12.320923916995525">
        <ele>2276.54</ele>
        <time>2017-03-11T13:29:15Z</time>
      </trkpt>
      <trkpt lat="46.641092905774713" lon="12.320940010249615">
        <ele>2275.5799999999999</ele>
        <time>2017-03-11T13:29:17Z</time>
      </trkpt>
      <trkpt lat="46.641075974330306" lon="12.320989882573485">
        <ele>2273.6599999999999</ele>
        <time>2017-03-11T13:29:21Z</time>
      </trkpt>
      <trkpt lat="46.641046805307269" lon="12.321021063253284">
        <ele>2272.6900000000001</ele>
        <time>2017-03-11T13:29:24Z</time>
      </trkpt>
      <trkpt lat="46.640983102843165" lon="12.321143103763461">
        <ele>2269.3299999999999</ele>
        <time>2017-03-11T13:29:34Z</time>
      </trkpt>
      <trkpt lat="46.640918897464871" lon="12.321280734613538">
        <ele>2265.96</ele>
        <time>2017-03-11T13:29:44Z</time>
      </trkpt>
      <trkpt lat="46.640864247456193" lon="12.321415347978473">
        <ele>2263.0799999999999</ele>
        <time>2017-03-11T13:29:53Z</time>
      </trkpt>
      <trkpt lat="46.640816638246179" lon="12.321580806747079">
        <ele>2259.7199999999998</ele>
        <time>2017-03-11T13:30:04Z</time>
      </trkpt>
      <trkpt lat="46.640768358483911" lon="12.321739392355084">
        <ele>2257.3099999999999</ele>
        <time>2017-03-11T13:30:15Z</time>
      </trkpt>
      <trkpt lat="46.640716642141342" lon="12.321917926892638">
        <ele>2254.4299999999998</ele>
        <time>2017-03-11T13:30:26Z</time>
      </trkpt>
      <trkpt lat="46.640696106478572" lon="12.321962770074606">
        <ele>2253.9499999999998</ele>
        <time>2017-03-11T13:30:29Z</time>
      </trkpt>
      <trkpt lat="46.640622178092599" lon="12.322014821693301">
        <ele>2252.9899999999998</ele>
        <time>2017-03-11T13:30:39Z</time>
      </trkpt>
      <trkpt lat="46.640581106767058" lon="12.32205580919981">
        <ele>2252.9899999999998</ele>
        <time>2017-03-11T13:30:48Z</time>
      </trkpt>
      <trkpt lat="46.640493851155043" lon="12.322152117267251">
        <ele>2250.5799999999999</ele>
        <time>2017-03-11T13:30:59Z</time>
      </trkpt>
      <trkpt lat="46.640485133975744" lon="12.322159744799137">
        <ele>2250.0999999999999</ele>
        <time>2017-03-11T13:31:00Z</time>
      </trkpt>
      <trkpt lat="46.640460072085261" lon="12.322193440049887">
        <ele>2249.6199999999999</ele>
        <time>2017-03-11T13:31:03Z</time>
      </trkpt>
      <trkpt lat="46.640437357127666" lon="12.322265524417162">
        <ele>2248.1799999999998</ele>
        <time>2017-03-11T13:31:08Z</time>
      </trkpt>
      <trkpt lat="46.640419587492943" lon="12.322321264073253">
        <ele>2247.2199999999998</ele>
        <time>2017-03-11T13:31:12Z</time>
      </trkpt>
      <trkpt lat="46.640415480360389" lon="12.322350181639194">
        <ele>2246.2600000000002</ele>
        <time>2017-03-11T13:31:14Z</time>
      </trkpt>
      <trkpt lat="46.640391508117318" lon="12.322480855509639">
        <ele>2243.8499999999999</ele>
        <time>2017-03-11T13:31:23Z</time>
      </trkpt>
      <trkpt lat="46.640390921384096" lon="12.32255662791431">
        <ele>2242.4099999999999</ele>
        <time>2017-03-11T13:31:28Z</time>
      </trkpt>
      <trkpt lat="46.640389077365398" lon="12.322590658441186">
        <ele>2241.9299999999998</ele>
        <time>2017-03-11T13:31:30Z</time>
      </trkpt>
      <trkpt lat="46.640375750139356" lon="12.322693169116974">
        <ele>2239.5300000000002</ele>
        <time>2017-03-11T13:31:39Z</time>
      </trkpt>
      <trkpt lat="46.640376755967736" lon="12.322734659537673">
        <ele>2238.5700000000002</ele>
        <time>2017-03-11T13:31:44Z</time>
      </trkpt>
      <trkpt lat="46.640368793159723" lon="12.322737174108624">
        <ele>2238.0900000000001</ele>
        <time>2017-03-11T13:31:49Z</time>
      </trkpt>
      <trkpt lat="46.640339037403464" lon="12.322840690612793">
        <ele>2237.1300000000001</ele>
        <time>2017-03-11T13:31:56Z</time>
      </trkpt>
      <trkpt lat="46.640302743762732" lon="12.322945883497596">
        <ele>2234.7199999999998</ele>
        <time>2017-03-11T13:32:04Z</time>
      </trkpt>
      <trkpt lat="46.640294194221497" lon="12.322973376139998">
        <ele>2234.2399999999998</ele>
        <time>2017-03-11T13:32:06Z</time>
      </trkpt>
      <trkpt lat="46.640273910015821" lon="12.323062056675553">
        <ele>2232.8000000000002</ele>
        <time>2017-03-11T13:32:12Z</time>
      </trkpt>
      <trkpt lat="46.640227558091283" lon="12.323186444118619">
        <ele>2229.9200000000001</ele>
        <time>2017-03-11T13:32:22Z</time>
      </trkpt>
      <trkpt lat="46.640202160924673" lon="12.323278980329633">
        <ele>2227.0300000000002</ele>
        <time>2017-03-11T13:32:29Z</time>
      </trkpt>
      <trkpt lat="46.640184223651886" lon="12.323369001969695">
        <ele>2224.1500000000001</ele>
        <time>2017-03-11T13:32:35Z</time>
      </trkpt>
      <trkpt lat="46.640163771808147" lon="12.323484253138304">
        <ele>2221.2600000000002</ele>
        <time>2017-03-11T13:32:44Z</time>
      </trkpt>
      <trkpt lat="46.640159329399467" lon="12.323496490716934">
        <ele>2220.7800000000002</ele>
        <time>2017-03-11T13:32:45Z</time>
      </trkpt>
      <trkpt lat="46.640129825100303" lon="12.323608137667179">
        <ele>2217.9000000000001</ele>
        <time>2017-03-11T13:32:53Z</time>
      </trkpt>
      <trkpt lat="46.640173327177763" lon="12.323633870109916">
        <ele>2215.0100000000002</ele>
        <time>2017-03-11T13:33:03Z</time>
      </trkpt>
      <trkpt lat="46.640181289985776" lon="12.323626661673188">
        <ele>2214.5300000000002</ele>
        <time>2017-03-11T13:33:04Z</time>
      </trkpt>
      <trkpt lat="46.640196377411485" lon="12.323620961979032">
        <ele>2214.0500000000002</ele>
        <time>2017-03-11T13:33:06Z</time>
      </trkpt>
      <trkpt lat="46.640320178121328" lon="12.323605623096228">
        <ele>2211.6500000000001</ele>
        <time>2017-03-11T13:33:18Z</time>
      </trkpt>
      <trkpt lat="46.64032663218677" lon="12.323619788512588">
        <ele>2211.1700000000001</ele>
        <time>2017-03-11T13:33:19Z</time>
      </trkpt>
      <trkpt lat="46.640324620530009" lon="12.323723724111915">
        <ele>2207.8099999999999</ele>
        <time>2017-03-11T13:33:30Z</time>
      </trkpt>
      <trkpt lat="46.640329398214817" lon="12.323717186227441">
        <ele>2207.8099999999999</ele>
        <time>2017-03-11T13:33:31Z</time>
      </trkpt>
      <trkpt lat="46.640396034345031" lon="12.323643593117595">
        <ele>2206.3600000000001</ele>
        <time>2017-03-11T13:33:41Z</time>
      </trkpt>
      <trkpt lat="46.640445403754711" lon="12.3235725145787">
        <ele>2204.4400000000001</ele>
        <time>2017-03-11T13:33:48Z</time>
      </trkpt>
      <trkpt lat="46.640462251380086" lon="12.323551224544644">
        <ele>2203.96</ele>
        <time>2017-03-11T13:33:50Z</time>
      </trkpt>
      <trkpt lat="46.640530312433839" lon="12.323461035266519">
        <ele>2200.5900000000001</ele>
        <time>2017-03-11T13:33:59Z</time>
      </trkpt>
      <trkpt lat="46.640575490891933" lon="12.323395824059844">
        <ele>2198.6700000000001</ele>
        <time>2017-03-11T13:34:05Z</time>
      </trkpt>
      <trkpt lat="46.640598624944687" lon="12.323380820453167">
        <ele>2198.1900000000001</ele>
        <time>2017-03-11T13:34:07Z</time>
      </trkpt>
      <trkpt lat="46.640644390136003" lon="12.323355674743652">
        <ele>2197.23</ele>
        <time>2017-03-11T13:34:11Z</time>
      </trkpt>
      <trkpt lat="46.640772046521306" lon="12.323411498218775">
        <ele>2195.3099999999999</ele>
        <time>2017-03-11T13:34:22Z</time>
      </trkpt>
      <trkpt lat="46.64086508564651" lon="12.323506129905581">
        <ele>2192.4200000000001</ele>
        <time>2017-03-11T13:34:33Z</time>
      </trkpt>
      <trkpt lat="46.640908923000097" lon="12.323565557599068">
        <ele>2190.98</ele>
        <time>2017-03-11T13:34:39Z</time>
      </trkpt>
      <trkpt lat="46.640928704291582" lon="12.3236018512398">
        <ele>2190.5</ele>
        <time>2017-03-11T13:34:42Z</time>
      </trkpt>
      <trkpt lat="46.640980588272214" lon="12.323642587289214">
        <ele>2189.0599999999999</ele>
        <time>2017-03-11T13:34:48Z</time>
      </trkpt>
      <trkpt lat="46.641005063429475" lon="12.323669828474522">
        <ele>2188.5799999999999</ele>
        <time>2017-03-11T13:34:51Z</time>
      </trkpt>
      <trkpt lat="46.641056360676885" lon="12.323726993054152">
        <ele>2187.1399999999999</ele>
        <time>2017-03-11T13:34:57Z</time>
      </trkpt>
      <trkpt lat="46.641158703714609" lon="12.323824390769005">
        <ele>2184.73</ele>
        <time>2017-03-11T13:35:08Z</time>
      </trkpt>
      <trkpt lat="46.64119248278439" lon="12.323847441002727">
        <ele>2183.77</ele>
        <time>2017-03-11T13:35:11Z</time>
      </trkpt>
      <trkpt lat="46.641240594908595" lon="12.323917094618082">
        <ele>2182.3299999999999</ele>
        <time>2017-03-11T13:35:17Z</time>
      </trkpt>
      <trkpt lat="46.641259705647826" lon="12.323932349681854">
        <ele>2181.8499999999999</ele>
        <time>2017-03-11T13:35:19Z</time>
      </trkpt>
      <trkpt lat="46.641342351213098" lon="12.324029663577676">
        <ele>2179.4499999999998</ele>
        <time>2017-03-11T13:35:29Z</time>
      </trkpt>
      <trkpt lat="46.641359198838472" lon="12.324048271402717">
        <ele>2178.9699999999998</ele>
        <time>2017-03-11T13:35:31Z</time>
      </trkpt>
      <trkpt lat="46.641429523006082" lon="12.324161762371659">
        <ele>2177.04</ele>
        <time>2017-03-11T13:35:41Z</time>
      </trkpt>
      <trkpt lat="46.641489621251822" lon="12.324299477040768">
        <ele>2175.1199999999999</ele>
        <time>2017-03-11T13:35:51Z</time>
      </trkpt>
      <trkpt lat="46.64152767509222" lon="12.324434677138925">
        <ele>2173.6799999999998</ele>
        <time>2017-03-11T13:36:01Z</time>
      </trkpt>
      <trkpt lat="46.641545193269849" lon="12.32449016533792">
        <ele>2172.7199999999998</ele>
        <time>2017-03-11T13:36:05Z</time>
      </trkpt>
      <trkpt lat="46.641566650941968" lon="12.324562668800354">
        <ele>2171.7600000000002</ele>
        <time>2017-03-11T13:36:10Z</time>
      </trkpt>
      <trkpt lat="46.641568746417761" lon="12.324598459526896">
        <ele>2170.79</ele>
        <time>2017-03-11T13:36:12Z</time>
      </trkpt>
      <trkpt lat="46.641580145806074" lon="12.324661491438746">
        <ele>2170.3099999999999</ele>
        <time>2017-03-11T13:36:16Z</time>
      </trkpt>
      <trkpt lat="46.641607051715255" lon="12.324791243299842">
        <ele>2168.3899999999999</ele>
        <time>2017-03-11T13:36:25Z</time>
      </trkpt>
      <trkpt lat="46.641608644276857" lon="12.324833068996668">
        <ele>2167.4299999999998</ele>
        <time>2017-03-11T13:36:28Z</time>
      </trkpt>
      <trkpt lat="46.641616523265839" lon="12.324860645458102">
        <ele>2166.9499999999998</ele>
        <time>2017-03-11T13:36:30Z</time>
      </trkpt>
      <trkpt lat="46.641629682853818" lon="12.32500322163105">
        <ele>2164.5500000000002</ele>
        <time>2017-03-11T13:36:39Z</time>
      </trkpt>
      <trkpt lat="46.641652565449476" lon="12.325051669031382">
        <ele>2163.0999999999999</ele>
        <time>2017-03-11T13:36:43Z</time>
      </trkpt>
      <trkpt lat="46.641654744744301" lon="12.325088130310178">
        <ele>2162.1399999999999</ele>
        <time>2017-03-11T13:36:45Z</time>
      </trkpt>
      <trkpt lat="46.641648542135954" lon="12.325121574103832">
        <ele>2161.6599999999999</ele>
        <time>2017-03-11T13:36:47Z</time>
      </trkpt>
      <trkpt lat="46.641662204638124" lon="12.325169099494815">
        <ele>2159.7399999999998</ele>
        <time>2017-03-11T13:36:54Z</time>
      </trkpt>
      <trkpt lat="46.641758680343628" lon="12.325154514983296">
        <ele>2157.3400000000001</ele>
        <time>2017-03-11T13:37:03Z</time>
      </trkpt>
      <trkpt lat="46.641780724748969" lon="12.325190473347902">
        <ele>2156.3699999999999</ele>
        <time>2017-03-11T13:37:06Z</time>
      </trkpt>
      <trkpt lat="46.6417929623276" lon="12.325212936848402">
        <ele>2155.4099999999999</ele>
        <time>2017-03-11T13:37:08Z</time>
      </trkpt>
      <trkpt lat="46.641830513253808" lon="12.325285440310836">
        <ele>2153.9699999999998</ele>
        <time>2017-03-11T13:37:14Z</time>
      </trkpt>
      <trkpt lat="46.641872841864824" lon="12.325410330668092">
        <ele>2152.0500000000002</ele>
        <time>2017-03-11T13:37:25Z</time>
      </trkpt>
      <trkpt lat="46.641858089715242" lon="12.325408989563584">
        <ele>2152.0500000000002</ele>
        <time>2017-03-11T13:37:39Z</time>
      </trkpt>
      <trkpt lat="46.641851468011737" lon="12.325391639024019">
        <ele>2152.0500000000002</ele>
        <time>2017-03-11T13:37:52Z</time>
      </trkpt>
      <trkpt lat="46.641844846308231" lon="12.325362721458077">
        <ele>2152.0500000000002</ele>
        <time>2017-03-11T13:38:13Z</time>
      </trkpt>
      <trkpt lat="46.641845935955644" lon="12.325371773913503">
        <ele>2152.0500000000002</ele>
        <time>2017-03-11T13:38:38Z</time>
      </trkpt>
      <trkpt lat="46.641865130513906" lon="12.325382167473435">
        <ele>2152.5300000000002</ele>
        <time>2017-03-11T13:38:50Z</time>
      </trkpt>
      <trkpt lat="46.64185113273561" lon="12.325421227142215">
        <ele>2152.0500000000002</ele>
        <time>2017-03-11T13:39:04Z</time>
      </trkpt>
      <trkpt lat="46.641847109422088" lon="12.325414521619678">
        <ele>2152.5300000000002</ele>
        <time>2017-03-11T13:39:27Z</time>
      </trkpt>
      <trkpt lat="46.641864711418748" lon="12.325403122231364">
        <ele>2152.0500000000002</ele>
        <time>2017-03-11T13:39:43Z</time>
      </trkpt>
      <trkpt lat="46.641857251524925" lon="12.325397422537208">
        <ele>2152.0500000000002</ele>
        <time>2017-03-11T13:39:58Z</time>
      </trkpt>
      <trkpt lat="46.641858676448464" lon="12.325402619317174">
        <ele>2152.5300000000002</ele>
        <time>2017-03-11T13:40:14Z</time>
      </trkpt>
      <trkpt lat="46.641846606507897" lon="12.325406139716506">
        <ele>2152.5300000000002</ele>
        <time>2017-03-11T13:40:31Z</time>
      </trkpt>
      <trkpt lat="46.64183747023344" lon="12.325417203828692">
        <ele>2152.5300000000002</ele>
        <time>2017-03-11T13:40:52Z</time>
      </trkpt>
      <trkpt lat="46.641843924298882" lon="12.325413767248392">
        <ele>2152.5300000000002</ele>
        <time>2017-03-11T13:41:10Z</time>
      </trkpt>
      <trkpt lat="46.641839984804392" lon="12.325404630973935">
        <ele>2152.5300000000002</ele>
        <time>2017-03-11T13:41:24Z</time>
      </trkpt>
      <trkpt lat="46.641847612336278" lon="12.325447043403983">
        <ele>2152.0500000000002</ele>
        <time>2017-03-11T13:41:39Z</time>
      </trkpt>
      <trkpt lat="46.641835458576679" lon="12.325508315116167">
        <ele>2151.5700000000002</ele>
        <time>2017-03-11T13:41:44Z</time>
      </trkpt>
      <trkpt lat="46.641879547387362" lon="12.32572004199028">
        <ele>2148.1999999999998</ele>
        <time>2017-03-11T13:41:57Z</time>
      </trkpt>
      <trkpt lat="46.641881978139281" lon="12.325752731412649">
        <ele>2147.7199999999998</ele>
        <time>2017-03-11T13:41:59Z</time>
      </trkpt>
      <trkpt lat="46.641846019774675" lon="12.325939983129501">
        <ele>2143.4000000000001</ele>
        <time>2017-03-11T13:42:11Z</time>
      </trkpt>
      <trkpt lat="46.641839230433106" lon="12.325987173244357">
        <ele>2141.9499999999998</ele>
        <time>2017-03-11T13:42:14Z</time>
      </trkpt>
      <trkpt lat="46.641836129128933" lon="12.32601567171514">
        <ele>2141.9499999999998</ele>
        <time>2017-03-11T13:42:16Z</time>
      </trkpt>
      <trkpt lat="46.641846690326929" lon="12.326096892356873">
        <ele>2140.0300000000002</ele>
        <time>2017-03-11T13:42:22Z</time>
      </trkpt>
      <trkpt lat="46.641857586801052" lon="12.326174676418304">
        <ele>2138.1100000000001</ele>
        <time>2017-03-11T13:42:27Z</time>
      </trkpt>
      <trkpt lat="46.641879212111235" lon="12.326303338631988">
        <ele>2134.7399999999998</ele>
        <time>2017-03-11T13:42:36Z</time>
      </trkpt>
      <trkpt lat="46.641882564872503" lon="12.326318761333823">
        <ele>2134.7399999999998</ele>
        <time>2017-03-11T13:42:37Z</time>
      </trkpt>
      <trkpt lat="46.641901675611734" lon="12.326351115480065">
        <ele>2133.3000000000002</ele>
        <time>2017-03-11T13:42:40Z</time>
      </trkpt>
      <trkpt lat="46.641918104141951" lon="12.326438957825303">
        <ele>2131.3800000000001</ele>
        <time>2017-03-11T13:42:46Z</time>
      </trkpt>
      <trkpt lat="46.641927072778344" lon="12.326472569257021">
        <ele>2130.9000000000001</ele>
        <time>2017-03-11T13:42:48Z</time>
      </trkpt>
      <trkpt lat="46.641958085820079" lon="12.326611457392573">
        <ele>2128.98</ele>
        <time>2017-03-11T13:42:57Z</time>
      </trkpt>
      <trkpt lat="46.641992116346955" lon="12.326779011636972">
        <ele>2126.5700000000002</ele>
        <time>2017-03-11T13:43:08Z</time>
      </trkpt>
      <trkpt lat="46.642022039741278" lon="12.326886802911758">
        <ele>2124.1700000000001</ele>
        <time>2017-03-11T13:43:15Z</time>
      </trkpt>
      <trkpt lat="46.64203436113894" lon="12.326937932521105">
        <ele>2123.21</ele>
        <time>2017-03-11T13:43:19Z</time>
      </trkpt>
      <trkpt lat="46.642049113288522" lon="12.326953187584877">
        <ele>2122.73</ele>
        <time>2017-03-11T13:43:21Z</time>
      </trkpt>
      <trkpt lat="46.64211985655129" lon="12.32697045430541">
        <ele>2121.77</ele>
        <time>2017-03-11T13:43:27Z</time>
      </trkpt>
      <trkpt lat="46.642217673361301" lon="12.327014207839966">
        <ele>2119.8400000000001</ele>
        <time>2017-03-11T13:43:36Z</time>
      </trkpt>
      <trkpt lat="46.642310209572315" lon="12.32701881788671">
        <ele>2116.96</ele>
        <time>2017-03-11T13:43:44Z</time>
      </trkpt>
      <trkpt lat="46.642336528748274" lon="12.32706718146801">
        <ele>2115.52</ele>
        <time>2017-03-11T13:43:48Z</time>
      </trkpt>
      <trkpt lat="46.642336612567306" lon="12.327135410159826">
        <ele>2113.5999999999999</ele>
        <time>2017-03-11T13:43:52Z</time>
      </trkpt>
      <trkpt lat="46.642338205128908" lon="12.327215122058988">
        <ele>2112.1500000000001</ele>
        <time>2017-03-11T13:43:57Z</time>
      </trkpt>
      <trkpt lat="46.642340803518891" lon="12.327268933877349">
        <ele>2110.71</ele>
        <time>2017-03-11T13:44:01Z</time>
      </trkpt>
      <trkpt lat="46.642288248986006" lon="12.327402792870998">
        <ele>2106.8699999999999</ele>
        <time>2017-03-11T13:44:10Z</time>
      </trkpt>
      <trkpt lat="46.64226402528584" lon="12.32747227884829">
        <ele>2105.4200000000001</ele>
        <time>2017-03-11T13:44:16Z</time>
      </trkpt>
      <trkpt lat="46.642300486564636" lon="12.327645951882005">
        <ele>2103.02</ele>
        <time>2017-03-11T13:44:28Z</time>
      </trkpt>
      <trkpt lat="46.642333678901196" lon="12.327802861109376">
        <ele>2101.5799999999999</ele>
        <time>2017-03-11T13:44:38Z</time>
      </trkpt>
      <trkpt lat="46.642381707206368" lon="12.327973432838917">
        <ele>2099.1799999999998</ele>
        <time>2017-03-11T13:44:50Z</time>
      </trkpt>
      <trkpt lat="46.642411630600691" lon="12.32804199680686">
        <ele>2097.73</ele>
        <time>2017-03-11T13:44:55Z</time>
      </trkpt>
      <trkpt lat="46.642432669177651" lon="12.328132772818208">
        <ele>2096.29</ele>
        <time>2017-03-11T13:45:01Z</time>
      </trkpt>
      <trkpt lat="46.642481787130237" lon="12.328178789466619">
        <ele>2094.8499999999999</ele>
        <time>2017-03-11T13:45:07Z</time>
      </trkpt>
      <trkpt lat="46.642486145719886" lon="12.328223045915365">
        <ele>2094.8499999999999</ele>
        <time>2017-03-11T13:45:10Z</time>
      </trkpt>
      <trkpt lat="46.642439039424062" lon="12.328378278762102">
        <ele>2092.9299999999998</ele>
        <time>2017-03-11T13:45:21Z</time>
      </trkpt>
      <trkpt lat="46.642428562045097" lon="12.328432761132717">
        <ele>2091.9699999999998</ele>
        <time>2017-03-11T13:45:25Z</time>
      </trkpt>
      <trkpt lat="46.642443314194679" lon="12.328597297891974">
        <ele>2088.5999999999999</ele>
        <time>2017-03-11T13:45:37Z</time>
      </trkpt>
      <trkpt lat="46.642423281446099" lon="12.328599393367767">
        <ele>2088.1199999999999</ele>
        <time>2017-03-11T13:45:39Z</time>
      </trkpt>
      <trkpt lat="46.642399728298187" lon="12.328590927645564">
        <ele>2087.1599999999999</ele>
        <time>2017-03-11T13:45:41Z</time>
      </trkpt>
      <trkpt lat="46.642320854589343" lon="12.328592017292976">
        <ele>2084.7600000000002</ele>
        <time>2017-03-11T13:45:49Z</time>
      </trkpt>
      <trkpt lat="46.642273161560297" lon="12.32867768034339">
        <ele>2080.9099999999999</ele>
        <time>2017-03-11T13:46:00Z</time>
      </trkpt>
      <trkpt lat="46.64227768778801" lon="12.328685391694307">
        <ele>2080.4299999999998</ele>
        <time>2017-03-11T13:46:01Z</time>
      </trkpt>
      <trkpt lat="46.642281794920564" lon="12.328762756660581">
        <ele>2079.4699999999998</ele>
        <time>2017-03-11T13:46:06Z</time>
      </trkpt>
      <trkpt lat="46.64222882129252" lon="12.328770719468594">
        <ele>2077.0700000000002</ele>
        <time>2017-03-11T13:46:12Z</time>
      </trkpt>
      <trkpt lat="46.642169393599033" lon="12.328782621771097">
        <ele>2075.6199999999999</ele>
        <time>2017-03-11T13:46:17Z</time>
      </trkpt>
      <trkpt lat="46.642144080251455" lon="12.3287910874933">
        <ele>2075.1399999999999</ele>
        <time>2017-03-11T13:46:20Z</time>
      </trkpt>
      <trkpt lat="46.642123879864812" lon="12.328793099150062">
        <ele>2074.1799999999998</ele>
        <time>2017-03-11T13:46:22Z</time>
      </trkpt>
      <trkpt lat="46.642113905400038" lon="12.328789159655571">
        <ele>2073.6999999999998</ele>
        <time>2017-03-11T13:46:23Z</time>
      </trkpt>
      <trkpt lat="46.642095800489187" lon="12.328772731125355">
        <ele>2072.7399999999998</ele>
        <time>2017-03-11T13:46:25Z</time>
      </trkpt>
      <trkpt lat="46.642004437744617" lon="12.328751608729362">
        <ele>2070.3400000000001</ele>
        <time>2017-03-11T13:46:35Z</time>
      </trkpt>
      <trkpt lat="46.642003348097205" lon="12.328779688104987">
        <ele>2069.3800000000001</ele>
        <time>2017-03-11T13:46:38Z</time>
      </trkpt>
      <trkpt lat="46.642012149095535" lon="12.328828051686287">
        <ele>2067.9299999999998</ele>
        <time>2017-03-11T13:46:41Z</time>
      </trkpt>
      <trkpt lat="46.641966048628092" lon="12.328968951478601">
        <ele>2064.5700000000002</ele>
        <time>2017-03-11T13:46:53Z</time>
      </trkpt>
      <trkpt lat="46.641963953152299" lon="12.328982781618834">
        <ele>2064.0900000000001</ele>
        <time>2017-03-11T13:46:54Z</time>
      </trkpt>
      <trkpt lat="46.641969485208392" lon="12.329157460480928">
        <ele>2061.1999999999998</ele>
        <time>2017-03-11T13:47:06Z</time>
      </trkpt>
      <trkpt lat="46.641981806606054" lon="12.329222168773413">
        <ele>2059.2800000000002</ele>
        <time>2017-03-11T13:47:12Z</time>
      </trkpt>
      <trkpt lat="46.642036372795701" lon="12.329373545944691">
        <ele>2056.8800000000001</ele>
        <time>2017-03-11T13:47:24Z</time>
      </trkpt>
      <trkpt lat="46.642008628696203" lon="12.329408917576075">
        <ele>2055.9200000000001</ele>
        <time>2017-03-11T13:47:27Z</time>
      </trkpt>
      <trkpt lat="46.641953140497208" lon="12.32938083820045">
        <ele>2054.96</ele>
        <time>2017-03-11T13:47:32Z</time>
      </trkpt>
      <trkpt lat="46.641909470781684" lon="12.329376395791769">
        <ele>2053.9899999999998</ele>
        <time>2017-03-11T13:47:36Z</time>
      </trkpt>
      <trkpt lat="46.641796818003058" lon="12.32937790453434">
        <ele>2050.6300000000001</ele>
        <time>2017-03-11T13:47:46Z</time>
      </trkpt>
      <trkpt lat="46.641725320369005" lon="12.329380922019482">
        <ele>2048.71</ele>
        <time>2017-03-11T13:47:52Z</time>
      </trkpt>
      <trkpt lat="46.641655331477523" lon="12.329342197626829">
        <ele>2046.78</ele>
        <time>2017-03-11T13:47:58Z</time>
      </trkpt>
      <trkpt lat="46.641638986766338" lon="12.329357117414474">
        <ele>2046.3</ele>
        <time>2017-03-11T13:48:00Z</time>
      </trkpt>
      <trkpt lat="46.641681483015418" lon="12.329496089369059">
        <ele>2043.9000000000001</ele>
        <time>2017-03-11T13:48:10Z</time>
      </trkpt>
      <trkpt lat="46.64169330149889" lon="12.329559540376067">
        <ele>2042.9400000000001</ele>
        <time>2017-03-11T13:48:14Z</time>
      </trkpt>
      <trkpt lat="46.641578553244472" lon="12.329533891752362">
        <ele>2041.02</ele>
        <time>2017-03-11T13:48:24Z</time>
      </trkpt>
      <trkpt lat="46.641560196876526" lon="12.329541267827153">
        <ele>2040.54</ele>
        <time>2017-03-11T13:48:26Z</time>
      </trkpt>
      <trkpt lat="46.641450980678201" lon="12.329482762143016">
        <ele>2037.6500000000001</ele>
        <time>2017-03-11T13:48:36Z</time>
      </trkpt>
      <trkpt lat="46.641428684815764" lon="12.32947027310729">
        <ele>2037.1700000000001</ele>
        <time>2017-03-11T13:48:38Z</time>
      </trkpt>
      <trkpt lat="46.641369257122278" lon="12.329437835142016">
        <ele>2035.73</ele>
        <time>2017-03-11T13:48:43Z</time>
      </trkpt>
      <trkpt lat="46.641316283494234" lon="12.329372288659215">
        <ele>2034.29</ele>
        <time>2017-03-11T13:48:49Z</time>
      </trkpt>
      <trkpt lat="46.641246797516942" lon="12.329330462962389">
        <ele>2032.3599999999999</ele>
        <time>2017-03-11T13:48:56Z</time>
      </trkpt>
      <trkpt lat="46.641208995133638" lon="12.329314202070236">
        <ele>2030.4400000000001</ele>
        <time>2017-03-11T13:49:01Z</time>
      </trkpt>
      <trkpt lat="46.641191141679883" lon="12.329363403841853">
        <ele>2029</ele>
        <time>2017-03-11T13:49:06Z</time>
      </trkpt>
      <trkpt lat="46.641180161386728" lon="12.329513523727655">
        <ele>2025.1500000000001</ele>
        <time>2017-03-11T13:49:16Z</time>
      </trkpt>
      <trkpt lat="46.641158871352673" lon="12.329630786553025">
        <ele>2022.27</ele>
        <time>2017-03-11T13:49:24Z</time>
      </trkpt>
      <trkpt lat="46.641147471964359" lon="12.329673282802105">
        <ele>2021.3099999999999</ele>
        <time>2017-03-11T13:49:27Z</time>
      </trkpt>
      <trkpt lat="46.641115201637149" lon="12.329767579212785">
        <ele>2018.9100000000001</ele>
        <time>2017-03-11T13:49:34Z</time>
      </trkpt>
      <trkpt lat="46.641112854704261" lon="12.329795826226473">
        <ele>2018.4300000000001</ele>
        <time>2017-03-11T13:49:36Z</time>
      </trkpt>
      <trkpt lat="46.641117297112942" lon="12.329903533682227">
        <ele>2016.02</ele>
        <time>2017-03-11T13:49:43Z</time>
      </trkpt>
      <trkpt lat="46.641119224950671" lon="12.329928176477551">
        <ele>2015.54</ele>
        <time>2017-03-11T13:49:45Z</time>
      </trkpt>
      <trkpt lat="46.641114028170705" lon="12.330090533941984">
        <ele>2012.1800000000001</ele>
        <time>2017-03-11T13:49:56Z</time>
      </trkpt>
      <trkpt lat="46.64112014696002" lon="12.330132946372032">
        <ele>2011.22</ele>
        <time>2017-03-11T13:49:59Z</time>
      </trkpt>
      <trkpt lat="46.641145292669535" lon="12.330287676304579">
        <ele>2008.8099999999999</ele>
        <time>2017-03-11T13:50:10Z</time>
      </trkpt>
      <trkpt lat="46.641158452257514" lon="12.330305278301239">
        <ele>2008.3299999999999</ele>
        <time>2017-03-11T13:50:12Z</time>
      </trkpt>
      <trkpt lat="46.641208492219448" lon="12.330451710149646">
        <ele>2004.97</ele>
        <time>2017-03-11T13:50:23Z</time>
      </trkpt>
      <trkpt lat="46.641219556331635" lon="12.330472497269511">
        <ele>2004.49</ele>
        <time>2017-03-11T13:50:25Z</time>
      </trkpt>
      <trkpt lat="46.641236068680882" lon="12.330495296046138">
        <ele>2004.01</ele>
        <time>2017-03-11T13:50:27Z</time>
      </trkpt>
      <trkpt lat="46.641288455575705" lon="12.330547766759992">
        <ele>2002.5599999999999</ele>
        <time>2017-03-11T13:50:33Z</time>
      </trkpt>
      <trkpt lat="46.641349978744984" lon="12.330634854733944">
        <ele>2001.5999999999999</ele>
        <time>2017-03-11T13:50:41Z</time>
      </trkpt>
      <trkpt lat="46.641364060342312" lon="12.330658743157983">
        <ele>2001.1199999999999</ele>
        <time>2017-03-11T13:50:43Z</time>
      </trkpt>
      <trkpt lat="46.641381410881877" lon="12.330675506964326">
        <ele>2000.6400000000001</ele>
        <time>2017-03-11T13:50:45Z</time>
      </trkpt>
      <trkpt lat="46.641476126387715" lon="12.330784555524588">
        <ele>1997.76</ele>
        <time>2017-03-11T13:50:57Z</time>
      </trkpt>
      <trkpt lat="46.641520634293556" lon="12.33082034625113">
        <ele>1996.3199999999999</ele>
        <time>2017-03-11T13:51:01Z</time>
      </trkpt>
      <trkpt lat="46.641599424183369" lon="12.330938614904881">
        <ele>1992.95</ele>
        <time>2017-03-11T13:51:12Z</time>
      </trkpt>
      <trkpt lat="46.641638064756989" lon="12.330983877182007">
        <ele>1991.51</ele>
        <time>2017-03-11T13:51:17Z</time>
      </trkpt>
      <trkpt lat="46.641648625954986" lon="12.331011453643441">
        <ele>1991.03</ele>
        <time>2017-03-11T13:51:19Z</time>
      </trkpt>
      <trkpt lat="46.641671592369676" lon="12.331032073125243">
        <ele>1990.0699999999999</ele>
        <time>2017-03-11T13:51:22Z</time>
      </trkpt>
      <trkpt lat="46.641701180487871" lon="12.33102947473526">
        <ele>1989.0999999999999</ele>
        <time>2017-03-11T13:51:25Z</time>
      </trkpt>
      <trkpt lat="46.641727834939957" lon="12.331069372594357">
        <ele>1988.1400000000001</ele>
        <time>2017-03-11T13:51:29Z</time>
      </trkpt>
      <trkpt lat="46.641743592917919" lon="12.331149419769645">
        <ele>1986.7</ele>
        <time>2017-03-11T13:51:34Z</time>
      </trkpt>
      <trkpt lat="46.641726577654481" lon="12.33120784163475">
        <ele>1985.74</ele>
        <time>2017-03-11T13:51:38Z</time>
      </trkpt>
      <trkpt lat="46.641615685075521" lon="12.331268107518554">
        <ele>1982.8599999999999</ele>
        <time>2017-03-11T13:51:49Z</time>
      </trkpt>
      <trkpt lat="46.64151887409389" lon="12.331328121945262">
        <ele>1980.9300000000001</ele>
        <time>2017-03-11T13:51:59Z</time>
      </trkpt>
      <trkpt lat="46.641472103074193" lon="12.331363996490836">
        <ele>1979.97</ele>
        <time>2017-03-11T13:52:04Z</time>
      </trkpt>
      <trkpt lat="46.641446622088552" lon="12.331357123330235">
        <ele>1979.97</ele>
        <time>2017-03-11T13:52:06Z</time>
      </trkpt>
      <trkpt lat="46.641376717016101" lon="12.331374976783991">
        <ele>1977.5699999999999</ele>
        <time>2017-03-11T13:52:16Z</time>
      </trkpt>
      <trkpt lat="46.641414267942309" lon="12.331425687298179">
        <ele>1976.1300000000001</ele>
        <time>2017-03-11T13:52:22Z</time>
      </trkpt>
      <trkpt lat="46.641449807211757" lon="12.331531131640077">
        <ele>1974.2</ele>
        <time>2017-03-11T13:52:30Z</time>
      </trkpt>
      <trkpt lat="46.641468750312924" lon="12.331557953730226">
        <ele>1973.24</ele>
        <time>2017-03-11T13:52:33Z</time>
      </trkpt>
      <trkpt lat="46.641502780839801" lon="12.331574885174632">
        <ele>1972.28</ele>
        <time>2017-03-11T13:52:37Z</time>
      </trkpt>
      <trkpt lat="46.641528764739633" lon="12.331620650365949">
        <ele>1970.8399999999999</ele>
        <time>2017-03-11T13:52:41Z</time>
      </trkpt>
      <trkpt lat="46.641547372564673" lon="12.331647556275129">
        <ele>1970.3599999999999</ele>
        <time>2017-03-11T13:52:44Z</time>
      </trkpt>
      <trkpt lat="46.641582492738962" lon="12.33175115659833">
        <ele>1967.96</ele>
        <time>2017-03-11T13:52:51Z</time>
      </trkpt>
      <trkpt lat="46.641606967896223" lon="12.331805555149913">
        <ele>1966.99</ele>
        <time>2017-03-11T13:52:55Z</time>
      </trkpt>
      <trkpt lat="46.641628928482533" lon="12.331816870719194">
        <ele>1966.03</ele>
        <time>2017-03-11T13:52:57Z</time>
      </trkpt>
      <trkpt lat="46.641693385317922" lon="12.331940000876784">
        <ele>1962.6700000000001</ele>
        <time>2017-03-11T13:53:08Z</time>
      </trkpt>
      <trkpt lat="46.641718447208405" lon="12.331991298124194">
        <ele>1961.23</ele>
        <time>2017-03-11T13:53:12Z</time>
      </trkpt>
      <trkpt lat="46.641754992306232" lon="12.332040583714843">
        <ele>1959.78</ele>
        <time>2017-03-11T13:53:17Z</time>
      </trkpt>
      <trkpt lat="46.641764044761658" lon="12.332065477967262">
        <ele>1958.8199999999999</ele>
        <time>2017-03-11T13:53:19Z</time>
      </trkpt>
      <trkpt lat="46.64174267090857" lon="12.332122642546892">
        <ele>1957.3800000000001</ele>
        <time>2017-03-11T13:53:23Z</time>
      </trkpt>
      <trkpt lat="46.641705622896552" lon="12.332157008349895">
        <ele>1956.9000000000001</ele>
        <time>2017-03-11T13:53:27Z</time>
      </trkpt>
      <trkpt lat="46.641686176881194" lon="12.332199420779943">
        <ele>1955.46</ele>
        <time>2017-03-11T13:53:31Z</time>
      </trkpt>
      <trkpt lat="46.641694894060493" lon="12.332237558439374">
        <ele>1954.5</ele>
        <time>2017-03-11T13:53:34Z</time>
      </trkpt>
      <trkpt lat="46.641770163550973" lon="12.332336381077766">
        <ele>1951.6099999999999</ele>
        <time>2017-03-11T13:53:45Z</time>
      </trkpt>
      <trkpt lat="46.64179153740406" lon="12.332374434918165">
        <ele>1951.1300000000001</ele>
        <time>2017-03-11T13:53:49Z</time>
      </trkpt>
      <trkpt lat="46.641797991469502" lon="12.332417014986277">
        <ele>1951.1300000000001</ele>
        <time>2017-03-11T13:53:51Z</time>
      </trkpt>
      <trkpt lat="46.641834788024426" lon="12.332507874816656">
        <ele>1949.6900000000001</ele>
        <time>2017-03-11T13:53:58Z</time>
      </trkpt>
      <trkpt lat="46.641908632591367" lon="12.332641649991274">
        <ele>1949.21</ele>
        <time>2017-03-11T13:54:08Z</time>
      </trkpt>
      <trkpt lat="46.641976945102215" lon="12.33276603743434">
        <ele>1948.25</ele>
        <time>2017-03-11T13:54:18Z</time>
      </trkpt>
      <trkpt lat="46.642016004770994" lon="12.332830661907792">
        <ele>1947.77</ele>
        <time>2017-03-11T13:54:23Z</time>
      </trkpt>
      <trkpt lat="46.642026314511895" lon="12.332862764596939">
        <ele>1947.77</ele>
        <time>2017-03-11T13:54:25Z</time>
      </trkpt>
      <trkpt lat="46.642035199329257" lon="12.332885563373566">
        <ele>1947.77</ele>
        <time>2017-03-11T13:54:27Z</time>
      </trkpt>
      <trkpt lat="46.642035534605384" lon="12.332965526729822">
        <ele>1946.8099999999999</ele>
        <time>2017-03-11T13:54:32Z</time>
      </trkpt>
      <trkpt lat="46.642038971185684" lon="12.333001065999269">
        <ele>1946.8099999999999</ele>
        <time>2017-03-11T13:54:34Z</time>
      </trkpt>
      <trkpt lat="46.642061937600374" lon="12.333055213093758">
        <ele>1945.8499999999999</ele>
        <time>2017-03-11T13:54:38Z</time>
      </trkpt>
      <trkpt lat="46.642088005319238" lon="12.333142552524805">
        <ele>1944.4000000000001</ele>
        <time>2017-03-11T13:54:44Z</time>
      </trkpt>
      <trkpt lat="46.642108960077167" lon="12.333184629678726">
        <ele>1943.9200000000001</ele>
        <time>2017-03-11T13:54:47Z</time>
      </trkpt>
      <trkpt lat="46.642130920663476" lon="12.333321757614613">
        <ele>1942.96</ele>
        <time>2017-03-11T13:54:55Z</time>
      </trkpt>
      <trkpt lat="46.642191354185343" lon="12.333467518910766">
        <ele>1941.52</ele>
        <time>2017-03-11T13:55:06Z</time>
      </trkpt>
      <trkpt lat="46.642199568450451" lon="12.333621410652995">
        <ele>1939.1199999999999</ele>
        <time>2017-03-11T13:55:15Z</time>
      </trkpt>
      <trkpt lat="46.642228402197361" lon="12.333795335143805">
        <ele>1936.23</ele>
        <time>2017-03-11T13:55:26Z</time>
      </trkpt>
      <trkpt lat="46.642258074134588" lon="12.333928691223264">
        <ele>1933.3499999999999</ele>
        <time>2017-03-11T13:55:35Z</time>
      </trkpt>
      <trkpt lat="46.642272155731916" lon="12.333993399515748">
        <ele>1931.9100000000001</ele>
        <time>2017-03-11T13:55:39Z</time>
      </trkpt>
      <trkpt lat="46.642282716929913" lon="12.334018042311072">
        <ele>1931.4300000000001</ele>
        <time>2017-03-11T13:55:41Z</time>
      </trkpt>
      <trkpt lat="46.642285566776991" lon="12.334048133343458">
        <ele>1930.46</ele>
        <time>2017-03-11T13:55:43Z</time>
      </trkpt>
      <trkpt lat="46.642317920923233" lon="12.334095323458314">
        <ele>1929.5</ele>
        <time>2017-03-11T13:55:47Z</time>
      </trkpt>
      <trkpt lat="46.642402159050107" lon="12.334210826084018">
        <ele>1927.5799999999999</ele>
        <time>2017-03-11T13:55:57Z</time>
      </trkpt>
      <trkpt lat="46.64250148460269" lon="12.334289196878672">
        <ele>1925.1800000000001</ele>
        <time>2017-03-11T13:56:07Z</time>
      </trkpt>
      <trkpt lat="46.642517577856779" lon="12.334321551024914">
        <ele>1924.7</ele>
        <time>2017-03-11T13:56:09Z</time>
      </trkpt>
      <trkpt lat="46.642536772415042" lon="12.33436631038785">
        <ele>1924.22</ele>
        <time>2017-03-11T13:56:12Z</time>
      </trkpt>
      <trkpt lat="46.642588656395674" lon="12.334514418616891">
        <ele>1922.77</ele>
        <time>2017-03-11T13:56:22Z</time>
      </trkpt>
      <trkpt lat="46.64260508492589" lon="12.334538139402866">
        <ele>1922.29</ele>
        <time>2017-03-11T13:56:24Z</time>
      </trkpt>
      <trkpt lat="46.6427047457546" lon="12.334681050851941">
        <ele>1919.8900000000001</ele>
        <time>2017-03-11T13:56:36Z</time>
      </trkpt>
      <trkpt lat="46.642727376893163" lon="12.334715165197849">
        <ele>1919.4100000000001</ele>
        <time>2017-03-11T13:56:39Z</time>
      </trkpt>
      <trkpt lat="46.642761910334229" lon="12.33475380577147">
        <ele>1918.45</ele>
        <time>2017-03-11T13:56:43Z</time>
      </trkpt>
      <trkpt lat="46.642852770164609" lon="12.334748189896345">
        <ele>1916.53</ele>
        <time>2017-03-11T13:56:52Z</time>
      </trkpt>
      <trkpt lat="46.642892500385642" lon="12.33477434143424">
        <ele>1915.5599999999999</ele>
        <time>2017-03-11T13:56:56Z</time>
      </trkpt>
      <trkpt lat="46.642915885895491" lon="12.334817927330732">
        <ele>1914.5999999999999</ele>
        <time>2017-03-11T13:56:59Z</time>
      </trkpt>
      <trkpt lat="46.642931727692485" lon="12.334841396659613">
        <ele>1913.6400000000001</ele>
        <time>2017-03-11T13:57:01Z</time>
      </trkpt>
      <trkpt lat="46.642942372709513" lon="12.334871655330062">
        <ele>1913.1600000000001</ele>
        <time>2017-03-11T13:57:03Z</time>
      </trkpt>
      <trkpt lat="46.642976487055421" lon="12.334917923435569">
        <ele>1910.76</ele>
        <time>2017-03-11T13:57:07Z</time>
      </trkpt>
      <trkpt lat="46.642991071566939" lon="12.334947343915701">
        <ele>1910.28</ele>
        <time>2017-03-11T13:57:09Z</time>
      </trkpt>
      <trkpt lat="46.643071370199323" lon="12.335029570385814">
        <ele>1906.4300000000001</ele>
        <time>2017-03-11T13:57:19Z</time>
      </trkpt>
      <trkpt lat="46.643094001337886" lon="12.335031246766448">
        <ele>1905.95</ele>
        <time>2017-03-11T13:57:21Z</time>
      </trkpt>
      <trkpt lat="46.643096348270774" lon="12.335062762722373">
        <ele>1905.47</ele>
        <time>2017-03-11T13:57:23Z</time>
      </trkpt>
      <trkpt lat="46.643078830093145" lon="12.335083046928048">
        <ele>1905.47</ele>
        <time>2017-03-11T13:57:25Z</time>
      </trkpt>
      <trkpt lat="46.642998866736889" lon="12.335120346397161">
        <ele>1903.0699999999999</ele>
        <time>2017-03-11T13:57:33Z</time>
      </trkpt>
      <trkpt lat="46.642870288342237" lon="12.335130320861936">
        <ele>1899.7</ele>
        <time>2017-03-11T13:57:44Z</time>
      </trkpt>
      <trkpt lat="46.642848998308182" lon="12.335148090496659">
        <ele>1898.74</ele>
        <time>2017-03-11T13:57:46Z</time>
      </trkpt>
      <trkpt lat="46.642825780436397" lon="12.335186982527375">
        <ele>1897.3</ele>
        <time>2017-03-11T13:57:49Z</time>
      </trkpt>
      <trkpt lat="46.642824020236731" lon="12.335215145722032">
        <ele>1896.3399999999999</ele>
        <time>2017-03-11T13:57:51Z</time>
      </trkpt>
      <trkpt lat="46.642896439880133" lon="12.335251271724701">
        <ele>1894.4200000000001</ele>
        <time>2017-03-11T13:57:58Z</time>
      </trkpt>
      <trkpt lat="46.64295980706811" lon="12.335263760760427">
        <ele>1892.97</ele>
        <time>2017-03-11T13:58:04Z</time>
      </trkpt>
      <trkpt lat="46.64304630830884" lon="12.335331654176116">
        <ele>1890.5699999999999</ele>
        <time>2017-03-11T13:58:12Z</time>
      </trkpt>
      <trkpt lat="46.643177065998316" lon="12.335388986393809">
        <ele>1887.21</ele>
        <time>2017-03-11T13:58:23Z</time>
      </trkpt>
      <trkpt lat="46.643221992999315" lon="12.335418406873941">
        <ele>1886.24</ele>
        <time>2017-03-11T13:58:27Z</time>
      </trkpt>
      <trkpt lat="46.643251832574606" lon="12.335445564240217">
        <ele>1885.28</ele>
        <time>2017-03-11T13:58:30Z</time>
      </trkpt>
      <trkpt lat="46.64339424110949" lon="12.335531562566757">
        <ele>1882.8800000000001</ele>
        <time>2017-03-11T13:58:42Z</time>
      </trkpt>
      <trkpt lat="46.643457021564245" lon="12.335605407133698">
        <ele>1881.9200000000001</ele>
        <time>2017-03-11T13:58:48Z</time>
      </trkpt>
      <trkpt lat="46.643520891666412" lon="12.335652261972427">
        <ele>1880.96</ele>
        <time>2017-03-11T13:58:54Z</time>
      </trkpt>
      <trkpt lat="46.643544528633356" lon="12.335700206458569">
        <ele>1880.96</ele>
        <time>2017-03-11T13:58:57Z</time>
      </trkpt>
      <trkpt lat="46.643565399572253" lon="12.335789725184441">
        <ele>1880</ele>
        <time>2017-03-11T13:59:02Z</time>
      </trkpt>
      <trkpt lat="46.643581492826343" lon="12.33602131716907">
        <ele>1878.55</ele>
        <time>2017-03-11T13:59:15Z</time>
      </trkpt>
      <trkpt lat="46.64358526468277" lon="12.33619918115437">
        <ele>1877.5899999999999</ele>
        <time>2017-03-11T13:59:25Z</time>
      </trkpt>
      <trkpt lat="46.643612757325172" lon="12.336381152272224">
        <ele>1876.6300000000001</ele>
        <time>2017-03-11T13:59:36Z</time>
      </trkpt>
      <trkpt lat="46.643630946055055" lon="12.336443513631821">
        <ele>1876.1500000000001</ele>
        <time>2017-03-11T13:59:40Z</time>
      </trkpt>
      <trkpt lat="46.643636645749211" lon="12.336473101750016">
        <ele>1876.6300000000001</ele>
        <time>2017-03-11T13:59:42Z</time>
      </trkpt>
      <trkpt lat="46.643707053735852" lon="12.336629927158356">
        <ele>1875.6700000000001</ele>
        <time>2017-03-11T13:59:53Z</time>
      </trkpt>
      <trkpt lat="46.643713423982263" lon="12.33664333820343">
        <ele>1876.1500000000001</ele>
        <time>2017-03-11T13:59:54Z</time>
      </trkpt>
      <trkpt lat="46.643732618540525" lon="12.336741657927632">
        <ele>1873.75</ele>
        <time>2017-03-11T14:00:00Z</time>
      </trkpt>
      <trkpt lat="46.643758183345199" lon="12.336768312379718">
        <ele>1873.75</ele>
        <time>2017-03-11T14:00:03Z</time>
      </trkpt>
      <trkpt lat="46.643788944929838" lon="12.336866548284888">
        <ele>1872.79</ele>
        <time>2017-03-11T14:00:09Z</time>
      </trkpt>
      <trkpt lat="46.643793890252709" lon="12.336958833038807">
        <ele>1872.3</ele>
        <time>2017-03-11T14:00:14Z</time>
      </trkpt>
      <trkpt lat="46.643795482814312" lon="12.337043071165681">
        <ele>1872.79</ele>
        <time>2017-03-11T14:00:19Z</time>
      </trkpt>
      <trkpt lat="46.643799170851707" lon="12.337209032848477">
        <ele>1873.27</ele>
        <time>2017-03-11T14:00:30Z</time>
      </trkpt>
      <trkpt lat="46.64379732683301" lon="12.337223365902901">
        <ele>1873.75</ele>
        <time>2017-03-11T14:00:31Z</time>
      </trkpt>
      <trkpt lat="46.643753657117486" lon="12.337334342300892">
        <ele>1872.3</ele>
        <time>2017-03-11T14:00:44Z</time>
      </trkpt>
      <trkpt lat="46.643731025978923" lon="12.3373132199049">
        <ele>1871.8199999999999</ele>
        <time>2017-03-11T14:00:55Z</time>
      </trkpt>
      <trkpt lat="46.643723230808973" lon="12.337279692292213">
        <ele>1872.3</ele>
        <time>2017-03-11T14:01:08Z</time>
      </trkpt>
      <trkpt lat="46.643738318234682" lon="12.337283883243799">
        <ele>1871.3399999999999</ele>
        <time>2017-03-11T14:01:23Z</time>
      </trkpt>
      <trkpt lat="46.643727589398623" lon="12.337270472198725">
        <ele>1872.79</ele>
        <time>2017-03-11T14:01:39Z</time>
      </trkpt>
      <trkpt lat="46.643705628812313" lon="12.337270136922598">
        <ele>1872.3</ele>
        <time>2017-03-11T14:01:53Z</time>
      </trkpt>
      <trkpt lat="46.643711999058723" lon="12.337263263761997">
        <ele>1872.79</ele>
        <time>2017-03-11T14:02:08Z</time>
      </trkpt>
      <trkpt lat="46.643698504194617" lon="12.337283967062831">
        <ele>1872.79</ele>
        <time>2017-03-11T14:02:23Z</time>
      </trkpt>
      <trkpt lat="46.643702192232013" lon="12.337299138307571">
        <ele>1872.79</ele>
        <time>2017-03-11T14:02:40Z</time>
      </trkpt>
      <trkpt lat="46.643706047907472" lon="12.33731179498136">
        <ele>1872.79</ele>
        <time>2017-03-11T14:02:54Z</time>
      </trkpt>
      <trkpt lat="46.643666820600629" lon="12.337330486625433">
        <ele>1872.79</ele>
        <time>2017-03-11T14:03:13Z</time>
      </trkpt>
      <trkpt lat="46.643693642690778" lon="12.337347753345966">
        <ele>1872.79</ele>
        <time>2017-03-11T14:03:24Z</time>
      </trkpt>
      <trkpt lat="46.643724571913481" lon="12.337302658706903">
        <ele>1871.8199999999999</ele>
        <time>2017-03-11T14:03:37Z</time>
      </trkpt>
      <trkpt lat="46.643718704581261" lon="12.337280781939626">
        <ele>1873.27</ele>
        <time>2017-03-11T14:03:51Z</time>
      </trkpt>
      <trkpt lat="46.643707891926169" lon="12.337268041446805">
        <ele>1873.27</ele>
        <time>2017-03-11T14:04:05Z</time>
      </trkpt>
      <trkpt lat="46.643723733723164" lon="12.337310872972012">
        <ele>1871.8199999999999</ele>
        <time>2017-03-11T14:04:18Z</time>
      </trkpt>
      <trkpt lat="46.643724907189608" lon="12.33731472864747">
        <ele>1873.27</ele>
        <time>2017-03-11T14:04:37Z</time>
      </trkpt>
      <trkpt lat="46.643708059564233" lon="12.337323781102896">
        <ele>1872.79</ele>
        <time>2017-03-11T14:04:55Z</time>
      </trkpt>
      <trkpt lat="46.64370889775455" lon="12.337303245440125">
        <ele>1872.3</ele>
        <time>2017-03-11T14:05:10Z</time>
      </trkpt>
      <trkpt lat="46.643690457567573" lon="12.337330402806401">
        <ele>1873.75</ele>
        <time>2017-03-11T14:05:23Z</time>
      </trkpt>
      <trkpt lat="46.643703198060393" lon="12.337291426956654">
        <ele>1873.27</ele>
        <time>2017-03-11T14:05:41Z</time>
      </trkpt>
      <trkpt lat="46.643688781186938" lon="12.337295701727271">
        <ele>1874.71</ele>
        <time>2017-03-11T14:05:57Z</time>
      </trkpt>
      <trkpt lat="46.643713759258389" lon="12.337297797203064">
        <ele>1873.75</ele>
        <time>2017-03-11T14:06:12Z</time>
      </trkpt>
      <trkpt lat="46.643714010715485" lon="12.337312214076519">
        <ele>1873.75</ele>
        <time>2017-03-11T14:06:27Z</time>
      </trkpt>
      <trkpt lat="46.643713172525167" lon="12.337316824123263">
        <ele>1873.75</ele>
        <time>2017-03-11T14:06:37Z</time>
      </trkpt>
      <trkpt lat="46.643681405112147" lon="12.337312214076519">
        <ele>1874.23</ele>
        <time>2017-03-11T14:06:57Z</time>
      </trkpt>
      <trkpt lat="46.643683249130845" lon="12.337326463311911">
        <ele>1870.8599999999999</ele>
        <time>2017-03-11T14:07:12Z</time>
      </trkpt>
      <trkpt lat="46.643684590235353" lon="12.337322607636452">
        <ele>1876.1500000000001</ele>
        <time>2017-03-11T14:07:14Z</time>
      </trkpt>
      <trkpt lat="46.643685512244701" lon="12.337310872972012">
        <ele>1875.1900000000001</ele>
        <time>2017-03-11T14:07:15Z</time>
      </trkpt>
      <trkpt lat="46.643690373748541" lon="12.337321098893881">
        <ele>1873.75</ele>
        <time>2017-03-11T14:07:18Z</time>
      </trkpt>
      <trkpt lat="46.643693391233683" lon="12.33732839114964">
        <ele>1873.75</ele>
        <time>2017-03-11T14:07:30Z</time>
      </trkpt>
      <trkpt lat="46.643682159483433" lon="12.337339790537953">
        <ele>1874.23</ele>
        <time>2017-03-11T14:07:46Z</time>
      </trkpt>
      <trkpt lat="46.643680483102798" lon="12.33732839114964">
        <ele>1874.23</ele>
        <time>2017-03-11T14:07:59Z</time>
      </trkpt>
      <trkpt lat="46.643690289929509" lon="12.337333336472511">
        <ele>1874.23</ele>
        <time>2017-03-11T14:08:12Z</time>
      </trkpt>
      <trkpt lat="46.643691463395953" lon="12.33734305948019">
        <ele>1874.23</ele>
        <time>2017-03-11T14:08:30Z</time>
      </trkpt>
      <trkpt lat="46.643707053735852" lon="12.337320344522595">
        <ele>1874.23</ele>
        <time>2017-03-11T14:08:48Z</time>
      </trkpt>
      <trkpt lat="46.643663970753551" lon="12.337312633171678">
        <ele>1874.71</ele>
        <time>2017-03-11T14:09:09Z</time>
      </trkpt>
      <trkpt lat="46.643691631034017" lon="12.337307939305902">
        <ele>1874.71</ele>
        <time>2017-03-11T14:09:33Z</time>
      </trkpt>
      <trkpt lat="46.643678890541196" lon="12.337273322045803">
        <ele>1874.71</ele>
        <time>2017-03-11T14:09:46Z</time>
      </trkpt>
      <trkpt lat="46.643683584406972" lon="12.337257899343967">
        <ele>1877.5899999999999</ele>
        <time>2017-03-11T14:09:49Z</time>
      </trkpt>
      <trkpt lat="46.643693558871746" lon="12.337317075580359">
        <ele>1874.71</ele>
        <time>2017-03-11T14:09:52Z</time>
      </trkpt>
      <trkpt lat="46.643682075664401" lon="12.337328307330608">
        <ele>1874.71</ele>
        <time>2017-03-11T14:10:16Z</time>
      </trkpt>
      <trkpt lat="46.643695905804634" lon="12.337352782487869">
        <ele>1874.71</ele>
        <time>2017-03-11T14:10:18Z</time>
      </trkpt>
      <trkpt lat="46.643718620762229" lon="12.337549421936274">
        <ele>1873.75</ele>
        <time>2017-03-11T14:10:29Z</time>
      </trkpt>
      <trkpt lat="46.643725745379925" lon="12.337586721405387">
        <ele>1873.27</ele>
        <time>2017-03-11T14:10:31Z</time>
      </trkpt>
      <trkpt lat="46.643735803663731" lon="12.337619997560978">
        <ele>1872.79</ele>
        <time>2017-03-11T14:10:33Z</time>
      </trkpt>
      <trkpt lat="46.643732450902462" lon="12.337765591219068">
        <ele>1871.3399999999999</ele>
        <time>2017-03-11T14:10:41Z</time>
      </trkpt>
      <trkpt lat="46.643728762865067" lon="12.337789898738265">
        <ele>1871.3399999999999</ele>
        <time>2017-03-11T14:10:43Z</time>
      </trkpt>
      <trkpt lat="46.643734546378255" lon="12.337957117706537">
        <ele>1870.8599999999999</ele>
        <time>2017-03-11T14:10:53Z</time>
      </trkpt>
      <trkpt lat="46.643747454509139" lon="12.338043535128236">
        <ele>1869.9000000000001</ele>
        <time>2017-03-11T14:10:58Z</time>
      </trkpt>
      <trkpt lat="46.643771342933178" lon="12.338178902864456">
        <ele>1868.46</ele>
        <time>2017-03-11T14:11:06Z</time>
      </trkpt>
      <trkpt lat="46.643804786726832" lon="12.338375793769956">
        <ele>1867.5</ele>
        <time>2017-03-11T14:11:18Z</time>
      </trkpt>
      <trkpt lat="46.643848037347198" lon="12.33852113597095">
        <ele>1866.0599999999999</ele>
        <time>2017-03-11T14:11:27Z</time>
      </trkpt>
      <trkpt lat="46.643895478919148" lon="12.33867502771318">
        <ele>1865.5799999999999</ele>
        <time>2017-03-11T14:11:37Z</time>
      </trkpt>
      <trkpt lat="46.643915176391602" lon="12.338839899748564">
        <ele>1863.6500000000001</ele>
        <time>2017-03-11T14:11:46Z</time>
      </trkpt>
      <trkpt lat="46.643923977389932" lon="12.338931765407324">
        <ele>1863.6500000000001</ele>
        <time>2017-03-11T14:11:51Z</time>
      </trkpt>
      <trkpt lat="46.643962701782584" lon="12.33912656083703">
        <ele>1862.21</ele>
        <time>2017-03-11T14:12:02Z</time>
      </trkpt>
      <trkpt lat="46.644017435610294" lon="12.339252289384604">
        <ele>1862.6900000000001</ele>
        <time>2017-03-11T14:12:12Z</time>
      </trkpt>
      <trkpt lat="46.644116090610623" lon="12.339382963255048">
        <ele>1861.73</ele>
        <time>2017-03-11T14:12:23Z</time>
      </trkpt>
      <trkpt lat="46.644178200513124" lon="12.339534508064389">
        <ele>1861.73</ele>
        <time>2017-03-11T14:12:34Z</time>
      </trkpt>
      <trkpt lat="46.644240729510784" lon="12.339685130864382">
        <ele>1861.73</ele>
        <time>2017-03-11T14:12:45Z</time>
      </trkpt>
      <trkpt lat="46.644259672611952" lon="12.339724861085415">
        <ele>1861.25</ele>
        <time>2017-03-11T14:12:48Z</time>
      </trkpt>
      <trkpt lat="46.644283728674054" lon="12.339800633490086">
        <ele>1861.25</ele>
        <time>2017-03-11T14:12:53Z</time>
      </trkpt>
      <trkpt lat="46.644292948767543" lon="12.339839022606611">
        <ele>1860.77</ele>
        <time>2017-03-11T14:12:55Z</time>
      </trkpt>
      <trkpt lat="46.644356399774551" lon="12.340000877156854">
        <ele>1857.8900000000001</ele>
        <time>2017-03-11T14:13:06Z</time>
      </trkpt>
      <trkpt lat="46.64443057961762" lon="12.340161055326462">
        <ele>1854.52</ele>
        <time>2017-03-11T14:13:18Z</time>
      </trkpt>
      <trkpt lat="46.64443451911211" lon="12.340190475806594">
        <ele>1854.04</ele>
        <time>2017-03-11T14:13:20Z</time>
      </trkpt>
      <trkpt lat="46.644457150250673" lon="12.340230038389564">
        <ele>1852.5999999999999</ele>
        <time>2017-03-11T14:13:24Z</time>
      </trkpt>
      <trkpt lat="46.644412139430642" lon="12.340367920696735">
        <ele>1849.23</ele>
        <time>2017-03-11T14:13:33Z</time>
      </trkpt>
      <trkpt lat="46.644398728385568" lon="12.340396167710423">
        <ele>1848.27</ele>
        <time>2017-03-11T14:13:35Z</time>
      </trkpt>
      <trkpt lat="46.644433680921793" lon="12.340509658679366">
        <ele>1845.8699999999999</ele>
        <time>2017-03-11T14:13:42Z</time>
      </trkpt>
      <trkpt lat="46.644441140815616" lon="12.340573947876692">
        <ele>1844.9100000000001</ele>
        <time>2017-03-11T14:13:46Z</time>
      </trkpt>
      <trkpt lat="46.644485145807266" lon="12.340794643387198">
        <ele>1842.5</ele>
        <time>2017-03-11T14:13:58Z</time>
      </trkpt>
      <trkpt lat="46.644493779167533" lon="12.340881563723087">
        <ele>1841.0599999999999</ele>
        <time>2017-03-11T14:14:03Z</time>
      </trkpt>
      <trkpt lat="46.644559493288398" lon="12.340983990579844">
        <ele>1837.7</ele>
        <time>2017-03-11T14:14:12Z</time>
      </trkpt>
      <trkpt lat="46.644576760008931" lon="12.341030091047287">
        <ele>1836.74</ele>
        <time>2017-03-11T14:14:15Z</time>
      </trkpt>
      <trkpt lat="46.644604587927461" lon="12.341059511527419">
        <ele>1836.26</ele>
        <time>2017-03-11T14:14:18Z</time>
      </trkpt>
      <trkpt lat="46.644653873518109" lon="12.341138636693358">
        <ele>1835.29</ele>
        <time>2017-03-11T14:14:24Z</time>
      </trkpt>
      <trkpt lat="46.644710954278708" lon="12.341145928949118">
        <ele>1834.8099999999999</ele>
        <time>2017-03-11T14:14:29Z</time>
      </trkpt>
      <trkpt lat="46.64474087767303" lon="12.341162441298366">
        <ele>1834.3299999999999</ele>
        <time>2017-03-11T14:14:32Z</time>
      </trkpt>
      <trkpt lat="46.64482050575316" lon="12.341317422688007">
        <ele>1832.8900000000001</ele>
        <time>2017-03-11T14:14:43Z</time>
      </trkpt>
      <trkpt lat="46.644842801615596" lon="12.341382885351777">
        <ele>1832.4100000000001</ele>
        <time>2017-03-11T14:14:48Z</time>
      </trkpt>
      <trkpt lat="46.644844226539135" lon="12.341475924476981">
        <ele>1830.01</ele>
        <time>2017-03-11T14:14:54Z</time>
      </trkpt>
      <trkpt lat="46.644880939275026" lon="12.34167474322021">
        <ele>1826.1600000000001</ele>
        <time>2017-03-11T14:15:07Z</time>
      </trkpt>
      <trkpt lat="46.644913712516427" lon="12.341736769303679">
        <ele>1825.2</ele>
        <time>2017-03-11T14:15:12Z</time>
      </trkpt>
      <trkpt lat="46.644946904852986" lon="12.341776750981808">
        <ele>1825.2</ele>
        <time>2017-03-11T14:15:16Z</time>
      </trkpt>
      <trkpt lat="46.644967021420598" lon="12.341786473989487">
        <ele>1824.72</ele>
        <time>2017-03-11T14:15:18Z</time>
      </trkpt>
      <trkpt lat="46.645007338374853" lon="12.3417978733778">
        <ele>1824.24</ele>
        <time>2017-03-11T14:15:22Z</time>
      </trkpt>
      <trkpt lat="46.645084703341126" lon="12.341814134269953">
        <ele>1823.28</ele>
        <time>2017-03-11T14:15:29Z</time>
      </trkpt>
      <trkpt lat="46.645112866535783" lon="12.341899294406176">
        <ele>1822.3199999999999</ele>
        <time>2017-03-11T14:15:34Z</time>
      </trkpt>
      <trkpt lat="46.645153854042292" lon="12.341926619410515">
        <ele>1821.3499999999999</ele>
        <time>2017-03-11T14:15:38Z</time>
      </trkpt>
      <trkpt lat="46.645164163783193" lon="12.341965259984136">
        <ele>1820.8699999999999</ele>
        <time>2017-03-11T14:15:40Z</time>
      </trkpt>
      <trkpt lat="46.645195847377181" lon="12.342021921649575">
        <ele>1819.4300000000001</ele>
        <time>2017-03-11T14:15:44Z</time>
      </trkpt>
      <trkpt lat="46.645232476294041" lon="12.342096688225865">
        <ele>1817.99</ele>
        <time>2017-03-11T14:15:49Z</time>
      </trkpt>
      <trkpt lat="46.645322414115071" lon="12.342194840312004">
        <ele>1815.5899999999999</ele>
        <time>2017-03-11T14:15:59Z</time>
      </trkpt>
      <trkpt lat="46.645357450470328" lon="12.342327274382114">
        <ele>1812.22</ele>
        <time>2017-03-11T14:16:08Z</time>
      </trkpt>
      <trkpt lat="46.645368011668324" lon="12.342349234968424">
        <ele>1811.26</ele>
        <time>2017-03-11T14:16:10Z</time>
      </trkpt>
      <trkpt lat="46.645382763817906" lon="12.342377817258239">
        <ele>1810.78</ele>
        <time>2017-03-11T14:16:12Z</time>
      </trkpt>
      <trkpt lat="46.645397935062647" lon="12.342495918273926">
        <ele>1808.3800000000001</ele>
        <time>2017-03-11T14:16:19Z</time>
      </trkpt>
      <trkpt lat="46.645477563142776" lon="12.342675710096955">
        <ele>1804.53</ele>
        <time>2017-03-11T14:16:32Z</time>
      </trkpt>
      <trkpt lat="46.645491225644946" lon="12.342726923525333">
        <ele>1803.0899999999999</ele>
        <time>2017-03-11T14:16:36Z</time>
      </trkpt>
      <trkpt lat="46.645506480708718" lon="12.342739328742027">
        <ele>1802.6099999999999</ele>
        <time>2017-03-11T14:16:38Z</time>
      </trkpt>
      <trkpt lat="46.645536236464977" lon="12.342839827761054">
        <ele>1800.21</ele>
        <time>2017-03-11T14:16:45Z</time>
      </trkpt>
      <trkpt lat="46.645534643903375" lon="12.342871678993106">
        <ele>1799.24</ele>
        <time>2017-03-11T14:16:47Z</time>
      </trkpt>
      <trkpt lat="46.645588790997863" lon="12.342963879927993">
        <ele>1796.8399999999999</ele>
        <time>2017-03-11T14:16:55Z</time>
      </trkpt>
      <trkpt lat="46.645518885925412" lon="12.342985756695271">
        <ele>1794.9200000000001</ele>
        <time>2017-03-11T14:17:01Z</time>
      </trkpt>
      <trkpt lat="46.645490555092692" lon="12.343015177175403">
        <ele>1793.96</ele>
        <time>2017-03-11T14:17:04Z</time>
      </trkpt>
      <trkpt lat="46.645417381078005" lon="12.343026744201779">
        <ele>1792.03</ele>
        <time>2017-03-11T14:17:10Z</time>
      </trkpt>
      <trkpt lat="46.645389972254634" lon="12.343032360076904">
        <ele>1791.55</ele>
        <time>2017-03-11T14:17:12Z</time>
      </trkpt>
      <trkpt lat="46.64534236304462" lon="12.343028085306287">
        <ele>1790.5899999999999</ele>
        <time>2017-03-11T14:17:16Z</time>
      </trkpt>
      <trkpt lat="46.645231889560819" lon="12.343111066147685">
        <ele>1787.23</ele>
        <time>2017-03-11T14:17:28Z</time>
      </trkpt>
      <trkpt lat="46.645246893167496" lon="12.343124561011791">
        <ele>1786.75</ele>
        <time>2017-03-11T14:17:30Z</time>
      </trkpt>
      <trkpt lat="46.645275307819247" lon="12.343135373666883">
        <ele>1786.27</ele>
        <time>2017-03-11T14:17:33Z</time>
      </trkpt>
      <trkpt lat="46.64535753428936" lon="12.343232352286577">
        <ele>1782.9000000000001</ele>
        <time>2017-03-11T14:17:43Z</time>
      </trkpt>
      <trkpt lat="46.645382344722748" lon="12.343308962881565">
        <ele>1780.98</ele>
        <time>2017-03-11T14:17:48Z</time>
      </trkpt>
      <trkpt lat="46.645432971417904" lon="12.343347938731313">
        <ele>1779.54</ele>
        <time>2017-03-11T14:18:00Z</time>
      </trkpt>
      <trkpt lat="46.645495751872659" lon="12.343425638973713">
        <ele>1776.6500000000001</ele>
        <time>2017-03-11T14:18:08Z</time>
      </trkpt>
      <trkpt lat="46.645503714680672" lon="12.343430081382394">
        <ele>1776.1700000000001</ele>
        <time>2017-03-11T14:18:09Z</time>
      </trkpt>
      <trkpt lat="46.645513605326414" lon="12.343433098867536">
        <ele>1776.1700000000001</ele>
        <time>2017-03-11T14:18:10Z</time>
      </trkpt>
      <trkpt lat="46.645555011928082" lon="12.343515325337648">
        <ele>1774.25</ele>
        <time>2017-03-11T14:18:20Z</time>
      </trkpt>
      <trkpt lat="46.645560376346111" lon="12.343514319509268">
        <ele>1774.25</ele>
        <time>2017-03-11T14:18:32Z</time>
      </trkpt>
      <trkpt lat="46.64556423202157" lon="12.343527898192406">
        <ele>1773.77</ele>
        <time>2017-03-11T14:18:47Z</time>
      </trkpt>
      <trkpt lat="46.645604548975825" lon="12.343557821586728">
        <ele>1772.3299999999999</ele>
        <time>2017-03-11T14:18:55Z</time>
      </trkpt>
      <trkpt lat="46.645599771291018" lon="12.343589756637812">
        <ele>1771.3699999999999</ele>
        <time>2017-03-11T14:18:58Z</time>
      </trkpt>
      <trkpt lat="46.645540343597531" lon="12.343650525435805">
        <ele>1768.48</ele>
        <time>2017-03-11T14:19:08Z</time>
      </trkpt>
      <trkpt lat="46.645518383011222" lon="12.343685477972031">
        <ele>1767.52</ele>
        <time>2017-03-11T14:19:12Z</time>
      </trkpt>
      <trkpt lat="46.645415788516402" lon="12.343727052211761">
        <ele>1765.1199999999999</ele>
        <time>2017-03-11T14:19:23Z</time>
      </trkpt>
      <trkpt lat="46.645397935062647" lon="12.343740127980709">
        <ele>1764.6400000000001</ele>
        <time>2017-03-11T14:19:28Z</time>
      </trkpt>
      <trkpt lat="46.645369604229927" lon="12.343782540410757">
        <ele>1763.2</ele>
        <time>2017-03-11T14:19:32Z</time>
      </trkpt>
      <trkpt lat="46.645357701927423" lon="12.343803662806749">
        <ele>1762.71</ele>
        <time>2017-03-11T14:19:34Z</time>
      </trkpt>
      <trkpt lat="46.645343452692032" lon="12.343857390806079">
        <ele>1759.8299999999999</ele>
        <time>2017-03-11T14:19:41Z</time>
      </trkpt>
      <trkpt lat="46.645420314744115" lon="12.343925032764673">
        <ele>1756.47</ele>
        <time>2017-03-11T14:19:51Z</time>
      </trkpt>
      <trkpt lat="46.645469097420573" lon="12.343995189294219">
        <ele>1754.54</ele>
        <time>2017-03-11T14:19:58Z</time>
      </trkpt>
      <trkpt lat="46.645519472658634" lon="12.344092922285199">
        <ele>1752.1400000000001</ele>
        <time>2017-03-11T14:20:07Z</time>
      </trkpt>
      <trkpt lat="46.645532883703709" lon="12.344145309180021">
        <ele>1750.7</ele>
        <time>2017-03-11T14:20:10Z</time>
      </trkpt>
      <trkpt lat="46.645553670823574" lon="12.344161570072174">
        <ele>1750.22</ele>
        <time>2017-03-11T14:20:12Z</time>
      </trkpt>
      <trkpt lat="46.645631203427911" lon="12.344286041334271">
        <ele>1747.3299999999999</ele>
        <time>2017-03-11T14:20:23Z</time>
      </trkpt>
      <trkpt lat="46.645658863708377" lon="12.344330130144954">
        <ele>1746.3699999999999</ele>
        <time>2017-03-11T14:20:27Z</time>
      </trkpt>
      <trkpt lat="46.645670933648944" lon="12.344367345795035">
        <ele>1744.9300000000001</ele>
        <time>2017-03-11T14:20:30Z</time>
      </trkpt>
      <trkpt lat="46.645692139863968" lon="12.344396347180009">
        <ele>1743.97</ele>
        <time>2017-03-11T14:20:33Z</time>
      </trkpt>
      <trkpt lat="46.645724577829242" lon="12.344486033543944">
        <ele>1741.5699999999999</ele>
        <time>2017-03-11T14:20:40Z</time>
      </trkpt>
      <trkpt lat="46.645734049379826" lon="12.344512352719903">
        <ele>1740.5999999999999</ele>
        <time>2017-03-11T14:20:42Z</time>
      </trkpt>
      <trkpt lat="46.645791968330741" lon="12.344634225592017">
        <ele>1737.24</ele>
        <time>2017-03-11T14:20:52Z</time>
      </trkpt>
      <trkpt lat="46.645805379375815" lon="12.344731455668807">
        <ele>1734.3599999999999</ele>
        <time>2017-03-11T14:21:00Z</time>
      </trkpt>
      <trkpt lat="46.645838068798184" lon="12.344800857827067">
        <ele>1731.95</ele>
        <time>2017-03-11T14:21:06Z</time>
      </trkpt>
      <trkpt lat="46.645832788199186" lon="12.344938572496176">
        <ele>1728.1099999999999</ele>
        <time>2017-03-11T14:21:16Z</time>
      </trkpt>
      <trkpt lat="46.645791800692677" lon="12.344998586922884">
        <ele>1727.1500000000001</ele>
        <time>2017-03-11T14:21:23Z</time>
      </trkpt>
      <trkpt lat="46.645734552294016" lon="12.345008226111531">
        <ele>1725.7</ele>
        <time>2017-03-11T14:21:28Z</time>
      </trkpt>
      <trkpt lat="46.645681746304035" lon="12.345065223053098">
        <ele>1723.78</ele>
        <time>2017-03-11T14:21:34Z</time>
      </trkpt>
      <trkpt lat="46.645644279196858" lon="12.345129428431392">
        <ele>1722.3399999999999</ele>
        <time>2017-03-11T14:21:40Z</time>
      </trkpt>
      <trkpt lat="46.645642099902034" lon="12.345162285491824">
        <ele>1721.8599999999999</ele>
        <time>2017-03-11T14:21:42Z</time>
      </trkpt>
      <trkpt lat="46.645610583946109" lon="12.345247361809015">
        <ele>1719.9400000000001</ele>
        <time>2017-03-11T14:21:49Z</time>
      </trkpt>
      <trkpt lat="46.645670346915722" lon="12.345410557463765">
        <ele>1716.0899999999999</ele>
        <time>2017-03-11T14:22:01Z</time>
      </trkpt>
      <trkpt lat="46.645695911720395" lon="12.345435032621026">
        <ele>1715.6099999999999</ele>
        <time>2017-03-11T14:22:04Z</time>
      </trkpt>
      <trkpt lat="46.645735306665301" lon="12.345475181937218">
        <ele>1713.21</ele>
        <time>2017-03-11T14:22:09Z</time>
      </trkpt>
      <trkpt lat="46.6458026971668" lon="12.345557073131204">
        <ele>1710.3199999999999</ele>
        <time>2017-03-11T14:22:17Z</time>
      </trkpt>
      <trkpt lat="46.645816024392843" lon="12.345615243539214">
        <ele>1708.4000000000001</ele>
        <time>2017-03-11T14:22:22Z</time>
      </trkpt>
      <trkpt lat="46.645833542570472" lon="12.345642317086458">
        <ele>1707.9200000000001</ele>
        <time>2017-03-11T14:22:24Z</time>
      </trkpt>
      <trkpt lat="46.64586815983057" lon="12.345677437260747">
        <ele>1706.48</ele>
        <time>2017-03-11T14:22:28Z</time>
      </trkpt>
      <trkpt lat="46.64587059058249" lon="12.345773996785283">
        <ele>1703.1099999999999</ele>
        <time>2017-03-11T14:22:37Z</time>
      </trkpt>
      <trkpt lat="46.645814348012209" lon="12.345811715349555">
        <ele>1701.6700000000001</ele>
        <time>2017-03-11T14:22:42Z</time>
      </trkpt>
      <trkpt lat="46.645788196474314" lon="12.345830658450723">
        <ele>1701.1900000000001</ele>
        <time>2017-03-11T14:22:45Z</time>
      </trkpt>
      <trkpt lat="46.645751567557454" lon="12.345841052010655">
        <ele>1700.23</ele>
        <time>2017-03-11T14:22:53Z</time>
      </trkpt>
      <trkpt lat="46.645740922540426" lon="12.345861252397299">
        <ele>1700.23</ele>
        <time>2017-03-11T14:23:12Z</time>
      </trkpt>
      <trkpt lat="46.645745700225234" lon="12.345887739211321">
        <ele>1699.75</ele>
        <time>2017-03-11T14:23:25Z</time>
      </trkpt>
      <trkpt lat="46.645753663033247" lon="12.345933169126511">
        <ele>1698.79</ele>
        <time>2017-03-11T14:23:29Z</time>
      </trkpt>
      <trkpt lat="46.64577042683959" lon="12.345968540757895">
        <ele>1697.3399999999999</ele>
        <time>2017-03-11T14:23:32Z</time>
      </trkpt>
      <trkpt lat="46.645778473466635" lon="12.345997709780931">
        <ele>1696.8599999999999</ele>
        <time>2017-03-11T14:23:34Z</time>
      </trkpt>
      <trkpt lat="46.645796913653612" lon="12.346085887402296">
        <ele>1695.4200000000001</ele>
        <time>2017-03-11T14:23:40Z</time>
      </trkpt>
      <trkpt lat="46.645782580599189" lon="12.346159983426332">
        <ele>1693.98</ele>
        <time>2017-03-11T14:23:45Z</time>
      </trkpt>
      <trkpt lat="46.64577235467732" lon="12.346208263188601">
        <ele>1692.54</ele>
        <time>2017-03-11T14:23:48Z</time>
      </trkpt>
      <trkpt lat="46.645791716873646" lon="12.346288226544857">
        <ele>1691.0999999999999</ele>
        <time>2017-03-11T14:23:54Z</time>
      </trkpt>
      <trkpt lat="46.645847205072641" lon="12.346312869340181">
        <ele>1689.1700000000001</ele>
        <time>2017-03-11T14:24:00Z</time>
      </trkpt>
      <trkpt lat="46.645851647481322" lon="12.346326112747192">
        <ele>1688.6900000000001</ele>
        <time>2017-03-11T14:24:01Z</time>
      </trkpt>
      <trkpt lat="46.645845444872975" lon="12.346429880708456">
        <ele>1686.29</ele>
        <time>2017-03-11T14:24:08Z</time>
      </trkpt>
      <trkpt lat="46.64588525891304" lon="12.346455780789256">
        <ele>1684.8499999999999</ele>
        <time>2017-03-11T14:24:14Z</time>
      </trkpt>
      <trkpt lat="46.645908309146762" lon="12.346485368907452">
        <ele>1683.8900000000001</ele>
        <time>2017-03-11T14:24:18Z</time>
      </trkpt>
      <trkpt lat="46.645977292209864" lon="12.346593160182238">
        <ele>1680.52</ele>
        <time>2017-03-11T14:24:29Z</time>
      </trkpt>
      <trkpt lat="46.646001348271966" lon="12.346642864868045">
        <ele>1679.0799999999999</ele>
        <time>2017-03-11T14:24:34Z</time>
      </trkpt>
      <trkpt lat="46.646051974967122" lon="12.346757277846336">
        <ele>1675.72</ele>
        <time>2017-03-11T14:24:44Z</time>
      </trkpt>
      <trkpt lat="46.646082317456603" lon="12.346789129078388">
        <ele>1674.75</ele>
        <time>2017-03-11T14:24:48Z</time>
      </trkpt>
      <trkpt lat="46.646097572520375" lon="12.346948133781552">
        <ele>1671.8699999999999</ele>
        <time>2017-03-11T14:24:58Z</time>
      </trkpt>
      <trkpt lat="46.646101847290993" lon="12.347024157643318">
        <ele>1670.4300000000001</ele>
        <time>2017-03-11T14:25:03Z</time>
      </trkpt>
      <trkpt lat="46.646077204495668" lon="12.347128009423614">
        <ele>1668.99</ele>
        <time>2017-03-11T14:25:10Z</time>
      </trkpt>
      <trkpt lat="46.64609195664525" lon="12.347204703837633">
        <ele>1668.02</ele>
        <time>2017-03-11T14:25:15Z</time>
      </trkpt>
      <trkpt lat="46.646132189780474" lon="12.347324984148145">
        <ele>1666.0999999999999</ele>
        <time>2017-03-11T14:25:23Z</time>
      </trkpt>
      <trkpt lat="46.646124310791492" lon="12.347354823723435">
        <ele>1665.6199999999999</ele>
        <time>2017-03-11T14:25:25Z</time>
      </trkpt>
      <trkpt lat="46.6461222153157" lon="12.347388854250312">
        <ele>1665.6199999999999</ele>
        <time>2017-03-11T14:25:27Z</time>
      </trkpt>
      <trkpt lat="46.646110899746418" lon="12.347451215609908">
        <ele>1664.1800000000001</ele>
        <time>2017-03-11T14:25:31Z</time>
      </trkpt>
      <trkpt lat="46.646092040464282" lon="12.347516510635614">
        <ele>1663.7</ele>
        <time>2017-03-11T14:25:35Z</time>
      </trkpt>
      <trkpt lat="46.646090447902679" lon="12.347566215321422">
        <ele>1662.74</ele>
        <time>2017-03-11T14:25:38Z</time>
      </trkpt>
      <trkpt lat="46.646100841462612" lon="12.347637126222253">
        <ele>1661.78</ele>
        <time>2017-03-11T14:25:43Z</time>
      </trkpt>
      <trkpt lat="46.646133530884981" lon="12.34766872599721">
        <ele>1660.3299999999999</ele>
        <time>2017-03-11T14:25:47Z</time>
      </trkpt>
      <trkpt lat="46.646230677142739" lon="12.347643999382854">
        <ele>1657.9300000000001</ele>
        <time>2017-03-11T14:25:57Z</time>
      </trkpt>
      <trkpt lat="46.646307455375791" lon="12.347665037959814">
        <ele>1656.49</ele>
        <time>2017-03-11T14:26:05Z</time>
      </trkpt>
      <trkpt lat="46.646405691280961" lon="12.347684986889362">
        <ele>1653.5999999999999</ele>
        <time>2017-03-11T14:26:14Z</time>
      </trkpt>
      <trkpt lat="46.646499065682292" lon="12.347690686583519">
        <ele>1651.6800000000001</ele>
        <time>2017-03-11T14:26:24Z</time>
      </trkpt>
      <trkpt lat="46.646503005176783" lon="12.34769269824028">
        <ele>1651.6800000000001</ele>
        <time>2017-03-11T14:26:25Z</time>
      </trkpt>
      <trkpt lat="46.646528569981456" lon="12.347682304680347">
        <ele>1651.2</ele>
        <time>2017-03-11T14:26:28Z</time>
      </trkpt>
      <trkpt lat="46.646608533337712" lon="12.347702421247959">
        <ele>1648.8</ele>
        <time>2017-03-11T14:26:37Z</time>
      </trkpt>
      <trkpt lat="46.64664214476943" lon="12.347774840891361">
        <ele>1647.3599999999999</ele>
        <time>2017-03-11T14:26:42Z</time>
      </trkpt>
      <trkpt lat="46.646703667938709" lon="12.347942478954792">
        <ele>1644.47</ele>
        <time>2017-03-11T14:26:53Z</time>
      </trkpt>
      <trkpt lat="46.646687490865588" lon="12.348038032650948">
        <ele>1643.51</ele>
        <time>2017-03-11T14:26:58Z</time>
      </trkpt>
      <trkpt lat="46.646658908575773" lon="12.348141130059958">
        <ele>1642.0699999999999</ele>
        <time>2017-03-11T14:27:05Z</time>
      </trkpt>
      <trkpt lat="46.646632673218846" lon="12.348213382065296">
        <ele>1640.1500000000001</ele>
        <time>2017-03-11T14:27:11Z</time>
      </trkpt>
      <trkpt lat="46.64659671485424" lon="12.348262500017881">
        <ele>1639.1900000000001</ele>
        <time>2017-03-11T14:27:16Z</time>
      </trkpt>
      <trkpt lat="46.646580789238214" lon="12.348327543586493">
        <ele>1637.74</ele>
        <time>2017-03-11T14:27:20Z</time>
      </trkpt>
      <trkpt lat="46.646603671833873" lon="12.348398705944419">
        <ele>1636.3</ele>
        <time>2017-03-11T14:27:26Z</time>
      </trkpt>
      <trkpt lat="46.646650694310665" lon="12.348440866917372">
        <ele>1634.8599999999999</ele>
        <time>2017-03-11T14:27:31Z</time>
      </trkpt>
      <trkpt lat="46.646678103134036" lon="12.348472215235233">
        <ele>1633.9000000000001</ele>
        <time>2017-03-11T14:27:34Z</time>
      </trkpt>
      <trkpt lat="46.646760916337371" lon="12.348571792244911">
        <ele>1631.49</ele>
        <time>2017-03-11T14:27:43Z</time>
      </trkpt>
      <trkpt lat="46.64681606926024" lon="12.348631052300334">
        <ele>1630.05</ele>
        <time>2017-03-11T14:27:49Z</time>
      </trkpt>
      <trkpt lat="46.646846830844879" lon="12.348646307364106">
        <ele>1629.5699999999999</ele>
        <time>2017-03-11T14:27:52Z</time>
      </trkpt>
      <trkpt lat="46.64692260324955" lon="12.348752254620194">
        <ele>1627.6500000000001</ele>
        <time>2017-03-11T14:28:01Z</time>
      </trkpt>
      <trkpt lat="46.646965434774756" lon="12.348917545750737">
        <ele>1624.77</ele>
        <time>2017-03-11T14:28:11Z</time>
      </trkpt>
      <trkpt lat="46.6469856351614" lon="12.34907160513103">
        <ele>1621.8800000000001</ele>
        <time>2017-03-11T14:28:20Z</time>
      </trkpt>
      <trkpt lat="46.647046990692616" lon="12.349216779693961">
        <ele>1619</ele>
        <time>2017-03-11T14:28:31Z</time>
      </trkpt>
      <trkpt lat="46.647083200514317" lon="12.349287858232856">
        <ele>1617.5599999999999</ele>
        <time>2017-03-11T14:28:37Z</time>
      </trkpt>
      <trkpt lat="46.647094767540693" lon="12.349303783848882">
        <ele>1617.0699999999999</ele>
        <time>2017-03-11T14:28:39Z</time>
      </trkpt>
      <trkpt lat="46.647125780582428" lon="12.349373018369079">
        <ele>1615.6300000000001</ele>
        <time>2017-03-11T14:28:44Z</time>
      </trkpt>
      <trkpt lat="46.647144304588437" lon="12.349458681419492">
        <ele>1614.6700000000001</ele>
        <time>2017-03-11T14:28:49Z</time>
      </trkpt>
      <trkpt lat="46.647156793624163" lon="12.349530346691608">
        <ele>1613.23</ele>
        <time>2017-03-11T14:28:53Z</time>
      </trkpt>
      <trkpt lat="46.647187387570739" lon="12.349590864032507">
        <ele>1612.75</ele>
        <time>2017-03-11T14:28:57Z</time>
      </trkpt>
      <trkpt lat="46.647220579907298" lon="12.349626654759049">
        <ele>1611.3099999999999</ele>
        <time>2017-03-11T14:29:01Z</time>
      </trkpt>
      <trkpt lat="46.647313367575407" lon="12.349792281165719">
        <ele>1607.9400000000001</ele>
        <time>2017-03-11T14:29:13Z</time>
      </trkpt>
      <trkpt lat="46.647387715056539" lon="12.3498778603971">
        <ele>1606.5</ele>
        <time>2017-03-11T14:29:21Z</time>
      </trkpt>
      <trkpt lat="46.647421326488256" lon="12.349916584789753">
        <ele>1605.0599999999999</ele>
        <time>2017-03-11T14:29:26Z</time>
      </trkpt>
      <trkpt lat="46.647452255710959" lon="12.349931504577398">
        <ele>1604.5799999999999</ele>
        <time>2017-03-11T14:29:29Z</time>
      </trkpt>
      <trkpt lat="46.647507157176733" lon="12.349975677207112">
        <ele>1603.1400000000001</ele>
        <time>2017-03-11T14:29:35Z</time>
      </trkpt>
      <trkpt lat="46.647577648982406" lon="12.350038709118962">
        <ele>1601.6900000000001</ele>
        <time>2017-03-11T14:29:43Z</time>
      </trkpt>
      <trkpt lat="46.647623414173722" lon="12.350053880363703">
        <ele>1600.25</ele>
        <time>2017-03-11T14:29:48Z</time>
      </trkpt>
      <trkpt lat="46.647732043638825" lon="12.35010995529592">
        <ele>1597.3699999999999</ele>
        <time>2017-03-11T14:29:59Z</time>
      </trkpt>
      <trkpt lat="46.647759871557355" lon="12.35015731304884">
        <ele>1596.4100000000001</ele>
        <time>2017-03-11T14:30:03Z</time>
      </trkpt>
      <trkpt lat="46.647842517122626" lon="12.35023844987154">
        <ele>1594.96</ele>
        <time>2017-03-11T14:30:10Z</time>
      </trkpt>
      <trkpt lat="46.64788568392396" lon="12.350348085165024">
        <ele>1592.5599999999999</ele>
        <time>2017-03-11T14:30:18Z</time>
      </trkpt>
      <trkpt lat="46.647921558469534" lon="12.350381445139647">
        <ele>1592.0799999999999</ele>
        <time>2017-03-11T14:30:22Z</time>
      </trkpt>
      <trkpt lat="46.647999677807093" lon="12.350431317463517">
        <ele>1590.6400000000001</ele>
        <time>2017-03-11T14:30:29Z</time>
      </trkpt>
      <trkpt lat="46.648055417463183" lon="12.350467778742313">
        <ele>1590.6400000000001</ele>
        <time>2017-03-11T14:30:34Z</time>
      </trkpt>
      <trkpt lat="46.648134374991059" lon="12.350529804825783">
        <ele>1588.24</ele>
        <time>2017-03-11T14:30:41Z</time>
      </trkpt>
      <trkpt lat="46.648220457136631" lon="12.350569283589721">
        <ele>1586.79</ele>
        <time>2017-03-11T14:30:47Z</time>
      </trkpt>
      <trkpt lat="46.648282650858164" lon="12.350583197548985">
        <ele>1585.3499999999999</ele>
        <time>2017-03-11T14:30:53Z</time>
      </trkpt>
      <trkpt lat="46.648399913683534" lon="12.350623430684209">
        <ele>1583.9100000000001</ele>
        <time>2017-03-11T14:31:04Z</time>
      </trkpt>
      <trkpt lat="46.648449450731277" lon="12.350653689354658">
        <ele>1583.4300000000001</ele>
        <time>2017-03-11T14:31:09Z</time>
      </trkpt>
      <trkpt lat="46.648488342761993" lon="12.350654108449817">
        <ele>1582.47</ele>
        <time>2017-03-11T14:31:12Z</time>
      </trkpt>
      <trkpt lat="46.648627482354641" lon="12.350726695731282">
        <ele>1580.0599999999999</ele>
        <time>2017-03-11T14:31:23Z</time>
      </trkpt>
      <trkpt lat="46.648668888956308" lon="12.350791655480862">
        <ele>1579.5799999999999</ele>
        <time>2017-03-11T14:31:32Z</time>
      </trkpt>
      <trkpt lat="46.648685652762651" lon="12.350802719593048">
        <ele>1579.0999999999999</ele>
        <time>2017-03-11T14:31:44Z</time>
      </trkpt>
      <trkpt lat="46.648752624168992" lon="12.350828954949975">
        <ele>1578.6199999999999</ele>
        <time>2017-03-11T14:31:55Z</time>
      </trkpt>
      <trkpt lat="46.648812219500542" lon="12.350851334631443">
        <ele>1577.1800000000001</ele>
        <time>2017-03-11T14:32:01Z</time>
      </trkpt>
      <trkpt lat="46.648870389908552" lon="12.35083700157702">
        <ele>1576.7</ele>
        <time>2017-03-11T14:32:07Z</time>
      </trkpt>
      <trkpt lat="46.648945240303874" lon="12.350850999355316">
        <ele>1574.3</ele>
        <time>2017-03-11T14:32:16Z</time>
      </trkpt>
      <trkpt lat="46.649032160639763" lon="12.350908331573009">
        <ele>1572.8499999999999</ele>
        <time>2017-03-11T14:32:26Z</time>
      </trkpt>
      <trkpt lat="46.649111621081829" lon="12.350976392626762">
        <ele>1571.4100000000001</ele>
        <time>2017-03-11T14:32:33Z</time>
      </trkpt>
      <trkpt lat="46.649263501167297" lon="12.351054260507226">
        <ele>1569.97</ele>
        <time>2017-03-11T14:32:44Z</time>
      </trkpt>
      <trkpt lat="46.649309936910868" lon="12.351130535826087">
        <ele>1569.01</ele>
        <time>2017-03-11T14:32:50Z</time>
      </trkpt>
      <trkpt lat="46.649368023499846" lon="12.351214187219739">
        <ele>1568.53</ele>
        <time>2017-03-11T14:32:56Z</time>
      </trkpt>
      <trkpt lat="46.649374309927225" lon="12.351222150027752">
        <ele>1568.53</ele>
        <time>2017-03-11T14:32:57Z</time>
      </trkpt>
      <trkpt lat="46.649458715692163" lon="12.351379226893187">
        <ele>1568.53</ele>
        <time>2017-03-11T14:33:09Z</time>
      </trkpt>
      <trkpt lat="46.64953138679266" lon="12.351515768095851">
        <ele>1567.5699999999999</ele>
        <time>2017-03-11T14:33:19Z</time>
      </trkpt>
      <trkpt lat="46.649567009881139" lon="12.351588942110538">
        <ele>1567.0899999999999</ele>
        <time>2017-03-11T14:33:24Z</time>
      </trkpt>
      <trkpt lat="46.649582348763943" lon="12.351623978465796">
        <ele>1567.0899999999999</ele>
        <time>2017-03-11T14:33:26Z</time>
      </trkpt>
      <trkpt lat="46.649627527222037" lon="12.351684831082821">
        <ele>1566.1199999999999</ele>
        <time>2017-03-11T14:33:31Z</time>
      </trkpt>
      <trkpt lat="46.649640016257763" lon="12.351712575182319">
        <ele>1565.6400000000001</ele>
        <time>2017-03-11T14:33:33Z</time>
      </trkpt>
      <trkpt lat="46.649737162515521" lon="12.351821875199676">
        <ele>1564.6800000000001</ele>
        <time>2017-03-11T14:33:43Z</time>
      </trkpt>
      <trkpt lat="46.649742610752583" lon="12.35182992182672">
        <ele>1565.1600000000001</ele>
        <time>2017-03-11T14:33:44Z</time>
      </trkpt>
      <trkpt lat="46.649875463917851" lon="12.351884488016367">
        <ele>1562.76</ele>
        <time>2017-03-11T14:33:57Z</time>
      </trkpt>
      <trkpt lat="46.649915194138885" lon="12.351900832727551">
        <ele>1563.72</ele>
        <time>2017-03-11T14:34:00Z</time>
      </trkpt>
      <trkpt lat="46.650026002898812" lon="12.352004935964942">
        <ele>1562.28</ele>
        <time>2017-03-11T14:34:11Z</time>
      </trkpt>
      <trkpt lat="46.650034636259079" lon="12.352015748620033">
        <ele>1562.28</ele>
        <time>2017-03-11T14:34:12Z</time>
      </trkpt>
      <trkpt lat="46.650079479441047" lon="12.352076014503837">
        <ele>1560.8399999999999</ele>
        <time>2017-03-11T14:34:17Z</time>
      </trkpt>
      <trkpt lat="46.650147708132863" lon="12.352166455239058">
        <ele>1559.8800000000001</ele>
        <time>2017-03-11T14:34:24Z</time>
      </trkpt>
      <trkpt lat="46.650211494415998" lon="12.352398131042719">
        <ele>1557.95</ele>
        <time>2017-03-11T14:34:38Z</time>
      </trkpt>
      <trkpt lat="46.650340827181935" lon="12.352500222623348">
        <ele>1556.03</ele>
        <time>2017-03-11T14:34:50Z</time>
      </trkpt>
      <trkpt lat="46.650519194081426" lon="12.352562583982944">
        <ele>1554.5899999999999</ele>
        <time>2017-03-11T14:35:04Z</time>
      </trkpt>
      <trkpt lat="46.650604773312807" lon="12.352608516812325">
        <ele>1553.6300000000001</ele>
        <time>2017-03-11T14:35:11Z</time>
      </trkpt>
      <trkpt lat="46.650654729455709" lon="12.352637266740203">
        <ele>1553.1500000000001</ele>
        <time>2017-03-11T14:35:15Z</time>
      </trkpt>
      <trkpt lat="46.650673840194941" lon="12.352643301710486">
        <ele>1552.6700000000001</ele>
        <time>2017-03-11T14:35:17Z</time>
      </trkpt>
      <trkpt lat="46.65072413161397" lon="12.352717984467745">
        <ele>1552.1900000000001</ele>
        <time>2017-03-11T14:35:23Z</time>
      </trkpt>
      <trkpt lat="46.650833431631327" lon="12.35280423425138">
        <ele>1550.74</ele>
        <time>2017-03-11T14:35:33Z</time>
      </trkpt>
      <trkpt lat="46.650898810476065" lon="12.352868774905801">
        <ele>1549.78</ele>
        <time>2017-03-11T14:35:39Z</time>
      </trkpt>
      <trkpt lat="46.650972906500101" lon="12.352944295853376">
        <ele>1549.3</ele>
        <time>2017-03-11T14:35:46Z</time>
      </trkpt>
      <trkpt lat="46.651112046092749" lon="12.353093661367893">
        <ele>1547.3800000000001</ele>
        <time>2017-03-11T14:36:00Z</time>
      </trkpt>
      <trkpt lat="46.651232242584229" lon="12.353229112923145">
        <ele>1545.9400000000001</ele>
        <time>2017-03-11T14:36:12Z</time>
      </trkpt>
      <trkpt lat="46.651264345273376" lon="12.353258701041341">
        <ele>1545.46</ele>
        <time>2017-03-11T14:36:15Z</time>
      </trkpt>
      <trkpt lat="46.651352187618613" lon="12.353360624983907">
        <ele>1544.01</ele>
        <time>2017-03-11T14:36:25Z</time>
      </trkpt>
      <trkpt lat="46.651360988616943" lon="12.353370096534491">
        <ele>1544.01</ele>
        <time>2017-03-11T14:36:26Z</time>
      </trkpt>
      <trkpt lat="46.65146492421627" lon="12.353487443178892">
        <ele>1542.5699999999999</ele>
        <time>2017-03-11T14:36:36Z</time>
      </trkpt>
      <trkpt lat="46.651470456272364" lon="12.353640161454678">
        <ele>1542.5699999999999</ele>
        <time>2017-03-11T14:36:46Z</time>
      </trkpt>
      <trkpt lat="46.651426199823618" lon="12.353761615231633">
        <ele>1542.5699999999999</ele>
        <time>2017-03-11T14:36:57Z</time>
      </trkpt>
      <trkpt lat="46.651407005265355" lon="12.353779217228293">
        <ele>1542.0899999999999</ele>
        <time>2017-03-11T14:37:09Z</time>
      </trkpt>
      <trkpt lat="46.651333998888731" lon="12.353775864467025">
        <ele>1542.0899999999999</ele>
        <time>2017-03-11T14:37:29Z</time>
      </trkpt>
      <trkpt lat="46.651281863451004" lon="12.353668492287397">
        <ele>1542.0899999999999</ele>
        <time>2017-03-11T14:37:54Z</time>
      </trkpt>
      <trkpt lat="46.651368280872703" lon="12.353570591658354">
        <ele>1542.5699999999999</ele>
        <time>2017-03-11T14:38:15Z</time>
      </trkpt>
      <trkpt lat="46.651451177895069" lon="12.353585427626967">
        <ele>1542.0899999999999</ele>
        <time>2017-03-11T14:38:32Z</time>
      </trkpt>
      <trkpt lat="46.651359898969531" lon="12.353516276925802">
        <ele>1542.0899999999999</ele>
        <time>2017-03-11T14:38:50Z</time>
      </trkpt>
      <trkpt lat="46.651384625583887" lon="12.35346682369709">
        <ele>1541.6099999999999</ele>
        <time>2017-03-11T14:39:06Z</time>
      </trkpt>
      <trkpt lat="46.651438353583217" lon="12.353380490094423">
        <ele>1542.0899999999999</ele>
        <time>2017-03-11T14:39:23Z</time>
      </trkpt>
      <trkpt lat="46.651473054662347" lon="12.353345872834325">
        <ele>1541.6099999999999</ele>
        <time>2017-03-11T14:39:41Z</time>
      </trkpt>
      <trkpt lat="46.651550168171525" lon="12.353367833420634">
        <ele>1542.0899999999999</ele>
        <time>2017-03-11T14:39:58Z</time>
      </trkpt>
      <trkpt lat="46.651216065511107" lon="12.353460621088743">
        <ele>1544.01</ele>
        <time>2017-03-11T15:31:19Z</time>
      </trkpt>
      <trkpt lat="46.651473389938474" lon="12.353557515889406">
        <ele>1544.01</ele>
        <time>2017-03-11T15:31:49Z</time>
      </trkpt>
      <trkpt lat="46.651600627228618" lon="12.35358752310276">
        <ele>1544.01</ele>
        <time>2017-03-11T15:32:09Z</time>
      </trkpt>
      <trkpt lat="46.651727110147476" lon="12.353575369343162">
        <ele>1544.01</ele>
        <time>2017-03-11T15:32:29Z</time>
      </trkpt>
      <trkpt lat="46.651754099875689" lon="12.35355474986136">
        <ele>1544.01</ele>
        <time>2017-03-11T15:32:52Z</time>
      </trkpt>
      <trkpt lat="46.651755776256323" lon="12.353554666042328">
        <ele>1544.01</ele>
        <time>2017-03-11T15:33:08Z</time>
      </trkpt>
      <trkpt lat="46.651719314977527" lon="12.353521389886737">
        <ele>1544.01</ele>
        <time>2017-03-11T15:33:32Z</time>
      </trkpt>
      <trkpt lat="46.651760134845972" lon="12.353541254997253">
        <ele>1544.01</ele>
        <time>2017-03-11T15:33:56Z</time>
      </trkpt>
      <trkpt lat="46.651734486222267" lon="12.353522647172213">
        <ele>1544.01</ele>
        <time>2017-03-11T15:34:20Z</time>
      </trkpt>
      <trkpt lat="46.651723505929112" lon="12.353539913892746">
        <ele>1544.01</ele>
        <time>2017-03-11T15:34:30Z</time>
      </trkpt>
      <trkpt lat="46.651689894497395" lon="12.353531699627638">
        <ele>1544.01</ele>
        <time>2017-03-11T15:34:49Z</time>
      </trkpt>
      <trkpt lat="46.651548072695732" lon="12.353497250005603">
        <ele>1544.01</ele>
        <time>2017-03-11T15:35:13Z</time>
      </trkpt>
      <trkpt lat="46.651500379666686" lon="12.353385854512453">
        <ele>1544.01</ele>
        <time>2017-03-11T15:35:30Z</time>
      </trkpt>
      <trkpt lat="46.651437599211931" lon="12.353461626917124">
        <ele>1544.5</ele>
        <time>2017-03-11T15:35:46Z</time>
      </trkpt>
      <trkpt lat="46.65141019038856" lon="12.353434972465038">
        <ele>1544.5</ele>
        <time>2017-03-11T15:36:04Z</time>
      </trkpt>
      <trkpt lat="46.651410106569529" lon="12.353531364351511">
        <ele>1544.5</ele>
        <time>2017-03-11T15:36:18Z</time>
      </trkpt>
      <trkpt lat="46.651559472084045" lon="12.353677125647664">
        <ele>1544.5</ele>
        <time>2017-03-11T15:36:31Z</time>
      </trkpt>
      <trkpt lat="46.651634741574526" lon="12.353682238608599">
        <ele>1543.05</ele>
        <time>2017-03-11T15:36:42Z</time>
      </trkpt>
      <trkpt lat="46.65164178237319" lon="12.35369062051177">
        <ele>1543.05</ele>
        <time>2017-03-11T15:36:43Z</time>
      </trkpt>
      <trkpt lat="46.651707161217928" lon="12.353778211399913">
        <ele>1542.0899999999999</ele>
        <time>2017-03-11T15:36:55Z</time>
      </trkpt>
      <trkpt lat="46.651803301647305" lon="12.353851469233632">
        <ele>1541.6099999999999</ele>
        <time>2017-03-11T15:37:07Z</time>
      </trkpt>
      <trkpt lat="46.65181478485465" lon="12.353858845308423">
        <ele>1541.6099999999999</ele>
        <time>2017-03-11T15:37:08Z</time>
      </trkpt>
      <trkpt lat="46.651946380734444" lon="12.353908466175199">
        <ele>1541.1300000000001</ele>
        <time>2017-03-11T15:37:21Z</time>
      </trkpt>
      <trkpt lat="46.65204344317317" lon="12.353930929675698">
        <ele>1540.6500000000001</ele>
        <time>2017-03-11T15:37:32Z</time>
      </trkpt>
      <trkpt lat="46.652070013806224" lon="12.353932354599237">
        <ele>1541.1300000000001</ele>
        <time>2017-03-11T15:37:35Z</time>
      </trkpt>
      <trkpt lat="46.652124244719744" lon="12.353923721238971">
        <ele>1540.6500000000001</ele>
        <time>2017-03-11T15:37:41Z</time>
      </trkpt>
      <trkpt lat="46.652180654928088" lon="12.353943753987551">
        <ele>1540.1700000000001</ele>
        <time>2017-03-11T15:37:47Z</time>
      </trkpt>
      <trkpt lat="46.652283584699035" lon="12.354071494191885">
        <ele>1539.21</ele>
        <time>2017-03-11T15:38:01Z</time>
      </trkpt>
      <trkpt lat="46.652398752048612" lon="12.354132765904069">
        <ele>1538.73</ele>
        <time>2017-03-11T15:38:13Z</time>
      </trkpt>
      <trkpt lat="46.652532108128071" lon="12.354161432012916">
        <ele>1537.77</ele>
        <time>2017-03-11T15:38:26Z</time>
      </trkpt>
      <trkpt lat="46.65264543145895" lon="12.354191271588206">
        <ele>1536.8</ele>
        <time>2017-03-11T15:38:37Z</time>
      </trkpt>
      <trkpt lat="46.652791360393167" lon="12.354205688461661">
        <ele>1535.3599999999999</ele>
        <time>2017-03-11T15:38:50Z</time>
      </trkpt>
      <trkpt lat="46.652937876060605" lon="12.354195043444633">
        <ele>1534.4000000000001</ele>
        <time>2017-03-11T15:39:04Z</time>
      </trkpt>
      <trkpt lat="46.65308958850801" lon="12.354210969060659">
        <ele>1533.4400000000001</ele>
        <time>2017-03-11T15:39:19Z</time>
      </trkpt>
      <trkpt lat="46.653252281248569" lon="12.354254806414247">
        <ele>1532.96</ele>
        <time>2017-03-11T15:39:33Z</time>
      </trkpt>
      <trkpt lat="46.653445484116673" lon="12.354273581877351">
        <ele>1532</ele>
        <time>2017-03-11T15:39:47Z</time>
      </trkpt>
      <trkpt lat="46.653572302311659" lon="12.354290261864662">
        <ele>1531.04</ele>
        <time>2017-03-11T15:39:59Z</time>
      </trkpt>
      <trkpt lat="46.65370968170464" lon="12.354294201359153">
        <ele>1530.0799999999999</ele>
        <time>2017-03-11T15:40:13Z</time>
      </trkpt>
      <trkpt lat="46.653861394152045" lon="12.354302834719419">
        <ele>1529.5899999999999</ele>
        <time>2017-03-11T15:40:26Z</time>
      </trkpt>
      <trkpt lat="46.65402484126389" lon="12.354369554668665">
        <ele>1528.1500000000001</ele>
        <time>2017-03-11T15:40:40Z</time>
      </trkpt>
      <trkpt lat="46.654183426871896" lon="12.354441974312067">
        <ele>1527.1900000000001</ele>
        <time>2017-03-11T15:40:54Z</time>
      </trkpt>
      <trkpt lat="46.654346538707614" lon="12.354498384520411">
        <ele>1526.71</ele>
        <time>2017-03-11T15:41:09Z</time>
      </trkpt>
      <trkpt lat="46.654475033283234" lon="12.354529397562146">
        <ele>1525.75</ele>
        <time>2017-03-11T15:41:21Z</time>
      </trkpt>
      <trkpt lat="46.654635462909937" lon="12.354580191895366">
        <ele>1524.79</ele>
        <time>2017-03-11T15:41:35Z</time>
      </trkpt>
      <trkpt lat="46.65477485395968" lon="12.354681948199868">
        <ele>1524.3099999999999</ele>
        <time>2017-03-11T15:41:49Z</time>
      </trkpt>
      <trkpt lat="46.654889183118939" lon="12.35473089851439">
        <ele>1524.3099999999999</ele>
        <time>2017-03-11T15:42:00Z</time>
      </trkpt>
      <trkpt lat="46.655071740970016" lon="12.354730311781168">
        <ele>1523.3499999999999</ele>
        <time>2017-03-11T15:42:15Z</time>
      </trkpt>
      <trkpt lat="46.655247425660491" lon="12.35473869368434">
        <ele>1522.3900000000001</ele>
        <time>2017-03-11T15:42:29Z</time>
      </trkpt>
      <trkpt lat="46.655440796166658" lon="12.354747243225574">
        <ele>1520.9400000000001</ele>
        <time>2017-03-11T15:42:45Z</time>
      </trkpt>
      <trkpt lat="46.655588736757636" lon="12.354743471369147">
        <ele>1520.46</ele>
        <time>2017-03-11T15:42:58Z</time>
      </trkpt>
      <trkpt lat="46.655760733410716" lon="12.354729473590851">
        <ele>1519.02</ele>
        <time>2017-03-11T15:43:12Z</time>
      </trkpt>
      <trkpt lat="46.655934322625399" lon="12.35469426959753">
        <ele>1517.5799999999999</ele>
        <time>2017-03-11T15:43:27Z</time>
      </trkpt>
      <trkpt lat="46.656096680089831" lon="12.354652611538768">
        <ele>1516.6199999999999</ele>
        <time>2017-03-11T15:43:40Z</time>
      </trkpt>
      <trkpt lat="46.656296001747251" lon="12.354615898802876">
        <ele>1515.6600000000001</ele>
        <time>2017-03-11T15:43:56Z</time>
      </trkpt>
      <trkpt lat="46.656492557376623" lon="12.354588992893696">
        <ele>1514.21</ele>
        <time>2017-03-11T15:44:12Z</time>
      </trkpt>
      <trkpt lat="46.656683078035712" lon="12.354524033144116">
        <ele>1513.25</ele>
        <time>2017-03-11T15:44:28Z</time>
      </trkpt>
      <trkpt lat="46.656854404136539" lon="12.35442403703928">
        <ele>1512.29</ele>
        <time>2017-03-11T15:44:44Z</time>
      </trkpt>
      <trkpt lat="46.657018018886447" lon="12.354302247986197">
        <ele>1510.8499999999999</ele>
        <time>2017-03-11T15:44:59Z</time>
      </trkpt>
      <trkpt lat="46.65719797834754" lon="12.354147015139461">
        <ele>1508.9300000000001</ele>
        <time>2017-03-11T15:45:16Z</time>
      </trkpt>
      <trkpt lat="46.65738221257925" lon="12.354044839739799">
        <ele>1507.97</ele>
        <time>2017-03-11T15:45:32Z</time>
      </trkpt>
      <trkpt lat="46.65747994557023" lon="12.353859264403582">
        <ele>1506.52</ele>
        <time>2017-03-11T15:45:47Z</time>
      </trkpt>
      <trkpt lat="46.65753610432148" lon="12.353636473417282">
        <ele>1505.5599999999999</ele>
        <time>2017-03-11T15:46:01Z</time>
      </trkpt>
      <trkpt lat="46.657540714368224" lon="12.35356405377388">
        <ele>1505.5599999999999</ele>
        <time>2017-03-11T15:46:11Z</time>
      </trkpt>
      <trkpt lat="46.657574325799942" lon="12.35336372628808">
        <ele>1505.0799999999999</ele>
        <time>2017-03-11T15:46:24Z</time>
      </trkpt>
      <trkpt lat="46.657700221985579" lon="12.353179072961211">
        <ele>1504.1199999999999</ele>
        <time>2017-03-11T15:46:39Z</time>
      </trkpt>
      <trkpt lat="46.65788353420794" lon="12.353096008300781">
        <ele>1503.1600000000001</ele>
        <time>2017-03-11T15:46:54Z</time>
      </trkpt>
      <trkpt lat="46.658050585538149" lon="12.353014871478081">
        <ele>1502.2</ele>
        <time>2017-03-11T15:47:09Z</time>
      </trkpt>
      <trkpt lat="46.658240351825953" lon="12.352912109345198">
        <ele>1500.76</ele>
        <time>2017-03-11T15:47:26Z</time>
      </trkpt>
      <trkpt lat="46.658404218032956" lon="12.352816555649042">
        <ele>1499.79</ele>
        <time>2017-03-11T15:47:41Z</time>
      </trkpt>
      <trkpt lat="46.658521648496389" lon="12.35267230309546">
        <ele>1498.8299999999999</ele>
        <time>2017-03-11T15:47:54Z</time>
      </trkpt>
      <trkpt lat="46.658659866079688" lon="12.352499384433031">
        <ele>1497.8699999999999</ele>
        <time>2017-03-11T15:48:10Z</time>
      </trkpt>
      <trkpt lat="46.658876286819577" lon="12.352393018081784">
        <ele>1498.3499999999999</ele>
        <time>2017-03-11T15:48:28Z</time>
      </trkpt>
      <trkpt lat="46.6590098105371" lon="12.352241724729538">
        <ele>1495.95</ele>
        <time>2017-03-11T15:48:43Z</time>
      </trkpt>
      <trkpt lat="46.659182980656624" lon="12.352069728076458">
        <ele>1494.51</ele>
        <time>2017-03-11T15:49:00Z</time>
      </trkpt>
      <trkpt lat="46.65935480967164" lon="12.352022705599666">
        <ele>1494.03</ele>
        <time>2017-03-11T15:49:15Z</time>
      </trkpt>
      <trkpt lat="46.659534350037575" lon="12.35188951715827">
        <ele>1493.0599999999999</ele>
        <time>2017-03-11T15:49:31Z</time>
      </trkpt>
      <trkpt lat="46.659705508500338" lon="12.351719448342919">
        <ele>1491.1400000000001</ele>
        <time>2017-03-11T15:49:49Z</time>
      </trkpt>
      <trkpt lat="46.659803995862603" lon="12.351577710360289">
        <ele>1490.1800000000001</ele>
        <time>2017-03-11T15:50:03Z</time>
      </trkpt>
      <trkpt lat="46.659846743568778" lon="12.351561365649104">
        <ele>1490.1800000000001</ele>
        <time>2017-03-11T15:50:07Z</time>
      </trkpt>
      <trkpt lat="46.660024859011173" lon="12.351445276290178">
        <ele>1489.22</ele>
        <time>2017-03-11T15:50:24Z</time>
      </trkpt>
      <trkpt lat="46.660204315558076" lon="12.351404456421733">
        <ele>1488.74</ele>
        <time>2017-03-11T15:50:38Z</time>
      </trkpt>
      <trkpt lat="46.66034915484488" lon="12.351333880797029">
        <ele>1487.3</ele>
        <time>2017-03-11T15:50:52Z</time>
      </trkpt>
      <trkpt lat="46.660511931404471" lon="12.351256851106882">
        <ele>1486.3399999999999</ele>
        <time>2017-03-11T15:51:06Z</time>
      </trkpt>
      <trkpt lat="46.660681664943695" lon="12.351213935762644">
        <ele>1485.3699999999999</ele>
        <time>2017-03-11T15:51:21Z</time>
      </trkpt>
      <trkpt lat="46.660829689353704" lon="12.351194573566318">
        <ele>1484.4100000000001</ele>
        <time>2017-03-11T15:51:34Z</time>
      </trkpt>
      <trkpt lat="46.661014091223478" lon="12.35118736512959">
        <ele>1483.45</ele>
        <time>2017-03-11T15:51:49Z</time>
      </trkpt>
      <trkpt lat="46.661192374303937" lon="12.351162638515234">
        <ele>1482.49</ele>
        <time>2017-03-11T15:52:04Z</time>
      </trkpt>
      <trkpt lat="46.661338806152344" lon="12.351085273548961">
        <ele>1481.53</ele>
        <time>2017-03-11T15:52:18Z</time>
      </trkpt>
      <trkpt lat="46.661529159173369" lon="12.351113017648458">
        <ele>1479.6099999999999</ele>
        <time>2017-03-11T15:52:34Z</time>
      </trkpt>
      <trkpt lat="46.661703754216433" lon="12.351090218871832">
        <ele>1478.6500000000001</ele>
        <time>2017-03-11T15:52:48Z</time>
      </trkpt>
      <trkpt lat="46.661881702020764" lon="12.351035736501217">
        <ele>1477.6800000000001</ele>
        <time>2017-03-11T15:53:02Z</time>
      </trkpt>
      <trkpt lat="46.66204129345715" lon="12.350978571921587">
        <ele>1476.72</ele>
        <time>2017-03-11T15:53:16Z</time>
      </trkpt>
      <trkpt lat="46.66221228428185" lon="12.350980751216412">
        <ele>1475.76</ele>
        <time>2017-03-11T15:53:30Z</time>
      </trkpt>
      <trkpt lat="46.662380928173661" lon="12.351064905524254">
        <ele>1474.8</ele>
        <time>2017-03-11T15:53:45Z</time>
      </trkpt>
      <trkpt lat="46.662405906245112" lon="12.351071527227759">
        <ele>1474.3199999999999</ele>
        <time>2017-03-11T15:53:47Z</time>
      </trkpt>
      <trkpt lat="46.662578908726573" lon="12.351172612980008">
        <ele>1473.3599999999999</ele>
        <time>2017-03-11T15:54:02Z</time>
      </trkpt>
      <trkpt lat="46.662716455757618" lon="12.35129582695663">
        <ele>1472.8800000000001</ele>
        <time>2017-03-11T15:54:16Z</time>
      </trkpt>
      <trkpt lat="46.66285827755928" lon="12.351393979042768">
        <ele>1472.4000000000001</ele>
        <time>2017-03-11T15:54:30Z</time>
      </trkpt>
      <trkpt lat="46.662965985015035" lon="12.351464638486505">
        <ele>1471.9200000000001</ele>
        <time>2017-03-11T15:54:40Z</time>
      </trkpt>
      <trkpt lat="46.663092719390988" lon="12.351595396175981">
        <ele>1471.4400000000001</ele>
        <time>2017-03-11T15:54:54Z</time>
      </trkpt>
      <trkpt lat="46.663201600313187" lon="12.351735457777977">
        <ele>1470.95</ele>
        <time>2017-03-11T15:55:07Z</time>
      </trkpt>
      <trkpt lat="46.663335878401995" lon="12.351819947361946">
        <ele>1470.95</ele>
        <time>2017-03-11T15:55:19Z</time>
      </trkpt>
      <trkpt lat="46.663464540615678" lon="12.351851714774966">
        <ele>1470.47</ele>
        <time>2017-03-11T15:55:31Z</time>
      </trkpt>
      <trkpt lat="46.66356336325407" lon="12.351951627060771">
        <ele>1470.47</ele>
        <time>2017-03-11T15:55:42Z</time>
      </trkpt>
      <trkpt lat="46.663576271384954" lon="12.35197358764708">
        <ele>1470.47</ele>
        <time>2017-03-11T15:55:44Z</time>
      </trkpt>
      <trkpt lat="46.663702167570591" lon="12.352096633985639">
        <ele>1469.99</ele>
        <time>2017-03-11T15:55:58Z</time>
      </trkpt>
      <trkpt lat="46.663846001029015" lon="12.352213142439723">
        <ele>1468.55</ele>
        <time>2017-03-11T15:56:13Z</time>
      </trkpt>
      <trkpt lat="46.663972735404968" lon="12.35231464728713">
        <ele>1468.55</ele>
        <time>2017-03-11T15:56:26Z</time>
      </trkpt>
      <trkpt lat="46.664018165320158" lon="12.352348007261753">
        <ele>1468.55</ele>
        <time>2017-03-11T15:56:30Z</time>
      </trkpt>
      <trkpt lat="46.664154035970569" lon="12.352454708889127">
        <ele>1468.55</ele>
        <time>2017-03-11T15:56:44Z</time>
      </trkpt>
      <trkpt lat="46.664278507232666" lon="12.35255210660398">
        <ele>1468.55</ele>
        <time>2017-03-11T15:56:56Z</time>
      </trkpt>
      <trkpt lat="46.664405576884747" lon="12.352634919807315">
        <ele>1468.0699999999999</ele>
        <time>2017-03-11T15:57:09Z</time>
      </trkpt>
      <trkpt lat="46.664449078962207" lon="12.352658808231354">
        <ele>1468.0699999999999</ele>
        <time>2017-03-11T15:57:13Z</time>
      </trkpt>
      <trkpt lat="46.664520241320133" lon="12.352682361379266">
        <ele>1468.0699999999999</ele>
        <time>2017-03-11T15:57:19Z</time>
      </trkpt>
      <trkpt lat="46.664711851626635" lon="12.352747907862067">
        <ele>1467.1099999999999</ele>
        <time>2017-03-11T15:57:35Z</time>
      </trkpt>
      <trkpt lat="46.664905473589897" lon="12.352830301970243">
        <ele>1466.6300000000001</ele>
        <time>2017-03-11T15:57:51Z</time>
      </trkpt>
      <trkpt lat="46.665101191028953" lon="12.352956784889102">
        <ele>1466.6300000000001</ele>
        <time>2017-03-11T15:58:07Z</time>
      </trkpt>
      <trkpt lat="46.665233206003904" lon="12.353054769337177">
        <ele>1466.1500000000001</ele>
        <time>2017-03-11T15:58:21Z</time>
      </trkpt>
      <trkpt lat="46.665240582078695" lon="12.353063151240349">
        <ele>1466.1500000000001</ele>
        <time>2017-03-11T15:58:22Z</time>
      </trkpt>
      <trkpt lat="46.66532926261425" lon="12.353089218959212">
        <ele>1466.1500000000001</ele>
        <time>2017-03-11T15:58:29Z</time>
      </trkpt>
      <trkpt lat="46.665520956739783" lon="12.353157112374902">
        <ele>1465.6700000000001</ele>
        <time>2017-03-11T15:58:45Z</time>
      </trkpt>
      <trkpt lat="46.665682140737772" lon="12.353258365765214">
        <ele>1465.6700000000001</ele>
        <time>2017-03-11T15:58:58Z</time>
      </trkpt>
      <trkpt lat="46.665821447968483" lon="12.35337445512414">
        <ele>1465.6700000000001</ele>
        <time>2017-03-11T15:59:11Z</time>
      </trkpt>
      <trkpt lat="46.666000736877322" lon="12.353484844788909">
        <ele>1464.71</ele>
        <time>2017-03-11T15:59:25Z</time>
      </trkpt>
      <trkpt lat="46.666163010522723" lon="12.353602861985564">
        <ele>1463.74</ele>
        <time>2017-03-11T15:59:40Z</time>
      </trkpt>
      <trkpt lat="46.666302485391498" lon="12.35371945425868">
        <ele>1463.74</ele>
        <time>2017-03-11T15:59:53Z</time>
      </trkpt>
      <trkpt lat="46.666325116530061" lon="12.353757759556174">
        <ele>1463.74</ele>
        <time>2017-03-11T16:00:00Z</time>
      </trkpt>
      <trkpt lat="46.666258815675974" lon="12.353716855868697">
        <ele>1463.74</ele>
        <time>2017-03-11T16:00:11Z</time>
      </trkpt>
      <trkpt lat="46.66627281345427" lon="12.353690201416612">
        <ele>1463.74</ele>
        <time>2017-03-11T16:00:17Z</time>
      </trkpt>
      <trkpt lat="46.666261330246925" lon="12.353633036836982">
        <ele>1463.74</ele>
        <time>2017-03-11T16:00:26Z</time>
      </trkpt>
      <trkpt lat="46.666268203407526" lon="12.353633036836982">
        <ele>1459.9000000000001</ele>
        <time>2017-03-11T16:00:28Z</time>
      </trkpt>
      <trkpt lat="46.666279938071966" lon="12.353646112605929">
        <ele>1463.74</ele>
        <time>2017-03-11T16:00:30Z</time>
      </trkpt>
      <trkpt lat="46.666270717978477" lon="12.353684334084392">
        <ele>1462.78</ele>
        <time>2017-03-11T16:00:48Z</time>
      </trkpt>
      <trkpt lat="46.666331235319376" lon="12.353735044598579">
        <ele>1463.26</ele>
        <time>2017-03-11T16:01:17Z</time>
      </trkpt>
      <trkpt lat="46.666291421279311" lon="12.353781061246991">
        <ele>1463.26</ele>
        <time>2017-03-11T16:01:42Z</time>
      </trkpt>
      <trkpt lat="46.666298797354102" lon="12.353794304654002">
        <ele>1463.74</ele>
        <time>2017-03-11T16:02:12Z</time>
      </trkpt>
      <trkpt lat="46.6662557143718" lon="12.35376387834549">
        <ele>1463.74</ele>
        <time>2017-03-11T16:02:46Z</time>
      </trkpt>
      <trkpt lat="46.66624590754509" lon="12.353776954114437">
        <ele>1463.74</ele>
        <time>2017-03-11T16:03:15Z</time>
      </trkpt>
      <trkpt lat="46.666317153722048" lon="12.353824228048325">
        <ele>1463.74</ele>
        <time>2017-03-11T16:03:41Z</time>
      </trkpt>
      <trkpt lat="46.666282452642918" lon="12.353845937177539">
        <ele>1464.71</ele>
        <time>2017-03-11T16:04:05Z</time>
      </trkpt>
    </trkseg>
  </trk>

</gpx>